<?xml version="1.0" encoding="UTF-8" standalone="no" ?>
<gpx xmlns="http://www.topografix.com/GPX/1/1" xmlns:xsi="http://www.w3.org/2001/XMLSchema-instance" xsi:schemaLocation="http://www.topografix.com/GPX/1/1 http://www.topografix.com/GPX/1/1/gpx.xsd" version="1.1" creator="VisuGPX - https://www.visugpx.com">
  <metadata>
    <name>20190930-Mignavillers-Besancon</name>
    <desc><![CDATA[15ème jour de notre tour de France]]></desc>
  </metadata>
  <trk>
    <name><![CDATA[Tracé 20190930-091834]]></name>
    <trkseg>
      <trkpt lat="47.58184" lon="6.5538">
        <ele>290.151</ele>
        <time>2019-09-30T07:18:34Z</time>
      </trkpt>
      <trkpt lat="47.58184" lon="6.5538">
        <ele>290.151</ele>
        <time>2019-09-30T07:18:37Z</time>
      </trkpt>
      <trkpt lat="47.58184" lon="6.5538">
        <ele>290.1</ele>
        <time>2019-09-30T07:22:31Z</time>
      </trkpt>
      <trkpt lat="47.58184" lon="6.55366">
        <ele>290.239</ele>
        <time>2019-09-30T07:22:34Z</time>
      </trkpt>
      <trkpt lat="47.58184" lon="6.55356">
        <ele>289.978</ele>
        <time>2019-09-30T07:22:37Z</time>
      </trkpt>
      <trkpt lat="47.58184" lon="6.55346">
        <ele>290.029</ele>
        <time>2019-09-30T07:22:40Z</time>
      </trkpt>
      <trkpt lat="47.58182" lon="6.55334">
        <ele>289.857</ele>
        <time>2019-09-30T07:22:43Z</time>
      </trkpt>
      <trkpt lat="47.58175" lon="6.5532">
        <ele>289.067</ele>
        <time>2019-09-30T07:22:46Z</time>
      </trkpt>
      <trkpt lat="47.58167" lon="6.55306">
        <ele>288.427</ele>
        <time>2019-09-30T07:22:49Z</time>
      </trkpt>
      <trkpt lat="47.58156" lon="6.55294">
        <ele>288.747</ele>
        <time>2019-09-30T07:22:52Z</time>
      </trkpt>
      <trkpt lat="47.58144" lon="6.55282">
        <ele>289.292</ele>
        <time>2019-09-30T07:22:55Z</time>
      </trkpt>
      <trkpt lat="47.58133" lon="6.5527">
        <ele>290.144</ele>
        <time>2019-09-30T07:22:58Z</time>
      </trkpt>
      <trkpt lat="47.58122" lon="6.55255">
        <ele>289.675</ele>
        <time>2019-09-30T07:23:01Z</time>
      </trkpt>
      <trkpt lat="47.58113" lon="6.55239">
        <ele>289.644</ele>
        <time>2019-09-30T07:23:04Z</time>
      </trkpt>
      <trkpt lat="47.58104" lon="6.55224">
        <ele>290.194</ele>
        <time>2019-09-30T07:23:07Z</time>
      </trkpt>
      <trkpt lat="47.58095" lon="6.55209">
        <ele>289.997</ele>
        <time>2019-09-30T07:23:10Z</time>
      </trkpt>
      <trkpt lat="47.58089" lon="6.55193">
        <ele>289.605</ele>
        <time>2019-09-30T07:23:13Z</time>
      </trkpt>
      <trkpt lat="47.58082" lon="6.55176">
        <ele>289.343</ele>
        <time>2019-09-30T07:23:16Z</time>
      </trkpt>
      <trkpt lat="47.58074" lon="6.55161">
        <ele>288.822</ele>
        <time>2019-09-30T07:23:19Z</time>
      </trkpt>
      <trkpt lat="47.58066" lon="6.55146">
        <ele>288.761</ele>
        <time>2019-09-30T07:23:22Z</time>
      </trkpt>
      <trkpt lat="47.58057" lon="6.55131">
        <ele>289.07</ele>
        <time>2019-09-30T07:23:25Z</time>
      </trkpt>
      <trkpt lat="47.58048" lon="6.5512">
        <ele>289.507</ele>
        <time>2019-09-30T07:23:28Z</time>
      </trkpt>
      <trkpt lat="47.58035" lon="6.55117">
        <ele>289.237</ele>
        <time>2019-09-30T07:23:31Z</time>
      </trkpt>
      <trkpt lat="47.58019" lon="6.55119">
        <ele>288.99</ele>
        <time>2019-09-30T07:23:34Z</time>
      </trkpt>
      <trkpt lat="47.58004" lon="6.55124">
        <ele>288.494</ele>
        <time>2019-09-30T07:23:37Z</time>
      </trkpt>
      <trkpt lat="47.57988" lon="6.55129">
        <ele>288.931</ele>
        <time>2019-09-30T07:23:40Z</time>
      </trkpt>
      <trkpt lat="47.57971" lon="6.55128">
        <ele>289.639</ele>
        <time>2019-09-30T07:23:43Z</time>
      </trkpt>
      <trkpt lat="47.57957" lon="6.55112">
        <ele>290.455</ele>
        <time>2019-09-30T07:23:46Z</time>
      </trkpt>
      <trkpt lat="47.57944" lon="6.55091">
        <ele>290.976</ele>
        <time>2019-09-30T07:23:49Z</time>
      </trkpt>
      <trkpt lat="47.57931" lon="6.55073">
        <ele>291.749</ele>
        <time>2019-09-30T07:23:52Z</time>
      </trkpt>
      <trkpt lat="47.57918" lon="6.55056">
        <ele>291.492</ele>
        <time>2019-09-30T07:23:55Z</time>
      </trkpt>
      <trkpt lat="47.57906" lon="6.5504">
        <ele>291.431</ele>
        <time>2019-09-30T07:23:58Z</time>
      </trkpt>
      <trkpt lat="47.57897" lon="6.55019">
        <ele>290.997</ele>
        <time>2019-09-30T07:24:01Z</time>
      </trkpt>
      <trkpt lat="47.5789" lon="6.54996">
        <ele>291.041</ele>
        <time>2019-09-30T07:24:04Z</time>
      </trkpt>
      <trkpt lat="47.57884" lon="6.54974">
        <ele>289.958</ele>
        <time>2019-09-30T07:24:07Z</time>
      </trkpt>
      <trkpt lat="47.57877" lon="6.54953">
        <ele>288.145</ele>
        <time>2019-09-30T07:24:10Z</time>
      </trkpt>
      <trkpt lat="47.5787" lon="6.54932">
        <ele>286.376</ele>
        <time>2019-09-30T07:24:13Z</time>
      </trkpt>
      <trkpt lat="47.57864" lon="6.54912">
        <ele>285.579</ele>
        <time>2019-09-30T07:24:16Z</time>
      </trkpt>
      <trkpt lat="47.57857" lon="6.54892">
        <ele>285.109</ele>
        <time>2019-09-30T07:24:19Z</time>
      </trkpt>
      <trkpt lat="47.57849" lon="6.54873">
        <ele>285.027</ele>
        <time>2019-09-30T07:24:22Z</time>
      </trkpt>
      <trkpt lat="47.57842" lon="6.54853">
        <ele>284.658</ele>
        <time>2019-09-30T07:24:25Z</time>
      </trkpt>
      <trkpt lat="47.57838" lon="6.54836">
        <ele>284.987</ele>
        <time>2019-09-30T07:24:28Z</time>
      </trkpt>
      <trkpt lat="47.57825" lon="6.54833">
        <ele>284.499</ele>
        <time>2019-09-30T07:24:31Z</time>
      </trkpt>
      <trkpt lat="47.57808" lon="6.54837">
        <ele>283.979</ele>
        <time>2019-09-30T07:24:34Z</time>
      </trkpt>
      <trkpt lat="47.57792" lon="6.54842">
        <ele>284.275</ele>
        <time>2019-09-30T07:24:37Z</time>
      </trkpt>
      <trkpt lat="47.57777" lon="6.54846">
        <ele>284.28</ele>
        <time>2019-09-30T07:24:40Z</time>
      </trkpt>
      <trkpt lat="47.57762" lon="6.5485">
        <ele>284.076</ele>
        <time>2019-09-30T07:24:43Z</time>
      </trkpt>
      <trkpt lat="47.57747" lon="6.54854">
        <ele>282.81</ele>
        <time>2019-09-30T07:24:46Z</time>
      </trkpt>
      <trkpt lat="47.57732" lon="6.54857">
        <ele>282.659</ele>
        <time>2019-09-30T07:24:49Z</time>
      </trkpt>
      <trkpt lat="47.57717" lon="6.54859">
        <ele>283.049</ele>
        <time>2019-09-30T07:24:52Z</time>
      </trkpt>
      <trkpt lat="47.577" lon="6.54863">
        <ele>284.038</ele>
        <time>2019-09-30T07:24:55Z</time>
      </trkpt>
      <trkpt lat="47.57685" lon="6.54865">
        <ele>284.244</ele>
        <time>2019-09-30T07:24:58Z</time>
      </trkpt>
      <trkpt lat="47.57671" lon="6.54867">
        <ele>284.235</ele>
        <time>2019-09-30T07:25:01Z</time>
      </trkpt>
      <trkpt lat="47.57656" lon="6.54868">
        <ele>284.194</ele>
        <time>2019-09-30T07:25:04Z</time>
      </trkpt>
      <trkpt lat="47.57641" lon="6.54869">
        <ele>284.011</ele>
        <time>2019-09-30T07:25:07Z</time>
      </trkpt>
      <trkpt lat="47.57625" lon="6.5487">
        <ele>283.565</ele>
        <time>2019-09-30T07:25:10Z</time>
      </trkpt>
      <trkpt lat="47.5761" lon="6.54871">
        <ele>282.851</ele>
        <time>2019-09-30T07:25:13Z</time>
      </trkpt>
      <trkpt lat="47.57595" lon="6.54872">
        <ele>282.777</ele>
        <time>2019-09-30T07:25:16Z</time>
      </trkpt>
      <trkpt lat="47.57581" lon="6.54876">
        <ele>283.083</ele>
        <time>2019-09-30T07:25:19Z</time>
      </trkpt>
      <trkpt lat="47.57567" lon="6.54882">
        <ele>285.706</ele>
        <time>2019-09-30T07:25:22Z</time>
      </trkpt>
      <trkpt lat="47.57554" lon="6.54889">
        <ele>286.578</ele>
        <time>2019-09-30T07:25:25Z</time>
      </trkpt>
      <trkpt lat="47.57546" lon="6.54897">
        <ele>286.9</ele>
        <time>2019-09-30T07:25:28Z</time>
      </trkpt>
      <trkpt lat="47.5754" lon="6.54906">
        <ele>287.39</ele>
        <time>2019-09-30T07:25:31Z</time>
      </trkpt>
      <trkpt lat="47.57535" lon="6.54912">
        <ele>288.407</ele>
        <time>2019-09-30T07:25:34Z</time>
      </trkpt>
      <trkpt lat="47.57529" lon="6.54918">
        <ele>289.119</ele>
        <time>2019-09-30T07:25:37Z</time>
      </trkpt>
      <trkpt lat="47.57523" lon="6.54924">
        <ele>290.697</ele>
        <time>2019-09-30T07:25:40Z</time>
      </trkpt>
      <trkpt lat="47.57517" lon="6.54929">
        <ele>291.466</ele>
        <time>2019-09-30T07:25:43Z</time>
      </trkpt>
      <trkpt lat="47.57509" lon="6.54935">
        <ele>292.504</ele>
        <time>2019-09-30T07:25:49Z</time>
      </trkpt>
      <trkpt lat="47.57502" lon="6.5494">
        <ele>293.412</ele>
        <time>2019-09-30T07:25:55Z</time>
      </trkpt>
      <trkpt lat="47.57496" lon="6.54941">
        <ele>293.679</ele>
        <time>2019-09-30T07:25:58Z</time>
      </trkpt>
      <trkpt lat="47.57488" lon="6.54932">
        <ele>293.683</ele>
        <time>2019-09-30T07:26:01Z</time>
      </trkpt>
      <trkpt lat="47.57479" lon="6.54911">
        <ele>294.387</ele>
        <time>2019-09-30T07:26:04Z</time>
      </trkpt>
      <trkpt lat="47.57471" lon="6.54887">
        <ele>294.895</ele>
        <time>2019-09-30T07:26:07Z</time>
      </trkpt>
      <trkpt lat="47.57463" lon="6.54863">
        <ele>295.288</ele>
        <time>2019-09-30T07:26:10Z</time>
      </trkpt>
      <trkpt lat="47.57454" lon="6.54837">
        <ele>295.875</ele>
        <time>2019-09-30T07:26:13Z</time>
      </trkpt>
      <trkpt lat="47.57445" lon="6.5481">
        <ele>295.697</ele>
        <time>2019-09-30T07:26:16Z</time>
      </trkpt>
      <trkpt lat="47.57436" lon="6.54786">
        <ele>295.622</ele>
        <time>2019-09-30T07:26:19Z</time>
      </trkpt>
      <trkpt lat="47.57428" lon="6.54763">
        <ele>294.78</ele>
        <time>2019-09-30T07:26:22Z</time>
      </trkpt>
      <trkpt lat="47.57421" lon="6.54745">
        <ele>294.546</ele>
        <time>2019-09-30T07:26:25Z</time>
      </trkpt>
      <trkpt lat="47.57411" lon="6.54727">
        <ele>293.894</ele>
        <time>2019-09-30T07:26:28Z</time>
      </trkpt>
      <trkpt lat="47.57402" lon="6.5471">
        <ele>293.23</ele>
        <time>2019-09-30T07:26:31Z</time>
      </trkpt>
      <trkpt lat="47.57393" lon="6.54693">
        <ele>293.38</ele>
        <time>2019-09-30T07:26:34Z</time>
      </trkpt>
      <trkpt lat="47.57386" lon="6.54675">
        <ele>292.453</ele>
        <time>2019-09-30T07:26:37Z</time>
      </trkpt>
      <trkpt lat="47.57381" lon="6.54657">
        <ele>292.118</ele>
        <time>2019-09-30T07:26:40Z</time>
      </trkpt>
      <trkpt lat="47.57375" lon="6.54639">
        <ele>291.908</ele>
        <time>2019-09-30T07:26:43Z</time>
      </trkpt>
      <trkpt lat="47.57369" lon="6.5462">
        <ele>292.501</ele>
        <time>2019-09-30T07:26:46Z</time>
      </trkpt>
      <trkpt lat="47.57363" lon="6.54601">
        <ele>291.945</ele>
        <time>2019-09-30T07:26:49Z</time>
      </trkpt>
      <trkpt lat="47.57357" lon="6.54582">
        <ele>291.998</ele>
        <time>2019-09-30T07:26:52Z</time>
      </trkpt>
      <trkpt lat="47.5735" lon="6.54563">
        <ele>292.063</ele>
        <time>2019-09-30T07:26:55Z</time>
      </trkpt>
      <trkpt lat="47.57343" lon="6.54543">
        <ele>291.697</ele>
        <time>2019-09-30T07:26:58Z</time>
      </trkpt>
      <trkpt lat="47.57337" lon="6.54524">
        <ele>291.112</ele>
        <time>2019-09-30T07:27:01Z</time>
      </trkpt>
      <trkpt lat="47.57329" lon="6.54507">
        <ele>290.936</ele>
        <time>2019-09-30T07:27:04Z</time>
      </trkpt>
      <trkpt lat="47.57322" lon="6.54489">
        <ele>291.202</ele>
        <time>2019-09-30T07:27:07Z</time>
      </trkpt>
      <trkpt lat="47.57315" lon="6.5447">
        <ele>291.396</ele>
        <time>2019-09-30T07:27:10Z</time>
      </trkpt>
      <trkpt lat="47.57307" lon="6.54452">
        <ele>290.943</ele>
        <time>2019-09-30T07:27:13Z</time>
      </trkpt>
      <trkpt lat="47.573" lon="6.54433">
        <ele>290.633</ele>
        <time>2019-09-30T07:27:16Z</time>
      </trkpt>
      <trkpt lat="47.57293" lon="6.54416">
        <ele>290.184</ele>
        <time>2019-09-30T07:27:19Z</time>
      </trkpt>
      <trkpt lat="47.57285" lon="6.54399">
        <ele>289.484</ele>
        <time>2019-09-30T07:27:22Z</time>
      </trkpt>
      <trkpt lat="47.57278" lon="6.54383">
        <ele>288.983</ele>
        <time>2019-09-30T07:27:25Z</time>
      </trkpt>
      <trkpt lat="47.5727" lon="6.54368">
        <ele>288.901</ele>
        <time>2019-09-30T07:27:28Z</time>
      </trkpt>
      <trkpt lat="47.57264" lon="6.54353">
        <ele>288.1</ele>
        <time>2019-09-30T07:27:31Z</time>
      </trkpt>
      <trkpt lat="47.57257" lon="6.54337">
        <ele>288.034</ele>
        <time>2019-09-30T07:27:34Z</time>
      </trkpt>
      <trkpt lat="47.57249" lon="6.54321">
        <ele>287.63</ele>
        <time>2019-09-30T07:27:37Z</time>
      </trkpt>
      <trkpt lat="47.57242" lon="6.54306">
        <ele>287.866</ele>
        <time>2019-09-30T07:27:40Z</time>
      </trkpt>
      <trkpt lat="47.57234" lon="6.54291">
        <ele>288.626</ele>
        <time>2019-09-30T07:27:43Z</time>
      </trkpt>
      <trkpt lat="47.57227" lon="6.54277">
        <ele>289.182</ele>
        <time>2019-09-30T07:27:46Z</time>
      </trkpt>
      <trkpt lat="47.5722" lon="6.54264">
        <ele>289.405</ele>
        <time>2019-09-30T07:27:49Z</time>
      </trkpt>
      <trkpt lat="47.57213" lon="6.5425">
        <ele>289.644</ele>
        <time>2019-09-30T07:27:52Z</time>
      </trkpt>
      <trkpt lat="47.57206" lon="6.54237">
        <ele>289.519</ele>
        <time>2019-09-30T07:27:55Z</time>
      </trkpt>
      <trkpt lat="47.57198" lon="6.54223">
        <ele>288.99</ele>
        <time>2019-09-30T07:27:58Z</time>
      </trkpt>
      <trkpt lat="47.5719" lon="6.54208">
        <ele>289.067</ele>
        <time>2019-09-30T07:28:01Z</time>
      </trkpt>
      <trkpt lat="47.57181" lon="6.54192">
        <ele>289.182</ele>
        <time>2019-09-30T07:28:04Z</time>
      </trkpt>
      <trkpt lat="47.57172" lon="6.54175">
        <ele>289.132</ele>
        <time>2019-09-30T07:28:07Z</time>
      </trkpt>
      <trkpt lat="47.57161" lon="6.54157">
        <ele>288.925</ele>
        <time>2019-09-30T07:28:10Z</time>
      </trkpt>
      <trkpt lat="47.5715" lon="6.54138">
        <ele>288.629</ele>
        <time>2019-09-30T07:28:13Z</time>
      </trkpt>
      <trkpt lat="47.57137" lon="6.54116">
        <ele>288.049</ele>
        <time>2019-09-30T07:28:16Z</time>
      </trkpt>
      <trkpt lat="47.57122" lon="6.54091">
        <ele>287.229</ele>
        <time>2019-09-30T07:28:19Z</time>
      </trkpt>
      <trkpt lat="47.57104" lon="6.54064">
        <ele>286.473</ele>
        <time>2019-09-30T07:28:22Z</time>
      </trkpt>
      <trkpt lat="47.57087" lon="6.54038">
        <ele>285.75</ele>
        <time>2019-09-30T07:28:25Z</time>
      </trkpt>
      <trkpt lat="47.57073" lon="6.54016">
        <ele>285.357</ele>
        <time>2019-09-30T07:28:28Z</time>
      </trkpt>
      <trkpt lat="47.57059" lon="6.53993">
        <ele>285.478</ele>
        <time>2019-09-30T07:28:31Z</time>
      </trkpt>
      <trkpt lat="47.57047" lon="6.53969">
        <ele>285.78</ele>
        <time>2019-09-30T07:28:34Z</time>
      </trkpt>
      <trkpt lat="47.57036" lon="6.53946">
        <ele>286.078</ele>
        <time>2019-09-30T07:28:37Z</time>
      </trkpt>
      <trkpt lat="47.57029" lon="6.53918">
        <ele>285.462</ele>
        <time>2019-09-30T07:28:40Z</time>
      </trkpt>
      <trkpt lat="47.57027" lon="6.5389">
        <ele>284.869</ele>
        <time>2019-09-30T07:28:43Z</time>
      </trkpt>
      <trkpt lat="47.57029" lon="6.5386">
        <ele>285.374</ele>
        <time>2019-09-30T07:28:46Z</time>
      </trkpt>
      <trkpt lat="47.57033" lon="6.53831">
        <ele>284.397</ele>
        <time>2019-09-30T07:28:49Z</time>
      </trkpt>
      <trkpt lat="47.57036" lon="6.53803">
        <ele>284.326</ele>
        <time>2019-09-30T07:28:52Z</time>
      </trkpt>
      <trkpt lat="47.57035" lon="6.53775">
        <ele>283.974</ele>
        <time>2019-09-30T07:28:55Z</time>
      </trkpt>
      <trkpt lat="47.57032" lon="6.53752">
        <ele>284.623</ele>
        <time>2019-09-30T07:28:58Z</time>
      </trkpt>
      <trkpt lat="47.57027" lon="6.53728">
        <ele>285.479</ele>
        <time>2019-09-30T07:29:01Z</time>
      </trkpt>
      <trkpt lat="47.57023" lon="6.53704">
        <ele>286.233</ele>
        <time>2019-09-30T07:29:04Z</time>
      </trkpt>
      <trkpt lat="47.57017" lon="6.53683">
        <ele>287.011</ele>
        <time>2019-09-30T07:29:07Z</time>
      </trkpt>
      <trkpt lat="47.57012" lon="6.53667">
        <ele>287.678</ele>
        <time>2019-09-30T07:29:10Z</time>
      </trkpt>
      <trkpt lat="47.57007" lon="6.53651">
        <ele>288.544</ele>
        <time>2019-09-30T07:29:13Z</time>
      </trkpt>
      <trkpt lat="47.57002" lon="6.53634">
        <ele>289.802</ele>
        <time>2019-09-30T07:29:16Z</time>
      </trkpt>
      <trkpt lat="47.56996" lon="6.53613">
        <ele>291.328</ele>
        <time>2019-09-30T07:29:19Z</time>
      </trkpt>
      <trkpt lat="47.56989" lon="6.53593">
        <ele>292.716</ele>
        <time>2019-09-30T07:29:22Z</time>
      </trkpt>
      <trkpt lat="47.56981" lon="6.5357">
        <ele>294.314</ele>
        <time>2019-09-30T07:29:25Z</time>
      </trkpt>
      <trkpt lat="47.5697" lon="6.53547">
        <ele>296.389</ele>
        <time>2019-09-30T07:29:28Z</time>
      </trkpt>
      <trkpt lat="47.56961" lon="6.53525">
        <ele>298.704</ele>
        <time>2019-09-30T07:29:31Z</time>
      </trkpt>
      <trkpt lat="47.56952" lon="6.53505">
        <ele>300.37</ele>
        <time>2019-09-30T07:29:34Z</time>
      </trkpt>
      <trkpt lat="47.56945" lon="6.53486">
        <ele>302.007</ele>
        <time>2019-09-30T07:29:37Z</time>
      </trkpt>
      <trkpt lat="47.56939" lon="6.53469">
        <ele>302.791</ele>
        <time>2019-09-30T07:29:40Z</time>
      </trkpt>
      <trkpt lat="47.56933" lon="6.53453">
        <ele>304.168</ele>
        <time>2019-09-30T07:29:43Z</time>
      </trkpt>
      <trkpt lat="47.56927" lon="6.53436">
        <ele>304.564</ele>
        <time>2019-09-30T07:29:46Z</time>
      </trkpt>
      <trkpt lat="47.5692" lon="6.5342">
        <ele>304.76</ele>
        <time>2019-09-30T07:29:49Z</time>
      </trkpt>
      <trkpt lat="47.56912" lon="6.53402">
        <ele>303.246</ele>
        <time>2019-09-30T07:29:52Z</time>
      </trkpt>
      <trkpt lat="47.56904" lon="6.53385">
        <ele>301.085</ele>
        <time>2019-09-30T07:29:55Z</time>
      </trkpt>
      <trkpt lat="47.56895" lon="6.53367">
        <ele>298.104</ele>
        <time>2019-09-30T07:29:58Z</time>
      </trkpt>
      <trkpt lat="47.56887" lon="6.53351">
        <ele>295.232</ele>
        <time>2019-09-30T07:30:01Z</time>
      </trkpt>
      <trkpt lat="47.5688" lon="6.53336">
        <ele>293.46</ele>
        <time>2019-09-30T07:30:04Z</time>
      </trkpt>
      <trkpt lat="47.56873" lon="6.5332">
        <ele>292.808</ele>
        <time>2019-09-30T07:30:07Z</time>
      </trkpt>
      <trkpt lat="47.56866" lon="6.53304">
        <ele>291.979</ele>
        <time>2019-09-30T07:30:10Z</time>
      </trkpt>
      <trkpt lat="47.56858" lon="6.5329">
        <ele>291.943</ele>
        <time>2019-09-30T07:30:13Z</time>
      </trkpt>
      <trkpt lat="47.56852" lon="6.53277">
        <ele>291.674</ele>
        <time>2019-09-30T07:30:16Z</time>
      </trkpt>
      <trkpt lat="47.56845" lon="6.53266">
        <ele>291.712</ele>
        <time>2019-09-30T07:30:19Z</time>
      </trkpt>
      <trkpt lat="47.56838" lon="6.53257">
        <ele>291.744</ele>
        <time>2019-09-30T07:30:22Z</time>
      </trkpt>
      <trkpt lat="47.56831" lon="6.53248">
        <ele>291.86</ele>
        <time>2019-09-30T07:30:25Z</time>
      </trkpt>
      <trkpt lat="47.56823" lon="6.5324">
        <ele>292.059</ele>
        <time>2019-09-30T07:30:28Z</time>
      </trkpt>
      <trkpt lat="47.56817" lon="6.53232">
        <ele>292.87</ele>
        <time>2019-09-30T07:30:31Z</time>
      </trkpt>
      <trkpt lat="47.56811" lon="6.53224">
        <ele>293.166</ele>
        <time>2019-09-30T07:30:34Z</time>
      </trkpt>
      <trkpt lat="47.56804" lon="6.53218">
        <ele>293.479</ele>
        <time>2019-09-30T07:30:37Z</time>
      </trkpt>
      <trkpt lat="47.56797" lon="6.53211">
        <ele>293.845</ele>
        <time>2019-09-30T07:30:40Z</time>
      </trkpt>
      <trkpt lat="47.5679" lon="6.53203">
        <ele>294.349</ele>
        <time>2019-09-30T07:30:43Z</time>
      </trkpt>
      <trkpt lat="47.56784" lon="6.53196">
        <ele>294.684</ele>
        <time>2019-09-30T07:30:46Z</time>
      </trkpt>
      <trkpt lat="47.56777" lon="6.53189">
        <ele>294.737</ele>
        <time>2019-09-30T07:30:49Z</time>
      </trkpt>
      <trkpt lat="47.56769" lon="6.53181">
        <ele>294.746</ele>
        <time>2019-09-30T07:30:52Z</time>
      </trkpt>
      <trkpt lat="47.56763" lon="6.53174">
        <ele>294.752</ele>
        <time>2019-09-30T07:30:55Z</time>
      </trkpt>
      <trkpt lat="47.56755" lon="6.53166">
        <ele>294.687</ele>
        <time>2019-09-30T07:30:58Z</time>
      </trkpt>
      <trkpt lat="47.56748" lon="6.53158">
        <ele>294.28</ele>
        <time>2019-09-30T07:31:01Z</time>
      </trkpt>
      <trkpt lat="47.56741" lon="6.53151">
        <ele>294.06</ele>
        <time>2019-09-30T07:31:04Z</time>
      </trkpt>
      <trkpt lat="47.56733" lon="6.53143">
        <ele>293.835</ele>
        <time>2019-09-30T07:31:07Z</time>
      </trkpt>
      <trkpt lat="47.56726" lon="6.53134">
        <ele>294.182</ele>
        <time>2019-09-30T07:31:10Z</time>
      </trkpt>
      <trkpt lat="47.56718" lon="6.53125">
        <ele>294.395</ele>
        <time>2019-09-30T07:31:13Z</time>
      </trkpt>
      <trkpt lat="47.56711" lon="6.53117">
        <ele>294.457</ele>
        <time>2019-09-30T07:31:16Z</time>
      </trkpt>
      <trkpt lat="47.56704" lon="6.53107">
        <ele>294.595</ele>
        <time>2019-09-30T07:31:19Z</time>
      </trkpt>
      <trkpt lat="47.56696" lon="6.53098">
        <ele>294.937</ele>
        <time>2019-09-30T07:31:22Z</time>
      </trkpt>
      <trkpt lat="47.56688" lon="6.53093">
        <ele>295.533</ele>
        <time>2019-09-30T07:31:25Z</time>
      </trkpt>
      <trkpt lat="47.5668" lon="6.53091">
        <ele>296.128</ele>
        <time>2019-09-30T07:31:28Z</time>
      </trkpt>
      <trkpt lat="47.56671" lon="6.53091">
        <ele>297.119</ele>
        <time>2019-09-30T07:31:31Z</time>
      </trkpt>
      <trkpt lat="47.5666" lon="6.53089">
        <ele>297.74</ele>
        <time>2019-09-30T07:31:34Z</time>
      </trkpt>
      <trkpt lat="47.56648" lon="6.53082">
        <ele>298.127</ele>
        <time>2019-09-30T07:31:37Z</time>
      </trkpt>
      <trkpt lat="47.56638" lon="6.53064">
        <ele>299.156</ele>
        <time>2019-09-30T07:31:40Z</time>
      </trkpt>
      <trkpt lat="47.56634" lon="6.53042">
        <ele>299.521</ele>
        <time>2019-09-30T07:31:43Z</time>
      </trkpt>
      <trkpt lat="47.56632" lon="6.53021">
        <ele>300.068</ele>
        <time>2019-09-30T07:31:46Z</time>
      </trkpt>
      <trkpt lat="47.56626" lon="6.52995">
        <ele>300.744</ele>
        <time>2019-09-30T07:31:49Z</time>
      </trkpt>
      <trkpt lat="47.56618" lon="6.52968">
        <ele>301.553</ele>
        <time>2019-09-30T07:31:52Z</time>
      </trkpt>
      <trkpt lat="47.56612" lon="6.5294">
        <ele>301.772</ele>
        <time>2019-09-30T07:31:55Z</time>
      </trkpt>
      <trkpt lat="47.56611" lon="6.52908">
        <ele>301.442</ele>
        <time>2019-09-30T07:31:58Z</time>
      </trkpt>
      <trkpt lat="47.56613" lon="6.52876">
        <ele>301.397</ele>
        <time>2019-09-30T07:32:01Z</time>
      </trkpt>
      <trkpt lat="47.56615" lon="6.52848">
        <ele>298.769</ele>
        <time>2019-09-30T07:32:04Z</time>
      </trkpt>
      <trkpt lat="47.56616" lon="6.52822">
        <ele>297.746</ele>
        <time>2019-09-30T07:32:07Z</time>
      </trkpt>
      <trkpt lat="47.56614" lon="6.52799">
        <ele>296.672</ele>
        <time>2019-09-30T07:32:10Z</time>
      </trkpt>
      <trkpt lat="47.56611" lon="6.52779">
        <ele>295.988</ele>
        <time>2019-09-30T07:32:13Z</time>
      </trkpt>
      <trkpt lat="47.56608" lon="6.52764">
        <ele>296.137</ele>
        <time>2019-09-30T07:32:16Z</time>
      </trkpt>
      <trkpt lat="47.56604" lon="6.5275">
        <ele>295.771</ele>
        <time>2019-09-30T07:32:19Z</time>
      </trkpt>
      <trkpt lat="47.566" lon="6.52737">
        <ele>295.334</ele>
        <time>2019-09-30T07:32:22Z</time>
      </trkpt>
      <trkpt lat="47.56599" lon="6.52723">
        <ele>294.677</ele>
        <time>2019-09-30T07:32:25Z</time>
      </trkpt>
      <trkpt lat="47.56595" lon="6.5271">
        <ele>295.189</ele>
        <time>2019-09-30T07:32:28Z</time>
      </trkpt>
      <trkpt lat="47.56589" lon="6.52699">
        <ele>296.053</ele>
        <time>2019-09-30T07:32:31Z</time>
      </trkpt>
      <trkpt lat="47.56585" lon="6.52685">
        <ele>296.346</ele>
        <time>2019-09-30T07:32:34Z</time>
      </trkpt>
      <trkpt lat="47.56583" lon="6.52668">
        <ele>297.261</ele>
        <time>2019-09-30T07:32:37Z</time>
      </trkpt>
      <trkpt lat="47.5659" lon="6.52652">
        <ele>295.53</ele>
        <time>2019-09-30T07:32:40Z</time>
      </trkpt>
      <trkpt lat="47.56606" lon="6.52651">
        <ele>296.731</ele>
        <time>2019-09-30T07:32:43Z</time>
      </trkpt>
      <trkpt lat="47.56623" lon="6.52647">
        <ele>297.249</ele>
        <time>2019-09-30T07:32:46Z</time>
      </trkpt>
      <trkpt lat="47.56639" lon="6.52644">
        <ele>294.803</ele>
        <time>2019-09-30T07:32:49Z</time>
      </trkpt>
      <trkpt lat="47.5666" lon="6.52639">
        <ele>293.182</ele>
        <time>2019-09-30T07:32:52Z</time>
      </trkpt>
      <trkpt lat="47.56679" lon="6.52634">
        <ele>293.805</ele>
        <time>2019-09-30T07:32:55Z</time>
      </trkpt>
      <trkpt lat="47.56697" lon="6.52629">
        <ele>293.178</ele>
        <time>2019-09-30T07:32:58Z</time>
      </trkpt>
      <trkpt lat="47.56711" lon="6.52614">
        <ele>292.145</ele>
        <time>2019-09-30T07:33:01Z</time>
      </trkpt>
      <trkpt lat="47.56716" lon="6.52581">
        <ele>291.282</ele>
        <time>2019-09-30T07:33:04Z</time>
      </trkpt>
      <trkpt lat="47.56721" lon="6.5254">
        <ele>289.642</ele>
        <time>2019-09-30T07:33:07Z</time>
      </trkpt>
      <trkpt lat="47.56729" lon="6.52501">
        <ele>288.612</ele>
        <time>2019-09-30T07:33:10Z</time>
      </trkpt>
      <trkpt lat="47.56735" lon="6.52472">
        <ele>287.533</ele>
        <time>2019-09-30T07:33:13Z</time>
      </trkpt>
      <trkpt lat="47.56743" lon="6.52445">
        <ele>285.451</ele>
        <time>2019-09-30T07:33:16Z</time>
      </trkpt>
      <trkpt lat="47.56753" lon="6.52416">
        <ele>284.119</ele>
        <time>2019-09-30T07:33:19Z</time>
      </trkpt>
      <trkpt lat="47.56766" lon="6.52391">
        <ele>281.32</ele>
        <time>2019-09-30T07:33:22Z</time>
      </trkpt>
      <trkpt lat="47.56781" lon="6.52371">
        <ele>279.576</ele>
        <time>2019-09-30T07:33:25Z</time>
      </trkpt>
      <trkpt lat="47.56796" lon="6.52353">
        <ele>277.943</ele>
        <time>2019-09-30T07:33:28Z</time>
      </trkpt>
      <trkpt lat="47.56809" lon="6.52337">
        <ele>276.99</ele>
        <time>2019-09-30T07:33:31Z</time>
      </trkpt>
      <trkpt lat="47.56821" lon="6.52322">
        <ele>276.629</ele>
        <time>2019-09-30T07:33:34Z</time>
      </trkpt>
      <trkpt lat="47.56832" lon="6.52307">
        <ele>275.95</ele>
        <time>2019-09-30T07:33:37Z</time>
      </trkpt>
      <trkpt lat="47.56843" lon="6.52294">
        <ele>275.581</ele>
        <time>2019-09-30T07:33:40Z</time>
      </trkpt>
      <trkpt lat="47.56855" lon="6.52282">
        <ele>275.022</ele>
        <time>2019-09-30T07:33:43Z</time>
      </trkpt>
      <trkpt lat="47.56868" lon="6.52272">
        <ele>274.555</ele>
        <time>2019-09-30T07:33:46Z</time>
      </trkpt>
      <trkpt lat="47.56881" lon="6.52264">
        <ele>274.448</ele>
        <time>2019-09-30T07:33:49Z</time>
      </trkpt>
      <trkpt lat="47.56895" lon="6.52259">
        <ele>274.843</ele>
        <time>2019-09-30T07:33:52Z</time>
      </trkpt>
      <trkpt lat="47.56908" lon="6.52255">
        <ele>275.224</ele>
        <time>2019-09-30T07:33:55Z</time>
      </trkpt>
      <trkpt lat="47.56922" lon="6.52253">
        <ele>275.874</ele>
        <time>2019-09-30T07:33:58Z</time>
      </trkpt>
      <trkpt lat="47.56936" lon="6.52249">
        <ele>276.494</ele>
        <time>2019-09-30T07:34:01Z</time>
      </trkpt>
      <trkpt lat="47.56949" lon="6.52245">
        <ele>277.105</ele>
        <time>2019-09-30T07:34:04Z</time>
      </trkpt>
      <trkpt lat="47.56961" lon="6.52233">
        <ele>278.1</ele>
        <time>2019-09-30T07:34:07Z</time>
      </trkpt>
      <trkpt lat="47.56967" lon="6.52212">
        <ele>278.445</ele>
        <time>2019-09-30T07:34:10Z</time>
      </trkpt>
      <trkpt lat="47.56971" lon="6.52191">
        <ele>278.634</ele>
        <time>2019-09-30T07:34:13Z</time>
      </trkpt>
      <trkpt lat="47.56975" lon="6.52171">
        <ele>279.036</ele>
        <time>2019-09-30T07:34:16Z</time>
      </trkpt>
      <trkpt lat="47.56977" lon="6.52153">
        <ele>279.596</ele>
        <time>2019-09-30T07:34:19Z</time>
      </trkpt>
      <trkpt lat="47.56979" lon="6.52137">
        <ele>280.386</ele>
        <time>2019-09-30T07:34:22Z</time>
      </trkpt>
      <trkpt lat="47.56981" lon="6.52121">
        <ele>282.069</ele>
        <time>2019-09-30T07:34:25Z</time>
      </trkpt>
      <trkpt lat="47.56983" lon="6.52106">
        <ele>283.545</ele>
        <time>2019-09-30T07:34:28Z</time>
      </trkpt>
      <trkpt lat="47.56984" lon="6.52092">
        <ele>285.201</ele>
        <time>2019-09-30T07:34:31Z</time>
      </trkpt>
      <trkpt lat="47.56986" lon="6.52075">
        <ele>287.122</ele>
        <time>2019-09-30T07:34:34Z</time>
      </trkpt>
      <trkpt lat="47.5699" lon="6.52054">
        <ele>288.362</ele>
        <time>2019-09-30T07:34:37Z</time>
      </trkpt>
      <trkpt lat="47.56994" lon="6.52034">
        <ele>289.663</ele>
        <time>2019-09-30T07:34:40Z</time>
      </trkpt>
      <trkpt lat="47.56999" lon="6.52019">
        <ele>291.812</ele>
        <time>2019-09-30T07:34:43Z</time>
      </trkpt>
      <trkpt lat="47.57005" lon="6.52004">
        <ele>293.676</ele>
        <time>2019-09-30T07:34:46Z</time>
      </trkpt>
      <trkpt lat="47.5701" lon="6.5199">
        <ele>295.114</ele>
        <time>2019-09-30T07:34:49Z</time>
      </trkpt>
      <trkpt lat="47.57017" lon="6.51975">
        <ele>296.206</ele>
        <time>2019-09-30T07:34:52Z</time>
      </trkpt>
      <trkpt lat="47.57023" lon="6.51964">
        <ele>297.53</ele>
        <time>2019-09-30T07:34:55Z</time>
      </trkpt>
      <trkpt lat="47.57028" lon="6.51955">
        <ele>299.463</ele>
        <time>2019-09-30T07:34:58Z</time>
      </trkpt>
      <trkpt lat="47.57033" lon="6.51945">
        <ele>301.06</ele>
        <time>2019-09-30T07:35:01Z</time>
      </trkpt>
      <trkpt lat="47.57038" lon="6.51935">
        <ele>302.289</ele>
        <time>2019-09-30T07:35:04Z</time>
      </trkpt>
      <trkpt lat="47.57046" lon="6.5192">
        <ele>303.461</ele>
        <time>2019-09-30T07:35:07Z</time>
      </trkpt>
      <trkpt lat="47.57054" lon="6.51904">
        <ele>304.618</ele>
        <time>2019-09-30T07:35:10Z</time>
      </trkpt>
      <trkpt lat="47.57061" lon="6.51888">
        <ele>305.663</ele>
        <time>2019-09-30T07:35:13Z</time>
      </trkpt>
      <trkpt lat="47.57068" lon="6.51874">
        <ele>306.482</ele>
        <time>2019-09-30T07:35:16Z</time>
      </trkpt>
      <trkpt lat="47.57075" lon="6.51861">
        <ele>306.962</ele>
        <time>2019-09-30T07:35:19Z</time>
      </trkpt>
      <trkpt lat="47.57082" lon="6.51848">
        <ele>306.523</ele>
        <time>2019-09-30T07:35:22Z</time>
      </trkpt>
      <trkpt lat="47.57089" lon="6.51836">
        <ele>306.425</ele>
        <time>2019-09-30T07:35:25Z</time>
      </trkpt>
      <trkpt lat="47.57097" lon="6.51822">
        <ele>305.948</ele>
        <time>2019-09-30T07:35:28Z</time>
      </trkpt>
      <trkpt lat="47.57106" lon="6.51808">
        <ele>305.13</ele>
        <time>2019-09-30T07:35:31Z</time>
      </trkpt>
      <trkpt lat="47.57111" lon="6.51792">
        <ele>304.807</ele>
        <time>2019-09-30T07:35:34Z</time>
      </trkpt>
      <trkpt lat="47.57118" lon="6.51777">
        <ele>304.248</ele>
        <time>2019-09-30T07:35:37Z</time>
      </trkpt>
      <trkpt lat="47.57125" lon="6.51765">
        <ele>303.736</ele>
        <time>2019-09-30T07:35:40Z</time>
      </trkpt>
      <trkpt lat="47.57132" lon="6.51752">
        <ele>303.526</ele>
        <time>2019-09-30T07:35:43Z</time>
      </trkpt>
      <trkpt lat="47.5714" lon="6.51738">
        <ele>302.475</ele>
        <time>2019-09-30T07:35:46Z</time>
      </trkpt>
      <trkpt lat="47.57148" lon="6.51722">
        <ele>300.905</ele>
        <time>2019-09-30T07:35:49Z</time>
      </trkpt>
      <trkpt lat="47.5716" lon="6.51701">
        <ele>299.008</ele>
        <time>2019-09-30T07:35:52Z</time>
      </trkpt>
      <trkpt lat="47.57172" lon="6.51679">
        <ele>296.532</ele>
        <time>2019-09-30T07:35:55Z</time>
      </trkpt>
      <trkpt lat="47.57184" lon="6.51656">
        <ele>294.201</ele>
        <time>2019-09-30T07:35:58Z</time>
      </trkpt>
      <trkpt lat="47.57196" lon="6.51634">
        <ele>292.317</ele>
        <time>2019-09-30T07:36:01Z</time>
      </trkpt>
      <trkpt lat="47.57207" lon="6.51612">
        <ele>291.172</ele>
        <time>2019-09-30T07:36:04Z</time>
      </trkpt>
      <trkpt lat="47.57217" lon="6.51589">
        <ele>288.877</ele>
        <time>2019-09-30T07:36:07Z</time>
      </trkpt>
      <trkpt lat="47.57228" lon="6.51566">
        <ele>286.539</ele>
        <time>2019-09-30T07:36:10Z</time>
      </trkpt>
      <trkpt lat="47.5724" lon="6.51541">
        <ele>285.046</ele>
        <time>2019-09-30T07:36:13Z</time>
      </trkpt>
      <trkpt lat="47.57252" lon="6.51515">
        <ele>283.801</ele>
        <time>2019-09-30T07:36:16Z</time>
      </trkpt>
      <trkpt lat="47.57264" lon="6.51489">
        <ele>282.79</ele>
        <time>2019-09-30T07:36:19Z</time>
      </trkpt>
      <trkpt lat="47.57276" lon="6.51466">
        <ele>282.146</ele>
        <time>2019-09-30T07:36:22Z</time>
      </trkpt>
      <trkpt lat="47.57285" lon="6.51447">
        <ele>281.256</ele>
        <time>2019-09-30T07:36:25Z</time>
      </trkpt>
      <trkpt lat="47.57295" lon="6.5143">
        <ele>280.658</ele>
        <time>2019-09-30T07:36:28Z</time>
      </trkpt>
      <trkpt lat="47.57303" lon="6.51415">
        <ele>280.445</ele>
        <time>2019-09-30T07:36:31Z</time>
      </trkpt>
      <trkpt lat="47.57311" lon="6.51399">
        <ele>280.765</ele>
        <time>2019-09-30T07:36:34Z</time>
      </trkpt>
      <trkpt lat="47.57318" lon="6.51382">
        <ele>281.375</ele>
        <time>2019-09-30T07:36:37Z</time>
      </trkpt>
      <trkpt lat="47.57325" lon="6.51367">
        <ele>282.495</ele>
        <time>2019-09-30T07:36:40Z</time>
      </trkpt>
      <trkpt lat="47.57332" lon="6.51353">
        <ele>283.467</ele>
        <time>2019-09-30T07:36:43Z</time>
      </trkpt>
      <trkpt lat="47.5734" lon="6.5134">
        <ele>284.109</ele>
        <time>2019-09-30T07:36:46Z</time>
      </trkpt>
      <trkpt lat="47.57347" lon="6.51328">
        <ele>285.555</ele>
        <time>2019-09-30T07:36:49Z</time>
      </trkpt>
      <trkpt lat="47.57354" lon="6.51315">
        <ele>286.885</ele>
        <time>2019-09-30T07:36:52Z</time>
      </trkpt>
      <trkpt lat="47.57361" lon="6.51303">
        <ele>287.845</ele>
        <time>2019-09-30T07:36:55Z</time>
      </trkpt>
      <trkpt lat="47.57368" lon="6.51288">
        <ele>288.742</ele>
        <time>2019-09-30T07:36:58Z</time>
      </trkpt>
      <trkpt lat="47.57377" lon="6.51272">
        <ele>289.599</ele>
        <time>2019-09-30T07:37:01Z</time>
      </trkpt>
      <trkpt lat="47.57388" lon="6.51251">
        <ele>290.57</ele>
        <time>2019-09-30T07:37:04Z</time>
      </trkpt>
      <trkpt lat="47.57399" lon="6.51227">
        <ele>291.794</ele>
        <time>2019-09-30T07:37:07Z</time>
      </trkpt>
      <trkpt lat="47.57409" lon="6.51205">
        <ele>292.913</ele>
        <time>2019-09-30T07:37:10Z</time>
      </trkpt>
      <trkpt lat="47.57417" lon="6.51185">
        <ele>294.151</ele>
        <time>2019-09-30T07:37:13Z</time>
      </trkpt>
      <trkpt lat="47.57427" lon="6.51165">
        <ele>295.063</ele>
        <time>2019-09-30T07:37:16Z</time>
      </trkpt>
      <trkpt lat="47.57439" lon="6.5114">
        <ele>296.274</ele>
        <time>2019-09-30T07:37:19Z</time>
      </trkpt>
      <trkpt lat="47.57451" lon="6.51116">
        <ele>296.947</ele>
        <time>2019-09-30T07:37:22Z</time>
      </trkpt>
      <trkpt lat="47.57462" lon="6.51098">
        <ele>297.028</ele>
        <time>2019-09-30T07:37:25Z</time>
      </trkpt>
      <trkpt lat="47.57474" lon="6.51077">
        <ele>297.145</ele>
        <time>2019-09-30T07:37:28Z</time>
      </trkpt>
      <trkpt lat="47.57486" lon="6.51054">
        <ele>297.447</ele>
        <time>2019-09-30T07:37:31Z</time>
      </trkpt>
      <trkpt lat="47.57495" lon="6.51034">
        <ele>297.731</ele>
        <time>2019-09-30T07:37:34Z</time>
      </trkpt>
      <trkpt lat="47.57505" lon="6.51015">
        <ele>297.875</ele>
        <time>2019-09-30T07:37:37Z</time>
      </trkpt>
      <trkpt lat="47.57519" lon="6.50985">
        <ele>297.965</ele>
        <time>2019-09-30T07:37:40Z</time>
      </trkpt>
      <trkpt lat="47.57534" lon="6.50953">
        <ele>297.89</ele>
        <time>2019-09-30T07:37:43Z</time>
      </trkpt>
      <trkpt lat="47.57547" lon="6.50928">
        <ele>297.85</ele>
        <time>2019-09-30T07:37:46Z</time>
      </trkpt>
      <trkpt lat="47.57558" lon="6.50905">
        <ele>297.909</ele>
        <time>2019-09-30T07:37:49Z</time>
      </trkpt>
      <trkpt lat="47.5757" lon="6.50881">
        <ele>298.164</ele>
        <time>2019-09-30T07:37:52Z</time>
      </trkpt>
      <trkpt lat="47.57583" lon="6.50856">
        <ele>298.003</ele>
        <time>2019-09-30T07:37:55Z</time>
      </trkpt>
      <trkpt lat="47.57595" lon="6.50831">
        <ele>297.156</ele>
        <time>2019-09-30T07:37:58Z</time>
      </trkpt>
      <trkpt lat="47.57607" lon="6.50807">
        <ele>296.415</ele>
        <time>2019-09-30T07:38:01Z</time>
      </trkpt>
      <trkpt lat="47.57616" lon="6.50789">
        <ele>295.947</ele>
        <time>2019-09-30T07:38:04Z</time>
      </trkpt>
      <trkpt lat="47.57623" lon="6.50774">
        <ele>296.9</ele>
        <time>2019-09-30T07:38:07Z</time>
      </trkpt>
      <trkpt lat="47.57631" lon="6.50759">
        <ele>296.488</ele>
        <time>2019-09-30T07:38:10Z</time>
      </trkpt>
      <trkpt lat="47.57641" lon="6.50739">
        <ele>295.726</ele>
        <time>2019-09-30T07:38:13Z</time>
      </trkpt>
      <trkpt lat="47.57651" lon="6.50714">
        <ele>294.066</ele>
        <time>2019-09-30T07:38:16Z</time>
      </trkpt>
      <trkpt lat="47.57661" lon="6.5069">
        <ele>292.137</ele>
        <time>2019-09-30T07:38:19Z</time>
      </trkpt>
      <trkpt lat="47.57672" lon="6.5067">
        <ele>290.518</ele>
        <time>2019-09-30T07:38:22Z</time>
      </trkpt>
      <trkpt lat="47.57683" lon="6.5065">
        <ele>287.493</ele>
        <time>2019-09-30T07:38:25Z</time>
      </trkpt>
      <trkpt lat="47.57692" lon="6.50632">
        <ele>285.38</ele>
        <time>2019-09-30T07:38:28Z</time>
      </trkpt>
      <trkpt lat="47.57701" lon="6.50616">
        <ele>283.308</ele>
        <time>2019-09-30T07:38:31Z</time>
      </trkpt>
      <trkpt lat="47.57709" lon="6.50602">
        <ele>282.827</ele>
        <time>2019-09-30T07:38:34Z</time>
      </trkpt>
      <trkpt lat="47.57718" lon="6.50586">
        <ele>282.182</ele>
        <time>2019-09-30T07:38:37Z</time>
      </trkpt>
      <trkpt lat="47.57726" lon="6.50567">
        <ele>282.496</ele>
        <time>2019-09-30T07:38:40Z</time>
      </trkpt>
      <trkpt lat="47.57734" lon="6.50545">
        <ele>282.667</ele>
        <time>2019-09-30T07:38:43Z</time>
      </trkpt>
      <trkpt lat="47.57741" lon="6.50523">
        <ele>282.426</ele>
        <time>2019-09-30T07:38:46Z</time>
      </trkpt>
      <trkpt lat="47.5775" lon="6.505">
        <ele>282.377</ele>
        <time>2019-09-30T07:38:49Z</time>
      </trkpt>
      <trkpt lat="47.57758" lon="6.50477">
        <ele>281.61</ele>
        <time>2019-09-30T07:38:52Z</time>
      </trkpt>
      <trkpt lat="47.57766" lon="6.50457">
        <ele>280.339</ele>
        <time>2019-09-30T07:38:55Z</time>
      </trkpt>
      <trkpt lat="47.57772" lon="6.50442">
        <ele>280.115</ele>
        <time>2019-09-30T07:38:58Z</time>
      </trkpt>
      <trkpt lat="47.57778" lon="6.50428">
        <ele>280.128</ele>
        <time>2019-09-30T07:39:01Z</time>
      </trkpt>
      <trkpt lat="47.57782" lon="6.50413">
        <ele>280.288</ele>
        <time>2019-09-30T07:39:04Z</time>
      </trkpt>
      <trkpt lat="47.57784" lon="6.50399">
        <ele>280.969</ele>
        <time>2019-09-30T07:39:07Z</time>
      </trkpt>
      <trkpt lat="47.57785" lon="6.50386">
        <ele>282.188</ele>
        <time>2019-09-30T07:39:10Z</time>
      </trkpt>
      <trkpt lat="47.57788" lon="6.50371">
        <ele>282.797</ele>
        <time>2019-09-30T07:39:13Z</time>
      </trkpt>
      <trkpt lat="47.57787" lon="6.5036">
        <ele>285.122</ele>
        <time>2019-09-30T07:39:16Z</time>
      </trkpt>
      <trkpt lat="47.57787" lon="6.50349">
        <ele>287.197</ele>
        <time>2019-09-30T07:39:19Z</time>
      </trkpt>
      <trkpt lat="47.57788" lon="6.50338">
        <ele>289.784</ele>
        <time>2019-09-30T07:39:22Z</time>
      </trkpt>
      <trkpt lat="47.57788" lon="6.5033">
        <ele>291.416</ele>
        <time>2019-09-30T07:39:25Z</time>
      </trkpt>
      <trkpt lat="47.57788" lon="6.50321">
        <ele>292.754</ele>
        <time>2019-09-30T07:39:28Z</time>
      </trkpt>
      <trkpt lat="47.57788" lon="6.5031">
        <ele>294.028</ele>
        <time>2019-09-30T07:39:31Z</time>
      </trkpt>
      <trkpt lat="47.57787" lon="6.50298">
        <ele>294.946</ele>
        <time>2019-09-30T07:39:34Z</time>
      </trkpt>
      <trkpt lat="47.57788" lon="6.50287">
        <ele>295.125</ele>
        <time>2019-09-30T07:39:37Z</time>
      </trkpt>
      <trkpt lat="47.57788" lon="6.50277">
        <ele>295.898</ele>
        <time>2019-09-30T07:39:40Z</time>
      </trkpt>
      <trkpt lat="47.57786" lon="6.50266">
        <ele>296.426</ele>
        <time>2019-09-30T07:39:43Z</time>
      </trkpt>
      <trkpt lat="47.57785" lon="6.50254">
        <ele>296.677</ele>
        <time>2019-09-30T07:39:46Z</time>
      </trkpt>
      <trkpt lat="47.57785" lon="6.50244">
        <ele>297.126</ele>
        <time>2019-09-30T07:39:49Z</time>
      </trkpt>
      <trkpt lat="47.57786" lon="6.50231">
        <ele>297.405</ele>
        <time>2019-09-30T07:39:52Z</time>
      </trkpt>
      <trkpt lat="47.57789" lon="6.50219">
        <ele>297.041</ele>
        <time>2019-09-30T07:39:55Z</time>
      </trkpt>
      <trkpt lat="47.57792" lon="6.50209">
        <ele>297.038</ele>
        <time>2019-09-30T07:39:58Z</time>
      </trkpt>
      <trkpt lat="47.57795" lon="6.50201">
        <ele>296.891</ele>
        <time>2019-09-30T07:40:01Z</time>
      </trkpt>
      <trkpt lat="47.57798" lon="6.50195">
        <ele>296.903</ele>
        <time>2019-09-30T07:40:04Z</time>
      </trkpt>
      <trkpt lat="47.57803" lon="6.5019">
        <ele>296.561</ele>
        <time>2019-09-30T07:40:07Z</time>
      </trkpt>
      <trkpt lat="47.57808" lon="6.50184">
        <ele>295.28</ele>
        <time>2019-09-30T07:40:10Z</time>
      </trkpt>
      <trkpt lat="47.57814" lon="6.50179">
        <ele>294.823</ele>
        <time>2019-09-30T07:40:13Z</time>
      </trkpt>
      <trkpt lat="47.5782" lon="6.50175">
        <ele>295.724</ele>
        <time>2019-09-30T07:40:16Z</time>
      </trkpt>
      <trkpt lat="47.57827" lon="6.5017">
        <ele>296.125</ele>
        <time>2019-09-30T07:40:19Z</time>
      </trkpt>
      <trkpt lat="47.57835" lon="6.50166">
        <ele>296.569</ele>
        <time>2019-09-30T07:40:22Z</time>
      </trkpt>
      <trkpt lat="47.57842" lon="6.50161">
        <ele>296.637</ele>
        <time>2019-09-30T07:40:25Z</time>
      </trkpt>
      <trkpt lat="47.57848" lon="6.50157">
        <ele>297.162</ele>
        <time>2019-09-30T07:40:28Z</time>
      </trkpt>
      <trkpt lat="47.57855" lon="6.50153">
        <ele>297.405</ele>
        <time>2019-09-30T07:40:31Z</time>
      </trkpt>
      <trkpt lat="47.57862" lon="6.5015">
        <ele>297.72</ele>
        <time>2019-09-30T07:40:34Z</time>
      </trkpt>
      <trkpt lat="47.57868" lon="6.50147">
        <ele>298.15</ele>
        <time>2019-09-30T07:40:37Z</time>
      </trkpt>
      <trkpt lat="47.57874" lon="6.50145">
        <ele>299.216</ele>
        <time>2019-09-30T07:40:40Z</time>
      </trkpt>
      <trkpt lat="47.5788" lon="6.50143">
        <ele>299.252</ele>
        <time>2019-09-30T07:40:43Z</time>
      </trkpt>
      <trkpt lat="47.57886" lon="6.50139">
        <ele>300.105</ele>
        <time>2019-09-30T07:40:46Z</time>
      </trkpt>
      <trkpt lat="47.57892" lon="6.50135">
        <ele>300.027</ele>
        <time>2019-09-30T07:40:49Z</time>
      </trkpt>
      <trkpt lat="47.57897" lon="6.50131">
        <ele>300.414</ele>
        <time>2019-09-30T07:40:52Z</time>
      </trkpt>
      <trkpt lat="47.57902" lon="6.50128">
        <ele>300.681</ele>
        <time>2019-09-30T07:40:55Z</time>
      </trkpt>
      <trkpt lat="47.57906" lon="6.50124">
        <ele>301.164</ele>
        <time>2019-09-30T07:40:58Z</time>
      </trkpt>
      <trkpt lat="47.57911" lon="6.50121">
        <ele>301.914</ele>
        <time>2019-09-30T07:41:01Z</time>
      </trkpt>
      <trkpt lat="47.57915" lon="6.50114">
        <ele>302.598</ele>
        <time>2019-09-30T07:41:04Z</time>
      </trkpt>
      <trkpt lat="47.57919" lon="6.50105">
        <ele>304.223</ele>
        <time>2019-09-30T07:41:07Z</time>
      </trkpt>
      <trkpt lat="47.57923" lon="6.50093">
        <ele>304.851</ele>
        <time>2019-09-30T07:41:10Z</time>
      </trkpt>
      <trkpt lat="47.57928" lon="6.50078">
        <ele>305.191</ele>
        <time>2019-09-30T07:41:13Z</time>
      </trkpt>
      <trkpt lat="47.5793" lon="6.50065">
        <ele>305.879</ele>
        <time>2019-09-30T07:41:16Z</time>
      </trkpt>
      <trkpt lat="47.57929" lon="6.50051">
        <ele>307.46</ele>
        <time>2019-09-30T07:41:19Z</time>
      </trkpt>
      <trkpt lat="47.57926" lon="6.50036">
        <ele>307.278</ele>
        <time>2019-09-30T07:41:22Z</time>
      </trkpt>
      <trkpt lat="47.57921" lon="6.50022">
        <ele>307.547</ele>
        <time>2019-09-30T07:41:25Z</time>
      </trkpt>
      <trkpt lat="47.57918" lon="6.50009">
        <ele>307.294</ele>
        <time>2019-09-30T07:41:28Z</time>
      </trkpt>
      <trkpt lat="47.57915" lon="6.49997">
        <ele>307.108</ele>
        <time>2019-09-30T07:41:31Z</time>
      </trkpt>
      <trkpt lat="47.57913" lon="6.49983">
        <ele>306.065</ele>
        <time>2019-09-30T07:41:34Z</time>
      </trkpt>
      <trkpt lat="47.5791" lon="6.49967">
        <ele>305.527</ele>
        <time>2019-09-30T07:41:37Z</time>
      </trkpt>
      <trkpt lat="47.57906" lon="6.49949">
        <ele>305.157</ele>
        <time>2019-09-30T07:41:40Z</time>
      </trkpt>
      <trkpt lat="47.57901" lon="6.4993">
        <ele>304.282</ele>
        <time>2019-09-30T07:41:43Z</time>
      </trkpt>
      <trkpt lat="47.57895" lon="6.49909">
        <ele>303.57</ele>
        <time>2019-09-30T07:41:46Z</time>
      </trkpt>
      <trkpt lat="47.57892" lon="6.49881">
        <ele>302.571</ele>
        <time>2019-09-30T07:41:49Z</time>
      </trkpt>
      <trkpt lat="47.57889" lon="6.49848">
        <ele>301.398</ele>
        <time>2019-09-30T07:41:52Z</time>
      </trkpt>
      <trkpt lat="47.57888" lon="6.49817">
        <ele>298.423</ele>
        <time>2019-09-30T07:41:55Z</time>
      </trkpt>
      <trkpt lat="47.57887" lon="6.49789">
        <ele>297.348</ele>
        <time>2019-09-30T07:41:58Z</time>
      </trkpt>
      <trkpt lat="47.57889" lon="6.49766">
        <ele>296.768</ele>
        <time>2019-09-30T07:42:01Z</time>
      </trkpt>
      <trkpt lat="47.5789" lon="6.49744">
        <ele>296.91</ele>
        <time>2019-09-30T07:42:04Z</time>
      </trkpt>
      <trkpt lat="47.57889" lon="6.49721">
        <ele>297.065</ele>
        <time>2019-09-30T07:42:07Z</time>
      </trkpt>
      <trkpt lat="47.57885" lon="6.49695">
        <ele>296.354</ele>
        <time>2019-09-30T07:42:10Z</time>
      </trkpt>
      <trkpt lat="47.57884" lon="6.49671">
        <ele>295.865</ele>
        <time>2019-09-30T07:42:13Z</time>
      </trkpt>
      <trkpt lat="47.57883" lon="6.49649">
        <ele>295.059</ele>
        <time>2019-09-30T07:42:16Z</time>
      </trkpt>
      <trkpt lat="47.57881" lon="6.49629">
        <ele>294.676</ele>
        <time>2019-09-30T07:42:19Z</time>
      </trkpt>
      <trkpt lat="47.57876" lon="6.49609">
        <ele>295.827</ele>
        <time>2019-09-30T07:42:22Z</time>
      </trkpt>
      <trkpt lat="47.5787" lon="6.49589">
        <ele>295.558</ele>
        <time>2019-09-30T07:42:25Z</time>
      </trkpt>
      <trkpt lat="47.57865" lon="6.49568">
        <ele>294.494</ele>
        <time>2019-09-30T07:42:28Z</time>
      </trkpt>
      <trkpt lat="47.57861" lon="6.4955">
        <ele>293.922</ele>
        <time>2019-09-30T07:42:31Z</time>
      </trkpt>
      <trkpt lat="47.57858" lon="6.49534">
        <ele>293.438</ele>
        <time>2019-09-30T07:42:34Z</time>
      </trkpt>
      <trkpt lat="47.57855" lon="6.49521">
        <ele>292.7</ele>
        <time>2019-09-30T07:42:37Z</time>
      </trkpt>
      <trkpt lat="47.57854" lon="6.49509">
        <ele>292.874</ele>
        <time>2019-09-30T07:42:40Z</time>
      </trkpt>
      <trkpt lat="47.57852" lon="6.49497">
        <ele>292.99</ele>
        <time>2019-09-30T07:42:43Z</time>
      </trkpt>
      <trkpt lat="47.5785" lon="6.49484">
        <ele>293.596</ele>
        <time>2019-09-30T07:42:46Z</time>
      </trkpt>
      <trkpt lat="47.57846" lon="6.49471">
        <ele>293.631</ele>
        <time>2019-09-30T07:42:49Z</time>
      </trkpt>
      <trkpt lat="47.57844" lon="6.49457">
        <ele>293.87</ele>
        <time>2019-09-30T07:42:52Z</time>
      </trkpt>
      <trkpt lat="47.57841" lon="6.49444">
        <ele>295.025</ele>
        <time>2019-09-30T07:42:55Z</time>
      </trkpt>
      <trkpt lat="47.5784" lon="6.49429">
        <ele>296.364</ele>
        <time>2019-09-30T07:42:58Z</time>
      </trkpt>
      <trkpt lat="47.57838" lon="6.49414">
        <ele>297.912</ele>
        <time>2019-09-30T07:43:01Z</time>
      </trkpt>
      <trkpt lat="47.57836" lon="6.49401">
        <ele>298.539</ele>
        <time>2019-09-30T07:43:04Z</time>
      </trkpt>
      <trkpt lat="47.57836" lon="6.4939">
        <ele>299.303</ele>
        <time>2019-09-30T07:43:07Z</time>
      </trkpt>
      <trkpt lat="47.57835" lon="6.4938">
        <ele>299.364</ele>
        <time>2019-09-30T07:43:10Z</time>
      </trkpt>
      <trkpt lat="47.57836" lon="6.49369">
        <ele>299.286</ele>
        <time>2019-09-30T07:43:13Z</time>
      </trkpt>
      <trkpt lat="47.57836" lon="6.49358">
        <ele>299.255</ele>
        <time>2019-09-30T07:43:16Z</time>
      </trkpt>
      <trkpt lat="47.57836" lon="6.49348">
        <ele>298.301</ele>
        <time>2019-09-30T07:43:19Z</time>
      </trkpt>
      <trkpt lat="47.57835" lon="6.49338">
        <ele>296.632</ele>
        <time>2019-09-30T07:43:22Z</time>
      </trkpt>
      <trkpt lat="47.57835" lon="6.49328">
        <ele>296.025</ele>
        <time>2019-09-30T07:43:25Z</time>
      </trkpt>
      <trkpt lat="47.57835" lon="6.49315">
        <ele>295.357</ele>
        <time>2019-09-30T07:43:28Z</time>
      </trkpt>
      <trkpt lat="47.57835" lon="6.49299">
        <ele>294.59</ele>
        <time>2019-09-30T07:43:31Z</time>
      </trkpt>
      <trkpt lat="47.57835" lon="6.49281">
        <ele>294.082</ele>
        <time>2019-09-30T07:43:34Z</time>
      </trkpt>
      <trkpt lat="47.57836" lon="6.49258">
        <ele>293.416</ele>
        <time>2019-09-30T07:43:37Z</time>
      </trkpt>
      <trkpt lat="47.57838" lon="6.49229">
        <ele>291.872</ele>
        <time>2019-09-30T07:43:40Z</time>
      </trkpt>
      <trkpt lat="47.57842" lon="6.49196">
        <ele>289.876</ele>
        <time>2019-09-30T07:43:43Z</time>
      </trkpt>
      <trkpt lat="47.57846" lon="6.49158">
        <ele>287.582</ele>
        <time>2019-09-30T07:43:46Z</time>
      </trkpt>
      <trkpt lat="47.5785" lon="6.49116">
        <ele>285.43</ele>
        <time>2019-09-30T07:43:49Z</time>
      </trkpt>
      <trkpt lat="47.57855" lon="6.49072">
        <ele>284.035</ele>
        <time>2019-09-30T07:43:52Z</time>
      </trkpt>
      <trkpt lat="47.57859" lon="6.49021">
        <ele>281.688</ele>
        <time>2019-09-30T07:43:55Z</time>
      </trkpt>
      <trkpt lat="47.57862" lon="6.48971">
        <ele>280.33</ele>
        <time>2019-09-30T07:43:58Z</time>
      </trkpt>
      <trkpt lat="47.57868" lon="6.48929">
        <ele>279.529</ele>
        <time>2019-09-30T07:44:01Z</time>
      </trkpt>
      <trkpt lat="47.57876" lon="6.48894">
        <ele>278.567</ele>
        <time>2019-09-30T07:44:04Z</time>
      </trkpt>
      <trkpt lat="47.5788" lon="6.48867">
        <ele>278.088</ele>
        <time>2019-09-30T07:44:07Z</time>
      </trkpt>
      <trkpt lat="47.57883" lon="6.48848">
        <ele>278.288</ele>
        <time>2019-09-30T07:44:10Z</time>
      </trkpt>
      <trkpt lat="47.57885" lon="6.48835">
        <ele>278.131</ele>
        <time>2019-09-30T07:44:13Z</time>
      </trkpt>
      <trkpt lat="47.57886" lon="6.48825">
        <ele>277.586</ele>
        <time>2019-09-30T07:44:16Z</time>
      </trkpt>
      <trkpt lat="47.57888" lon="6.48816">
        <ele>277.568</ele>
        <time>2019-09-30T07:44:19Z</time>
      </trkpt>
      <trkpt lat="47.57889" lon="6.48806">
        <ele>277.368</ele>
        <time>2019-09-30T07:44:22Z</time>
      </trkpt>
      <trkpt lat="47.57891" lon="6.48796">
        <ele>277.681</ele>
        <time>2019-09-30T07:44:25Z</time>
      </trkpt>
      <trkpt lat="47.57892" lon="6.48787">
        <ele>278.476</ele>
        <time>2019-09-30T07:44:28Z</time>
      </trkpt>
      <trkpt lat="47.57894" lon="6.48778">
        <ele>278.611</ele>
        <time>2019-09-30T07:44:31Z</time>
      </trkpt>
      <trkpt lat="47.57896" lon="6.48769">
        <ele>279.218</ele>
        <time>2019-09-30T07:44:34Z</time>
      </trkpt>
      <trkpt lat="47.57897" lon="6.4876">
        <ele>279.914</ele>
        <time>2019-09-30T07:44:37Z</time>
      </trkpt>
      <trkpt lat="47.57898" lon="6.48751">
        <ele>280.687</ele>
        <time>2019-09-30T07:44:40Z</time>
      </trkpt>
      <trkpt lat="47.579" lon="6.48743">
        <ele>281.381</ele>
        <time>2019-09-30T07:44:43Z</time>
      </trkpt>
      <trkpt lat="47.57901" lon="6.48734">
        <ele>282.124</ele>
        <time>2019-09-30T07:44:46Z</time>
      </trkpt>
      <trkpt lat="47.57903" lon="6.48724">
        <ele>282.721</ele>
        <time>2019-09-30T07:44:49Z</time>
      </trkpt>
      <trkpt lat="47.57905" lon="6.48715">
        <ele>283.212</ele>
        <time>2019-09-30T07:44:52Z</time>
      </trkpt>
      <trkpt lat="47.57907" lon="6.48707">
        <ele>283.269</ele>
        <time>2019-09-30T07:44:55Z</time>
      </trkpt>
      <trkpt lat="47.5791" lon="6.48699">
        <ele>283.518</ele>
        <time>2019-09-30T07:44:58Z</time>
      </trkpt>
      <trkpt lat="47.57913" lon="6.48691">
        <ele>283.619</ele>
        <time>2019-09-30T07:45:01Z</time>
      </trkpt>
      <trkpt lat="47.57916" lon="6.48682">
        <ele>284.141</ele>
        <time>2019-09-30T07:45:04Z</time>
      </trkpt>
      <trkpt lat="47.57919" lon="6.48672">
        <ele>284.46</ele>
        <time>2019-09-30T07:45:07Z</time>
      </trkpt>
      <trkpt lat="47.57922" lon="6.48663">
        <ele>284.821</ele>
        <time>2019-09-30T07:45:10Z</time>
      </trkpt>
      <trkpt lat="47.57926" lon="6.48655">
        <ele>285.728</ele>
        <time>2019-09-30T07:45:13Z</time>
      </trkpt>
      <trkpt lat="47.5793" lon="6.48645">
        <ele>286.216</ele>
        <time>2019-09-30T07:45:16Z</time>
      </trkpt>
      <trkpt lat="47.57934" lon="6.48635">
        <ele>286.95</ele>
        <time>2019-09-30T07:45:19Z</time>
      </trkpt>
      <trkpt lat="47.57939" lon="6.48625">
        <ele>287.595</ele>
        <time>2019-09-30T07:45:22Z</time>
      </trkpt>
      <trkpt lat="47.57946" lon="6.48614">
        <ele>288.141</ele>
        <time>2019-09-30T07:45:25Z</time>
      </trkpt>
      <trkpt lat="47.57952" lon="6.486">
        <ele>288.159</ele>
        <time>2019-09-30T07:45:28Z</time>
      </trkpt>
      <trkpt lat="47.57959" lon="6.48584">
        <ele>288.199</ele>
        <time>2019-09-30T07:45:31Z</time>
      </trkpt>
      <trkpt lat="47.57966" lon="6.48565">
        <ele>287.678</ele>
        <time>2019-09-30T07:45:34Z</time>
      </trkpt>
      <trkpt lat="47.57973" lon="6.48542">
        <ele>287.602</ele>
        <time>2019-09-30T07:45:37Z</time>
      </trkpt>
      <trkpt lat="47.57979" lon="6.48515">
        <ele>286.648</ele>
        <time>2019-09-30T07:45:40Z</time>
      </trkpt>
      <trkpt lat="47.57984" lon="6.48485">
        <ele>285.494</ele>
        <time>2019-09-30T07:45:43Z</time>
      </trkpt>
      <trkpt lat="47.57988" lon="6.48452">
        <ele>284.307</ele>
        <time>2019-09-30T07:45:46Z</time>
      </trkpt>
      <trkpt lat="47.57992" lon="6.48417">
        <ele>283.078</ele>
        <time>2019-09-30T07:45:49Z</time>
      </trkpt>
      <trkpt lat="47.57994" lon="6.48382">
        <ele>282.557</ele>
        <time>2019-09-30T07:45:52Z</time>
      </trkpt>
      <trkpt lat="47.57996" lon="6.48348">
        <ele>281.861</ele>
        <time>2019-09-30T07:45:55Z</time>
      </trkpt>
      <trkpt lat="47.57999" lon="6.48318">
        <ele>281.718</ele>
        <time>2019-09-30T07:45:58Z</time>
      </trkpt>
      <trkpt lat="47.58001" lon="6.48289">
        <ele>281.68</ele>
        <time>2019-09-30T07:46:01Z</time>
      </trkpt>
      <trkpt lat="47.58005" lon="6.48263">
        <ele>281.307</ele>
        <time>2019-09-30T07:46:04Z</time>
      </trkpt>
      <trkpt lat="47.58008" lon="6.48238">
        <ele>281.304</ele>
        <time>2019-09-30T07:46:07Z</time>
      </trkpt>
      <trkpt lat="47.58012" lon="6.48213">
        <ele>281.112</ele>
        <time>2019-09-30T07:46:10Z</time>
      </trkpt>
      <trkpt lat="47.58015" lon="6.48191">
        <ele>281.198</ele>
        <time>2019-09-30T07:46:13Z</time>
      </trkpt>
      <trkpt lat="47.58017" lon="6.48169">
        <ele>281.55</ele>
        <time>2019-09-30T07:46:16Z</time>
      </trkpt>
      <trkpt lat="47.5802" lon="6.48148">
        <ele>282.202</ele>
        <time>2019-09-30T07:46:19Z</time>
      </trkpt>
      <trkpt lat="47.58022" lon="6.48129">
        <ele>282.458</ele>
        <time>2019-09-30T07:46:22Z</time>
      </trkpt>
      <trkpt lat="47.58022" lon="6.48114">
        <ele>282.647</ele>
        <time>2019-09-30T07:46:25Z</time>
      </trkpt>
      <trkpt lat="47.58023" lon="6.481">
        <ele>282.921</ele>
        <time>2019-09-30T07:46:28Z</time>
      </trkpt>
      <trkpt lat="47.58023" lon="6.48087">
        <ele>283.026</ele>
        <time>2019-09-30T07:46:31Z</time>
      </trkpt>
      <trkpt lat="47.58023" lon="6.48075">
        <ele>283.436</ele>
        <time>2019-09-30T07:46:34Z</time>
      </trkpt>
      <trkpt lat="47.58022" lon="6.48063">
        <ele>284.127</ele>
        <time>2019-09-30T07:46:37Z</time>
      </trkpt>
      <trkpt lat="47.58021" lon="6.4805">
        <ele>284.348</ele>
        <time>2019-09-30T07:46:40Z</time>
      </trkpt>
      <trkpt lat="47.5802" lon="6.48037">
        <ele>284.807</ele>
        <time>2019-09-30T07:46:43Z</time>
      </trkpt>
      <trkpt lat="47.58019" lon="6.48024">
        <ele>285.623</ele>
        <time>2019-09-30T07:46:46Z</time>
      </trkpt>
      <trkpt lat="47.58019" lon="6.4801">
        <ele>286.601</ele>
        <time>2019-09-30T07:46:49Z</time>
      </trkpt>
      <trkpt lat="47.58018" lon="6.47997">
        <ele>287.204</ele>
        <time>2019-09-30T07:46:52Z</time>
      </trkpt>
      <trkpt lat="47.58017" lon="6.47985">
        <ele>287.635</ele>
        <time>2019-09-30T07:46:55Z</time>
      </trkpt>
      <trkpt lat="47.58015" lon="6.47972">
        <ele>288.101</ele>
        <time>2019-09-30T07:46:58Z</time>
      </trkpt>
      <trkpt lat="47.58014" lon="6.47959">
        <ele>288.952</ele>
        <time>2019-09-30T07:47:01Z</time>
      </trkpt>
      <trkpt lat="47.58013" lon="6.47948">
        <ele>289.489</ele>
        <time>2019-09-30T07:47:04Z</time>
      </trkpt>
      <trkpt lat="47.58011" lon="6.47938">
        <ele>290.214</ele>
        <time>2019-09-30T07:47:07Z</time>
      </trkpt>
      <trkpt lat="47.5801" lon="6.47926">
        <ele>291.182</ele>
        <time>2019-09-30T07:47:10Z</time>
      </trkpt>
      <trkpt lat="47.58009" lon="6.47912">
        <ele>291.637</ele>
        <time>2019-09-30T07:47:13Z</time>
      </trkpt>
      <trkpt lat="47.58007" lon="6.47897">
        <ele>291.653</ele>
        <time>2019-09-30T07:47:16Z</time>
      </trkpt>
      <trkpt lat="47.58005" lon="6.4788">
        <ele>291.647</ele>
        <time>2019-09-30T07:47:19Z</time>
      </trkpt>
      <trkpt lat="47.58003" lon="6.47861">
        <ele>291.734</ele>
        <time>2019-09-30T07:47:22Z</time>
      </trkpt>
      <trkpt lat="47.58001" lon="6.4784">
        <ele>291.524</ele>
        <time>2019-09-30T07:47:25Z</time>
      </trkpt>
      <trkpt lat="47.57999" lon="6.47815">
        <ele>290.159</ele>
        <time>2019-09-30T07:47:28Z</time>
      </trkpt>
      <trkpt lat="47.57999" lon="6.47784">
        <ele>289.92</ele>
        <time>2019-09-30T07:47:31Z</time>
      </trkpt>
      <trkpt lat="47.58001" lon="6.47747">
        <ele>289</ele>
        <time>2019-09-30T07:47:34Z</time>
      </trkpt>
      <trkpt lat="47.5801" lon="6.47713">
        <ele>288.803</ele>
        <time>2019-09-30T07:47:37Z</time>
      </trkpt>
      <trkpt lat="47.58028" lon="6.47689">
        <ele>288.004</ele>
        <time>2019-09-30T07:47:40Z</time>
      </trkpt>
      <trkpt lat="47.58053" lon="6.47673">
        <ele>286.291</ele>
        <time>2019-09-30T07:47:43Z</time>
      </trkpt>
      <trkpt lat="47.58078" lon="6.47659">
        <ele>284.503</ele>
        <time>2019-09-30T07:47:46Z</time>
      </trkpt>
      <trkpt lat="47.58101" lon="6.47643">
        <ele>282.238</ele>
        <time>2019-09-30T07:47:49Z</time>
      </trkpt>
      <trkpt lat="47.58117" lon="6.47621">
        <ele>279.645</ele>
        <time>2019-09-30T07:47:52Z</time>
      </trkpt>
      <trkpt lat="47.58124" lon="6.47587">
        <ele>279.046</ele>
        <time>2019-09-30T07:47:55Z</time>
      </trkpt>
      <trkpt lat="47.58125" lon="6.4755">
        <ele>279.134</ele>
        <time>2019-09-30T07:47:58Z</time>
      </trkpt>
      <trkpt lat="47.58125" lon="6.47518">
        <ele>278.674</ele>
        <time>2019-09-30T07:48:01Z</time>
      </trkpt>
      <trkpt lat="47.58123" lon="6.47489">
        <ele>278.193</ele>
        <time>2019-09-30T07:48:04Z</time>
      </trkpt>
      <trkpt lat="47.58122" lon="6.47461">
        <ele>277.974</ele>
        <time>2019-09-30T07:48:07Z</time>
      </trkpt>
      <trkpt lat="47.58125" lon="6.47433">
        <ele>277.317</ele>
        <time>2019-09-30T07:48:10Z</time>
      </trkpt>
      <trkpt lat="47.58122" lon="6.47409">
        <ele>277.877</ele>
        <time>2019-09-30T07:48:13Z</time>
      </trkpt>
      <trkpt lat="47.5811" lon="6.47387">
        <ele>279.376</ele>
        <time>2019-09-30T07:48:16Z</time>
      </trkpt>
      <trkpt lat="47.58099" lon="6.47365">
        <ele>280.691</ele>
        <time>2019-09-30T07:48:19Z</time>
      </trkpt>
      <trkpt lat="47.58094" lon="6.47343">
        <ele>281.071</ele>
        <time>2019-09-30T07:48:22Z</time>
      </trkpt>
      <trkpt lat="47.58097" lon="6.47322">
        <ele>281.785</ele>
        <time>2019-09-30T07:48:25Z</time>
      </trkpt>
      <trkpt lat="47.58105" lon="6.47305">
        <ele>282.411</ele>
        <time>2019-09-30T07:48:28Z</time>
      </trkpt>
      <trkpt lat="47.58109" lon="6.47285">
        <ele>283.225</ele>
        <time>2019-09-30T07:48:31Z</time>
      </trkpt>
      <trkpt lat="47.58106" lon="6.47267">
        <ele>283.644</ele>
        <time>2019-09-30T07:48:34Z</time>
      </trkpt>
      <trkpt lat="47.58107" lon="6.47249">
        <ele>284.228</ele>
        <time>2019-09-30T07:48:37Z</time>
      </trkpt>
      <trkpt lat="47.5811" lon="6.47239">
        <ele>284.882</ele>
        <time>2019-09-30T07:48:40Z</time>
      </trkpt>
      <trkpt lat="47.58117" lon="6.47232">
        <ele>285.348</ele>
        <time>2019-09-30T07:48:43Z</time>
      </trkpt>
      <trkpt lat="47.58125" lon="6.47225">
        <ele>285.55</ele>
        <time>2019-09-30T07:48:46Z</time>
      </trkpt>
      <trkpt lat="47.58133" lon="6.47219">
        <ele>285.643</ele>
        <time>2019-09-30T07:48:49Z</time>
      </trkpt>
      <trkpt lat="47.5814" lon="6.47212">
        <ele>284.929</ele>
        <time>2019-09-30T07:48:52Z</time>
      </trkpt>
      <trkpt lat="47.58145" lon="6.47204">
        <ele>285.354</ele>
        <time>2019-09-30T07:48:55Z</time>
      </trkpt>
      <trkpt lat="47.58149" lon="6.47194">
        <ele>286.729</ele>
        <time>2019-09-30T07:48:58Z</time>
      </trkpt>
      <trkpt lat="47.58152" lon="6.47186">
        <ele>287.427</ele>
        <time>2019-09-30T07:49:01Z</time>
      </trkpt>
      <trkpt lat="47.58152" lon="6.47174">
        <ele>289.27</ele>
        <time>2019-09-30T07:49:04Z</time>
      </trkpt>
      <trkpt lat="47.58147" lon="6.47172">
        <ele>289.692</ele>
        <time>2019-09-30T07:49:07Z</time>
      </trkpt>
      <trkpt lat="47.58144" lon="6.47179">
        <ele>290.92</ele>
        <time>2019-09-30T07:49:10Z</time>
      </trkpt>
      <trkpt lat="47.58147" lon="6.47189">
        <ele>290.328</ele>
        <time>2019-09-30T07:49:13Z</time>
      </trkpt>
      <trkpt lat="47.58144" lon="6.472">
        <ele>289.818</ele>
        <time>2019-09-30T07:49:16Z</time>
      </trkpt>
      <trkpt lat="47.58138" lon="6.47205">
        <ele>290.063</ele>
        <time>2019-09-30T07:49:19Z</time>
      </trkpt>
      <trkpt lat="47.58126" lon="6.47205">
        <ele>288.787</ele>
        <time>2019-09-30T07:49:22Z</time>
      </trkpt>
      <trkpt lat="47.58112" lon="6.47201">
        <ele>288.553</ele>
        <time>2019-09-30T07:49:25Z</time>
      </trkpt>
      <trkpt lat="47.58095" lon="6.47192">
        <ele>288.356</ele>
        <time>2019-09-30T07:49:28Z</time>
      </trkpt>
      <trkpt lat="47.58079" lon="6.47178">
        <ele>286.24</ele>
        <time>2019-09-30T07:49:31Z</time>
      </trkpt>
      <trkpt lat="47.58063" lon="6.47164">
        <ele>284.579</ele>
        <time>2019-09-30T07:49:34Z</time>
      </trkpt>
      <trkpt lat="47.58049" lon="6.4715">
        <ele>283.864</ele>
        <time>2019-09-30T07:49:37Z</time>
      </trkpt>
      <trkpt lat="47.58034" lon="6.47136">
        <ele>283.063</ele>
        <time>2019-09-30T07:49:40Z</time>
      </trkpt>
      <trkpt lat="47.5802" lon="6.47127">
        <ele>282.07</ele>
        <time>2019-09-30T07:49:43Z</time>
      </trkpt>
      <trkpt lat="47.58006" lon="6.47124">
        <ele>281.446</ele>
        <time>2019-09-30T07:49:46Z</time>
      </trkpt>
      <trkpt lat="47.5799" lon="6.47126">
        <ele>280.817</ele>
        <time>2019-09-30T07:49:49Z</time>
      </trkpt>
      <trkpt lat="47.57974" lon="6.47129">
        <ele>279.928</ele>
        <time>2019-09-30T07:49:52Z</time>
      </trkpt>
      <trkpt lat="47.57959" lon="6.47131">
        <ele>279.822</ele>
        <time>2019-09-30T07:49:55Z</time>
      </trkpt>
      <trkpt lat="47.57944" lon="6.47133">
        <ele>278.893</ele>
        <time>2019-09-30T07:49:58Z</time>
      </trkpt>
      <trkpt lat="47.57929" lon="6.47133">
        <ele>277.776</ele>
        <time>2019-09-30T07:50:01Z</time>
      </trkpt>
      <trkpt lat="47.57913" lon="6.47133">
        <ele>276.34</ele>
        <time>2019-09-30T07:50:04Z</time>
      </trkpt>
      <trkpt lat="47.57896" lon="6.47132">
        <ele>276.241</ele>
        <time>2019-09-30T07:50:07Z</time>
      </trkpt>
      <trkpt lat="47.5788" lon="6.47133">
        <ele>275.879</ele>
        <time>2019-09-30T07:50:10Z</time>
      </trkpt>
      <trkpt lat="47.57865" lon="6.47135">
        <ele>275.907</ele>
        <time>2019-09-30T07:50:13Z</time>
      </trkpt>
      <trkpt lat="47.57849" lon="6.47136">
        <ele>275.941</ele>
        <time>2019-09-30T07:50:16Z</time>
      </trkpt>
      <trkpt lat="47.57835" lon="6.47136">
        <ele>276.097</ele>
        <time>2019-09-30T07:50:19Z</time>
      </trkpt>
      <trkpt lat="47.57819" lon="6.47135">
        <ele>275.73</ele>
        <time>2019-09-30T07:50:22Z</time>
      </trkpt>
      <trkpt lat="47.57804" lon="6.47135">
        <ele>276.443</ele>
        <time>2019-09-30T07:50:25Z</time>
      </trkpt>
      <trkpt lat="47.57787" lon="6.47135">
        <ele>275.748</ele>
        <time>2019-09-30T07:50:28Z</time>
      </trkpt>
      <trkpt lat="47.5777" lon="6.47136">
        <ele>275.408</ele>
        <time>2019-09-30T07:50:31Z</time>
      </trkpt>
      <trkpt lat="47.57753" lon="6.47137">
        <ele>274.707</ele>
        <time>2019-09-30T07:50:34Z</time>
      </trkpt>
      <trkpt lat="47.57736" lon="6.47138">
        <ele>274.531</ele>
        <time>2019-09-30T07:50:37Z</time>
      </trkpt>
      <trkpt lat="47.57719" lon="6.47138">
        <ele>272.938</ele>
        <time>2019-09-30T07:50:40Z</time>
      </trkpt>
      <trkpt lat="47.57702" lon="6.47138">
        <ele>271.548</ele>
        <time>2019-09-30T07:50:43Z</time>
      </trkpt>
      <trkpt lat="47.57685" lon="6.47138">
        <ele>269.938</ele>
        <time>2019-09-30T07:50:46Z</time>
      </trkpt>
      <trkpt lat="47.57668" lon="6.47138">
        <ele>269.306</ele>
        <time>2019-09-30T07:50:49Z</time>
      </trkpt>
      <trkpt lat="47.57651" lon="6.47137">
        <ele>269.076</ele>
        <time>2019-09-30T07:50:52Z</time>
      </trkpt>
      <trkpt lat="47.57634" lon="6.47134">
        <ele>268.89</ele>
        <time>2019-09-30T07:50:55Z</time>
      </trkpt>
      <trkpt lat="47.57618" lon="6.47126">
        <ele>269.093</ele>
        <time>2019-09-30T07:50:58Z</time>
      </trkpt>
      <trkpt lat="47.57604" lon="6.47114">
        <ele>269.484</ele>
        <time>2019-09-30T07:51:01Z</time>
      </trkpt>
      <trkpt lat="47.57592" lon="6.47097">
        <ele>269.49</ele>
        <time>2019-09-30T07:51:04Z</time>
      </trkpt>
      <trkpt lat="47.57583" lon="6.47078">
        <ele>269.649</ele>
        <time>2019-09-30T07:51:07Z</time>
      </trkpt>
      <trkpt lat="47.57575" lon="6.47057">
        <ele>269.89</ele>
        <time>2019-09-30T07:51:10Z</time>
      </trkpt>
      <trkpt lat="47.57566" lon="6.47036">
        <ele>269.744</ele>
        <time>2019-09-30T07:51:13Z</time>
      </trkpt>
      <trkpt lat="47.57557" lon="6.47016">
        <ele>269.637</ele>
        <time>2019-09-30T07:51:16Z</time>
      </trkpt>
      <trkpt lat="47.57548" lon="6.46995">
        <ele>269.501</ele>
        <time>2019-09-30T07:51:19Z</time>
      </trkpt>
      <trkpt lat="47.57539" lon="6.46975">
        <ele>269.493</ele>
        <time>2019-09-30T07:51:22Z</time>
      </trkpt>
      <trkpt lat="47.57531" lon="6.46954">
        <ele>269.324</ele>
        <time>2019-09-30T07:51:25Z</time>
      </trkpt>
      <trkpt lat="47.57523" lon="6.46934">
        <ele>269.162</ele>
        <time>2019-09-30T07:51:28Z</time>
      </trkpt>
      <trkpt lat="47.57514" lon="6.46912">
        <ele>268.86</ele>
        <time>2019-09-30T07:51:31Z</time>
      </trkpt>
      <trkpt lat="47.57505" lon="6.4689">
        <ele>268.707</ele>
        <time>2019-09-30T07:51:34Z</time>
      </trkpt>
      <trkpt lat="47.57496" lon="6.4687">
        <ele>268.273</ele>
        <time>2019-09-30T07:51:37Z</time>
      </trkpt>
      <trkpt lat="47.57487" lon="6.46849">
        <ele>268.024</ele>
        <time>2019-09-30T07:51:40Z</time>
      </trkpt>
      <trkpt lat="47.57478" lon="6.4683">
        <ele>268.117</ele>
        <time>2019-09-30T07:51:43Z</time>
      </trkpt>
      <trkpt lat="47.57468" lon="6.46812">
        <ele>268.591</ele>
        <time>2019-09-30T07:51:46Z</time>
      </trkpt>
      <trkpt lat="47.57457" lon="6.46795">
        <ele>268.962</ele>
        <time>2019-09-30T07:51:49Z</time>
      </trkpt>
      <trkpt lat="47.57447" lon="6.4678">
        <ele>269.323</ele>
        <time>2019-09-30T07:51:52Z</time>
      </trkpt>
      <trkpt lat="47.57436" lon="6.46764">
        <ele>269.419</ele>
        <time>2019-09-30T07:51:55Z</time>
      </trkpt>
      <trkpt lat="47.57427" lon="6.46748">
        <ele>269.29</ele>
        <time>2019-09-30T07:51:58Z</time>
      </trkpt>
      <trkpt lat="47.57416" lon="6.46732">
        <ele>269.074</ele>
        <time>2019-09-30T07:52:01Z</time>
      </trkpt>
      <trkpt lat="47.57405" lon="6.46716">
        <ele>268.438</ele>
        <time>2019-09-30T07:52:04Z</time>
      </trkpt>
      <trkpt lat="47.57394" lon="6.46699">
        <ele>268.264</ele>
        <time>2019-09-30T07:52:07Z</time>
      </trkpt>
      <trkpt lat="47.57383" lon="6.46682">
        <ele>268.016</ele>
        <time>2019-09-30T07:52:10Z</time>
      </trkpt>
      <trkpt lat="47.5737" lon="6.46667">
        <ele>268.076</ele>
        <time>2019-09-30T07:52:13Z</time>
      </trkpt>
      <trkpt lat="47.57358" lon="6.46655">
        <ele>267.95</ele>
        <time>2019-09-30T07:52:16Z</time>
      </trkpt>
      <trkpt lat="47.57345" lon="6.46644">
        <ele>267.698</ele>
        <time>2019-09-30T07:52:19Z</time>
      </trkpt>
      <trkpt lat="47.57331" lon="6.46633">
        <ele>267.923</ele>
        <time>2019-09-30T07:52:22Z</time>
      </trkpt>
      <trkpt lat="47.57316" lon="6.46624">
        <ele>268.159</ele>
        <time>2019-09-30T07:52:25Z</time>
      </trkpt>
      <trkpt lat="47.57302" lon="6.46616">
        <ele>268.272</ele>
        <time>2019-09-30T07:52:28Z</time>
      </trkpt>
      <trkpt lat="47.57287" lon="6.46611">
        <ele>268.526</ele>
        <time>2019-09-30T07:52:31Z</time>
      </trkpt>
      <trkpt lat="47.57272" lon="6.46607">
        <ele>268.832</ele>
        <time>2019-09-30T07:52:34Z</time>
      </trkpt>
      <trkpt lat="47.57256" lon="6.46602">
        <ele>269.068</ele>
        <time>2019-09-30T07:52:37Z</time>
      </trkpt>
      <trkpt lat="47.57241" lon="6.466">
        <ele>269.962</ele>
        <time>2019-09-30T07:52:40Z</time>
      </trkpt>
      <trkpt lat="47.57226" lon="6.466">
        <ele>270.897</ele>
        <time>2019-09-30T07:52:43.001Z</time>
      </trkpt>
      <trkpt lat="47.5721" lon="6.46601">
        <ele>270.957</ele>
        <time>2019-09-30T07:52:46Z</time>
      </trkpt>
      <trkpt lat="47.57194" lon="6.46604">
        <ele>270.809</ele>
        <time>2019-09-30T07:52:49Z</time>
      </trkpt>
      <trkpt lat="47.57177" lon="6.46606">
        <ele>271.05</ele>
        <time>2019-09-30T07:52:52Z</time>
      </trkpt>
      <trkpt lat="47.5716" lon="6.46607">
        <ele>270.96</ele>
        <time>2019-09-30T07:52:55Z</time>
      </trkpt>
      <trkpt lat="47.57144" lon="6.46607">
        <ele>271.118</ele>
        <time>2019-09-30T07:52:58Z</time>
      </trkpt>
      <trkpt lat="47.57128" lon="6.46605">
        <ele>271.24</ele>
        <time>2019-09-30T07:53:01Z</time>
      </trkpt>
      <trkpt lat="47.57113" lon="6.46601">
        <ele>271.158</ele>
        <time>2019-09-30T07:53:04Z</time>
      </trkpt>
      <trkpt lat="47.57098" lon="6.46597">
        <ele>271.398</ele>
        <time>2019-09-30T07:53:07Z</time>
      </trkpt>
      <trkpt lat="47.57084" lon="6.46591">
        <ele>271.867</ele>
        <time>2019-09-30T07:53:10Z</time>
      </trkpt>
      <trkpt lat="47.5707" lon="6.46584">
        <ele>272.447</ele>
        <time>2019-09-30T07:53:13Z</time>
      </trkpt>
      <trkpt lat="47.57057" lon="6.46572">
        <ele>273.094</ele>
        <time>2019-09-30T07:53:16Z</time>
      </trkpt>
      <trkpt lat="47.57047" lon="6.46558">
        <ele>273.914</ele>
        <time>2019-09-30T07:53:19Z</time>
      </trkpt>
      <trkpt lat="47.57041" lon="6.46543">
        <ele>274.74</ele>
        <time>2019-09-30T07:53:22Z</time>
      </trkpt>
      <trkpt lat="47.57036" lon="6.46527">
        <ele>275.165</ele>
        <time>2019-09-30T07:53:25Z</time>
      </trkpt>
      <trkpt lat="47.57033" lon="6.46506">
        <ele>276.05</ele>
        <time>2019-09-30T07:53:28Z</time>
      </trkpt>
      <trkpt lat="47.5703" lon="6.46489">
        <ele>276.799</ele>
        <time>2019-09-30T07:53:31Z</time>
      </trkpt>
      <trkpt lat="47.57028" lon="6.46472">
        <ele>277.766</ele>
        <time>2019-09-30T07:53:34Z</time>
      </trkpt>
      <trkpt lat="47.57025" lon="6.46455">
        <ele>278.979</ele>
        <time>2019-09-30T07:53:37Z</time>
      </trkpt>
      <trkpt lat="47.57023" lon="6.46441">
        <ele>280.188</ele>
        <time>2019-09-30T07:53:40Z</time>
      </trkpt>
      <trkpt lat="47.57022" lon="6.46423">
        <ele>280.78</ele>
        <time>2019-09-30T07:53:43Z</time>
      </trkpt>
      <trkpt lat="47.5702" lon="6.46408">
        <ele>282.433</ele>
        <time>2019-09-30T07:53:46Z</time>
      </trkpt>
      <trkpt lat="47.57019" lon="6.46391">
        <ele>283.425</ele>
        <time>2019-09-30T07:53:49Z</time>
      </trkpt>
      <trkpt lat="47.57018" lon="6.46373">
        <ele>284.362</ele>
        <time>2019-09-30T07:53:52Z</time>
      </trkpt>
      <trkpt lat="47.57014" lon="6.46355">
        <ele>285.335</ele>
        <time>2019-09-30T07:53:55Z</time>
      </trkpt>
      <trkpt lat="47.57011" lon="6.46337">
        <ele>286.117</ele>
        <time>2019-09-30T07:53:58Z</time>
      </trkpt>
      <trkpt lat="47.57009" lon="6.46316">
        <ele>287.123</ele>
        <time>2019-09-30T07:54:01Z</time>
      </trkpt>
      <trkpt lat="47.57006" lon="6.46295">
        <ele>287.737</ele>
        <time>2019-09-30T07:54:04Z</time>
      </trkpt>
      <trkpt lat="47.57002" lon="6.46274">
        <ele>288.492</ele>
        <time>2019-09-30T07:54:07Z</time>
      </trkpt>
      <trkpt lat="47.56999" lon="6.46251">
        <ele>289.345</ele>
        <time>2019-09-30T07:54:10Z</time>
      </trkpt>
      <trkpt lat="47.56995" lon="6.46222">
        <ele>290.513</ele>
        <time>2019-09-30T07:54:13Z</time>
      </trkpt>
      <trkpt lat="47.56991" lon="6.46193">
        <ele>291.637</ele>
        <time>2019-09-30T07:54:16Z</time>
      </trkpt>
      <trkpt lat="47.56987" lon="6.46161">
        <ele>292.262</ele>
        <time>2019-09-30T07:54:19Z</time>
      </trkpt>
      <trkpt lat="47.56981" lon="6.46132">
        <ele>293.343</ele>
        <time>2019-09-30T07:54:22Z</time>
      </trkpt>
      <trkpt lat="47.56975" lon="6.46102">
        <ele>294.226</ele>
        <time>2019-09-30T07:54:25Z</time>
      </trkpt>
      <trkpt lat="47.5697" lon="6.46075">
        <ele>294.877</ele>
        <time>2019-09-30T07:54:28Z</time>
      </trkpt>
      <trkpt lat="47.56968" lon="6.4605">
        <ele>294.912</ele>
        <time>2019-09-30T07:54:31Z</time>
      </trkpt>
      <trkpt lat="47.56966" lon="6.46027">
        <ele>294.819</ele>
        <time>2019-09-30T07:54:34Z</time>
      </trkpt>
      <trkpt lat="47.56963" lon="6.46007">
        <ele>294.999</ele>
        <time>2019-09-30T07:54:37Z</time>
      </trkpt>
      <trkpt lat="47.56961" lon="6.45984">
        <ele>294.976</ele>
        <time>2019-09-30T07:54:40Z</time>
      </trkpt>
      <trkpt lat="47.56959" lon="6.45961">
        <ele>294.365</ele>
        <time>2019-09-30T07:54:43Z</time>
      </trkpt>
      <trkpt lat="47.56956" lon="6.45937">
        <ele>293.787</ele>
        <time>2019-09-30T07:54:46Z</time>
      </trkpt>
      <trkpt lat="47.56955" lon="6.45909">
        <ele>292.9</ele>
        <time>2019-09-30T07:54:49Z</time>
      </trkpt>
      <trkpt lat="47.56952" lon="6.4588">
        <ele>292.162</ele>
        <time>2019-09-30T07:54:52Z</time>
      </trkpt>
      <trkpt lat="47.56949" lon="6.45853">
        <ele>291.981</ele>
        <time>2019-09-30T07:54:55Z</time>
      </trkpt>
      <trkpt lat="47.56946" lon="6.45823">
        <ele>291.329</ele>
        <time>2019-09-30T07:54:58Z</time>
      </trkpt>
      <trkpt lat="47.56942" lon="6.45795">
        <ele>290.467</ele>
        <time>2019-09-30T07:55:01Z</time>
      </trkpt>
      <trkpt lat="47.56936" lon="6.4577">
        <ele>289.636</ele>
        <time>2019-09-30T07:55:04Z</time>
      </trkpt>
      <trkpt lat="47.56931" lon="6.45741">
        <ele>288.921</ele>
        <time>2019-09-30T07:55:07Z</time>
      </trkpt>
      <trkpt lat="47.56925" lon="6.45708">
        <ele>287.121</ele>
        <time>2019-09-30T07:55:10Z</time>
      </trkpt>
      <trkpt lat="47.56921" lon="6.45681">
        <ele>284.555</ele>
        <time>2019-09-30T07:55:13Z</time>
      </trkpt>
      <trkpt lat="47.56917" lon="6.45656">
        <ele>282.169</ele>
        <time>2019-09-30T07:55:16Z</time>
      </trkpt>
      <trkpt lat="47.56914" lon="6.45632">
        <ele>280.488</ele>
        <time>2019-09-30T07:55:19Z</time>
      </trkpt>
      <trkpt lat="47.56911" lon="6.4561">
        <ele>278.562</ele>
        <time>2019-09-30T07:55:22Z</time>
      </trkpt>
      <trkpt lat="47.56908" lon="6.45588">
        <ele>276.646</ele>
        <time>2019-09-30T07:55:25Z</time>
      </trkpt>
      <trkpt lat="47.56905" lon="6.45565">
        <ele>275.137</ele>
        <time>2019-09-30T07:55:28Z</time>
      </trkpt>
      <trkpt lat="47.56901" lon="6.45542">
        <ele>273.337</ele>
        <time>2019-09-30T07:55:31Z</time>
      </trkpt>
      <trkpt lat="47.56896" lon="6.4552">
        <ele>271.843</ele>
        <time>2019-09-30T07:55:34Z</time>
      </trkpt>
      <trkpt lat="47.56889" lon="6.45498">
        <ele>270.247</ele>
        <time>2019-09-30T07:55:37Z</time>
      </trkpt>
      <trkpt lat="47.56883" lon="6.45477">
        <ele>268.651</ele>
        <time>2019-09-30T07:55:40Z</time>
      </trkpt>
      <trkpt lat="47.56876" lon="6.45456">
        <ele>267.116</ele>
        <time>2019-09-30T07:55:43Z</time>
      </trkpt>
      <trkpt lat="47.56869" lon="6.45434">
        <ele>266.261</ele>
        <time>2019-09-30T07:55:46Z</time>
      </trkpt>
      <trkpt lat="47.56863" lon="6.45413">
        <ele>265.143</ele>
        <time>2019-09-30T07:55:49Z</time>
      </trkpt>
      <trkpt lat="47.56857" lon="6.45391">
        <ele>263.642</ele>
        <time>2019-09-30T07:55:52Z</time>
      </trkpt>
      <trkpt lat="47.5685" lon="6.45369">
        <ele>262.579</ele>
        <time>2019-09-30T07:55:55Z</time>
      </trkpt>
      <trkpt lat="47.56844" lon="6.45349">
        <ele>261.912</ele>
        <time>2019-09-30T07:55:58Z</time>
      </trkpt>
      <trkpt lat="47.56838" lon="6.4533">
        <ele>261.765</ele>
        <time>2019-09-30T07:56:01Z</time>
      </trkpt>
      <trkpt lat="47.56831" lon="6.4531">
        <ele>261.728</ele>
        <time>2019-09-30T07:56:04Z</time>
      </trkpt>
      <trkpt lat="47.56824" lon="6.4529">
        <ele>261.454</ele>
        <time>2019-09-30T07:56:07Z</time>
      </trkpt>
      <trkpt lat="47.56818" lon="6.45269">
        <ele>261.23</ele>
        <time>2019-09-30T07:56:10Z</time>
      </trkpt>
      <trkpt lat="47.56812" lon="6.45248">
        <ele>260.911</ele>
        <time>2019-09-30T07:56:13Z</time>
      </trkpt>
      <trkpt lat="47.56805" lon="6.45227">
        <ele>260.892</ele>
        <time>2019-09-30T07:56:16Z</time>
      </trkpt>
      <trkpt lat="47.56799" lon="6.45205">
        <ele>260.479</ele>
        <time>2019-09-30T07:56:19Z</time>
      </trkpt>
      <trkpt lat="47.56793" lon="6.45184">
        <ele>260.409</ele>
        <time>2019-09-30T07:56:22Z</time>
      </trkpt>
      <trkpt lat="47.56786" lon="6.45164">
        <ele>260.369</ele>
        <time>2019-09-30T07:56:25Z</time>
      </trkpt>
      <trkpt lat="47.5678" lon="6.45144">
        <ele>260.608</ele>
        <time>2019-09-30T07:56:28Z</time>
      </trkpt>
      <trkpt lat="47.56773" lon="6.45124">
        <ele>260.774</ele>
        <time>2019-09-30T07:56:31Z</time>
      </trkpt>
      <trkpt lat="47.56766" lon="6.45104">
        <ele>261.338</ele>
        <time>2019-09-30T07:56:34Z</time>
      </trkpt>
      <trkpt lat="47.56759" lon="6.45084">
        <ele>261.655</ele>
        <time>2019-09-30T07:56:37Z</time>
      </trkpt>
      <trkpt lat="47.56752" lon="6.45064">
        <ele>261.87</ele>
        <time>2019-09-30T07:56:40Z</time>
      </trkpt>
      <trkpt lat="47.56746" lon="6.45045">
        <ele>262.268</ele>
        <time>2019-09-30T07:56:43Z</time>
      </trkpt>
      <trkpt lat="47.56739" lon="6.45028">
        <ele>262.629</ele>
        <time>2019-09-30T07:56:46Z</time>
      </trkpt>
      <trkpt lat="47.5673" lon="6.45008">
        <ele>263.022</ele>
        <time>2019-09-30T07:56:49Z</time>
      </trkpt>
      <trkpt lat="47.5672" lon="6.44989">
        <ele>264.017</ele>
        <time>2019-09-30T07:56:52Z</time>
      </trkpt>
      <trkpt lat="47.56709" lon="6.4497">
        <ele>266.065</ele>
        <time>2019-09-30T07:56:55Z</time>
      </trkpt>
      <trkpt lat="47.56696" lon="6.44954">
        <ele>268.894</ele>
        <time>2019-09-30T07:56:58Z</time>
      </trkpt>
      <trkpt lat="47.56685" lon="6.44936">
        <ele>271.15</ele>
        <time>2019-09-30T07:57:01Z</time>
      </trkpt>
      <trkpt lat="47.56674" lon="6.44919">
        <ele>272.522</ele>
        <time>2019-09-30T07:57:04Z</time>
      </trkpt>
      <trkpt lat="47.56663" lon="6.44902">
        <ele>273.552</ele>
        <time>2019-09-30T07:57:07Z</time>
      </trkpt>
      <trkpt lat="47.56652" lon="6.44885">
        <ele>273.859</ele>
        <time>2019-09-30T07:57:10Z</time>
      </trkpt>
      <trkpt lat="47.56642" lon="6.4487">
        <ele>274.065</ele>
        <time>2019-09-30T07:57:13Z</time>
      </trkpt>
      <trkpt lat="47.56632" lon="6.44856">
        <ele>274.551</ele>
        <time>2019-09-30T07:57:16Z</time>
      </trkpt>
      <trkpt lat="47.56624" lon="6.44841">
        <ele>275.277</ele>
        <time>2019-09-30T07:57:19Z</time>
      </trkpt>
      <trkpt lat="47.56614" lon="6.44827">
        <ele>276.196</ele>
        <time>2019-09-30T07:57:22Z</time>
      </trkpt>
      <trkpt lat="47.56604" lon="6.44818">
        <ele>275.916</ele>
        <time>2019-09-30T07:57:25Z</time>
      </trkpt>
      <trkpt lat="47.56589" lon="6.44818">
        <ele>276.268</ele>
        <time>2019-09-30T07:57:28Z</time>
      </trkpt>
      <trkpt lat="47.56574" lon="6.44828">
        <ele>276.644</ele>
        <time>2019-09-30T07:57:31Z</time>
      </trkpt>
      <trkpt lat="47.56562" lon="6.44838">
        <ele>277.052</ele>
        <time>2019-09-30T07:57:34Z</time>
      </trkpt>
      <trkpt lat="47.56548" lon="6.44848">
        <ele>277.156</ele>
        <time>2019-09-30T07:57:37Z</time>
      </trkpt>
      <trkpt lat="47.56533" lon="6.44858">
        <ele>277.727</ele>
        <time>2019-09-30T07:57:40Z</time>
      </trkpt>
      <trkpt lat="47.56516" lon="6.44867">
        <ele>276.99</ele>
        <time>2019-09-30T07:57:43Z</time>
      </trkpt>
      <trkpt lat="47.565" lon="6.4488">
        <ele>275.291</ele>
        <time>2019-09-30T07:57:46Z</time>
      </trkpt>
      <trkpt lat="47.5649" lon="6.44902">
        <ele>274.185</ele>
        <time>2019-09-30T07:57:49Z</time>
      </trkpt>
      <trkpt lat="47.56482" lon="6.44923">
        <ele>273.599</ele>
        <time>2019-09-30T07:57:52Z</time>
      </trkpt>
      <trkpt lat="47.56474" lon="6.44944">
        <ele>273.057</ele>
        <time>2019-09-30T07:57:55Z</time>
      </trkpt>
      <trkpt lat="47.56466" lon="6.44965">
        <ele>272.953</ele>
        <time>2019-09-30T07:57:58Z</time>
      </trkpt>
      <trkpt lat="47.56457" lon="6.44986">
        <ele>272.493</ele>
        <time>2019-09-30T07:58:01Z</time>
      </trkpt>
      <trkpt lat="47.56446" lon="6.45008">
        <ele>271.844</ele>
        <time>2019-09-30T07:58:04Z</time>
      </trkpt>
      <trkpt lat="47.56433" lon="6.45029">
        <ele>271.275</ele>
        <time>2019-09-30T07:58:07Z</time>
      </trkpt>
      <trkpt lat="47.56422" lon="6.4505">
        <ele>271.244</ele>
        <time>2019-09-30T07:58:10Z</time>
      </trkpt>
      <trkpt lat="47.56418" lon="6.45071">
        <ele>271.146</ele>
        <time>2019-09-30T07:58:13Z</time>
      </trkpt>
      <trkpt lat="47.56417" lon="6.45093">
        <ele>271.143</ele>
        <time>2019-09-30T07:58:16Z</time>
      </trkpt>
      <trkpt lat="47.56417" lon="6.45117">
        <ele>271.289</ele>
        <time>2019-09-30T07:58:19Z</time>
      </trkpt>
      <trkpt lat="47.56415" lon="6.45143">
        <ele>270.835</ele>
        <time>2019-09-30T07:58:22Z</time>
      </trkpt>
      <trkpt lat="47.56411" lon="6.45169">
        <ele>270.994</ele>
        <time>2019-09-30T07:58:25Z</time>
      </trkpt>
      <trkpt lat="47.56401" lon="6.45191">
        <ele>271.275</ele>
        <time>2019-09-30T07:58:28Z</time>
      </trkpt>
      <trkpt lat="47.56391" lon="6.45211">
        <ele>270.903</ele>
        <time>2019-09-30T07:58:31Z</time>
      </trkpt>
      <trkpt lat="47.5638" lon="6.4523">
        <ele>269.649</ele>
        <time>2019-09-30T07:58:34Z</time>
      </trkpt>
      <trkpt lat="47.56369" lon="6.45248">
        <ele>268.347</ele>
        <time>2019-09-30T07:58:37Z</time>
      </trkpt>
      <trkpt lat="47.56359" lon="6.45264">
        <ele>267.309</ele>
        <time>2019-09-30T07:58:40Z</time>
      </trkpt>
      <trkpt lat="47.56348" lon="6.4528">
        <ele>266.606</ele>
        <time>2019-09-30T07:58:43Z</time>
      </trkpt>
      <trkpt lat="47.56338" lon="6.45293">
        <ele>266.552</ele>
        <time>2019-09-30T07:58:46Z</time>
      </trkpt>
      <trkpt lat="47.56329" lon="6.45303">
        <ele>266.983</ele>
        <time>2019-09-30T07:58:49Z</time>
      </trkpt>
      <trkpt lat="47.5632" lon="6.45315">
        <ele>267.259</ele>
        <time>2019-09-30T07:58:52Z</time>
      </trkpt>
      <trkpt lat="47.5631" lon="6.45329">
        <ele>267.279</ele>
        <time>2019-09-30T07:58:55Z</time>
      </trkpt>
      <trkpt lat="47.563" lon="6.45342">
        <ele>267.288</ele>
        <time>2019-09-30T07:58:58Z</time>
      </trkpt>
      <trkpt lat="47.56288" lon="6.4535">
        <ele>267.95</ele>
        <time>2019-09-30T07:59:01Z</time>
      </trkpt>
      <trkpt lat="47.56276" lon="6.4535">
        <ele>268.955</ele>
        <time>2019-09-30T07:59:04Z</time>
      </trkpt>
      <trkpt lat="47.56268" lon="6.45343">
        <ele>270.189</ele>
        <time>2019-09-30T07:59:07Z</time>
      </trkpt>
      <trkpt lat="47.56262" lon="6.45336">
        <ele>271.082</ele>
        <time>2019-09-30T07:59:10Z</time>
      </trkpt>
      <trkpt lat="47.56256" lon="6.45327">
        <ele>272.181</ele>
        <time>2019-09-30T07:59:13Z</time>
      </trkpt>
      <trkpt lat="47.56252" lon="6.45317">
        <ele>272.66</ele>
        <time>2019-09-30T07:59:16Z</time>
      </trkpt>
      <trkpt lat="47.56247" lon="6.45305">
        <ele>273.574</ele>
        <time>2019-09-30T07:59:19Z</time>
      </trkpt>
      <trkpt lat="47.56244" lon="6.45293">
        <ele>274.879</ele>
        <time>2019-09-30T07:59:22Z</time>
      </trkpt>
      <trkpt lat="47.56241" lon="6.4528">
        <ele>275.725</ele>
        <time>2019-09-30T07:59:25Z</time>
      </trkpt>
      <trkpt lat="47.56238" lon="6.45267">
        <ele>276.799</ele>
        <time>2019-09-30T07:59:28Z</time>
      </trkpt>
      <trkpt lat="47.56235" lon="6.45256">
        <ele>277.404</ele>
        <time>2019-09-30T07:59:31Z</time>
      </trkpt>
      <trkpt lat="47.56232" lon="6.45245">
        <ele>277.735</ele>
        <time>2019-09-30T07:59:34Z</time>
      </trkpt>
      <trkpt lat="47.56231" lon="6.45235">
        <ele>278.667</ele>
        <time>2019-09-30T07:59:37Z</time>
      </trkpt>
      <trkpt lat="47.56228" lon="6.45225">
        <ele>279.679</ele>
        <time>2019-09-30T07:59:40Z</time>
      </trkpt>
      <trkpt lat="47.56226" lon="6.45215">
        <ele>280.6</ele>
        <time>2019-09-30T07:59:43Z</time>
      </trkpt>
      <trkpt lat="47.56223" lon="6.45203">
        <ele>281.415</ele>
        <time>2019-09-30T07:59:46Z</time>
      </trkpt>
      <trkpt lat="47.56219" lon="6.45192">
        <ele>282.199</ele>
        <time>2019-09-30T07:59:49Z</time>
      </trkpt>
      <trkpt lat="47.56217" lon="6.4518">
        <ele>282.906</ele>
        <time>2019-09-30T07:59:52Z</time>
      </trkpt>
      <trkpt lat="47.56214" lon="6.4517">
        <ele>284.529</ele>
        <time>2019-09-30T07:59:55Z</time>
      </trkpt>
      <trkpt lat="47.56211" lon="6.45161">
        <ele>284.746</ele>
        <time>2019-09-30T07:59:58Z</time>
      </trkpt>
      <trkpt lat="47.56207" lon="6.45151">
        <ele>285.139</ele>
        <time>2019-09-30T08:00:01Z</time>
      </trkpt>
      <trkpt lat="47.56203" lon="6.4514">
        <ele>284.527</ele>
        <time>2019-09-30T08:00:04Z</time>
      </trkpt>
      <trkpt lat="47.56197" lon="6.4513">
        <ele>285.129</ele>
        <time>2019-09-30T08:00:07Z</time>
      </trkpt>
      <trkpt lat="47.56192" lon="6.4512">
        <ele>286.423</ele>
        <time>2019-09-30T08:00:10Z</time>
      </trkpt>
      <trkpt lat="47.56188" lon="6.4511">
        <ele>287.64</ele>
        <time>2019-09-30T08:00:13Z</time>
      </trkpt>
      <trkpt lat="47.56182" lon="6.45101">
        <ele>288.504</ele>
        <time>2019-09-30T08:00:16Z</time>
      </trkpt>
      <trkpt lat="47.56178" lon="6.45091">
        <ele>288.62</ele>
        <time>2019-09-30T08:00:19Z</time>
      </trkpt>
      <trkpt lat="47.56172" lon="6.45081">
        <ele>288.842</ele>
        <time>2019-09-30T08:00:22Z</time>
      </trkpt>
      <trkpt lat="47.56166" lon="6.4507">
        <ele>288.758</ele>
        <time>2019-09-30T08:00:25Z</time>
      </trkpt>
      <trkpt lat="47.5616" lon="6.4506">
        <ele>288.624</ele>
        <time>2019-09-30T08:00:28Z</time>
      </trkpt>
      <trkpt lat="47.56154" lon="6.45052">
        <ele>289.054</ele>
        <time>2019-09-30T08:00:31Z</time>
      </trkpt>
      <trkpt lat="47.56148" lon="6.45043">
        <ele>289.099</ele>
        <time>2019-09-30T08:00:34Z</time>
      </trkpt>
      <trkpt lat="47.56143" lon="6.45035">
        <ele>289.368</ele>
        <time>2019-09-30T08:00:37Z</time>
      </trkpt>
      <trkpt lat="47.56138" lon="6.45027">
        <ele>289.733</ele>
        <time>2019-09-30T08:00:40Z</time>
      </trkpt>
      <trkpt lat="47.56132" lon="6.45019">
        <ele>290.25</ele>
        <time>2019-09-30T08:00:43Z</time>
      </trkpt>
      <trkpt lat="47.56127" lon="6.45013">
        <ele>290.998</ele>
        <time>2019-09-30T08:00:46Z</time>
      </trkpt>
      <trkpt lat="47.56122" lon="6.45007">
        <ele>291.681</ele>
        <time>2019-09-30T08:00:49Z</time>
      </trkpt>
      <trkpt lat="47.56118" lon="6.45">
        <ele>291.794</ele>
        <time>2019-09-30T08:00:52Z</time>
      </trkpt>
      <trkpt lat="47.56113" lon="6.44993">
        <ele>292.955</ele>
        <time>2019-09-30T08:00:55Z</time>
      </trkpt>
      <trkpt lat="47.56107" lon="6.44986">
        <ele>293.527</ele>
        <time>2019-09-30T08:00:58Z</time>
      </trkpt>
      <trkpt lat="47.56101" lon="6.44979">
        <ele>293.573</ele>
        <time>2019-09-30T08:01:01Z</time>
      </trkpt>
      <trkpt lat="47.56095" lon="6.44972">
        <ele>293.747</ele>
        <time>2019-09-30T08:01:04Z</time>
      </trkpt>
      <trkpt lat="47.5609" lon="6.44963">
        <ele>294</ele>
        <time>2019-09-30T08:01:07Z</time>
      </trkpt>
      <trkpt lat="47.56084" lon="6.44955">
        <ele>294.323</ele>
        <time>2019-09-30T08:01:10Z</time>
      </trkpt>
      <trkpt lat="47.56077" lon="6.44947">
        <ele>293.543</ele>
        <time>2019-09-30T08:01:13Z</time>
      </trkpt>
      <trkpt lat="47.56072" lon="6.44939">
        <ele>293.771</ele>
        <time>2019-09-30T08:01:16Z</time>
      </trkpt>
      <trkpt lat="47.56067" lon="6.44931">
        <ele>293.911</ele>
        <time>2019-09-30T08:01:19Z</time>
      </trkpt>
      <trkpt lat="47.56061" lon="6.44924">
        <ele>293.847</ele>
        <time>2019-09-30T08:01:22Z</time>
      </trkpt>
      <trkpt lat="47.56055" lon="6.44916">
        <ele>294.264</ele>
        <time>2019-09-30T08:01:25Z</time>
      </trkpt>
      <trkpt lat="47.5605" lon="6.44908">
        <ele>294.987</ele>
        <time>2019-09-30T08:01:28Z</time>
      </trkpt>
      <trkpt lat="47.56045" lon="6.44901">
        <ele>294.941</ele>
        <time>2019-09-30T08:01:31Z</time>
      </trkpt>
      <trkpt lat="47.5604" lon="6.44894">
        <ele>294.305</ele>
        <time>2019-09-30T08:01:34Z</time>
      </trkpt>
      <trkpt lat="47.56034" lon="6.44886">
        <ele>293.673</ele>
        <time>2019-09-30T08:01:37Z</time>
      </trkpt>
      <trkpt lat="47.56029" lon="6.44877">
        <ele>293.75</ele>
        <time>2019-09-30T08:01:40Z</time>
      </trkpt>
      <trkpt lat="47.56024" lon="6.44867">
        <ele>294.032</ele>
        <time>2019-09-30T08:01:43Z</time>
      </trkpt>
      <trkpt lat="47.56019" lon="6.44859">
        <ele>293.596</ele>
        <time>2019-09-30T08:01:46Z</time>
      </trkpt>
      <trkpt lat="47.56015" lon="6.44851">
        <ele>293.454</ele>
        <time>2019-09-30T08:01:49Z</time>
      </trkpt>
      <trkpt lat="47.56011" lon="6.44843">
        <ele>294.02</ele>
        <time>2019-09-30T08:01:52Z</time>
      </trkpt>
      <trkpt lat="47.56006" lon="6.44834">
        <ele>294.333</ele>
        <time>2019-09-30T08:01:55Z</time>
      </trkpt>
      <trkpt lat="47.56002" lon="6.44826">
        <ele>294.301</ele>
        <time>2019-09-30T08:01:58Z</time>
      </trkpt>
      <trkpt lat="47.55997" lon="6.44819">
        <ele>294.16</ele>
        <time>2019-09-30T08:02:01Z</time>
      </trkpt>
      <trkpt lat="47.55992" lon="6.44811">
        <ele>294.366</ele>
        <time>2019-09-30T08:02:04Z</time>
      </trkpt>
      <trkpt lat="47.55988" lon="6.44803">
        <ele>294.974</ele>
        <time>2019-09-30T08:02:07Z</time>
      </trkpt>
      <trkpt lat="47.55983" lon="6.44795">
        <ele>295.58</ele>
        <time>2019-09-30T08:02:10Z</time>
      </trkpt>
      <trkpt lat="47.55978" lon="6.44788">
        <ele>295.384</ele>
        <time>2019-09-30T08:02:13Z</time>
      </trkpt>
      <trkpt lat="47.55972" lon="6.4478">
        <ele>295.182</ele>
        <time>2019-09-30T08:02:16Z</time>
      </trkpt>
      <trkpt lat="47.55965" lon="6.44773">
        <ele>294.646</ele>
        <time>2019-09-30T08:02:19Z</time>
      </trkpt>
      <trkpt lat="47.55958" lon="6.44766">
        <ele>294.715</ele>
        <time>2019-09-30T08:02:22Z</time>
      </trkpt>
      <trkpt lat="47.55952" lon="6.44758">
        <ele>294.904</ele>
        <time>2019-09-30T08:02:25Z</time>
      </trkpt>
      <trkpt lat="47.55946" lon="6.4475">
        <ele>295.163</ele>
        <time>2019-09-30T08:02:28Z</time>
      </trkpt>
      <trkpt lat="47.55939" lon="6.44742">
        <ele>295.104</ele>
        <time>2019-09-30T08:02:31Z</time>
      </trkpt>
      <trkpt lat="47.55932" lon="6.44734">
        <ele>295.251</ele>
        <time>2019-09-30T08:02:34Z</time>
      </trkpt>
      <trkpt lat="47.55926" lon="6.44726">
        <ele>295.314</ele>
        <time>2019-09-30T08:02:37Z</time>
      </trkpt>
      <trkpt lat="47.5592" lon="6.44718">
        <ele>295.514</ele>
        <time>2019-09-30T08:02:40Z</time>
      </trkpt>
      <trkpt lat="47.55914" lon="6.44709">
        <ele>295.584</ele>
        <time>2019-09-30T08:02:43Z</time>
      </trkpt>
      <trkpt lat="47.55908" lon="6.44698">
        <ele>295.472</ele>
        <time>2019-09-30T08:02:46Z</time>
      </trkpt>
      <trkpt lat="47.55902" lon="6.44686">
        <ele>295.375</ele>
        <time>2019-09-30T08:02:49Z</time>
      </trkpt>
      <trkpt lat="47.55897" lon="6.44673">
        <ele>294.877</ele>
        <time>2019-09-30T08:02:52Z</time>
      </trkpt>
      <trkpt lat="47.55892" lon="6.44659">
        <ele>294.525</ele>
        <time>2019-09-30T08:02:55Z</time>
      </trkpt>
      <trkpt lat="47.55887" lon="6.44645">
        <ele>294.445</ele>
        <time>2019-09-30T08:02:58Z</time>
      </trkpt>
      <trkpt lat="47.55881" lon="6.4463">
        <ele>294.192</ele>
        <time>2019-09-30T08:03:01Z</time>
      </trkpt>
      <trkpt lat="47.55875" lon="6.44615">
        <ele>294.443</ele>
        <time>2019-09-30T08:03:04Z</time>
      </trkpt>
      <trkpt lat="47.55868" lon="6.446">
        <ele>294.286</ele>
        <time>2019-09-30T08:03:07Z</time>
      </trkpt>
      <trkpt lat="47.5586" lon="6.44586">
        <ele>293.74</ele>
        <time>2019-09-30T08:03:10Z</time>
      </trkpt>
      <trkpt lat="47.55854" lon="6.44569">
        <ele>293.363</ele>
        <time>2019-09-30T08:03:13Z</time>
      </trkpt>
      <trkpt lat="47.55845" lon="6.44551">
        <ele>293.536</ele>
        <time>2019-09-30T08:03:16Z</time>
      </trkpt>
      <trkpt lat="47.55835" lon="6.44531">
        <ele>292.986</ele>
        <time>2019-09-30T08:03:19Z</time>
      </trkpt>
      <trkpt lat="47.55825" lon="6.4451">
        <ele>292.953</ele>
        <time>2019-09-30T08:03:22Z</time>
      </trkpt>
      <trkpt lat="47.55815" lon="6.44489">
        <ele>293.439</ele>
        <time>2019-09-30T08:03:25Z</time>
      </trkpt>
      <trkpt lat="47.55806" lon="6.44469">
        <ele>293.863</ele>
        <time>2019-09-30T08:03:28Z</time>
      </trkpt>
      <trkpt lat="47.55796" lon="6.44449">
        <ele>294.244</ele>
        <time>2019-09-30T08:03:31Z</time>
      </trkpt>
      <trkpt lat="47.55787" lon="6.44427">
        <ele>295.227</ele>
        <time>2019-09-30T08:03:34Z</time>
      </trkpt>
      <trkpt lat="47.55778" lon="6.44405">
        <ele>295.373</ele>
        <time>2019-09-30T08:03:37Z</time>
      </trkpt>
      <trkpt lat="47.5577" lon="6.44386">
        <ele>294.72</ele>
        <time>2019-09-30T08:03:40Z</time>
      </trkpt>
      <trkpt lat="47.55761" lon="6.44368">
        <ele>294.117</ele>
        <time>2019-09-30T08:03:43Z</time>
      </trkpt>
      <trkpt lat="47.55751" lon="6.44351">
        <ele>293.655</ele>
        <time>2019-09-30T08:03:46Z</time>
      </trkpt>
      <trkpt lat="47.55742" lon="6.44335">
        <ele>293.163</ele>
        <time>2019-09-30T08:03:49Z</time>
      </trkpt>
      <trkpt lat="47.55732" lon="6.44318">
        <ele>293.453</ele>
        <time>2019-09-30T08:03:52Z</time>
      </trkpt>
      <trkpt lat="47.55722" lon="6.44302">
        <ele>293.087</ele>
        <time>2019-09-30T08:03:55Z</time>
      </trkpt>
      <trkpt lat="47.55711" lon="6.44287">
        <ele>293.061</ele>
        <time>2019-09-30T08:03:58Z</time>
      </trkpt>
      <trkpt lat="47.557" lon="6.44272">
        <ele>293.164</ele>
        <time>2019-09-30T08:04:01Z</time>
      </trkpt>
      <trkpt lat="47.55691" lon="6.44258">
        <ele>293.289</ele>
        <time>2019-09-30T08:04:04Z</time>
      </trkpt>
      <trkpt lat="47.55682" lon="6.44245">
        <ele>293.488</ele>
        <time>2019-09-30T08:04:07Z</time>
      </trkpt>
      <trkpt lat="47.55673" lon="6.44234">
        <ele>293.759</ele>
        <time>2019-09-30T08:04:10Z</time>
      </trkpt>
      <trkpt lat="47.55665" lon="6.44222">
        <ele>293.702</ele>
        <time>2019-09-30T08:04:13Z</time>
      </trkpt>
      <trkpt lat="47.55657" lon="6.4421">
        <ele>293.468</ele>
        <time>2019-09-30T08:04:16Z</time>
      </trkpt>
      <trkpt lat="47.55649" lon="6.44196">
        <ele>293.826</ele>
        <time>2019-09-30T08:04:19Z</time>
      </trkpt>
      <trkpt lat="47.55641" lon="6.4418">
        <ele>294.01</ele>
        <time>2019-09-30T08:04:22Z</time>
      </trkpt>
      <trkpt lat="47.55632" lon="6.4416">
        <ele>293.992</ele>
        <time>2019-09-30T08:04:25Z</time>
      </trkpt>
      <trkpt lat="47.55621" lon="6.44138">
        <ele>293.949</ele>
        <time>2019-09-30T08:04:28Z</time>
      </trkpt>
      <trkpt lat="47.55609" lon="6.44115">
        <ele>293.674</ele>
        <time>2019-09-30T08:04:31Z</time>
      </trkpt>
      <trkpt lat="47.55595" lon="6.44089">
        <ele>292.686</ele>
        <time>2019-09-30T08:04:34Z</time>
      </trkpt>
      <trkpt lat="47.55581" lon="6.44062">
        <ele>291.365</ele>
        <time>2019-09-30T08:04:37Z</time>
      </trkpt>
      <trkpt lat="47.55566" lon="6.44032">
        <ele>289.848</ele>
        <time>2019-09-30T08:04:40Z</time>
      </trkpt>
      <trkpt lat="47.5555" lon="6.44">
        <ele>288.225</ele>
        <time>2019-09-30T08:04:43Z</time>
      </trkpt>
      <trkpt lat="47.55533" lon="6.43968">
        <ele>287.152</ele>
        <time>2019-09-30T08:04:46Z</time>
      </trkpt>
      <trkpt lat="47.55515" lon="6.43937">
        <ele>285.679</ele>
        <time>2019-09-30T08:04:49Z</time>
      </trkpt>
      <trkpt lat="47.55495" lon="6.43908">
        <ele>284.394</ele>
        <time>2019-09-30T08:04:52Z</time>
      </trkpt>
      <trkpt lat="47.55474" lon="6.43879">
        <ele>282.906</ele>
        <time>2019-09-30T08:04:55Z</time>
      </trkpt>
      <trkpt lat="47.55451" lon="6.43857">
        <ele>281.829</ele>
        <time>2019-09-30T08:04:58Z</time>
      </trkpt>
      <trkpt lat="47.55426" lon="6.43845">
        <ele>280.886</ele>
        <time>2019-09-30T08:05:01Z</time>
      </trkpt>
      <trkpt lat="47.55398" lon="6.43841">
        <ele>279.566</ele>
        <time>2019-09-30T08:05:04Z</time>
      </trkpt>
      <trkpt lat="47.55372" lon="6.43838">
        <ele>278.626</ele>
        <time>2019-09-30T08:05:07Z</time>
      </trkpt>
      <trkpt lat="47.55349" lon="6.43822">
        <ele>276.55</ele>
        <time>2019-09-30T08:05:10Z</time>
      </trkpt>
      <trkpt lat="47.55335" lon="6.43798">
        <ele>275.142</ele>
        <time>2019-09-30T08:05:13Z</time>
      </trkpt>
      <trkpt lat="47.55329" lon="6.43779">
        <ele>274.948</ele>
        <time>2019-09-30T08:05:16Z</time>
      </trkpt>
      <trkpt lat="47.55325" lon="6.43764">
        <ele>274.993</ele>
        <time>2019-09-30T08:05:19Z</time>
      </trkpt>
      <trkpt lat="47.55316" lon="6.43753">
        <ele>275.736</ele>
        <time>2019-09-30T08:05:22Z</time>
      </trkpt>
      <trkpt lat="47.55306" lon="6.43741">
        <ele>275.637</ele>
        <time>2019-09-30T08:05:25Z</time>
      </trkpt>
      <trkpt lat="47.55299" lon="6.4373">
        <ele>275.807</ele>
        <time>2019-09-30T08:05:28Z</time>
      </trkpt>
      <trkpt lat="47.55291" lon="6.43719">
        <ele>276.015</ele>
        <time>2019-09-30T08:05:31Z</time>
      </trkpt>
      <trkpt lat="47.55283" lon="6.43712">
        <ele>276.631</ele>
        <time>2019-09-30T08:05:34Z</time>
      </trkpt>
      <trkpt lat="47.55276" lon="6.43703">
        <ele>277.47</ele>
        <time>2019-09-30T08:05:37Z</time>
      </trkpt>
      <trkpt lat="47.55268" lon="6.43694">
        <ele>278.568</ele>
        <time>2019-09-30T08:05:40Z</time>
      </trkpt>
      <trkpt lat="47.55262" lon="6.43684">
        <ele>279.082</ele>
        <time>2019-09-30T08:05:43Z</time>
      </trkpt>
      <trkpt lat="47.55255" lon="6.43672">
        <ele>279.242</ele>
        <time>2019-09-30T08:05:46Z</time>
      </trkpt>
      <trkpt lat="47.55245" lon="6.4366">
        <ele>278.782</ele>
        <time>2019-09-30T08:05:49Z</time>
      </trkpt>
      <trkpt lat="47.55235" lon="6.43648">
        <ele>278.834</ele>
        <time>2019-09-30T08:05:52Z</time>
      </trkpt>
      <trkpt lat="47.55229" lon="6.43638">
        <ele>278.918</ele>
        <time>2019-09-30T08:05:55Z</time>
      </trkpt>
      <trkpt lat="47.55222" lon="6.43629">
        <ele>279.986</ele>
        <time>2019-09-30T08:05:58Z</time>
      </trkpt>
      <trkpt lat="47.55215" lon="6.43621">
        <ele>280.616</ele>
        <time>2019-09-30T08:06:01Z</time>
      </trkpt>
      <trkpt lat="47.55208" lon="6.43612">
        <ele>281.691</ele>
        <time>2019-09-30T08:06:04Z</time>
      </trkpt>
      <trkpt lat="47.55202" lon="6.43602">
        <ele>283.018</ele>
        <time>2019-09-30T08:06:07Z</time>
      </trkpt>
      <trkpt lat="47.55195" lon="6.43593">
        <ele>285.08</ele>
        <time>2019-09-30T08:06:10Z</time>
      </trkpt>
      <trkpt lat="47.55189" lon="6.43584">
        <ele>286.328</ele>
        <time>2019-09-30T08:06:13Z</time>
      </trkpt>
      <trkpt lat="47.55183" lon="6.43577">
        <ele>287.161</ele>
        <time>2019-09-30T08:06:16Z</time>
      </trkpt>
      <trkpt lat="47.55177" lon="6.43569">
        <ele>287.787</ele>
        <time>2019-09-30T08:06:19Z</time>
      </trkpt>
      <trkpt lat="47.55171" lon="6.43562">
        <ele>288.486</ele>
        <time>2019-09-30T08:06:22Z</time>
      </trkpt>
      <trkpt lat="47.55166" lon="6.43554">
        <ele>289.412</ele>
        <time>2019-09-30T08:06:25Z</time>
      </trkpt>
      <trkpt lat="47.5516" lon="6.43546">
        <ele>290.653</ele>
        <time>2019-09-30T08:06:28Z</time>
      </trkpt>
      <trkpt lat="47.55155" lon="6.43541">
        <ele>291.559</ele>
        <time>2019-09-30T08:06:31Z</time>
      </trkpt>
      <trkpt lat="47.55149" lon="6.43536">
        <ele>291.961</ele>
        <time>2019-09-30T08:06:34Z</time>
      </trkpt>
      <trkpt lat="47.55143" lon="6.43531">
        <ele>292.127</ele>
        <time>2019-09-30T08:06:37Z</time>
      </trkpt>
      <trkpt lat="47.55136" lon="6.43528">
        <ele>291.823</ele>
        <time>2019-09-30T08:06:40Z</time>
      </trkpt>
      <trkpt lat="47.5513" lon="6.43526">
        <ele>292.609</ele>
        <time>2019-09-30T08:06:43Z</time>
      </trkpt>
      <trkpt lat="47.55124" lon="6.43522">
        <ele>293.223</ele>
        <time>2019-09-30T08:06:46Z</time>
      </trkpt>
      <trkpt lat="47.55117" lon="6.43512">
        <ele>293.398</ele>
        <time>2019-09-30T08:06:49Z</time>
      </trkpt>
      <trkpt lat="47.55109" lon="6.43502">
        <ele>294.054</ele>
        <time>2019-09-30T08:06:52Z</time>
      </trkpt>
      <trkpt lat="47.55103" lon="6.4349">
        <ele>294.696</ele>
        <time>2019-09-30T08:06:55Z</time>
      </trkpt>
      <trkpt lat="47.551" lon="6.43472">
        <ele>294.958</ele>
        <time>2019-09-30T08:06:58Z</time>
      </trkpt>
      <trkpt lat="47.55091" lon="6.43455">
        <ele>296.402</ele>
        <time>2019-09-30T08:07:01Z</time>
      </trkpt>
      <trkpt lat="47.5508" lon="6.43444">
        <ele>297.398</ele>
        <time>2019-09-30T08:07:04Z</time>
      </trkpt>
      <trkpt lat="47.55071" lon="6.43431">
        <ele>298.693</ele>
        <time>2019-09-30T08:07:07Z</time>
      </trkpt>
      <trkpt lat="47.55062" lon="6.43412">
        <ele>298.701</ele>
        <time>2019-09-30T08:07:10Z</time>
      </trkpt>
      <trkpt lat="47.55049" lon="6.43394">
        <ele>298.069</ele>
        <time>2019-09-30T08:07:13Z</time>
      </trkpt>
      <trkpt lat="47.55034" lon="6.43384">
        <ele>296.102</ele>
        <time>2019-09-30T08:07:16Z</time>
      </trkpt>
      <trkpt lat="47.55024" lon="6.43368">
        <ele>295.233</ele>
        <time>2019-09-30T08:07:19Z</time>
      </trkpt>
      <trkpt lat="47.55024" lon="6.43347">
        <ele>296.657</ele>
        <time>2019-09-30T08:07:22Z</time>
      </trkpt>
      <trkpt lat="47.55023" lon="6.43325">
        <ele>296.754</ele>
        <time>2019-09-30T08:07:25Z</time>
      </trkpt>
      <trkpt lat="47.5502" lon="6.43298">
        <ele>296.181</ele>
        <time>2019-09-30T08:07:28Z</time>
      </trkpt>
      <trkpt lat="47.55016" lon="6.43269">
        <ele>294.017</ele>
        <time>2019-09-30T08:07:31Z</time>
      </trkpt>
      <trkpt lat="47.55012" lon="6.43237">
        <ele>291.914</ele>
        <time>2019-09-30T08:07:34Z</time>
      </trkpt>
      <trkpt lat="47.55008" lon="6.43204">
        <ele>289.006</ele>
        <time>2019-09-30T08:07:37Z</time>
      </trkpt>
      <trkpt lat="47.55006" lon="6.43169">
        <ele>285.402</ele>
        <time>2019-09-30T08:07:40Z</time>
      </trkpt>
      <trkpt lat="47.55004" lon="6.43131">
        <ele>281.103</ele>
        <time>2019-09-30T08:07:43Z</time>
      </trkpt>
      <trkpt lat="47.54999" lon="6.43096">
        <ele>278.716</ele>
        <time>2019-09-30T08:07:46Z</time>
      </trkpt>
      <trkpt lat="47.54991" lon="6.43064">
        <ele>276.49</ele>
        <time>2019-09-30T08:07:49Z</time>
      </trkpt>
      <trkpt lat="47.54977" lon="6.43036">
        <ele>274.882</ele>
        <time>2019-09-30T08:07:52Z</time>
      </trkpt>
      <trkpt lat="47.54961" lon="6.43013">
        <ele>274.042</ele>
        <time>2019-09-30T08:07:55Z</time>
      </trkpt>
      <trkpt lat="47.54952" lon="6.42987">
        <ele>273.899</ele>
        <time>2019-09-30T08:07:58Z</time>
      </trkpt>
      <trkpt lat="47.54954" lon="6.42959">
        <ele>273</ele>
        <time>2019-09-30T08:08:01Z</time>
      </trkpt>
      <trkpt lat="47.54957" lon="6.42933">
        <ele>272.033</ele>
        <time>2019-09-30T08:08:04Z</time>
      </trkpt>
      <trkpt lat="47.54956" lon="6.42906">
        <ele>271.133</ele>
        <time>2019-09-30T08:08:07Z</time>
      </trkpt>
      <trkpt lat="47.54954" lon="6.42879">
        <ele>270.696</ele>
        <time>2019-09-30T08:08:10Z</time>
      </trkpt>
      <trkpt lat="47.54951" lon="6.42853">
        <ele>270.178</ele>
        <time>2019-09-30T08:08:13Z</time>
      </trkpt>
      <trkpt lat="47.54948" lon="6.42832">
        <ele>268.588</ele>
        <time>2019-09-30T08:08:16Z</time>
      </trkpt>
      <trkpt lat="47.54953" lon="6.42819">
        <ele>267.912</ele>
        <time>2019-09-30T08:08:19Z</time>
      </trkpt>
      <trkpt lat="47.54962" lon="6.42819">
        <ele>266.526</ele>
        <time>2019-09-30T08:08:22Z</time>
      </trkpt>
      <trkpt lat="47.5497" lon="6.42818">
        <ele>266.726</ele>
        <time>2019-09-30T08:08:25Z</time>
      </trkpt>
      <trkpt lat="47.54977" lon="6.42816">
        <ele>267.516</ele>
        <time>2019-09-30T08:08:28Z</time>
      </trkpt>
      <trkpt lat="47.54979" lon="6.42816">
        <ele>268.33</ele>
        <time>2019-09-30T08:08:31Z</time>
      </trkpt>
      <trkpt lat="47.54979" lon="6.42816">
        <ele>268.33</ele>
        <time>2019-09-30T08:09:16Z</time>
      </trkpt>
      <trkpt lat="47.54978" lon="6.42821">
        <ele>268.015</ele>
        <time>2019-09-30T08:09:19Z</time>
      </trkpt>
      <trkpt lat="47.54973" lon="6.42822">
        <ele>267.242</ele>
        <time>2019-09-30T08:09:22Z</time>
      </trkpt>
      <trkpt lat="47.54967" lon="6.4282">
        <ele>267.349</ele>
        <time>2019-09-30T08:09:25Z</time>
      </trkpt>
      <trkpt lat="47.54958" lon="6.42821">
        <ele>268.383</ele>
        <time>2019-09-30T08:09:28Z</time>
      </trkpt>
      <trkpt lat="47.54949" lon="6.42821">
        <ele>269.403</ele>
        <time>2019-09-30T08:09:31Z</time>
      </trkpt>
      <trkpt lat="47.54941" lon="6.42814">
        <ele>271.215</ele>
        <time>2019-09-30T08:09:34Z</time>
      </trkpt>
      <trkpt lat="47.54942" lon="6.42806">
        <ele>271.965</ele>
        <time>2019-09-30T08:09:37Z</time>
      </trkpt>
      <trkpt lat="47.54948" lon="6.428">
        <ele>272.066</ele>
        <time>2019-09-30T08:09:43Z</time>
      </trkpt>
      <trkpt lat="47.54952" lon="6.42802">
        <ele>272.122</ele>
        <time>2019-09-30T08:09:46Z</time>
      </trkpt>
      <trkpt lat="47.54953" lon="6.42803">
        <ele>273.336</ele>
        <time>2019-09-30T08:09:49Z</time>
      </trkpt>
      <trkpt lat="47.54954" lon="6.42804">
        <ele>273.424</ele>
        <time>2019-09-30T08:09:52Z</time>
      </trkpt>
      <trkpt lat="47.54955" lon="6.42802">
        <ele>273.743</ele>
        <time>2019-09-30T08:37:07Z</time>
      </trkpt>
      <trkpt lat="47.5494" lon="6.42813">
        <ele>274.22</ele>
        <time>2019-09-30T08:37:10Z</time>
      </trkpt>
      <trkpt lat="47.54942" lon="6.42824">
        <ele>274.261</ele>
        <time>2019-09-30T08:37:13Z</time>
      </trkpt>
      <trkpt lat="47.54945" lon="6.42835">
        <ele>274.659</ele>
        <time>2019-09-30T08:37:16Z</time>
      </trkpt>
      <trkpt lat="47.54946" lon="6.42848">
        <ele>274.959</ele>
        <time>2019-09-30T08:37:19Z</time>
      </trkpt>
      <trkpt lat="47.54947" lon="6.42864">
        <ele>275.397</ele>
        <time>2019-09-30T08:37:22Z</time>
      </trkpt>
      <trkpt lat="47.54948" lon="6.42879">
        <ele>275.583</ele>
        <time>2019-09-30T08:37:25Z</time>
      </trkpt>
      <trkpt lat="47.54947" lon="6.42894">
        <ele>275.764</ele>
        <time>2019-09-30T08:37:28Z</time>
      </trkpt>
      <trkpt lat="47.54947" lon="6.42908">
        <ele>275.789</ele>
        <time>2019-09-30T08:37:31Z</time>
      </trkpt>
      <trkpt lat="47.54947" lon="6.42922">
        <ele>275.689</ele>
        <time>2019-09-30T08:37:34Z</time>
      </trkpt>
      <trkpt lat="47.54946" lon="6.42938">
        <ele>275.381</ele>
        <time>2019-09-30T08:37:37Z</time>
      </trkpt>
      <trkpt lat="47.54945" lon="6.42952">
        <ele>275.149</ele>
        <time>2019-09-30T08:37:40Z</time>
      </trkpt>
      <trkpt lat="47.54942" lon="6.42965">
        <ele>275.344</ele>
        <time>2019-09-30T08:37:43Z</time>
      </trkpt>
      <trkpt lat="47.54937" lon="6.42975">
        <ele>275.692</ele>
        <time>2019-09-30T08:37:46Z</time>
      </trkpt>
      <trkpt lat="47.54937" lon="6.42988">
        <ele>275.987</ele>
        <time>2019-09-30T08:37:49Z</time>
      </trkpt>
      <trkpt lat="47.54944" lon="6.43001">
        <ele>276.629</ele>
        <time>2019-09-30T08:37:52Z</time>
      </trkpt>
      <trkpt lat="47.54951" lon="6.43014">
        <ele>277.894</ele>
        <time>2019-09-30T08:37:55Z</time>
      </trkpt>
      <trkpt lat="47.5496" lon="6.43026">
        <ele>278.08</ele>
        <time>2019-09-30T08:37:58Z</time>
      </trkpt>
      <trkpt lat="47.54969" lon="6.4304">
        <ele>277.08</ele>
        <time>2019-09-30T08:38:01Z</time>
      </trkpt>
      <trkpt lat="47.54977" lon="6.43053">
        <ele>277.345</ele>
        <time>2019-09-30T08:38:04Z</time>
      </trkpt>
      <trkpt lat="47.54983" lon="6.43065">
        <ele>277.81</ele>
        <time>2019-09-30T08:38:07Z</time>
      </trkpt>
      <trkpt lat="47.54987" lon="6.43078">
        <ele>278.639</ele>
        <time>2019-09-30T08:38:10Z</time>
      </trkpt>
      <trkpt lat="47.5499" lon="6.43091">
        <ele>279.512</ele>
        <time>2019-09-30T08:38:13Z</time>
      </trkpt>
      <trkpt lat="47.54992" lon="6.43105">
        <ele>280.004</ele>
        <time>2019-09-30T08:38:16Z</time>
      </trkpt>
      <trkpt lat="47.54995" lon="6.4312">
        <ele>279.889</ele>
        <time>2019-09-30T08:38:19Z</time>
      </trkpt>
      <trkpt lat="47.54998" lon="6.43135">
        <ele>279.418</ele>
        <time>2019-09-30T08:38:22Z</time>
      </trkpt>
      <trkpt lat="47.55" lon="6.43149">
        <ele>279.335</ele>
        <time>2019-09-30T08:38:25Z</time>
      </trkpt>
      <trkpt lat="47.55002" lon="6.43161">
        <ele>279.05</ele>
        <time>2019-09-30T08:38:28Z</time>
      </trkpt>
      <trkpt lat="47.55006" lon="6.43168">
        <ele>279.849</ele>
        <time>2019-09-30T08:38:31Z</time>
      </trkpt>
      <trkpt lat="47.55014" lon="6.43167">
        <ele>279.466</ele>
        <time>2019-09-30T08:38:34Z</time>
      </trkpt>
      <trkpt lat="47.55024" lon="6.43167">
        <ele>279.467</ele>
        <time>2019-09-30T08:38:37Z</time>
      </trkpt>
      <trkpt lat="47.55034" lon="6.43167">
        <ele>279.73</ele>
        <time>2019-09-30T08:38:40Z</time>
      </trkpt>
      <trkpt lat="47.55043" lon="6.43167">
        <ele>279.449</ele>
        <time>2019-09-30T08:38:43Z</time>
      </trkpt>
      <trkpt lat="47.5505" lon="6.43168">
        <ele>280.258</ele>
        <time>2019-09-30T08:38:46Z</time>
      </trkpt>
      <trkpt lat="47.55059" lon="6.4317">
        <ele>280.86</ele>
        <time>2019-09-30T08:38:49Z</time>
      </trkpt>
      <trkpt lat="47.55066" lon="6.4317">
        <ele>281.336</ele>
        <time>2019-09-30T08:38:52Z</time>
      </trkpt>
      <trkpt lat="47.55071" lon="6.43172">
        <ele>281.556</ele>
        <time>2019-09-30T08:38:55Z</time>
      </trkpt>
      <trkpt lat="47.55082" lon="6.4318">
        <ele>283.115</ele>
        <time>2019-09-30T08:39:01Z</time>
      </trkpt>
      <trkpt lat="47.55091" lon="6.43183">
        <ele>284.596</ele>
        <time>2019-09-30T08:39:04Z</time>
      </trkpt>
      <trkpt lat="47.55099" lon="6.43187">
        <ele>285.438</ele>
        <time>2019-09-30T08:39:07Z</time>
      </trkpt>
      <trkpt lat="47.55111" lon="6.43192">
        <ele>284.521</ele>
        <time>2019-09-30T08:39:10Z</time>
      </trkpt>
      <trkpt lat="47.55126" lon="6.43198">
        <ele>284.717</ele>
        <time>2019-09-30T08:39:13Z</time>
      </trkpt>
      <trkpt lat="47.55134" lon="6.43207">
        <ele>285.819</ele>
        <time>2019-09-30T08:39:16Z</time>
      </trkpt>
      <trkpt lat="47.55133" lon="6.43218">
        <ele>287.432</ele>
        <time>2019-09-30T08:39:19Z</time>
      </trkpt>
      <trkpt lat="47.55129" lon="6.4323">
        <ele>288.022</ele>
        <time>2019-09-30T08:39:22Z</time>
      </trkpt>
      <trkpt lat="47.55127" lon="6.4324">
        <ele>289.365</ele>
        <time>2019-09-30T08:39:25Z</time>
      </trkpt>
      <trkpt lat="47.55124" lon="6.43247">
        <ele>290.041</ele>
        <time>2019-09-30T08:39:28Z</time>
      </trkpt>
      <trkpt lat="47.55116" lon="6.43248">
        <ele>288.425</ele>
        <time>2019-09-30T08:39:31Z</time>
      </trkpt>
      <trkpt lat="47.55105" lon="6.43244">
        <ele>288.594</ele>
        <time>2019-09-30T08:39:34Z</time>
      </trkpt>
      <trkpt lat="47.55094" lon="6.43241">
        <ele>288.687</ele>
        <time>2019-09-30T08:39:37Z</time>
      </trkpt>
      <trkpt lat="47.55082" lon="6.4324">
        <ele>288.382</ele>
        <time>2019-09-30T08:39:40Z</time>
      </trkpt>
      <trkpt lat="47.5507" lon="6.43239">
        <ele>288.356</ele>
        <time>2019-09-30T08:39:43Z</time>
      </trkpt>
      <trkpt lat="47.55055" lon="6.43237">
        <ele>288.718</ele>
        <time>2019-09-30T08:39:46Z</time>
      </trkpt>
      <trkpt lat="47.55039" lon="6.43233">
        <ele>287.4</ele>
        <time>2019-09-30T08:39:49Z</time>
      </trkpt>
      <trkpt lat="47.55024" lon="6.4323">
        <ele>283.807</ele>
        <time>2019-09-30T08:39:52Z</time>
      </trkpt>
      <trkpt lat="47.55013" lon="6.4323">
        <ele>282.252</ele>
        <time>2019-09-30T08:39:55Z</time>
      </trkpt>
      <trkpt lat="47.55004" lon="6.4324">
        <ele>281.729</ele>
        <time>2019-09-30T08:39:58Z</time>
      </trkpt>
      <trkpt lat="47.55005" lon="6.43255">
        <ele>281.137</ele>
        <time>2019-09-30T08:40:01Z</time>
      </trkpt>
      <trkpt lat="47.55007" lon="6.43269">
        <ele>280.423</ele>
        <time>2019-09-30T08:40:04Z</time>
      </trkpt>
      <trkpt lat="47.55009" lon="6.43282">
        <ele>280.784</ele>
        <time>2019-09-30T08:40:07Z</time>
      </trkpt>
      <trkpt lat="47.55012" lon="6.43295">
        <ele>281.381</ele>
        <time>2019-09-30T08:40:10Z</time>
      </trkpt>
      <trkpt lat="47.55014" lon="6.43308">
        <ele>281.478</ele>
        <time>2019-09-30T08:40:13Z</time>
      </trkpt>
      <trkpt lat="47.55016" lon="6.4332">
        <ele>281.484</ele>
        <time>2019-09-30T08:40:16Z</time>
      </trkpt>
      <trkpt lat="47.55017" lon="6.43333">
        <ele>281.89</ele>
        <time>2019-09-30T08:40:19Z</time>
      </trkpt>
      <trkpt lat="47.55019" lon="6.43344">
        <ele>282.057</ele>
        <time>2019-09-30T08:40:22Z</time>
      </trkpt>
      <trkpt lat="47.5502" lon="6.43356">
        <ele>282.198</ele>
        <time>2019-09-30T08:40:25Z</time>
      </trkpt>
      <trkpt lat="47.55022" lon="6.43365">
        <ele>282.842</ele>
        <time>2019-09-30T08:40:28Z</time>
      </trkpt>
      <trkpt lat="47.55021" lon="6.43368">
        <ele>283.906</ele>
        <time>2019-09-30T08:40:31Z</time>
      </trkpt>
      <trkpt lat="47.55021" lon="6.43368">
        <ele>283.906</ele>
        <time>2019-09-30T08:40:34Z</time>
      </trkpt>
      <trkpt lat="47.55021" lon="6.43371">
        <ele>284.157</ele>
        <time>2019-09-30T08:40:37Z</time>
      </trkpt>
      <trkpt lat="47.55021" lon="6.4338">
        <ele>285.557</ele>
        <time>2019-09-30T08:40:40Z</time>
      </trkpt>
      <trkpt lat="47.55027" lon="6.43384">
        <ele>287.567</ele>
        <time>2019-09-30T08:40:43Z</time>
      </trkpt>
      <trkpt lat="47.55034" lon="6.43386">
        <ele>288.14</ele>
        <time>2019-09-30T08:40:46Z</time>
      </trkpt>
      <trkpt lat="47.55042" lon="6.43392">
        <ele>288.103</ele>
        <time>2019-09-30T08:40:49Z</time>
      </trkpt>
      <trkpt lat="47.55051" lon="6.43401">
        <ele>288.643</ele>
        <time>2019-09-30T08:40:52Z</time>
      </trkpt>
      <trkpt lat="47.5506" lon="6.4341">
        <ele>289.633</ele>
        <time>2019-09-30T08:40:55Z</time>
      </trkpt>
      <trkpt lat="47.55066" lon="6.4342">
        <ele>290.014</ele>
        <time>2019-09-30T08:40:58Z</time>
      </trkpt>
      <trkpt lat="47.55074" lon="6.43428">
        <ele>289.881</ele>
        <time>2019-09-30T08:41:01Z</time>
      </trkpt>
      <trkpt lat="47.55083" lon="6.43442">
        <ele>289.386</ele>
        <time>2019-09-30T08:41:04Z</time>
      </trkpt>
      <trkpt lat="47.55089" lon="6.43453">
        <ele>290.516</ele>
        <time>2019-09-30T08:41:07Z</time>
      </trkpt>
      <trkpt lat="47.55099" lon="6.43454">
        <ele>290.705</ele>
        <time>2019-09-30T08:41:10Z</time>
      </trkpt>
      <trkpt lat="47.55116" lon="6.43457">
        <ele>290.191</ele>
        <time>2019-09-30T08:41:13Z</time>
      </trkpt>
      <trkpt lat="47.55134" lon="6.43457">
        <ele>289.599</ele>
        <time>2019-09-30T08:41:16Z</time>
      </trkpt>
      <trkpt lat="47.55151" lon="6.43459">
        <ele>289.048</ele>
        <time>2019-09-30T08:41:19Z</time>
      </trkpt>
      <trkpt lat="47.55168" lon="6.43462">
        <ele>287.901</ele>
        <time>2019-09-30T08:41:22Z</time>
      </trkpt>
      <trkpt lat="47.55189" lon="6.43466">
        <ele>287.285</ele>
        <time>2019-09-30T08:41:25Z</time>
      </trkpt>
      <trkpt lat="47.55211" lon="6.43475">
        <ele>285.63</ele>
        <time>2019-09-30T08:41:28Z</time>
      </trkpt>
      <trkpt lat="47.55232" lon="6.43482">
        <ele>283.411</ele>
        <time>2019-09-30T08:41:31Z</time>
      </trkpt>
      <trkpt lat="47.55251" lon="6.4349">
        <ele>282.176</ele>
        <time>2019-09-30T08:41:34Z</time>
      </trkpt>
      <trkpt lat="47.55272" lon="6.43502">
        <ele>280.947</ele>
        <time>2019-09-30T08:41:37Z</time>
      </trkpt>
      <trkpt lat="47.55292" lon="6.43511">
        <ele>279.823</ele>
        <time>2019-09-30T08:41:40Z</time>
      </trkpt>
      <trkpt lat="47.55313" lon="6.43509">
        <ele>277.886</ele>
        <time>2019-09-30T08:41:43Z</time>
      </trkpt>
      <trkpt lat="47.55332" lon="6.43506">
        <ele>276.586</ele>
        <time>2019-09-30T08:41:46Z</time>
      </trkpt>
      <trkpt lat="47.55348" lon="6.43504">
        <ele>276.236</ele>
        <time>2019-09-30T08:41:49Z</time>
      </trkpt>
      <trkpt lat="47.55362" lon="6.43503">
        <ele>275.274</ele>
        <time>2019-09-30T08:41:52Z</time>
      </trkpt>
      <trkpt lat="47.55376" lon="6.43503">
        <ele>274.123</ele>
        <time>2019-09-30T08:41:55Z</time>
      </trkpt>
      <trkpt lat="47.5539" lon="6.43504">
        <ele>273.022</ele>
        <time>2019-09-30T08:41:58Z</time>
      </trkpt>
      <trkpt lat="47.55405" lon="6.43504">
        <ele>271.159</ele>
        <time>2019-09-30T08:42:01Z</time>
      </trkpt>
      <trkpt lat="47.55419" lon="6.43504">
        <ele>269.502</ele>
        <time>2019-09-30T08:42:04Z</time>
      </trkpt>
      <trkpt lat="47.55434" lon="6.43503">
        <ele>268.604</ele>
        <time>2019-09-30T08:42:07Z</time>
      </trkpt>
      <trkpt lat="47.55449" lon="6.43504">
        <ele>268.437</ele>
        <time>2019-09-30T08:42:10Z</time>
      </trkpt>
      <trkpt lat="47.55463" lon="6.43503">
        <ele>268.111</ele>
        <time>2019-09-30T08:42:13Z</time>
      </trkpt>
      <trkpt lat="47.55478" lon="6.43504">
        <ele>267.6</ele>
        <time>2019-09-30T08:42:16Z</time>
      </trkpt>
      <trkpt lat="47.55493" lon="6.43506">
        <ele>266.979</ele>
        <time>2019-09-30T08:42:19Z</time>
      </trkpt>
      <trkpt lat="47.55508" lon="6.43505">
        <ele>266.479</ele>
        <time>2019-09-30T08:42:22Z</time>
      </trkpt>
      <trkpt lat="47.55523" lon="6.43506">
        <ele>265.958</ele>
        <time>2019-09-30T08:42:25Z</time>
      </trkpt>
      <trkpt lat="47.55538" lon="6.43504">
        <ele>264.991</ele>
        <time>2019-09-30T08:42:28Z</time>
      </trkpt>
      <trkpt lat="47.55555" lon="6.43503">
        <ele>264.007</ele>
        <time>2019-09-30T08:42:31Z</time>
      </trkpt>
      <trkpt lat="47.55572" lon="6.43503">
        <ele>263.34</ele>
        <time>2019-09-30T08:42:34Z</time>
      </trkpt>
      <trkpt lat="47.55589" lon="6.43499">
        <ele>263.333</ele>
        <time>2019-09-30T08:42:37Z</time>
      </trkpt>
      <trkpt lat="47.55604" lon="6.43489">
        <ele>263.2</ele>
        <time>2019-09-30T08:42:40Z</time>
      </trkpt>
      <trkpt lat="47.55614" lon="6.43468">
        <ele>263.394</ele>
        <time>2019-09-30T08:42:43Z</time>
      </trkpt>
      <trkpt lat="47.55619" lon="6.43445">
        <ele>262.715</ele>
        <time>2019-09-30T08:42:46Z</time>
      </trkpt>
      <trkpt lat="47.55623" lon="6.43422">
        <ele>262.702</ele>
        <time>2019-09-30T08:42:49Z</time>
      </trkpt>
      <trkpt lat="47.55628" lon="6.43401">
        <ele>263.075</ele>
        <time>2019-09-30T08:42:52Z</time>
      </trkpt>
      <trkpt lat="47.55631" lon="6.43379">
        <ele>263.57</ele>
        <time>2019-09-30T08:42:55Z</time>
      </trkpt>
      <trkpt lat="47.55633" lon="6.43357">
        <ele>264.117</ele>
        <time>2019-09-30T08:42:58Z</time>
      </trkpt>
      <trkpt lat="47.55636" lon="6.43335">
        <ele>264.485</ele>
        <time>2019-09-30T08:43:01Z</time>
      </trkpt>
      <trkpt lat="47.5564" lon="6.43313">
        <ele>265.562</ele>
        <time>2019-09-30T08:43:04Z</time>
      </trkpt>
      <trkpt lat="47.55643" lon="6.43292">
        <ele>266.442</ele>
        <time>2019-09-30T08:43:07Z</time>
      </trkpt>
      <trkpt lat="47.55648" lon="6.43273">
        <ele>267.838</ele>
        <time>2019-09-30T08:43:10Z</time>
      </trkpt>
      <trkpt lat="47.5565" lon="6.43257">
        <ele>268.831</ele>
        <time>2019-09-30T08:43:13Z</time>
      </trkpt>
      <trkpt lat="47.55653" lon="6.43241">
        <ele>269.155</ele>
        <time>2019-09-30T08:43:16Z</time>
      </trkpt>
      <trkpt lat="47.55655" lon="6.43227">
        <ele>269.353</ele>
        <time>2019-09-30T08:43:19Z</time>
      </trkpt>
      <trkpt lat="47.55657" lon="6.43214">
        <ele>269.71</ele>
        <time>2019-09-30T08:43:22Z</time>
      </trkpt>
      <trkpt lat="47.55654" lon="6.43202">
        <ele>270.079</ele>
        <time>2019-09-30T08:43:25Z</time>
      </trkpt>
      <trkpt lat="47.55648" lon="6.43192">
        <ele>270.66</ele>
        <time>2019-09-30T08:43:28Z</time>
      </trkpt>
      <trkpt lat="47.55645" lon="6.43183">
        <ele>271.395</ele>
        <time>2019-09-30T08:43:31Z</time>
      </trkpt>
      <trkpt lat="47.55642" lon="6.43171">
        <ele>271.591</ele>
        <time>2019-09-30T08:43:34Z</time>
      </trkpt>
      <trkpt lat="47.55634" lon="6.43157">
        <ele>270.265</ele>
        <time>2019-09-30T08:43:37Z</time>
      </trkpt>
      <trkpt lat="47.55625" lon="6.43141">
        <ele>270.313</ele>
        <time>2019-09-30T08:43:40Z</time>
      </trkpt>
      <trkpt lat="47.55614" lon="6.43125">
        <ele>270.209</ele>
        <time>2019-09-30T08:43:43Z</time>
      </trkpt>
      <trkpt lat="47.55603" lon="6.43108">
        <ele>269.37</ele>
        <time>2019-09-30T08:43:46Z</time>
      </trkpt>
      <trkpt lat="47.55595" lon="6.43091">
        <ele>268.615</ele>
        <time>2019-09-30T08:43:49Z</time>
      </trkpt>
      <trkpt lat="47.55588" lon="6.43074">
        <ele>268.661</ele>
        <time>2019-09-30T08:43:52Z</time>
      </trkpt>
      <trkpt lat="47.55581" lon="6.43056">
        <ele>268.94</ele>
        <time>2019-09-30T08:43:55Z</time>
      </trkpt>
      <trkpt lat="47.55575" lon="6.43037">
        <ele>269.463</ele>
        <time>2019-09-30T08:43:58Z</time>
      </trkpt>
      <trkpt lat="47.5557" lon="6.43021">
        <ele>269.574</ele>
        <time>2019-09-30T08:44:01Z</time>
      </trkpt>
      <trkpt lat="47.55565" lon="6.43005">
        <ele>269.741</ele>
        <time>2019-09-30T08:44:04Z</time>
      </trkpt>
      <trkpt lat="47.55561" lon="6.42987">
        <ele>269.671</ele>
        <time>2019-09-30T08:44:07Z</time>
      </trkpt>
      <trkpt lat="47.55558" lon="6.4297">
        <ele>269.55</ele>
        <time>2019-09-30T08:44:10Z</time>
      </trkpt>
      <trkpt lat="47.55554" lon="6.42951">
        <ele>269.467</ele>
        <time>2019-09-30T08:44:13Z</time>
      </trkpt>
      <trkpt lat="47.5555" lon="6.42932">
        <ele>269.436</ele>
        <time>2019-09-30T08:44:16Z</time>
      </trkpt>
      <trkpt lat="47.55547" lon="6.42912">
        <ele>268.977</ele>
        <time>2019-09-30T08:44:19Z</time>
      </trkpt>
      <trkpt lat="47.55543" lon="6.42892">
        <ele>268.721</ele>
        <time>2019-09-30T08:44:22Z</time>
      </trkpt>
      <trkpt lat="47.55538" lon="6.42868">
        <ele>268.48</ele>
        <time>2019-09-30T08:44:25Z</time>
      </trkpt>
      <trkpt lat="47.55536" lon="6.42845">
        <ele>268.109</ele>
        <time>2019-09-30T08:44:28Z</time>
      </trkpt>
      <trkpt lat="47.55533" lon="6.42824">
        <ele>268.186</ele>
        <time>2019-09-30T08:44:31Z</time>
      </trkpt>
      <trkpt lat="47.55533" lon="6.42804">
        <ele>268.119</ele>
        <time>2019-09-30T08:44:34Z</time>
      </trkpt>
      <trkpt lat="47.55532" lon="6.42784">
        <ele>268.16</ele>
        <time>2019-09-30T08:44:37Z</time>
      </trkpt>
      <trkpt lat="47.55531" lon="6.42759">
        <ele>268.025</ele>
        <time>2019-09-30T08:44:40Z</time>
      </trkpt>
      <trkpt lat="47.55529" lon="6.4273">
        <ele>267.607</ele>
        <time>2019-09-30T08:44:43Z</time>
      </trkpt>
      <trkpt lat="47.55527" lon="6.42707">
        <ele>267.26</ele>
        <time>2019-09-30T08:44:46Z</time>
      </trkpt>
      <trkpt lat="47.55526" lon="6.42688">
        <ele>267.161</ele>
        <time>2019-09-30T08:44:49Z</time>
      </trkpt>
      <trkpt lat="47.55526" lon="6.42664">
        <ele>267.317</ele>
        <time>2019-09-30T08:44:52Z</time>
      </trkpt>
      <trkpt lat="47.55524" lon="6.42638">
        <ele>267.149</ele>
        <time>2019-09-30T08:44:55Z</time>
      </trkpt>
      <trkpt lat="47.55524" lon="6.42611">
        <ele>267.028</ele>
        <time>2019-09-30T08:44:58Z</time>
      </trkpt>
      <trkpt lat="47.55522" lon="6.42579">
        <ele>266.473</ele>
        <time>2019-09-30T08:45:01Z</time>
      </trkpt>
      <trkpt lat="47.55519" lon="6.42552">
        <ele>266.799</ele>
        <time>2019-09-30T08:45:04Z</time>
      </trkpt>
      <trkpt lat="47.55517" lon="6.42525">
        <ele>266.829</ele>
        <time>2019-09-30T08:45:07Z</time>
      </trkpt>
      <trkpt lat="47.55516" lon="6.42499">
        <ele>266.459</ele>
        <time>2019-09-30T08:45:10Z</time>
      </trkpt>
      <trkpt lat="47.55516" lon="6.42474">
        <ele>266.5</ele>
        <time>2019-09-30T08:45:13Z</time>
      </trkpt>
      <trkpt lat="47.55514" lon="6.42448">
        <ele>266.015</ele>
        <time>2019-09-30T08:45:16Z</time>
      </trkpt>
      <trkpt lat="47.55513" lon="6.42424">
        <ele>266.016</ele>
        <time>2019-09-30T08:45:19Z</time>
      </trkpt>
      <trkpt lat="47.55513" lon="6.424">
        <ele>265.803</ele>
        <time>2019-09-30T08:45:22Z</time>
      </trkpt>
      <trkpt lat="47.55511" lon="6.42376">
        <ele>265.779</ele>
        <time>2019-09-30T08:45:25Z</time>
      </trkpt>
      <trkpt lat="47.5551" lon="6.42352">
        <ele>265.544</ele>
        <time>2019-09-30T08:45:28Z</time>
      </trkpt>
      <trkpt lat="47.55508" lon="6.42329">
        <ele>265.847</ele>
        <time>2019-09-30T08:45:31Z</time>
      </trkpt>
      <trkpt lat="47.55506" lon="6.42304">
        <ele>265.542</ele>
        <time>2019-09-30T08:45:34Z</time>
      </trkpt>
      <trkpt lat="47.55505" lon="6.42279">
        <ele>265.616</ele>
        <time>2019-09-30T08:45:37Z</time>
      </trkpt>
      <trkpt lat="47.55503" lon="6.42256">
        <ele>264.6</ele>
        <time>2019-09-30T08:45:40Z</time>
      </trkpt>
      <trkpt lat="47.55501" lon="6.42233">
        <ele>264</ele>
        <time>2019-09-30T08:45:43Z</time>
      </trkpt>
      <trkpt lat="47.555" lon="6.4221">
        <ele>263.535</ele>
        <time>2019-09-30T08:45:46Z</time>
      </trkpt>
      <trkpt lat="47.55499" lon="6.42188">
        <ele>263.717</ele>
        <time>2019-09-30T08:45:49Z</time>
      </trkpt>
      <trkpt lat="47.55498" lon="6.42166">
        <ele>263.837</ele>
        <time>2019-09-30T08:45:52Z</time>
      </trkpt>
      <trkpt lat="47.55496" lon="6.42144">
        <ele>263.89</ele>
        <time>2019-09-30T08:45:55Z</time>
      </trkpt>
      <trkpt lat="47.55495" lon="6.42121">
        <ele>264.118</ele>
        <time>2019-09-30T08:45:58Z</time>
      </trkpt>
      <trkpt lat="47.55494" lon="6.42097">
        <ele>263.837</ele>
        <time>2019-09-30T08:46:01Z</time>
      </trkpt>
      <trkpt lat="47.55493" lon="6.42076">
        <ele>263.855</ele>
        <time>2019-09-30T08:46:04Z</time>
      </trkpt>
      <trkpt lat="47.55492" lon="6.42053">
        <ele>264.056</ele>
        <time>2019-09-30T08:46:07Z</time>
      </trkpt>
      <trkpt lat="47.55491" lon="6.4203">
        <ele>263.78</ele>
        <time>2019-09-30T08:46:10Z</time>
      </trkpt>
      <trkpt lat="47.55489" lon="6.42007">
        <ele>263.858</ele>
        <time>2019-09-30T08:46:13Z</time>
      </trkpt>
      <trkpt lat="47.55488" lon="6.41986">
        <ele>263.928</ele>
        <time>2019-09-30T08:46:16Z</time>
      </trkpt>
      <trkpt lat="47.55486" lon="6.41963">
        <ele>263.736</ele>
        <time>2019-09-30T08:46:19Z</time>
      </trkpt>
      <trkpt lat="47.55485" lon="6.41941">
        <ele>263.713</ele>
        <time>2019-09-30T08:46:22Z</time>
      </trkpt>
      <trkpt lat="47.55484" lon="6.41919">
        <ele>263.837</ele>
        <time>2019-09-30T08:46:25Z</time>
      </trkpt>
      <trkpt lat="47.55483" lon="6.419">
        <ele>264.787</ele>
        <time>2019-09-30T08:46:28Z</time>
      </trkpt>
      <trkpt lat="47.55483" lon="6.41878">
        <ele>265.186</ele>
        <time>2019-09-30T08:46:31Z</time>
      </trkpt>
      <trkpt lat="47.55483" lon="6.41856">
        <ele>265.595</ele>
        <time>2019-09-30T08:46:34Z</time>
      </trkpt>
      <trkpt lat="47.55482" lon="6.41835">
        <ele>265.228</ele>
        <time>2019-09-30T08:46:37Z</time>
      </trkpt>
      <trkpt lat="47.55481" lon="6.41818">
        <ele>265.747</ele>
        <time>2019-09-30T08:46:40Z</time>
      </trkpt>
      <trkpt lat="47.55478" lon="6.41807">
        <ele>264.922</ele>
        <time>2019-09-30T08:46:43Z</time>
      </trkpt>
      <trkpt lat="47.55478" lon="6.418">
        <ele>264.712</ele>
        <time>2019-09-30T08:46:46Z</time>
      </trkpt>
      <trkpt lat="47.55478" lon="6.41796">
        <ele>264.401</ele>
        <time>2019-09-30T08:46:49Z</time>
      </trkpt>
      <trkpt lat="47.55478" lon="6.41796">
        <ele>264.581</ele>
        <time>2019-09-30T08:47:04Z</time>
      </trkpt>
      <trkpt lat="47.55477" lon="6.41794">
        <ele>264.699</ele>
        <time>2019-09-30T08:47:07Z</time>
      </trkpt>
      <trkpt lat="47.55477" lon="6.41784">
        <ele>264.417</ele>
        <time>2019-09-30T08:47:10Z</time>
      </trkpt>
      <trkpt lat="47.55477" lon="6.41773">
        <ele>265.506</ele>
        <time>2019-09-30T08:47:13Z</time>
      </trkpt>
      <trkpt lat="47.55476" lon="6.41757">
        <ele>265.405</ele>
        <time>2019-09-30T08:47:16Z</time>
      </trkpt>
      <trkpt lat="47.55475" lon="6.41739">
        <ele>265.513</ele>
        <time>2019-09-30T08:47:19Z</time>
      </trkpt>
      <trkpt lat="47.55474" lon="6.41722">
        <ele>265.354</ele>
        <time>2019-09-30T08:47:22Z</time>
      </trkpt>
      <trkpt lat="47.55474" lon="6.41706">
        <ele>265.497</ele>
        <time>2019-09-30T08:47:25Z</time>
      </trkpt>
      <trkpt lat="47.55473" lon="6.41688">
        <ele>265.762</ele>
        <time>2019-09-30T08:47:28Z</time>
      </trkpt>
      <trkpt lat="47.55472" lon="6.41669">
        <ele>266.17</ele>
        <time>2019-09-30T08:47:31Z</time>
      </trkpt>
      <trkpt lat="47.55469" lon="6.41647">
        <ele>266.061</ele>
        <time>2019-09-30T08:47:34Z</time>
      </trkpt>
      <trkpt lat="47.55462" lon="6.41615">
        <ele>266.058</ele>
        <time>2019-09-30T08:47:37Z</time>
      </trkpt>
      <trkpt lat="47.55444" lon="6.41583">
        <ele>265.787</ele>
        <time>2019-09-30T08:47:40Z</time>
      </trkpt>
      <trkpt lat="47.55425" lon="6.41562">
        <ele>265.64</ele>
        <time>2019-09-30T08:47:43Z</time>
      </trkpt>
      <trkpt lat="47.5541" lon="6.41544">
        <ele>264.726</ele>
        <time>2019-09-30T08:47:46Z</time>
      </trkpt>
      <trkpt lat="47.55395" lon="6.4153">
        <ele>263.697</ele>
        <time>2019-09-30T08:47:49Z</time>
      </trkpt>
      <trkpt lat="47.55382" lon="6.41514">
        <ele>262.946</ele>
        <time>2019-09-30T08:47:52Z</time>
      </trkpt>
      <trkpt lat="47.55368" lon="6.41501">
        <ele>262.001</ele>
        <time>2019-09-30T08:47:55Z</time>
      </trkpt>
      <trkpt lat="47.55354" lon="6.4149">
        <ele>261.074</ele>
        <time>2019-09-30T08:47:58Z</time>
      </trkpt>
      <trkpt lat="47.55339" lon="6.41481">
        <ele>260.711</ele>
        <time>2019-09-30T08:48:01Z</time>
      </trkpt>
      <trkpt lat="47.55336" lon="6.41463">
        <ele>259.433</ele>
        <time>2019-09-30T08:48:04Z</time>
      </trkpt>
      <trkpt lat="47.55345" lon="6.41443">
        <ele>258.812</ele>
        <time>2019-09-30T08:48:07Z</time>
      </trkpt>
      <trkpt lat="47.55357" lon="6.41422">
        <ele>259.128</ele>
        <time>2019-09-30T08:48:10Z</time>
      </trkpt>
      <trkpt lat="47.55371" lon="6.41423">
        <ele>259.797</ele>
        <time>2019-09-30T08:48:13Z</time>
      </trkpt>
      <trkpt lat="47.5538" lon="6.41436">
        <ele>261.412</ele>
        <time>2019-09-30T08:48:16Z</time>
      </trkpt>
      <trkpt lat="47.5539" lon="6.41442">
        <ele>261.169</ele>
        <time>2019-09-30T08:48:19Z</time>
      </trkpt>
      <trkpt lat="47.55399" lon="6.41445">
        <ele>260.056</ele>
        <time>2019-09-30T08:48:22Z</time>
      </trkpt>
      <trkpt lat="47.55405" lon="6.41442">
        <ele>260.211</ele>
        <time>2019-09-30T08:48:25Z</time>
      </trkpt>
      <trkpt lat="47.55404" lon="6.41432">
        <ele>260.395</ele>
        <time>2019-09-30T08:48:28Z</time>
      </trkpt>
      <trkpt lat="47.55399" lon="6.4142">
        <ele>260.644</ele>
        <time>2019-09-30T08:48:31Z</time>
      </trkpt>
      <trkpt lat="47.55393" lon="6.41404">
        <ele>260.803</ele>
        <time>2019-09-30T08:48:34Z</time>
      </trkpt>
      <trkpt lat="47.55386" lon="6.41389">
        <ele>261.175</ele>
        <time>2019-09-30T08:48:37Z</time>
      </trkpt>
      <trkpt lat="47.5538" lon="6.41375">
        <ele>261.643</ele>
        <time>2019-09-30T08:48:40Z</time>
      </trkpt>
      <trkpt lat="47.55374" lon="6.4136">
        <ele>262.968</ele>
        <time>2019-09-30T08:48:43Z</time>
      </trkpt>
      <trkpt lat="47.55367" lon="6.41346">
        <ele>264.044</ele>
        <time>2019-09-30T08:48:46Z</time>
      </trkpt>
      <trkpt lat="47.55356" lon="6.4133">
        <ele>265.011</ele>
        <time>2019-09-30T08:48:49Z</time>
      </trkpt>
      <trkpt lat="47.55345" lon="6.41314">
        <ele>266.217</ele>
        <time>2019-09-30T08:48:52Z</time>
      </trkpt>
      <trkpt lat="47.55337" lon="6.41299">
        <ele>267.178</ele>
        <time>2019-09-30T08:48:55Z</time>
      </trkpt>
      <trkpt lat="47.55328" lon="6.41282">
        <ele>268.321</ele>
        <time>2019-09-30T08:48:58Z</time>
      </trkpt>
      <trkpt lat="47.55318" lon="6.41266">
        <ele>269.624</ele>
        <time>2019-09-30T08:49:01Z</time>
      </trkpt>
      <trkpt lat="47.55304" lon="6.41248">
        <ele>270.823</ele>
        <time>2019-09-30T08:49:04Z</time>
      </trkpt>
      <trkpt lat="47.55293" lon="6.4123">
        <ele>271.549</ele>
        <time>2019-09-30T08:49:07Z</time>
      </trkpt>
      <trkpt lat="47.55278" lon="6.41212">
        <ele>271.452</ele>
        <time>2019-09-30T08:49:10Z</time>
      </trkpt>
      <trkpt lat="47.5526" lon="6.41192">
        <ele>271.296</ele>
        <time>2019-09-30T08:49:13Z</time>
      </trkpt>
      <trkpt lat="47.55245" lon="6.41173">
        <ele>270.937</ele>
        <time>2019-09-30T08:49:16Z</time>
      </trkpt>
      <trkpt lat="47.55229" lon="6.41154">
        <ele>270.179</ele>
        <time>2019-09-30T08:49:19Z</time>
      </trkpt>
      <trkpt lat="47.55215" lon="6.41137">
        <ele>269.505</ele>
        <time>2019-09-30T08:49:22Z</time>
      </trkpt>
      <trkpt lat="47.55202" lon="6.41121">
        <ele>268.906</ele>
        <time>2019-09-30T08:49:25Z</time>
      </trkpt>
      <trkpt lat="47.55189" lon="6.41106">
        <ele>268.263</ele>
        <time>2019-09-30T08:49:28Z</time>
      </trkpt>
      <trkpt lat="47.55176" lon="6.41093">
        <ele>267.806</ele>
        <time>2019-09-30T08:49:31Z</time>
      </trkpt>
      <trkpt lat="47.55162" lon="6.41079">
        <ele>266.967</ele>
        <time>2019-09-30T08:49:34Z</time>
      </trkpt>
      <trkpt lat="47.55149" lon="6.41066">
        <ele>266.19</ele>
        <time>2019-09-30T08:49:37Z</time>
      </trkpt>
      <trkpt lat="47.55137" lon="6.41054">
        <ele>264.58</ele>
        <time>2019-09-30T08:49:40Z</time>
      </trkpt>
      <trkpt lat="47.55126" lon="6.41044">
        <ele>263.509</ele>
        <time>2019-09-30T08:49:43Z</time>
      </trkpt>
      <trkpt lat="47.55115" lon="6.41032">
        <ele>262.671</ele>
        <time>2019-09-30T08:49:46Z</time>
      </trkpt>
      <trkpt lat="47.55103" lon="6.41021">
        <ele>262.686</ele>
        <time>2019-09-30T08:49:49Z</time>
      </trkpt>
      <trkpt lat="47.5509" lon="6.4101">
        <ele>262.49</ele>
        <time>2019-09-30T08:49:52Z</time>
      </trkpt>
      <trkpt lat="47.55075" lon="6.40999">
        <ele>262.852</ele>
        <time>2019-09-30T08:49:55Z</time>
      </trkpt>
      <trkpt lat="47.5506" lon="6.40989">
        <ele>262.895</ele>
        <time>2019-09-30T08:49:58Z</time>
      </trkpt>
      <trkpt lat="47.55046" lon="6.4098">
        <ele>262.208</ele>
        <time>2019-09-30T08:50:01Z</time>
      </trkpt>
      <trkpt lat="47.55032" lon="6.4097">
        <ele>262.122</ele>
        <time>2019-09-30T08:50:04Z</time>
      </trkpt>
      <trkpt lat="47.55018" lon="6.40962">
        <ele>261.628</ele>
        <time>2019-09-30T08:50:07Z</time>
      </trkpt>
      <trkpt lat="47.55005" lon="6.40954">
        <ele>260.789</ele>
        <time>2019-09-30T08:50:10Z</time>
      </trkpt>
      <trkpt lat="47.54991" lon="6.40945">
        <ele>260.983</ele>
        <time>2019-09-30T08:50:13Z</time>
      </trkpt>
      <trkpt lat="47.54977" lon="6.40935">
        <ele>261.712</ele>
        <time>2019-09-30T08:50:16Z</time>
      </trkpt>
      <trkpt lat="47.54962" lon="6.40926">
        <ele>262.479</ele>
        <time>2019-09-30T08:50:19Z</time>
      </trkpt>
      <trkpt lat="47.54949" lon="6.40916">
        <ele>262.954</ele>
        <time>2019-09-30T08:50:22Z</time>
      </trkpt>
      <trkpt lat="47.54935" lon="6.40907">
        <ele>263.617</ele>
        <time>2019-09-30T08:50:25Z</time>
      </trkpt>
      <trkpt lat="47.5492" lon="6.40899">
        <ele>264.148</ele>
        <time>2019-09-30T08:50:28Z</time>
      </trkpt>
      <trkpt lat="47.54904" lon="6.40891">
        <ele>264.301</ele>
        <time>2019-09-30T08:50:31Z</time>
      </trkpt>
      <trkpt lat="47.54887" lon="6.40883">
        <ele>264.842</ele>
        <time>2019-09-30T08:50:34Z</time>
      </trkpt>
      <trkpt lat="47.5487" lon="6.40876">
        <ele>265.35</ele>
        <time>2019-09-30T08:50:37Z</time>
      </trkpt>
      <trkpt lat="47.54853" lon="6.4087">
        <ele>265.539</ele>
        <time>2019-09-30T08:50:40Z</time>
      </trkpt>
      <trkpt lat="47.54839" lon="6.40865">
        <ele>266.031</ele>
        <time>2019-09-30T08:50:43Z</time>
      </trkpt>
      <trkpt lat="47.54823" lon="6.40861">
        <ele>266.194</ele>
        <time>2019-09-30T08:50:46Z</time>
      </trkpt>
      <trkpt lat="47.54808" lon="6.40858">
        <ele>267.047</ele>
        <time>2019-09-30T08:50:49Z</time>
      </trkpt>
      <trkpt lat="47.54794" lon="6.40856">
        <ele>268.053</ele>
        <time>2019-09-30T08:50:52Z</time>
      </trkpt>
      <trkpt lat="47.54777" lon="6.40855">
        <ele>268.322</ele>
        <time>2019-09-30T08:50:55Z</time>
      </trkpt>
      <trkpt lat="47.5476" lon="6.40854">
        <ele>268.562</ele>
        <time>2019-09-30T08:50:58Z</time>
      </trkpt>
      <trkpt lat="47.54742" lon="6.40854">
        <ele>269.119</ele>
        <time>2019-09-30T08:51:01Z</time>
      </trkpt>
      <trkpt lat="47.54724" lon="6.40855">
        <ele>268.851</ele>
        <time>2019-09-30T08:51:04Z</time>
      </trkpt>
      <trkpt lat="47.54706" lon="6.40855">
        <ele>268.876</ele>
        <time>2019-09-30T08:51:07Z</time>
      </trkpt>
      <trkpt lat="47.54693" lon="6.40854">
        <ele>268.816</ele>
        <time>2019-09-30T08:51:10Z</time>
      </trkpt>
      <trkpt lat="47.54675" lon="6.40854">
        <ele>268.046</ele>
        <time>2019-09-30T08:51:13Z</time>
      </trkpt>
      <trkpt lat="47.5466" lon="6.40853">
        <ele>268.218</ele>
        <time>2019-09-30T08:51:16Z</time>
      </trkpt>
      <trkpt lat="47.54647" lon="6.40853">
        <ele>268.277</ele>
        <time>2019-09-30T08:51:19Z</time>
      </trkpt>
      <trkpt lat="47.54634" lon="6.40851">
        <ele>268.39</ele>
        <time>2019-09-30T08:51:22Z</time>
      </trkpt>
      <trkpt lat="47.5462" lon="6.40849">
        <ele>268.709</ele>
        <time>2019-09-30T08:51:25Z</time>
      </trkpt>
      <trkpt lat="47.54606" lon="6.40848">
        <ele>270.293</ele>
        <time>2019-09-30T08:51:28Z</time>
      </trkpt>
      <trkpt lat="47.54593" lon="6.40847">
        <ele>271.519</ele>
        <time>2019-09-30T08:51:31Z</time>
      </trkpt>
      <trkpt lat="47.54581" lon="6.40844">
        <ele>272.467</ele>
        <time>2019-09-30T08:51:34Z</time>
      </trkpt>
      <trkpt lat="47.54569" lon="6.40843">
        <ele>273.124</ele>
        <time>2019-09-30T08:51:37Z</time>
      </trkpt>
      <trkpt lat="47.54557" lon="6.40838">
        <ele>273.471</ele>
        <time>2019-09-30T08:51:40Z</time>
      </trkpt>
      <trkpt lat="47.54544" lon="6.40834">
        <ele>273.82</ele>
        <time>2019-09-30T08:51:43Z</time>
      </trkpt>
      <trkpt lat="47.5453" lon="6.40829">
        <ele>274.942</ele>
        <time>2019-09-30T08:51:46Z</time>
      </trkpt>
      <trkpt lat="47.54517" lon="6.40824">
        <ele>276.114</ele>
        <time>2019-09-30T08:51:49Z</time>
      </trkpt>
      <trkpt lat="47.54503" lon="6.40818">
        <ele>276.617</ele>
        <time>2019-09-30T08:51:52Z</time>
      </trkpt>
      <trkpt lat="47.54492" lon="6.40812">
        <ele>277.616</ele>
        <time>2019-09-30T08:51:55Z</time>
      </trkpt>
      <trkpt lat="47.54479" lon="6.40804">
        <ele>278.462</ele>
        <time>2019-09-30T08:51:58Z</time>
      </trkpt>
      <trkpt lat="47.54464" lon="6.40796">
        <ele>278.976</ele>
        <time>2019-09-30T08:52:01Z</time>
      </trkpt>
      <trkpt lat="47.54452" lon="6.40789">
        <ele>279.344</ele>
        <time>2019-09-30T08:52:04Z</time>
      </trkpt>
      <trkpt lat="47.5444" lon="6.40782">
        <ele>278.919</ele>
        <time>2019-09-30T08:52:07Z</time>
      </trkpt>
      <trkpt lat="47.54426" lon="6.40773">
        <ele>277.831</ele>
        <time>2019-09-30T08:52:10Z</time>
      </trkpt>
      <trkpt lat="47.54415" lon="6.40767">
        <ele>277.675</ele>
        <time>2019-09-30T08:52:13Z</time>
      </trkpt>
      <trkpt lat="47.54407" lon="6.40762">
        <ele>277.976</ele>
        <time>2019-09-30T08:52:16Z</time>
      </trkpt>
      <trkpt lat="47.54396" lon="6.40756">
        <ele>278.016</ele>
        <time>2019-09-30T08:52:19Z</time>
      </trkpt>
      <trkpt lat="47.54383" lon="6.40749">
        <ele>277.997</ele>
        <time>2019-09-30T08:52:22Z</time>
      </trkpt>
      <trkpt lat="47.5437" lon="6.4074">
        <ele>278.071</ele>
        <time>2019-09-30T08:52:25Z</time>
      </trkpt>
      <trkpt lat="47.5436" lon="6.40731">
        <ele>278.154</ele>
        <time>2019-09-30T08:52:28Z</time>
      </trkpt>
      <trkpt lat="47.54346" lon="6.40721">
        <ele>278.717</ele>
        <time>2019-09-30T08:52:31Z</time>
      </trkpt>
      <trkpt lat="47.54333" lon="6.40712">
        <ele>279.041</ele>
        <time>2019-09-30T08:52:34Z</time>
      </trkpt>
      <trkpt lat="47.54322" lon="6.40704">
        <ele>279.121</ele>
        <time>2019-09-30T08:52:37Z</time>
      </trkpt>
      <trkpt lat="47.54311" lon="6.40695">
        <ele>278.912</ele>
        <time>2019-09-30T08:52:40Z</time>
      </trkpt>
      <trkpt lat="47.54302" lon="6.40687">
        <ele>279.083</ele>
        <time>2019-09-30T08:52:43Z</time>
      </trkpt>
      <trkpt lat="47.5429" lon="6.40677">
        <ele>279.172</ele>
        <time>2019-09-30T08:52:46Z</time>
      </trkpt>
      <trkpt lat="47.54281" lon="6.40668">
        <ele>279.907</ele>
        <time>2019-09-30T08:52:49Z</time>
      </trkpt>
      <trkpt lat="47.54271" lon="6.4066">
        <ele>280.5</ele>
        <time>2019-09-30T08:52:52Z</time>
      </trkpt>
      <trkpt lat="47.54261" lon="6.4065">
        <ele>280.493</ele>
        <time>2019-09-30T08:52:55Z</time>
      </trkpt>
      <trkpt lat="47.54249" lon="6.40639">
        <ele>280.776</ele>
        <time>2019-09-30T08:52:58.001Z</time>
      </trkpt>
      <trkpt lat="47.54237" lon="6.40629">
        <ele>281.724</ele>
        <time>2019-09-30T08:53:01Z</time>
      </trkpt>
      <trkpt lat="47.54227" lon="6.40618">
        <ele>282.548</ele>
        <time>2019-09-30T08:53:04Z</time>
      </trkpt>
      <trkpt lat="47.54217" lon="6.40607">
        <ele>283.265</ele>
        <time>2019-09-30T08:53:07Z</time>
      </trkpt>
      <trkpt lat="47.54209" lon="6.40597">
        <ele>283.767</ele>
        <time>2019-09-30T08:53:10Z</time>
      </trkpt>
      <trkpt lat="47.54201" lon="6.40586">
        <ele>283.798</ele>
        <time>2019-09-30T08:53:13Z</time>
      </trkpt>
      <trkpt lat="47.54192" lon="6.40574">
        <ele>284.057</ele>
        <time>2019-09-30T08:53:16Z</time>
      </trkpt>
      <trkpt lat="47.54184" lon="6.40562">
        <ele>284.536</ele>
        <time>2019-09-30T08:53:19Z</time>
      </trkpt>
      <trkpt lat="47.54176" lon="6.40551">
        <ele>285.151</ele>
        <time>2019-09-30T08:53:22Z</time>
      </trkpt>
      <trkpt lat="47.54167" lon="6.40539">
        <ele>285.258</ele>
        <time>2019-09-30T08:53:25Z</time>
      </trkpt>
      <trkpt lat="47.54157" lon="6.40525">
        <ele>284.731</ele>
        <time>2019-09-30T08:53:28Z</time>
      </trkpt>
      <trkpt lat="47.54147" lon="6.4051">
        <ele>284.152</ele>
        <time>2019-09-30T08:53:31Z</time>
      </trkpt>
      <trkpt lat="47.54137" lon="6.40496">
        <ele>284.041</ele>
        <time>2019-09-30T08:53:34Z</time>
      </trkpt>
      <trkpt lat="47.54128" lon="6.40482">
        <ele>283.12</ele>
        <time>2019-09-30T08:53:37Z</time>
      </trkpt>
      <trkpt lat="47.5412" lon="6.40469">
        <ele>283.151</ele>
        <time>2019-09-30T08:53:40Z</time>
      </trkpt>
      <trkpt lat="47.54112" lon="6.40461">
        <ele>281.745</ele>
        <time>2019-09-30T08:53:43Z</time>
      </trkpt>
      <trkpt lat="47.54109" lon="6.40451">
        <ele>280.946</ele>
        <time>2019-09-30T08:53:46Z</time>
      </trkpt>
      <trkpt lat="47.54104" lon="6.40444">
        <ele>280.375</ele>
        <time>2019-09-30T08:53:49Z</time>
      </trkpt>
      <trkpt lat="47.54102" lon="6.40435">
        <ele>278.936</ele>
        <time>2019-09-30T08:53:52Z</time>
      </trkpt>
      <trkpt lat="47.54099" lon="6.40428">
        <ele>278.587</ele>
        <time>2019-09-30T08:53:55Z</time>
      </trkpt>
      <trkpt lat="47.54092" lon="6.40419">
        <ele>278.01</ele>
        <time>2019-09-30T08:53:58Z</time>
      </trkpt>
      <trkpt lat="47.54087" lon="6.40407">
        <ele>277.681</ele>
        <time>2019-09-30T08:54:01Z</time>
      </trkpt>
      <trkpt lat="47.54083" lon="6.40393">
        <ele>277.657</ele>
        <time>2019-09-30T08:54:04Z</time>
      </trkpt>
      <trkpt lat="47.54077" lon="6.40378">
        <ele>277.625</ele>
        <time>2019-09-30T08:54:07Z</time>
      </trkpt>
      <trkpt lat="47.54072" lon="6.40364">
        <ele>277.53</ele>
        <time>2019-09-30T08:54:10Z</time>
      </trkpt>
      <trkpt lat="47.54069" lon="6.4035">
        <ele>278.159</ele>
        <time>2019-09-30T08:54:13Z</time>
      </trkpt>
      <trkpt lat="47.54066" lon="6.40335">
        <ele>278.953</ele>
        <time>2019-09-30T08:54:16Z</time>
      </trkpt>
      <trkpt lat="47.5406" lon="6.40319">
        <ele>279.759</ele>
        <time>2019-09-30T08:54:19Z</time>
      </trkpt>
      <trkpt lat="47.54053" lon="6.40297">
        <ele>280.626</ele>
        <time>2019-09-30T08:54:22Z</time>
      </trkpt>
      <trkpt lat="47.54046" lon="6.40275">
        <ele>281.42</ele>
        <time>2019-09-30T08:54:25Z</time>
      </trkpt>
      <trkpt lat="47.5404" lon="6.40253">
        <ele>282.545</ele>
        <time>2019-09-30T08:54:28Z</time>
      </trkpt>
      <trkpt lat="47.54032" lon="6.40228">
        <ele>283.22</ele>
        <time>2019-09-30T08:54:31Z</time>
      </trkpt>
      <trkpt lat="47.54026" lon="6.40205">
        <ele>283.746</ele>
        <time>2019-09-30T08:54:34Z</time>
      </trkpt>
      <trkpt lat="47.54021" lon="6.40184">
        <ele>284.102</ele>
        <time>2019-09-30T08:54:37Z</time>
      </trkpt>
      <trkpt lat="47.54011" lon="6.40155">
        <ele>284.483</ele>
        <time>2019-09-30T08:54:40Z</time>
      </trkpt>
      <trkpt lat="47.54002" lon="6.40125">
        <ele>283.096</ele>
        <time>2019-09-30T08:54:43Z</time>
      </trkpt>
      <trkpt lat="47.53994" lon="6.40097">
        <ele>282.64</ele>
        <time>2019-09-30T08:54:46Z</time>
      </trkpt>
      <trkpt lat="47.53989" lon="6.40075">
        <ele>282.414</ele>
        <time>2019-09-30T08:54:49Z</time>
      </trkpt>
      <trkpt lat="47.53985" lon="6.40056">
        <ele>281.672</ele>
        <time>2019-09-30T08:54:52Z</time>
      </trkpt>
      <trkpt lat="47.53981" lon="6.40043">
        <ele>280.964</ele>
        <time>2019-09-30T08:54:55Z</time>
      </trkpt>
      <trkpt lat="47.53979" lon="6.40034">
        <ele>280.07</ele>
        <time>2019-09-30T08:54:58Z</time>
      </trkpt>
      <trkpt lat="47.53981" lon="6.40027">
        <ele>278.446</ele>
        <time>2019-09-30T08:55:01Z</time>
      </trkpt>
      <trkpt lat="47.53979" lon="6.40023">
        <ele>276.706</ele>
        <time>2019-09-30T08:55:04Z</time>
      </trkpt>
      <trkpt lat="47.53977" lon="6.40024">
        <ele>276.101</ele>
        <time>2019-09-30T08:55:07Z</time>
      </trkpt>
      <trkpt lat="47.53977" lon="6.40024">
        <ele>276.101</ele>
        <time>2019-09-30T08:55:43Z</time>
      </trkpt>
      <trkpt lat="47.53975" lon="6.40018">
        <ele>275.945</ele>
        <time>2019-09-30T08:55:46Z</time>
      </trkpt>
      <trkpt lat="47.53972" lon="6.40008">
        <ele>276.263</ele>
        <time>2019-09-30T08:55:49Z</time>
      </trkpt>
      <trkpt lat="47.53969" lon="6.39994">
        <ele>276.419</ele>
        <time>2019-09-30T08:55:52Z</time>
      </trkpt>
      <trkpt lat="47.53965" lon="6.39975">
        <ele>276.276</ele>
        <time>2019-09-30T08:55:55Z</time>
      </trkpt>
      <trkpt lat="47.5396" lon="6.39958">
        <ele>276.126</ele>
        <time>2019-09-30T08:55:58Z</time>
      </trkpt>
      <trkpt lat="47.53954" lon="6.3994">
        <ele>276.223</ele>
        <time>2019-09-30T08:56:01Z</time>
      </trkpt>
      <trkpt lat="47.5395" lon="6.39921">
        <ele>275.978</ele>
        <time>2019-09-30T08:56:04Z</time>
      </trkpt>
      <trkpt lat="47.53947" lon="6.39902">
        <ele>276.13</ele>
        <time>2019-09-30T08:56:07Z</time>
      </trkpt>
      <trkpt lat="47.53941" lon="6.39879">
        <ele>276.187</ele>
        <time>2019-09-30T08:56:10Z</time>
      </trkpt>
      <trkpt lat="47.53934" lon="6.39854">
        <ele>276.327</ele>
        <time>2019-09-30T08:56:13Z</time>
      </trkpt>
      <trkpt lat="47.53929" lon="6.39832">
        <ele>276.725</ele>
        <time>2019-09-30T08:56:16Z</time>
      </trkpt>
      <trkpt lat="47.53923" lon="6.39808">
        <ele>276.62</ele>
        <time>2019-09-30T08:56:19Z</time>
      </trkpt>
      <trkpt lat="47.53918" lon="6.39785">
        <ele>276.978</ele>
        <time>2019-09-30T08:56:22Z</time>
      </trkpt>
      <trkpt lat="47.53914" lon="6.39766">
        <ele>277.149</ele>
        <time>2019-09-30T08:56:25Z</time>
      </trkpt>
      <trkpt lat="47.5391" lon="6.39744">
        <ele>277.831</ele>
        <time>2019-09-30T08:56:28Z</time>
      </trkpt>
      <trkpt lat="47.53904" lon="6.39723">
        <ele>278.659</ele>
        <time>2019-09-30T08:56:31Z</time>
      </trkpt>
      <trkpt lat="47.53899" lon="6.397">
        <ele>278.925</ele>
        <time>2019-09-30T08:56:34Z</time>
      </trkpt>
      <trkpt lat="47.53892" lon="6.39675">
        <ele>279.576</ele>
        <time>2019-09-30T08:56:37Z</time>
      </trkpt>
      <trkpt lat="47.53884" lon="6.39651">
        <ele>280.061</ele>
        <time>2019-09-30T08:56:40Z</time>
      </trkpt>
      <trkpt lat="47.53879" lon="6.39625">
        <ele>280.777</ele>
        <time>2019-09-30T08:56:43Z</time>
      </trkpt>
      <trkpt lat="47.53874" lon="6.39602">
        <ele>281.272</ele>
        <time>2019-09-30T08:56:46Z</time>
      </trkpt>
      <trkpt lat="47.5387" lon="6.39578">
        <ele>281.842</ele>
        <time>2019-09-30T08:56:49Z</time>
      </trkpt>
      <trkpt lat="47.53863" lon="6.39552">
        <ele>282.572</ele>
        <time>2019-09-30T08:56:52Z</time>
      </trkpt>
      <trkpt lat="47.53855" lon="6.39525">
        <ele>282.933</ele>
        <time>2019-09-30T08:56:55Z</time>
      </trkpt>
      <trkpt lat="47.53848" lon="6.39501">
        <ele>283.703</ele>
        <time>2019-09-30T08:56:58Z</time>
      </trkpt>
      <trkpt lat="47.53844" lon="6.3948">
        <ele>283.679</ele>
        <time>2019-09-30T08:57:01Z</time>
      </trkpt>
      <trkpt lat="47.53838" lon="6.39455">
        <ele>283.332</ele>
        <time>2019-09-30T08:57:04Z</time>
      </trkpt>
      <trkpt lat="47.53831" lon="6.39429">
        <ele>283.259</ele>
        <time>2019-09-30T08:57:07Z</time>
      </trkpt>
      <trkpt lat="47.53826" lon="6.39404">
        <ele>283.029</ele>
        <time>2019-09-30T08:57:10Z</time>
      </trkpt>
      <trkpt lat="47.53819" lon="6.39379">
        <ele>282.142</ele>
        <time>2019-09-30T08:57:13Z</time>
      </trkpt>
      <trkpt lat="47.53812" lon="6.39356">
        <ele>281.798</ele>
        <time>2019-09-30T08:57:16Z</time>
      </trkpt>
      <trkpt lat="47.53809" lon="6.39332">
        <ele>280.555</ele>
        <time>2019-09-30T08:57:19Z</time>
      </trkpt>
      <trkpt lat="47.53804" lon="6.39308">
        <ele>280.217</ele>
        <time>2019-09-30T08:57:22Z</time>
      </trkpt>
      <trkpt lat="47.53796" lon="6.39284">
        <ele>279.294</ele>
        <time>2019-09-30T08:57:25Z</time>
      </trkpt>
      <trkpt lat="47.53787" lon="6.39259">
        <ele>277.995</ele>
        <time>2019-09-30T08:57:28Z</time>
      </trkpt>
      <trkpt lat="47.53782" lon="6.39234">
        <ele>275.712</ele>
        <time>2019-09-30T08:57:31Z</time>
      </trkpt>
      <trkpt lat="47.53776" lon="6.39207">
        <ele>272.717</ele>
        <time>2019-09-30T08:57:34Z</time>
      </trkpt>
      <trkpt lat="47.53769" lon="6.39182">
        <ele>269.969</ele>
        <time>2019-09-30T08:57:37Z</time>
      </trkpt>
      <trkpt lat="47.53763" lon="6.39162">
        <ele>267.119</ele>
        <time>2019-09-30T08:57:40Z</time>
      </trkpt>
      <trkpt lat="47.53756" lon="6.39141">
        <ele>264.619</ele>
        <time>2019-09-30T08:57:43Z</time>
      </trkpt>
      <trkpt lat="47.53749" lon="6.39117">
        <ele>262.855</ele>
        <time>2019-09-30T08:57:46Z</time>
      </trkpt>
      <trkpt lat="47.53741" lon="6.39093">
        <ele>261.941</ele>
        <time>2019-09-30T08:57:49Z</time>
      </trkpt>
      <trkpt lat="47.53733" lon="6.39067">
        <ele>261.201</ele>
        <time>2019-09-30T08:57:52Z</time>
      </trkpt>
      <trkpt lat="47.53727" lon="6.39043">
        <ele>260.754</ele>
        <time>2019-09-30T08:57:55Z</time>
      </trkpt>
      <trkpt lat="47.5372" lon="6.39017">
        <ele>260.568</ele>
        <time>2019-09-30T08:57:58Z</time>
      </trkpt>
      <trkpt lat="47.53714" lon="6.38993">
        <ele>260.641</ele>
        <time>2019-09-30T08:58:01Z</time>
      </trkpt>
      <trkpt lat="47.53707" lon="6.38966">
        <ele>260.651</ele>
        <time>2019-09-30T08:58:04Z</time>
      </trkpt>
      <trkpt lat="47.53701" lon="6.38939">
        <ele>260.203</ele>
        <time>2019-09-30T08:58:07Z</time>
      </trkpt>
      <trkpt lat="47.53694" lon="6.38912">
        <ele>260.322</ele>
        <time>2019-09-30T08:58:10Z</time>
      </trkpt>
      <trkpt lat="47.53688" lon="6.38886">
        <ele>260.402</ele>
        <time>2019-09-30T08:58:13Z</time>
      </trkpt>
      <trkpt lat="47.53681" lon="6.38859">
        <ele>260.503</ele>
        <time>2019-09-30T08:58:16Z</time>
      </trkpt>
      <trkpt lat="47.53674" lon="6.38831">
        <ele>260.837</ele>
        <time>2019-09-30T08:58:19Z</time>
      </trkpt>
      <trkpt lat="47.53667" lon="6.38805">
        <ele>259.954</ele>
        <time>2019-09-30T08:58:22Z</time>
      </trkpt>
      <trkpt lat="47.53665" lon="6.38778">
        <ele>260.033</ele>
        <time>2019-09-30T08:58:25Z</time>
      </trkpt>
      <trkpt lat="47.53665" lon="6.38755">
        <ele>260.105</ele>
        <time>2019-09-30T08:58:28Z</time>
      </trkpt>
      <trkpt lat="47.53665" lon="6.3874">
        <ele>260.323</ele>
        <time>2019-09-30T08:58:31Z</time>
      </trkpt>
      <trkpt lat="47.53665" lon="6.3873">
        <ele>260.139</ele>
        <time>2019-09-30T08:58:34Z</time>
      </trkpt>
      <trkpt lat="47.53665" lon="6.38723">
        <ele>259.979</ele>
        <time>2019-09-30T08:58:37Z</time>
      </trkpt>
      <trkpt lat="47.53666" lon="6.38717">
        <ele>259.99</ele>
        <time>2019-09-30T08:58:40Z</time>
      </trkpt>
      <trkpt lat="47.53666" lon="6.38716">
        <ele>259.909</ele>
        <time>2019-09-30T08:58:43Z</time>
      </trkpt>
      <trkpt lat="47.53665" lon="6.38719">
        <ele>259.405</ele>
        <time>2019-09-30T08:59:25Z</time>
      </trkpt>
      <trkpt lat="47.53661" lon="6.38718">
        <ele>259.62</ele>
        <time>2019-09-30T08:59:28Z</time>
      </trkpt>
      <trkpt lat="47.53656" lon="6.38718">
        <ele>259.635</ele>
        <time>2019-09-30T08:59:31Z</time>
      </trkpt>
      <trkpt lat="47.5365" lon="6.38721">
        <ele>259.645</ele>
        <time>2019-09-30T08:59:34Z</time>
      </trkpt>
      <trkpt lat="47.53644" lon="6.38718">
        <ele>259.677</ele>
        <time>2019-09-30T08:59:37Z</time>
      </trkpt>
      <trkpt lat="47.53644" lon="6.38709">
        <ele>259.728</ele>
        <time>2019-09-30T08:59:40Z</time>
      </trkpt>
      <trkpt lat="47.53641" lon="6.38695">
        <ele>259.557</ele>
        <time>2019-09-30T08:59:43Z</time>
      </trkpt>
      <trkpt lat="47.53638" lon="6.3868">
        <ele>259.4</ele>
        <time>2019-09-30T08:59:46Z</time>
      </trkpt>
      <trkpt lat="47.53633" lon="6.38663">
        <ele>259.423</ele>
        <time>2019-09-30T08:59:49Z</time>
      </trkpt>
      <trkpt lat="47.53627" lon="6.38644">
        <ele>259.315</ele>
        <time>2019-09-30T08:59:52Z</time>
      </trkpt>
      <trkpt lat="47.5362" lon="6.38625">
        <ele>258.729</ele>
        <time>2019-09-30T08:59:55Z</time>
      </trkpt>
      <trkpt lat="47.53613" lon="6.38606">
        <ele>258.38</ele>
        <time>2019-09-30T08:59:58Z</time>
      </trkpt>
      <trkpt lat="47.53605" lon="6.38587">
        <ele>258.772</ele>
        <time>2019-09-30T09:00:01Z</time>
      </trkpt>
      <trkpt lat="47.53596" lon="6.38568">
        <ele>259.276</ele>
        <time>2019-09-30T09:00:04Z</time>
      </trkpt>
      <trkpt lat="47.53586" lon="6.3855">
        <ele>259.249</ele>
        <time>2019-09-30T09:00:07Z</time>
      </trkpt>
      <trkpt lat="47.53576" lon="6.38534">
        <ele>259.717</ele>
        <time>2019-09-30T09:00:10Z</time>
      </trkpt>
      <trkpt lat="47.53567" lon="6.38517">
        <ele>260.054</ele>
        <time>2019-09-30T09:00:13Z</time>
      </trkpt>
      <trkpt lat="47.53557" lon="6.38501">
        <ele>260.034</ele>
        <time>2019-09-30T09:00:16Z</time>
      </trkpt>
      <trkpt lat="47.53546" lon="6.38485">
        <ele>260.122</ele>
        <time>2019-09-30T09:00:19Z</time>
      </trkpt>
      <trkpt lat="47.53534" lon="6.3847">
        <ele>259.912</ele>
        <time>2019-09-30T09:00:22Z</time>
      </trkpt>
      <trkpt lat="47.53524" lon="6.38457">
        <ele>259.853</ele>
        <time>2019-09-30T09:00:25Z</time>
      </trkpt>
      <trkpt lat="47.53512" lon="6.38444">
        <ele>259.778</ele>
        <time>2019-09-30T09:00:28Z</time>
      </trkpt>
      <trkpt lat="47.53501" lon="6.38433">
        <ele>260.493</ele>
        <time>2019-09-30T09:00:31Z</time>
      </trkpt>
      <trkpt lat="47.53488" lon="6.38421">
        <ele>261.083</ele>
        <time>2019-09-30T09:00:34Z</time>
      </trkpt>
      <trkpt lat="47.53477" lon="6.3841">
        <ele>261.097</ele>
        <time>2019-09-30T09:00:37Z</time>
      </trkpt>
      <trkpt lat="47.53462" lon="6.38399">
        <ele>260.439</ele>
        <time>2019-09-30T09:00:40Z</time>
      </trkpt>
      <trkpt lat="47.53446" lon="6.38387">
        <ele>259.715</ele>
        <time>2019-09-30T09:00:43Z</time>
      </trkpt>
      <trkpt lat="47.5343" lon="6.38377">
        <ele>259.393</ele>
        <time>2019-09-30T09:00:46Z</time>
      </trkpt>
      <trkpt lat="47.53414" lon="6.38368">
        <ele>259.172</ele>
        <time>2019-09-30T09:00:49Z</time>
      </trkpt>
      <trkpt lat="47.53398" lon="6.3836">
        <ele>258.869</ele>
        <time>2019-09-30T09:00:52Z</time>
      </trkpt>
      <trkpt lat="47.53382" lon="6.38355">
        <ele>258.388</ele>
        <time>2019-09-30T09:00:55Z</time>
      </trkpt>
      <trkpt lat="47.53367" lon="6.3835">
        <ele>258.434</ele>
        <time>2019-09-30T09:00:58Z</time>
      </trkpt>
      <trkpt lat="47.53352" lon="6.38347">
        <ele>259.043</ele>
        <time>2019-09-30T09:01:01Z</time>
      </trkpt>
      <trkpt lat="47.53336" lon="6.38345">
        <ele>258.976</ele>
        <time>2019-09-30T09:01:04Z</time>
      </trkpt>
      <trkpt lat="47.53323" lon="6.38345">
        <ele>259.986</ele>
        <time>2019-09-30T09:01:07Z</time>
      </trkpt>
      <trkpt lat="47.53308" lon="6.38343">
        <ele>260.825</ele>
        <time>2019-09-30T09:01:10Z</time>
      </trkpt>
      <trkpt lat="47.53293" lon="6.38343">
        <ele>261.616</ele>
        <time>2019-09-30T09:01:13Z</time>
      </trkpt>
      <trkpt lat="47.53279" lon="6.38344">
        <ele>261.924</ele>
        <time>2019-09-30T09:01:16Z</time>
      </trkpt>
      <trkpt lat="47.53267" lon="6.38346">
        <ele>262.051</ele>
        <time>2019-09-30T09:01:19Z</time>
      </trkpt>
      <trkpt lat="47.53258" lon="6.38347">
        <ele>262.238</ele>
        <time>2019-09-30T09:01:22Z</time>
      </trkpt>
      <trkpt lat="47.53249" lon="6.38348">
        <ele>262.207</ele>
        <time>2019-09-30T09:01:25Z</time>
      </trkpt>
      <trkpt lat="47.5324" lon="6.38351">
        <ele>262.799</ele>
        <time>2019-09-30T09:01:28Z</time>
      </trkpt>
      <trkpt lat="47.5323" lon="6.38354">
        <ele>263.348</ele>
        <time>2019-09-30T09:01:31Z</time>
      </trkpt>
      <trkpt lat="47.53219" lon="6.38358">
        <ele>263.622</ele>
        <time>2019-09-30T09:01:34Z</time>
      </trkpt>
      <trkpt lat="47.53207" lon="6.38362">
        <ele>263.182</ele>
        <time>2019-09-30T09:01:37Z</time>
      </trkpt>
      <trkpt lat="47.53193" lon="6.38368">
        <ele>262.846</ele>
        <time>2019-09-30T09:01:40Z</time>
      </trkpt>
      <trkpt lat="47.5318" lon="6.38374">
        <ele>262.415</ele>
        <time>2019-09-30T09:01:43Z</time>
      </trkpt>
      <trkpt lat="47.53168" lon="6.38381">
        <ele>262.436</ele>
        <time>2019-09-30T09:01:46Z</time>
      </trkpt>
      <trkpt lat="47.53157" lon="6.38388">
        <ele>262.655</ele>
        <time>2019-09-30T09:01:49Z</time>
      </trkpt>
      <trkpt lat="47.53149" lon="6.38394">
        <ele>263.224</ele>
        <time>2019-09-30T09:01:52Z</time>
      </trkpt>
      <trkpt lat="47.5314" lon="6.384">
        <ele>264.416</ele>
        <time>2019-09-30T09:01:55Z</time>
      </trkpt>
      <trkpt lat="47.53129" lon="6.38406">
        <ele>265.257</ele>
        <time>2019-09-30T09:01:58Z</time>
      </trkpt>
      <trkpt lat="47.53117" lon="6.38415">
        <ele>266.115</ele>
        <time>2019-09-30T09:02:01Z</time>
      </trkpt>
      <trkpt lat="47.53103" lon="6.38423">
        <ele>267.103</ele>
        <time>2019-09-30T09:02:04Z</time>
      </trkpt>
      <trkpt lat="47.53089" lon="6.38431">
        <ele>268.084</ele>
        <time>2019-09-30T09:02:07Z</time>
      </trkpt>
      <trkpt lat="47.53074" lon="6.3844">
        <ele>268.047</ele>
        <time>2019-09-30T09:02:10Z</time>
      </trkpt>
      <trkpt lat="47.53059" lon="6.38448">
        <ele>268.25</ele>
        <time>2019-09-30T09:02:13Z</time>
      </trkpt>
      <trkpt lat="47.53042" lon="6.38458">
        <ele>267.434</ele>
        <time>2019-09-30T09:02:16Z</time>
      </trkpt>
      <trkpt lat="47.53025" lon="6.38469">
        <ele>266.454</ele>
        <time>2019-09-30T09:02:19Z</time>
      </trkpt>
      <trkpt lat="47.53009" lon="6.38479">
        <ele>266.227</ele>
        <time>2019-09-30T09:02:22Z</time>
      </trkpt>
      <trkpt lat="47.52994" lon="6.38488">
        <ele>266.401</ele>
        <time>2019-09-30T09:02:25Z</time>
      </trkpt>
      <trkpt lat="47.52977" lon="6.38497">
        <ele>265.989</ele>
        <time>2019-09-30T09:02:28Z</time>
      </trkpt>
      <trkpt lat="47.5296" lon="6.38507">
        <ele>264.871</ele>
        <time>2019-09-30T09:02:31Z</time>
      </trkpt>
      <trkpt lat="47.52943" lon="6.38516">
        <ele>264.13</ele>
        <time>2019-09-30T09:02:34Z</time>
      </trkpt>
      <trkpt lat="47.52928" lon="6.38526">
        <ele>263.527</ele>
        <time>2019-09-30T09:02:37Z</time>
      </trkpt>
      <trkpt lat="47.52912" lon="6.38537">
        <ele>262.483</ele>
        <time>2019-09-30T09:02:40Z</time>
      </trkpt>
      <trkpt lat="47.52896" lon="6.38547">
        <ele>261.851</ele>
        <time>2019-09-30T09:02:43Z</time>
      </trkpt>
      <trkpt lat="47.52881" lon="6.38558">
        <ele>261.523</ele>
        <time>2019-09-30T09:02:46Z</time>
      </trkpt>
      <trkpt lat="47.52866" lon="6.38567">
        <ele>261.621</ele>
        <time>2019-09-30T09:02:49Z</time>
      </trkpt>
      <trkpt lat="47.52851" lon="6.38574">
        <ele>261.801</ele>
        <time>2019-09-30T09:02:52Z</time>
      </trkpt>
      <trkpt lat="47.52838" lon="6.38583">
        <ele>262.469</ele>
        <time>2019-09-30T09:02:55Z</time>
      </trkpt>
      <trkpt lat="47.52824" lon="6.38591">
        <ele>263.108</ele>
        <time>2019-09-30T09:02:58Z</time>
      </trkpt>
      <trkpt lat="47.5281" lon="6.38597">
        <ele>263.548</ele>
        <time>2019-09-30T09:03:01Z</time>
      </trkpt>
      <trkpt lat="47.52798" lon="6.38604">
        <ele>264.363</ele>
        <time>2019-09-30T09:03:04Z</time>
      </trkpt>
      <trkpt lat="47.52784" lon="6.38612">
        <ele>265.306</ele>
        <time>2019-09-30T09:03:07Z</time>
      </trkpt>
      <trkpt lat="47.52772" lon="6.38619">
        <ele>265.484</ele>
        <time>2019-09-30T09:03:10Z</time>
      </trkpt>
      <trkpt lat="47.52759" lon="6.38628">
        <ele>265.232</ele>
        <time>2019-09-30T09:03:13Z</time>
      </trkpt>
      <trkpt lat="47.52747" lon="6.38636">
        <ele>266.097</ele>
        <time>2019-09-30T09:03:16Z</time>
      </trkpt>
      <trkpt lat="47.52732" lon="6.38646">
        <ele>266.29</ele>
        <time>2019-09-30T09:03:19Z</time>
      </trkpt>
      <trkpt lat="47.52714" lon="6.38658">
        <ele>266.058</ele>
        <time>2019-09-30T09:03:22Z</time>
      </trkpt>
      <trkpt lat="47.52698" lon="6.38668">
        <ele>266.232</ele>
        <time>2019-09-30T09:03:25Z</time>
      </trkpt>
      <trkpt lat="47.52685" lon="6.38677">
        <ele>266.25</ele>
        <time>2019-09-30T09:03:28Z</time>
      </trkpt>
      <trkpt lat="47.52672" lon="6.38686">
        <ele>266.825</ele>
        <time>2019-09-30T09:03:31Z</time>
      </trkpt>
      <trkpt lat="47.52661" lon="6.38696">
        <ele>266.951</ele>
        <time>2019-09-30T09:03:34Z</time>
      </trkpt>
      <trkpt lat="47.52647" lon="6.38703">
        <ele>267.835</ele>
        <time>2019-09-30T09:03:37Z</time>
      </trkpt>
      <trkpt lat="47.52634" lon="6.38708">
        <ele>269.196</ele>
        <time>2019-09-30T09:03:40Z</time>
      </trkpt>
      <trkpt lat="47.52618" lon="6.38712">
        <ele>269.983</ele>
        <time>2019-09-30T09:03:43Z</time>
      </trkpt>
      <trkpt lat="47.52603" lon="6.38717">
        <ele>270.468</ele>
        <time>2019-09-30T09:03:46Z</time>
      </trkpt>
      <trkpt lat="47.52588" lon="6.3872">
        <ele>271.195</ele>
        <time>2019-09-30T09:03:49Z</time>
      </trkpt>
      <trkpt lat="47.52573" lon="6.38724">
        <ele>271.591</ele>
        <time>2019-09-30T09:03:52Z</time>
      </trkpt>
      <trkpt lat="47.52557" lon="6.38725">
        <ele>272.157</ele>
        <time>2019-09-30T09:03:55Z</time>
      </trkpt>
      <trkpt lat="47.52543" lon="6.38725">
        <ele>271.436</ele>
        <time>2019-09-30T09:03:58Z</time>
      </trkpt>
      <trkpt lat="47.52529" lon="6.38725">
        <ele>271.181</ele>
        <time>2019-09-30T09:04:01Z</time>
      </trkpt>
      <trkpt lat="47.52513" lon="6.38726">
        <ele>270.603</ele>
        <time>2019-09-30T09:04:04Z</time>
      </trkpt>
      <trkpt lat="47.52494" lon="6.38725">
        <ele>269.105</ele>
        <time>2019-09-30T09:04:07Z</time>
      </trkpt>
      <trkpt lat="47.52478" lon="6.38725">
        <ele>267.344</ele>
        <time>2019-09-30T09:04:10Z</time>
      </trkpt>
      <trkpt lat="47.52464" lon="6.38727">
        <ele>266.985</ele>
        <time>2019-09-30T09:04:13Z</time>
      </trkpt>
      <trkpt lat="47.52449" lon="6.38725">
        <ele>267.128</ele>
        <time>2019-09-30T09:04:16Z</time>
      </trkpt>
      <trkpt lat="47.52436" lon="6.38724">
        <ele>266.891</ele>
        <time>2019-09-30T09:04:19Z</time>
      </trkpt>
      <trkpt lat="47.52422" lon="6.38723">
        <ele>265.972</ele>
        <time>2019-09-30T09:04:22Z</time>
      </trkpt>
      <trkpt lat="47.5241" lon="6.38721">
        <ele>265.913</ele>
        <time>2019-09-30T09:04:25Z</time>
      </trkpt>
      <trkpt lat="47.52399" lon="6.3872">
        <ele>267.553</ele>
        <time>2019-09-30T09:04:28Z</time>
      </trkpt>
      <trkpt lat="47.52387" lon="6.38719">
        <ele>268.378</ele>
        <time>2019-09-30T09:04:31Z</time>
      </trkpt>
      <trkpt lat="47.52373" lon="6.38718">
        <ele>268.931</ele>
        <time>2019-09-30T09:04:34Z</time>
      </trkpt>
      <trkpt lat="47.52354" lon="6.38718">
        <ele>269.243</ele>
        <time>2019-09-30T09:04:37Z</time>
      </trkpt>
      <trkpt lat="47.52336" lon="6.38717">
        <ele>269.61</ele>
        <time>2019-09-30T09:04:40Z</time>
      </trkpt>
      <trkpt lat="47.52318" lon="6.38714">
        <ele>269.28</ele>
        <time>2019-09-30T09:04:43Z</time>
      </trkpt>
      <trkpt lat="47.52303" lon="6.3871">
        <ele>268.987</ele>
        <time>2019-09-30T09:04:46Z</time>
      </trkpt>
      <trkpt lat="47.52289" lon="6.38706">
        <ele>267.535</ele>
        <time>2019-09-30T09:04:49Z</time>
      </trkpt>
      <trkpt lat="47.52273" lon="6.38701">
        <ele>265.895</ele>
        <time>2019-09-30T09:04:52Z</time>
      </trkpt>
      <trkpt lat="47.52256" lon="6.38695">
        <ele>263.531</ele>
        <time>2019-09-30T09:04:55Z</time>
      </trkpt>
      <trkpt lat="47.52238" lon="6.38688">
        <ele>262.525</ele>
        <time>2019-09-30T09:04:58Z</time>
      </trkpt>
      <trkpt lat="47.52221" lon="6.38681">
        <ele>260.967</ele>
        <time>2019-09-30T09:05:01Z</time>
      </trkpt>
      <trkpt lat="47.52203" lon="6.38671">
        <ele>258.724</ele>
        <time>2019-09-30T09:05:04Z</time>
      </trkpt>
      <trkpt lat="47.52187" lon="6.38662">
        <ele>258.376</ele>
        <time>2019-09-30T09:05:07Z</time>
      </trkpt>
      <trkpt lat="47.52174" lon="6.38653">
        <ele>259.126</ele>
        <time>2019-09-30T09:05:10Z</time>
      </trkpt>
      <trkpt lat="47.52164" lon="6.38646">
        <ele>259.22</ele>
        <time>2019-09-30T09:05:13Z</time>
      </trkpt>
      <trkpt lat="47.52156" lon="6.3864">
        <ele>259.28</ele>
        <time>2019-09-30T09:05:16Z</time>
      </trkpt>
      <trkpt lat="47.52145" lon="6.3863">
        <ele>259.623</ele>
        <time>2019-09-30T09:05:19Z</time>
      </trkpt>
      <trkpt lat="47.52132" lon="6.38619">
        <ele>259.395</ele>
        <time>2019-09-30T09:05:22Z</time>
      </trkpt>
      <trkpt lat="47.52119" lon="6.38607">
        <ele>259.654</ele>
        <time>2019-09-30T09:05:25Z</time>
      </trkpt>
      <trkpt lat="47.52107" lon="6.38594">
        <ele>259.377</ele>
        <time>2019-09-30T09:05:28Z</time>
      </trkpt>
      <trkpt lat="47.52094" lon="6.38582">
        <ele>259.217</ele>
        <time>2019-09-30T09:05:31Z</time>
      </trkpt>
      <trkpt lat="47.52083" lon="6.38567">
        <ele>259.611</ele>
        <time>2019-09-30T09:05:34Z</time>
      </trkpt>
      <trkpt lat="47.52071" lon="6.38554">
        <ele>258.78</ele>
        <time>2019-09-30T09:05:37Z</time>
      </trkpt>
      <trkpt lat="47.5206" lon="6.3854">
        <ele>258.525</ele>
        <time>2019-09-30T09:05:40Z</time>
      </trkpt>
      <trkpt lat="47.52049" lon="6.38525">
        <ele>258.757</ele>
        <time>2019-09-30T09:05:43Z</time>
      </trkpt>
      <trkpt lat="47.52038" lon="6.38509">
        <ele>259.182</ele>
        <time>2019-09-30T09:05:46Z</time>
      </trkpt>
      <trkpt lat="47.52029" lon="6.38493">
        <ele>259.844</ele>
        <time>2019-09-30T09:05:49Z</time>
      </trkpt>
      <trkpt lat="47.5202" lon="6.38477">
        <ele>260.246</ele>
        <time>2019-09-30T09:05:52Z</time>
      </trkpt>
      <trkpt lat="47.52011" lon="6.38462">
        <ele>260.318</ele>
        <time>2019-09-30T09:05:55Z</time>
      </trkpt>
      <trkpt lat="47.52003" lon="6.38447">
        <ele>260.684</ele>
        <time>2019-09-30T09:05:58Z</time>
      </trkpt>
      <trkpt lat="47.51993" lon="6.38432">
        <ele>260.735</ele>
        <time>2019-09-30T09:06:01Z</time>
      </trkpt>
      <trkpt lat="47.51985" lon="6.38417">
        <ele>261.016</ele>
        <time>2019-09-30T09:06:04Z</time>
      </trkpt>
      <trkpt lat="47.51977" lon="6.38403">
        <ele>261.36</ele>
        <time>2019-09-30T09:06:07Z</time>
      </trkpt>
      <trkpt lat="47.51967" lon="6.38388">
        <ele>261.511</ele>
        <time>2019-09-30T09:06:10Z</time>
      </trkpt>
      <trkpt lat="47.51958" lon="6.38373">
        <ele>261.182</ele>
        <time>2019-09-30T09:06:13Z</time>
      </trkpt>
      <trkpt lat="47.51949" lon="6.38358">
        <ele>260.687</ele>
        <time>2019-09-30T09:06:16Z</time>
      </trkpt>
      <trkpt lat="47.5194" lon="6.38344">
        <ele>260.571</ele>
        <time>2019-09-30T09:06:19Z</time>
      </trkpt>
      <trkpt lat="47.51933" lon="6.38332">
        <ele>261.473</ele>
        <time>2019-09-30T09:06:22Z</time>
      </trkpt>
      <trkpt lat="47.51924" lon="6.3832">
        <ele>262.553</ele>
        <time>2019-09-30T09:06:25Z</time>
      </trkpt>
      <trkpt lat="47.51915" lon="6.38307">
        <ele>262.681</ele>
        <time>2019-09-30T09:06:28Z</time>
      </trkpt>
      <trkpt lat="47.51906" lon="6.38292">
        <ele>261.52</ele>
        <time>2019-09-30T09:06:31Z</time>
      </trkpt>
      <trkpt lat="47.51898" lon="6.3828">
        <ele>261.33</ele>
        <time>2019-09-30T09:06:34Z</time>
      </trkpt>
      <trkpt lat="47.51892" lon="6.3827">
        <ele>262.325</ele>
        <time>2019-09-30T09:06:37Z</time>
      </trkpt>
      <trkpt lat="47.51889" lon="6.38265">
        <ele>262.788</ele>
        <time>2019-09-30T09:06:40Z</time>
      </trkpt>
      <trkpt lat="47.51886" lon="6.38259">
        <ele>263.559</ele>
        <time>2019-09-30T09:06:46Z</time>
      </trkpt>
      <trkpt lat="47.51883" lon="6.38255">
        <ele>263.451</ele>
        <time>2019-09-30T09:06:49Z</time>
      </trkpt>
      <trkpt lat="47.51882" lon="6.38252">
        <ele>263.874</ele>
        <time>2019-09-30T09:06:52Z</time>
      </trkpt>
      <trkpt lat="47.51881" lon="6.38246">
        <ele>264.093</ele>
        <time>2019-09-30T09:06:55Z</time>
      </trkpt>
      <trkpt lat="47.51877" lon="6.3824">
        <ele>264.718</ele>
        <time>2019-09-30T09:06:58Z</time>
      </trkpt>
      <trkpt lat="47.51871" lon="6.38232">
        <ele>265.159</ele>
        <time>2019-09-30T09:07:01Z</time>
      </trkpt>
      <trkpt lat="47.51866" lon="6.38222">
        <ele>265.558</ele>
        <time>2019-09-30T09:07:04Z</time>
      </trkpt>
      <trkpt lat="47.51859" lon="6.38213">
        <ele>265.739</ele>
        <time>2019-09-30T09:07:07Z</time>
      </trkpt>
      <trkpt lat="47.51853" lon="6.38203">
        <ele>266.018</ele>
        <time>2019-09-30T09:07:10Z</time>
      </trkpt>
      <trkpt lat="47.51847" lon="6.38192">
        <ele>265.918</ele>
        <time>2019-09-30T09:07:13Z</time>
      </trkpt>
      <trkpt lat="47.51841" lon="6.38182">
        <ele>265.976</ele>
        <time>2019-09-30T09:07:16Z</time>
      </trkpt>
      <trkpt lat="47.51833" lon="6.38169">
        <ele>265.795</ele>
        <time>2019-09-30T09:07:19Z</time>
      </trkpt>
      <trkpt lat="47.51825" lon="6.38156">
        <ele>265.613</ele>
        <time>2019-09-30T09:07:22Z</time>
      </trkpt>
      <trkpt lat="47.51817" lon="6.38143">
        <ele>265.496</ele>
        <time>2019-09-30T09:07:25Z</time>
      </trkpt>
      <trkpt lat="47.51809" lon="6.3813">
        <ele>265.455</ele>
        <time>2019-09-30T09:07:28Z</time>
      </trkpt>
      <trkpt lat="47.518" lon="6.38117">
        <ele>265.388</ele>
        <time>2019-09-30T09:07:31Z</time>
      </trkpt>
      <trkpt lat="47.51793" lon="6.38103">
        <ele>265.438</ele>
        <time>2019-09-30T09:07:34Z</time>
      </trkpt>
      <trkpt lat="47.51784" lon="6.3809">
        <ele>265.203</ele>
        <time>2019-09-30T09:07:37Z</time>
      </trkpt>
      <trkpt lat="47.51776" lon="6.38077">
        <ele>265.21</ele>
        <time>2019-09-30T09:07:40Z</time>
      </trkpt>
      <trkpt lat="47.51769" lon="6.38063">
        <ele>265.069</ele>
        <time>2019-09-30T09:07:43Z</time>
      </trkpt>
      <trkpt lat="47.51761" lon="6.3805">
        <ele>264.719</ele>
        <time>2019-09-30T09:07:46Z</time>
      </trkpt>
      <trkpt lat="47.51752" lon="6.38036">
        <ele>264.478</ele>
        <time>2019-09-30T09:07:49Z</time>
      </trkpt>
      <trkpt lat="47.51743" lon="6.38022">
        <ele>264.305</ele>
        <time>2019-09-30T09:07:52Z</time>
      </trkpt>
      <trkpt lat="47.51735" lon="6.38008">
        <ele>264.706</ele>
        <time>2019-09-30T09:07:55Z</time>
      </trkpt>
      <trkpt lat="47.51726" lon="6.37994">
        <ele>265.271</ele>
        <time>2019-09-30T09:07:58Z</time>
      </trkpt>
      <trkpt lat="47.51718" lon="6.3798">
        <ele>266.119</ele>
        <time>2019-09-30T09:08:01Z</time>
      </trkpt>
      <trkpt lat="47.51709" lon="6.37965">
        <ele>266.393</ele>
        <time>2019-09-30T09:08:04Z</time>
      </trkpt>
      <trkpt lat="47.51701" lon="6.37951">
        <ele>266.731</ele>
        <time>2019-09-30T09:08:07Z</time>
      </trkpt>
      <trkpt lat="47.51693" lon="6.37937">
        <ele>267.419</ele>
        <time>2019-09-30T09:08:10Z</time>
      </trkpt>
      <trkpt lat="47.51685" lon="6.37923">
        <ele>267.986</ele>
        <time>2019-09-30T09:08:13Z</time>
      </trkpt>
      <trkpt lat="47.51679" lon="6.37911">
        <ele>268.401</ele>
        <time>2019-09-30T09:08:16Z</time>
      </trkpt>
      <trkpt lat="47.51671" lon="6.37899">
        <ele>269.075</ele>
        <time>2019-09-30T09:08:19Z</time>
      </trkpt>
      <trkpt lat="47.51663" lon="6.37886">
        <ele>270.073</ele>
        <time>2019-09-30T09:08:22Z</time>
      </trkpt>
      <trkpt lat="47.51654" lon="6.37872">
        <ele>270.515</ele>
        <time>2019-09-30T09:08:25Z</time>
      </trkpt>
      <trkpt lat="47.51644" lon="6.37859">
        <ele>270.342</ele>
        <time>2019-09-30T09:08:28Z</time>
      </trkpt>
      <trkpt lat="47.51633" lon="6.37845">
        <ele>270.186</ele>
        <time>2019-09-30T09:08:31Z</time>
      </trkpt>
      <trkpt lat="47.51621" lon="6.3783">
        <ele>269.475</ele>
        <time>2019-09-30T09:08:34Z</time>
      </trkpt>
      <trkpt lat="47.51609" lon="6.37815">
        <ele>269.09</ele>
        <time>2019-09-30T09:08:37Z</time>
      </trkpt>
      <trkpt lat="47.51597" lon="6.37802">
        <ele>268.746</ele>
        <time>2019-09-30T09:08:40Z</time>
      </trkpt>
      <trkpt lat="47.51585" lon="6.3779">
        <ele>268.506</ele>
        <time>2019-09-30T09:08:43Z</time>
      </trkpt>
      <trkpt lat="47.51572" lon="6.37778">
        <ele>268.712</ele>
        <time>2019-09-30T09:08:46Z</time>
      </trkpt>
      <trkpt lat="47.51559" lon="6.37766">
        <ele>268.334</ele>
        <time>2019-09-30T09:08:49Z</time>
      </trkpt>
      <trkpt lat="47.51543" lon="6.37755">
        <ele>267.894</ele>
        <time>2019-09-30T09:08:52Z</time>
      </trkpt>
      <trkpt lat="47.51529" lon="6.37745">
        <ele>268.276</ele>
        <time>2019-09-30T09:08:55Z</time>
      </trkpt>
      <trkpt lat="47.51516" lon="6.37736">
        <ele>268.568</ele>
        <time>2019-09-30T09:08:58Z</time>
      </trkpt>
      <trkpt lat="47.51503" lon="6.3773">
        <ele>268.777</ele>
        <time>2019-09-30T09:09:01Z</time>
      </trkpt>
      <trkpt lat="47.51491" lon="6.37724">
        <ele>269.248</ele>
        <time>2019-09-30T09:09:04Z</time>
      </trkpt>
      <trkpt lat="47.51476" lon="6.37716">
        <ele>268.63</ele>
        <time>2019-09-30T09:09:07Z</time>
      </trkpt>
      <trkpt lat="47.51463" lon="6.37709">
        <ele>268.048</ele>
        <time>2019-09-30T09:09:10Z</time>
      </trkpt>
      <trkpt lat="47.51448" lon="6.37704">
        <ele>267.714</ele>
        <time>2019-09-30T09:09:13Z</time>
      </trkpt>
      <trkpt lat="47.51432" lon="6.37699">
        <ele>267.778</ele>
        <time>2019-09-30T09:09:16Z</time>
      </trkpt>
      <trkpt lat="47.51419" lon="6.37695">
        <ele>267.935</ele>
        <time>2019-09-30T09:09:19Z</time>
      </trkpt>
      <trkpt lat="47.51405" lon="6.37691">
        <ele>267.955</ele>
        <time>2019-09-30T09:09:22Z</time>
      </trkpt>
      <trkpt lat="47.51392" lon="6.37689">
        <ele>268.312</ele>
        <time>2019-09-30T09:09:25Z</time>
      </trkpt>
      <trkpt lat="47.51383" lon="6.37687">
        <ele>267.191</ele>
        <time>2019-09-30T09:09:28Z</time>
      </trkpt>
      <trkpt lat="47.51378" lon="6.37686">
        <ele>267.043</ele>
        <time>2019-09-30T09:09:31Z</time>
      </trkpt>
      <trkpt lat="47.5137" lon="6.37686">
        <ele>266.95</ele>
        <time>2019-09-30T09:09:34Z</time>
      </trkpt>
      <trkpt lat="47.51364" lon="6.37686">
        <ele>268.058</ele>
        <time>2019-09-30T09:09:37Z</time>
      </trkpt>
      <trkpt lat="47.51354" lon="6.37688">
        <ele>268.295</ele>
        <time>2019-09-30T09:09:43Z</time>
      </trkpt>
      <trkpt lat="47.51342" lon="6.37687">
        <ele>268.277</ele>
        <time>2019-09-30T09:09:46Z</time>
      </trkpt>
      <trkpt lat="47.5133" lon="6.37685">
        <ele>267.747</ele>
        <time>2019-09-30T09:09:49Z</time>
      </trkpt>
      <trkpt lat="47.51315" lon="6.37684">
        <ele>267.445</ele>
        <time>2019-09-30T09:09:52Z</time>
      </trkpt>
      <trkpt lat="47.51299" lon="6.37683">
        <ele>268.03</ele>
        <time>2019-09-30T09:09:55Z</time>
      </trkpt>
      <trkpt lat="47.51284" lon="6.37682">
        <ele>268.115</ele>
        <time>2019-09-30T09:09:58Z</time>
      </trkpt>
      <trkpt lat="47.51268" lon="6.3768">
        <ele>268.128</ele>
        <time>2019-09-30T09:10:01Z</time>
      </trkpt>
      <trkpt lat="47.51254" lon="6.3768">
        <ele>267.892</ele>
        <time>2019-09-30T09:10:04Z</time>
      </trkpt>
      <trkpt lat="47.51238" lon="6.37679">
        <ele>267.81</ele>
        <time>2019-09-30T09:10:07Z</time>
      </trkpt>
      <trkpt lat="47.51222" lon="6.37678">
        <ele>267.347</ele>
        <time>2019-09-30T09:10:10Z</time>
      </trkpt>
      <trkpt lat="47.51207" lon="6.37676">
        <ele>267.858</ele>
        <time>2019-09-30T09:10:13Z</time>
      </trkpt>
      <trkpt lat="47.51195" lon="6.37672">
        <ele>268.57</ele>
        <time>2019-09-30T09:10:16Z</time>
      </trkpt>
      <trkpt lat="47.51183" lon="6.3767">
        <ele>269.389</ele>
        <time>2019-09-30T09:10:19Z</time>
      </trkpt>
      <trkpt lat="47.51171" lon="6.37668">
        <ele>270.389</ele>
        <time>2019-09-30T09:10:22Z</time>
      </trkpt>
      <trkpt lat="47.5116" lon="6.37664">
        <ele>271.296</ele>
        <time>2019-09-30T09:10:25Z</time>
      </trkpt>
      <trkpt lat="47.5115" lon="6.3766">
        <ele>272.557</ele>
        <time>2019-09-30T09:10:28Z</time>
      </trkpt>
      <trkpt lat="47.51142" lon="6.37658">
        <ele>273.671</ele>
        <time>2019-09-30T09:10:31Z</time>
      </trkpt>
      <trkpt lat="47.51134" lon="6.37655">
        <ele>274.269</ele>
        <time>2019-09-30T09:10:34Z</time>
      </trkpt>
      <trkpt lat="47.51124" lon="6.3765">
        <ele>274.706</ele>
        <time>2019-09-30T09:10:37Z</time>
      </trkpt>
      <trkpt lat="47.51109" lon="6.37643">
        <ele>275.347</ele>
        <time>2019-09-30T09:10:40Z</time>
      </trkpt>
      <trkpt lat="47.51097" lon="6.37637">
        <ele>276.073</ele>
        <time>2019-09-30T09:10:43Z</time>
      </trkpt>
      <trkpt lat="47.51087" lon="6.37631">
        <ele>277.347</ele>
        <time>2019-09-30T09:10:46Z</time>
      </trkpt>
      <trkpt lat="47.5108" lon="6.37626">
        <ele>278.502</ele>
        <time>2019-09-30T09:10:49Z</time>
      </trkpt>
      <trkpt lat="47.51072" lon="6.3762">
        <ele>279.812</ele>
        <time>2019-09-30T09:10:52Z</time>
      </trkpt>
      <trkpt lat="47.51063" lon="6.37614">
        <ele>281.175</ele>
        <time>2019-09-30T09:10:55Z</time>
      </trkpt>
      <trkpt lat="47.51053" lon="6.37607">
        <ele>282.194</ele>
        <time>2019-09-30T09:10:58Z</time>
      </trkpt>
      <trkpt lat="47.51042" lon="6.37597">
        <ele>283.074</ele>
        <time>2019-09-30T09:11:01Z</time>
      </trkpt>
      <trkpt lat="47.51028" lon="6.37586">
        <ele>283.486</ele>
        <time>2019-09-30T09:11:04Z</time>
      </trkpt>
      <trkpt lat="47.51012" lon="6.37572">
        <ele>283.686</ele>
        <time>2019-09-30T09:11:07Z</time>
      </trkpt>
      <trkpt lat="47.50998" lon="6.37558">
        <ele>284.211</ele>
        <time>2019-09-30T09:11:10Z</time>
      </trkpt>
      <trkpt lat="47.50985" lon="6.37545">
        <ele>284.115</ele>
        <time>2019-09-30T09:11:13Z</time>
      </trkpt>
      <trkpt lat="47.50976" lon="6.37533">
        <ele>284.656</ele>
        <time>2019-09-30T09:11:16Z</time>
      </trkpt>
      <trkpt lat="47.50967" lon="6.3752">
        <ele>284.252</ele>
        <time>2019-09-30T09:11:19Z</time>
      </trkpt>
      <trkpt lat="47.50958" lon="6.37508">
        <ele>283.815</ele>
        <time>2019-09-30T09:11:22Z</time>
      </trkpt>
      <trkpt lat="47.50952" lon="6.37499">
        <ele>283.927</ele>
        <time>2019-09-30T09:11:25Z</time>
      </trkpt>
      <trkpt lat="47.50944" lon="6.37489">
        <ele>283.818</ele>
        <time>2019-09-30T09:11:28Z</time>
      </trkpt>
      <trkpt lat="47.50937" lon="6.37477">
        <ele>283.912</ele>
        <time>2019-09-30T09:11:31Z</time>
      </trkpt>
      <trkpt lat="47.50928" lon="6.37465">
        <ele>283.019</ele>
        <time>2019-09-30T09:11:34Z</time>
      </trkpt>
      <trkpt lat="47.50922" lon="6.37453">
        <ele>282.323</ele>
        <time>2019-09-30T09:11:37Z</time>
      </trkpt>
      <trkpt lat="47.50914" lon="6.37438">
        <ele>281.094</ele>
        <time>2019-09-30T09:11:40Z</time>
      </trkpt>
      <trkpt lat="47.50906" lon="6.37423">
        <ele>280.388</ele>
        <time>2019-09-30T09:11:43Z</time>
      </trkpt>
      <trkpt lat="47.50898" lon="6.37407">
        <ele>279.32</ele>
        <time>2019-09-30T09:11:46Z</time>
      </trkpt>
      <trkpt lat="47.50891" lon="6.37395">
        <ele>279.048</ele>
        <time>2019-09-30T09:11:49Z</time>
      </trkpt>
      <trkpt lat="47.50886" lon="6.37384">
        <ele>279.04</ele>
        <time>2019-09-30T09:11:52Z</time>
      </trkpt>
      <trkpt lat="47.5088" lon="6.37371">
        <ele>280.1</ele>
        <time>2019-09-30T09:11:55Z</time>
      </trkpt>
      <trkpt lat="47.50876" lon="6.37359">
        <ele>280.991</ele>
        <time>2019-09-30T09:11:58Z</time>
      </trkpt>
      <trkpt lat="47.50871" lon="6.37347">
        <ele>282.219</ele>
        <time>2019-09-30T09:12:01Z</time>
      </trkpt>
      <trkpt lat="47.50866" lon="6.37335">
        <ele>283.12</ele>
        <time>2019-09-30T09:12:04Z</time>
      </trkpt>
      <trkpt lat="47.50861" lon="6.37321">
        <ele>283.91</ele>
        <time>2019-09-30T09:12:07Z</time>
      </trkpt>
      <trkpt lat="47.50851" lon="6.37301">
        <ele>284.14</ele>
        <time>2019-09-30T09:12:10Z</time>
      </trkpt>
      <trkpt lat="47.50843" lon="6.37284">
        <ele>285.196</ele>
        <time>2019-09-30T09:12:13Z</time>
      </trkpt>
      <trkpt lat="47.50837" lon="6.37268">
        <ele>286.462</ele>
        <time>2019-09-30T09:12:16Z</time>
      </trkpt>
      <trkpt lat="47.50832" lon="6.37251">
        <ele>288.149</ele>
        <time>2019-09-30T09:12:19Z</time>
      </trkpt>
      <trkpt lat="47.50826" lon="6.37235">
        <ele>289.32</ele>
        <time>2019-09-30T09:12:22Z</time>
      </trkpt>
      <trkpt lat="47.50819" lon="6.37217">
        <ele>289.869</ele>
        <time>2019-09-30T09:12:25Z</time>
      </trkpt>
      <trkpt lat="47.50814" lon="6.372">
        <ele>290.269</ele>
        <time>2019-09-30T09:12:28Z</time>
      </trkpt>
      <trkpt lat="47.50807" lon="6.37183">
        <ele>290.765</ele>
        <time>2019-09-30T09:12:31Z</time>
      </trkpt>
      <trkpt lat="47.50801" lon="6.37166">
        <ele>291.447</ele>
        <time>2019-09-30T09:12:34Z</time>
      </trkpt>
      <trkpt lat="47.50796" lon="6.37148">
        <ele>292.088</ele>
        <time>2019-09-30T09:12:37Z</time>
      </trkpt>
      <trkpt lat="47.5079" lon="6.3713">
        <ele>291.949</ele>
        <time>2019-09-30T09:12:40Z</time>
      </trkpt>
      <trkpt lat="47.50781" lon="6.37109">
        <ele>293.152</ele>
        <time>2019-09-30T09:12:43Z</time>
      </trkpt>
      <trkpt lat="47.50769" lon="6.37085">
        <ele>294.388</ele>
        <time>2019-09-30T09:12:46Z</time>
      </trkpt>
      <trkpt lat="47.50763" lon="6.37064">
        <ele>295.165</ele>
        <time>2019-09-30T09:12:49Z</time>
      </trkpt>
      <trkpt lat="47.50756" lon="6.37047">
        <ele>295.476</ele>
        <time>2019-09-30T09:12:52Z</time>
      </trkpt>
      <trkpt lat="47.50748" lon="6.37027">
        <ele>295.396</ele>
        <time>2019-09-30T09:12:55Z</time>
      </trkpt>
      <trkpt lat="47.50737" lon="6.37006">
        <ele>293.808</ele>
        <time>2019-09-30T09:12:58Z</time>
      </trkpt>
      <trkpt lat="47.50727" lon="6.36986">
        <ele>292.917</ele>
        <time>2019-09-30T09:13:01Z</time>
      </trkpt>
      <trkpt lat="47.50717" lon="6.36969">
        <ele>291.734</ele>
        <time>2019-09-30T09:13:04Z</time>
      </trkpt>
      <trkpt lat="47.50708" lon="6.36952">
        <ele>290.277</ele>
        <time>2019-09-30T09:13:07Z</time>
      </trkpt>
      <trkpt lat="47.50698" lon="6.36936">
        <ele>289.564</ele>
        <time>2019-09-30T09:13:10Z</time>
      </trkpt>
      <trkpt lat="47.50689" lon="6.36922">
        <ele>289.641</ele>
        <time>2019-09-30T09:13:13Z</time>
      </trkpt>
      <trkpt lat="47.50678" lon="6.36908">
        <ele>287.312</ele>
        <time>2019-09-30T09:13:16Z</time>
      </trkpt>
      <trkpt lat="47.50668" lon="6.36901">
        <ele>283.956</ele>
        <time>2019-09-30T09:13:19Z</time>
      </trkpt>
      <trkpt lat="47.50662" lon="6.36903">
        <ele>282.51</ele>
        <time>2019-09-30T09:13:22Z</time>
      </trkpt>
      <trkpt lat="47.5066" lon="6.36904">
        <ele>280.901</ele>
        <time>2019-09-30T09:13:25Z</time>
      </trkpt>
      <trkpt lat="47.5066" lon="6.36904">
        <ele>280.901</ele>
        <time>2019-09-30T09:13:55Z</time>
      </trkpt>
      <trkpt lat="47.5066" lon="6.36904">
        <ele>280.764</ele>
        <time>2019-09-30T09:13:58Z</time>
      </trkpt>
      <trkpt lat="47.50664" lon="6.36897">
        <ele>280.543</ele>
        <time>2019-09-30T09:14:04Z</time>
      </trkpt>
      <trkpt lat="47.50666" lon="6.3689">
        <ele>280.207</ele>
        <time>2019-09-30T09:14:07Z</time>
      </trkpt>
      <trkpt lat="47.50669" lon="6.36882">
        <ele>280.427</ele>
        <time>2019-09-30T09:14:10Z</time>
      </trkpt>
      <trkpt lat="47.50672" lon="6.36874">
        <ele>280.686</ele>
        <time>2019-09-30T09:14:13Z</time>
      </trkpt>
      <trkpt lat="47.50675" lon="6.36865">
        <ele>280.538</ele>
        <time>2019-09-30T09:14:16Z</time>
      </trkpt>
      <trkpt lat="47.50678" lon="6.36855">
        <ele>280.339</ele>
        <time>2019-09-30T09:14:19Z</time>
      </trkpt>
      <trkpt lat="47.50679" lon="6.36843">
        <ele>280.411</ele>
        <time>2019-09-30T09:14:22Z</time>
      </trkpt>
      <trkpt lat="47.50678" lon="6.36831">
        <ele>279.968</ele>
        <time>2019-09-30T09:14:25Z</time>
      </trkpt>
      <trkpt lat="47.50676" lon="6.36821">
        <ele>278.916</ele>
        <time>2019-09-30T09:14:28Z</time>
      </trkpt>
      <trkpt lat="47.50673" lon="6.36812">
        <ele>277.29</ele>
        <time>2019-09-30T09:14:31Z</time>
      </trkpt>
      <trkpt lat="47.50669" lon="6.36803">
        <ele>276.277</ele>
        <time>2019-09-30T09:14:34Z</time>
      </trkpt>
      <trkpt lat="47.50664" lon="6.36794">
        <ele>275.998</ele>
        <time>2019-09-30T09:14:37Z</time>
      </trkpt>
      <trkpt lat="47.50658" lon="6.36785">
        <ele>275.569</ele>
        <time>2019-09-30T09:14:40Z</time>
      </trkpt>
      <trkpt lat="47.50652" lon="6.36777">
        <ele>275.309</ele>
        <time>2019-09-30T09:14:43Z</time>
      </trkpt>
      <trkpt lat="47.50647" lon="6.3677">
        <ele>275.224</ele>
        <time>2019-09-30T09:14:46Z</time>
      </trkpt>
      <trkpt lat="47.50641" lon="6.36763">
        <ele>275.306</ele>
        <time>2019-09-30T09:14:49Z</time>
      </trkpt>
      <trkpt lat="47.50635" lon="6.36756">
        <ele>275.402</ele>
        <time>2019-09-30T09:14:52Z</time>
      </trkpt>
      <trkpt lat="47.50628" lon="6.3675">
        <ele>275.294</ele>
        <time>2019-09-30T09:14:55Z</time>
      </trkpt>
      <trkpt lat="47.50619" lon="6.36742">
        <ele>275.471</ele>
        <time>2019-09-30T09:14:58Z</time>
      </trkpt>
      <trkpt lat="47.50611" lon="6.36733">
        <ele>275.475</ele>
        <time>2019-09-30T09:15:01Z</time>
      </trkpt>
      <trkpt lat="47.50602" lon="6.36723">
        <ele>275.379</ele>
        <time>2019-09-30T09:15:04Z</time>
      </trkpt>
      <trkpt lat="47.50593" lon="6.3671">
        <ele>275.269</ele>
        <time>2019-09-30T09:15:07Z</time>
      </trkpt>
      <trkpt lat="47.50584" lon="6.36696">
        <ele>274.835</ele>
        <time>2019-09-30T09:15:10Z</time>
      </trkpt>
      <trkpt lat="47.50577" lon="6.3668">
        <ele>273.869</ele>
        <time>2019-09-30T09:15:13Z</time>
      </trkpt>
      <trkpt lat="47.50572" lon="6.36664">
        <ele>272.906</ele>
        <time>2019-09-30T09:15:16Z</time>
      </trkpt>
      <trkpt lat="47.50569" lon="6.36649">
        <ele>272.455</ele>
        <time>2019-09-30T09:15:19Z</time>
      </trkpt>
      <trkpt lat="47.50569" lon="6.36635">
        <ele>272.176</ele>
        <time>2019-09-30T09:15:22Z</time>
      </trkpt>
      <trkpt lat="47.50569" lon="6.3662">
        <ele>271.936</ele>
        <time>2019-09-30T09:15:25Z</time>
      </trkpt>
      <trkpt lat="47.50569" lon="6.36607">
        <ele>272.133</ele>
        <time>2019-09-30T09:15:28Z</time>
      </trkpt>
      <trkpt lat="47.50568" lon="6.36594">
        <ele>272.236</ele>
        <time>2019-09-30T09:15:31Z</time>
      </trkpt>
      <trkpt lat="47.50567" lon="6.36583">
        <ele>272.807</ele>
        <time>2019-09-30T09:15:34Z</time>
      </trkpt>
      <trkpt lat="47.50563" lon="6.36571">
        <ele>273.432</ele>
        <time>2019-09-30T09:15:37Z</time>
      </trkpt>
      <trkpt lat="47.50559" lon="6.36562">
        <ele>273.872</ele>
        <time>2019-09-30T09:15:40Z</time>
      </trkpt>
      <trkpt lat="47.50554" lon="6.36553">
        <ele>273.539</ele>
        <time>2019-09-30T09:15:43Z</time>
      </trkpt>
      <trkpt lat="47.5055" lon="6.36545">
        <ele>273.373</ele>
        <time>2019-09-30T09:15:46Z</time>
      </trkpt>
      <trkpt lat="47.50546" lon="6.36538">
        <ele>272.81</ele>
        <time>2019-09-30T09:15:49Z</time>
      </trkpt>
      <trkpt lat="47.50543" lon="6.36531">
        <ele>272.302</ele>
        <time>2019-09-30T09:15:52Z</time>
      </trkpt>
      <trkpt lat="47.50537" lon="6.36524">
        <ele>271.936</ele>
        <time>2019-09-30T09:15:55Z</time>
      </trkpt>
      <trkpt lat="47.50531" lon="6.36516">
        <ele>272.099</ele>
        <time>2019-09-30T09:15:58Z</time>
      </trkpt>
      <trkpt lat="47.50527" lon="6.36507">
        <ele>272.045</ele>
        <time>2019-09-30T09:16:01Z</time>
      </trkpt>
      <trkpt lat="47.50523" lon="6.36499">
        <ele>272.318</ele>
        <time>2019-09-30T09:16:04Z</time>
      </trkpt>
      <trkpt lat="47.50519" lon="6.3649">
        <ele>273.556</ele>
        <time>2019-09-30T09:16:07Z</time>
      </trkpt>
      <trkpt lat="47.50516" lon="6.36482">
        <ele>275.26</ele>
        <time>2019-09-30T09:16:10Z</time>
      </trkpt>
      <trkpt lat="47.50513" lon="6.36474">
        <ele>276.316</ele>
        <time>2019-09-30T09:16:13Z</time>
      </trkpt>
      <trkpt lat="47.5051" lon="6.36466">
        <ele>277.566</ele>
        <time>2019-09-30T09:16:16Z</time>
      </trkpt>
      <trkpt lat="47.50507" lon="6.36459">
        <ele>278.39</ele>
        <time>2019-09-30T09:16:19Z</time>
      </trkpt>
      <trkpt lat="47.50504" lon="6.3645">
        <ele>279.435</ele>
        <time>2019-09-30T09:16:22Z</time>
      </trkpt>
      <trkpt lat="47.50502" lon="6.36442">
        <ele>279.861</ele>
        <time>2019-09-30T09:16:25Z</time>
      </trkpt>
      <trkpt lat="47.50497" lon="6.36432">
        <ele>280.672</ele>
        <time>2019-09-30T09:16:28Z</time>
      </trkpt>
      <trkpt lat="47.50492" lon="6.36422">
        <ele>281.033</ele>
        <time>2019-09-30T09:16:31Z</time>
      </trkpt>
      <trkpt lat="47.50488" lon="6.36412">
        <ele>281.037</ele>
        <time>2019-09-30T09:16:34Z</time>
      </trkpt>
      <trkpt lat="47.50484" lon="6.36402">
        <ele>280.972</ele>
        <time>2019-09-30T09:16:37Z</time>
      </trkpt>
      <trkpt lat="47.50478" lon="6.3639">
        <ele>280.95</ele>
        <time>2019-09-30T09:16:40Z</time>
      </trkpt>
      <trkpt lat="47.50472" lon="6.36376">
        <ele>280.685</ele>
        <time>2019-09-30T09:16:43Z</time>
      </trkpt>
      <trkpt lat="47.50466" lon="6.36362">
        <ele>279.961</ele>
        <time>2019-09-30T09:16:46Z</time>
      </trkpt>
      <trkpt lat="47.50461" lon="6.36346">
        <ele>280.314</ele>
        <time>2019-09-30T09:16:49Z</time>
      </trkpt>
      <trkpt lat="47.50459" lon="6.3633">
        <ele>280.64</ele>
        <time>2019-09-30T09:16:52Z</time>
      </trkpt>
      <trkpt lat="47.50457" lon="6.36313">
        <ele>280.762</ele>
        <time>2019-09-30T09:16:55Z</time>
      </trkpt>
      <trkpt lat="47.50456" lon="6.36297">
        <ele>281.122</ele>
        <time>2019-09-30T09:16:58Z</time>
      </trkpt>
      <trkpt lat="47.50454" lon="6.36279">
        <ele>282.047</ele>
        <time>2019-09-30T09:17:01Z</time>
      </trkpt>
      <trkpt lat="47.50449" lon="6.36256">
        <ele>282.588</ele>
        <time>2019-09-30T09:17:04Z</time>
      </trkpt>
      <trkpt lat="47.50447" lon="6.36234">
        <ele>282.614</ele>
        <time>2019-09-30T09:17:07Z</time>
      </trkpt>
      <trkpt lat="47.50445" lon="6.36213">
        <ele>282.359</ele>
        <time>2019-09-30T09:17:10Z</time>
      </trkpt>
      <trkpt lat="47.50443" lon="6.36197">
        <ele>281.981</ele>
        <time>2019-09-30T09:17:13Z</time>
      </trkpt>
      <trkpt lat="47.50442" lon="6.36181">
        <ele>280.562</ele>
        <time>2019-09-30T09:17:16Z</time>
      </trkpt>
      <trkpt lat="47.50437" lon="6.3616">
        <ele>278.804</ele>
        <time>2019-09-30T09:17:19Z</time>
      </trkpt>
      <trkpt lat="47.50431" lon="6.36137">
        <ele>276.052</ele>
        <time>2019-09-30T09:17:22Z</time>
      </trkpt>
      <trkpt lat="47.50423" lon="6.36111">
        <ele>273.654</ele>
        <time>2019-09-30T09:17:25Z</time>
      </trkpt>
      <trkpt lat="47.50416" lon="6.36082">
        <ele>271.146</ele>
        <time>2019-09-30T09:17:28Z</time>
      </trkpt>
      <trkpt lat="47.50409" lon="6.36053">
        <ele>268.49</ele>
        <time>2019-09-30T09:17:31Z</time>
      </trkpt>
      <trkpt lat="47.50402" lon="6.36025">
        <ele>267.29</ele>
        <time>2019-09-30T09:17:34Z</time>
      </trkpt>
      <trkpt lat="47.50397" lon="6.36001">
        <ele>267.097</ele>
        <time>2019-09-30T09:17:37Z</time>
      </trkpt>
      <trkpt lat="47.50392" lon="6.3598">
        <ele>267.097</ele>
        <time>2019-09-30T09:17:40Z</time>
      </trkpt>
      <trkpt lat="47.5039" lon="6.35963">
        <ele>266.67</ele>
        <time>2019-09-30T09:17:43Z</time>
      </trkpt>
      <trkpt lat="47.50389" lon="6.35951">
        <ele>266.457</ele>
        <time>2019-09-30T09:17:46Z</time>
      </trkpt>
      <trkpt lat="47.50389" lon="6.35937">
        <ele>266.39</ele>
        <time>2019-09-30T09:17:49Z</time>
      </trkpt>
      <trkpt lat="47.50389" lon="6.35923">
        <ele>266.414</ele>
        <time>2019-09-30T09:17:52Z</time>
      </trkpt>
      <trkpt lat="47.5039" lon="6.35907">
        <ele>265.728</ele>
        <time>2019-09-30T09:17:55Z</time>
      </trkpt>
      <trkpt lat="47.50394" lon="6.35892">
        <ele>264.452</ele>
        <time>2019-09-30T09:17:58Z</time>
      </trkpt>
      <trkpt lat="47.50399" lon="6.35876">
        <ele>263.527</ele>
        <time>2019-09-30T09:18:01Z</time>
      </trkpt>
      <trkpt lat="47.50406" lon="6.35861">
        <ele>263.18</ele>
        <time>2019-09-30T09:18:04Z</time>
      </trkpt>
      <trkpt lat="47.50414" lon="6.35847">
        <ele>263.254</ele>
        <time>2019-09-30T09:18:07Z</time>
      </trkpt>
      <trkpt lat="47.50423" lon="6.35833">
        <ele>264.131</ele>
        <time>2019-09-30T09:18:10Z</time>
      </trkpt>
      <trkpt lat="47.50432" lon="6.35819">
        <ele>264.747</ele>
        <time>2019-09-30T09:18:13Z</time>
      </trkpt>
      <trkpt lat="47.50441" lon="6.35803">
        <ele>265.084</ele>
        <time>2019-09-30T09:18:16Z</time>
      </trkpt>
      <trkpt lat="47.50453" lon="6.35786">
        <ele>265.287</ele>
        <time>2019-09-30T09:18:19Z</time>
      </trkpt>
      <trkpt lat="47.50467" lon="6.35771">
        <ele>265.253</ele>
        <time>2019-09-30T09:18:22Z</time>
      </trkpt>
      <trkpt lat="47.50483" lon="6.3575">
        <ele>265.586</ele>
        <time>2019-09-30T09:18:25Z</time>
      </trkpt>
      <trkpt lat="47.50502" lon="6.35726">
        <ele>265.808</ele>
        <time>2019-09-30T09:18:28Z</time>
      </trkpt>
      <trkpt lat="47.5052" lon="6.35699">
        <ele>267.628</ele>
        <time>2019-09-30T09:18:31Z</time>
      </trkpt>
      <trkpt lat="47.50539" lon="6.35674">
        <ele>267.204</ele>
        <time>2019-09-30T09:18:34Z</time>
      </trkpt>
      <trkpt lat="47.50557" lon="6.35652">
        <ele>266.769</ele>
        <time>2019-09-30T09:18:37Z</time>
      </trkpt>
      <trkpt lat="47.50575" lon="6.3563">
        <ele>266.118</ele>
        <time>2019-09-30T09:18:40Z</time>
      </trkpt>
      <trkpt lat="47.50595" lon="6.35608">
        <ele>264.646</ele>
        <time>2019-09-30T09:18:43Z</time>
      </trkpt>
      <trkpt lat="47.50614" lon="6.35587">
        <ele>264.537</ele>
        <time>2019-09-30T09:18:46Z</time>
      </trkpt>
      <trkpt lat="47.50632" lon="6.35569">
        <ele>264.344</ele>
        <time>2019-09-30T09:18:49Z</time>
      </trkpt>
      <trkpt lat="47.50646" lon="6.35557">
        <ele>263.482</ele>
        <time>2019-09-30T09:18:52Z</time>
      </trkpt>
      <trkpt lat="47.50656" lon="6.35551">
        <ele>261.927</ele>
        <time>2019-09-30T09:18:55Z</time>
      </trkpt>
      <trkpt lat="47.50663" lon="6.35545">
        <ele>261.554</ele>
        <time>2019-09-30T09:18:58Z</time>
      </trkpt>
      <trkpt lat="47.5066" lon="6.35536">
        <ele>262.514</ele>
        <time>2019-09-30T09:19:01Z</time>
      </trkpt>
      <trkpt lat="47.50653" lon="6.35532">
        <ele>261.976</ele>
        <time>2019-09-30T09:19:04Z</time>
      </trkpt>
      <trkpt lat="47.50645" lon="6.3553">
        <ele>260.954</ele>
        <time>2019-09-30T09:19:07Z</time>
      </trkpt>
      <trkpt lat="47.50635" lon="6.35527">
        <ele>259.028</ele>
        <time>2019-09-30T09:19:10Z</time>
      </trkpt>
      <trkpt lat="47.50625" lon="6.35517">
        <ele>258.556</ele>
        <time>2019-09-30T09:19:13Z</time>
      </trkpt>
      <trkpt lat="47.50612" lon="6.35503">
        <ele>258.5</ele>
        <time>2019-09-30T09:19:16Z</time>
      </trkpt>
      <trkpt lat="47.50597" lon="6.35484">
        <ele>258.826</ele>
        <time>2019-09-30T09:19:19Z</time>
      </trkpt>
      <trkpt lat="47.50582" lon="6.35463">
        <ele>258.525</ele>
        <time>2019-09-30T09:19:22Z</time>
      </trkpt>
      <trkpt lat="47.5057" lon="6.3544">
        <ele>258.029</ele>
        <time>2019-09-30T09:19:25Z</time>
      </trkpt>
      <trkpt lat="47.5056" lon="6.35421">
        <ele>257.956</ele>
        <time>2019-09-30T09:19:28Z</time>
      </trkpt>
      <trkpt lat="47.50552" lon="6.35404">
        <ele>258.747</ele>
        <time>2019-09-30T09:19:31Z</time>
      </trkpt>
      <trkpt lat="47.50544" lon="6.3539">
        <ele>258.949</ele>
        <time>2019-09-30T09:19:34Z</time>
      </trkpt>
      <trkpt lat="47.50538" lon="6.35381">
        <ele>259.51</ele>
        <time>2019-09-30T09:19:37Z</time>
      </trkpt>
      <trkpt lat="47.50529" lon="6.35371">
        <ele>260.966</ele>
        <time>2019-09-30T09:19:40Z</time>
      </trkpt>
      <trkpt lat="47.50519" lon="6.35366">
        <ele>261.616</ele>
        <time>2019-09-30T09:19:43Z</time>
      </trkpt>
      <trkpt lat="47.50508" lon="6.35363">
        <ele>261.56</ele>
        <time>2019-09-30T09:19:46Z</time>
      </trkpt>
      <trkpt lat="47.50499" lon="6.35362">
        <ele>261.841</ele>
        <time>2019-09-30T09:19:49Z</time>
      </trkpt>
      <trkpt lat="47.50493" lon="6.35363">
        <ele>262.462</ele>
        <time>2019-09-30T09:19:52Z</time>
      </trkpt>
      <trkpt lat="47.50485" lon="6.35366">
        <ele>263.817</ele>
        <time>2019-09-30T09:19:55Z</time>
      </trkpt>
      <trkpt lat="47.50478" lon="6.3537">
        <ele>264.772</ele>
        <time>2019-09-30T09:19:58Z</time>
      </trkpt>
      <trkpt lat="47.50471" lon="6.35375">
        <ele>266.062</ele>
        <time>2019-09-30T09:20:01Z</time>
      </trkpt>
      <trkpt lat="47.50465" lon="6.35382">
        <ele>266.517</ele>
        <time>2019-09-30T09:20:04Z</time>
      </trkpt>
      <trkpt lat="47.50459" lon="6.35388">
        <ele>267.619</ele>
        <time>2019-09-30T09:20:07Z</time>
      </trkpt>
      <trkpt lat="47.50452" lon="6.35393">
        <ele>268.941</ele>
        <time>2019-09-30T09:20:10Z</time>
      </trkpt>
      <trkpt lat="47.50446" lon="6.354">
        <ele>270.58</ele>
        <time>2019-09-30T09:20:13Z</time>
      </trkpt>
      <trkpt lat="47.50439" lon="6.35407">
        <ele>272.605</ele>
        <time>2019-09-30T09:20:16Z</time>
      </trkpt>
      <trkpt lat="47.50433" lon="6.35414">
        <ele>274.715</ele>
        <time>2019-09-30T09:20:19Z</time>
      </trkpt>
      <trkpt lat="47.50425" lon="6.35418">
        <ele>276.071</ele>
        <time>2019-09-30T09:20:22Z</time>
      </trkpt>
      <trkpt lat="47.50417" lon="6.35423">
        <ele>276.539</ele>
        <time>2019-09-30T09:20:25Z</time>
      </trkpt>
      <trkpt lat="47.50409" lon="6.35426">
        <ele>277.508</ele>
        <time>2019-09-30T09:20:28Z</time>
      </trkpt>
      <trkpt lat="47.50401" lon="6.35429">
        <ele>278.769</ele>
        <time>2019-09-30T09:20:31Z</time>
      </trkpt>
      <trkpt lat="47.50394" lon="6.35432">
        <ele>279.238</ele>
        <time>2019-09-30T09:20:34Z</time>
      </trkpt>
      <trkpt lat="47.50386" lon="6.35434">
        <ele>279.846</ele>
        <time>2019-09-30T09:20:37Z</time>
      </trkpt>
      <trkpt lat="47.50378" lon="6.35435">
        <ele>281.147</ele>
        <time>2019-09-30T09:20:40Z</time>
      </trkpt>
      <trkpt lat="47.5037" lon="6.35437">
        <ele>281.366</ele>
        <time>2019-09-30T09:20:43Z</time>
      </trkpt>
      <trkpt lat="47.50359" lon="6.35439">
        <ele>281.808</ele>
        <time>2019-09-30T09:20:46Z</time>
      </trkpt>
      <trkpt lat="47.50349" lon="6.35443">
        <ele>282.599</ele>
        <time>2019-09-30T09:20:49Z</time>
      </trkpt>
      <trkpt lat="47.5034" lon="6.35445">
        <ele>283.453</ele>
        <time>2019-09-30T09:20:52Z</time>
      </trkpt>
      <trkpt lat="47.50332" lon="6.35447">
        <ele>283.706</ele>
        <time>2019-09-30T09:20:55Z</time>
      </trkpt>
      <trkpt lat="47.50324" lon="6.35449">
        <ele>283.88</ele>
        <time>2019-09-30T09:20:58Z</time>
      </trkpt>
      <trkpt lat="47.50317" lon="6.35452">
        <ele>284.416</ele>
        <time>2019-09-30T09:21:01Z</time>
      </trkpt>
      <trkpt lat="47.50312" lon="6.35454">
        <ele>285.54</ele>
        <time>2019-09-30T09:21:04Z</time>
      </trkpt>
      <trkpt lat="47.50306" lon="6.35456">
        <ele>286.006</ele>
        <time>2019-09-30T09:21:07Z</time>
      </trkpt>
      <trkpt lat="47.50299" lon="6.35461">
        <ele>285.493</ele>
        <time>2019-09-30T09:21:10Z</time>
      </trkpt>
      <trkpt lat="47.50291" lon="6.35469">
        <ele>285.276</ele>
        <time>2019-09-30T09:21:13Z</time>
      </trkpt>
      <trkpt lat="47.50283" lon="6.35476">
        <ele>285.474</ele>
        <time>2019-09-30T09:21:16Z</time>
      </trkpt>
      <trkpt lat="47.50277" lon="6.35482">
        <ele>287.109</ele>
        <time>2019-09-30T09:21:19Z</time>
      </trkpt>
      <trkpt lat="47.50271" lon="6.35488">
        <ele>288.724</ele>
        <time>2019-09-30T09:21:22Z</time>
      </trkpt>
      <trkpt lat="47.50266" lon="6.35495">
        <ele>289.063</ele>
        <time>2019-09-30T09:21:25Z</time>
      </trkpt>
      <trkpt lat="47.50261" lon="6.35504">
        <ele>288.479</ele>
        <time>2019-09-30T09:21:28Z</time>
      </trkpt>
      <trkpt lat="47.50255" lon="6.35513">
        <ele>289.057</ele>
        <time>2019-09-30T09:21:31Z</time>
      </trkpt>
      <trkpt lat="47.5025" lon="6.35522">
        <ele>289.236</ele>
        <time>2019-09-30T09:21:34Z</time>
      </trkpt>
      <trkpt lat="47.50245" lon="6.3553">
        <ele>289.005</ele>
        <time>2019-09-30T09:21:37Z</time>
      </trkpt>
      <trkpt lat="47.50242" lon="6.35539">
        <ele>289.527</ele>
        <time>2019-09-30T09:21:40Z</time>
      </trkpt>
      <trkpt lat="47.5024" lon="6.35549">
        <ele>290.244</ele>
        <time>2019-09-30T09:21:43Z</time>
      </trkpt>
      <trkpt lat="47.50237" lon="6.35559">
        <ele>289.711</ele>
        <time>2019-09-30T09:21:46Z</time>
      </trkpt>
      <trkpt lat="47.50233" lon="6.35569">
        <ele>290.379</ele>
        <time>2019-09-30T09:21:49Z</time>
      </trkpt>
      <trkpt lat="47.50229" lon="6.35578">
        <ele>291.071</ele>
        <time>2019-09-30T09:21:52Z</time>
      </trkpt>
      <trkpt lat="47.50223" lon="6.35587">
        <ele>291.354</ele>
        <time>2019-09-30T09:21:55Z</time>
      </trkpt>
      <trkpt lat="47.50217" lon="6.35595">
        <ele>291.846</ele>
        <time>2019-09-30T09:21:58Z</time>
      </trkpt>
      <trkpt lat="47.50213" lon="6.35602">
        <ele>292.922</ele>
        <time>2019-09-30T09:22:01Z</time>
      </trkpt>
      <trkpt lat="47.50207" lon="6.35607">
        <ele>293.958</ele>
        <time>2019-09-30T09:22:04Z</time>
      </trkpt>
      <trkpt lat="47.50202" lon="6.35611">
        <ele>295.125</ele>
        <time>2019-09-30T09:22:07Z</time>
      </trkpt>
      <trkpt lat="47.50195" lon="6.35614">
        <ele>296.491</ele>
        <time>2019-09-30T09:22:10Z</time>
      </trkpt>
      <trkpt lat="47.5019" lon="6.35617">
        <ele>297.677</ele>
        <time>2019-09-30T09:22:13Z</time>
      </trkpt>
      <trkpt lat="47.50184" lon="6.35619">
        <ele>298.373</ele>
        <time>2019-09-30T09:22:16Z</time>
      </trkpt>
      <trkpt lat="47.50177" lon="6.3562">
        <ele>297.801</ele>
        <time>2019-09-30T09:22:19Z</time>
      </trkpt>
      <trkpt lat="47.50169" lon="6.3562">
        <ele>297.199</ele>
        <time>2019-09-30T09:22:22Z</time>
      </trkpt>
      <trkpt lat="47.50158" lon="6.35621">
        <ele>296.371</ele>
        <time>2019-09-30T09:22:25Z</time>
      </trkpt>
      <trkpt lat="47.50148" lon="6.35621">
        <ele>296.274</ele>
        <time>2019-09-30T09:22:28Z</time>
      </trkpt>
      <trkpt lat="47.50139" lon="6.35618">
        <ele>296.444</ele>
        <time>2019-09-30T09:22:31Z</time>
      </trkpt>
      <trkpt lat="47.5013" lon="6.35613">
        <ele>296.996</ele>
        <time>2019-09-30T09:22:34Z</time>
      </trkpt>
      <trkpt lat="47.50124" lon="6.35609">
        <ele>298.645</ele>
        <time>2019-09-30T09:22:37Z</time>
      </trkpt>
      <trkpt lat="47.50119" lon="6.35604">
        <ele>297.885</ele>
        <time>2019-09-30T09:22:40Z</time>
      </trkpt>
      <trkpt lat="47.50114" lon="6.35597">
        <ele>297.471</ele>
        <time>2019-09-30T09:22:43Z</time>
      </trkpt>
      <trkpt lat="47.5011" lon="6.35592">
        <ele>297.443</ele>
        <time>2019-09-30T09:22:46Z</time>
      </trkpt>
      <trkpt lat="47.50104" lon="6.35586">
        <ele>298.308</ele>
        <time>2019-09-30T09:22:49Z</time>
      </trkpt>
      <trkpt lat="47.501" lon="6.35581">
        <ele>299.442</ele>
        <time>2019-09-30T09:22:52Z</time>
      </trkpt>
      <trkpt lat="47.50094" lon="6.35575">
        <ele>300.259</ele>
        <time>2019-09-30T09:22:55Z</time>
      </trkpt>
      <trkpt lat="47.50089" lon="6.3557">
        <ele>301.985</ele>
        <time>2019-09-30T09:22:58Z</time>
      </trkpt>
      <trkpt lat="47.50084" lon="6.35564">
        <ele>303.164</ele>
        <time>2019-09-30T09:23:01.001Z</time>
      </trkpt>
      <trkpt lat="47.50079" lon="6.35557">
        <ele>303.214</ele>
        <time>2019-09-30T09:23:04Z</time>
      </trkpt>
      <trkpt lat="47.50074" lon="6.3555">
        <ele>303.552</ele>
        <time>2019-09-30T09:23:07Z</time>
      </trkpt>
      <trkpt lat="47.5007" lon="6.35542">
        <ele>303.45</ele>
        <time>2019-09-30T09:23:10Z</time>
      </trkpt>
      <trkpt lat="47.50065" lon="6.35534">
        <ele>304.094</ele>
        <time>2019-09-30T09:23:13Z</time>
      </trkpt>
      <trkpt lat="47.50059" lon="6.35527">
        <ele>305.238</ele>
        <time>2019-09-30T09:23:16Z</time>
      </trkpt>
      <trkpt lat="47.50052" lon="6.35518">
        <ele>305.892</ele>
        <time>2019-09-30T09:23:19Z</time>
      </trkpt>
      <trkpt lat="47.50046" lon="6.35509">
        <ele>305.5</ele>
        <time>2019-09-30T09:23:22Z</time>
      </trkpt>
      <trkpt lat="47.5004" lon="6.355">
        <ele>304.748</ele>
        <time>2019-09-30T09:23:25Z</time>
      </trkpt>
      <trkpt lat="47.50034" lon="6.35492">
        <ele>305.13</ele>
        <time>2019-09-30T09:23:28Z</time>
      </trkpt>
      <trkpt lat="47.50029" lon="6.35484">
        <ele>306.406</ele>
        <time>2019-09-30T09:23:31Z</time>
      </trkpt>
      <trkpt lat="47.50023" lon="6.35476">
        <ele>307.53</ele>
        <time>2019-09-30T09:23:34Z</time>
      </trkpt>
      <trkpt lat="47.50016" lon="6.35469">
        <ele>309.486</ele>
        <time>2019-09-30T09:23:37Z</time>
      </trkpt>
      <trkpt lat="47.5001" lon="6.35461">
        <ele>311.59</ele>
        <time>2019-09-30T09:23:40Z</time>
      </trkpt>
      <trkpt lat="47.50004" lon="6.35453">
        <ele>313.663</ele>
        <time>2019-09-30T09:23:43Z</time>
      </trkpt>
      <trkpt lat="47.49999" lon="6.35444">
        <ele>314.932</ele>
        <time>2019-09-30T09:23:46Z</time>
      </trkpt>
      <trkpt lat="47.49992" lon="6.35434">
        <ele>315.807</ele>
        <time>2019-09-30T09:23:49Z</time>
      </trkpt>
      <trkpt lat="47.4998" lon="6.35422">
        <ele>315.405</ele>
        <time>2019-09-30T09:23:52Z</time>
      </trkpt>
      <trkpt lat="47.49967" lon="6.35408">
        <ele>313.892</ele>
        <time>2019-09-30T09:23:55Z</time>
      </trkpt>
      <trkpt lat="47.49955" lon="6.35395">
        <ele>311.389</ele>
        <time>2019-09-30T09:23:58Z</time>
      </trkpt>
      <trkpt lat="47.49945" lon="6.35382">
        <ele>309.81</ele>
        <time>2019-09-30T09:24:01Z</time>
      </trkpt>
      <trkpt lat="47.49937" lon="6.35371">
        <ele>309.396</ele>
        <time>2019-09-30T09:24:04Z</time>
      </trkpt>
      <trkpt lat="47.49927" lon="6.35358">
        <ele>308.913</ele>
        <time>2019-09-30T09:24:07Z</time>
      </trkpt>
      <trkpt lat="47.49916" lon="6.35345">
        <ele>308.142</ele>
        <time>2019-09-30T09:24:10Z</time>
      </trkpt>
      <trkpt lat="47.49907" lon="6.35333">
        <ele>307.976</ele>
        <time>2019-09-30T09:24:13Z</time>
      </trkpt>
      <trkpt lat="47.49897" lon="6.35321">
        <ele>308.893</ele>
        <time>2019-09-30T09:24:16Z</time>
      </trkpt>
      <trkpt lat="47.49887" lon="6.35308">
        <ele>308.391</ele>
        <time>2019-09-30T09:24:19Z</time>
      </trkpt>
      <trkpt lat="47.49877" lon="6.35296">
        <ele>307.334</ele>
        <time>2019-09-30T09:24:22Z</time>
      </trkpt>
      <trkpt lat="47.49866" lon="6.35285">
        <ele>307.585</ele>
        <time>2019-09-30T09:24:25Z</time>
      </trkpt>
      <trkpt lat="47.49856" lon="6.35276">
        <ele>307.855</ele>
        <time>2019-09-30T09:24:28Z</time>
      </trkpt>
      <trkpt lat="47.49843" lon="6.35269">
        <ele>308.146</ele>
        <time>2019-09-30T09:24:31Z</time>
      </trkpt>
      <trkpt lat="47.4983" lon="6.35264">
        <ele>308.992</ele>
        <time>2019-09-30T09:24:34Z</time>
      </trkpt>
      <trkpt lat="47.49816" lon="6.35259">
        <ele>309.115</ele>
        <time>2019-09-30T09:24:37Z</time>
      </trkpt>
      <trkpt lat="47.49801" lon="6.35255">
        <ele>308.144</ele>
        <time>2019-09-30T09:24:40Z</time>
      </trkpt>
      <trkpt lat="47.49785" lon="6.35251">
        <ele>305.935</ele>
        <time>2019-09-30T09:24:43Z</time>
      </trkpt>
      <trkpt lat="47.4977" lon="6.3525">
        <ele>304.178</ele>
        <time>2019-09-30T09:24:46Z</time>
      </trkpt>
      <trkpt lat="47.49754" lon="6.3525">
        <ele>301.725</ele>
        <time>2019-09-30T09:24:49Z</time>
      </trkpt>
      <trkpt lat="47.49738" lon="6.35251">
        <ele>298.532</ele>
        <time>2019-09-30T09:24:52Z</time>
      </trkpt>
      <trkpt lat="47.49723" lon="6.35253">
        <ele>295.721</ele>
        <time>2019-09-30T09:24:55Z</time>
      </trkpt>
      <trkpt lat="47.49708" lon="6.35257">
        <ele>292.855</ele>
        <time>2019-09-30T09:24:58Z</time>
      </trkpt>
      <trkpt lat="47.49693" lon="6.3526">
        <ele>290.428</ele>
        <time>2019-09-30T09:25:01Z</time>
      </trkpt>
      <trkpt lat="47.49679" lon="6.35265">
        <ele>288.769</ele>
        <time>2019-09-30T09:25:04Z</time>
      </trkpt>
      <trkpt lat="47.49664" lon="6.35269">
        <ele>287.589</ele>
        <time>2019-09-30T09:25:07Z</time>
      </trkpt>
      <trkpt lat="47.49649" lon="6.35273">
        <ele>286.303</ele>
        <time>2019-09-30T09:25:10Z</time>
      </trkpt>
      <trkpt lat="47.49632" lon="6.35278">
        <ele>285.189</ele>
        <time>2019-09-30T09:25:13Z</time>
      </trkpt>
      <trkpt lat="47.49613" lon="6.35281">
        <ele>283.973</ele>
        <time>2019-09-30T09:25:16Z</time>
      </trkpt>
      <trkpt lat="47.4959" lon="6.35287">
        <ele>282.209</ele>
        <time>2019-09-30T09:25:19Z</time>
      </trkpt>
      <trkpt lat="47.49564" lon="6.35291">
        <ele>280.675</ele>
        <time>2019-09-30T09:25:22Z</time>
      </trkpt>
      <trkpt lat="47.49536" lon="6.35296">
        <ele>278.667</ele>
        <time>2019-09-30T09:25:25Z</time>
      </trkpt>
      <trkpt lat="47.49508" lon="6.35299">
        <ele>276.878</ele>
        <time>2019-09-30T09:25:28Z</time>
      </trkpt>
      <trkpt lat="47.4948" lon="6.35302">
        <ele>275.325</ele>
        <time>2019-09-30T09:25:31Z</time>
      </trkpt>
      <trkpt lat="47.49454" lon="6.35304">
        <ele>274.144</ele>
        <time>2019-09-30T09:25:34Z</time>
      </trkpt>
      <trkpt lat="47.49431" lon="6.35307">
        <ele>273.216</ele>
        <time>2019-09-30T09:25:37Z</time>
      </trkpt>
      <trkpt lat="47.4941" lon="6.3531">
        <ele>272.286</ele>
        <time>2019-09-30T09:25:40Z</time>
      </trkpt>
      <trkpt lat="47.4939" lon="6.35315">
        <ele>271.618</ele>
        <time>2019-09-30T09:25:43Z</time>
      </trkpt>
      <trkpt lat="47.49373" lon="6.35319">
        <ele>270.767</ele>
        <time>2019-09-30T09:25:46Z</time>
      </trkpt>
      <trkpt lat="47.49359" lon="6.35323">
        <ele>269.774</ele>
        <time>2019-09-30T09:25:49Z</time>
      </trkpt>
      <trkpt lat="47.49343" lon="6.35325">
        <ele>269.14</ele>
        <time>2019-09-30T09:25:52Z</time>
      </trkpt>
      <trkpt lat="47.49328" lon="6.35326">
        <ele>268.707</ele>
        <time>2019-09-30T09:25:55Z</time>
      </trkpt>
      <trkpt lat="47.49314" lon="6.35326">
        <ele>270.109</ele>
        <time>2019-09-30T09:25:58Z</time>
      </trkpt>
      <trkpt lat="47.49301" lon="6.35324">
        <ele>271.494</ele>
        <time>2019-09-30T09:26:01Z</time>
      </trkpt>
      <trkpt lat="47.4929" lon="6.35322">
        <ele>272.071</ele>
        <time>2019-09-30T09:26:04Z</time>
      </trkpt>
      <trkpt lat="47.49279" lon="6.35319">
        <ele>273.277</ele>
        <time>2019-09-30T09:26:07Z</time>
      </trkpt>
      <trkpt lat="47.49268" lon="6.35315">
        <ele>274.18</ele>
        <time>2019-09-30T09:26:10Z</time>
      </trkpt>
      <trkpt lat="47.49258" lon="6.35313">
        <ele>275.61</ele>
        <time>2019-09-30T09:26:13Z</time>
      </trkpt>
      <trkpt lat="47.49247" lon="6.3531">
        <ele>277.259</ele>
        <time>2019-09-30T09:26:16Z</time>
      </trkpt>
      <trkpt lat="47.49237" lon="6.35308">
        <ele>278.889</ele>
        <time>2019-09-30T09:26:19Z</time>
      </trkpt>
      <trkpt lat="47.49227" lon="6.35306">
        <ele>279.491</ele>
        <time>2019-09-30T09:26:22Z</time>
      </trkpt>
      <trkpt lat="47.49217" lon="6.35304">
        <ele>279.679</ele>
        <time>2019-09-30T09:26:25Z</time>
      </trkpt>
      <trkpt lat="47.49208" lon="6.35302">
        <ele>280.121</ele>
        <time>2019-09-30T09:26:28Z</time>
      </trkpt>
      <trkpt lat="47.49199" lon="6.35301">
        <ele>280.15</ele>
        <time>2019-09-30T09:26:31Z</time>
      </trkpt>
      <trkpt lat="47.49191" lon="6.35301">
        <ele>280.671</ele>
        <time>2019-09-30T09:26:34Z</time>
      </trkpt>
      <trkpt lat="47.49183" lon="6.35304">
        <ele>281.061</ele>
        <time>2019-09-30T09:26:37Z</time>
      </trkpt>
      <trkpt lat="47.49175" lon="6.35309">
        <ele>281.503</ele>
        <time>2019-09-30T09:26:40Z</time>
      </trkpt>
      <trkpt lat="47.49167" lon="6.35316">
        <ele>282.162</ele>
        <time>2019-09-30T09:26:43Z</time>
      </trkpt>
      <trkpt lat="47.4916" lon="6.35325">
        <ele>282.24</ele>
        <time>2019-09-30T09:26:46Z</time>
      </trkpt>
      <trkpt lat="47.49151" lon="6.35334">
        <ele>282.57</ele>
        <time>2019-09-30T09:26:49Z</time>
      </trkpt>
      <trkpt lat="47.49142" lon="6.35344">
        <ele>282.635</ele>
        <time>2019-09-30T09:26:52Z</time>
      </trkpt>
      <trkpt lat="47.49133" lon="6.35353">
        <ele>283.032</ele>
        <time>2019-09-30T09:26:55Z</time>
      </trkpt>
      <trkpt lat="47.49123" lon="6.3536">
        <ele>283.173</ele>
        <time>2019-09-30T09:26:58Z</time>
      </trkpt>
      <trkpt lat="47.49113" lon="6.35365">
        <ele>283.174</ele>
        <time>2019-09-30T09:27:01Z</time>
      </trkpt>
      <trkpt lat="47.49103" lon="6.35369">
        <ele>282.466</ele>
        <time>2019-09-30T09:27:04Z</time>
      </trkpt>
      <trkpt lat="47.49092" lon="6.35371">
        <ele>282.03</ele>
        <time>2019-09-30T09:27:07Z</time>
      </trkpt>
      <trkpt lat="47.49082" lon="6.35373">
        <ele>281.731</ele>
        <time>2019-09-30T09:27:10Z</time>
      </trkpt>
      <trkpt lat="47.49071" lon="6.35376">
        <ele>281.171</ele>
        <time>2019-09-30T09:27:13Z</time>
      </trkpt>
      <trkpt lat="47.49059" lon="6.35377">
        <ele>281.084</ele>
        <time>2019-09-30T09:27:16Z</time>
      </trkpt>
      <trkpt lat="47.49046" lon="6.35378">
        <ele>280.556</ele>
        <time>2019-09-30T09:27:19Z</time>
      </trkpt>
      <trkpt lat="47.4903" lon="6.3538">
        <ele>279.659</ele>
        <time>2019-09-30T09:27:22Z</time>
      </trkpt>
      <trkpt lat="47.49012" lon="6.35384">
        <ele>278.809</ele>
        <time>2019-09-30T09:27:25Z</time>
      </trkpt>
      <trkpt lat="47.48993" lon="6.35388">
        <ele>277.952</ele>
        <time>2019-09-30T09:27:28Z</time>
      </trkpt>
      <trkpt lat="47.48972" lon="6.35391">
        <ele>276.913</ele>
        <time>2019-09-30T09:27:31Z</time>
      </trkpt>
      <trkpt lat="47.4895" lon="6.35395">
        <ele>275.919</ele>
        <time>2019-09-30T09:27:34Z</time>
      </trkpt>
      <trkpt lat="47.48927" lon="6.35398">
        <ele>275.085</ele>
        <time>2019-09-30T09:27:37Z</time>
      </trkpt>
      <trkpt lat="47.48904" lon="6.35402">
        <ele>273.675</ele>
        <time>2019-09-30T09:27:40Z</time>
      </trkpt>
      <trkpt lat="47.48879" lon="6.35406">
        <ele>272.087</ele>
        <time>2019-09-30T09:27:43Z</time>
      </trkpt>
      <trkpt lat="47.48852" lon="6.35411">
        <ele>271.271</ele>
        <time>2019-09-30T09:27:46Z</time>
      </trkpt>
      <trkpt lat="47.48826" lon="6.35417">
        <ele>270.143</ele>
        <time>2019-09-30T09:27:49Z</time>
      </trkpt>
      <trkpt lat="47.488" lon="6.35431">
        <ele>268.958</ele>
        <time>2019-09-30T09:27:52Z</time>
      </trkpt>
      <trkpt lat="47.48777" lon="6.35454">
        <ele>267.758</ele>
        <time>2019-09-30T09:27:55Z</time>
      </trkpt>
      <trkpt lat="47.48754" lon="6.35478">
        <ele>267.152</ele>
        <time>2019-09-30T09:27:58Z</time>
      </trkpt>
      <trkpt lat="47.48728" lon="6.35498">
        <ele>266.165</ele>
        <time>2019-09-30T09:28:01Z</time>
      </trkpt>
      <trkpt lat="47.48698" lon="6.35504">
        <ele>264.854</ele>
        <time>2019-09-30T09:28:04Z</time>
      </trkpt>
      <trkpt lat="47.48668" lon="6.35501">
        <ele>263.725</ele>
        <time>2019-09-30T09:28:07Z</time>
      </trkpt>
      <trkpt lat="47.48638" lon="6.355">
        <ele>262.804</ele>
        <time>2019-09-30T09:28:10Z</time>
      </trkpt>
      <trkpt lat="47.48609" lon="6.35498">
        <ele>261.727</ele>
        <time>2019-09-30T09:28:13Z</time>
      </trkpt>
      <trkpt lat="47.48579" lon="6.35497">
        <ele>260.423</ele>
        <time>2019-09-30T09:28:16Z</time>
      </trkpt>
      <trkpt lat="47.4855" lon="6.35496">
        <ele>259.099</ele>
        <time>2019-09-30T09:28:19Z</time>
      </trkpt>
      <trkpt lat="47.4852" lon="6.35493">
        <ele>258.171</ele>
        <time>2019-09-30T09:28:22Z</time>
      </trkpt>
      <trkpt lat="47.48491" lon="6.35487">
        <ele>257.139</ele>
        <time>2019-09-30T09:28:25Z</time>
      </trkpt>
      <trkpt lat="47.48461" lon="6.35479">
        <ele>256.734</ele>
        <time>2019-09-30T09:28:28Z</time>
      </trkpt>
      <trkpt lat="47.48433" lon="6.35471">
        <ele>255.778</ele>
        <time>2019-09-30T09:28:31Z</time>
      </trkpt>
      <trkpt lat="47.48405" lon="6.35464">
        <ele>254.755</ele>
        <time>2019-09-30T09:28:34Z</time>
      </trkpt>
      <trkpt lat="47.48377" lon="6.35463">
        <ele>254.156</ele>
        <time>2019-09-30T09:28:37Z</time>
      </trkpt>
      <trkpt lat="47.4835" lon="6.35465">
        <ele>253.306</ele>
        <time>2019-09-30T09:28:40Z</time>
      </trkpt>
      <trkpt lat="47.48323" lon="6.35467">
        <ele>252.416</ele>
        <time>2019-09-30T09:28:43Z</time>
      </trkpt>
      <trkpt lat="47.48296" lon="6.35469">
        <ele>251.188</ele>
        <time>2019-09-30T09:28:46Z</time>
      </trkpt>
      <trkpt lat="47.4827" lon="6.35471">
        <ele>250.57</ele>
        <time>2019-09-30T09:28:49Z</time>
      </trkpt>
      <trkpt lat="47.48248" lon="6.35473">
        <ele>250.115</ele>
        <time>2019-09-30T09:28:52Z</time>
      </trkpt>
      <trkpt lat="47.4823" lon="6.35477">
        <ele>249.996</ele>
        <time>2019-09-30T09:28:55Z</time>
      </trkpt>
      <trkpt lat="47.48219" lon="6.35497">
        <ele>249.701</ele>
        <time>2019-09-30T09:28:58Z</time>
      </trkpt>
      <trkpt lat="47.48215" lon="6.35523">
        <ele>249.343</ele>
        <time>2019-09-30T09:29:01Z</time>
      </trkpt>
      <trkpt lat="47.48211" lon="6.35548">
        <ele>249.396</ele>
        <time>2019-09-30T09:29:04Z</time>
      </trkpt>
      <trkpt lat="47.48204" lon="6.3557">
        <ele>249.461</ele>
        <time>2019-09-30T09:29:07Z</time>
      </trkpt>
      <trkpt lat="47.48196" lon="6.35587">
        <ele>250.276</ele>
        <time>2019-09-30T09:29:10Z</time>
      </trkpt>
      <trkpt lat="47.48184" lon="6.3559">
        <ele>250.997</ele>
        <time>2019-09-30T09:29:13Z</time>
      </trkpt>
      <trkpt lat="47.48172" lon="6.35576">
        <ele>251.612</ele>
        <time>2019-09-30T09:29:16Z</time>
      </trkpt>
      <trkpt lat="47.48159" lon="6.35566">
        <ele>252.172</ele>
        <time>2019-09-30T09:29:19Z</time>
      </trkpt>
      <trkpt lat="47.48146" lon="6.35553">
        <ele>252.83</ele>
        <time>2019-09-30T09:29:22Z</time>
      </trkpt>
      <trkpt lat="47.48132" lon="6.3554">
        <ele>252.947</ele>
        <time>2019-09-30T09:29:25Z</time>
      </trkpt>
      <trkpt lat="47.48118" lon="6.35528">
        <ele>253.459</ele>
        <time>2019-09-30T09:29:28Z</time>
      </trkpt>
      <trkpt lat="47.48105" lon="6.35519">
        <ele>255.275</ele>
        <time>2019-09-30T09:29:31Z</time>
      </trkpt>
      <trkpt lat="47.48092" lon="6.35515">
        <ele>256.517</ele>
        <time>2019-09-30T09:29:34Z</time>
      </trkpt>
      <trkpt lat="47.48081" lon="6.35512">
        <ele>258.375</ele>
        <time>2019-09-30T09:29:37Z</time>
      </trkpt>
      <trkpt lat="47.48069" lon="6.35506">
        <ele>259.642</ele>
        <time>2019-09-30T09:29:40Z</time>
      </trkpt>
      <trkpt lat="47.48056" lon="6.35501">
        <ele>260.176</ele>
        <time>2019-09-30T09:29:43Z</time>
      </trkpt>
      <trkpt lat="47.48042" lon="6.35494">
        <ele>260.684</ele>
        <time>2019-09-30T09:29:46Z</time>
      </trkpt>
      <trkpt lat="47.48029" lon="6.35489">
        <ele>260.757</ele>
        <time>2019-09-30T09:29:49Z</time>
      </trkpt>
      <trkpt lat="47.4802" lon="6.35486">
        <ele>260.454</ele>
        <time>2019-09-30T09:29:52Z</time>
      </trkpt>
      <trkpt lat="47.48015" lon="6.35495">
        <ele>259.837</ele>
        <time>2019-09-30T09:29:55Z</time>
      </trkpt>
      <trkpt lat="47.48019" lon="6.35513">
        <ele>260.191</ele>
        <time>2019-09-30T09:29:58Z</time>
      </trkpt>
      <trkpt lat="47.48023" lon="6.35532">
        <ele>259.877</ele>
        <time>2019-09-30T09:30:01Z</time>
      </trkpt>
      <trkpt lat="47.48027" lon="6.35552">
        <ele>260.123</ele>
        <time>2019-09-30T09:30:04Z</time>
      </trkpt>
      <trkpt lat="47.48026" lon="6.35572">
        <ele>259.696</ele>
        <time>2019-09-30T09:30:07Z</time>
      </trkpt>
      <trkpt lat="47.48023" lon="6.35593">
        <ele>260.046</ele>
        <time>2019-09-30T09:30:10Z</time>
      </trkpt>
      <trkpt lat="47.4802" lon="6.35612">
        <ele>260.794</ele>
        <time>2019-09-30T09:30:13Z</time>
      </trkpt>
      <trkpt lat="47.48018" lon="6.3563">
        <ele>261.265</ele>
        <time>2019-09-30T09:30:16Z</time>
      </trkpt>
      <trkpt lat="47.48014" lon="6.3565">
        <ele>259.643</ele>
        <time>2019-09-30T09:30:19Z</time>
      </trkpt>
      <trkpt lat="47.48011" lon="6.3567">
        <ele>257.984</ele>
        <time>2019-09-30T09:30:22Z</time>
      </trkpt>
      <trkpt lat="47.48009" lon="6.3569">
        <ele>256.922</ele>
        <time>2019-09-30T09:30:25Z</time>
      </trkpt>
      <trkpt lat="47.48003" lon="6.35707">
        <ele>256.235</ele>
        <time>2019-09-30T09:30:28Z</time>
      </trkpt>
      <trkpt lat="47.47992" lon="6.3572">
        <ele>256.117</ele>
        <time>2019-09-30T09:30:31Z</time>
      </trkpt>
      <trkpt lat="47.47981" lon="6.35734">
        <ele>258.02</ele>
        <time>2019-09-30T09:30:34Z</time>
      </trkpt>
      <trkpt lat="47.47971" lon="6.35746">
        <ele>259.812</ele>
        <time>2019-09-30T09:30:37Z</time>
      </trkpt>
      <trkpt lat="47.4796" lon="6.35757">
        <ele>260.34</ele>
        <time>2019-09-30T09:30:40Z</time>
      </trkpt>
      <trkpt lat="47.47953" lon="6.35772">
        <ele>260.57</ele>
        <time>2019-09-30T09:30:43Z</time>
      </trkpt>
      <trkpt lat="47.47956" lon="6.3579">
        <ele>260.596</ele>
        <time>2019-09-30T09:30:46Z</time>
      </trkpt>
      <trkpt lat="47.47964" lon="6.35808">
        <ele>259.93</ele>
        <time>2019-09-30T09:30:49Z</time>
      </trkpt>
      <trkpt lat="47.47971" lon="6.35826">
        <ele>259.385</ele>
        <time>2019-09-30T09:30:52Z</time>
      </trkpt>
      <trkpt lat="47.47977" lon="6.35843">
        <ele>259.28</ele>
        <time>2019-09-30T09:30:55Z</time>
      </trkpt>
      <trkpt lat="47.47985" lon="6.35864">
        <ele>259.347</ele>
        <time>2019-09-30T09:30:58Z</time>
      </trkpt>
      <trkpt lat="47.47992" lon="6.35887">
        <ele>258.412</ele>
        <time>2019-09-30T09:31:01Z</time>
      </trkpt>
      <trkpt lat="47.47999" lon="6.35911">
        <ele>257.564</ele>
        <time>2019-09-30T09:31:04Z</time>
      </trkpt>
      <trkpt lat="47.48005" lon="6.35933">
        <ele>256.978</ele>
        <time>2019-09-30T09:31:07Z</time>
      </trkpt>
      <trkpt lat="47.48008" lon="6.35956">
        <ele>256.731</ele>
        <time>2019-09-30T09:31:10Z</time>
      </trkpt>
      <trkpt lat="47.48008" lon="6.3598">
        <ele>256.499</ele>
        <time>2019-09-30T09:31:13Z</time>
      </trkpt>
      <trkpt lat="47.48008" lon="6.36005">
        <ele>256.283</ele>
        <time>2019-09-30T09:31:16Z</time>
      </trkpt>
      <trkpt lat="47.48008" lon="6.36028">
        <ele>255.958</ele>
        <time>2019-09-30T09:31:19Z</time>
      </trkpt>
      <trkpt lat="47.48007" lon="6.3605">
        <ele>255.871</ele>
        <time>2019-09-30T09:31:22Z</time>
      </trkpt>
      <trkpt lat="47.48006" lon="6.36073">
        <ele>255.12</ele>
        <time>2019-09-30T09:31:25Z</time>
      </trkpt>
      <trkpt lat="47.48005" lon="6.36096">
        <ele>254.908</ele>
        <time>2019-09-30T09:31:28Z</time>
      </trkpt>
      <trkpt lat="47.48005" lon="6.36117">
        <ele>254.67</ele>
        <time>2019-09-30T09:31:31Z</time>
      </trkpt>
      <trkpt lat="47.48003" lon="6.36138">
        <ele>254.699</ele>
        <time>2019-09-30T09:31:34Z</time>
      </trkpt>
      <trkpt lat="47.48002" lon="6.36157">
        <ele>254.528</ele>
        <time>2019-09-30T09:31:37Z</time>
      </trkpt>
      <trkpt lat="47.48001" lon="6.36177">
        <ele>254.757</ele>
        <time>2019-09-30T09:31:40Z</time>
      </trkpt>
      <trkpt lat="47.48001" lon="6.36196">
        <ele>254.527</ele>
        <time>2019-09-30T09:31:43Z</time>
      </trkpt>
      <trkpt lat="47.47999" lon="6.3621">
        <ele>254.807</ele>
        <time>2019-09-30T09:31:46Z</time>
      </trkpt>
      <trkpt lat="47.47997" lon="6.36219">
        <ele>255.212</ele>
        <time>2019-09-30T09:31:49Z</time>
      </trkpt>
      <trkpt lat="47.47997" lon="6.3622">
        <ele>255.229</ele>
        <time>2019-09-30T09:31:52Z</time>
      </trkpt>
      <trkpt lat="47.47997" lon="6.3622">
        <ele>255.229</ele>
        <time>2019-09-30T09:33:22Z</time>
      </trkpt>
      <trkpt lat="47.47997" lon="6.36221">
        <ele>255.202</ele>
        <time>2019-09-30T09:33:25Z</time>
      </trkpt>
      <trkpt lat="47.47998" lon="6.36237">
        <ele>254.707</ele>
        <time>2019-09-30T09:33:31Z</time>
      </trkpt>
      <trkpt lat="47.47997" lon="6.36247">
        <ele>254.729</ele>
        <time>2019-09-30T09:33:34Z</time>
      </trkpt>
      <trkpt lat="47.47995" lon="6.3626">
        <ele>254.864</ele>
        <time>2019-09-30T09:33:37Z</time>
      </trkpt>
      <trkpt lat="47.47995" lon="6.36276">
        <ele>254.966</ele>
        <time>2019-09-30T09:33:40Z</time>
      </trkpt>
      <trkpt lat="47.47994" lon="6.36293">
        <ele>255.057</ele>
        <time>2019-09-30T09:33:43Z</time>
      </trkpt>
      <trkpt lat="47.47993" lon="6.36309">
        <ele>255.374</ele>
        <time>2019-09-30T09:33:46Z</time>
      </trkpt>
      <trkpt lat="47.47993" lon="6.36327">
        <ele>255.346</ele>
        <time>2019-09-30T09:33:49Z</time>
      </trkpt>
      <trkpt lat="47.47992" lon="6.36347">
        <ele>254.991</ele>
        <time>2019-09-30T09:33:52Z</time>
      </trkpt>
      <trkpt lat="47.47991" lon="6.36367">
        <ele>254.63</ele>
        <time>2019-09-30T09:33:55Z</time>
      </trkpt>
      <trkpt lat="47.4799" lon="6.36385">
        <ele>253.933</ele>
        <time>2019-09-30T09:33:58Z</time>
      </trkpt>
      <trkpt lat="47.47989" lon="6.36404">
        <ele>253.328</ele>
        <time>2019-09-30T09:34:01Z</time>
      </trkpt>
      <trkpt lat="47.47988" lon="6.36424">
        <ele>253.394</ele>
        <time>2019-09-30T09:34:04Z</time>
      </trkpt>
      <trkpt lat="47.47986" lon="6.36444">
        <ele>253.126</ele>
        <time>2019-09-30T09:34:07Z</time>
      </trkpt>
      <trkpt lat="47.47986" lon="6.36465">
        <ele>253.546</ele>
        <time>2019-09-30T09:34:10Z</time>
      </trkpt>
      <trkpt lat="47.47985" lon="6.36485">
        <ele>254.193</ele>
        <time>2019-09-30T09:34:13Z</time>
      </trkpt>
      <trkpt lat="47.47984" lon="6.36504">
        <ele>254.722</ele>
        <time>2019-09-30T09:34:16Z</time>
      </trkpt>
      <trkpt lat="47.47983" lon="6.36522">
        <ele>255.365</ele>
        <time>2019-09-30T09:34:19Z</time>
      </trkpt>
      <trkpt lat="47.47982" lon="6.3654">
        <ele>256.231</ele>
        <time>2019-09-30T09:34:22Z</time>
      </trkpt>
      <trkpt lat="47.4798" lon="6.36556">
        <ele>257.264</ele>
        <time>2019-09-30T09:34:25Z</time>
      </trkpt>
      <trkpt lat="47.47977" lon="6.36573">
        <ele>258.25</ele>
        <time>2019-09-30T09:34:28Z</time>
      </trkpt>
      <trkpt lat="47.47974" lon="6.3659">
        <ele>259.474</ele>
        <time>2019-09-30T09:34:31Z</time>
      </trkpt>
      <trkpt lat="47.47972" lon="6.36607">
        <ele>259.816</ele>
        <time>2019-09-30T09:34:34Z</time>
      </trkpt>
      <trkpt lat="47.47969" lon="6.36623">
        <ele>260.258</ele>
        <time>2019-09-30T09:34:37Z</time>
      </trkpt>
      <trkpt lat="47.47965" lon="6.36639">
        <ele>260.482</ele>
        <time>2019-09-30T09:34:40Z</time>
      </trkpt>
      <trkpt lat="47.47961" lon="6.36655">
        <ele>261.054</ele>
        <time>2019-09-30T09:34:43Z</time>
      </trkpt>
      <trkpt lat="47.47958" lon="6.36673">
        <ele>261.738</ele>
        <time>2019-09-30T09:34:46Z</time>
      </trkpt>
      <trkpt lat="47.47954" lon="6.3669">
        <ele>261.869</ele>
        <time>2019-09-30T09:34:49Z</time>
      </trkpt>
      <trkpt lat="47.4795" lon="6.36707">
        <ele>262.588</ele>
        <time>2019-09-30T09:34:52Z</time>
      </trkpt>
      <trkpt lat="47.47946" lon="6.36725">
        <ele>262.462</ele>
        <time>2019-09-30T09:34:55Z</time>
      </trkpt>
      <trkpt lat="47.47942" lon="6.3674">
        <ele>262.44</ele>
        <time>2019-09-30T09:34:58Z</time>
      </trkpt>
      <trkpt lat="47.47938" lon="6.36757">
        <ele>262.653</ele>
        <time>2019-09-30T09:35:01Z</time>
      </trkpt>
      <trkpt lat="47.47933" lon="6.36774">
        <ele>262.626</ele>
        <time>2019-09-30T09:35:04Z</time>
      </trkpt>
      <trkpt lat="47.47926" lon="6.36791">
        <ele>262.946</ele>
        <time>2019-09-30T09:35:07Z</time>
      </trkpt>
      <trkpt lat="47.4792" lon="6.36809">
        <ele>262.937</ele>
        <time>2019-09-30T09:35:10Z</time>
      </trkpt>
      <trkpt lat="47.47914" lon="6.36828">
        <ele>262.715</ele>
        <time>2019-09-30T09:35:13Z</time>
      </trkpt>
      <trkpt lat="47.47908" lon="6.36846">
        <ele>262.302</ele>
        <time>2019-09-30T09:35:16Z</time>
      </trkpt>
      <trkpt lat="47.47902" lon="6.36864">
        <ele>262.444</ele>
        <time>2019-09-30T09:35:19Z</time>
      </trkpt>
      <trkpt lat="47.47897" lon="6.3688">
        <ele>262.475</ele>
        <time>2019-09-30T09:35:22Z</time>
      </trkpt>
      <trkpt lat="47.47891" lon="6.36895">
        <ele>262.564</ele>
        <time>2019-09-30T09:35:25Z</time>
      </trkpt>
      <trkpt lat="47.47885" lon="6.36911">
        <ele>262.757</ele>
        <time>2019-09-30T09:35:28Z</time>
      </trkpt>
      <trkpt lat="47.47881" lon="6.3693">
        <ele>262.758</ele>
        <time>2019-09-30T09:35:31Z</time>
      </trkpt>
      <trkpt lat="47.47879" lon="6.36955">
        <ele>261.849</ele>
        <time>2019-09-30T09:35:34Z</time>
      </trkpt>
      <trkpt lat="47.4788" lon="6.36983">
        <ele>261.339</ele>
        <time>2019-09-30T09:35:37Z</time>
      </trkpt>
      <trkpt lat="47.47884" lon="6.37011">
        <ele>260.321</ele>
        <time>2019-09-30T09:35:40Z</time>
      </trkpt>
      <trkpt lat="47.47891" lon="6.37037">
        <ele>258.704</ele>
        <time>2019-09-30T09:35:43Z</time>
      </trkpt>
      <trkpt lat="47.47899" lon="6.37061">
        <ele>258.785</ele>
        <time>2019-09-30T09:35:46Z</time>
      </trkpt>
      <trkpt lat="47.47906" lon="6.37083">
        <ele>259.117</ele>
        <time>2019-09-30T09:35:49Z</time>
      </trkpt>
      <trkpt lat="47.47915" lon="6.37106">
        <ele>259.523</ele>
        <time>2019-09-30T09:35:52Z</time>
      </trkpt>
      <trkpt lat="47.47922" lon="6.37127">
        <ele>259.793</ele>
        <time>2019-09-30T09:35:55Z</time>
      </trkpt>
      <trkpt lat="47.47931" lon="6.37147">
        <ele>260.277</ele>
        <time>2019-09-30T09:35:58Z</time>
      </trkpt>
      <trkpt lat="47.4794" lon="6.37169">
        <ele>259.77</ele>
        <time>2019-09-30T09:36:01Z</time>
      </trkpt>
      <trkpt lat="47.47949" lon="6.3719">
        <ele>259.502</ele>
        <time>2019-09-30T09:36:04Z</time>
      </trkpt>
      <trkpt lat="47.47957" lon="6.37212">
        <ele>259.151</ele>
        <time>2019-09-30T09:36:07Z</time>
      </trkpt>
      <trkpt lat="47.47966" lon="6.37233">
        <ele>259.054</ele>
        <time>2019-09-30T09:36:10Z</time>
      </trkpt>
      <trkpt lat="47.47974" lon="6.37254">
        <ele>258.815</ele>
        <time>2019-09-30T09:36:13Z</time>
      </trkpt>
      <trkpt lat="47.47983" lon="6.37275">
        <ele>258.958</ele>
        <time>2019-09-30T09:36:16Z</time>
      </trkpt>
      <trkpt lat="47.4799" lon="6.37295">
        <ele>258.813</ele>
        <time>2019-09-30T09:36:19Z</time>
      </trkpt>
      <trkpt lat="47.47998" lon="6.37316">
        <ele>258.913</ele>
        <time>2019-09-30T09:36:22Z</time>
      </trkpt>
      <trkpt lat="47.48005" lon="6.37336">
        <ele>258.88</ele>
        <time>2019-09-30T09:36:25Z</time>
      </trkpt>
      <trkpt lat="47.48013" lon="6.37355">
        <ele>259.395</ele>
        <time>2019-09-30T09:36:28Z</time>
      </trkpt>
      <trkpt lat="47.4802" lon="6.37374">
        <ele>259.717</ele>
        <time>2019-09-30T09:36:31Z</time>
      </trkpt>
      <trkpt lat="47.48028" lon="6.37392">
        <ele>259.957</ele>
        <time>2019-09-30T09:36:34Z</time>
      </trkpt>
      <trkpt lat="47.48036" lon="6.37411">
        <ele>260.227</ele>
        <time>2019-09-30T09:36:37Z</time>
      </trkpt>
      <trkpt lat="47.48044" lon="6.37432">
        <ele>260.281</ele>
        <time>2019-09-30T09:36:40Z</time>
      </trkpt>
      <trkpt lat="47.48052" lon="6.37453">
        <ele>260.405</ele>
        <time>2019-09-30T09:36:43Z</time>
      </trkpt>
      <trkpt lat="47.48059" lon="6.37474">
        <ele>260.639</ele>
        <time>2019-09-30T09:36:46Z</time>
      </trkpt>
      <trkpt lat="47.48067" lon="6.37495">
        <ele>261.141</ele>
        <time>2019-09-30T09:36:49Z</time>
      </trkpt>
      <trkpt lat="47.48075" lon="6.37514">
        <ele>261.754</ele>
        <time>2019-09-30T09:36:52Z</time>
      </trkpt>
      <trkpt lat="47.48083" lon="6.37534">
        <ele>262.187</ele>
        <time>2019-09-30T09:36:55Z</time>
      </trkpt>
      <trkpt lat="47.4809" lon="6.37552">
        <ele>262.412</ele>
        <time>2019-09-30T09:36:58Z</time>
      </trkpt>
      <trkpt lat="47.48098" lon="6.37572">
        <ele>262.852</ele>
        <time>2019-09-30T09:37:01Z</time>
      </trkpt>
      <trkpt lat="47.48106" lon="6.37592">
        <ele>262.872</ele>
        <time>2019-09-30T09:37:04Z</time>
      </trkpt>
      <trkpt lat="47.48113" lon="6.37612">
        <ele>262.723</ele>
        <time>2019-09-30T09:37:07Z</time>
      </trkpt>
      <trkpt lat="47.48121" lon="6.37633">
        <ele>262.68</ele>
        <time>2019-09-30T09:37:10Z</time>
      </trkpt>
      <trkpt lat="47.4813" lon="6.37653">
        <ele>262.711</ele>
        <time>2019-09-30T09:37:13Z</time>
      </trkpt>
      <trkpt lat="47.48137" lon="6.37675">
        <ele>262.577</ele>
        <time>2019-09-30T09:37:16Z</time>
      </trkpt>
      <trkpt lat="47.48142" lon="6.37696">
        <ele>262.376</ele>
        <time>2019-09-30T09:37:19Z</time>
      </trkpt>
      <trkpt lat="47.48144" lon="6.37718">
        <ele>261.972</ele>
        <time>2019-09-30T09:37:22Z</time>
      </trkpt>
      <trkpt lat="47.48144" lon="6.3774">
        <ele>261.818</ele>
        <time>2019-09-30T09:37:25Z</time>
      </trkpt>
      <trkpt lat="47.48145" lon="6.37761">
        <ele>262.011</ele>
        <time>2019-09-30T09:37:28Z</time>
      </trkpt>
      <trkpt lat="47.48144" lon="6.37782">
        <ele>262.198</ele>
        <time>2019-09-30T09:37:31Z</time>
      </trkpt>
      <trkpt lat="47.48143" lon="6.37803">
        <ele>262.861</ele>
        <time>2019-09-30T09:37:34Z</time>
      </trkpt>
      <trkpt lat="47.48143" lon="6.37823">
        <ele>263.737</ele>
        <time>2019-09-30T09:37:37Z</time>
      </trkpt>
      <trkpt lat="47.48141" lon="6.37842">
        <ele>264.557</ele>
        <time>2019-09-30T09:37:40Z</time>
      </trkpt>
      <trkpt lat="47.4814" lon="6.3786">
        <ele>265.64</ele>
        <time>2019-09-30T09:37:43Z</time>
      </trkpt>
      <trkpt lat="47.48138" lon="6.37878">
        <ele>267.237</ele>
        <time>2019-09-30T09:37:46Z</time>
      </trkpt>
      <trkpt lat="47.48136" lon="6.37894">
        <ele>268.604</ele>
        <time>2019-09-30T09:37:49Z</time>
      </trkpt>
      <trkpt lat="47.48134" lon="6.37912">
        <ele>269.907</ele>
        <time>2019-09-30T09:37:52Z</time>
      </trkpt>
      <trkpt lat="47.48134" lon="6.37931">
        <ele>270.999</ele>
        <time>2019-09-30T09:37:55Z</time>
      </trkpt>
      <trkpt lat="47.48133" lon="6.37951">
        <ele>271.315</ele>
        <time>2019-09-30T09:37:58Z</time>
      </trkpt>
      <trkpt lat="47.48132" lon="6.37971">
        <ele>271.787</ele>
        <time>2019-09-30T09:38:01Z</time>
      </trkpt>
      <trkpt lat="47.48132" lon="6.37993">
        <ele>271.752</ele>
        <time>2019-09-30T09:38:04Z</time>
      </trkpt>
      <trkpt lat="47.48131" lon="6.38017">
        <ele>272.263</ele>
        <time>2019-09-30T09:38:07Z</time>
      </trkpt>
      <trkpt lat="47.48131" lon="6.38041">
        <ele>272.767</ele>
        <time>2019-09-30T09:38:10Z</time>
      </trkpt>
      <trkpt lat="47.48131" lon="6.38064">
        <ele>272.78</ele>
        <time>2019-09-30T09:38:13Z</time>
      </trkpt>
      <trkpt lat="47.48133" lon="6.38086">
        <ele>272.834</ele>
        <time>2019-09-30T09:38:16Z</time>
      </trkpt>
      <trkpt lat="47.48135" lon="6.38111">
        <ele>272.433</ele>
        <time>2019-09-30T09:38:19Z</time>
      </trkpt>
      <trkpt lat="47.4814" lon="6.38133">
        <ele>271.749</ele>
        <time>2019-09-30T09:38:22Z</time>
      </trkpt>
      <trkpt lat="47.48147" lon="6.38154">
        <ele>271.377</ele>
        <time>2019-09-30T09:38:25Z</time>
      </trkpt>
      <trkpt lat="47.48155" lon="6.38174">
        <ele>271.147</ele>
        <time>2019-09-30T09:38:28Z</time>
      </trkpt>
      <trkpt lat="47.48161" lon="6.38196">
        <ele>270.611</ele>
        <time>2019-09-30T09:38:31Z</time>
      </trkpt>
      <trkpt lat="47.48161" lon="6.38219">
        <ele>270.868</ele>
        <time>2019-09-30T09:38:34Z</time>
      </trkpt>
      <trkpt lat="47.48152" lon="6.38234">
        <ele>270.55</ele>
        <time>2019-09-30T09:38:37Z</time>
      </trkpt>
      <trkpt lat="47.48135" lon="6.38233">
        <ele>269.089</ele>
        <time>2019-09-30T09:38:40Z</time>
      </trkpt>
      <trkpt lat="47.4812" lon="6.38218">
        <ele>268.677</ele>
        <time>2019-09-30T09:38:43Z</time>
      </trkpt>
      <trkpt lat="47.48105" lon="6.38201">
        <ele>268.48</ele>
        <time>2019-09-30T09:38:46Z</time>
      </trkpt>
      <trkpt lat="47.4809" lon="6.38186">
        <ele>268.08</ele>
        <time>2019-09-30T09:38:49Z</time>
      </trkpt>
      <trkpt lat="47.48075" lon="6.38173">
        <ele>267.586</ele>
        <time>2019-09-30T09:38:52Z</time>
      </trkpt>
      <trkpt lat="47.48058" lon="6.38161">
        <ele>267.565</ele>
        <time>2019-09-30T09:38:55Z</time>
      </trkpt>
      <trkpt lat="47.48041" lon="6.38149">
        <ele>267.871</ele>
        <time>2019-09-30T09:38:58Z</time>
      </trkpt>
      <trkpt lat="47.48025" lon="6.38139">
        <ele>268.019</ele>
        <time>2019-09-30T09:39:01Z</time>
      </trkpt>
      <trkpt lat="47.4801" lon="6.38129">
        <ele>268.427</ele>
        <time>2019-09-30T09:39:04Z</time>
      </trkpt>
      <trkpt lat="47.47993" lon="6.38121">
        <ele>268.864</ele>
        <time>2019-09-30T09:39:07Z</time>
      </trkpt>
      <trkpt lat="47.47978" lon="6.38114">
        <ele>268.874</ele>
        <time>2019-09-30T09:39:10Z</time>
      </trkpt>
      <trkpt lat="47.47962" lon="6.38107">
        <ele>268.176</ele>
        <time>2019-09-30T09:39:13Z</time>
      </trkpt>
      <trkpt lat="47.47946" lon="6.38102">
        <ele>267.948</ele>
        <time>2019-09-30T09:39:16Z</time>
      </trkpt>
      <trkpt lat="47.47931" lon="6.38099">
        <ele>268.562</ele>
        <time>2019-09-30T09:39:19Z</time>
      </trkpt>
      <trkpt lat="47.47917" lon="6.38096">
        <ele>268.668</ele>
        <time>2019-09-30T09:39:22Z</time>
      </trkpt>
      <trkpt lat="47.47905" lon="6.38095">
        <ele>268.122</ele>
        <time>2019-09-30T09:39:25Z</time>
      </trkpt>
      <trkpt lat="47.47893" lon="6.38094">
        <ele>268.06</ele>
        <time>2019-09-30T09:39:28Z</time>
      </trkpt>
      <trkpt lat="47.47883" lon="6.38093">
        <ele>267.601</ele>
        <time>2019-09-30T09:39:31Z</time>
      </trkpt>
      <trkpt lat="47.47872" lon="6.38093">
        <ele>267.17</ele>
        <time>2019-09-30T09:39:34Z</time>
      </trkpt>
      <trkpt lat="47.47863" lon="6.38093">
        <ele>266.686</ele>
        <time>2019-09-30T09:39:37Z</time>
      </trkpt>
      <trkpt lat="47.47853" lon="6.38093">
        <ele>266.777</ele>
        <time>2019-09-30T09:39:40Z</time>
      </trkpt>
      <trkpt lat="47.47845" lon="6.38093">
        <ele>266.336</ele>
        <time>2019-09-30T09:39:43Z</time>
      </trkpt>
      <trkpt lat="47.47837" lon="6.38093">
        <ele>265.658</ele>
        <time>2019-09-30T09:39:46Z</time>
      </trkpt>
      <trkpt lat="47.4783" lon="6.38094">
        <ele>265.356</ele>
        <time>2019-09-30T09:39:49Z</time>
      </trkpt>
      <trkpt lat="47.47822" lon="6.38094">
        <ele>265.815</ele>
        <time>2019-09-30T09:39:52Z</time>
      </trkpt>
      <trkpt lat="47.47814" lon="6.38095">
        <ele>265.667</ele>
        <time>2019-09-30T09:39:55Z</time>
      </trkpt>
      <trkpt lat="47.47807" lon="6.38095">
        <ele>265.909</ele>
        <time>2019-09-30T09:39:58Z</time>
      </trkpt>
      <trkpt lat="47.478" lon="6.38095">
        <ele>265.965</ele>
        <time>2019-09-30T09:40:01Z</time>
      </trkpt>
      <trkpt lat="47.47795" lon="6.38094">
        <ele>266.582</ele>
        <time>2019-09-30T09:40:04Z</time>
      </trkpt>
      <trkpt lat="47.47789" lon="6.38095">
        <ele>267.205</ele>
        <time>2019-09-30T09:40:07Z</time>
      </trkpt>
      <trkpt lat="47.47782" lon="6.38096">
        <ele>267.838</ele>
        <time>2019-09-30T09:40:10Z</time>
      </trkpt>
      <trkpt lat="47.47775" lon="6.38096">
        <ele>268.226</ele>
        <time>2019-09-30T09:40:13Z</time>
      </trkpt>
      <trkpt lat="47.47768" lon="6.38096">
        <ele>268.939</ele>
        <time>2019-09-30T09:40:16Z</time>
      </trkpt>
      <trkpt lat="47.47761" lon="6.38097">
        <ele>269.418</ele>
        <time>2019-09-30T09:40:19Z</time>
      </trkpt>
      <trkpt lat="47.47754" lon="6.38097">
        <ele>269.817</ele>
        <time>2019-09-30T09:40:22Z</time>
      </trkpt>
      <trkpt lat="47.47746" lon="6.38098">
        <ele>270.953</ele>
        <time>2019-09-30T09:40:25Z</time>
      </trkpt>
      <trkpt lat="47.4774" lon="6.38098">
        <ele>270.92</ele>
        <time>2019-09-30T09:40:28Z</time>
      </trkpt>
      <trkpt lat="47.47733" lon="6.381">
        <ele>271.246</ele>
        <time>2019-09-30T09:40:31Z</time>
      </trkpt>
      <trkpt lat="47.47726" lon="6.381">
        <ele>271.827</ele>
        <time>2019-09-30T09:40:34Z</time>
      </trkpt>
      <trkpt lat="47.47719" lon="6.38102">
        <ele>272.585</ele>
        <time>2019-09-30T09:40:37Z</time>
      </trkpt>
      <trkpt lat="47.47713" lon="6.38102">
        <ele>273.04</ele>
        <time>2019-09-30T09:40:40Z</time>
      </trkpt>
      <trkpt lat="47.47706" lon="6.38102">
        <ele>273.714</ele>
        <time>2019-09-30T09:40:43Z</time>
      </trkpt>
      <trkpt lat="47.47699" lon="6.38103">
        <ele>274.287</ele>
        <time>2019-09-30T09:40:46Z</time>
      </trkpt>
      <trkpt lat="47.47693" lon="6.38104">
        <ele>274.876</ele>
        <time>2019-09-30T09:40:49Z</time>
      </trkpt>
      <trkpt lat="47.47687" lon="6.38104">
        <ele>275.194</ele>
        <time>2019-09-30T09:40:52Z</time>
      </trkpt>
      <trkpt lat="47.47681" lon="6.38104">
        <ele>275.884</ele>
        <time>2019-09-30T09:40:55Z</time>
      </trkpt>
      <trkpt lat="47.47674" lon="6.38104">
        <ele>277.201</ele>
        <time>2019-09-30T09:40:58Z</time>
      </trkpt>
      <trkpt lat="47.47669" lon="6.38104">
        <ele>277.848</ele>
        <time>2019-09-30T09:41:01Z</time>
      </trkpt>
      <trkpt lat="47.47663" lon="6.38105">
        <ele>278.359</ele>
        <time>2019-09-30T09:41:04Z</time>
      </trkpt>
      <trkpt lat="47.47657" lon="6.38106">
        <ele>278.888</ele>
        <time>2019-09-30T09:41:07Z</time>
      </trkpt>
      <trkpt lat="47.47651" lon="6.38106">
        <ele>279.204</ele>
        <time>2019-09-30T09:41:10Z</time>
      </trkpt>
      <trkpt lat="47.47644" lon="6.38106">
        <ele>279.73</ele>
        <time>2019-09-30T09:41:13Z</time>
      </trkpt>
      <trkpt lat="47.47637" lon="6.38106">
        <ele>280.094</ele>
        <time>2019-09-30T09:41:16Z</time>
      </trkpt>
      <trkpt lat="47.47631" lon="6.38107">
        <ele>280.85</ele>
        <time>2019-09-30T09:41:19Z</time>
      </trkpt>
      <trkpt lat="47.47626" lon="6.38107">
        <ele>281.542</ele>
        <time>2019-09-30T09:41:22Z</time>
      </trkpt>
      <trkpt lat="47.4762" lon="6.38106">
        <ele>282.467</ele>
        <time>2019-09-30T09:41:25Z</time>
      </trkpt>
      <trkpt lat="47.47614" lon="6.38107">
        <ele>283.235</ele>
        <time>2019-09-30T09:41:28Z</time>
      </trkpt>
      <trkpt lat="47.47608" lon="6.38108">
        <ele>283.639</ele>
        <time>2019-09-30T09:41:31Z</time>
      </trkpt>
      <trkpt lat="47.47602" lon="6.38107">
        <ele>283.966</ele>
        <time>2019-09-30T09:41:34Z</time>
      </trkpt>
      <trkpt lat="47.47596" lon="6.38108">
        <ele>284.319</ele>
        <time>2019-09-30T09:41:37Z</time>
      </trkpt>
      <trkpt lat="47.47589" lon="6.38108">
        <ele>285.063</ele>
        <time>2019-09-30T09:41:40Z</time>
      </trkpt>
      <trkpt lat="47.47582" lon="6.38107">
        <ele>285.554</ele>
        <time>2019-09-30T09:41:43Z</time>
      </trkpt>
      <trkpt lat="47.47575" lon="6.38108">
        <ele>286.564</ele>
        <time>2019-09-30T09:41:46Z</time>
      </trkpt>
      <trkpt lat="47.47568" lon="6.38108">
        <ele>287.468</ele>
        <time>2019-09-30T09:41:49Z</time>
      </trkpt>
      <trkpt lat="47.47561" lon="6.38109">
        <ele>288.379</ele>
        <time>2019-09-30T09:41:52Z</time>
      </trkpt>
      <trkpt lat="47.47554" lon="6.38111">
        <ele>290.735</ele>
        <time>2019-09-30T09:41:55Z</time>
      </trkpt>
      <trkpt lat="47.47546" lon="6.3811">
        <ele>290.887</ele>
        <time>2019-09-30T09:41:58Z</time>
      </trkpt>
      <trkpt lat="47.47539" lon="6.3811">
        <ele>291.507</ele>
        <time>2019-09-30T09:42:01Z</time>
      </trkpt>
      <trkpt lat="47.47532" lon="6.38111">
        <ele>292.383</ele>
        <time>2019-09-30T09:42:04Z</time>
      </trkpt>
      <trkpt lat="47.47524" lon="6.38111">
        <ele>292.079</ele>
        <time>2019-09-30T09:42:07Z</time>
      </trkpt>
      <trkpt lat="47.47515" lon="6.38111">
        <ele>292.163</ele>
        <time>2019-09-30T09:42:10Z</time>
      </trkpt>
      <trkpt lat="47.47507" lon="6.3811">
        <ele>291.894</ele>
        <time>2019-09-30T09:42:13Z</time>
      </trkpt>
      <trkpt lat="47.47499" lon="6.38107">
        <ele>291.701</ele>
        <time>2019-09-30T09:42:16Z</time>
      </trkpt>
      <trkpt lat="47.4749" lon="6.38105">
        <ele>291.834</ele>
        <time>2019-09-30T09:42:19Z</time>
      </trkpt>
      <trkpt lat="47.47482" lon="6.38103">
        <ele>291.942</ele>
        <time>2019-09-30T09:42:22Z</time>
      </trkpt>
      <trkpt lat="47.47474" lon="6.38101">
        <ele>292.489</ele>
        <time>2019-09-30T09:42:25Z</time>
      </trkpt>
      <trkpt lat="47.47465" lon="6.38099">
        <ele>292.461</ele>
        <time>2019-09-30T09:42:28Z</time>
      </trkpt>
      <trkpt lat="47.47458" lon="6.38096">
        <ele>292.203</ele>
        <time>2019-09-30T09:42:31Z</time>
      </trkpt>
      <trkpt lat="47.47449" lon="6.38093">
        <ele>292.475</ele>
        <time>2019-09-30T09:42:34Z</time>
      </trkpt>
      <trkpt lat="47.47441" lon="6.38091">
        <ele>291.742</ele>
        <time>2019-09-30T09:42:37Z</time>
      </trkpt>
      <trkpt lat="47.47432" lon="6.38088">
        <ele>291.533</ele>
        <time>2019-09-30T09:42:40Z</time>
      </trkpt>
      <trkpt lat="47.47423" lon="6.38085">
        <ele>291.888</ele>
        <time>2019-09-30T09:42:43Z</time>
      </trkpt>
      <trkpt lat="47.47414" lon="6.38082">
        <ele>291.948</ele>
        <time>2019-09-30T09:42:46Z</time>
      </trkpt>
      <trkpt lat="47.47406" lon="6.38078">
        <ele>292.154</ele>
        <time>2019-09-30T09:42:49Z</time>
      </trkpt>
      <trkpt lat="47.47396" lon="6.38073">
        <ele>292.41</ele>
        <time>2019-09-30T09:42:52Z</time>
      </trkpt>
      <trkpt lat="47.47387" lon="6.38068">
        <ele>292.578</ele>
        <time>2019-09-30T09:42:55Z</time>
      </trkpt>
      <trkpt lat="47.47377" lon="6.38062">
        <ele>292.815</ele>
        <time>2019-09-30T09:42:58Z</time>
      </trkpt>
      <trkpt lat="47.47366" lon="6.38058">
        <ele>292.662</ele>
        <time>2019-09-30T09:43:01Z</time>
      </trkpt>
      <trkpt lat="47.47355" lon="6.38053">
        <ele>292.564</ele>
        <time>2019-09-30T09:43:04Z</time>
      </trkpt>
      <trkpt lat="47.47343" lon="6.38048">
        <ele>292.685</ele>
        <time>2019-09-30T09:43:07Z</time>
      </trkpt>
      <trkpt lat="47.4733" lon="6.38044">
        <ele>292.859</ele>
        <time>2019-09-30T09:43:10Z</time>
      </trkpt>
      <trkpt lat="47.47318" lon="6.38038">
        <ele>292.796</ele>
        <time>2019-09-30T09:43:13Z</time>
      </trkpt>
      <trkpt lat="47.47306" lon="6.38033">
        <ele>293.056</ele>
        <time>2019-09-30T09:43:16Z</time>
      </trkpt>
      <trkpt lat="47.47293" lon="6.38027">
        <ele>292.475</ele>
        <time>2019-09-30T09:43:19Z</time>
      </trkpt>
      <trkpt lat="47.4728" lon="6.38021">
        <ele>292.268</ele>
        <time>2019-09-30T09:43:22Z</time>
      </trkpt>
      <trkpt lat="47.47265" lon="6.38014">
        <ele>291.836</ele>
        <time>2019-09-30T09:43:25Z</time>
      </trkpt>
      <trkpt lat="47.4725" lon="6.38008">
        <ele>291.933</ele>
        <time>2019-09-30T09:43:28Z</time>
      </trkpt>
      <trkpt lat="47.47235" lon="6.38001">
        <ele>292.453</ele>
        <time>2019-09-30T09:43:31Z</time>
      </trkpt>
      <trkpt lat="47.4722" lon="6.37995">
        <ele>292.238</ele>
        <time>2019-09-30T09:43:34Z</time>
      </trkpt>
      <trkpt lat="47.47204" lon="6.37989">
        <ele>291.949</ele>
        <time>2019-09-30T09:43:37Z</time>
      </trkpt>
      <trkpt lat="47.47189" lon="6.37983">
        <ele>291.888</ele>
        <time>2019-09-30T09:43:40Z</time>
      </trkpt>
      <trkpt lat="47.47172" lon="6.37978">
        <ele>291.707</ele>
        <time>2019-09-30T09:43:43Z</time>
      </trkpt>
      <trkpt lat="47.47156" lon="6.37972">
        <ele>291.944</ele>
        <time>2019-09-30T09:43:46Z</time>
      </trkpt>
      <trkpt lat="47.4714" lon="6.37968">
        <ele>292.298</ele>
        <time>2019-09-30T09:43:49Z</time>
      </trkpt>
      <trkpt lat="47.47125" lon="6.37965">
        <ele>292.532</ele>
        <time>2019-09-30T09:43:52Z</time>
      </trkpt>
      <trkpt lat="47.4711" lon="6.37961">
        <ele>292.427</ele>
        <time>2019-09-30T09:43:55Z</time>
      </trkpt>
      <trkpt lat="47.47093" lon="6.37959">
        <ele>292.295</ele>
        <time>2019-09-30T09:43:58Z</time>
      </trkpt>
      <trkpt lat="47.47077" lon="6.37958">
        <ele>292.259</ele>
        <time>2019-09-30T09:44:01Z</time>
      </trkpt>
      <trkpt lat="47.4706" lon="6.37958">
        <ele>292.273</ele>
        <time>2019-09-30T09:44:04Z</time>
      </trkpt>
      <trkpt lat="47.47044" lon="6.37959">
        <ele>292.39</ele>
        <time>2019-09-30T09:44:07Z</time>
      </trkpt>
      <trkpt lat="47.47029" lon="6.3796">
        <ele>291.871</ele>
        <time>2019-09-30T09:44:10Z</time>
      </trkpt>
      <trkpt lat="47.47014" lon="6.37961">
        <ele>291.475</ele>
        <time>2019-09-30T09:44:13Z</time>
      </trkpt>
      <trkpt lat="47.47" lon="6.37965">
        <ele>291.523</ele>
        <time>2019-09-30T09:44:16Z</time>
      </trkpt>
      <trkpt lat="47.46985" lon="6.37968">
        <ele>291.254</ele>
        <time>2019-09-30T09:44:19Z</time>
      </trkpt>
      <trkpt lat="47.46971" lon="6.37972">
        <ele>290.706</ele>
        <time>2019-09-30T09:44:22Z</time>
      </trkpt>
      <trkpt lat="47.46956" lon="6.37977">
        <ele>290.621</ele>
        <time>2019-09-30T09:44:25Z</time>
      </trkpt>
      <trkpt lat="47.46943" lon="6.37982">
        <ele>290.891</ele>
        <time>2019-09-30T09:44:28Z</time>
      </trkpt>
      <trkpt lat="47.46929" lon="6.37987">
        <ele>290.803</ele>
        <time>2019-09-30T09:44:31Z</time>
      </trkpt>
      <trkpt lat="47.46916" lon="6.37992">
        <ele>289.675</ele>
        <time>2019-09-30T09:44:34Z</time>
      </trkpt>
      <trkpt lat="47.46903" lon="6.37999">
        <ele>289.049</ele>
        <time>2019-09-30T09:44:37Z</time>
      </trkpt>
      <trkpt lat="47.46892" lon="6.38005">
        <ele>288.761</ele>
        <time>2019-09-30T09:44:40Z</time>
      </trkpt>
      <trkpt lat="47.4688" lon="6.38011">
        <ele>288.327</ele>
        <time>2019-09-30T09:44:43Z</time>
      </trkpt>
      <trkpt lat="47.46869" lon="6.38017">
        <ele>288.348</ele>
        <time>2019-09-30T09:44:46Z</time>
      </trkpt>
      <trkpt lat="47.4686" lon="6.38021">
        <ele>288.086</ele>
        <time>2019-09-30T09:44:49Z</time>
      </trkpt>
      <trkpt lat="47.46851" lon="6.38025">
        <ele>287.662</ele>
        <time>2019-09-30T09:44:52Z</time>
      </trkpt>
      <trkpt lat="47.46844" lon="6.38029">
        <ele>287.398</ele>
        <time>2019-09-30T09:44:55Z</time>
      </trkpt>
      <trkpt lat="47.46838" lon="6.38032">
        <ele>287.308</ele>
        <time>2019-09-30T09:44:58Z</time>
      </trkpt>
      <trkpt lat="47.46832" lon="6.38037">
        <ele>287.499</ele>
        <time>2019-09-30T09:45:01Z</time>
      </trkpt>
      <trkpt lat="47.46825" lon="6.38041">
        <ele>287.929</ele>
        <time>2019-09-30T09:45:04Z</time>
      </trkpt>
      <trkpt lat="47.46819" lon="6.38043">
        <ele>288.652</ele>
        <time>2019-09-30T09:45:07Z</time>
      </trkpt>
      <trkpt lat="47.46813" lon="6.38046">
        <ele>288.504</ele>
        <time>2019-09-30T09:45:10Z</time>
      </trkpt>
      <trkpt lat="47.46807" lon="6.38051">
        <ele>288.943</ele>
        <time>2019-09-30T09:45:13Z</time>
      </trkpt>
      <trkpt lat="47.46801" lon="6.38054">
        <ele>289.75</ele>
        <time>2019-09-30T09:45:16Z</time>
      </trkpt>
      <trkpt lat="47.46795" lon="6.38057">
        <ele>290.531</ele>
        <time>2019-09-30T09:45:19Z</time>
      </trkpt>
      <trkpt lat="47.46788" lon="6.38059">
        <ele>291.337</ele>
        <time>2019-09-30T09:45:22Z</time>
      </trkpt>
      <trkpt lat="47.46781" lon="6.38062">
        <ele>292.343</ele>
        <time>2019-09-30T09:45:25Z</time>
      </trkpt>
      <trkpt lat="47.46775" lon="6.38064">
        <ele>292.579</ele>
        <time>2019-09-30T09:45:28Z</time>
      </trkpt>
      <trkpt lat="47.46769" lon="6.38066">
        <ele>293.053</ele>
        <time>2019-09-30T09:45:31Z</time>
      </trkpt>
      <trkpt lat="47.46762" lon="6.38066">
        <ele>293.732</ele>
        <time>2019-09-30T09:45:34Z</time>
      </trkpt>
      <trkpt lat="47.46756" lon="6.38069">
        <ele>294.775</ele>
        <time>2019-09-30T09:45:37Z</time>
      </trkpt>
      <trkpt lat="47.4675" lon="6.3807">
        <ele>295.314</ele>
        <time>2019-09-30T09:45:40Z</time>
      </trkpt>
      <trkpt lat="47.46743" lon="6.38071">
        <ele>295.898</ele>
        <time>2019-09-30T09:45:43Z</time>
      </trkpt>
      <trkpt lat="47.46737" lon="6.38071">
        <ele>295.959</ele>
        <time>2019-09-30T09:45:46Z</time>
      </trkpt>
      <trkpt lat="47.46731" lon="6.38071">
        <ele>296.902</ele>
        <time>2019-09-30T09:45:49Z</time>
      </trkpt>
      <trkpt lat="47.46725" lon="6.38072">
        <ele>297.445</ele>
        <time>2019-09-30T09:45:52Z</time>
      </trkpt>
      <trkpt lat="47.46719" lon="6.38072">
        <ele>298.577</ele>
        <time>2019-09-30T09:45:55Z</time>
      </trkpt>
      <trkpt lat="47.46713" lon="6.38072">
        <ele>299.383</ele>
        <time>2019-09-30T09:45:58Z</time>
      </trkpt>
      <trkpt lat="47.46707" lon="6.38071">
        <ele>300.145</ele>
        <time>2019-09-30T09:46:01Z</time>
      </trkpt>
      <trkpt lat="47.46701" lon="6.38071">
        <ele>300.461</ele>
        <time>2019-09-30T09:46:04Z</time>
      </trkpt>
      <trkpt lat="47.46695" lon="6.38069">
        <ele>300.495</ele>
        <time>2019-09-30T09:46:07Z</time>
      </trkpt>
      <trkpt lat="47.46689" lon="6.38067">
        <ele>300.643</ele>
        <time>2019-09-30T09:46:10Z</time>
      </trkpt>
      <trkpt lat="47.46684" lon="6.38066">
        <ele>300.851</ele>
        <time>2019-09-30T09:46:13Z</time>
      </trkpt>
      <trkpt lat="47.46678" lon="6.38064">
        <ele>300.979</ele>
        <time>2019-09-30T09:46:16Z</time>
      </trkpt>
      <trkpt lat="47.46672" lon="6.38061">
        <ele>301.288</ele>
        <time>2019-09-30T09:46:19Z</time>
      </trkpt>
      <trkpt lat="47.46666" lon="6.38059">
        <ele>301.778</ele>
        <time>2019-09-30T09:46:22Z</time>
      </trkpt>
      <trkpt lat="47.46661" lon="6.38055">
        <ele>302.44</ele>
        <time>2019-09-30T09:46:25Z</time>
      </trkpt>
      <trkpt lat="47.46655" lon="6.38051">
        <ele>303.245</ele>
        <time>2019-09-30T09:46:28Z</time>
      </trkpt>
      <trkpt lat="47.46649" lon="6.38048">
        <ele>304.27</ele>
        <time>2019-09-30T09:46:31Z</time>
      </trkpt>
      <trkpt lat="47.46643" lon="6.38045">
        <ele>304.838</ele>
        <time>2019-09-30T09:46:34Z</time>
      </trkpt>
      <trkpt lat="47.46637" lon="6.38042">
        <ele>305.465</ele>
        <time>2019-09-30T09:46:37Z</time>
      </trkpt>
      <trkpt lat="47.46631" lon="6.38039">
        <ele>306.321</ele>
        <time>2019-09-30T09:46:40Z</time>
      </trkpt>
      <trkpt lat="47.46625" lon="6.38035">
        <ele>306.705</ele>
        <time>2019-09-30T09:46:43Z</time>
      </trkpt>
      <trkpt lat="47.4662" lon="6.3803">
        <ele>306.874</ele>
        <time>2019-09-30T09:46:46Z</time>
      </trkpt>
      <trkpt lat="47.46614" lon="6.38024">
        <ele>307.225</ele>
        <time>2019-09-30T09:46:49Z</time>
      </trkpt>
      <trkpt lat="47.46608" lon="6.38019">
        <ele>307.669</ele>
        <time>2019-09-30T09:46:52Z</time>
      </trkpt>
      <trkpt lat="47.46603" lon="6.38014">
        <ele>307.485</ele>
        <time>2019-09-30T09:46:55Z</time>
      </trkpt>
      <trkpt lat="47.46597" lon="6.38009">
        <ele>307.996</ele>
        <time>2019-09-30T09:46:58Z</time>
      </trkpt>
      <trkpt lat="47.46591" lon="6.38003">
        <ele>307.312</ele>
        <time>2019-09-30T09:47:01Z</time>
      </trkpt>
      <trkpt lat="47.46584" lon="6.37997">
        <ele>307.47</ele>
        <time>2019-09-30T09:47:04Z</time>
      </trkpt>
      <trkpt lat="47.46578" lon="6.37992">
        <ele>307.835</ele>
        <time>2019-09-30T09:47:07Z</time>
      </trkpt>
      <trkpt lat="47.46573" lon="6.37986">
        <ele>307.909</ele>
        <time>2019-09-30T09:47:10Z</time>
      </trkpt>
      <trkpt lat="47.46568" lon="6.3798">
        <ele>307.866</ele>
        <time>2019-09-30T09:47:13Z</time>
      </trkpt>
      <trkpt lat="47.46562" lon="6.37973">
        <ele>307.98</ele>
        <time>2019-09-30T09:47:16Z</time>
      </trkpt>
      <trkpt lat="47.46558" lon="6.37967">
        <ele>308.029</ele>
        <time>2019-09-30T09:47:19Z</time>
      </trkpt>
      <trkpt lat="47.46552" lon="6.37961">
        <ele>308.745</ele>
        <time>2019-09-30T09:47:22Z</time>
      </trkpt>
      <trkpt lat="47.46547" lon="6.37955">
        <ele>309.438</ele>
        <time>2019-09-30T09:47:25Z</time>
      </trkpt>
      <trkpt lat="47.46541" lon="6.37949">
        <ele>309.191</ele>
        <time>2019-09-30T09:47:28Z</time>
      </trkpt>
      <trkpt lat="47.46535" lon="6.37944">
        <ele>309.821</ele>
        <time>2019-09-30T09:47:31Z</time>
      </trkpt>
      <trkpt lat="47.46529" lon="6.37938">
        <ele>310.422</ele>
        <time>2019-09-30T09:47:34Z</time>
      </trkpt>
      <trkpt lat="47.46524" lon="6.37933">
        <ele>309.87</ele>
        <time>2019-09-30T09:47:37Z</time>
      </trkpt>
      <trkpt lat="47.46518" lon="6.37927">
        <ele>309.837</ele>
        <time>2019-09-30T09:47:40Z</time>
      </trkpt>
      <trkpt lat="47.46511" lon="6.37923">
        <ele>310.668</ele>
        <time>2019-09-30T09:47:43Z</time>
      </trkpt>
      <trkpt lat="47.46504" lon="6.37918">
        <ele>311.248</ele>
        <time>2019-09-30T09:47:46Z</time>
      </trkpt>
      <trkpt lat="47.46497" lon="6.37913">
        <ele>311.564</ele>
        <time>2019-09-30T09:47:49Z</time>
      </trkpt>
      <trkpt lat="47.4649" lon="6.37907">
        <ele>311.685</ele>
        <time>2019-09-30T09:47:52Z</time>
      </trkpt>
      <trkpt lat="47.46483" lon="6.37901">
        <ele>312.228</ele>
        <time>2019-09-30T09:47:55Z</time>
      </trkpt>
      <trkpt lat="47.46476" lon="6.37895">
        <ele>312.753</ele>
        <time>2019-09-30T09:47:58Z</time>
      </trkpt>
      <trkpt lat="47.46469" lon="6.37889">
        <ele>313.539</ele>
        <time>2019-09-30T09:48:01Z</time>
      </trkpt>
      <trkpt lat="47.46462" lon="6.37884">
        <ele>313.337</ele>
        <time>2019-09-30T09:48:04Z</time>
      </trkpt>
      <trkpt lat="47.46456" lon="6.3788">
        <ele>313.308</ele>
        <time>2019-09-30T09:48:07Z</time>
      </trkpt>
      <trkpt lat="47.46449" lon="6.37875">
        <ele>313.319</ele>
        <time>2019-09-30T09:48:10Z</time>
      </trkpt>
      <trkpt lat="47.46443" lon="6.3787">
        <ele>313.767</ele>
        <time>2019-09-30T09:48:13Z</time>
      </trkpt>
      <trkpt lat="47.46437" lon="6.37865">
        <ele>313.981</ele>
        <time>2019-09-30T09:48:16Z</time>
      </trkpt>
      <trkpt lat="47.4643" lon="6.37861">
        <ele>314.106</ele>
        <time>2019-09-30T09:48:19Z</time>
      </trkpt>
      <trkpt lat="47.46423" lon="6.37857">
        <ele>314.615</ele>
        <time>2019-09-30T09:48:22Z</time>
      </trkpt>
      <trkpt lat="47.46417" lon="6.37851">
        <ele>314.94</ele>
        <time>2019-09-30T09:48:25Z</time>
      </trkpt>
      <trkpt lat="47.46411" lon="6.37846">
        <ele>315.011</ele>
        <time>2019-09-30T09:48:28Z</time>
      </trkpt>
      <trkpt lat="47.46404" lon="6.37842">
        <ele>315.25</ele>
        <time>2019-09-30T09:48:31Z</time>
      </trkpt>
      <trkpt lat="47.46397" lon="6.37837">
        <ele>315.489</ele>
        <time>2019-09-30T09:48:34Z</time>
      </trkpt>
      <trkpt lat="47.46391" lon="6.37832">
        <ele>315.928</ele>
        <time>2019-09-30T09:48:37Z</time>
      </trkpt>
      <trkpt lat="47.46384" lon="6.37827">
        <ele>316.25</ele>
        <time>2019-09-30T09:48:40Z</time>
      </trkpt>
      <trkpt lat="47.46378" lon="6.37823">
        <ele>316.328</ele>
        <time>2019-09-30T09:48:43Z</time>
      </trkpt>
      <trkpt lat="47.46371" lon="6.37818">
        <ele>316.703</ele>
        <time>2019-09-30T09:48:46Z</time>
      </trkpt>
      <trkpt lat="47.46364" lon="6.37813">
        <ele>317.064</ele>
        <time>2019-09-30T09:48:49Z</time>
      </trkpt>
      <trkpt lat="47.46358" lon="6.37809">
        <ele>317.418</ele>
        <time>2019-09-30T09:48:52Z</time>
      </trkpt>
      <trkpt lat="47.46351" lon="6.37804">
        <ele>317.448</ele>
        <time>2019-09-30T09:48:55Z</time>
      </trkpt>
      <trkpt lat="47.46345" lon="6.37799">
        <ele>317.125</ele>
        <time>2019-09-30T09:48:58Z</time>
      </trkpt>
      <trkpt lat="47.46338" lon="6.37795">
        <ele>317.217</ele>
        <time>2019-09-30T09:49:01Z</time>
      </trkpt>
      <trkpt lat="47.46332" lon="6.37792">
        <ele>317.318</ele>
        <time>2019-09-30T09:49:04Z</time>
      </trkpt>
      <trkpt lat="47.46326" lon="6.37788">
        <ele>317.71</ele>
        <time>2019-09-30T09:49:07Z</time>
      </trkpt>
      <trkpt lat="47.46319" lon="6.37784">
        <ele>318.349</ele>
        <time>2019-09-30T09:49:10Z</time>
      </trkpt>
      <trkpt lat="47.46312" lon="6.3778">
        <ele>318.534</ele>
        <time>2019-09-30T09:49:13Z</time>
      </trkpt>
      <trkpt lat="47.46306" lon="6.37776">
        <ele>319.363</ele>
        <time>2019-09-30T09:49:16Z</time>
      </trkpt>
      <trkpt lat="47.46299" lon="6.37772">
        <ele>320.177</ele>
        <time>2019-09-30T09:49:19Z</time>
      </trkpt>
      <trkpt lat="47.46292" lon="6.37769">
        <ele>320.607</ele>
        <time>2019-09-30T09:49:22Z</time>
      </trkpt>
      <trkpt lat="47.46285" lon="6.37765">
        <ele>321.044</ele>
        <time>2019-09-30T09:49:25Z</time>
      </trkpt>
      <trkpt lat="47.46278" lon="6.37761">
        <ele>321.743</ele>
        <time>2019-09-30T09:49:28Z</time>
      </trkpt>
      <trkpt lat="47.46271" lon="6.37758">
        <ele>321.823</ele>
        <time>2019-09-30T09:49:31Z</time>
      </trkpt>
      <trkpt lat="47.46264" lon="6.37755">
        <ele>322.059</ele>
        <time>2019-09-30T09:49:34Z</time>
      </trkpt>
      <trkpt lat="47.46256" lon="6.37751">
        <ele>322.642</ele>
        <time>2019-09-30T09:49:37Z</time>
      </trkpt>
      <trkpt lat="47.46249" lon="6.37748">
        <ele>323.564</ele>
        <time>2019-09-30T09:49:40Z</time>
      </trkpt>
      <trkpt lat="47.46242" lon="6.37745">
        <ele>323.75</ele>
        <time>2019-09-30T09:49:43Z</time>
      </trkpt>
      <trkpt lat="47.46235" lon="6.37742">
        <ele>323.693</ele>
        <time>2019-09-30T09:49:46Z</time>
      </trkpt>
      <trkpt lat="47.46228" lon="6.37739">
        <ele>324.324</ele>
        <time>2019-09-30T09:49:49Z</time>
      </trkpt>
      <trkpt lat="47.4622" lon="6.37735">
        <ele>324.633</ele>
        <time>2019-09-30T09:49:52Z</time>
      </trkpt>
      <trkpt lat="47.46212" lon="6.3773">
        <ele>324.816</ele>
        <time>2019-09-30T09:49:55Z</time>
      </trkpt>
      <trkpt lat="47.46204" lon="6.37725">
        <ele>325.01</ele>
        <time>2019-09-30T09:49:58Z</time>
      </trkpt>
      <trkpt lat="47.46195" lon="6.37721">
        <ele>325.705</ele>
        <time>2019-09-30T09:50:01Z</time>
      </trkpt>
      <trkpt lat="47.46187" lon="6.37717">
        <ele>326.229</ele>
        <time>2019-09-30T09:50:04Z</time>
      </trkpt>
      <trkpt lat="47.46178" lon="6.37712">
        <ele>326.718</ele>
        <time>2019-09-30T09:50:07Z</time>
      </trkpt>
      <trkpt lat="47.46168" lon="6.37707">
        <ele>327.031</ele>
        <time>2019-09-30T09:50:10Z</time>
      </trkpt>
      <trkpt lat="47.46159" lon="6.377">
        <ele>327.175</ele>
        <time>2019-09-30T09:50:13Z</time>
      </trkpt>
      <trkpt lat="47.46149" lon="6.37694">
        <ele>326.824</ele>
        <time>2019-09-30T09:50:16Z</time>
      </trkpt>
      <trkpt lat="47.46138" lon="6.37687">
        <ele>326.585</ele>
        <time>2019-09-30T09:50:19Z</time>
      </trkpt>
      <trkpt lat="47.46127" lon="6.37679">
        <ele>326.253</ele>
        <time>2019-09-30T09:50:22Z</time>
      </trkpt>
      <trkpt lat="47.46116" lon="6.3767">
        <ele>325.754</ele>
        <time>2019-09-30T09:50:25Z</time>
      </trkpt>
      <trkpt lat="47.46105" lon="6.37661">
        <ele>325.579</ele>
        <time>2019-09-30T09:50:28Z</time>
      </trkpt>
      <trkpt lat="47.46093" lon="6.37653">
        <ele>325.016</ele>
        <time>2019-09-30T09:50:31Z</time>
      </trkpt>
      <trkpt lat="47.46082" lon="6.37645">
        <ele>324.176</ele>
        <time>2019-09-30T09:50:34Z</time>
      </trkpt>
      <trkpt lat="47.46071" lon="6.37637">
        <ele>323.689</ele>
        <time>2019-09-30T09:50:37Z</time>
      </trkpt>
      <trkpt lat="47.4606" lon="6.37629">
        <ele>323.466</ele>
        <time>2019-09-30T09:50:40Z</time>
      </trkpt>
      <trkpt lat="47.46049" lon="6.37621">
        <ele>323.134</ele>
        <time>2019-09-30T09:50:43Z</time>
      </trkpt>
      <trkpt lat="47.46038" lon="6.37613">
        <ele>322.934</ele>
        <time>2019-09-30T09:50:46Z</time>
      </trkpt>
      <trkpt lat="47.46027" lon="6.37606">
        <ele>322.47</ele>
        <time>2019-09-30T09:50:49Z</time>
      </trkpt>
      <trkpt lat="47.46017" lon="6.37598">
        <ele>321.888</ele>
        <time>2019-09-30T09:50:52Z</time>
      </trkpt>
      <trkpt lat="47.46007" lon="6.3759">
        <ele>321.767</ele>
        <time>2019-09-30T09:50:55Z</time>
      </trkpt>
      <trkpt lat="47.45997" lon="6.37583">
        <ele>321.849</ele>
        <time>2019-09-30T09:50:58Z</time>
      </trkpt>
      <trkpt lat="47.45988" lon="6.37576">
        <ele>322.632</ele>
        <time>2019-09-30T09:51:01Z</time>
      </trkpt>
      <trkpt lat="47.4598" lon="6.37569">
        <ele>323.281</ele>
        <time>2019-09-30T09:51:04Z</time>
      </trkpt>
      <trkpt lat="47.45971" lon="6.37562">
        <ele>323.347</ele>
        <time>2019-09-30T09:51:07Z</time>
      </trkpt>
      <trkpt lat="47.45963" lon="6.37556">
        <ele>323.8</ele>
        <time>2019-09-30T09:51:10Z</time>
      </trkpt>
      <trkpt lat="47.45956" lon="6.3755">
        <ele>324.05</ele>
        <time>2019-09-30T09:51:13Z</time>
      </trkpt>
      <trkpt lat="47.45948" lon="6.37544">
        <ele>324.014</ele>
        <time>2019-09-30T09:51:16Z</time>
      </trkpt>
      <trkpt lat="47.45941" lon="6.37536">
        <ele>323.447</ele>
        <time>2019-09-30T09:51:19Z</time>
      </trkpt>
      <trkpt lat="47.45933" lon="6.37528">
        <ele>323.463</ele>
        <time>2019-09-30T09:51:22Z</time>
      </trkpt>
      <trkpt lat="47.45927" lon="6.37521">
        <ele>323.611</ele>
        <time>2019-09-30T09:51:25Z</time>
      </trkpt>
      <trkpt lat="47.4592" lon="6.37514">
        <ele>324.156</ele>
        <time>2019-09-30T09:51:28Z</time>
      </trkpt>
      <trkpt lat="47.45914" lon="6.37507">
        <ele>324.6</ele>
        <time>2019-09-30T09:51:31Z</time>
      </trkpt>
      <trkpt lat="47.45908" lon="6.37499">
        <ele>325.024</ele>
        <time>2019-09-30T09:51:34Z</time>
      </trkpt>
      <trkpt lat="47.45903" lon="6.37492">
        <ele>325.467</ele>
        <time>2019-09-30T09:51:37Z</time>
      </trkpt>
      <trkpt lat="47.45897" lon="6.37483">
        <ele>326.12</ele>
        <time>2019-09-30T09:51:40Z</time>
      </trkpt>
      <trkpt lat="47.45892" lon="6.37476">
        <ele>326.697</ele>
        <time>2019-09-30T09:51:43Z</time>
      </trkpt>
      <trkpt lat="47.45886" lon="6.37469">
        <ele>327.281</ele>
        <time>2019-09-30T09:51:46Z</time>
      </trkpt>
      <trkpt lat="47.45881" lon="6.37462">
        <ele>328.079</ele>
        <time>2019-09-30T09:51:49Z</time>
      </trkpt>
      <trkpt lat="47.45876" lon="6.37455">
        <ele>329.111</ele>
        <time>2019-09-30T09:51:52Z</time>
      </trkpt>
      <trkpt lat="47.45871" lon="6.37447">
        <ele>330.102</ele>
        <time>2019-09-30T09:51:55Z</time>
      </trkpt>
      <trkpt lat="47.45865" lon="6.37441">
        <ele>331.284</ele>
        <time>2019-09-30T09:51:58Z</time>
      </trkpt>
      <trkpt lat="47.45861" lon="6.37433">
        <ele>331.627</ele>
        <time>2019-09-30T09:52:01Z</time>
      </trkpt>
      <trkpt lat="47.45855" lon="6.37426">
        <ele>332.153</ele>
        <time>2019-09-30T09:52:04Z</time>
      </trkpt>
      <trkpt lat="47.45849" lon="6.37417">
        <ele>332.366</ele>
        <time>2019-09-30T09:52:07Z</time>
      </trkpt>
      <trkpt lat="47.45844" lon="6.3741">
        <ele>332.565</ele>
        <time>2019-09-30T09:52:10Z</time>
      </trkpt>
      <trkpt lat="47.45839" lon="6.37403">
        <ele>333.169</ele>
        <time>2019-09-30T09:52:13Z</time>
      </trkpt>
      <trkpt lat="47.45833" lon="6.37395">
        <ele>334.307</ele>
        <time>2019-09-30T09:52:16Z</time>
      </trkpt>
      <trkpt lat="47.45828" lon="6.37388">
        <ele>335.038</ele>
        <time>2019-09-30T09:52:19Z</time>
      </trkpt>
      <trkpt lat="47.45822" lon="6.37381">
        <ele>335.924</ele>
        <time>2019-09-30T09:52:22Z</time>
      </trkpt>
      <trkpt lat="47.45817" lon="6.37373">
        <ele>336.995</ele>
        <time>2019-09-30T09:52:25Z</time>
      </trkpt>
      <trkpt lat="47.45812" lon="6.37366">
        <ele>337.447</ele>
        <time>2019-09-30T09:52:28Z</time>
      </trkpt>
      <trkpt lat="47.45805" lon="6.37358">
        <ele>337.415</ele>
        <time>2019-09-30T09:52:31Z</time>
      </trkpt>
      <trkpt lat="47.45799" lon="6.37351">
        <ele>337.72</ele>
        <time>2019-09-30T09:52:34Z</time>
      </trkpt>
      <trkpt lat="47.45793" lon="6.37343">
        <ele>337.96</ele>
        <time>2019-09-30T09:52:37Z</time>
      </trkpt>
      <trkpt lat="47.45786" lon="6.37335">
        <ele>338.274</ele>
        <time>2019-09-30T09:52:40Z</time>
      </trkpt>
      <trkpt lat="47.4578" lon="6.37328">
        <ele>338.658</ele>
        <time>2019-09-30T09:52:43Z</time>
      </trkpt>
      <trkpt lat="47.45773" lon="6.37321">
        <ele>339.039</ele>
        <time>2019-09-30T09:52:46Z</time>
      </trkpt>
      <trkpt lat="47.45766" lon="6.37314">
        <ele>339.299</ele>
        <time>2019-09-30T09:52:49Z</time>
      </trkpt>
      <trkpt lat="47.45759" lon="6.37307">
        <ele>339.87</ele>
        <time>2019-09-30T09:52:52Z</time>
      </trkpt>
      <trkpt lat="47.45752" lon="6.37301">
        <ele>340.096</ele>
        <time>2019-09-30T09:52:55Z</time>
      </trkpt>
      <trkpt lat="47.45745" lon="6.37295">
        <ele>340.376</ele>
        <time>2019-09-30T09:52:58Z</time>
      </trkpt>
      <trkpt lat="47.45737" lon="6.37289">
        <ele>340.903</ele>
        <time>2019-09-30T09:53:01Z</time>
      </trkpt>
      <trkpt lat="47.4573" lon="6.37283">
        <ele>341.605</ele>
        <time>2019-09-30T09:53:04Z</time>
      </trkpt>
      <trkpt lat="47.45722" lon="6.37278">
        <ele>342.506</ele>
        <time>2019-09-30T09:53:07Z</time>
      </trkpt>
      <trkpt lat="47.45713" lon="6.37272">
        <ele>343.004</ele>
        <time>2019-09-30T09:53:10Z</time>
      </trkpt>
      <trkpt lat="47.45703" lon="6.37267">
        <ele>343.2</ele>
        <time>2019-09-30T09:53:13Z</time>
      </trkpt>
      <trkpt lat="47.45692" lon="6.37262">
        <ele>342.706</ele>
        <time>2019-09-30T09:53:16Z</time>
      </trkpt>
      <trkpt lat="47.4568" lon="6.37257">
        <ele>341.698</ele>
        <time>2019-09-30T09:53:19Z</time>
      </trkpt>
      <trkpt lat="47.45667" lon="6.37252">
        <ele>341.391</ele>
        <time>2019-09-30T09:53:22Z</time>
      </trkpt>
      <trkpt lat="47.45655" lon="6.37248">
        <ele>340.591</ele>
        <time>2019-09-30T09:53:25Z</time>
      </trkpt>
      <trkpt lat="47.45641" lon="6.37244">
        <ele>340.515</ele>
        <time>2019-09-30T09:53:28Z</time>
      </trkpt>
      <trkpt lat="47.45628" lon="6.37241">
        <ele>340.676</ele>
        <time>2019-09-30T09:53:31Z</time>
      </trkpt>
      <trkpt lat="47.45614" lon="6.37239">
        <ele>340.317</ele>
        <time>2019-09-30T09:53:34Z</time>
      </trkpt>
      <trkpt lat="47.456" lon="6.37238">
        <ele>340.002</ele>
        <time>2019-09-30T09:53:37Z</time>
      </trkpt>
      <trkpt lat="47.45586" lon="6.37238">
        <ele>339.715</ele>
        <time>2019-09-30T09:53:40Z</time>
      </trkpt>
      <trkpt lat="47.45572" lon="6.37239">
        <ele>338.937</ele>
        <time>2019-09-30T09:53:43Z</time>
      </trkpt>
      <trkpt lat="47.45558" lon="6.37241">
        <ele>338.269</ele>
        <time>2019-09-30T09:53:46Z</time>
      </trkpt>
      <trkpt lat="47.45544" lon="6.37243">
        <ele>337.757</ele>
        <time>2019-09-30T09:53:49Z</time>
      </trkpt>
      <trkpt lat="47.4553" lon="6.37245">
        <ele>336.818</ele>
        <time>2019-09-30T09:53:52Z</time>
      </trkpt>
      <trkpt lat="47.45517" lon="6.37249">
        <ele>336.381</ele>
        <time>2019-09-30T09:53:55Z</time>
      </trkpt>
      <trkpt lat="47.45505" lon="6.37253">
        <ele>335.856</ele>
        <time>2019-09-30T09:53:58Z</time>
      </trkpt>
      <trkpt lat="47.45494" lon="6.37257">
        <ele>335.351</ele>
        <time>2019-09-30T09:54:01Z</time>
      </trkpt>
      <trkpt lat="47.45482" lon="6.3726">
        <ele>335.258</ele>
        <time>2019-09-30T09:54:04Z</time>
      </trkpt>
      <trkpt lat="47.4547" lon="6.37263">
        <ele>335.494</ele>
        <time>2019-09-30T09:54:07Z</time>
      </trkpt>
      <trkpt lat="47.45458" lon="6.37267">
        <ele>335.856</ele>
        <time>2019-09-30T09:54:10Z</time>
      </trkpt>
      <trkpt lat="47.45446" lon="6.37271">
        <ele>336.312</ele>
        <time>2019-09-30T09:54:13Z</time>
      </trkpt>
      <trkpt lat="47.45435" lon="6.37275">
        <ele>336.502</ele>
        <time>2019-09-30T09:54:16Z</time>
      </trkpt>
      <trkpt lat="47.45423" lon="6.37279">
        <ele>336.772</ele>
        <time>2019-09-30T09:54:19Z</time>
      </trkpt>
      <trkpt lat="47.45412" lon="6.37283">
        <ele>337.081</ele>
        <time>2019-09-30T09:54:22Z</time>
      </trkpt>
      <trkpt lat="47.45402" lon="6.37286">
        <ele>337.409</ele>
        <time>2019-09-30T09:54:25Z</time>
      </trkpt>
      <trkpt lat="47.45393" lon="6.37289">
        <ele>337.304</ele>
        <time>2019-09-30T09:54:28Z</time>
      </trkpt>
      <trkpt lat="47.45384" lon="6.37291">
        <ele>337.104</ele>
        <time>2019-09-30T09:54:31Z</time>
      </trkpt>
      <trkpt lat="47.45375" lon="6.37293">
        <ele>336.772</ele>
        <time>2019-09-30T09:54:34Z</time>
      </trkpt>
      <trkpt lat="47.45368" lon="6.37294">
        <ele>337.004</ele>
        <time>2019-09-30T09:54:37Z</time>
      </trkpt>
      <trkpt lat="47.4536" lon="6.37294">
        <ele>337.26</ele>
        <time>2019-09-30T09:54:40Z</time>
      </trkpt>
      <trkpt lat="47.45353" lon="6.37294">
        <ele>337.613</ele>
        <time>2019-09-30T09:54:43Z</time>
      </trkpt>
      <trkpt lat="47.45345" lon="6.37293">
        <ele>338.106</ele>
        <time>2019-09-30T09:54:46.001Z</time>
      </trkpt>
      <trkpt lat="47.45337" lon="6.37292">
        <ele>338.656</ele>
        <time>2019-09-30T09:54:49Z</time>
      </trkpt>
      <trkpt lat="47.45329" lon="6.3729">
        <ele>339.202</ele>
        <time>2019-09-30T09:54:52Z</time>
      </trkpt>
      <trkpt lat="47.45322" lon="6.37289">
        <ele>340.08</ele>
        <time>2019-09-30T09:54:55Z</time>
      </trkpt>
      <trkpt lat="47.45315" lon="6.37286">
        <ele>340.67</ele>
        <time>2019-09-30T09:54:58Z</time>
      </trkpt>
      <trkpt lat="47.45308" lon="6.37283">
        <ele>341.448</ele>
        <time>2019-09-30T09:55:01Z</time>
      </trkpt>
      <trkpt lat="47.45301" lon="6.3728">
        <ele>342.293</ele>
        <time>2019-09-30T09:55:04Z</time>
      </trkpt>
      <trkpt lat="47.45293" lon="6.37278">
        <ele>343.042</ele>
        <time>2019-09-30T09:55:07Z</time>
      </trkpt>
      <trkpt lat="47.45287" lon="6.37275">
        <ele>344.104</ele>
        <time>2019-09-30T09:55:10Z</time>
      </trkpt>
      <trkpt lat="47.45281" lon="6.37272">
        <ele>344.767</ele>
        <time>2019-09-30T09:55:13Z</time>
      </trkpt>
      <trkpt lat="47.45276" lon="6.37267">
        <ele>345.506</ele>
        <time>2019-09-30T09:55:16Z</time>
      </trkpt>
      <trkpt lat="47.4527" lon="6.37262">
        <ele>346.59</ele>
        <time>2019-09-30T09:55:19Z</time>
      </trkpt>
      <trkpt lat="47.45264" lon="6.37258">
        <ele>347.474</ele>
        <time>2019-09-30T09:55:22Z</time>
      </trkpt>
      <trkpt lat="47.45259" lon="6.37254">
        <ele>348.41</ele>
        <time>2019-09-30T09:55:25Z</time>
      </trkpt>
      <trkpt lat="47.45253" lon="6.3725">
        <ele>348.944</ele>
        <time>2019-09-30T09:55:28Z</time>
      </trkpt>
      <trkpt lat="47.45247" lon="6.37246">
        <ele>349.827</ele>
        <time>2019-09-30T09:55:31Z</time>
      </trkpt>
      <trkpt lat="47.45241" lon="6.37243">
        <ele>351.172</ele>
        <time>2019-09-30T09:55:34Z</time>
      </trkpt>
      <trkpt lat="47.45236" lon="6.37239">
        <ele>352.103</ele>
        <time>2019-09-30T09:55:37Z</time>
      </trkpt>
      <trkpt lat="47.45231" lon="6.37234">
        <ele>353.649</ele>
        <time>2019-09-30T09:55:40Z</time>
      </trkpt>
      <trkpt lat="47.45226" lon="6.3723">
        <ele>354.272</ele>
        <time>2019-09-30T09:55:43Z</time>
      </trkpt>
      <trkpt lat="47.45221" lon="6.37225">
        <ele>354.936</ele>
        <time>2019-09-30T09:55:46Z</time>
      </trkpt>
      <trkpt lat="47.45216" lon="6.3722">
        <ele>355.569</ele>
        <time>2019-09-30T09:55:49Z</time>
      </trkpt>
      <trkpt lat="47.45211" lon="6.37216">
        <ele>356.347</ele>
        <time>2019-09-30T09:55:52Z</time>
      </trkpt>
      <trkpt lat="47.45205" lon="6.37213">
        <ele>356.638</ele>
        <time>2019-09-30T09:55:55Z</time>
      </trkpt>
      <trkpt lat="47.452" lon="6.37208">
        <ele>357.271</ele>
        <time>2019-09-30T09:55:58Z</time>
      </trkpt>
      <trkpt lat="47.45195" lon="6.37205">
        <ele>357.803</ele>
        <time>2019-09-30T09:56:01Z</time>
      </trkpt>
      <trkpt lat="47.4519" lon="6.37202">
        <ele>358.539</ele>
        <time>2019-09-30T09:56:04Z</time>
      </trkpt>
      <trkpt lat="47.45184" lon="6.37198">
        <ele>358.974</ele>
        <time>2019-09-30T09:56:07Z</time>
      </trkpt>
      <trkpt lat="47.45178" lon="6.37195">
        <ele>358.56</ele>
        <time>2019-09-30T09:56:10Z</time>
      </trkpt>
      <trkpt lat="47.45172" lon="6.37192">
        <ele>358.768</ele>
        <time>2019-09-30T09:56:13Z</time>
      </trkpt>
      <trkpt lat="47.45167" lon="6.37189">
        <ele>358.743</ele>
        <time>2019-09-30T09:56:16Z</time>
      </trkpt>
      <trkpt lat="47.4516" lon="6.37185">
        <ele>359.186</ele>
        <time>2019-09-30T09:56:19Z</time>
      </trkpt>
      <trkpt lat="47.45154" lon="6.37182">
        <ele>359.791</ele>
        <time>2019-09-30T09:56:22Z</time>
      </trkpt>
      <trkpt lat="47.45148" lon="6.3718">
        <ele>359.817</ele>
        <time>2019-09-30T09:56:25Z</time>
      </trkpt>
      <trkpt lat="47.45142" lon="6.37177">
        <ele>359.64</ele>
        <time>2019-09-30T09:56:28Z</time>
      </trkpt>
      <trkpt lat="47.45136" lon="6.37175">
        <ele>359.599</ele>
        <time>2019-09-30T09:56:31Z</time>
      </trkpt>
      <trkpt lat="47.45129" lon="6.37174">
        <ele>360.504</ele>
        <time>2019-09-30T09:56:34Z</time>
      </trkpt>
      <trkpt lat="47.45123" lon="6.37173">
        <ele>360.282</ele>
        <time>2019-09-30T09:56:37Z</time>
      </trkpt>
      <trkpt lat="47.45116" lon="6.37172">
        <ele>360.498</ele>
        <time>2019-09-30T09:56:40Z</time>
      </trkpt>
      <trkpt lat="47.45108" lon="6.37171">
        <ele>360.597</ele>
        <time>2019-09-30T09:56:43Z</time>
      </trkpt>
      <trkpt lat="47.45101" lon="6.37171">
        <ele>360.153</ele>
        <time>2019-09-30T09:56:46Z</time>
      </trkpt>
      <trkpt lat="47.45094" lon="6.37171">
        <ele>360.335</ele>
        <time>2019-09-30T09:56:49Z</time>
      </trkpt>
      <trkpt lat="47.45087" lon="6.37173">
        <ele>360.255</ele>
        <time>2019-09-30T09:56:52Z</time>
      </trkpt>
      <trkpt lat="47.4508" lon="6.37174">
        <ele>359.88</ele>
        <time>2019-09-30T09:56:55Z</time>
      </trkpt>
      <trkpt lat="47.45073" lon="6.37174">
        <ele>358.771</ele>
        <time>2019-09-30T09:56:58Z</time>
      </trkpt>
      <trkpt lat="47.45065" lon="6.37175">
        <ele>357.461</ele>
        <time>2019-09-30T09:57:01Z</time>
      </trkpt>
      <trkpt lat="47.45058" lon="6.37176">
        <ele>356.303</ele>
        <time>2019-09-30T09:57:04Z</time>
      </trkpt>
      <trkpt lat="47.4505" lon="6.37179">
        <ele>355.026</ele>
        <time>2019-09-30T09:57:07Z</time>
      </trkpt>
      <trkpt lat="47.45042" lon="6.37182">
        <ele>354.268</ele>
        <time>2019-09-30T09:57:10Z</time>
      </trkpt>
      <trkpt lat="47.45033" lon="6.37186">
        <ele>354.211</ele>
        <time>2019-09-30T09:57:13Z</time>
      </trkpt>
      <trkpt lat="47.45025" lon="6.3719">
        <ele>353.747</ele>
        <time>2019-09-30T09:57:16Z</time>
      </trkpt>
      <trkpt lat="47.45016" lon="6.37195">
        <ele>353.438</ele>
        <time>2019-09-30T09:57:19Z</time>
      </trkpt>
      <trkpt lat="47.45008" lon="6.37201">
        <ele>352.632</ele>
        <time>2019-09-30T09:57:22Z</time>
      </trkpt>
      <trkpt lat="47.45" lon="6.37207">
        <ele>352.16</ele>
        <time>2019-09-30T09:57:25Z</time>
      </trkpt>
      <trkpt lat="47.44992" lon="6.37215">
        <ele>351.806</ele>
        <time>2019-09-30T09:57:28Z</time>
      </trkpt>
      <trkpt lat="47.44983" lon="6.37224">
        <ele>351.745</ele>
        <time>2019-09-30T09:57:31Z</time>
      </trkpt>
      <trkpt lat="47.44974" lon="6.37234">
        <ele>351.635</ele>
        <time>2019-09-30T09:57:34Z</time>
      </trkpt>
      <trkpt lat="47.44964" lon="6.37245">
        <ele>351.542</ele>
        <time>2019-09-30T09:57:37Z</time>
      </trkpt>
      <trkpt lat="47.44955" lon="6.37256">
        <ele>351.304</ele>
        <time>2019-09-30T09:57:40Z</time>
      </trkpt>
      <trkpt lat="47.44946" lon="6.37267">
        <ele>351.268</ele>
        <time>2019-09-30T09:57:43Z</time>
      </trkpt>
      <trkpt lat="47.44938" lon="6.3728">
        <ele>351.891</ele>
        <time>2019-09-30T09:57:46Z</time>
      </trkpt>
      <trkpt lat="47.4493" lon="6.37292">
        <ele>352.397</ele>
        <time>2019-09-30T09:57:49Z</time>
      </trkpt>
      <trkpt lat="47.44921" lon="6.37307">
        <ele>352.873</ele>
        <time>2019-09-30T09:57:52Z</time>
      </trkpt>
      <trkpt lat="47.44912" lon="6.3732">
        <ele>354.139</ele>
        <time>2019-09-30T09:57:55Z</time>
      </trkpt>
      <trkpt lat="47.44902" lon="6.37333">
        <ele>354.998</ele>
        <time>2019-09-30T09:57:58Z</time>
      </trkpt>
      <trkpt lat="47.44892" lon="6.37345">
        <ele>355.353</ele>
        <time>2019-09-30T09:58:01Z</time>
      </trkpt>
      <trkpt lat="47.44881" lon="6.37356">
        <ele>355.884</ele>
        <time>2019-09-30T09:58:04Z</time>
      </trkpt>
      <trkpt lat="47.4487" lon="6.37369">
        <ele>356.335</ele>
        <time>2019-09-30T09:58:07Z</time>
      </trkpt>
      <trkpt lat="47.44858" lon="6.3738">
        <ele>356.768</ele>
        <time>2019-09-30T09:58:10Z</time>
      </trkpt>
      <trkpt lat="47.44846" lon="6.3739">
        <ele>356.516</ele>
        <time>2019-09-30T09:58:13Z</time>
      </trkpt>
      <trkpt lat="47.44835" lon="6.374">
        <ele>355.901</ele>
        <time>2019-09-30T09:58:16Z</time>
      </trkpt>
      <trkpt lat="47.44823" lon="6.37408">
        <ele>354.997</ele>
        <time>2019-09-30T09:58:19Z</time>
      </trkpt>
      <trkpt lat="47.44811" lon="6.37415">
        <ele>354.443</ele>
        <time>2019-09-30T09:58:22Z</time>
      </trkpt>
      <trkpt lat="47.44799" lon="6.3742">
        <ele>353.905</ele>
        <time>2019-09-30T09:58:25Z</time>
      </trkpt>
      <trkpt lat="47.44787" lon="6.37424">
        <ele>353.739</ele>
        <time>2019-09-30T09:58:28Z</time>
      </trkpt>
      <trkpt lat="47.44775" lon="6.37428">
        <ele>353.835</ele>
        <time>2019-09-30T09:58:31Z</time>
      </trkpt>
      <trkpt lat="47.44761" lon="6.37432">
        <ele>354.312</ele>
        <time>2019-09-30T09:58:34Z</time>
      </trkpt>
      <trkpt lat="47.44746" lon="6.37435">
        <ele>354.849</ele>
        <time>2019-09-30T09:58:37Z</time>
      </trkpt>
      <trkpt lat="47.44731" lon="6.37437">
        <ele>355.412</ele>
        <time>2019-09-30T09:58:40Z</time>
      </trkpt>
      <trkpt lat="47.44717" lon="6.37437">
        <ele>356.514</ele>
        <time>2019-09-30T09:58:43Z</time>
      </trkpt>
      <trkpt lat="47.44704" lon="6.37439">
        <ele>357.301</ele>
        <time>2019-09-30T09:58:46Z</time>
      </trkpt>
      <trkpt lat="47.4469" lon="6.3744">
        <ele>358.018</ele>
        <time>2019-09-30T09:58:49Z</time>
      </trkpt>
      <trkpt lat="47.44675" lon="6.37439">
        <ele>358.633</ele>
        <time>2019-09-30T09:58:52Z</time>
      </trkpt>
      <trkpt lat="47.4466" lon="6.3744">
        <ele>359.003</ele>
        <time>2019-09-30T09:58:55Z</time>
      </trkpt>
      <trkpt lat="47.44644" lon="6.37443">
        <ele>359.262</ele>
        <time>2019-09-30T09:58:58Z</time>
      </trkpt>
      <trkpt lat="47.44626" lon="6.37447">
        <ele>359.518</ele>
        <time>2019-09-30T09:59:01Z</time>
      </trkpt>
      <trkpt lat="47.44607" lon="6.37453">
        <ele>359.529</ele>
        <time>2019-09-30T09:59:04Z</time>
      </trkpt>
      <trkpt lat="47.44587" lon="6.3746">
        <ele>358.939</ele>
        <time>2019-09-30T09:59:07Z</time>
      </trkpt>
      <trkpt lat="47.44567" lon="6.3747">
        <ele>357.904</ele>
        <time>2019-09-30T09:59:10Z</time>
      </trkpt>
      <trkpt lat="47.44548" lon="6.37479">
        <ele>356.313</ele>
        <time>2019-09-30T09:59:13Z</time>
      </trkpt>
      <trkpt lat="47.44528" lon="6.37488">
        <ele>355.915</ele>
        <time>2019-09-30T09:59:16Z</time>
      </trkpt>
      <trkpt lat="47.44511" lon="6.37497">
        <ele>355.953</ele>
        <time>2019-09-30T09:59:19Z</time>
      </trkpt>
      <trkpt lat="47.44496" lon="6.37505">
        <ele>355.737</ele>
        <time>2019-09-30T09:59:22Z</time>
      </trkpt>
      <trkpt lat="47.44482" lon="6.37513">
        <ele>355.048</ele>
        <time>2019-09-30T09:59:25Z</time>
      </trkpt>
      <trkpt lat="47.44468" lon="6.3752">
        <ele>354.975</ele>
        <time>2019-09-30T09:59:28Z</time>
      </trkpt>
      <trkpt lat="47.44454" lon="6.37526">
        <ele>354.912</ele>
        <time>2019-09-30T09:59:31Z</time>
      </trkpt>
      <trkpt lat="47.4444" lon="6.37533">
        <ele>354.505</ele>
        <time>2019-09-30T09:59:34Z</time>
      </trkpt>
      <trkpt lat="47.44426" lon="6.37539">
        <ele>354.287</ele>
        <time>2019-09-30T09:59:37Z</time>
      </trkpt>
      <trkpt lat="47.44413" lon="6.37542">
        <ele>354.418</ele>
        <time>2019-09-30T09:59:40Z</time>
      </trkpt>
      <trkpt lat="47.44401" lon="6.37545">
        <ele>355.14</ele>
        <time>2019-09-30T09:59:43Z</time>
      </trkpt>
      <trkpt lat="47.44391" lon="6.37546">
        <ele>356.003</ele>
        <time>2019-09-30T09:59:46Z</time>
      </trkpt>
      <trkpt lat="47.44379" lon="6.37549">
        <ele>357.026</ele>
        <time>2019-09-30T09:59:49Z</time>
      </trkpt>
      <trkpt lat="47.44369" lon="6.37551">
        <ele>358.16</ele>
        <time>2019-09-30T09:59:52Z</time>
      </trkpt>
      <trkpt lat="47.44358" lon="6.37552">
        <ele>358.865</ele>
        <time>2019-09-30T09:59:55Z</time>
      </trkpt>
      <trkpt lat="47.44349" lon="6.37555">
        <ele>359.327</ele>
        <time>2019-09-30T09:59:58Z</time>
      </trkpt>
      <trkpt lat="47.44341" lon="6.37558">
        <ele>359.695</ele>
        <time>2019-09-30T10:00:01Z</time>
      </trkpt>
      <trkpt lat="47.44333" lon="6.37561">
        <ele>360.097</ele>
        <time>2019-09-30T10:00:04Z</time>
      </trkpt>
      <trkpt lat="47.44324" lon="6.37563">
        <ele>360.142</ele>
        <time>2019-09-30T10:00:07Z</time>
      </trkpt>
      <trkpt lat="47.44315" lon="6.37566">
        <ele>360.01</ele>
        <time>2019-09-30T10:00:10Z</time>
      </trkpt>
      <trkpt lat="47.44305" lon="6.37568">
        <ele>359.657</ele>
        <time>2019-09-30T10:00:13Z</time>
      </trkpt>
      <trkpt lat="47.44295" lon="6.3757">
        <ele>359.449</ele>
        <time>2019-09-30T10:00:16Z</time>
      </trkpt>
      <trkpt lat="47.44286" lon="6.37571">
        <ele>359.717</ele>
        <time>2019-09-30T10:00:19Z</time>
      </trkpt>
      <trkpt lat="47.44277" lon="6.37573">
        <ele>359.543</ele>
        <time>2019-09-30T10:00:22Z</time>
      </trkpt>
      <trkpt lat="47.44268" lon="6.37575">
        <ele>359.799</ele>
        <time>2019-09-30T10:00:25Z</time>
      </trkpt>
      <trkpt lat="47.44258" lon="6.37576">
        <ele>360.005</ele>
        <time>2019-09-30T10:00:28Z</time>
      </trkpt>
      <trkpt lat="47.44248" lon="6.37578">
        <ele>359.952</ele>
        <time>2019-09-30T10:00:31Z</time>
      </trkpt>
      <trkpt lat="47.44237" lon="6.3758">
        <ele>359.934</ele>
        <time>2019-09-30T10:00:34Z</time>
      </trkpt>
      <trkpt lat="47.44227" lon="6.37582">
        <ele>360.441</ele>
        <time>2019-09-30T10:00:37Z</time>
      </trkpt>
      <trkpt lat="47.44217" lon="6.37584">
        <ele>361.152</ele>
        <time>2019-09-30T10:00:40Z</time>
      </trkpt>
      <trkpt lat="47.44207" lon="6.37585">
        <ele>361.509</ele>
        <time>2019-09-30T10:00:43Z</time>
      </trkpt>
      <trkpt lat="47.44196" lon="6.37587">
        <ele>361.478</ele>
        <time>2019-09-30T10:00:46Z</time>
      </trkpt>
      <trkpt lat="47.44185" lon="6.37588">
        <ele>361.569</ele>
        <time>2019-09-30T10:00:49Z</time>
      </trkpt>
      <trkpt lat="47.44173" lon="6.37589">
        <ele>361.621</ele>
        <time>2019-09-30T10:00:52Z</time>
      </trkpt>
      <trkpt lat="47.44162" lon="6.3759">
        <ele>361.903</ele>
        <time>2019-09-30T10:00:55Z</time>
      </trkpt>
      <trkpt lat="47.4415" lon="6.3759">
        <ele>362.18</ele>
        <time>2019-09-30T10:00:58Z</time>
      </trkpt>
      <trkpt lat="47.44138" lon="6.37591">
        <ele>362.628</ele>
        <time>2019-09-30T10:01:01Z</time>
      </trkpt>
      <trkpt lat="47.44125" lon="6.37592">
        <ele>362.883</ele>
        <time>2019-09-30T10:01:04Z</time>
      </trkpt>
      <trkpt lat="47.44112" lon="6.37592">
        <ele>363.561</ele>
        <time>2019-09-30T10:01:07Z</time>
      </trkpt>
      <trkpt lat="47.44098" lon="6.37591">
        <ele>363.939</ele>
        <time>2019-09-30T10:01:10Z</time>
      </trkpt>
      <trkpt lat="47.44081" lon="6.37588">
        <ele>364.097</ele>
        <time>2019-09-30T10:01:13Z</time>
      </trkpt>
      <trkpt lat="47.44062" lon="6.37584">
        <ele>363.771</ele>
        <time>2019-09-30T10:01:16Z</time>
      </trkpt>
      <trkpt lat="47.44044" lon="6.37577">
        <ele>364.099</ele>
        <time>2019-09-30T10:01:19Z</time>
      </trkpt>
      <trkpt lat="47.44025" lon="6.37569">
        <ele>364.222</ele>
        <time>2019-09-30T10:01:22Z</time>
      </trkpt>
      <trkpt lat="47.44005" lon="6.3756">
        <ele>364.01</ele>
        <time>2019-09-30T10:01:25Z</time>
      </trkpt>
      <trkpt lat="47.43983" lon="6.37549">
        <ele>363.38</ele>
        <time>2019-09-30T10:01:28Z</time>
      </trkpt>
      <trkpt lat="47.43961" lon="6.37534">
        <ele>361.614</ele>
        <time>2019-09-30T10:01:31Z</time>
      </trkpt>
      <trkpt lat="47.43937" lon="6.37517">
        <ele>359.441</ele>
        <time>2019-09-30T10:01:34Z</time>
      </trkpt>
      <trkpt lat="47.43911" lon="6.37499">
        <ele>357.386</ele>
        <time>2019-09-30T10:01:37Z</time>
      </trkpt>
      <trkpt lat="47.43884" lon="6.3748">
        <ele>356.091</ele>
        <time>2019-09-30T10:01:40Z</time>
      </trkpt>
      <trkpt lat="47.43857" lon="6.37462">
        <ele>354.279</ele>
        <time>2019-09-30T10:01:43Z</time>
      </trkpt>
      <trkpt lat="47.4383" lon="6.37444">
        <ele>353.028</ele>
        <time>2019-09-30T10:01:46Z</time>
      </trkpt>
      <trkpt lat="47.43804" lon="6.37425">
        <ele>351.769</ele>
        <time>2019-09-30T10:01:49Z</time>
      </trkpt>
      <trkpt lat="47.43779" lon="6.37408">
        <ele>350.911</ele>
        <time>2019-09-30T10:01:52Z</time>
      </trkpt>
      <trkpt lat="47.43755" lon="6.37392">
        <ele>349.308</ele>
        <time>2019-09-30T10:01:55Z</time>
      </trkpt>
      <trkpt lat="47.43732" lon="6.37379">
        <ele>348.21</ele>
        <time>2019-09-30T10:01:58Z</time>
      </trkpt>
      <trkpt lat="47.4371" lon="6.37369">
        <ele>347.488</ele>
        <time>2019-09-30T10:02:01Z</time>
      </trkpt>
      <trkpt lat="47.4369" lon="6.37362">
        <ele>347.047</ele>
        <time>2019-09-30T10:02:04Z</time>
      </trkpt>
      <trkpt lat="47.43672" lon="6.37356">
        <ele>346.849</ele>
        <time>2019-09-30T10:02:07Z</time>
      </trkpt>
      <trkpt lat="47.43654" lon="6.37351">
        <ele>347.029</ele>
        <time>2019-09-30T10:02:10Z</time>
      </trkpt>
      <trkpt lat="47.43638" lon="6.37347">
        <ele>347.34</ele>
        <time>2019-09-30T10:02:13Z</time>
      </trkpt>
      <trkpt lat="47.43622" lon="6.37346">
        <ele>348</ele>
        <time>2019-09-30T10:02:16Z</time>
      </trkpt>
      <trkpt lat="47.43608" lon="6.37345">
        <ele>348.682</ele>
        <time>2019-09-30T10:02:19Z</time>
      </trkpt>
      <trkpt lat="47.43595" lon="6.37343">
        <ele>348.702</ele>
        <time>2019-09-30T10:02:22Z</time>
      </trkpt>
      <trkpt lat="47.43583" lon="6.37342">
        <ele>348.703</ele>
        <time>2019-09-30T10:02:25Z</time>
      </trkpt>
      <trkpt lat="47.43571" lon="6.37342">
        <ele>349.057</ele>
        <time>2019-09-30T10:02:28Z</time>
      </trkpt>
      <trkpt lat="47.4356" lon="6.37342">
        <ele>348.832</ele>
        <time>2019-09-30T10:02:31Z</time>
      </trkpt>
      <trkpt lat="47.43548" lon="6.37343">
        <ele>348.97</ele>
        <time>2019-09-30T10:02:34Z</time>
      </trkpt>
      <trkpt lat="47.43537" lon="6.37344">
        <ele>349.155</ele>
        <time>2019-09-30T10:02:37Z</time>
      </trkpt>
      <trkpt lat="47.43527" lon="6.37346">
        <ele>349.417</ele>
        <time>2019-09-30T10:02:40Z</time>
      </trkpt>
      <trkpt lat="47.43516" lon="6.37348">
        <ele>349.359</ele>
        <time>2019-09-30T10:02:43Z</time>
      </trkpt>
      <trkpt lat="47.43504" lon="6.37351">
        <ele>349.144</ele>
        <time>2019-09-30T10:02:46Z</time>
      </trkpt>
      <trkpt lat="47.43493" lon="6.37354">
        <ele>349.232</ele>
        <time>2019-09-30T10:02:49Z</time>
      </trkpt>
      <trkpt lat="47.43483" lon="6.37357">
        <ele>349.573</ele>
        <time>2019-09-30T10:02:52Z</time>
      </trkpt>
      <trkpt lat="47.43474" lon="6.3736">
        <ele>349.996</ele>
        <time>2019-09-30T10:02:55Z</time>
      </trkpt>
      <trkpt lat="47.43463" lon="6.37364">
        <ele>350.245</ele>
        <time>2019-09-30T10:02:58Z</time>
      </trkpt>
      <trkpt lat="47.43453" lon="6.37368">
        <ele>350.466</ele>
        <time>2019-09-30T10:03:01Z</time>
      </trkpt>
      <trkpt lat="47.43442" lon="6.37373">
        <ele>350.569</ele>
        <time>2019-09-30T10:03:04Z</time>
      </trkpt>
      <trkpt lat="47.43431" lon="6.37377">
        <ele>350.942</ele>
        <time>2019-09-30T10:03:07Z</time>
      </trkpt>
      <trkpt lat="47.4342" lon="6.37382">
        <ele>349.961</ele>
        <time>2019-09-30T10:03:10Z</time>
      </trkpt>
      <trkpt lat="47.43408" lon="6.37385">
        <ele>350.104</ele>
        <time>2019-09-30T10:03:13Z</time>
      </trkpt>
      <trkpt lat="47.43398" lon="6.37389">
        <ele>350.42</ele>
        <time>2019-09-30T10:03:16Z</time>
      </trkpt>
      <trkpt lat="47.43386" lon="6.37392">
        <ele>350.298</ele>
        <time>2019-09-30T10:03:19Z</time>
      </trkpt>
      <trkpt lat="47.43373" lon="6.37394">
        <ele>349.829</ele>
        <time>2019-09-30T10:03:22Z</time>
      </trkpt>
      <trkpt lat="47.4336" lon="6.37397">
        <ele>349.312</ele>
        <time>2019-09-30T10:03:25Z</time>
      </trkpt>
      <trkpt lat="47.43348" lon="6.37398">
        <ele>349.106</ele>
        <time>2019-09-30T10:03:28Z</time>
      </trkpt>
      <trkpt lat="47.43335" lon="6.37398">
        <ele>349.006</ele>
        <time>2019-09-30T10:03:31Z</time>
      </trkpt>
      <trkpt lat="47.43323" lon="6.37399">
        <ele>349.56</ele>
        <time>2019-09-30T10:03:34Z</time>
      </trkpt>
      <trkpt lat="47.43311" lon="6.374">
        <ele>350.49</ele>
        <time>2019-09-30T10:03:37Z</time>
      </trkpt>
      <trkpt lat="47.43299" lon="6.37401">
        <ele>351.219</ele>
        <time>2019-09-30T10:03:40Z</time>
      </trkpt>
      <trkpt lat="47.43287" lon="6.37401">
        <ele>351.402</ele>
        <time>2019-09-30T10:03:43Z</time>
      </trkpt>
      <trkpt lat="47.43276" lon="6.37402">
        <ele>351.808</ele>
        <time>2019-09-30T10:03:46Z</time>
      </trkpt>
      <trkpt lat="47.43264" lon="6.37403">
        <ele>352.16</ele>
        <time>2019-09-30T10:03:49Z</time>
      </trkpt>
      <trkpt lat="47.43253" lon="6.37405">
        <ele>352.067</ele>
        <time>2019-09-30T10:03:52Z</time>
      </trkpt>
      <trkpt lat="47.43241" lon="6.37407">
        <ele>351.979</ele>
        <time>2019-09-30T10:03:55Z</time>
      </trkpt>
      <trkpt lat="47.43229" lon="6.3741">
        <ele>351.99</ele>
        <time>2019-09-30T10:03:58Z</time>
      </trkpt>
      <trkpt lat="47.43217" lon="6.37413">
        <ele>351.952</ele>
        <time>2019-09-30T10:04:01Z</time>
      </trkpt>
      <trkpt lat="47.43205" lon="6.37415">
        <ele>351.633</ele>
        <time>2019-09-30T10:04:04Z</time>
      </trkpt>
      <trkpt lat="47.43192" lon="6.37418">
        <ele>351.34</ele>
        <time>2019-09-30T10:04:07Z</time>
      </trkpt>
      <trkpt lat="47.43179" lon="6.37422">
        <ele>351.283</ele>
        <time>2019-09-30T10:04:10Z</time>
      </trkpt>
      <trkpt lat="47.43167" lon="6.37425">
        <ele>351.312</ele>
        <time>2019-09-30T10:04:13Z</time>
      </trkpt>
      <trkpt lat="47.43154" lon="6.3743">
        <ele>351.648</ele>
        <time>2019-09-30T10:04:16Z</time>
      </trkpt>
      <trkpt lat="47.43141" lon="6.37434">
        <ele>351.893</ele>
        <time>2019-09-30T10:04:19Z</time>
      </trkpt>
      <trkpt lat="47.43128" lon="6.37438">
        <ele>352.062</ele>
        <time>2019-09-30T10:04:22Z</time>
      </trkpt>
      <trkpt lat="47.43115" lon="6.37442">
        <ele>352.545</ele>
        <time>2019-09-30T10:04:25Z</time>
      </trkpt>
      <trkpt lat="47.43103" lon="6.37446">
        <ele>352.657</ele>
        <time>2019-09-30T10:04:28Z</time>
      </trkpt>
      <trkpt lat="47.4309" lon="6.37449">
        <ele>353.138</ele>
        <time>2019-09-30T10:04:31Z</time>
      </trkpt>
      <trkpt lat="47.43078" lon="6.37453">
        <ele>353.664</ele>
        <time>2019-09-30T10:04:34Z</time>
      </trkpt>
      <trkpt lat="47.43066" lon="6.37456">
        <ele>353.974</ele>
        <time>2019-09-30T10:04:37Z</time>
      </trkpt>
      <trkpt lat="47.43056" lon="6.3746">
        <ele>354.581</ele>
        <time>2019-09-30T10:04:40Z</time>
      </trkpt>
      <trkpt lat="47.43045" lon="6.37463">
        <ele>355.203</ele>
        <time>2019-09-30T10:04:43Z</time>
      </trkpt>
      <trkpt lat="47.43036" lon="6.37466">
        <ele>355.709</ele>
        <time>2019-09-30T10:04:46Z</time>
      </trkpt>
      <trkpt lat="47.43027" lon="6.37468">
        <ele>356.529</ele>
        <time>2019-09-30T10:04:49Z</time>
      </trkpt>
      <trkpt lat="47.43018" lon="6.37472">
        <ele>357.116</ele>
        <time>2019-09-30T10:04:52Z</time>
      </trkpt>
      <trkpt lat="47.43009" lon="6.37474">
        <ele>358.042</ele>
        <time>2019-09-30T10:04:55Z</time>
      </trkpt>
      <trkpt lat="47.43001" lon="6.37476">
        <ele>358.271</ele>
        <time>2019-09-30T10:04:58Z</time>
      </trkpt>
      <trkpt lat="47.42993" lon="6.37479">
        <ele>358.782</ele>
        <time>2019-09-30T10:05:01Z</time>
      </trkpt>
      <trkpt lat="47.42985" lon="6.37481">
        <ele>359.171</ele>
        <time>2019-09-30T10:05:04Z</time>
      </trkpt>
      <trkpt lat="47.42978" lon="6.37483">
        <ele>359.728</ele>
        <time>2019-09-30T10:05:07Z</time>
      </trkpt>
      <trkpt lat="47.4297" lon="6.37486">
        <ele>359.869</ele>
        <time>2019-09-30T10:05:10Z</time>
      </trkpt>
      <trkpt lat="47.42963" lon="6.37487">
        <ele>360.43</ele>
        <time>2019-09-30T10:05:13Z</time>
      </trkpt>
      <trkpt lat="47.42956" lon="6.3749">
        <ele>360.71</ele>
        <time>2019-09-30T10:05:16Z</time>
      </trkpt>
      <trkpt lat="47.42949" lon="6.37493">
        <ele>360.475</ele>
        <time>2019-09-30T10:05:19Z</time>
      </trkpt>
      <trkpt lat="47.42941" lon="6.37496">
        <ele>361.152</ele>
        <time>2019-09-30T10:05:22Z</time>
      </trkpt>
      <trkpt lat="47.42934" lon="6.37499">
        <ele>361.608</ele>
        <time>2019-09-30T10:05:25Z</time>
      </trkpt>
      <trkpt lat="47.42927" lon="6.37502">
        <ele>362.113</ele>
        <time>2019-09-30T10:05:28Z</time>
      </trkpt>
      <trkpt lat="47.4292" lon="6.37505">
        <ele>362.245</ele>
        <time>2019-09-30T10:05:31Z</time>
      </trkpt>
      <trkpt lat="47.42912" lon="6.37507">
        <ele>362.718</ele>
        <time>2019-09-30T10:05:34Z</time>
      </trkpt>
      <trkpt lat="47.42905" lon="6.37509">
        <ele>363.322</ele>
        <time>2019-09-30T10:05:37Z</time>
      </trkpt>
      <trkpt lat="47.42899" lon="6.37514">
        <ele>364.081</ele>
        <time>2019-09-30T10:05:40Z</time>
      </trkpt>
      <trkpt lat="47.42892" lon="6.37519">
        <ele>364.668</ele>
        <time>2019-09-30T10:05:43Z</time>
      </trkpt>
      <trkpt lat="47.42886" lon="6.37524">
        <ele>365.735</ele>
        <time>2019-09-30T10:05:46Z</time>
      </trkpt>
      <trkpt lat="47.42879" lon="6.37528">
        <ele>366.762</ele>
        <time>2019-09-30T10:05:49Z</time>
      </trkpt>
      <trkpt lat="47.42873" lon="6.37533">
        <ele>367.327</ele>
        <time>2019-09-30T10:05:52Z</time>
      </trkpt>
      <trkpt lat="47.42866" lon="6.37538">
        <ele>368.052</ele>
        <time>2019-09-30T10:05:55Z</time>
      </trkpt>
      <trkpt lat="47.42858" lon="6.37545">
        <ele>368.458</ele>
        <time>2019-09-30T10:05:58Z</time>
      </trkpt>
      <trkpt lat="47.42852" lon="6.3755">
        <ele>368.223</ele>
        <time>2019-09-30T10:06:01Z</time>
      </trkpt>
      <trkpt lat="47.42844" lon="6.37556">
        <ele>368.518</ele>
        <time>2019-09-30T10:06:04Z</time>
      </trkpt>
      <trkpt lat="47.42838" lon="6.37562">
        <ele>368.967</ele>
        <time>2019-09-30T10:06:07Z</time>
      </trkpt>
      <trkpt lat="47.4283" lon="6.37568">
        <ele>369.295</ele>
        <time>2019-09-30T10:06:10Z</time>
      </trkpt>
      <trkpt lat="47.42822" lon="6.37572">
        <ele>369.748</ele>
        <time>2019-09-30T10:06:13Z</time>
      </trkpt>
      <trkpt lat="47.42816" lon="6.37577">
        <ele>369.689</ele>
        <time>2019-09-30T10:06:16Z</time>
      </trkpt>
      <trkpt lat="47.42809" lon="6.37583">
        <ele>369.571</ele>
        <time>2019-09-30T10:06:19Z</time>
      </trkpt>
      <trkpt lat="47.42802" lon="6.37587">
        <ele>369.977</ele>
        <time>2019-09-30T10:06:22Z</time>
      </trkpt>
      <trkpt lat="47.42794" lon="6.37591">
        <ele>370.201</ele>
        <time>2019-09-30T10:06:25Z</time>
      </trkpt>
      <trkpt lat="47.42786" lon="6.37594">
        <ele>370.275</ele>
        <time>2019-09-30T10:06:28Z</time>
      </trkpt>
      <trkpt lat="47.42778" lon="6.37598">
        <ele>370.439</ele>
        <time>2019-09-30T10:06:31Z</time>
      </trkpt>
      <trkpt lat="47.42771" lon="6.37601">
        <ele>370.665</ele>
        <time>2019-09-30T10:06:34Z</time>
      </trkpt>
      <trkpt lat="47.42764" lon="6.37605">
        <ele>370.679</ele>
        <time>2019-09-30T10:06:37Z</time>
      </trkpt>
      <trkpt lat="47.42756" lon="6.37608">
        <ele>370.968</ele>
        <time>2019-09-30T10:06:40Z</time>
      </trkpt>
      <trkpt lat="47.42749" lon="6.37611">
        <ele>371.347</ele>
        <time>2019-09-30T10:06:43Z</time>
      </trkpt>
      <trkpt lat="47.42742" lon="6.37613">
        <ele>371.397</ele>
        <time>2019-09-30T10:06:46Z</time>
      </trkpt>
      <trkpt lat="47.42735" lon="6.37614">
        <ele>372.099</ele>
        <time>2019-09-30T10:06:49Z</time>
      </trkpt>
      <trkpt lat="47.42728" lon="6.37616">
        <ele>372.313</ele>
        <time>2019-09-30T10:06:52Z</time>
      </trkpt>
      <trkpt lat="47.42721" lon="6.37618">
        <ele>372.706</ele>
        <time>2019-09-30T10:06:55Z</time>
      </trkpt>
      <trkpt lat="47.42714" lon="6.37621">
        <ele>372.71</ele>
        <time>2019-09-30T10:06:58Z</time>
      </trkpt>
      <trkpt lat="47.42707" lon="6.37623">
        <ele>373.121</ele>
        <time>2019-09-30T10:07:01Z</time>
      </trkpt>
      <trkpt lat="47.427" lon="6.37625">
        <ele>373.81</ele>
        <time>2019-09-30T10:07:04Z</time>
      </trkpt>
      <trkpt lat="47.42693" lon="6.37627">
        <ele>374.513</ele>
        <time>2019-09-30T10:07:07Z</time>
      </trkpt>
      <trkpt lat="47.42686" lon="6.3763">
        <ele>374.908</ele>
        <time>2019-09-30T10:07:10Z</time>
      </trkpt>
      <trkpt lat="47.4268" lon="6.37632">
        <ele>375.555</ele>
        <time>2019-09-30T10:07:13Z</time>
      </trkpt>
      <trkpt lat="47.42673" lon="6.37634">
        <ele>376.147</ele>
        <time>2019-09-30T10:07:16Z</time>
      </trkpt>
      <trkpt lat="47.42667" lon="6.37635">
        <ele>377.043</ele>
        <time>2019-09-30T10:07:19Z</time>
      </trkpt>
      <trkpt lat="47.4266" lon="6.37637">
        <ele>377.663</ele>
        <time>2019-09-30T10:07:22Z</time>
      </trkpt>
      <trkpt lat="47.42653" lon="6.37639">
        <ele>377.917</ele>
        <time>2019-09-30T10:07:25Z</time>
      </trkpt>
      <trkpt lat="47.42647" lon="6.37641">
        <ele>378.266</ele>
        <time>2019-09-30T10:07:28Z</time>
      </trkpt>
      <trkpt lat="47.4264" lon="6.37642">
        <ele>378.61</ele>
        <time>2019-09-30T10:07:31Z</time>
      </trkpt>
      <trkpt lat="47.42633" lon="6.37644">
        <ele>379.158</ele>
        <time>2019-09-30T10:07:34Z</time>
      </trkpt>
      <trkpt lat="47.42626" lon="6.37646">
        <ele>379.247</ele>
        <time>2019-09-30T10:07:37Z</time>
      </trkpt>
      <trkpt lat="47.42619" lon="6.37649">
        <ele>379.659</ele>
        <time>2019-09-30T10:07:40Z</time>
      </trkpt>
      <trkpt lat="47.42612" lon="6.3765">
        <ele>379.844</ele>
        <time>2019-09-30T10:07:43Z</time>
      </trkpt>
      <trkpt lat="47.42606" lon="6.37652">
        <ele>379.821</ele>
        <time>2019-09-30T10:07:46Z</time>
      </trkpt>
      <trkpt lat="47.42599" lon="6.37654">
        <ele>380.382</ele>
        <time>2019-09-30T10:07:49Z</time>
      </trkpt>
      <trkpt lat="47.42592" lon="6.37655">
        <ele>380.687</ele>
        <time>2019-09-30T10:07:52Z</time>
      </trkpt>
      <trkpt lat="47.42585" lon="6.37657">
        <ele>380.684</ele>
        <time>2019-09-30T10:07:55Z</time>
      </trkpt>
      <trkpt lat="47.42578" lon="6.37659">
        <ele>380.512</ele>
        <time>2019-09-30T10:07:58Z</time>
      </trkpt>
      <trkpt lat="47.42571" lon="6.37662">
        <ele>380.749</ele>
        <time>2019-09-30T10:08:01Z</time>
      </trkpt>
      <trkpt lat="47.42565" lon="6.37664">
        <ele>381.245</ele>
        <time>2019-09-30T10:08:04Z</time>
      </trkpt>
      <trkpt lat="47.42558" lon="6.37666">
        <ele>381.642</ele>
        <time>2019-09-30T10:08:07Z</time>
      </trkpt>
      <trkpt lat="47.42552" lon="6.37668">
        <ele>381.199</ele>
        <time>2019-09-30T10:08:10Z</time>
      </trkpt>
      <trkpt lat="47.42546" lon="6.3767">
        <ele>380.787</ele>
        <time>2019-09-30T10:08:13Z</time>
      </trkpt>
      <trkpt lat="47.4254" lon="6.37671">
        <ele>381.081</ele>
        <time>2019-09-30T10:08:16Z</time>
      </trkpt>
      <trkpt lat="47.42534" lon="6.37672">
        <ele>381.675</ele>
        <time>2019-09-30T10:08:19Z</time>
      </trkpt>
      <trkpt lat="47.42529" lon="6.37673">
        <ele>381.531</ele>
        <time>2019-09-30T10:08:22Z</time>
      </trkpt>
      <trkpt lat="47.42523" lon="6.37676">
        <ele>381.869</ele>
        <time>2019-09-30T10:08:25Z</time>
      </trkpt>
      <trkpt lat="47.42516" lon="6.37678">
        <ele>382.228</ele>
        <time>2019-09-30T10:08:28Z</time>
      </trkpt>
      <trkpt lat="47.4251" lon="6.3768">
        <ele>382.727</ele>
        <time>2019-09-30T10:08:31Z</time>
      </trkpt>
      <trkpt lat="47.42503" lon="6.37682">
        <ele>383.251</ele>
        <time>2019-09-30T10:08:34Z</time>
      </trkpt>
      <trkpt lat="47.42497" lon="6.37683">
        <ele>383.821</ele>
        <time>2019-09-30T10:08:37Z</time>
      </trkpt>
      <trkpt lat="47.4249" lon="6.37685">
        <ele>384.656</ele>
        <time>2019-09-30T10:08:40Z</time>
      </trkpt>
      <trkpt lat="47.42484" lon="6.37686">
        <ele>385.529</ele>
        <time>2019-09-30T10:08:43Z</time>
      </trkpt>
      <trkpt lat="47.42478" lon="6.3769">
        <ele>386.673</ele>
        <time>2019-09-30T10:08:46Z</time>
      </trkpt>
      <trkpt lat="47.42472" lon="6.37691">
        <ele>387.285</ele>
        <time>2019-09-30T10:08:49Z</time>
      </trkpt>
      <trkpt lat="47.42467" lon="6.37694">
        <ele>387.904</ele>
        <time>2019-09-30T10:08:52Z</time>
      </trkpt>
      <trkpt lat="47.42461" lon="6.37695">
        <ele>388.437</ele>
        <time>2019-09-30T10:08:55Z</time>
      </trkpt>
      <trkpt lat="47.42456" lon="6.37696">
        <ele>389.238</ele>
        <time>2019-09-30T10:08:58Z</time>
      </trkpt>
      <trkpt lat="47.42449" lon="6.37698">
        <ele>390.087</ele>
        <time>2019-09-30T10:09:01Z</time>
      </trkpt>
      <trkpt lat="47.42442" lon="6.377">
        <ele>390.716</ele>
        <time>2019-09-30T10:09:04Z</time>
      </trkpt>
      <trkpt lat="47.42436" lon="6.37701">
        <ele>391.169</ele>
        <time>2019-09-30T10:09:07Z</time>
      </trkpt>
      <trkpt lat="47.42429" lon="6.37702">
        <ele>391.418</ele>
        <time>2019-09-30T10:09:10Z</time>
      </trkpt>
      <trkpt lat="47.42422" lon="6.37702">
        <ele>391.641</ele>
        <time>2019-09-30T10:09:13Z</time>
      </trkpt>
      <trkpt lat="47.42414" lon="6.37702">
        <ele>392.423</ele>
        <time>2019-09-30T10:09:16Z</time>
      </trkpt>
      <trkpt lat="47.42406" lon="6.37702">
        <ele>392.414</ele>
        <time>2019-09-30T10:09:19Z</time>
      </trkpt>
      <trkpt lat="47.42399" lon="6.37702">
        <ele>392.799</ele>
        <time>2019-09-30T10:09:22Z</time>
      </trkpt>
      <trkpt lat="47.42393" lon="6.37701">
        <ele>393.864</ele>
        <time>2019-09-30T10:09:25Z</time>
      </trkpt>
      <trkpt lat="47.42386" lon="6.37701">
        <ele>394.727</ele>
        <time>2019-09-30T10:09:28Z</time>
      </trkpt>
      <trkpt lat="47.42379" lon="6.37701">
        <ele>395.938</ele>
        <time>2019-09-30T10:09:31Z</time>
      </trkpt>
      <trkpt lat="47.42372" lon="6.37702">
        <ele>396.982</ele>
        <time>2019-09-30T10:09:34Z</time>
      </trkpt>
      <trkpt lat="47.42365" lon="6.37703">
        <ele>397.751</ele>
        <time>2019-09-30T10:09:37Z</time>
      </trkpt>
      <trkpt lat="47.42358" lon="6.37703">
        <ele>398.179</ele>
        <time>2019-09-30T10:09:40Z</time>
      </trkpt>
      <trkpt lat="47.42351" lon="6.37704">
        <ele>398.69</ele>
        <time>2019-09-30T10:09:43Z</time>
      </trkpt>
      <trkpt lat="47.42345" lon="6.37704">
        <ele>398.702</ele>
        <time>2019-09-30T10:09:46Z</time>
      </trkpt>
      <trkpt lat="47.42338" lon="6.37704">
        <ele>398.515</ele>
        <time>2019-09-30T10:09:49Z</time>
      </trkpt>
      <trkpt lat="47.42331" lon="6.37704">
        <ele>398.88</ele>
        <time>2019-09-30T10:09:52Z</time>
      </trkpt>
      <trkpt lat="47.42325" lon="6.37704">
        <ele>399.074</ele>
        <time>2019-09-30T10:09:55Z</time>
      </trkpt>
      <trkpt lat="47.42318" lon="6.37703">
        <ele>399.479</ele>
        <time>2019-09-30T10:09:58Z</time>
      </trkpt>
      <trkpt lat="47.42311" lon="6.37702">
        <ele>400.505</ele>
        <time>2019-09-30T10:10:01Z</time>
      </trkpt>
      <trkpt lat="47.42304" lon="6.377">
        <ele>401.457</ele>
        <time>2019-09-30T10:10:04Z</time>
      </trkpt>
      <trkpt lat="47.42298" lon="6.37699">
        <ele>402.055</ele>
        <time>2019-09-30T10:10:07Z</time>
      </trkpt>
      <trkpt lat="47.42291" lon="6.37699">
        <ele>402.151</ele>
        <time>2019-09-30T10:10:10Z</time>
      </trkpt>
      <trkpt lat="47.42285" lon="6.37699">
        <ele>401.732</ele>
        <time>2019-09-30T10:10:13Z</time>
      </trkpt>
      <trkpt lat="47.42279" lon="6.37699">
        <ele>400.151</ele>
        <time>2019-09-30T10:10:16Z</time>
      </trkpt>
      <trkpt lat="47.42273" lon="6.37698">
        <ele>399.786</ele>
        <time>2019-09-30T10:10:19Z</time>
      </trkpt>
      <trkpt lat="47.42265" lon="6.37696">
        <ele>399.692</ele>
        <time>2019-09-30T10:10:22Z</time>
      </trkpt>
      <trkpt lat="47.42257" lon="6.37695">
        <ele>399.54</ele>
        <time>2019-09-30T10:10:25Z</time>
      </trkpt>
      <trkpt lat="47.4225" lon="6.37695">
        <ele>399.541</ele>
        <time>2019-09-30T10:10:28Z</time>
      </trkpt>
      <trkpt lat="47.42243" lon="6.37695">
        <ele>399.392</ele>
        <time>2019-09-30T10:10:31Z</time>
      </trkpt>
      <trkpt lat="47.42237" lon="6.37694">
        <ele>399.129</ele>
        <time>2019-09-30T10:10:34Z</time>
      </trkpt>
      <trkpt lat="47.42229" lon="6.37694">
        <ele>399.337</ele>
        <time>2019-09-30T10:10:37Z</time>
      </trkpt>
      <trkpt lat="47.42222" lon="6.37692">
        <ele>399.946</ele>
        <time>2019-09-30T10:10:40Z</time>
      </trkpt>
      <trkpt lat="47.42215" lon="6.37692">
        <ele>400.332</ele>
        <time>2019-09-30T10:10:43Z</time>
      </trkpt>
      <trkpt lat="47.42209" lon="6.37692">
        <ele>400.51</ele>
        <time>2019-09-30T10:10:46Z</time>
      </trkpt>
      <trkpt lat="47.42202" lon="6.37691">
        <ele>400.423</ele>
        <time>2019-09-30T10:10:49Z</time>
      </trkpt>
      <trkpt lat="47.42195" lon="6.37689">
        <ele>400.656</ele>
        <time>2019-09-30T10:10:52Z</time>
      </trkpt>
      <trkpt lat="47.42187" lon="6.37689">
        <ele>401.093</ele>
        <time>2019-09-30T10:10:55Z</time>
      </trkpt>
      <trkpt lat="47.42182" lon="6.3769">
        <ele>401.174</ele>
        <time>2019-09-30T10:10:58Z</time>
      </trkpt>
      <trkpt lat="47.42175" lon="6.37692">
        <ele>401.335</ele>
        <time>2019-09-30T10:11:01Z</time>
      </trkpt>
      <trkpt lat="47.42169" lon="6.37694">
        <ele>401.717</ele>
        <time>2019-09-30T10:11:04Z</time>
      </trkpt>
      <trkpt lat="47.42162" lon="6.37694">
        <ele>401.874</ele>
        <time>2019-09-30T10:11:07Z</time>
      </trkpt>
      <trkpt lat="47.42156" lon="6.37694">
        <ele>402.299</ele>
        <time>2019-09-30T10:11:10Z</time>
      </trkpt>
      <trkpt lat="47.42149" lon="6.37694">
        <ele>402.693</ele>
        <time>2019-09-30T10:11:13Z</time>
      </trkpt>
      <trkpt lat="47.42142" lon="6.37694">
        <ele>403.433</ele>
        <time>2019-09-30T10:11:16Z</time>
      </trkpt>
      <trkpt lat="47.42135" lon="6.37694">
        <ele>404.148</ele>
        <time>2019-09-30T10:11:19Z</time>
      </trkpt>
      <trkpt lat="47.42128" lon="6.37695">
        <ele>404.41</ele>
        <time>2019-09-30T10:11:22Z</time>
      </trkpt>
      <trkpt lat="47.42121" lon="6.37694">
        <ele>405.439</ele>
        <time>2019-09-30T10:11:25Z</time>
      </trkpt>
      <trkpt lat="47.42115" lon="6.37693">
        <ele>406.216</ele>
        <time>2019-09-30T10:11:28Z</time>
      </trkpt>
      <trkpt lat="47.42108" lon="6.37693">
        <ele>406.574</ele>
        <time>2019-09-30T10:11:31Z</time>
      </trkpt>
      <trkpt lat="47.42102" lon="6.37692">
        <ele>407.185</ele>
        <time>2019-09-30T10:11:34Z</time>
      </trkpt>
      <trkpt lat="47.42096" lon="6.37693">
        <ele>408.161</ele>
        <time>2019-09-30T10:11:37Z</time>
      </trkpt>
      <trkpt lat="47.42089" lon="6.37692">
        <ele>409.462</ele>
        <time>2019-09-30T10:11:40Z</time>
      </trkpt>
      <trkpt lat="47.42081" lon="6.37692">
        <ele>410.23</ele>
        <time>2019-09-30T10:11:43Z</time>
      </trkpt>
      <trkpt lat="47.42075" lon="6.37694">
        <ele>410.145</ele>
        <time>2019-09-30T10:11:46Z</time>
      </trkpt>
      <trkpt lat="47.42067" lon="6.37695">
        <ele>410.212</ele>
        <time>2019-09-30T10:11:49Z</time>
      </trkpt>
      <trkpt lat="47.42061" lon="6.37694">
        <ele>410.582</ele>
        <time>2019-09-30T10:11:52Z</time>
      </trkpt>
      <trkpt lat="47.42054" lon="6.37692">
        <ele>411.185</ele>
        <time>2019-09-30T10:11:55Z</time>
      </trkpt>
      <trkpt lat="47.42048" lon="6.37692">
        <ele>411.487</ele>
        <time>2019-09-30T10:11:58Z</time>
      </trkpt>
      <trkpt lat="47.42041" lon="6.37692">
        <ele>411.63</ele>
        <time>2019-09-30T10:12:01Z</time>
      </trkpt>
      <trkpt lat="47.42034" lon="6.37691">
        <ele>412.008</ele>
        <time>2019-09-30T10:12:04Z</time>
      </trkpt>
      <trkpt lat="47.42027" lon="6.37692">
        <ele>411.436</ele>
        <time>2019-09-30T10:12:07Z</time>
      </trkpt>
      <trkpt lat="47.4202" lon="6.37692">
        <ele>411.332</ele>
        <time>2019-09-30T10:12:10Z</time>
      </trkpt>
      <trkpt lat="47.42013" lon="6.37693">
        <ele>411.135</ele>
        <time>2019-09-30T10:12:13Z</time>
      </trkpt>
      <trkpt lat="47.42006" lon="6.37694">
        <ele>411.214</ele>
        <time>2019-09-30T10:12:16Z</time>
      </trkpt>
      <trkpt lat="47.42" lon="6.37693">
        <ele>410.812</ele>
        <time>2019-09-30T10:12:19Z</time>
      </trkpt>
      <trkpt lat="47.41993" lon="6.37693">
        <ele>410.382</ele>
        <time>2019-09-30T10:12:22Z</time>
      </trkpt>
      <trkpt lat="47.41987" lon="6.37693">
        <ele>410.431</ele>
        <time>2019-09-30T10:12:25Z</time>
      </trkpt>
      <trkpt lat="47.4198" lon="6.37693">
        <ele>410.52</ele>
        <time>2019-09-30T10:12:28Z</time>
      </trkpt>
      <trkpt lat="47.41974" lon="6.37692">
        <ele>411.476</ele>
        <time>2019-09-30T10:12:31Z</time>
      </trkpt>
      <trkpt lat="47.41967" lon="6.37691">
        <ele>411.817</ele>
        <time>2019-09-30T10:12:34Z</time>
      </trkpt>
      <trkpt lat="47.4196" lon="6.3769">
        <ele>412.032</ele>
        <time>2019-09-30T10:12:37Z</time>
      </trkpt>
      <trkpt lat="47.41954" lon="6.3769">
        <ele>412.101</ele>
        <time>2019-09-30T10:12:40Z</time>
      </trkpt>
      <trkpt lat="47.41947" lon="6.3769">
        <ele>411.734</ele>
        <time>2019-09-30T10:12:43Z</time>
      </trkpt>
      <trkpt lat="47.4194" lon="6.37689">
        <ele>411.871</ele>
        <time>2019-09-30T10:12:46Z</time>
      </trkpt>
      <trkpt lat="47.41933" lon="6.37689">
        <ele>411.696</ele>
        <time>2019-09-30T10:12:49Z</time>
      </trkpt>
      <trkpt lat="47.41926" lon="6.37688">
        <ele>411.855</ele>
        <time>2019-09-30T10:12:52Z</time>
      </trkpt>
      <trkpt lat="47.41919" lon="6.37688">
        <ele>412.04</ele>
        <time>2019-09-30T10:12:55Z</time>
      </trkpt>
      <trkpt lat="47.41912" lon="6.37689">
        <ele>412.308</ele>
        <time>2019-09-30T10:12:58Z</time>
      </trkpt>
      <trkpt lat="47.41905" lon="6.37687">
        <ele>412.377</ele>
        <time>2019-09-30T10:13:01Z</time>
      </trkpt>
      <trkpt lat="47.41898" lon="6.37685">
        <ele>412.589</ele>
        <time>2019-09-30T10:13:04Z</time>
      </trkpt>
      <trkpt lat="47.4189" lon="6.37685">
        <ele>412.623</ele>
        <time>2019-09-30T10:13:07Z</time>
      </trkpt>
      <trkpt lat="47.41882" lon="6.37685">
        <ele>412.924</ele>
        <time>2019-09-30T10:13:10Z</time>
      </trkpt>
      <trkpt lat="47.41874" lon="6.37685">
        <ele>413.235</ele>
        <time>2019-09-30T10:13:13Z</time>
      </trkpt>
      <trkpt lat="47.41867" lon="6.37685">
        <ele>413.463</ele>
        <time>2019-09-30T10:13:16Z</time>
      </trkpt>
      <trkpt lat="47.41859" lon="6.37685">
        <ele>413.389</ele>
        <time>2019-09-30T10:13:19Z</time>
      </trkpt>
      <trkpt lat="47.41851" lon="6.37685">
        <ele>413.144</ele>
        <time>2019-09-30T10:13:22Z</time>
      </trkpt>
      <trkpt lat="47.41843" lon="6.37685">
        <ele>413.127</ele>
        <time>2019-09-30T10:13:25Z</time>
      </trkpt>
      <trkpt lat="47.41835" lon="6.37685">
        <ele>412.915</ele>
        <time>2019-09-30T10:13:28Z</time>
      </trkpt>
      <trkpt lat="47.41827" lon="6.37684">
        <ele>413.119</ele>
        <time>2019-09-30T10:13:31Z</time>
      </trkpt>
      <trkpt lat="47.41819" lon="6.37685">
        <ele>413.298</ele>
        <time>2019-09-30T10:13:34Z</time>
      </trkpt>
      <trkpt lat="47.41812" lon="6.37685">
        <ele>413.946</ele>
        <time>2019-09-30T10:13:37Z</time>
      </trkpt>
      <trkpt lat="47.41805" lon="6.37686">
        <ele>414.632</ele>
        <time>2019-09-30T10:13:40Z</time>
      </trkpt>
      <trkpt lat="47.41797" lon="6.37686">
        <ele>415.161</ele>
        <time>2019-09-30T10:13:43Z</time>
      </trkpt>
      <trkpt lat="47.41789" lon="6.37684">
        <ele>416.093</ele>
        <time>2019-09-30T10:13:46Z</time>
      </trkpt>
      <trkpt lat="47.41781" lon="6.37684">
        <ele>416.565</ele>
        <time>2019-09-30T10:13:49Z</time>
      </trkpt>
      <trkpt lat="47.41772" lon="6.37684">
        <ele>416.473</ele>
        <time>2019-09-30T10:13:52Z</time>
      </trkpt>
      <trkpt lat="47.41763" lon="6.37685">
        <ele>416.35</ele>
        <time>2019-09-30T10:13:55Z</time>
      </trkpt>
      <trkpt lat="47.41753" lon="6.37684">
        <ele>416.556</ele>
        <time>2019-09-30T10:13:58Z</time>
      </trkpt>
      <trkpt lat="47.41743" lon="6.37684">
        <ele>416.535</ele>
        <time>2019-09-30T10:14:01Z</time>
      </trkpt>
      <trkpt lat="47.41733" lon="6.37683">
        <ele>416.175</ele>
        <time>2019-09-30T10:14:04Z</time>
      </trkpt>
      <trkpt lat="47.41723" lon="6.37682">
        <ele>416.611</ele>
        <time>2019-09-30T10:14:07Z</time>
      </trkpt>
      <trkpt lat="47.41714" lon="6.37682">
        <ele>417.066</ele>
        <time>2019-09-30T10:14:10Z</time>
      </trkpt>
      <trkpt lat="47.41705" lon="6.37682">
        <ele>417.338</ele>
        <time>2019-09-30T10:14:13Z</time>
      </trkpt>
      <trkpt lat="47.41694" lon="6.37682">
        <ele>417.481</ele>
        <time>2019-09-30T10:14:16Z</time>
      </trkpt>
      <trkpt lat="47.41683" lon="6.37682">
        <ele>417.846</ele>
        <time>2019-09-30T10:14:19Z</time>
      </trkpt>
      <trkpt lat="47.4167" lon="6.37681">
        <ele>417.401</ele>
        <time>2019-09-30T10:14:22Z</time>
      </trkpt>
      <trkpt lat="47.41656" lon="6.37681">
        <ele>417.195</ele>
        <time>2019-09-30T10:14:25Z</time>
      </trkpt>
      <trkpt lat="47.41642" lon="6.37681">
        <ele>417.422</ele>
        <time>2019-09-30T10:14:28Z</time>
      </trkpt>
      <trkpt lat="47.41627" lon="6.37681">
        <ele>417.968</ele>
        <time>2019-09-30T10:14:31Z</time>
      </trkpt>
      <trkpt lat="47.41613" lon="6.37681">
        <ele>417.962</ele>
        <time>2019-09-30T10:14:34Z</time>
      </trkpt>
      <trkpt lat="47.416" lon="6.37681">
        <ele>417.775</ele>
        <time>2019-09-30T10:14:37Z</time>
      </trkpt>
      <trkpt lat="47.41586" lon="6.37681">
        <ele>417.695</ele>
        <time>2019-09-30T10:14:40Z</time>
      </trkpt>
      <trkpt lat="47.41572" lon="6.37682">
        <ele>417.786</ele>
        <time>2019-09-30T10:14:43Z</time>
      </trkpt>
      <trkpt lat="47.41559" lon="6.37682">
        <ele>417.93</ele>
        <time>2019-09-30T10:14:46Z</time>
      </trkpt>
      <trkpt lat="47.41546" lon="6.37683">
        <ele>417.976</ele>
        <time>2019-09-30T10:14:49Z</time>
      </trkpt>
      <trkpt lat="47.41532" lon="6.37682">
        <ele>417.513</ele>
        <time>2019-09-30T10:14:52Z</time>
      </trkpt>
      <trkpt lat="47.41518" lon="6.37682">
        <ele>417.227</ele>
        <time>2019-09-30T10:14:55Z</time>
      </trkpt>
      <trkpt lat="47.41505" lon="6.37682">
        <ele>417.006</ele>
        <time>2019-09-30T10:14:58Z</time>
      </trkpt>
      <trkpt lat="47.41491" lon="6.37682">
        <ele>416.622</ele>
        <time>2019-09-30T10:15:01Z</time>
      </trkpt>
      <trkpt lat="47.41478" lon="6.37682">
        <ele>416.328</ele>
        <time>2019-09-30T10:15:04Z</time>
      </trkpt>
      <trkpt lat="47.41464" lon="6.37681">
        <ele>416.118</ele>
        <time>2019-09-30T10:15:07Z</time>
      </trkpt>
      <trkpt lat="47.41451" lon="6.37681">
        <ele>416.108</ele>
        <time>2019-09-30T10:15:10Z</time>
      </trkpt>
      <trkpt lat="47.41438" lon="6.37681">
        <ele>416.115</ele>
        <time>2019-09-30T10:15:13Z</time>
      </trkpt>
      <trkpt lat="47.41425" lon="6.3768">
        <ele>415.87</ele>
        <time>2019-09-30T10:15:16Z</time>
      </trkpt>
      <trkpt lat="47.41412" lon="6.3768">
        <ele>415.661</ele>
        <time>2019-09-30T10:15:19Z</time>
      </trkpt>
      <trkpt lat="47.41399" lon="6.37679">
        <ele>415.919</ele>
        <time>2019-09-30T10:15:22Z</time>
      </trkpt>
      <trkpt lat="47.41387" lon="6.37679">
        <ele>416.124</ele>
        <time>2019-09-30T10:15:25Z</time>
      </trkpt>
      <trkpt lat="47.41373" lon="6.37679">
        <ele>415.943</ele>
        <time>2019-09-30T10:15:28Z</time>
      </trkpt>
      <trkpt lat="47.4136" lon="6.37679">
        <ele>415.67</ele>
        <time>2019-09-30T10:15:31Z</time>
      </trkpt>
      <trkpt lat="47.41347" lon="6.37678">
        <ele>415.373</ele>
        <time>2019-09-30T10:15:34Z</time>
      </trkpt>
      <trkpt lat="47.41332" lon="6.37677">
        <ele>415.115</ele>
        <time>2019-09-30T10:15:37Z</time>
      </trkpt>
      <trkpt lat="47.41318" lon="6.37678">
        <ele>415.24</ele>
        <time>2019-09-30T10:15:40Z</time>
      </trkpt>
      <trkpt lat="47.41303" lon="6.37679">
        <ele>415.65</ele>
        <time>2019-09-30T10:15:43Z</time>
      </trkpt>
      <trkpt lat="47.41289" lon="6.37679">
        <ele>415.895</ele>
        <time>2019-09-30T10:15:46Z</time>
      </trkpt>
      <trkpt lat="47.41275" lon="6.37679">
        <ele>416.21</ele>
        <time>2019-09-30T10:15:49Z</time>
      </trkpt>
      <trkpt lat="47.41261" lon="6.37678">
        <ele>416.454</ele>
        <time>2019-09-30T10:15:52Z</time>
      </trkpt>
      <trkpt lat="47.41248" lon="6.37677">
        <ele>416.44</ele>
        <time>2019-09-30T10:15:55Z</time>
      </trkpt>
      <trkpt lat="47.41236" lon="6.37678">
        <ele>416.394</ele>
        <time>2019-09-30T10:15:58Z</time>
      </trkpt>
      <trkpt lat="47.41224" lon="6.37678">
        <ele>416.054</ele>
        <time>2019-09-30T10:16:01Z</time>
      </trkpt>
      <trkpt lat="47.41213" lon="6.37677">
        <ele>415.888</ele>
        <time>2019-09-30T10:16:04Z</time>
      </trkpt>
      <trkpt lat="47.41201" lon="6.37677">
        <ele>416.193</ele>
        <time>2019-09-30T10:16:07Z</time>
      </trkpt>
      <trkpt lat="47.41189" lon="6.37678">
        <ele>416.561</ele>
        <time>2019-09-30T10:16:10Z</time>
      </trkpt>
      <trkpt lat="47.41176" lon="6.37677">
        <ele>416.66</ele>
        <time>2019-09-30T10:16:13Z</time>
      </trkpt>
      <trkpt lat="47.41163" lon="6.37675">
        <ele>416.848</ele>
        <time>2019-09-30T10:16:16Z</time>
      </trkpt>
      <trkpt lat="47.4115" lon="6.37674">
        <ele>417.207</ele>
        <time>2019-09-30T10:16:19Z</time>
      </trkpt>
      <trkpt lat="47.41137" lon="6.37674">
        <ele>417.951</ele>
        <time>2019-09-30T10:16:22Z</time>
      </trkpt>
      <trkpt lat="47.41125" lon="6.37674">
        <ele>419.011</ele>
        <time>2019-09-30T10:16:25Z</time>
      </trkpt>
      <trkpt lat="47.41112" lon="6.37673">
        <ele>419.031</ele>
        <time>2019-09-30T10:16:28Z</time>
      </trkpt>
      <trkpt lat="47.411" lon="6.37674">
        <ele>418.584</ele>
        <time>2019-09-30T10:16:31Z</time>
      </trkpt>
      <trkpt lat="47.41088" lon="6.37675">
        <ele>417.947</ele>
        <time>2019-09-30T10:16:34Z</time>
      </trkpt>
      <trkpt lat="47.41076" lon="6.37675">
        <ele>417.409</ele>
        <time>2019-09-30T10:16:37Z</time>
      </trkpt>
      <trkpt lat="47.41063" lon="6.37675">
        <ele>417.347</ele>
        <time>2019-09-30T10:16:40Z</time>
      </trkpt>
      <trkpt lat="47.4105" lon="6.37675">
        <ele>417.641</ele>
        <time>2019-09-30T10:16:43Z</time>
      </trkpt>
      <trkpt lat="47.41038" lon="6.37674">
        <ele>417.94</ele>
        <time>2019-09-30T10:16:46Z</time>
      </trkpt>
      <trkpt lat="47.41026" lon="6.37673">
        <ele>418.262</ele>
        <time>2019-09-30T10:16:49Z</time>
      </trkpt>
      <trkpt lat="47.41013" lon="6.37673">
        <ele>418.275</ele>
        <time>2019-09-30T10:16:52Z</time>
      </trkpt>
      <trkpt lat="47.41001" lon="6.37673">
        <ele>418.225</ele>
        <time>2019-09-30T10:16:55Z</time>
      </trkpt>
      <trkpt lat="47.40989" lon="6.37673">
        <ele>417.9</ele>
        <time>2019-09-30T10:16:58Z</time>
      </trkpt>
      <trkpt lat="47.40976" lon="6.37673">
        <ele>417.668</ele>
        <time>2019-09-30T10:17:01Z</time>
      </trkpt>
      <trkpt lat="47.40963" lon="6.37673">
        <ele>417.667</ele>
        <time>2019-09-30T10:17:04Z</time>
      </trkpt>
      <trkpt lat="47.40952" lon="6.37673">
        <ele>417.708</ele>
        <time>2019-09-30T10:17:07Z</time>
      </trkpt>
      <trkpt lat="47.40939" lon="6.37673">
        <ele>417.659</ele>
        <time>2019-09-30T10:17:10Z</time>
      </trkpt>
      <trkpt lat="47.40926" lon="6.37673">
        <ele>418.037</ele>
        <time>2019-09-30T10:17:13Z</time>
      </trkpt>
      <trkpt lat="47.40913" lon="6.37672">
        <ele>418.081</ele>
        <time>2019-09-30T10:17:16Z</time>
      </trkpt>
      <trkpt lat="47.40901" lon="6.37671">
        <ele>418.098</ele>
        <time>2019-09-30T10:17:19Z</time>
      </trkpt>
      <trkpt lat="47.40889" lon="6.3767">
        <ele>418.243</ele>
        <time>2019-09-30T10:17:22Z</time>
      </trkpt>
      <trkpt lat="47.40879" lon="6.37669">
        <ele>418.462</ele>
        <time>2019-09-30T10:17:25Z</time>
      </trkpt>
      <trkpt lat="47.40868" lon="6.37669">
        <ele>419.011</ele>
        <time>2019-09-30T10:17:28Z</time>
      </trkpt>
      <trkpt lat="47.40857" lon="6.37669">
        <ele>419.39</ele>
        <time>2019-09-30T10:17:31Z</time>
      </trkpt>
      <trkpt lat="47.40845" lon="6.37669">
        <ele>419.646</ele>
        <time>2019-09-30T10:17:34Z</time>
      </trkpt>
      <trkpt lat="47.40834" lon="6.37669">
        <ele>419.798</ele>
        <time>2019-09-30T10:17:37Z</time>
      </trkpt>
      <trkpt lat="47.40823" lon="6.37669">
        <ele>419.909</ele>
        <time>2019-09-30T10:17:40Z</time>
      </trkpt>
      <trkpt lat="47.40813" lon="6.37669">
        <ele>419.929</ele>
        <time>2019-09-30T10:17:43Z</time>
      </trkpt>
      <trkpt lat="47.40803" lon="6.37669">
        <ele>419.859</ele>
        <time>2019-09-30T10:17:46Z</time>
      </trkpt>
      <trkpt lat="47.40793" lon="6.37669">
        <ele>420.192</ele>
        <time>2019-09-30T10:17:49Z</time>
      </trkpt>
      <trkpt lat="47.40782" lon="6.37669">
        <ele>420.55</ele>
        <time>2019-09-30T10:17:52Z</time>
      </trkpt>
      <trkpt lat="47.40772" lon="6.37669">
        <ele>420.366</ele>
        <time>2019-09-30T10:17:55Z</time>
      </trkpt>
      <trkpt lat="47.40761" lon="6.37669">
        <ele>420.982</ele>
        <time>2019-09-30T10:17:58Z</time>
      </trkpt>
      <trkpt lat="47.40751" lon="6.37669">
        <ele>421.569</ele>
        <time>2019-09-30T10:18:01Z</time>
      </trkpt>
      <trkpt lat="47.40742" lon="6.37668">
        <ele>422.356</ele>
        <time>2019-09-30T10:18:04Z</time>
      </trkpt>
      <trkpt lat="47.40732" lon="6.37669">
        <ele>422.966</ele>
        <time>2019-09-30T10:18:07Z</time>
      </trkpt>
      <trkpt lat="47.40723" lon="6.37669">
        <ele>423.581</ele>
        <time>2019-09-30T10:18:10Z</time>
      </trkpt>
      <trkpt lat="47.40714" lon="6.37669">
        <ele>424.091</ele>
        <time>2019-09-30T10:18:13Z</time>
      </trkpt>
      <trkpt lat="47.40705" lon="6.37669">
        <ele>424.412</ele>
        <time>2019-09-30T10:18:16Z</time>
      </trkpt>
      <trkpt lat="47.40696" lon="6.37668">
        <ele>425.031</ele>
        <time>2019-09-30T10:18:19Z</time>
      </trkpt>
      <trkpt lat="47.40686" lon="6.37668">
        <ele>425.804</ele>
        <time>2019-09-30T10:18:22Z</time>
      </trkpt>
      <trkpt lat="47.40677" lon="6.37668">
        <ele>426.267</ele>
        <time>2019-09-30T10:18:25Z</time>
      </trkpt>
      <trkpt lat="47.40668" lon="6.37668">
        <ele>426.714</ele>
        <time>2019-09-30T10:18:28Z</time>
      </trkpt>
      <trkpt lat="47.40659" lon="6.37669">
        <ele>427.165</ele>
        <time>2019-09-30T10:18:31Z</time>
      </trkpt>
      <trkpt lat="47.4065" lon="6.37668">
        <ele>427.57</ele>
        <time>2019-09-30T10:18:34Z</time>
      </trkpt>
      <trkpt lat="47.40641" lon="6.37668">
        <ele>427.819</ele>
        <time>2019-09-30T10:18:37Z</time>
      </trkpt>
      <trkpt lat="47.40633" lon="6.37668">
        <ele>428.263</ele>
        <time>2019-09-30T10:18:40Z</time>
      </trkpt>
      <trkpt lat="47.40624" lon="6.37667">
        <ele>428.572</ele>
        <time>2019-09-30T10:18:43Z</time>
      </trkpt>
      <trkpt lat="47.40616" lon="6.37667">
        <ele>429.073</ele>
        <time>2019-09-30T10:18:46Z</time>
      </trkpt>
      <trkpt lat="47.40608" lon="6.37667">
        <ele>429.624</ele>
        <time>2019-09-30T10:18:49Z</time>
      </trkpt>
      <trkpt lat="47.40599" lon="6.37668">
        <ele>430.402</ele>
        <time>2019-09-30T10:18:52Z</time>
      </trkpt>
      <trkpt lat="47.40592" lon="6.37667">
        <ele>430.927</ele>
        <time>2019-09-30T10:18:55Z</time>
      </trkpt>
      <trkpt lat="47.40585" lon="6.37667">
        <ele>431.45</ele>
        <time>2019-09-30T10:18:58Z</time>
      </trkpt>
      <trkpt lat="47.40576" lon="6.37667">
        <ele>431.307</ele>
        <time>2019-09-30T10:19:01Z</time>
      </trkpt>
      <trkpt lat="47.40567" lon="6.37667">
        <ele>431.203</ele>
        <time>2019-09-30T10:19:04Z</time>
      </trkpt>
      <trkpt lat="47.40558" lon="6.37665">
        <ele>431.369</ele>
        <time>2019-09-30T10:19:07Z</time>
      </trkpt>
      <trkpt lat="47.40549" lon="6.37665">
        <ele>431.397</ele>
        <time>2019-09-30T10:19:10Z</time>
      </trkpt>
      <trkpt lat="47.4054" lon="6.37665">
        <ele>431.5</ele>
        <time>2019-09-30T10:19:13Z</time>
      </trkpt>
      <trkpt lat="47.40531" lon="6.37665">
        <ele>431.401</ele>
        <time>2019-09-30T10:19:16Z</time>
      </trkpt>
      <trkpt lat="47.40522" lon="6.37664">
        <ele>431.811</ele>
        <time>2019-09-30T10:19:19Z</time>
      </trkpt>
      <trkpt lat="47.40513" lon="6.37664">
        <ele>432.28</ele>
        <time>2019-09-30T10:19:22Z</time>
      </trkpt>
      <trkpt lat="47.40503" lon="6.37664">
        <ele>432.983</ele>
        <time>2019-09-30T10:19:25Z</time>
      </trkpt>
      <trkpt lat="47.40493" lon="6.37664">
        <ele>433.565</ele>
        <time>2019-09-30T10:19:28Z</time>
      </trkpt>
      <trkpt lat="47.40484" lon="6.37664">
        <ele>433.873</ele>
        <time>2019-09-30T10:19:31Z</time>
      </trkpt>
      <trkpt lat="47.40476" lon="6.37663">
        <ele>434.379</ele>
        <time>2019-09-30T10:19:34Z</time>
      </trkpt>
      <trkpt lat="47.40467" lon="6.37663">
        <ele>435.119</ele>
        <time>2019-09-30T10:19:37Z</time>
      </trkpt>
      <trkpt lat="47.40458" lon="6.37663">
        <ele>435.672</ele>
        <time>2019-09-30T10:19:40Z</time>
      </trkpt>
      <trkpt lat="47.40448" lon="6.37663">
        <ele>435.853</ele>
        <time>2019-09-30T10:19:43Z</time>
      </trkpt>
      <trkpt lat="47.40437" lon="6.37663">
        <ele>435.862</ele>
        <time>2019-09-30T10:19:46Z</time>
      </trkpt>
      <trkpt lat="47.40427" lon="6.37663">
        <ele>436.127</ele>
        <time>2019-09-30T10:19:49Z</time>
      </trkpt>
      <trkpt lat="47.40418" lon="6.37662">
        <ele>436.763</ele>
        <time>2019-09-30T10:19:52Z</time>
      </trkpt>
      <trkpt lat="47.40407" lon="6.37662">
        <ele>436.239</ele>
        <time>2019-09-30T10:19:55Z</time>
      </trkpt>
      <trkpt lat="47.40397" lon="6.37662">
        <ele>436.038</ele>
        <time>2019-09-30T10:19:58Z</time>
      </trkpt>
      <trkpt lat="47.40386" lon="6.37661">
        <ele>435.468</ele>
        <time>2019-09-30T10:20:01Z</time>
      </trkpt>
      <trkpt lat="47.40376" lon="6.37661">
        <ele>435.187</ele>
        <time>2019-09-30T10:20:04Z</time>
      </trkpt>
      <trkpt lat="47.40367" lon="6.37661">
        <ele>434.947</ele>
        <time>2019-09-30T10:20:07Z</time>
      </trkpt>
      <trkpt lat="47.40358" lon="6.3766">
        <ele>435.231</ele>
        <time>2019-09-30T10:20:10Z</time>
      </trkpt>
      <trkpt lat="47.40348" lon="6.37661">
        <ele>435.054</ele>
        <time>2019-09-30T10:20:13Z</time>
      </trkpt>
      <trkpt lat="47.40338" lon="6.37661">
        <ele>434.895</ele>
        <time>2019-09-30T10:20:16Z</time>
      </trkpt>
      <trkpt lat="47.40328" lon="6.3766">
        <ele>434.378</ele>
        <time>2019-09-30T10:20:19Z</time>
      </trkpt>
      <trkpt lat="47.40318" lon="6.3766">
        <ele>434.137</ele>
        <time>2019-09-30T10:20:22Z</time>
      </trkpt>
      <trkpt lat="47.40308" lon="6.3766">
        <ele>433.675</ele>
        <time>2019-09-30T10:20:25Z</time>
      </trkpt>
      <trkpt lat="47.40298" lon="6.37661">
        <ele>433.438</ele>
        <time>2019-09-30T10:20:28Z</time>
      </trkpt>
      <trkpt lat="47.40288" lon="6.3766">
        <ele>433.259</ele>
        <time>2019-09-30T10:20:31Z</time>
      </trkpt>
      <trkpt lat="47.40278" lon="6.37659">
        <ele>433.28</ele>
        <time>2019-09-30T10:20:34Z</time>
      </trkpt>
      <trkpt lat="47.40268" lon="6.37659">
        <ele>433.398</ele>
        <time>2019-09-30T10:20:37Z</time>
      </trkpt>
      <trkpt lat="47.40258" lon="6.3766">
        <ele>433.857</ele>
        <time>2019-09-30T10:20:40Z</time>
      </trkpt>
      <trkpt lat="47.40248" lon="6.3766">
        <ele>434.349</ele>
        <time>2019-09-30T10:20:43Z</time>
      </trkpt>
      <trkpt lat="47.40237" lon="6.37659">
        <ele>434.676</ele>
        <time>2019-09-30T10:20:46Z</time>
      </trkpt>
      <trkpt lat="47.40227" lon="6.37659">
        <ele>434.878</ele>
        <time>2019-09-30T10:20:49Z</time>
      </trkpt>
      <trkpt lat="47.40217" lon="6.3766">
        <ele>435.315</ele>
        <time>2019-09-30T10:20:52Z</time>
      </trkpt>
      <trkpt lat="47.40208" lon="6.3766">
        <ele>435.23</ele>
        <time>2019-09-30T10:20:55Z</time>
      </trkpt>
      <trkpt lat="47.40199" lon="6.3766">
        <ele>435.585</ele>
        <time>2019-09-30T10:20:58Z</time>
      </trkpt>
      <trkpt lat="47.40189" lon="6.3766">
        <ele>435.519</ele>
        <time>2019-09-30T10:21:01Z</time>
      </trkpt>
      <trkpt lat="47.40179" lon="6.37659">
        <ele>435.779</ele>
        <time>2019-09-30T10:21:04Z</time>
      </trkpt>
      <trkpt lat="47.40169" lon="6.37659">
        <ele>436.319</ele>
        <time>2019-09-30T10:21:07Z</time>
      </trkpt>
      <trkpt lat="47.40159" lon="6.37659">
        <ele>436.894</ele>
        <time>2019-09-30T10:21:10Z</time>
      </trkpt>
      <trkpt lat="47.4015" lon="6.37659">
        <ele>437.339</ele>
        <time>2019-09-30T10:21:13Z</time>
      </trkpt>
      <trkpt lat="47.4014" lon="6.37658">
        <ele>437.107</ele>
        <time>2019-09-30T10:21:16Z</time>
      </trkpt>
      <trkpt lat="47.4013" lon="6.37657">
        <ele>437.254</ele>
        <time>2019-09-30T10:21:19Z</time>
      </trkpt>
      <trkpt lat="47.40121" lon="6.37658">
        <ele>437.446</ele>
        <time>2019-09-30T10:21:22Z</time>
      </trkpt>
      <trkpt lat="47.40111" lon="6.37657">
        <ele>437.669</ele>
        <time>2019-09-30T10:21:25Z</time>
      </trkpt>
      <trkpt lat="47.40101" lon="6.37656">
        <ele>438.364</ele>
        <time>2019-09-30T10:21:28Z</time>
      </trkpt>
      <trkpt lat="47.4009" lon="6.37656">
        <ele>438.621</ele>
        <time>2019-09-30T10:21:31Z</time>
      </trkpt>
      <trkpt lat="47.4008" lon="6.37656">
        <ele>438.913</ele>
        <time>2019-09-30T10:21:34Z</time>
      </trkpt>
      <trkpt lat="47.4007" lon="6.37657">
        <ele>439.701</ele>
        <time>2019-09-30T10:21:37Z</time>
      </trkpt>
      <trkpt lat="47.40061" lon="6.37657">
        <ele>440.14</ele>
        <time>2019-09-30T10:21:40Z</time>
      </trkpt>
      <trkpt lat="47.40051" lon="6.37657">
        <ele>440.369</ele>
        <time>2019-09-30T10:21:43Z</time>
      </trkpt>
      <trkpt lat="47.4004" lon="6.37658">
        <ele>440.334</ele>
        <time>2019-09-30T10:21:46Z</time>
      </trkpt>
      <trkpt lat="47.4003" lon="6.37658">
        <ele>440.246</ele>
        <time>2019-09-30T10:21:49Z</time>
      </trkpt>
      <trkpt lat="47.40019" lon="6.37657">
        <ele>440.083</ele>
        <time>2019-09-30T10:21:52Z</time>
      </trkpt>
      <trkpt lat="47.40008" lon="6.37657">
        <ele>439.559</ele>
        <time>2019-09-30T10:21:55Z</time>
      </trkpt>
      <trkpt lat="47.39998" lon="6.37656">
        <ele>439.221</ele>
        <time>2019-09-30T10:21:58Z</time>
      </trkpt>
      <trkpt lat="47.39988" lon="6.37656">
        <ele>438.911</ele>
        <time>2019-09-30T10:22:01Z</time>
      </trkpt>
      <trkpt lat="47.39977" lon="6.37656">
        <ele>438.445</ele>
        <time>2019-09-30T10:22:04Z</time>
      </trkpt>
      <trkpt lat="47.39967" lon="6.37656">
        <ele>438.229</ele>
        <time>2019-09-30T10:22:07Z</time>
      </trkpt>
      <trkpt lat="47.39956" lon="6.37655">
        <ele>438.286</ele>
        <time>2019-09-30T10:22:10Z</time>
      </trkpt>
      <trkpt lat="47.39945" lon="6.37656">
        <ele>438.634</ele>
        <time>2019-09-30T10:22:13Z</time>
      </trkpt>
      <trkpt lat="47.39934" lon="6.37655">
        <ele>439.17</ele>
        <time>2019-09-30T10:22:16Z</time>
      </trkpt>
      <trkpt lat="47.39924" lon="6.37656">
        <ele>439.203</ele>
        <time>2019-09-30T10:22:19Z</time>
      </trkpt>
      <trkpt lat="47.39914" lon="6.37656">
        <ele>439.198</ele>
        <time>2019-09-30T10:22:22Z</time>
      </trkpt>
      <trkpt lat="47.39904" lon="6.37655">
        <ele>439.19</ele>
        <time>2019-09-30T10:22:25Z</time>
      </trkpt>
      <trkpt lat="47.39893" lon="6.37655">
        <ele>439.025</ele>
        <time>2019-09-30T10:22:28Z</time>
      </trkpt>
      <trkpt lat="47.39883" lon="6.37655">
        <ele>439.423</ele>
        <time>2019-09-30T10:22:31Z</time>
      </trkpt>
      <trkpt lat="47.39873" lon="6.37654">
        <ele>439.782</ele>
        <time>2019-09-30T10:22:34Z</time>
      </trkpt>
      <trkpt lat="47.39862" lon="6.37654">
        <ele>440.353</ele>
        <time>2019-09-30T10:22:37Z</time>
      </trkpt>
      <trkpt lat="47.39851" lon="6.37655">
        <ele>440.243</ele>
        <time>2019-09-30T10:22:40Z</time>
      </trkpt>
      <trkpt lat="47.3984" lon="6.37654">
        <ele>440.519</ele>
        <time>2019-09-30T10:22:43Z</time>
      </trkpt>
      <trkpt lat="47.39829" lon="6.37655">
        <ele>440.325</ele>
        <time>2019-09-30T10:22:46Z</time>
      </trkpt>
      <trkpt lat="47.39817" lon="6.37656">
        <ele>440.097</ele>
        <time>2019-09-30T10:22:49Z</time>
      </trkpt>
      <trkpt lat="47.39805" lon="6.37656">
        <ele>440.112</ele>
        <time>2019-09-30T10:22:52Z</time>
      </trkpt>
      <trkpt lat="47.39792" lon="6.37658">
        <ele>440.296</ele>
        <time>2019-09-30T10:22:55Z</time>
      </trkpt>
      <trkpt lat="47.39779" lon="6.37658">
        <ele>440.58</ele>
        <time>2019-09-30T10:22:58Z</time>
      </trkpt>
      <trkpt lat="47.39765" lon="6.37659">
        <ele>440.74</ele>
        <time>2019-09-30T10:23:01Z</time>
      </trkpt>
      <trkpt lat="47.39751" lon="6.3766">
        <ele>440.778</ele>
        <time>2019-09-30T10:23:04Z</time>
      </trkpt>
      <trkpt lat="47.39737" lon="6.37662">
        <ele>441.206</ele>
        <time>2019-09-30T10:23:07Z</time>
      </trkpt>
      <trkpt lat="47.39721" lon="6.37663">
        <ele>441.7</ele>
        <time>2019-09-30T10:23:10Z</time>
      </trkpt>
      <trkpt lat="47.39707" lon="6.37665">
        <ele>441.927</ele>
        <time>2019-09-30T10:23:13Z</time>
      </trkpt>
      <trkpt lat="47.39693" lon="6.37665">
        <ele>441.784</ele>
        <time>2019-09-30T10:23:16Z</time>
      </trkpt>
      <trkpt lat="47.39678" lon="6.37666">
        <ele>441.774</ele>
        <time>2019-09-30T10:23:19Z</time>
      </trkpt>
      <trkpt lat="47.39663" lon="6.37667">
        <ele>441.902</ele>
        <time>2019-09-30T10:23:22Z</time>
      </trkpt>
      <trkpt lat="47.39648" lon="6.37668">
        <ele>442.168</ele>
        <time>2019-09-30T10:23:25Z</time>
      </trkpt>
      <trkpt lat="47.39632" lon="6.3767">
        <ele>442.19</ele>
        <time>2019-09-30T10:23:28Z</time>
      </trkpt>
      <trkpt lat="47.39615" lon="6.3767">
        <ele>441.402</ele>
        <time>2019-09-30T10:23:31Z</time>
      </trkpt>
      <trkpt lat="47.39599" lon="6.3767">
        <ele>440.334</ele>
        <time>2019-09-30T10:23:34Z</time>
      </trkpt>
      <trkpt lat="47.39583" lon="6.37671">
        <ele>440.381</ele>
        <time>2019-09-30T10:23:37Z</time>
      </trkpt>
      <trkpt lat="47.39567" lon="6.37673">
        <ele>440.28</ele>
        <time>2019-09-30T10:23:40Z</time>
      </trkpt>
      <trkpt lat="47.39551" lon="6.37674">
        <ele>440.262</ele>
        <time>2019-09-30T10:23:43Z</time>
      </trkpt>
      <trkpt lat="47.39534" lon="6.37675">
        <ele>440.101</ele>
        <time>2019-09-30T10:23:46Z</time>
      </trkpt>
      <trkpt lat="47.39517" lon="6.37676">
        <ele>439.768</ele>
        <time>2019-09-30T10:23:49Z</time>
      </trkpt>
      <trkpt lat="47.39501" lon="6.37676">
        <ele>439.189</ele>
        <time>2019-09-30T10:23:52Z</time>
      </trkpt>
      <trkpt lat="47.39483" lon="6.37678">
        <ele>438.948</ele>
        <time>2019-09-30T10:23:55Z</time>
      </trkpt>
      <trkpt lat="47.39465" lon="6.37679">
        <ele>438.96</ele>
        <time>2019-09-30T10:23:58Z</time>
      </trkpt>
      <trkpt lat="47.39448" lon="6.37681">
        <ele>438.653</ele>
        <time>2019-09-30T10:24:01Z</time>
      </trkpt>
      <trkpt lat="47.39432" lon="6.37681">
        <ele>437.602</ele>
        <time>2019-09-30T10:24:04Z</time>
      </trkpt>
      <trkpt lat="47.39415" lon="6.37681">
        <ele>438.006</ele>
        <time>2019-09-30T10:24:07Z</time>
      </trkpt>
      <trkpt lat="47.39399" lon="6.37683">
        <ele>438.05</ele>
        <time>2019-09-30T10:24:10Z</time>
      </trkpt>
      <trkpt lat="47.39383" lon="6.37683">
        <ele>437.936</ele>
        <time>2019-09-30T10:24:13Z</time>
      </trkpt>
      <trkpt lat="47.39368" lon="6.37684">
        <ele>438.031</ele>
        <time>2019-09-30T10:24:16Z</time>
      </trkpt>
      <trkpt lat="47.39353" lon="6.37685">
        <ele>438.093</ele>
        <time>2019-09-30T10:24:19Z</time>
      </trkpt>
      <trkpt lat="47.39338" lon="6.37687">
        <ele>438.086</ele>
        <time>2019-09-30T10:24:22Z</time>
      </trkpt>
      <trkpt lat="47.39324" lon="6.37688">
        <ele>437.839</ele>
        <time>2019-09-30T10:24:25Z</time>
      </trkpt>
      <trkpt lat="47.3931" lon="6.37689">
        <ele>437.922</ele>
        <time>2019-09-30T10:24:28Z</time>
      </trkpt>
      <trkpt lat="47.39296" lon="6.3769">
        <ele>438.149</ele>
        <time>2019-09-30T10:24:31Z</time>
      </trkpt>
      <trkpt lat="47.39283" lon="6.3769">
        <ele>438.7</ele>
        <time>2019-09-30T10:24:34Z</time>
      </trkpt>
      <trkpt lat="47.3927" lon="6.37691">
        <ele>439.568</ele>
        <time>2019-09-30T10:24:37Z</time>
      </trkpt>
      <trkpt lat="47.39257" lon="6.37692">
        <ele>439.368</ele>
        <time>2019-09-30T10:24:40Z</time>
      </trkpt>
      <trkpt lat="47.39244" lon="6.37694">
        <ele>439.148</ele>
        <time>2019-09-30T10:24:43Z</time>
      </trkpt>
      <trkpt lat="47.39231" lon="6.37696">
        <ele>439.33</ele>
        <time>2019-09-30T10:24:46Z</time>
      </trkpt>
      <trkpt lat="47.39219" lon="6.37698">
        <ele>439.484</ele>
        <time>2019-09-30T10:24:49Z</time>
      </trkpt>
      <trkpt lat="47.39207" lon="6.37699">
        <ele>439.616</ele>
        <time>2019-09-30T10:24:52Z</time>
      </trkpt>
      <trkpt lat="47.39194" lon="6.377">
        <ele>439.936</ele>
        <time>2019-09-30T10:24:55Z</time>
      </trkpt>
      <trkpt lat="47.39182" lon="6.377">
        <ele>440.3</ele>
        <time>2019-09-30T10:24:58Z</time>
      </trkpt>
      <trkpt lat="47.3917" lon="6.377">
        <ele>440.658</ele>
        <time>2019-09-30T10:25:01Z</time>
      </trkpt>
      <trkpt lat="47.39159" lon="6.37699">
        <ele>440.749</ele>
        <time>2019-09-30T10:25:04Z</time>
      </trkpt>
      <trkpt lat="47.39147" lon="6.37698">
        <ele>440.79</ele>
        <time>2019-09-30T10:25:07Z</time>
      </trkpt>
      <trkpt lat="47.39135" lon="6.37699">
        <ele>440.986</ele>
        <time>2019-09-30T10:25:10Z</time>
      </trkpt>
      <trkpt lat="47.39124" lon="6.377">
        <ele>440.642</ele>
        <time>2019-09-30T10:25:13Z</time>
      </trkpt>
      <trkpt lat="47.39111" lon="6.37701">
        <ele>440.602</ele>
        <time>2019-09-30T10:25:16Z</time>
      </trkpt>
      <trkpt lat="47.39099" lon="6.37701">
        <ele>440.641</ele>
        <time>2019-09-30T10:25:19Z</time>
      </trkpt>
      <trkpt lat="47.39085" lon="6.37702">
        <ele>440.451</ele>
        <time>2019-09-30T10:25:22Z</time>
      </trkpt>
      <trkpt lat="47.39073" lon="6.37704">
        <ele>440.386</ele>
        <time>2019-09-30T10:25:25Z</time>
      </trkpt>
      <trkpt lat="47.3906" lon="6.37705">
        <ele>440.721</ele>
        <time>2019-09-30T10:25:28Z</time>
      </trkpt>
      <trkpt lat="47.39047" lon="6.37707">
        <ele>440.906</ele>
        <time>2019-09-30T10:25:31Z</time>
      </trkpt>
      <trkpt lat="47.39034" lon="6.37707">
        <ele>440.993</ele>
        <time>2019-09-30T10:25:34Z</time>
      </trkpt>
      <trkpt lat="47.3902" lon="6.37708">
        <ele>441.333</ele>
        <time>2019-09-30T10:25:37Z</time>
      </trkpt>
      <trkpt lat="47.39007" lon="6.37709">
        <ele>441.321</ele>
        <time>2019-09-30T10:25:40Z</time>
      </trkpt>
      <trkpt lat="47.38994" lon="6.3771">
        <ele>441.207</ele>
        <time>2019-09-30T10:25:43Z</time>
      </trkpt>
      <trkpt lat="47.38981" lon="6.37711">
        <ele>441.2</ele>
        <time>2019-09-30T10:25:46Z</time>
      </trkpt>
      <trkpt lat="47.38968" lon="6.37711">
        <ele>441.284</ele>
        <time>2019-09-30T10:25:49Z</time>
      </trkpt>
      <trkpt lat="47.38955" lon="6.37713">
        <ele>441.505</ele>
        <time>2019-09-30T10:25:52Z</time>
      </trkpt>
      <trkpt lat="47.38942" lon="6.37714">
        <ele>441.692</ele>
        <time>2019-09-30T10:25:55Z</time>
      </trkpt>
      <trkpt lat="47.38929" lon="6.37716">
        <ele>441.985</ele>
        <time>2019-09-30T10:25:58Z</time>
      </trkpt>
      <trkpt lat="47.38914" lon="6.37717">
        <ele>442.256</ele>
        <time>2019-09-30T10:26:01Z</time>
      </trkpt>
      <trkpt lat="47.38901" lon="6.37719">
        <ele>443.027</ele>
        <time>2019-09-30T10:26:04Z</time>
      </trkpt>
      <trkpt lat="47.38886" lon="6.3772">
        <ele>444.22</ele>
        <time>2019-09-30T10:26:07Z</time>
      </trkpt>
      <trkpt lat="47.38873" lon="6.37721">
        <ele>444.234</ele>
        <time>2019-09-30T10:26:10Z</time>
      </trkpt>
      <trkpt lat="47.38859" lon="6.37722">
        <ele>444.047</ele>
        <time>2019-09-30T10:26:13Z</time>
      </trkpt>
      <trkpt lat="47.38845" lon="6.37722">
        <ele>443.726</ele>
        <time>2019-09-30T10:26:16Z</time>
      </trkpt>
      <trkpt lat="47.38831" lon="6.37722">
        <ele>443.239</ele>
        <time>2019-09-30T10:26:19Z</time>
      </trkpt>
      <trkpt lat="47.38815" lon="6.37723">
        <ele>443.112</ele>
        <time>2019-09-30T10:26:22.001Z</time>
      </trkpt>
      <trkpt lat="47.38796" lon="6.37724">
        <ele>443.512</ele>
        <time>2019-09-30T10:26:25Z</time>
      </trkpt>
      <trkpt lat="47.38777" lon="6.37726">
        <ele>444.347</ele>
        <time>2019-09-30T10:26:28Z</time>
      </trkpt>
      <trkpt lat="47.3876" lon="6.37727">
        <ele>445.087</ele>
        <time>2019-09-30T10:26:31Z</time>
      </trkpt>
      <trkpt lat="47.38743" lon="6.37728">
        <ele>445.179</ele>
        <time>2019-09-30T10:26:34Z</time>
      </trkpt>
      <trkpt lat="47.38726" lon="6.37729">
        <ele>444.867</ele>
        <time>2019-09-30T10:26:37Z</time>
      </trkpt>
      <trkpt lat="47.38708" lon="6.3773">
        <ele>444.034</ele>
        <time>2019-09-30T10:26:40Z</time>
      </trkpt>
      <trkpt lat="47.3869" lon="6.3773">
        <ele>442.85</ele>
        <time>2019-09-30T10:26:43Z</time>
      </trkpt>
      <trkpt lat="47.38671" lon="6.3773">
        <ele>442.359</ele>
        <time>2019-09-30T10:26:46Z</time>
      </trkpt>
      <trkpt lat="47.38651" lon="6.3773">
        <ele>441.795</ele>
        <time>2019-09-30T10:26:49Z</time>
      </trkpt>
      <trkpt lat="47.3863" lon="6.37732">
        <ele>441.408</ele>
        <time>2019-09-30T10:26:52Z</time>
      </trkpt>
      <trkpt lat="47.38609" lon="6.37733">
        <ele>441.177</ele>
        <time>2019-09-30T10:26:55Z</time>
      </trkpt>
      <trkpt lat="47.38589" lon="6.37734">
        <ele>440.753</ele>
        <time>2019-09-30T10:26:58Z</time>
      </trkpt>
      <trkpt lat="47.38569" lon="6.37735">
        <ele>440.157</ele>
        <time>2019-09-30T10:27:01Z</time>
      </trkpt>
      <trkpt lat="47.3855" lon="6.37735">
        <ele>438.922</ele>
        <time>2019-09-30T10:27:04Z</time>
      </trkpt>
      <trkpt lat="47.3853" lon="6.37737">
        <ele>438.124</ele>
        <time>2019-09-30T10:27:07Z</time>
      </trkpt>
      <trkpt lat="47.38511" lon="6.37739">
        <ele>437.497</ele>
        <time>2019-09-30T10:27:10Z</time>
      </trkpt>
      <trkpt lat="47.3849" lon="6.37742">
        <ele>437.538</ele>
        <time>2019-09-30T10:27:13Z</time>
      </trkpt>
      <trkpt lat="47.3847" lon="6.37744">
        <ele>437.092</ele>
        <time>2019-09-30T10:27:16Z</time>
      </trkpt>
      <trkpt lat="47.3845" lon="6.37746">
        <ele>436.051</ele>
        <time>2019-09-30T10:27:19Z</time>
      </trkpt>
      <trkpt lat="47.38432" lon="6.37747">
        <ele>435.152</ele>
        <time>2019-09-30T10:27:22Z</time>
      </trkpt>
      <trkpt lat="47.38413" lon="6.37748">
        <ele>434.314</ele>
        <time>2019-09-30T10:27:25Z</time>
      </trkpt>
      <trkpt lat="47.38394" lon="6.37749">
        <ele>433.767</ele>
        <time>2019-09-30T10:27:28Z</time>
      </trkpt>
      <trkpt lat="47.38374" lon="6.3775">
        <ele>433.549</ele>
        <time>2019-09-30T10:27:31Z</time>
      </trkpt>
      <trkpt lat="47.38354" lon="6.3775">
        <ele>433.138</ele>
        <time>2019-09-30T10:27:34Z</time>
      </trkpt>
      <trkpt lat="47.38332" lon="6.37752">
        <ele>432.223</ele>
        <time>2019-09-30T10:27:37Z</time>
      </trkpt>
      <trkpt lat="47.38311" lon="6.37752">
        <ele>431.488</ele>
        <time>2019-09-30T10:27:40Z</time>
      </trkpt>
      <trkpt lat="47.38288" lon="6.37754">
        <ele>430.821</ele>
        <time>2019-09-30T10:27:43Z</time>
      </trkpt>
      <trkpt lat="47.38265" lon="6.37757">
        <ele>430.126</ele>
        <time>2019-09-30T10:27:46Z</time>
      </trkpt>
      <trkpt lat="47.38243" lon="6.37758">
        <ele>429.804</ele>
        <time>2019-09-30T10:27:49Z</time>
      </trkpt>
      <trkpt lat="47.38221" lon="6.3776">
        <ele>429.503</ele>
        <time>2019-09-30T10:27:52Z</time>
      </trkpt>
      <trkpt lat="47.38198" lon="6.37761">
        <ele>429.494</ele>
        <time>2019-09-30T10:27:55Z</time>
      </trkpt>
      <trkpt lat="47.38175" lon="6.37761">
        <ele>429.688</ele>
        <time>2019-09-30T10:27:58Z</time>
      </trkpt>
      <trkpt lat="47.38152" lon="6.37763">
        <ele>429.212</ele>
        <time>2019-09-30T10:28:01Z</time>
      </trkpt>
      <trkpt lat="47.3813" lon="6.37765">
        <ele>428.584</ele>
        <time>2019-09-30T10:28:04Z</time>
      </trkpt>
      <trkpt lat="47.38107" lon="6.37767">
        <ele>427.903</ele>
        <time>2019-09-30T10:28:07Z</time>
      </trkpt>
      <trkpt lat="47.38084" lon="6.37769">
        <ele>427.623</ele>
        <time>2019-09-30T10:28:10Z</time>
      </trkpt>
      <trkpt lat="47.38061" lon="6.37771">
        <ele>428.05</ele>
        <time>2019-09-30T10:28:13Z</time>
      </trkpt>
      <trkpt lat="47.38038" lon="6.37772">
        <ele>428.7</ele>
        <time>2019-09-30T10:28:16Z</time>
      </trkpt>
      <trkpt lat="47.38017" lon="6.37773">
        <ele>429.333</ele>
        <time>2019-09-30T10:28:19Z</time>
      </trkpt>
      <trkpt lat="47.37998" lon="6.37774">
        <ele>429.501</ele>
        <time>2019-09-30T10:28:22Z</time>
      </trkpt>
      <trkpt lat="47.37978" lon="6.37775">
        <ele>429.684</ele>
        <time>2019-09-30T10:28:25Z</time>
      </trkpt>
      <trkpt lat="47.3796" lon="6.37777">
        <ele>429.37</ele>
        <time>2019-09-30T10:28:28Z</time>
      </trkpt>
      <trkpt lat="47.37942" lon="6.37778">
        <ele>428.722</ele>
        <time>2019-09-30T10:28:31Z</time>
      </trkpt>
      <trkpt lat="47.37924" lon="6.37779">
        <ele>428.232</ele>
        <time>2019-09-30T10:28:34Z</time>
      </trkpt>
      <trkpt lat="47.37906" lon="6.37781">
        <ele>427.515</ele>
        <time>2019-09-30T10:28:37Z</time>
      </trkpt>
      <trkpt lat="47.37888" lon="6.37782">
        <ele>427.16</ele>
        <time>2019-09-30T10:28:40Z</time>
      </trkpt>
      <trkpt lat="47.37872" lon="6.37783">
        <ele>426.878</ele>
        <time>2019-09-30T10:28:43Z</time>
      </trkpt>
      <trkpt lat="47.37856" lon="6.37784">
        <ele>427.007</ele>
        <time>2019-09-30T10:28:46Z</time>
      </trkpt>
      <trkpt lat="47.37841" lon="6.37784">
        <ele>427.07</ele>
        <time>2019-09-30T10:28:49Z</time>
      </trkpt>
      <trkpt lat="47.37827" lon="6.37785">
        <ele>427.316</ele>
        <time>2019-09-30T10:28:52Z</time>
      </trkpt>
      <trkpt lat="47.37813" lon="6.37786">
        <ele>427.411</ele>
        <time>2019-09-30T10:28:55Z</time>
      </trkpt>
      <trkpt lat="47.37801" lon="6.37786">
        <ele>427.986</ele>
        <time>2019-09-30T10:28:58Z</time>
      </trkpt>
      <trkpt lat="47.3779" lon="6.37786">
        <ele>428.546</ele>
        <time>2019-09-30T10:29:01Z</time>
      </trkpt>
      <trkpt lat="47.37777" lon="6.37786">
        <ele>429.5</ele>
        <time>2019-09-30T10:29:04Z</time>
      </trkpt>
      <trkpt lat="47.37766" lon="6.37786">
        <ele>430.182</ele>
        <time>2019-09-30T10:29:07Z</time>
      </trkpt>
      <trkpt lat="47.37754" lon="6.37786">
        <ele>430.673</ele>
        <time>2019-09-30T10:29:10Z</time>
      </trkpt>
      <trkpt lat="47.37742" lon="6.37787">
        <ele>431.345</ele>
        <time>2019-09-30T10:29:13Z</time>
      </trkpt>
      <trkpt lat="47.3773" lon="6.37789">
        <ele>432.625</ele>
        <time>2019-09-30T10:29:16Z</time>
      </trkpt>
      <trkpt lat="47.37718" lon="6.37789">
        <ele>433.715</ele>
        <time>2019-09-30T10:29:19Z</time>
      </trkpt>
      <trkpt lat="47.37706" lon="6.37791">
        <ele>433.936</ele>
        <time>2019-09-30T10:29:22Z</time>
      </trkpt>
      <trkpt lat="47.37695" lon="6.37793">
        <ele>434.273</ele>
        <time>2019-09-30T10:29:25Z</time>
      </trkpt>
      <trkpt lat="47.37683" lon="6.37794">
        <ele>434.547</ele>
        <time>2019-09-30T10:29:28Z</time>
      </trkpt>
      <trkpt lat="47.37671" lon="6.37795">
        <ele>434.939</ele>
        <time>2019-09-30T10:29:31Z</time>
      </trkpt>
      <trkpt lat="47.37656" lon="6.37795">
        <ele>435.071</ele>
        <time>2019-09-30T10:29:34Z</time>
      </trkpt>
      <trkpt lat="47.37642" lon="6.37796">
        <ele>435.32</ele>
        <time>2019-09-30T10:29:37Z</time>
      </trkpt>
      <trkpt lat="47.37627" lon="6.37796">
        <ele>435.317</ele>
        <time>2019-09-30T10:29:40Z</time>
      </trkpt>
      <trkpt lat="47.37611" lon="6.37798">
        <ele>435.37</ele>
        <time>2019-09-30T10:29:43Z</time>
      </trkpt>
      <trkpt lat="47.37596" lon="6.37801">
        <ele>435.67</ele>
        <time>2019-09-30T10:29:46Z</time>
      </trkpt>
      <trkpt lat="47.37581" lon="6.37803">
        <ele>435.26</ele>
        <time>2019-09-30T10:29:49Z</time>
      </trkpt>
      <trkpt lat="47.37565" lon="6.37805">
        <ele>434.685</ele>
        <time>2019-09-30T10:29:52Z</time>
      </trkpt>
      <trkpt lat="47.37548" lon="6.37805">
        <ele>433.985</ele>
        <time>2019-09-30T10:29:55Z</time>
      </trkpt>
      <trkpt lat="47.37531" lon="6.37807">
        <ele>433.821</ele>
        <time>2019-09-30T10:29:58Z</time>
      </trkpt>
      <trkpt lat="47.37513" lon="6.37809">
        <ele>433.807</ele>
        <time>2019-09-30T10:30:01Z</time>
      </trkpt>
      <trkpt lat="47.37496" lon="6.37811">
        <ele>433.123</ele>
        <time>2019-09-30T10:30:04Z</time>
      </trkpt>
      <trkpt lat="47.37479" lon="6.37814">
        <ele>432.468</ele>
        <time>2019-09-30T10:30:07Z</time>
      </trkpt>
      <trkpt lat="47.37461" lon="6.37815">
        <ele>431.648</ele>
        <time>2019-09-30T10:30:10Z</time>
      </trkpt>
      <trkpt lat="47.37443" lon="6.37819">
        <ele>430.863</ele>
        <time>2019-09-30T10:30:13Z</time>
      </trkpt>
      <trkpt lat="47.37424" lon="6.37822">
        <ele>430.289</ele>
        <time>2019-09-30T10:30:16Z</time>
      </trkpt>
      <trkpt lat="47.37405" lon="6.37824">
        <ele>429.687</ele>
        <time>2019-09-30T10:30:19Z</time>
      </trkpt>
      <trkpt lat="47.37385" lon="6.37825">
        <ele>428.936</ele>
        <time>2019-09-30T10:30:22Z</time>
      </trkpt>
      <trkpt lat="47.37363" lon="6.37825">
        <ele>428.25</ele>
        <time>2019-09-30T10:30:25Z</time>
      </trkpt>
      <trkpt lat="47.37339" lon="6.37824">
        <ele>427.4</ele>
        <time>2019-09-30T10:30:28Z</time>
      </trkpt>
      <trkpt lat="47.37314" lon="6.37824">
        <ele>426.21</ele>
        <time>2019-09-30T10:30:31Z</time>
      </trkpt>
      <trkpt lat="47.37288" lon="6.37823">
        <ele>424.941</ele>
        <time>2019-09-30T10:30:34Z</time>
      </trkpt>
      <trkpt lat="47.37262" lon="6.37823">
        <ele>424.303</ele>
        <time>2019-09-30T10:30:37Z</time>
      </trkpt>
      <trkpt lat="47.37238" lon="6.37822">
        <ele>423.42</ele>
        <time>2019-09-30T10:30:40Z</time>
      </trkpt>
      <trkpt lat="47.37215" lon="6.37822">
        <ele>422.776</ele>
        <time>2019-09-30T10:30:43Z</time>
      </trkpt>
      <trkpt lat="47.37191" lon="6.37822">
        <ele>422.423</ele>
        <time>2019-09-30T10:30:46Z</time>
      </trkpt>
      <trkpt lat="47.3717" lon="6.37822">
        <ele>421.993</ele>
        <time>2019-09-30T10:30:49Z</time>
      </trkpt>
      <trkpt lat="47.37149" lon="6.37822">
        <ele>421.674</ele>
        <time>2019-09-30T10:30:52Z</time>
      </trkpt>
      <trkpt lat="47.37131" lon="6.37821">
        <ele>421.676</ele>
        <time>2019-09-30T10:30:55Z</time>
      </trkpt>
      <trkpt lat="47.37113" lon="6.37822">
        <ele>421.593</ele>
        <time>2019-09-30T10:30:58Z</time>
      </trkpt>
      <trkpt lat="47.37095" lon="6.37825">
        <ele>422.299</ele>
        <time>2019-09-30T10:31:01Z</time>
      </trkpt>
      <trkpt lat="47.37076" lon="6.37825">
        <ele>422.758</ele>
        <time>2019-09-30T10:31:04Z</time>
      </trkpt>
      <trkpt lat="47.37059" lon="6.37825">
        <ele>422.962</ele>
        <time>2019-09-30T10:31:07Z</time>
      </trkpt>
      <trkpt lat="47.37042" lon="6.37825">
        <ele>423.217</ele>
        <time>2019-09-30T10:31:10Z</time>
      </trkpt>
      <trkpt lat="47.37024" lon="6.37825">
        <ele>423.657</ele>
        <time>2019-09-30T10:31:13Z</time>
      </trkpt>
      <trkpt lat="47.37008" lon="6.37827">
        <ele>424.334</ele>
        <time>2019-09-30T10:31:16Z</time>
      </trkpt>
      <trkpt lat="47.36994" lon="6.37828">
        <ele>425.333</ele>
        <time>2019-09-30T10:31:19Z</time>
      </trkpt>
      <trkpt lat="47.36981" lon="6.37828">
        <ele>426.213</ele>
        <time>2019-09-30T10:31:22Z</time>
      </trkpt>
      <trkpt lat="47.36968" lon="6.37829">
        <ele>426.484</ele>
        <time>2019-09-30T10:31:25Z</time>
      </trkpt>
      <trkpt lat="47.36956" lon="6.37829">
        <ele>426.627</ele>
        <time>2019-09-30T10:31:28Z</time>
      </trkpt>
      <trkpt lat="47.36944" lon="6.3783">
        <ele>426.88</ele>
        <time>2019-09-30T10:31:31Z</time>
      </trkpt>
      <trkpt lat="47.36933" lon="6.37829">
        <ele>427.14</ele>
        <time>2019-09-30T10:31:34Z</time>
      </trkpt>
      <trkpt lat="47.3692" lon="6.37831">
        <ele>427.497</ele>
        <time>2019-09-30T10:31:37Z</time>
      </trkpt>
      <trkpt lat="47.36908" lon="6.37831">
        <ele>427.714</ele>
        <time>2019-09-30T10:31:40Z</time>
      </trkpt>
      <trkpt lat="47.36898" lon="6.37832">
        <ele>428.053</ele>
        <time>2019-09-30T10:31:43Z</time>
      </trkpt>
      <trkpt lat="47.36888" lon="6.37832">
        <ele>428.421</ele>
        <time>2019-09-30T10:31:46Z</time>
      </trkpt>
      <trkpt lat="47.36879" lon="6.37833">
        <ele>428.649</ele>
        <time>2019-09-30T10:31:49Z</time>
      </trkpt>
      <trkpt lat="47.36871" lon="6.37834">
        <ele>428.506</ele>
        <time>2019-09-30T10:31:52Z</time>
      </trkpt>
      <trkpt lat="47.36864" lon="6.37834">
        <ele>428.548</ele>
        <time>2019-09-30T10:31:55Z</time>
      </trkpt>
      <trkpt lat="47.36856" lon="6.37836">
        <ele>428.79</ele>
        <time>2019-09-30T10:31:58Z</time>
      </trkpt>
      <trkpt lat="47.36848" lon="6.37837">
        <ele>428.909</ele>
        <time>2019-09-30T10:32:01Z</time>
      </trkpt>
      <trkpt lat="47.3684" lon="6.37837">
        <ele>428.855</ele>
        <time>2019-09-30T10:32:04Z</time>
      </trkpt>
      <trkpt lat="47.36832" lon="6.37838">
        <ele>428.81</ele>
        <time>2019-09-30T10:32:07Z</time>
      </trkpt>
      <trkpt lat="47.36824" lon="6.37839">
        <ele>429.677</ele>
        <time>2019-09-30T10:32:10Z</time>
      </trkpt>
      <trkpt lat="47.36816" lon="6.37839">
        <ele>430.149</ele>
        <time>2019-09-30T10:32:13Z</time>
      </trkpt>
      <trkpt lat="47.36808" lon="6.3784">
        <ele>430.325</ele>
        <time>2019-09-30T10:32:16Z</time>
      </trkpt>
      <trkpt lat="47.368" lon="6.37841">
        <ele>430.786</ele>
        <time>2019-09-30T10:32:19Z</time>
      </trkpt>
      <trkpt lat="47.36792" lon="6.37842">
        <ele>431.026</ele>
        <time>2019-09-30T10:32:22Z</time>
      </trkpt>
      <trkpt lat="47.36784" lon="6.37843">
        <ele>431.225</ele>
        <time>2019-09-30T10:32:25Z</time>
      </trkpt>
      <trkpt lat="47.36776" lon="6.37842">
        <ele>431.027</ele>
        <time>2019-09-30T10:32:28Z</time>
      </trkpt>
      <trkpt lat="47.36769" lon="6.37843">
        <ele>430.905</ele>
        <time>2019-09-30T10:32:31Z</time>
      </trkpt>
      <trkpt lat="47.36762" lon="6.37843">
        <ele>431.208</ele>
        <time>2019-09-30T10:32:34Z</time>
      </trkpt>
      <trkpt lat="47.36754" lon="6.37844">
        <ele>431.913</ele>
        <time>2019-09-30T10:32:37Z</time>
      </trkpt>
      <trkpt lat="47.36747" lon="6.37844">
        <ele>432.445</ele>
        <time>2019-09-30T10:32:40Z</time>
      </trkpt>
      <trkpt lat="47.36739" lon="6.37845">
        <ele>433.178</ele>
        <time>2019-09-30T10:32:43Z</time>
      </trkpt>
      <trkpt lat="47.36728" lon="6.37846">
        <ele>433.826</ele>
        <time>2019-09-30T10:32:46Z</time>
      </trkpt>
      <trkpt lat="47.36719" lon="6.37848">
        <ele>434.795</ele>
        <time>2019-09-30T10:32:49Z</time>
      </trkpt>
      <trkpt lat="47.3671" lon="6.37849">
        <ele>435.837</ele>
        <time>2019-09-30T10:32:52Z</time>
      </trkpt>
      <trkpt lat="47.36702" lon="6.37849">
        <ele>436.9</ele>
        <time>2019-09-30T10:32:55Z</time>
      </trkpt>
      <trkpt lat="47.36694" lon="6.37849">
        <ele>438.189</ele>
        <time>2019-09-30T10:32:58Z</time>
      </trkpt>
      <trkpt lat="47.36686" lon="6.3785">
        <ele>439.764</ele>
        <time>2019-09-30T10:33:01Z</time>
      </trkpt>
      <trkpt lat="47.36676" lon="6.37851">
        <ele>441.642</ele>
        <time>2019-09-30T10:33:04Z</time>
      </trkpt>
      <trkpt lat="47.36667" lon="6.37851">
        <ele>443.27</ele>
        <time>2019-09-30T10:33:07Z</time>
      </trkpt>
      <trkpt lat="47.36656" lon="6.37852">
        <ele>444.805</ele>
        <time>2019-09-30T10:33:10Z</time>
      </trkpt>
      <trkpt lat="47.36642" lon="6.37853">
        <ele>446.068</ele>
        <time>2019-09-30T10:33:13Z</time>
      </trkpt>
      <trkpt lat="47.36628" lon="6.37853">
        <ele>447.431</ele>
        <time>2019-09-30T10:33:16Z</time>
      </trkpt>
      <trkpt lat="47.36612" lon="6.37854">
        <ele>448.932</ele>
        <time>2019-09-30T10:33:19Z</time>
      </trkpt>
      <trkpt lat="47.36595" lon="6.37854">
        <ele>449.932</ele>
        <time>2019-09-30T10:33:22Z</time>
      </trkpt>
      <trkpt lat="47.36578" lon="6.3785">
        <ele>450.186</ele>
        <time>2019-09-30T10:33:25Z</time>
      </trkpt>
      <trkpt lat="47.3656" lon="6.37846">
        <ele>449.932</ele>
        <time>2019-09-30T10:33:28Z</time>
      </trkpt>
      <trkpt lat="47.3654" lon="6.37841">
        <ele>449.517</ele>
        <time>2019-09-30T10:33:31Z</time>
      </trkpt>
      <trkpt lat="47.3652" lon="6.37832">
        <ele>446.952</ele>
        <time>2019-09-30T10:33:34Z</time>
      </trkpt>
      <trkpt lat="47.36499" lon="6.37819">
        <ele>440.413</ele>
        <time>2019-09-30T10:33:37Z</time>
      </trkpt>
      <trkpt lat="47.3648" lon="6.37805">
        <ele>434.26</ele>
        <time>2019-09-30T10:33:40Z</time>
      </trkpt>
      <trkpt lat="47.36461" lon="6.37792">
        <ele>429.059</ele>
        <time>2019-09-30T10:33:43Z</time>
      </trkpt>
      <trkpt lat="47.36444" lon="6.3778">
        <ele>426.607</ele>
        <time>2019-09-30T10:33:46Z</time>
      </trkpt>
      <trkpt lat="47.36428" lon="6.37767">
        <ele>424.596</ele>
        <time>2019-09-30T10:33:49Z</time>
      </trkpt>
      <trkpt lat="47.36413" lon="6.37753">
        <ele>423.29</ele>
        <time>2019-09-30T10:33:52Z</time>
      </trkpt>
      <trkpt lat="47.36402" lon="6.37741">
        <ele>422.415</ele>
        <time>2019-09-30T10:33:55Z</time>
      </trkpt>
      <trkpt lat="47.36395" lon="6.37732">
        <ele>421.596</ele>
        <time>2019-09-30T10:33:58Z</time>
      </trkpt>
      <trkpt lat="47.36393" lon="6.3773">
        <ele>421.483</ele>
        <time>2019-09-30T10:34:01Z</time>
      </trkpt>
      <trkpt lat="47.36393" lon="6.3773">
        <ele>421.509</ele>
        <time>2019-09-30T10:34:04Z</time>
      </trkpt>
      <trkpt lat="47.36393" lon="6.3773">
        <ele>421.483</ele>
        <time>2019-09-30T10:34:07Z</time>
      </trkpt>
      <trkpt lat="47.36393" lon="6.3773">
        <ele>421.483</ele>
        <time>2019-09-30T10:35:55Z</time>
      </trkpt>
      <trkpt lat="47.36391" lon="6.37729">
        <ele>421.597</ele>
        <time>2019-09-30T10:35:58Z</time>
      </trkpt>
      <trkpt lat="47.36386" lon="6.37723">
        <ele>421.136</ele>
        <time>2019-09-30T10:36:01Z</time>
      </trkpt>
      <trkpt lat="47.36377" lon="6.37713">
        <ele>421.053</ele>
        <time>2019-09-30T10:36:04Z</time>
      </trkpt>
      <trkpt lat="47.36363" lon="6.37699">
        <ele>420.379</ele>
        <time>2019-09-30T10:36:07Z</time>
      </trkpt>
      <trkpt lat="47.36348" lon="6.37682">
        <ele>419.677</ele>
        <time>2019-09-30T10:36:10Z</time>
      </trkpt>
      <trkpt lat="47.36329" lon="6.37662">
        <ele>418.91</ele>
        <time>2019-09-30T10:36:13Z</time>
      </trkpt>
      <trkpt lat="47.36308" lon="6.37638">
        <ele>417.911</ele>
        <time>2019-09-30T10:36:16Z</time>
      </trkpt>
      <trkpt lat="47.36285" lon="6.37611">
        <ele>416.604</ele>
        <time>2019-09-30T10:36:19Z</time>
      </trkpt>
      <trkpt lat="47.3626" lon="6.37583">
        <ele>414.965</ele>
        <time>2019-09-30T10:36:22Z</time>
      </trkpt>
      <trkpt lat="47.36233" lon="6.37554">
        <ele>412.682</ele>
        <time>2019-09-30T10:36:25Z</time>
      </trkpt>
      <trkpt lat="47.36205" lon="6.37523">
        <ele>410.274</ele>
        <time>2019-09-30T10:36:28Z</time>
      </trkpt>
      <trkpt lat="47.36177" lon="6.3749">
        <ele>407.184</ele>
        <time>2019-09-30T10:36:31Z</time>
      </trkpt>
      <trkpt lat="47.36148" lon="6.37455">
        <ele>404.23</ele>
        <time>2019-09-30T10:36:34Z</time>
      </trkpt>
      <trkpt lat="47.36117" lon="6.3742">
        <ele>401.102</ele>
        <time>2019-09-30T10:36:37Z</time>
      </trkpt>
      <trkpt lat="47.36084" lon="6.37383">
        <ele>397.836</ele>
        <time>2019-09-30T10:36:40Z</time>
      </trkpt>
      <trkpt lat="47.36051" lon="6.37346">
        <ele>394.33</ele>
        <time>2019-09-30T10:36:43Z</time>
      </trkpt>
      <trkpt lat="47.36018" lon="6.37307">
        <ele>390.992</ele>
        <time>2019-09-30T10:36:46Z</time>
      </trkpt>
      <trkpt lat="47.35984" lon="6.37269">
        <ele>387.52</ele>
        <time>2019-09-30T10:36:49Z</time>
      </trkpt>
      <trkpt lat="47.35951" lon="6.3723">
        <ele>384.388</ele>
        <time>2019-09-30T10:36:52Z</time>
      </trkpt>
      <trkpt lat="47.35918" lon="6.37191">
        <ele>381.091</ele>
        <time>2019-09-30T10:36:55Z</time>
      </trkpt>
      <trkpt lat="47.35885" lon="6.37154">
        <ele>378.24</ele>
        <time>2019-09-30T10:36:58Z</time>
      </trkpt>
      <trkpt lat="47.35853" lon="6.37114">
        <ele>375.519</ele>
        <time>2019-09-30T10:37:01Z</time>
      </trkpt>
      <trkpt lat="47.35824" lon="6.37072">
        <ele>372.566</ele>
        <time>2019-09-30T10:37:04Z</time>
      </trkpt>
      <trkpt lat="47.35797" lon="6.37028">
        <ele>368.915</ele>
        <time>2019-09-30T10:37:07Z</time>
      </trkpt>
      <trkpt lat="47.35772" lon="6.36983">
        <ele>365.684</ele>
        <time>2019-09-30T10:37:10Z</time>
      </trkpt>
      <trkpt lat="47.35747" lon="6.36939">
        <ele>363.07</ele>
        <time>2019-09-30T10:37:13Z</time>
      </trkpt>
      <trkpt lat="47.35722" lon="6.36895">
        <ele>360.523</ele>
        <time>2019-09-30T10:37:16Z</time>
      </trkpt>
      <trkpt lat="47.35697" lon="6.36852">
        <ele>357.631</ele>
        <time>2019-09-30T10:37:19Z</time>
      </trkpt>
      <trkpt lat="47.3567" lon="6.36811">
        <ele>354.617</ele>
        <time>2019-09-30T10:37:22Z</time>
      </trkpt>
      <trkpt lat="47.3564" lon="6.36773">
        <ele>351.982</ele>
        <time>2019-09-30T10:37:25Z</time>
      </trkpt>
      <trkpt lat="47.3561" lon="6.36736">
        <ele>349.27</ele>
        <time>2019-09-30T10:37:28Z</time>
      </trkpt>
      <trkpt lat="47.35579" lon="6.36699">
        <ele>347.135</ele>
        <time>2019-09-30T10:37:31Z</time>
      </trkpt>
      <trkpt lat="47.35549" lon="6.36661">
        <ele>344.949</ele>
        <time>2019-09-30T10:37:34Z</time>
      </trkpt>
      <trkpt lat="47.35518" lon="6.36624">
        <ele>342.898</ele>
        <time>2019-09-30T10:37:37Z</time>
      </trkpt>
      <trkpt lat="47.35487" lon="6.36586">
        <ele>340.647</ele>
        <time>2019-09-30T10:37:40Z</time>
      </trkpt>
      <trkpt lat="47.35456" lon="6.36549">
        <ele>338.226</ele>
        <time>2019-09-30T10:37:43Z</time>
      </trkpt>
      <trkpt lat="47.35423" lon="6.36516">
        <ele>335.788</ele>
        <time>2019-09-30T10:37:46Z</time>
      </trkpt>
      <trkpt lat="47.35386" lon="6.36496">
        <ele>333.893</ele>
        <time>2019-09-30T10:37:49Z</time>
      </trkpt>
      <trkpt lat="47.35347" lon="6.36493">
        <ele>332.29</ele>
        <time>2019-09-30T10:37:52Z</time>
      </trkpt>
      <trkpt lat="47.35307" lon="6.36512">
        <ele>331.255</ele>
        <time>2019-09-30T10:37:55Z</time>
      </trkpt>
      <trkpt lat="47.35271" lon="6.36539">
        <ele>329.867</ele>
        <time>2019-09-30T10:37:58Z</time>
      </trkpt>
      <trkpt lat="47.35239" lon="6.36555">
        <ele>327.364</ele>
        <time>2019-09-30T10:38:01Z</time>
      </trkpt>
      <trkpt lat="47.35209" lon="6.36569">
        <ele>324.358</ele>
        <time>2019-09-30T10:38:04Z</time>
      </trkpt>
      <trkpt lat="47.35187" lon="6.36593">
        <ele>321.331</ele>
        <time>2019-09-30T10:38:07Z</time>
      </trkpt>
      <trkpt lat="47.35174" lon="6.3663">
        <ele>319.66</ele>
        <time>2019-09-30T10:38:10Z</time>
      </trkpt>
      <trkpt lat="47.35166" lon="6.36672">
        <ele>318.233</ele>
        <time>2019-09-30T10:38:13Z</time>
      </trkpt>
      <trkpt lat="47.35166" lon="6.36718">
        <ele>316.591</ele>
        <time>2019-09-30T10:38:16Z</time>
      </trkpt>
      <trkpt lat="47.35171" lon="6.36767">
        <ele>314.227</ele>
        <time>2019-09-30T10:38:19Z</time>
      </trkpt>
      <trkpt lat="47.35175" lon="6.36816">
        <ele>311.917</ele>
        <time>2019-09-30T10:38:22Z</time>
      </trkpt>
      <trkpt lat="47.35179" lon="6.36861">
        <ele>309.984</ele>
        <time>2019-09-30T10:38:25Z</time>
      </trkpt>
      <trkpt lat="47.35183" lon="6.36903">
        <ele>308.764</ele>
        <time>2019-09-30T10:38:28Z</time>
      </trkpt>
      <trkpt lat="47.3518" lon="6.36938">
        <ele>307.336</ele>
        <time>2019-09-30T10:38:31Z</time>
      </trkpt>
      <trkpt lat="47.35163" lon="6.36961">
        <ele>307.575</ele>
        <time>2019-09-30T10:38:34Z</time>
      </trkpt>
      <trkpt lat="47.35143" lon="6.36958">
        <ele>307.148</ele>
        <time>2019-09-30T10:38:37Z</time>
      </trkpt>
      <trkpt lat="47.35135" lon="6.36931">
        <ele>305.747</ele>
        <time>2019-09-30T10:38:40Z</time>
      </trkpt>
      <trkpt lat="47.35131" lon="6.36898">
        <ele>304.025</ele>
        <time>2019-09-30T10:38:43Z</time>
      </trkpt>
      <trkpt lat="47.35124" lon="6.36867">
        <ele>302.296</ele>
        <time>2019-09-30T10:38:46Z</time>
      </trkpt>
      <trkpt lat="47.35116" lon="6.36835">
        <ele>300.702</ele>
        <time>2019-09-30T10:38:49Z</time>
      </trkpt>
      <trkpt lat="47.35109" lon="6.368">
        <ele>299.435</ele>
        <time>2019-09-30T10:38:52Z</time>
      </trkpt>
      <trkpt lat="47.35102" lon="6.36762">
        <ele>297.781</ele>
        <time>2019-09-30T10:38:55Z</time>
      </trkpt>
      <trkpt lat="47.35095" lon="6.36723">
        <ele>296.907</ele>
        <time>2019-09-30T10:38:58Z</time>
      </trkpt>
      <trkpt lat="47.35088" lon="6.36683">
        <ele>296.245</ele>
        <time>2019-09-30T10:39:01Z</time>
      </trkpt>
      <trkpt lat="47.3508" lon="6.36643">
        <ele>295.722</ele>
        <time>2019-09-30T10:39:04Z</time>
      </trkpt>
      <trkpt lat="47.35072" lon="6.366">
        <ele>294.548</ele>
        <time>2019-09-30T10:39:07Z</time>
      </trkpt>
      <trkpt lat="47.35066" lon="6.36558">
        <ele>293.123</ele>
        <time>2019-09-30T10:39:10Z</time>
      </trkpt>
      <trkpt lat="47.3506" lon="6.36516">
        <ele>293.649</ele>
        <time>2019-09-30T10:39:13Z</time>
      </trkpt>
      <trkpt lat="47.35057" lon="6.36474">
        <ele>293.953</ele>
        <time>2019-09-30T10:39:16Z</time>
      </trkpt>
      <trkpt lat="47.35054" lon="6.3643">
        <ele>292.559</ele>
        <time>2019-09-30T10:39:19Z</time>
      </trkpt>
      <trkpt lat="47.35054" lon="6.3639">
        <ele>291.912</ele>
        <time>2019-09-30T10:39:22Z</time>
      </trkpt>
      <trkpt lat="47.35054" lon="6.36356">
        <ele>292.666</ele>
        <time>2019-09-30T10:39:25Z</time>
      </trkpt>
      <trkpt lat="47.35053" lon="6.36327">
        <ele>292.358</ele>
        <time>2019-09-30T10:39:28Z</time>
      </trkpt>
      <trkpt lat="47.35052" lon="6.36304">
        <ele>291.393</ele>
        <time>2019-09-30T10:39:31Z</time>
      </trkpt>
      <trkpt lat="47.35053" lon="6.36277">
        <ele>291.015</ele>
        <time>2019-09-30T10:39:34Z</time>
      </trkpt>
      <trkpt lat="47.35053" lon="6.36252">
        <ele>289.42</ele>
        <time>2019-09-30T10:39:37Z</time>
      </trkpt>
      <trkpt lat="47.35043" lon="6.36229">
        <ele>289.053</ele>
        <time>2019-09-30T10:39:40Z</time>
      </trkpt>
      <trkpt lat="47.35029" lon="6.36217">
        <ele>288.766</ele>
        <time>2019-09-30T10:39:43Z</time>
      </trkpt>
      <trkpt lat="47.35017" lon="6.36206">
        <ele>285.75</ele>
        <time>2019-09-30T10:39:46Z</time>
      </trkpt>
      <trkpt lat="47.35005" lon="6.36197">
        <ele>284.005</ele>
        <time>2019-09-30T10:39:49Z</time>
      </trkpt>
      <trkpt lat="47.34992" lon="6.3619">
        <ele>283.51</ele>
        <time>2019-09-30T10:39:52Z</time>
      </trkpt>
      <trkpt lat="47.34979" lon="6.36181">
        <ele>282.815</ele>
        <time>2019-09-30T10:39:55Z</time>
      </trkpt>
      <trkpt lat="47.34964" lon="6.36171">
        <ele>282.913</ele>
        <time>2019-09-30T10:39:58Z</time>
      </trkpt>
      <trkpt lat="47.34949" lon="6.36161">
        <ele>282.396</ele>
        <time>2019-09-30T10:40:01Z</time>
      </trkpt>
      <trkpt lat="47.34935" lon="6.3615">
        <ele>281.176</ele>
        <time>2019-09-30T10:40:04Z</time>
      </trkpt>
      <trkpt lat="47.34922" lon="6.36142">
        <ele>280.168</ele>
        <time>2019-09-30T10:40:07Z</time>
      </trkpt>
      <trkpt lat="47.34914" lon="6.36136">
        <ele>279.725</ele>
        <time>2019-09-30T10:40:10Z</time>
      </trkpt>
      <trkpt lat="47.34913" lon="6.36133">
        <ele>279.716</ele>
        <time>2019-09-30T10:40:13Z</time>
      </trkpt>
      <trkpt lat="47.34913" lon="6.36133">
        <ele>279.716</ele>
        <time>2019-09-30T10:41:19Z</time>
      </trkpt>
      <trkpt lat="47.34912" lon="6.36132">
        <ele>279.739</ele>
        <time>2019-09-30T10:41:22Z</time>
      </trkpt>
      <trkpt lat="47.34908" lon="6.36131">
        <ele>279.957</ele>
        <time>2019-09-30T10:41:25Z</time>
      </trkpt>
      <trkpt lat="47.34901" lon="6.36127">
        <ele>279.683</ele>
        <time>2019-09-30T10:41:28Z</time>
      </trkpt>
      <trkpt lat="47.34891" lon="6.36122">
        <ele>279.523</ele>
        <time>2019-09-30T10:41:31Z</time>
      </trkpt>
      <trkpt lat="47.3488" lon="6.36115">
        <ele>279.592</ele>
        <time>2019-09-30T10:41:34Z</time>
      </trkpt>
      <trkpt lat="47.34869" lon="6.36109">
        <ele>280.085</ele>
        <time>2019-09-30T10:41:37Z</time>
      </trkpt>
      <trkpt lat="47.34854" lon="6.36103">
        <ele>280.609</ele>
        <time>2019-09-30T10:41:40Z</time>
      </trkpt>
      <trkpt lat="47.34838" lon="6.36097">
        <ele>280.9</ele>
        <time>2019-09-30T10:41:43Z</time>
      </trkpt>
      <trkpt lat="47.34819" lon="6.36094">
        <ele>281.022</ele>
        <time>2019-09-30T10:41:46Z</time>
      </trkpt>
      <trkpt lat="47.34798" lon="6.36092">
        <ele>280.239</ele>
        <time>2019-09-30T10:41:49Z</time>
      </trkpt>
      <trkpt lat="47.34775" lon="6.36094">
        <ele>278.956</ele>
        <time>2019-09-30T10:41:52Z</time>
      </trkpt>
      <trkpt lat="47.34749" lon="6.36096">
        <ele>277.643</ele>
        <time>2019-09-30T10:41:55Z</time>
      </trkpt>
      <trkpt lat="47.34727" lon="6.36096">
        <ele>276.38</ele>
        <time>2019-09-30T10:41:58Z</time>
      </trkpt>
      <trkpt lat="47.34706" lon="6.36098">
        <ele>275.963</ele>
        <time>2019-09-30T10:42:01Z</time>
      </trkpt>
      <trkpt lat="47.34686" lon="6.361">
        <ele>275.324</ele>
        <time>2019-09-30T10:42:04Z</time>
      </trkpt>
      <trkpt lat="47.34666" lon="6.36103">
        <ele>274.072</ele>
        <time>2019-09-30T10:42:07Z</time>
      </trkpt>
      <trkpt lat="47.34647" lon="6.36106">
        <ele>272.625</ele>
        <time>2019-09-30T10:42:10Z</time>
      </trkpt>
      <trkpt lat="47.34628" lon="6.36109">
        <ele>271.268</ele>
        <time>2019-09-30T10:42:13Z</time>
      </trkpt>
      <trkpt lat="47.34606" lon="6.36111">
        <ele>269.74</ele>
        <time>2019-09-30T10:42:16Z</time>
      </trkpt>
      <trkpt lat="47.34585" lon="6.36113">
        <ele>268.631</ele>
        <time>2019-09-30T10:42:19Z</time>
      </trkpt>
      <trkpt lat="47.34562" lon="6.36116">
        <ele>267.809</ele>
        <time>2019-09-30T10:42:22Z</time>
      </trkpt>
      <trkpt lat="47.3454" lon="6.36118">
        <ele>267.238</ele>
        <time>2019-09-30T10:42:25Z</time>
      </trkpt>
      <trkpt lat="47.34519" lon="6.36121">
        <ele>265.706</ele>
        <time>2019-09-30T10:42:28Z</time>
      </trkpt>
      <trkpt lat="47.345" lon="6.36123">
        <ele>264.611</ele>
        <time>2019-09-30T10:42:31Z</time>
      </trkpt>
      <trkpt lat="47.34487" lon="6.36122">
        <ele>264.087</ele>
        <time>2019-09-30T10:42:34Z</time>
      </trkpt>
      <trkpt lat="47.34476" lon="6.36117">
        <ele>263.893</ele>
        <time>2019-09-30T10:42:37Z</time>
      </trkpt>
      <trkpt lat="47.34474" lon="6.36103">
        <ele>264.041</ele>
        <time>2019-09-30T10:42:40Z</time>
      </trkpt>
      <trkpt lat="47.34479" lon="6.36088">
        <ele>263.958</ele>
        <time>2019-09-30T10:42:43Z</time>
      </trkpt>
      <trkpt lat="47.34477" lon="6.36071">
        <ele>263.717</ele>
        <time>2019-09-30T10:42:46Z</time>
      </trkpt>
      <trkpt lat="47.34463" lon="6.36056">
        <ele>263.382</ele>
        <time>2019-09-30T10:42:49Z</time>
      </trkpt>
      <trkpt lat="47.34449" lon="6.36046">
        <ele>262.866</ele>
        <time>2019-09-30T10:42:52Z</time>
      </trkpt>
      <trkpt lat="47.34436" lon="6.36033">
        <ele>263.227</ele>
        <time>2019-09-30T10:42:55Z</time>
      </trkpt>
      <trkpt lat="47.34427" lon="6.36016">
        <ele>262.872</ele>
        <time>2019-09-30T10:42:58Z</time>
      </trkpt>
      <trkpt lat="47.3442" lon="6.36001">
        <ele>262.578</ele>
        <time>2019-09-30T10:43:01Z</time>
      </trkpt>
      <trkpt lat="47.34415" lon="6.35987">
        <ele>263.074</ele>
        <time>2019-09-30T10:43:04Z</time>
      </trkpt>
      <trkpt lat="47.3441" lon="6.35979">
        <ele>263.867</ele>
        <time>2019-09-30T10:43:07Z</time>
      </trkpt>
      <trkpt lat="47.34404" lon="6.35979">
        <ele>263.679</ele>
        <time>2019-09-30T10:43:10Z</time>
      </trkpt>
      <trkpt lat="47.34401" lon="6.35987">
        <ele>263.036</ele>
        <time>2019-09-30T10:43:13Z</time>
      </trkpt>
      <trkpt lat="47.34397" lon="6.35996">
        <ele>261.657</ele>
        <time>2019-09-30T10:43:16Z</time>
      </trkpt>
      <trkpt lat="47.34394" lon="6.36002">
        <ele>260.856</ele>
        <time>2019-09-30T10:43:19Z</time>
      </trkpt>
      <trkpt lat="47.34394" lon="6.36003">
        <ele>260.458</ele>
        <time>2019-09-30T10:43:22Z</time>
      </trkpt>
      <trkpt lat="47.34394" lon="6.36003">
        <ele>260.458</ele>
        <time>2019-09-30T10:44:28Z</time>
      </trkpt>
      <trkpt lat="47.34393" lon="6.36004">
        <ele>260.181</ele>
        <time>2019-09-30T10:44:31Z</time>
      </trkpt>
      <trkpt lat="47.34392" lon="6.36005">
        <ele>259.339</ele>
        <time>2019-09-30T10:44:34Z</time>
      </trkpt>
      <trkpt lat="47.34392" lon="6.36005">
        <ele>259.371</ele>
        <time>2019-09-30T10:44:37Z</time>
      </trkpt>
      <trkpt lat="47.34392" lon="6.36005">
        <ele>260.273</ele>
        <time>2019-09-30T11:22:22Z</time>
      </trkpt>
      <trkpt lat="47.34392" lon="6.36002">
        <ele>259.992</ele>
        <time>2019-09-30T11:22:25Z</time>
      </trkpt>
      <trkpt lat="47.34394" lon="6.35996">
        <ele>260.144</ele>
        <time>2019-09-30T11:22:28Z</time>
      </trkpt>
      <trkpt lat="47.34397" lon="6.35988">
        <ele>260.255</ele>
        <time>2019-09-30T11:22:31Z</time>
      </trkpt>
      <trkpt lat="47.34404" lon="6.35976">
        <ele>260.772</ele>
        <time>2019-09-30T11:22:37Z</time>
      </trkpt>
      <trkpt lat="47.34402" lon="6.35964">
        <ele>260.874</ele>
        <time>2019-09-30T11:22:40Z</time>
      </trkpt>
      <trkpt lat="47.34396" lon="6.35954">
        <ele>262.554</ele>
        <time>2019-09-30T11:22:43Z</time>
      </trkpt>
      <trkpt lat="47.34391" lon="6.35944">
        <ele>263.548</ele>
        <time>2019-09-30T11:22:46Z</time>
      </trkpt>
      <trkpt lat="47.34386" lon="6.35934">
        <ele>264.616</ele>
        <time>2019-09-30T11:22:49Z</time>
      </trkpt>
      <trkpt lat="47.34379" lon="6.35922">
        <ele>265.11</ele>
        <time>2019-09-30T11:22:52Z</time>
      </trkpt>
      <trkpt lat="47.34371" lon="6.35913">
        <ele>265.535</ele>
        <time>2019-09-30T11:22:55Z</time>
      </trkpt>
      <trkpt lat="47.34362" lon="6.35904">
        <ele>266.031</ele>
        <time>2019-09-30T11:22:58Z</time>
      </trkpt>
      <trkpt lat="47.34352" lon="6.35894">
        <ele>266.618</ele>
        <time>2019-09-30T11:23:01Z</time>
      </trkpt>
      <trkpt lat="47.34342" lon="6.35884">
        <ele>267.47</ele>
        <time>2019-09-30T11:23:04Z</time>
      </trkpt>
      <trkpt lat="47.3433" lon="6.35876">
        <ele>268.583</ele>
        <time>2019-09-30T11:23:07Z</time>
      </trkpt>
      <trkpt lat="47.3432" lon="6.35868">
        <ele>269.003</ele>
        <time>2019-09-30T11:23:10Z</time>
      </trkpt>
      <trkpt lat="47.34311" lon="6.3586">
        <ele>269.136</ele>
        <time>2019-09-30T11:23:13Z</time>
      </trkpt>
      <trkpt lat="47.34302" lon="6.35852">
        <ele>269.363</ele>
        <time>2019-09-30T11:23:16Z</time>
      </trkpt>
      <trkpt lat="47.34294" lon="6.35843">
        <ele>269.623</ele>
        <time>2019-09-30T11:23:19Z</time>
      </trkpt>
      <trkpt lat="47.34284" lon="6.35832">
        <ele>270.022</ele>
        <time>2019-09-30T11:23:22Z</time>
      </trkpt>
      <trkpt lat="47.34274" lon="6.35819">
        <ele>269.452</ele>
        <time>2019-09-30T11:23:25Z</time>
      </trkpt>
      <trkpt lat="47.34263" lon="6.35806">
        <ele>269.411</ele>
        <time>2019-09-30T11:23:28Z</time>
      </trkpt>
      <trkpt lat="47.34252" lon="6.35791">
        <ele>269.678</ele>
        <time>2019-09-30T11:23:31Z</time>
      </trkpt>
      <trkpt lat="47.3424" lon="6.35778">
        <ele>270.102</ele>
        <time>2019-09-30T11:23:34Z</time>
      </trkpt>
      <trkpt lat="47.34227" lon="6.35762">
        <ele>270.129</ele>
        <time>2019-09-30T11:23:37Z</time>
      </trkpt>
      <trkpt lat="47.34214" lon="6.35745">
        <ele>270.62</ele>
        <time>2019-09-30T11:23:40Z</time>
      </trkpt>
      <trkpt lat="47.34202" lon="6.35727">
        <ele>270.227</ele>
        <time>2019-09-30T11:23:43Z</time>
      </trkpt>
      <trkpt lat="47.34192" lon="6.35709">
        <ele>270.2</ele>
        <time>2019-09-30T11:23:46Z</time>
      </trkpt>
      <trkpt lat="47.34183" lon="6.35693">
        <ele>270.128</ele>
        <time>2019-09-30T11:23:49Z</time>
      </trkpt>
      <trkpt lat="47.34175" lon="6.35676">
        <ele>270.758</ele>
        <time>2019-09-30T11:23:52Z</time>
      </trkpt>
      <trkpt lat="47.34165" lon="6.3566">
        <ele>270.225</ele>
        <time>2019-09-30T11:23:55Z</time>
      </trkpt>
      <trkpt lat="47.34156" lon="6.35641">
        <ele>268.474</ele>
        <time>2019-09-30T11:23:58Z</time>
      </trkpt>
      <trkpt lat="47.3415" lon="6.35621">
        <ele>267.66</ele>
        <time>2019-09-30T11:24:01Z</time>
      </trkpt>
      <trkpt lat="47.34143" lon="6.35602">
        <ele>266.166</ele>
        <time>2019-09-30T11:24:04Z</time>
      </trkpt>
      <trkpt lat="47.34136" lon="6.35585">
        <ele>265.491</ele>
        <time>2019-09-30T11:24:07Z</time>
      </trkpt>
      <trkpt lat="47.3413" lon="6.35566">
        <ele>263.99</ele>
        <time>2019-09-30T11:24:10Z</time>
      </trkpt>
      <trkpt lat="47.34124" lon="6.35549">
        <ele>263.08</ele>
        <time>2019-09-30T11:24:13Z</time>
      </trkpt>
      <trkpt lat="47.34116" lon="6.35533">
        <ele>263.051</ele>
        <time>2019-09-30T11:24:16Z</time>
      </trkpt>
      <trkpt lat="47.34108" lon="6.35516">
        <ele>263.509</ele>
        <time>2019-09-30T11:24:19Z</time>
      </trkpt>
      <trkpt lat="47.34099" lon="6.35501">
        <ele>263.55</ele>
        <time>2019-09-30T11:24:22Z</time>
      </trkpt>
      <trkpt lat="47.34091" lon="6.35484">
        <ele>263.613</ele>
        <time>2019-09-30T11:24:25Z</time>
      </trkpt>
      <trkpt lat="47.34083" lon="6.35471">
        <ele>264.139</ele>
        <time>2019-09-30T11:24:28Z</time>
      </trkpt>
      <trkpt lat="47.34074" lon="6.3546">
        <ele>264.938</ele>
        <time>2019-09-30T11:24:31Z</time>
      </trkpt>
      <trkpt lat="47.34064" lon="6.35446">
        <ele>265.392</ele>
        <time>2019-09-30T11:24:34Z</time>
      </trkpt>
      <trkpt lat="47.34055" lon="6.3543">
        <ele>265.114</ele>
        <time>2019-09-30T11:24:37Z</time>
      </trkpt>
      <trkpt lat="47.34045" lon="6.35415">
        <ele>264.622</ele>
        <time>2019-09-30T11:24:40Z</time>
      </trkpt>
      <trkpt lat="47.34035" lon="6.354">
        <ele>264.183</ele>
        <time>2019-09-30T11:24:43Z</time>
      </trkpt>
      <trkpt lat="47.34026" lon="6.35385">
        <ele>263.635</ele>
        <time>2019-09-30T11:24:46Z</time>
      </trkpt>
      <trkpt lat="47.34017" lon="6.3537">
        <ele>263.32</ele>
        <time>2019-09-30T11:24:49Z</time>
      </trkpt>
      <trkpt lat="47.34006" lon="6.35356">
        <ele>263.427</ele>
        <time>2019-09-30T11:24:52Z</time>
      </trkpt>
      <trkpt lat="47.33996" lon="6.35343">
        <ele>263.46</ele>
        <time>2019-09-30T11:24:55Z</time>
      </trkpt>
      <trkpt lat="47.33986" lon="6.35331">
        <ele>264.022</ele>
        <time>2019-09-30T11:24:58Z</time>
      </trkpt>
      <trkpt lat="47.33977" lon="6.35323">
        <ele>264.252</ele>
        <time>2019-09-30T11:25:01Z</time>
      </trkpt>
      <trkpt lat="47.33967" lon="6.35315">
        <ele>264.418</ele>
        <time>2019-09-30T11:25:04Z</time>
      </trkpt>
      <trkpt lat="47.33959" lon="6.35305">
        <ele>264.948</ele>
        <time>2019-09-30T11:25:07Z</time>
      </trkpt>
      <trkpt lat="47.33952" lon="6.35294">
        <ele>266.054</ele>
        <time>2019-09-30T11:25:10.001Z</time>
      </trkpt>
      <trkpt lat="47.33944" lon="6.35284">
        <ele>267.765</ele>
        <time>2019-09-30T11:25:13Z</time>
      </trkpt>
      <trkpt lat="47.33934" lon="6.35275">
        <ele>268.801</ele>
        <time>2019-09-30T11:25:16Z</time>
      </trkpt>
      <trkpt lat="47.33923" lon="6.35263">
        <ele>269.351</ele>
        <time>2019-09-30T11:25:19Z</time>
      </trkpt>
      <trkpt lat="47.3391" lon="6.35253">
        <ele>269.921</ele>
        <time>2019-09-30T11:25:22Z</time>
      </trkpt>
      <trkpt lat="47.33893" lon="6.3524">
        <ele>270.942</ele>
        <time>2019-09-30T11:25:25Z</time>
      </trkpt>
      <trkpt lat="47.33879" lon="6.35226">
        <ele>272.057</ele>
        <time>2019-09-30T11:25:28Z</time>
      </trkpt>
      <trkpt lat="47.33864" lon="6.35213">
        <ele>271.977</ele>
        <time>2019-09-30T11:25:31Z</time>
      </trkpt>
      <trkpt lat="47.33846" lon="6.352">
        <ele>271.428</ele>
        <time>2019-09-30T11:25:34Z</time>
      </trkpt>
      <trkpt lat="47.33829" lon="6.35186">
        <ele>271.714</ele>
        <time>2019-09-30T11:25:37Z</time>
      </trkpt>
      <trkpt lat="47.33813" lon="6.35173">
        <ele>271.942</ele>
        <time>2019-09-30T11:25:40Z</time>
      </trkpt>
      <trkpt lat="47.33798" lon="6.3516">
        <ele>272.433</ele>
        <time>2019-09-30T11:25:43Z</time>
      </trkpt>
      <trkpt lat="47.33784" lon="6.35146">
        <ele>272.032</ele>
        <time>2019-09-30T11:25:46Z</time>
      </trkpt>
      <trkpt lat="47.33771" lon="6.35132">
        <ele>271.284</ele>
        <time>2019-09-30T11:25:49Z</time>
      </trkpt>
      <trkpt lat="47.33759" lon="6.35119">
        <ele>271.188</ele>
        <time>2019-09-30T11:25:52Z</time>
      </trkpt>
      <trkpt lat="47.33745" lon="6.35107">
        <ele>271.286</ele>
        <time>2019-09-30T11:25:55Z</time>
      </trkpt>
      <trkpt lat="47.33732" lon="6.351">
        <ele>271.436</ele>
        <time>2019-09-30T11:25:58Z</time>
      </trkpt>
      <trkpt lat="47.3372" lon="6.35096">
        <ele>271.064</ele>
        <time>2019-09-30T11:26:01Z</time>
      </trkpt>
      <trkpt lat="47.33712" lon="6.35089">
        <ele>270.894</ele>
        <time>2019-09-30T11:26:04Z</time>
      </trkpt>
      <trkpt lat="47.33704" lon="6.35079">
        <ele>271.499</ele>
        <time>2019-09-30T11:26:07Z</time>
      </trkpt>
      <trkpt lat="47.33694" lon="6.35068">
        <ele>272.327</ele>
        <time>2019-09-30T11:26:10Z</time>
      </trkpt>
      <trkpt lat="47.33683" lon="6.35055">
        <ele>273.15</ele>
        <time>2019-09-30T11:26:13Z</time>
      </trkpt>
      <trkpt lat="47.3367" lon="6.3504">
        <ele>273.6</ele>
        <time>2019-09-30T11:26:16Z</time>
      </trkpt>
      <trkpt lat="47.33658" lon="6.35024">
        <ele>273.03</ele>
        <time>2019-09-30T11:26:19Z</time>
      </trkpt>
      <trkpt lat="47.33643" lon="6.35007">
        <ele>270.885</ele>
        <time>2019-09-30T11:26:22Z</time>
      </trkpt>
      <trkpt lat="47.33629" lon="6.34986">
        <ele>268.378</ele>
        <time>2019-09-30T11:26:25Z</time>
      </trkpt>
      <trkpt lat="47.33616" lon="6.34967">
        <ele>267.727</ele>
        <time>2019-09-30T11:26:28Z</time>
      </trkpt>
      <trkpt lat="47.33605" lon="6.34952">
        <ele>268.139</ele>
        <time>2019-09-30T11:26:31Z</time>
      </trkpt>
      <trkpt lat="47.33594" lon="6.34939">
        <ele>268.769</ele>
        <time>2019-09-30T11:26:34Z</time>
      </trkpt>
      <trkpt lat="47.33583" lon="6.34927">
        <ele>269.585</ele>
        <time>2019-09-30T11:26:37Z</time>
      </trkpt>
      <trkpt lat="47.33573" lon="6.34916">
        <ele>270.553</ele>
        <time>2019-09-30T11:26:40Z</time>
      </trkpt>
      <trkpt lat="47.33562" lon="6.34905">
        <ele>271.611</ele>
        <time>2019-09-30T11:26:43Z</time>
      </trkpt>
      <trkpt lat="47.33554" lon="6.34893">
        <ele>272.22</ele>
        <time>2019-09-30T11:26:46Z</time>
      </trkpt>
      <trkpt lat="47.33553" lon="6.34877">
        <ele>273.151</ele>
        <time>2019-09-30T11:26:49Z</time>
      </trkpt>
      <trkpt lat="47.33554" lon="6.34869">
        <ele>274.05</ele>
        <time>2019-09-30T11:26:52Z</time>
      </trkpt>
      <trkpt lat="47.33554" lon="6.34868">
        <ele>273.944</ele>
        <time>2019-09-30T11:26:55Z</time>
      </trkpt>
      <trkpt lat="47.33554" lon="6.34868">
        <ele>273.944</ele>
        <time>2019-09-30T11:27:16Z</time>
      </trkpt>
      <trkpt lat="47.33554" lon="6.34863">
        <ele>273.61</ele>
        <time>2019-09-30T11:27:19Z</time>
      </trkpt>
      <trkpt lat="47.33555" lon="6.34859">
        <ele>273.506</ele>
        <time>2019-09-30T11:27:22Z</time>
      </trkpt>
      <trkpt lat="47.33555" lon="6.34857">
        <ele>273.305</ele>
        <time>2019-09-30T11:27:25Z</time>
      </trkpt>
      <trkpt lat="47.33555" lon="6.34854">
        <ele>272.941</ele>
        <time>2019-09-30T11:27:28Z</time>
      </trkpt>
      <trkpt lat="47.33556" lon="6.34848">
        <ele>272.194</ele>
        <time>2019-09-30T11:27:31Z</time>
      </trkpt>
      <trkpt lat="47.33559" lon="6.34837">
        <ele>271.912</ele>
        <time>2019-09-30T11:27:37Z</time>
      </trkpt>
      <trkpt lat="47.33559" lon="6.34835">
        <ele>271.991</ele>
        <time>2019-09-30T11:27:40Z</time>
      </trkpt>
      <trkpt lat="47.3356" lon="6.34831">
        <ele>271.774</ele>
        <time>2019-09-30T11:27:43Z</time>
      </trkpt>
      <trkpt lat="47.33562" lon="6.34827">
        <ele>271.737</ele>
        <time>2019-09-30T11:27:46Z</time>
      </trkpt>
      <trkpt lat="47.33562" lon="6.34826">
        <ele>271.699</ele>
        <time>2019-09-30T11:27:49Z</time>
      </trkpt>
      <trkpt lat="47.33563" lon="6.34823">
        <ele>271.128</ele>
        <time>2019-09-30T11:27:52Z</time>
      </trkpt>
      <trkpt lat="47.33567" lon="6.34819">
        <ele>270.438</ele>
        <time>2019-09-30T11:27:55Z</time>
      </trkpt>
      <trkpt lat="47.3357" lon="6.34816">
        <ele>269.924</ele>
        <time>2019-09-30T11:27:58Z</time>
      </trkpt>
      <trkpt lat="47.33571" lon="6.34813">
        <ele>270.041</ele>
        <time>2019-09-30T11:28:10Z</time>
      </trkpt>
      <trkpt lat="47.33572" lon="6.34812">
        <ele>270.038</ele>
        <time>2019-09-30T11:28:13Z</time>
      </trkpt>
      <trkpt lat="47.33577" lon="6.34802">
        <ele>270.508</ele>
        <time>2019-09-30T11:28:19Z</time>
      </trkpt>
      <trkpt lat="47.3358" lon="6.34796">
        <ele>270.795</ele>
        <time>2019-09-30T11:28:22Z</time>
      </trkpt>
      <trkpt lat="47.33583" lon="6.34789">
        <ele>271.217</ele>
        <time>2019-09-30T11:28:25Z</time>
      </trkpt>
      <trkpt lat="47.33587" lon="6.34783">
        <ele>271.577</ele>
        <time>2019-09-30T11:28:28Z</time>
      </trkpt>
      <trkpt lat="47.33592" lon="6.34776">
        <ele>271.953</ele>
        <time>2019-09-30T11:28:31Z</time>
      </trkpt>
      <trkpt lat="47.33597" lon="6.34767">
        <ele>272.122</ele>
        <time>2019-09-30T11:28:34Z</time>
      </trkpt>
      <trkpt lat="47.33603" lon="6.34759">
        <ele>272.395</ele>
        <time>2019-09-30T11:28:37Z</time>
      </trkpt>
      <trkpt lat="47.33608" lon="6.3475">
        <ele>272.538</ele>
        <time>2019-09-30T11:28:40Z</time>
      </trkpt>
      <trkpt lat="47.33615" lon="6.3474">
        <ele>272.499</ele>
        <time>2019-09-30T11:28:43Z</time>
      </trkpt>
      <trkpt lat="47.3362" lon="6.34731">
        <ele>272.971</ele>
        <time>2019-09-30T11:28:46Z</time>
      </trkpt>
      <trkpt lat="47.33628" lon="6.34722">
        <ele>272.616</ele>
        <time>2019-09-30T11:28:49Z</time>
      </trkpt>
      <trkpt lat="47.33642" lon="6.3471">
        <ele>272.086</ele>
        <time>2019-09-30T11:28:52Z</time>
      </trkpt>
      <trkpt lat="47.3366" lon="6.34693">
        <ele>271.385</ele>
        <time>2019-09-30T11:28:55Z</time>
      </trkpt>
      <trkpt lat="47.33685" lon="6.34674">
        <ele>269.769</ele>
        <time>2019-09-30T11:28:58Z</time>
      </trkpt>
      <trkpt lat="47.33708" lon="6.34656">
        <ele>268.257</ele>
        <time>2019-09-30T11:29:01Z</time>
      </trkpt>
      <trkpt lat="47.33728" lon="6.3464">
        <ele>267.656</ele>
        <time>2019-09-30T11:29:04Z</time>
      </trkpt>
      <trkpt lat="47.33741" lon="6.34632">
        <ele>267.501</ele>
        <time>2019-09-30T11:29:07Z</time>
      </trkpt>
      <trkpt lat="47.33751" lon="6.34625">
        <ele>267.409</ele>
        <time>2019-09-30T11:29:10Z</time>
      </trkpt>
      <trkpt lat="47.33761" lon="6.34616">
        <ele>266.65</ele>
        <time>2019-09-30T11:29:13Z</time>
      </trkpt>
      <trkpt lat="47.33778" lon="6.34588">
        <ele>266.53</ele>
        <time>2019-09-30T11:29:16Z</time>
      </trkpt>
      <trkpt lat="47.338" lon="6.34556">
        <ele>266.197</ele>
        <time>2019-09-30T11:29:19Z</time>
      </trkpt>
      <trkpt lat="47.33822" lon="6.34529">
        <ele>266.171</ele>
        <time>2019-09-30T11:29:22Z</time>
      </trkpt>
      <trkpt lat="47.33841" lon="6.34506">
        <ele>265.28</ele>
        <time>2019-09-30T11:29:25Z</time>
      </trkpt>
      <trkpt lat="47.33859" lon="6.34481">
        <ele>265.233</ele>
        <time>2019-09-30T11:29:28Z</time>
      </trkpt>
      <trkpt lat="47.33875" lon="6.34458">
        <ele>265.539</ele>
        <time>2019-09-30T11:29:31Z</time>
      </trkpt>
      <trkpt lat="47.33889" lon="6.34437">
        <ele>266.178</ele>
        <time>2019-09-30T11:29:34Z</time>
      </trkpt>
      <trkpt lat="47.33903" lon="6.34414">
        <ele>266.641</ele>
        <time>2019-09-30T11:29:37Z</time>
      </trkpt>
      <trkpt lat="47.33918" lon="6.34392">
        <ele>266.667</ele>
        <time>2019-09-30T11:29:40Z</time>
      </trkpt>
      <trkpt lat="47.33931" lon="6.34374">
        <ele>267.086</ele>
        <time>2019-09-30T11:29:43Z</time>
      </trkpt>
      <trkpt lat="47.33941" lon="6.34355">
        <ele>268.28</ele>
        <time>2019-09-30T11:29:46Z</time>
      </trkpt>
      <trkpt lat="47.3395" lon="6.34336">
        <ele>269.432</ele>
        <time>2019-09-30T11:29:49Z</time>
      </trkpt>
      <trkpt lat="47.33958" lon="6.34317">
        <ele>270.736</ele>
        <time>2019-09-30T11:29:52Z</time>
      </trkpt>
      <trkpt lat="47.33969" lon="6.343">
        <ele>271.443</ele>
        <time>2019-09-30T11:29:55Z</time>
      </trkpt>
      <trkpt lat="47.3398" lon="6.34282">
        <ele>271.918</ele>
        <time>2019-09-30T11:29:58Z</time>
      </trkpt>
      <trkpt lat="47.3399" lon="6.34266">
        <ele>271.85</ele>
        <time>2019-09-30T11:30:01Z</time>
      </trkpt>
      <trkpt lat="47.33999" lon="6.3425">
        <ele>272.296</ele>
        <time>2019-09-30T11:30:04Z</time>
      </trkpt>
      <trkpt lat="47.34008" lon="6.34233">
        <ele>272.886</ele>
        <time>2019-09-30T11:30:07Z</time>
      </trkpt>
      <trkpt lat="47.34017" lon="6.34213">
        <ele>272.941</ele>
        <time>2019-09-30T11:30:10Z</time>
      </trkpt>
      <trkpt lat="47.34025" lon="6.34193">
        <ele>272.592</ele>
        <time>2019-09-30T11:30:13Z</time>
      </trkpt>
      <trkpt lat="47.34032" lon="6.34176">
        <ele>272.646</ele>
        <time>2019-09-30T11:30:16Z</time>
      </trkpt>
      <trkpt lat="47.34037" lon="6.34161">
        <ele>273.34</ele>
        <time>2019-09-30T11:30:19Z</time>
      </trkpt>
      <trkpt lat="47.34042" lon="6.34142">
        <ele>273.532</ele>
        <time>2019-09-30T11:30:22Z</time>
      </trkpt>
      <trkpt lat="47.34049" lon="6.34122">
        <ele>273.249</ele>
        <time>2019-09-30T11:30:25Z</time>
      </trkpt>
      <trkpt lat="47.34056" lon="6.34102">
        <ele>273.444</ele>
        <time>2019-09-30T11:30:28Z</time>
      </trkpt>
      <trkpt lat="47.34064" lon="6.34081">
        <ele>272.489</ele>
        <time>2019-09-30T11:30:31Z</time>
      </trkpt>
      <trkpt lat="47.34071" lon="6.34059">
        <ele>271.561</ele>
        <time>2019-09-30T11:30:34Z</time>
      </trkpt>
      <trkpt lat="47.34078" lon="6.34038">
        <ele>270.42</ele>
        <time>2019-09-30T11:30:37Z</time>
      </trkpt>
      <trkpt lat="47.34085" lon="6.34016">
        <ele>269.321</ele>
        <time>2019-09-30T11:30:40Z</time>
      </trkpt>
      <trkpt lat="47.34091" lon="6.33996">
        <ele>269.21</ele>
        <time>2019-09-30T11:30:43Z</time>
      </trkpt>
      <trkpt lat="47.34095" lon="6.33976">
        <ele>270.176</ele>
        <time>2019-09-30T11:30:46Z</time>
      </trkpt>
      <trkpt lat="47.34098" lon="6.33956">
        <ele>271.276</ele>
        <time>2019-09-30T11:30:49Z</time>
      </trkpt>
      <trkpt lat="47.341" lon="6.33933">
        <ele>272.374</ele>
        <time>2019-09-30T11:30:52Z</time>
      </trkpt>
      <trkpt lat="47.34101" lon="6.33909">
        <ele>272.754</ele>
        <time>2019-09-30T11:30:55Z</time>
      </trkpt>
      <trkpt lat="47.34104" lon="6.33888">
        <ele>272.76</ele>
        <time>2019-09-30T11:30:58Z</time>
      </trkpt>
      <trkpt lat="47.34112" lon="6.33872">
        <ele>273.864</ele>
        <time>2019-09-30T11:31:01Z</time>
      </trkpt>
      <trkpt lat="47.34115" lon="6.3386">
        <ele>274.971</ele>
        <time>2019-09-30T11:31:04Z</time>
      </trkpt>
      <trkpt lat="47.34115" lon="6.33842">
        <ele>275.744</ele>
        <time>2019-09-30T11:31:07Z</time>
      </trkpt>
      <trkpt lat="47.34114" lon="6.33817">
        <ele>275.39</ele>
        <time>2019-09-30T11:31:10Z</time>
      </trkpt>
      <trkpt lat="47.34116" lon="6.33786">
        <ele>274.577</ele>
        <time>2019-09-30T11:31:13Z</time>
      </trkpt>
      <trkpt lat="47.34119" lon="6.33757">
        <ele>272.949</ele>
        <time>2019-09-30T11:31:16Z</time>
      </trkpt>
      <trkpt lat="47.34123" lon="6.33728">
        <ele>271.262</ele>
        <time>2019-09-30T11:31:19Z</time>
      </trkpt>
      <trkpt lat="47.34129" lon="6.33701">
        <ele>269.328</ele>
        <time>2019-09-30T11:31:22Z</time>
      </trkpt>
      <trkpt lat="47.34135" lon="6.33676">
        <ele>267.101</ele>
        <time>2019-09-30T11:31:25Z</time>
      </trkpt>
      <trkpt lat="47.34141" lon="6.3365">
        <ele>265.764</ele>
        <time>2019-09-30T11:31:28Z</time>
      </trkpt>
      <trkpt lat="47.34147" lon="6.33625">
        <ele>264.453</ele>
        <time>2019-09-30T11:31:31Z</time>
      </trkpt>
      <trkpt lat="47.34153" lon="6.33602">
        <ele>263.354</ele>
        <time>2019-09-30T11:31:34Z</time>
      </trkpt>
      <trkpt lat="47.34158" lon="6.33578">
        <ele>262.053</ele>
        <time>2019-09-30T11:31:37Z</time>
      </trkpt>
      <trkpt lat="47.34164" lon="6.33554">
        <ele>261.264</ele>
        <time>2019-09-30T11:31:40Z</time>
      </trkpt>
      <trkpt lat="47.34169" lon="6.33529">
        <ele>259.922</ele>
        <time>2019-09-30T11:31:43Z</time>
      </trkpt>
      <trkpt lat="47.34173" lon="6.33506">
        <ele>259.12</ele>
        <time>2019-09-30T11:31:46Z</time>
      </trkpt>
      <trkpt lat="47.34178" lon="6.33483">
        <ele>258.336</ele>
        <time>2019-09-30T11:31:49Z</time>
      </trkpt>
      <trkpt lat="47.34181" lon="6.3346">
        <ele>258.308</ele>
        <time>2019-09-30T11:31:52Z</time>
      </trkpt>
      <trkpt lat="47.34185" lon="6.33437">
        <ele>257.716</ele>
        <time>2019-09-30T11:31:55Z</time>
      </trkpt>
      <trkpt lat="47.34189" lon="6.33415">
        <ele>257.439</ele>
        <time>2019-09-30T11:31:58Z</time>
      </trkpt>
      <trkpt lat="47.34193" lon="6.33395">
        <ele>257.176</ele>
        <time>2019-09-30T11:32:01Z</time>
      </trkpt>
      <trkpt lat="47.34197" lon="6.33374">
        <ele>256.436</ele>
        <time>2019-09-30T11:32:04Z</time>
      </trkpt>
      <trkpt lat="47.34202" lon="6.33354">
        <ele>255.792</ele>
        <time>2019-09-30T11:32:07Z</time>
      </trkpt>
      <trkpt lat="47.34206" lon="6.33331">
        <ele>255.888</ele>
        <time>2019-09-30T11:32:10Z</time>
      </trkpt>
      <trkpt lat="47.3421" lon="6.33309">
        <ele>256.389</ele>
        <time>2019-09-30T11:32:13Z</time>
      </trkpt>
      <trkpt lat="47.34214" lon="6.33289">
        <ele>257.243</ele>
        <time>2019-09-30T11:32:16Z</time>
      </trkpt>
      <trkpt lat="47.3422" lon="6.33268">
        <ele>257.834</ele>
        <time>2019-09-30T11:32:19Z</time>
      </trkpt>
      <trkpt lat="47.34225" lon="6.33246">
        <ele>257.929</ele>
        <time>2019-09-30T11:32:22Z</time>
      </trkpt>
      <trkpt lat="47.3423" lon="6.33225">
        <ele>258.301</ele>
        <time>2019-09-30T11:32:25Z</time>
      </trkpt>
      <trkpt lat="47.34235" lon="6.33203">
        <ele>259.008</ele>
        <time>2019-09-30T11:32:28Z</time>
      </trkpt>
      <trkpt lat="47.34241" lon="6.33179">
        <ele>259.29</ele>
        <time>2019-09-30T11:32:31Z</time>
      </trkpt>
      <trkpt lat="47.34244" lon="6.33156">
        <ele>260.43</ele>
        <time>2019-09-30T11:32:34Z</time>
      </trkpt>
      <trkpt lat="47.34248" lon="6.33131">
        <ele>261.148</ele>
        <time>2019-09-30T11:32:37Z</time>
      </trkpt>
      <trkpt lat="47.34252" lon="6.33107">
        <ele>261.644</ele>
        <time>2019-09-30T11:32:40Z</time>
      </trkpt>
      <trkpt lat="47.34256" lon="6.33085">
        <ele>261.792</ele>
        <time>2019-09-30T11:32:43Z</time>
      </trkpt>
      <trkpt lat="47.34261" lon="6.33062">
        <ele>261.663</ele>
        <time>2019-09-30T11:32:46Z</time>
      </trkpt>
      <trkpt lat="47.34266" lon="6.3304">
        <ele>262.009</ele>
        <time>2019-09-30T11:32:49Z</time>
      </trkpt>
      <trkpt lat="47.3427" lon="6.33019">
        <ele>262.6</ele>
        <time>2019-09-30T11:32:52Z</time>
      </trkpt>
      <trkpt lat="47.34274" lon="6.32997">
        <ele>262.756</ele>
        <time>2019-09-30T11:32:55Z</time>
      </trkpt>
      <trkpt lat="47.34279" lon="6.32976">
        <ele>263.006</ele>
        <time>2019-09-30T11:32:58Z</time>
      </trkpt>
      <trkpt lat="47.34284" lon="6.32955">
        <ele>262.567</ele>
        <time>2019-09-30T11:33:01Z</time>
      </trkpt>
      <trkpt lat="47.34289" lon="6.32935">
        <ele>262.258</ele>
        <time>2019-09-30T11:33:04Z</time>
      </trkpt>
      <trkpt lat="47.34294" lon="6.32916">
        <ele>262.147</ele>
        <time>2019-09-30T11:33:07Z</time>
      </trkpt>
      <trkpt lat="47.34299" lon="6.32896">
        <ele>262.403</ele>
        <time>2019-09-30T11:33:10Z</time>
      </trkpt>
      <trkpt lat="47.34303" lon="6.32875">
        <ele>262.758</ele>
        <time>2019-09-30T11:33:13Z</time>
      </trkpt>
      <trkpt lat="47.34309" lon="6.32852">
        <ele>261.931</ele>
        <time>2019-09-30T11:33:16Z</time>
      </trkpt>
      <trkpt lat="47.34314" lon="6.32828">
        <ele>261.647</ele>
        <time>2019-09-30T11:33:19Z</time>
      </trkpt>
      <trkpt lat="47.34319" lon="6.32804">
        <ele>261.576</ele>
        <time>2019-09-30T11:33:22Z</time>
      </trkpt>
      <trkpt lat="47.34326" lon="6.3278">
        <ele>261.317</ele>
        <time>2019-09-30T11:33:25Z</time>
      </trkpt>
      <trkpt lat="47.34332" lon="6.32756">
        <ele>261.968</ele>
        <time>2019-09-30T11:33:28Z</time>
      </trkpt>
      <trkpt lat="47.34338" lon="6.32733">
        <ele>261.955</ele>
        <time>2019-09-30T11:33:31Z</time>
      </trkpt>
      <trkpt lat="47.34342" lon="6.32711">
        <ele>261.921</ele>
        <time>2019-09-30T11:33:34Z</time>
      </trkpt>
      <trkpt lat="47.34346" lon="6.32688">
        <ele>262.4</ele>
        <time>2019-09-30T11:33:37Z</time>
      </trkpt>
      <trkpt lat="47.3435" lon="6.32667">
        <ele>262.657</ele>
        <time>2019-09-30T11:33:40Z</time>
      </trkpt>
      <trkpt lat="47.34352" lon="6.32644">
        <ele>263.219</ele>
        <time>2019-09-30T11:33:43Z</time>
      </trkpt>
      <trkpt lat="47.34353" lon="6.32622">
        <ele>264.626</ele>
        <time>2019-09-30T11:33:46Z</time>
      </trkpt>
      <trkpt lat="47.34353" lon="6.32599">
        <ele>265.821</ele>
        <time>2019-09-30T11:33:49Z</time>
      </trkpt>
      <trkpt lat="47.34351" lon="6.32577">
        <ele>266.945</ele>
        <time>2019-09-30T11:33:52Z</time>
      </trkpt>
      <trkpt lat="47.3435" lon="6.32556">
        <ele>267.775</ele>
        <time>2019-09-30T11:33:55Z</time>
      </trkpt>
      <trkpt lat="47.34348" lon="6.32533">
        <ele>267.711</ele>
        <time>2019-09-30T11:33:58Z</time>
      </trkpt>
      <trkpt lat="47.34345" lon="6.3251">
        <ele>268.101</ele>
        <time>2019-09-30T11:34:01Z</time>
      </trkpt>
      <trkpt lat="47.34343" lon="6.32489">
        <ele>268.262</ele>
        <time>2019-09-30T11:34:04Z</time>
      </trkpt>
      <trkpt lat="47.3434" lon="6.32469">
        <ele>268.396</ele>
        <time>2019-09-30T11:34:07Z</time>
      </trkpt>
      <trkpt lat="47.34337" lon="6.32451">
        <ele>268.86</ele>
        <time>2019-09-30T11:34:10Z</time>
      </trkpt>
      <trkpt lat="47.34334" lon="6.32429">
        <ele>269.127</ele>
        <time>2019-09-30T11:34:13Z</time>
      </trkpt>
      <trkpt lat="47.34331" lon="6.32405">
        <ele>269.138</ele>
        <time>2019-09-30T11:34:16Z</time>
      </trkpt>
      <trkpt lat="47.34327" lon="6.32381">
        <ele>269.77</ele>
        <time>2019-09-30T11:34:19Z</time>
      </trkpt>
      <trkpt lat="47.34323" lon="6.32359">
        <ele>270.688</ele>
        <time>2019-09-30T11:34:22Z</time>
      </trkpt>
      <trkpt lat="47.34321" lon="6.32337">
        <ele>271.04</ele>
        <time>2019-09-30T11:34:25Z</time>
      </trkpt>
      <trkpt lat="47.34316" lon="6.32314">
        <ele>271.226</ele>
        <time>2019-09-30T11:34:28Z</time>
      </trkpt>
      <trkpt lat="47.34314" lon="6.3229">
        <ele>270.702</ele>
        <time>2019-09-30T11:34:31Z</time>
      </trkpt>
      <trkpt lat="47.34311" lon="6.32265">
        <ele>270.152</ele>
        <time>2019-09-30T11:34:34Z</time>
      </trkpt>
      <trkpt lat="47.34307" lon="6.32242">
        <ele>269.484</ele>
        <time>2019-09-30T11:34:37Z</time>
      </trkpt>
      <trkpt lat="47.34303" lon="6.3222">
        <ele>269.497</ele>
        <time>2019-09-30T11:34:40Z</time>
      </trkpt>
      <trkpt lat="47.34297" lon="6.32198">
        <ele>269.237</ele>
        <time>2019-09-30T11:34:43Z</time>
      </trkpt>
      <trkpt lat="47.34291" lon="6.32176">
        <ele>269.112</ele>
        <time>2019-09-30T11:34:46Z</time>
      </trkpt>
      <trkpt lat="47.34285" lon="6.32154">
        <ele>269.379</ele>
        <time>2019-09-30T11:34:49Z</time>
      </trkpt>
      <trkpt lat="47.34277" lon="6.32132">
        <ele>270.042</ele>
        <time>2019-09-30T11:34:52Z</time>
      </trkpt>
      <trkpt lat="47.34271" lon="6.32112">
        <ele>271.023</ele>
        <time>2019-09-30T11:34:55Z</time>
      </trkpt>
      <trkpt lat="47.34263" lon="6.32093">
        <ele>271.995</ele>
        <time>2019-09-30T11:34:58Z</time>
      </trkpt>
      <trkpt lat="47.34253" lon="6.32074">
        <ele>272.65</ele>
        <time>2019-09-30T11:35:01Z</time>
      </trkpt>
      <trkpt lat="47.34244" lon="6.32052">
        <ele>272.484</ele>
        <time>2019-09-30T11:35:04Z</time>
      </trkpt>
      <trkpt lat="47.34235" lon="6.32033">
        <ele>272.169</ele>
        <time>2019-09-30T11:35:07Z</time>
      </trkpt>
      <trkpt lat="47.34226" lon="6.32015">
        <ele>272.517</ele>
        <time>2019-09-30T11:35:10Z</time>
      </trkpt>
      <trkpt lat="47.34216" lon="6.31996">
        <ele>272.657</ele>
        <time>2019-09-30T11:35:13Z</time>
      </trkpt>
      <trkpt lat="47.34204" lon="6.31975">
        <ele>271.529</ele>
        <time>2019-09-30T11:35:16Z</time>
      </trkpt>
      <trkpt lat="47.34193" lon="6.31955">
        <ele>270.802</ele>
        <time>2019-09-30T11:35:19Z</time>
      </trkpt>
      <trkpt lat="47.34182" lon="6.31937">
        <ele>270.401</ele>
        <time>2019-09-30T11:35:22Z</time>
      </trkpt>
      <trkpt lat="47.34172" lon="6.31918">
        <ele>269.635</ele>
        <time>2019-09-30T11:35:25Z</time>
      </trkpt>
      <trkpt lat="47.34162" lon="6.31899">
        <ele>268.913</ele>
        <time>2019-09-30T11:35:28Z</time>
      </trkpt>
      <trkpt lat="47.34152" lon="6.3188">
        <ele>268.852</ele>
        <time>2019-09-30T11:35:31Z</time>
      </trkpt>
      <trkpt lat="47.34144" lon="6.31863">
        <ele>268.381</ele>
        <time>2019-09-30T11:35:34Z</time>
      </trkpt>
      <trkpt lat="47.34135" lon="6.31843">
        <ele>267.729</ele>
        <time>2019-09-30T11:35:37Z</time>
      </trkpt>
      <trkpt lat="47.34123" lon="6.31823">
        <ele>266.297</ele>
        <time>2019-09-30T11:35:40Z</time>
      </trkpt>
      <trkpt lat="47.34111" lon="6.31803">
        <ele>265.407</ele>
        <time>2019-09-30T11:35:43Z</time>
      </trkpt>
      <trkpt lat="47.34099" lon="6.31785">
        <ele>265.354</ele>
        <time>2019-09-30T11:35:46Z</time>
      </trkpt>
      <trkpt lat="47.34087" lon="6.31768">
        <ele>264.734</ele>
        <time>2019-09-30T11:35:49Z</time>
      </trkpt>
      <trkpt lat="47.34075" lon="6.31751">
        <ele>264.467</ele>
        <time>2019-09-30T11:35:52Z</time>
      </trkpt>
      <trkpt lat="47.34063" lon="6.31735">
        <ele>264.414</ele>
        <time>2019-09-30T11:35:55Z</time>
      </trkpt>
      <trkpt lat="47.34052" lon="6.31717">
        <ele>264.219</ele>
        <time>2019-09-30T11:35:58Z</time>
      </trkpt>
      <trkpt lat="47.3404" lon="6.31701">
        <ele>264.348</ele>
        <time>2019-09-30T11:36:01Z</time>
      </trkpt>
      <trkpt lat="47.34027" lon="6.31684">
        <ele>264.1</ele>
        <time>2019-09-30T11:36:04Z</time>
      </trkpt>
      <trkpt lat="47.34014" lon="6.31669">
        <ele>263.878</ele>
        <time>2019-09-30T11:36:07Z</time>
      </trkpt>
      <trkpt lat="47.34" lon="6.31654">
        <ele>262.803</ele>
        <time>2019-09-30T11:36:10Z</time>
      </trkpt>
      <trkpt lat="47.33986" lon="6.3164">
        <ele>262.33</ele>
        <time>2019-09-30T11:36:13Z</time>
      </trkpt>
      <trkpt lat="47.33971" lon="6.31627">
        <ele>262.659</ele>
        <time>2019-09-30T11:36:16Z</time>
      </trkpt>
      <trkpt lat="47.33956" lon="6.31614">
        <ele>262.655</ele>
        <time>2019-09-30T11:36:19Z</time>
      </trkpt>
      <trkpt lat="47.33942" lon="6.31602">
        <ele>262.822</ele>
        <time>2019-09-30T11:36:22Z</time>
      </trkpt>
      <trkpt lat="47.33927" lon="6.31591">
        <ele>262.79</ele>
        <time>2019-09-30T11:36:25Z</time>
      </trkpt>
      <trkpt lat="47.33912" lon="6.3158">
        <ele>263.071</ele>
        <time>2019-09-30T11:36:28Z</time>
      </trkpt>
      <trkpt lat="47.33898" lon="6.3157">
        <ele>263.692</ele>
        <time>2019-09-30T11:36:31Z</time>
      </trkpt>
      <trkpt lat="47.33884" lon="6.3156">
        <ele>264.622</ele>
        <time>2019-09-30T11:36:34Z</time>
      </trkpt>
      <trkpt lat="47.33871" lon="6.3155">
        <ele>264.523</ele>
        <time>2019-09-30T11:36:37Z</time>
      </trkpt>
      <trkpt lat="47.33857" lon="6.31539">
        <ele>264.006</ele>
        <time>2019-09-30T11:36:40Z</time>
      </trkpt>
      <trkpt lat="47.33842" lon="6.31531">
        <ele>264.137</ele>
        <time>2019-09-30T11:36:43Z</time>
      </trkpt>
      <trkpt lat="47.33827" lon="6.31524">
        <ele>263.582</ele>
        <time>2019-09-30T11:36:46Z</time>
      </trkpt>
      <trkpt lat="47.33813" lon="6.31518">
        <ele>262.657</ele>
        <time>2019-09-30T11:36:49Z</time>
      </trkpt>
      <trkpt lat="47.33798" lon="6.31511">
        <ele>262.713</ele>
        <time>2019-09-30T11:36:52Z</time>
      </trkpt>
      <trkpt lat="47.33783" lon="6.31504">
        <ele>262.688</ele>
        <time>2019-09-30T11:36:55Z</time>
      </trkpt>
      <trkpt lat="47.33768" lon="6.31497">
        <ele>262.736</ele>
        <time>2019-09-30T11:36:58Z</time>
      </trkpt>
      <trkpt lat="47.33754" lon="6.31489">
        <ele>262.164</ele>
        <time>2019-09-30T11:37:01Z</time>
      </trkpt>
      <trkpt lat="47.33739" lon="6.31483">
        <ele>261.656</ele>
        <time>2019-09-30T11:37:04Z</time>
      </trkpt>
      <trkpt lat="47.33723" lon="6.31478">
        <ele>261.605</ele>
        <time>2019-09-30T11:37:07Z</time>
      </trkpt>
      <trkpt lat="47.33708" lon="6.31471">
        <ele>261.836</ele>
        <time>2019-09-30T11:37:10Z</time>
      </trkpt>
      <trkpt lat="47.33692" lon="6.31464">
        <ele>262.306</ele>
        <time>2019-09-30T11:37:13Z</time>
      </trkpt>
      <trkpt lat="47.33677" lon="6.31457">
        <ele>262.444</ele>
        <time>2019-09-30T11:37:16Z</time>
      </trkpt>
      <trkpt lat="47.33661" lon="6.31452">
        <ele>262.869</ele>
        <time>2019-09-30T11:37:19Z</time>
      </trkpt>
      <trkpt lat="47.33646" lon="6.31446">
        <ele>262.807</ele>
        <time>2019-09-30T11:37:22Z</time>
      </trkpt>
      <trkpt lat="47.33632" lon="6.31442">
        <ele>262.898</ele>
        <time>2019-09-30T11:37:25Z</time>
      </trkpt>
      <trkpt lat="47.33616" lon="6.31438">
        <ele>263.106</ele>
        <time>2019-09-30T11:37:28Z</time>
      </trkpt>
      <trkpt lat="47.33601" lon="6.31431">
        <ele>262.997</ele>
        <time>2019-09-30T11:37:31Z</time>
      </trkpt>
      <trkpt lat="47.33586" lon="6.31425">
        <ele>262.397</ele>
        <time>2019-09-30T11:37:34Z</time>
      </trkpt>
      <trkpt lat="47.33569" lon="6.31419">
        <ele>262.063</ele>
        <time>2019-09-30T11:37:37Z</time>
      </trkpt>
      <trkpt lat="47.33555" lon="6.31411">
        <ele>261.012</ele>
        <time>2019-09-30T11:37:40Z</time>
      </trkpt>
      <trkpt lat="47.3354" lon="6.31404">
        <ele>260.522</ele>
        <time>2019-09-30T11:37:43Z</time>
      </trkpt>
      <trkpt lat="47.33526" lon="6.31399">
        <ele>259.94</ele>
        <time>2019-09-30T11:37:46Z</time>
      </trkpt>
      <trkpt lat="47.33511" lon="6.31395">
        <ele>260.209</ele>
        <time>2019-09-30T11:37:49Z</time>
      </trkpt>
      <trkpt lat="47.33497" lon="6.3139">
        <ele>259.858</ele>
        <time>2019-09-30T11:37:52Z</time>
      </trkpt>
      <trkpt lat="47.33482" lon="6.31387">
        <ele>259.959</ele>
        <time>2019-09-30T11:37:55Z</time>
      </trkpt>
      <trkpt lat="47.33467" lon="6.31383">
        <ele>260.26</ele>
        <time>2019-09-30T11:37:58Z</time>
      </trkpt>
      <trkpt lat="47.33453" lon="6.31378">
        <ele>260.658</ele>
        <time>2019-09-30T11:38:01Z</time>
      </trkpt>
      <trkpt lat="47.33438" lon="6.31374">
        <ele>260.746</ele>
        <time>2019-09-30T11:38:04Z</time>
      </trkpt>
      <trkpt lat="47.33423" lon="6.31369">
        <ele>260.385</ele>
        <time>2019-09-30T11:38:07Z</time>
      </trkpt>
      <trkpt lat="47.33407" lon="6.31364">
        <ele>260.137</ele>
        <time>2019-09-30T11:38:10Z</time>
      </trkpt>
      <trkpt lat="47.33391" lon="6.31359">
        <ele>260.12</ele>
        <time>2019-09-30T11:38:13Z</time>
      </trkpt>
      <trkpt lat="47.33377" lon="6.31352">
        <ele>259.916</ele>
        <time>2019-09-30T11:38:16Z</time>
      </trkpt>
      <trkpt lat="47.33364" lon="6.31345">
        <ele>260.46</ele>
        <time>2019-09-30T11:38:19Z</time>
      </trkpt>
      <trkpt lat="47.3335" lon="6.31339">
        <ele>260.524</ele>
        <time>2019-09-30T11:38:22Z</time>
      </trkpt>
      <trkpt lat="47.33334" lon="6.31332">
        <ele>260.539</ele>
        <time>2019-09-30T11:38:25Z</time>
      </trkpt>
      <trkpt lat="47.33318" lon="6.31327">
        <ele>260.976</ele>
        <time>2019-09-30T11:38:28Z</time>
      </trkpt>
      <trkpt lat="47.33301" lon="6.31319">
        <ele>261.049</ele>
        <time>2019-09-30T11:38:31Z</time>
      </trkpt>
      <trkpt lat="47.33284" lon="6.31312">
        <ele>260.692</ele>
        <time>2019-09-30T11:38:34Z</time>
      </trkpt>
      <trkpt lat="47.33268" lon="6.31306">
        <ele>261.186</ele>
        <time>2019-09-30T11:38:37Z</time>
      </trkpt>
      <trkpt lat="47.33252" lon="6.313">
        <ele>261.369</ele>
        <time>2019-09-30T11:38:40Z</time>
      </trkpt>
      <trkpt lat="47.33236" lon="6.31295">
        <ele>261.239</ele>
        <time>2019-09-30T11:38:43Z</time>
      </trkpt>
      <trkpt lat="47.33222" lon="6.31288">
        <ele>260.944</ele>
        <time>2019-09-30T11:38:46Z</time>
      </trkpt>
      <trkpt lat="47.33207" lon="6.31282">
        <ele>260.853</ele>
        <time>2019-09-30T11:38:49Z</time>
      </trkpt>
      <trkpt lat="47.33193" lon="6.31271">
        <ele>259.94</ele>
        <time>2019-09-30T11:38:52Z</time>
      </trkpt>
      <trkpt lat="47.33178" lon="6.31261">
        <ele>259.682</ele>
        <time>2019-09-30T11:38:55Z</time>
      </trkpt>
      <trkpt lat="47.33163" lon="6.31252">
        <ele>260.128</ele>
        <time>2019-09-30T11:38:58Z</time>
      </trkpt>
      <trkpt lat="47.3315" lon="6.31242">
        <ele>260.475</ele>
        <time>2019-09-30T11:39:01Z</time>
      </trkpt>
      <trkpt lat="47.33137" lon="6.31231">
        <ele>260.803</ele>
        <time>2019-09-30T11:39:04Z</time>
      </trkpt>
      <trkpt lat="47.33123" lon="6.31219">
        <ele>260.896</ele>
        <time>2019-09-30T11:39:07Z</time>
      </trkpt>
      <trkpt lat="47.33112" lon="6.31205">
        <ele>260.569</ele>
        <time>2019-09-30T11:39:10Z</time>
      </trkpt>
      <trkpt lat="47.33099" lon="6.3119">
        <ele>260.456</ele>
        <time>2019-09-30T11:39:13Z</time>
      </trkpt>
      <trkpt lat="47.33086" lon="6.31175">
        <ele>260.71</ele>
        <time>2019-09-30T11:39:16Z</time>
      </trkpt>
      <trkpt lat="47.33074" lon="6.31159">
        <ele>261.224</ele>
        <time>2019-09-30T11:39:19Z</time>
      </trkpt>
      <trkpt lat="47.33063" lon="6.3114">
        <ele>261.948</ele>
        <time>2019-09-30T11:39:22Z</time>
      </trkpt>
      <trkpt lat="47.33053" lon="6.31122">
        <ele>262.53</ele>
        <time>2019-09-30T11:39:25Z</time>
      </trkpt>
      <trkpt lat="47.33045" lon="6.31104">
        <ele>262.718</ele>
        <time>2019-09-30T11:39:28Z</time>
      </trkpt>
      <trkpt lat="47.33038" lon="6.31084">
        <ele>263.011</ele>
        <time>2019-09-30T11:39:31Z</time>
      </trkpt>
      <trkpt lat="47.33032" lon="6.31065">
        <ele>263.595</ele>
        <time>2019-09-30T11:39:34Z</time>
      </trkpt>
      <trkpt lat="47.33026" lon="6.31045">
        <ele>263.792</ele>
        <time>2019-09-30T11:39:37Z</time>
      </trkpt>
      <trkpt lat="47.3302" lon="6.31026">
        <ele>263.948</ele>
        <time>2019-09-30T11:39:40Z</time>
      </trkpt>
      <trkpt lat="47.33013" lon="6.31004">
        <ele>264.327</ele>
        <time>2019-09-30T11:39:43Z</time>
      </trkpt>
      <trkpt lat="47.33006" lon="6.30984">
        <ele>265.254</ele>
        <time>2019-09-30T11:39:46Z</time>
      </trkpt>
      <trkpt lat="47.33" lon="6.30964">
        <ele>266.402</ele>
        <time>2019-09-30T11:39:49Z</time>
      </trkpt>
      <trkpt lat="47.32995" lon="6.30943">
        <ele>267.367</ele>
        <time>2019-09-30T11:39:52Z</time>
      </trkpt>
      <trkpt lat="47.32992" lon="6.30922">
        <ele>268.026</ele>
        <time>2019-09-30T11:39:55Z</time>
      </trkpt>
      <trkpt lat="47.3299" lon="6.309">
        <ele>268.368</ele>
        <time>2019-09-30T11:39:58Z</time>
      </trkpt>
      <trkpt lat="47.32989" lon="6.30877">
        <ele>268.416</ele>
        <time>2019-09-30T11:40:01Z</time>
      </trkpt>
      <trkpt lat="47.32987" lon="6.30854">
        <ele>267.888</ele>
        <time>2019-09-30T11:40:04Z</time>
      </trkpt>
      <trkpt lat="47.32986" lon="6.30831">
        <ele>267.83</ele>
        <time>2019-09-30T11:40:07Z</time>
      </trkpt>
      <trkpt lat="47.32986" lon="6.30808">
        <ele>267.343</ele>
        <time>2019-09-30T11:40:10Z</time>
      </trkpt>
      <trkpt lat="47.32984" lon="6.30786">
        <ele>266.687</ele>
        <time>2019-09-30T11:40:13Z</time>
      </trkpt>
      <trkpt lat="47.32982" lon="6.30764">
        <ele>266.28</ele>
        <time>2019-09-30T11:40:16Z</time>
      </trkpt>
      <trkpt lat="47.32981" lon="6.30742">
        <ele>266.266</ele>
        <time>2019-09-30T11:40:19Z</time>
      </trkpt>
      <trkpt lat="47.3298" lon="6.30721">
        <ele>266.674</ele>
        <time>2019-09-30T11:40:22Z</time>
      </trkpt>
      <trkpt lat="47.32979" lon="6.307">
        <ele>267.1</ele>
        <time>2019-09-30T11:40:25Z</time>
      </trkpt>
      <trkpt lat="47.32978" lon="6.30678">
        <ele>267.863</ele>
        <time>2019-09-30T11:40:28Z</time>
      </trkpt>
      <trkpt lat="47.32978" lon="6.30656">
        <ele>267.806</ele>
        <time>2019-09-30T11:40:31Z</time>
      </trkpt>
      <trkpt lat="47.32978" lon="6.30633">
        <ele>267.314</ele>
        <time>2019-09-30T11:40:34Z</time>
      </trkpt>
      <trkpt lat="47.32978" lon="6.30611">
        <ele>266.983</ele>
        <time>2019-09-30T11:40:37Z</time>
      </trkpt>
      <trkpt lat="47.32978" lon="6.30589">
        <ele>265.107</ele>
        <time>2019-09-30T11:40:40Z</time>
      </trkpt>
      <trkpt lat="47.32977" lon="6.30566">
        <ele>264.179</ele>
        <time>2019-09-30T11:40:43Z</time>
      </trkpt>
      <trkpt lat="47.32976" lon="6.30542">
        <ele>263.993</ele>
        <time>2019-09-30T11:40:46Z</time>
      </trkpt>
      <trkpt lat="47.32975" lon="6.30519">
        <ele>263.104</ele>
        <time>2019-09-30T11:40:49Z</time>
      </trkpt>
      <trkpt lat="47.32973" lon="6.30495">
        <ele>262.382</ele>
        <time>2019-09-30T11:40:52Z</time>
      </trkpt>
      <trkpt lat="47.32972" lon="6.30472">
        <ele>261.242</ele>
        <time>2019-09-30T11:40:55Z</time>
      </trkpt>
      <trkpt lat="47.32971" lon="6.30448">
        <ele>260.512</ele>
        <time>2019-09-30T11:40:58Z</time>
      </trkpt>
      <trkpt lat="47.3297" lon="6.30425">
        <ele>260.136</ele>
        <time>2019-09-30T11:41:01Z</time>
      </trkpt>
      <trkpt lat="47.32968" lon="6.30403">
        <ele>260.041</ele>
        <time>2019-09-30T11:41:04Z</time>
      </trkpt>
      <trkpt lat="47.32968" lon="6.3038">
        <ele>259.611</ele>
        <time>2019-09-30T11:41:07Z</time>
      </trkpt>
      <trkpt lat="47.32972" lon="6.30349">
        <ele>258.125</ele>
        <time>2019-09-30T11:41:10Z</time>
      </trkpt>
      <trkpt lat="47.32975" lon="6.30315">
        <ele>256.94</ele>
        <time>2019-09-30T11:41:13Z</time>
      </trkpt>
      <trkpt lat="47.32979" lon="6.30285">
        <ele>256.802</ele>
        <time>2019-09-30T11:41:16Z</time>
      </trkpt>
      <trkpt lat="47.32984" lon="6.30258">
        <ele>256.458</ele>
        <time>2019-09-30T11:41:19Z</time>
      </trkpt>
      <trkpt lat="47.32988" lon="6.30233">
        <ele>255.96</ele>
        <time>2019-09-30T11:41:22Z</time>
      </trkpt>
      <trkpt lat="47.32992" lon="6.3021">
        <ele>256.352</ele>
        <time>2019-09-30T11:41:25Z</time>
      </trkpt>
      <trkpt lat="47.32996" lon="6.3019">
        <ele>256.196</ele>
        <time>2019-09-30T11:41:28Z</time>
      </trkpt>
      <trkpt lat="47.32999" lon="6.3017">
        <ele>255.067</ele>
        <time>2019-09-30T11:41:31Z</time>
      </trkpt>
      <trkpt lat="47.33002" lon="6.30151">
        <ele>254.204</ele>
        <time>2019-09-30T11:41:34Z</time>
      </trkpt>
      <trkpt lat="47.33006" lon="6.30131">
        <ele>253.637</ele>
        <time>2019-09-30T11:41:37Z</time>
      </trkpt>
      <trkpt lat="47.33008" lon="6.30112">
        <ele>253.463</ele>
        <time>2019-09-30T11:41:40Z</time>
      </trkpt>
      <trkpt lat="47.33011" lon="6.30093">
        <ele>253.514</ele>
        <time>2019-09-30T11:41:43Z</time>
      </trkpt>
      <trkpt lat="47.33012" lon="6.30074">
        <ele>253.91</ele>
        <time>2019-09-30T11:41:46Z</time>
      </trkpt>
      <trkpt lat="47.33013" lon="6.30056">
        <ele>253.986</ele>
        <time>2019-09-30T11:41:49Z</time>
      </trkpt>
      <trkpt lat="47.33014" lon="6.30036">
        <ele>254.099</ele>
        <time>2019-09-30T11:41:52Z</time>
      </trkpt>
      <trkpt lat="47.33015" lon="6.30016">
        <ele>253.587</ele>
        <time>2019-09-30T11:41:55Z</time>
      </trkpt>
      <trkpt lat="47.33016" lon="6.29994">
        <ele>253.51</ele>
        <time>2019-09-30T11:41:58Z</time>
      </trkpt>
      <trkpt lat="47.33017" lon="6.29972">
        <ele>253.586</ele>
        <time>2019-09-30T11:42:01Z</time>
      </trkpt>
      <trkpt lat="47.33017" lon="6.2995">
        <ele>253.567</ele>
        <time>2019-09-30T11:42:04Z</time>
      </trkpt>
      <trkpt lat="47.33018" lon="6.29929">
        <ele>253.407</ele>
        <time>2019-09-30T11:42:07Z</time>
      </trkpt>
      <trkpt lat="47.33019" lon="6.29909">
        <ele>253.404</ele>
        <time>2019-09-30T11:42:10Z</time>
      </trkpt>
      <trkpt lat="47.3302" lon="6.29888">
        <ele>253.727</ele>
        <time>2019-09-30T11:42:13Z</time>
      </trkpt>
      <trkpt lat="47.33021" lon="6.29868">
        <ele>254.73</ele>
        <time>2019-09-30T11:42:16Z</time>
      </trkpt>
      <trkpt lat="47.33021" lon="6.29848">
        <ele>255.276</ele>
        <time>2019-09-30T11:42:19Z</time>
      </trkpt>
      <trkpt lat="47.33022" lon="6.29828">
        <ele>255.969</ele>
        <time>2019-09-30T11:42:22Z</time>
      </trkpt>
      <trkpt lat="47.33023" lon="6.29809">
        <ele>256.159</ele>
        <time>2019-09-30T11:42:25Z</time>
      </trkpt>
      <trkpt lat="47.33023" lon="6.29789">
        <ele>256.409</ele>
        <time>2019-09-30T11:42:28Z</time>
      </trkpt>
      <trkpt lat="47.33022" lon="6.29768">
        <ele>256.735</ele>
        <time>2019-09-30T11:42:31Z</time>
      </trkpt>
      <trkpt lat="47.33022" lon="6.29746">
        <ele>257.129</ele>
        <time>2019-09-30T11:42:34Z</time>
      </trkpt>
      <trkpt lat="47.33021" lon="6.29724">
        <ele>257.087</ele>
        <time>2019-09-30T11:42:37Z</time>
      </trkpt>
      <trkpt lat="47.3302" lon="6.29701">
        <ele>257.034</ele>
        <time>2019-09-30T11:42:40Z</time>
      </trkpt>
      <trkpt lat="47.3302" lon="6.29678">
        <ele>257.316</ele>
        <time>2019-09-30T11:42:43Z</time>
      </trkpt>
      <trkpt lat="47.33018" lon="6.29655">
        <ele>258.084</ele>
        <time>2019-09-30T11:42:46Z</time>
      </trkpt>
      <trkpt lat="47.33017" lon="6.29633">
        <ele>258.966</ele>
        <time>2019-09-30T11:42:49Z</time>
      </trkpt>
      <trkpt lat="47.33015" lon="6.29612">
        <ele>259.602</ele>
        <time>2019-09-30T11:42:52Z</time>
      </trkpt>
      <trkpt lat="47.33012" lon="6.29591">
        <ele>260.337</ele>
        <time>2019-09-30T11:42:55Z</time>
      </trkpt>
      <trkpt lat="47.33009" lon="6.29569">
        <ele>261.236</ele>
        <time>2019-09-30T11:42:58Z</time>
      </trkpt>
      <trkpt lat="47.33006" lon="6.29547">
        <ele>261.485</ele>
        <time>2019-09-30T11:43:01Z</time>
      </trkpt>
      <trkpt lat="47.33003" lon="6.29526">
        <ele>261.772</ele>
        <time>2019-09-30T11:43:04Z</time>
      </trkpt>
      <trkpt lat="47.32999" lon="6.29506">
        <ele>262.24</ele>
        <time>2019-09-30T11:43:07Z</time>
      </trkpt>
      <trkpt lat="47.32995" lon="6.29488">
        <ele>263.387</ele>
        <time>2019-09-30T11:43:10Z</time>
      </trkpt>
      <trkpt lat="47.32993" lon="6.29473">
        <ele>264.209</ele>
        <time>2019-09-30T11:43:13Z</time>
      </trkpt>
      <trkpt lat="47.32992" lon="6.29461">
        <ele>264.962</ele>
        <time>2019-09-30T11:43:16Z</time>
      </trkpt>
      <trkpt lat="47.3299" lon="6.29447">
        <ele>265.633</ele>
        <time>2019-09-30T11:43:19Z</time>
      </trkpt>
      <trkpt lat="47.32987" lon="6.29429">
        <ele>266.316</ele>
        <time>2019-09-30T11:43:22Z</time>
      </trkpt>
      <trkpt lat="47.32982" lon="6.2941">
        <ele>267.125</ele>
        <time>2019-09-30T11:43:25Z</time>
      </trkpt>
      <trkpt lat="47.32975" lon="6.29392">
        <ele>268.066</ele>
        <time>2019-09-30T11:43:28Z</time>
      </trkpt>
      <trkpt lat="47.32969" lon="6.29375">
        <ele>269.099</ele>
        <time>2019-09-30T11:43:31Z</time>
      </trkpt>
      <trkpt lat="47.32962" lon="6.29357">
        <ele>269.751</ele>
        <time>2019-09-30T11:43:34Z</time>
      </trkpt>
      <trkpt lat="47.32955" lon="6.29337">
        <ele>269.482</ele>
        <time>2019-09-30T11:43:37Z</time>
      </trkpt>
      <trkpt lat="47.32947" lon="6.29318">
        <ele>270.432</ele>
        <time>2019-09-30T11:43:40Z</time>
      </trkpt>
      <trkpt lat="47.32938" lon="6.293">
        <ele>270.818</ele>
        <time>2019-09-30T11:43:43Z</time>
      </trkpt>
      <trkpt lat="47.32928" lon="6.2928">
        <ele>270.215</ele>
        <time>2019-09-30T11:43:46Z</time>
      </trkpt>
      <trkpt lat="47.32919" lon="6.29261">
        <ele>269.6</ele>
        <time>2019-09-30T11:43:49Z</time>
      </trkpt>
      <trkpt lat="47.32909" lon="6.29244">
        <ele>269.686</ele>
        <time>2019-09-30T11:43:52Z</time>
      </trkpt>
      <trkpt lat="47.329" lon="6.29227">
        <ele>269.109</ele>
        <time>2019-09-30T11:43:55Z</time>
      </trkpt>
      <trkpt lat="47.32891" lon="6.29208">
        <ele>268.377</ele>
        <time>2019-09-30T11:43:58Z</time>
      </trkpt>
      <trkpt lat="47.32882" lon="6.2919">
        <ele>267.714</ele>
        <time>2019-09-30T11:44:01Z</time>
      </trkpt>
      <trkpt lat="47.32874" lon="6.29171">
        <ele>267.467</ele>
        <time>2019-09-30T11:44:04Z</time>
      </trkpt>
      <trkpt lat="47.32864" lon="6.29152">
        <ele>266.889</ele>
        <time>2019-09-30T11:44:07Z</time>
      </trkpt>
      <trkpt lat="47.32855" lon="6.29133">
        <ele>266.734</ele>
        <time>2019-09-30T11:44:10Z</time>
      </trkpt>
      <trkpt lat="47.32848" lon="6.2911">
        <ele>266.916</ele>
        <time>2019-09-30T11:44:13Z</time>
      </trkpt>
      <trkpt lat="47.32838" lon="6.2909">
        <ele>266.536</ele>
        <time>2019-09-30T11:44:16Z</time>
      </trkpt>
      <trkpt lat="47.32829" lon="6.29073">
        <ele>266.274</ele>
        <time>2019-09-30T11:44:19Z</time>
      </trkpt>
      <trkpt lat="47.32819" lon="6.29056">
        <ele>265.878</ele>
        <time>2019-09-30T11:44:22Z</time>
      </trkpt>
      <trkpt lat="47.32809" lon="6.29038">
        <ele>265.899</ele>
        <time>2019-09-30T11:44:25Z</time>
      </trkpt>
      <trkpt lat="47.328" lon="6.29019">
        <ele>265.78</ele>
        <time>2019-09-30T11:44:28Z</time>
      </trkpt>
      <trkpt lat="47.3279" lon="6.28999">
        <ele>265.75</ele>
        <time>2019-09-30T11:44:31Z</time>
      </trkpt>
      <trkpt lat="47.3278" lon="6.28979">
        <ele>264.794</ele>
        <time>2019-09-30T11:44:34Z</time>
      </trkpt>
      <trkpt lat="47.3277" lon="6.2896">
        <ele>263.566</ele>
        <time>2019-09-30T11:44:37Z</time>
      </trkpt>
      <trkpt lat="47.32759" lon="6.28943">
        <ele>262.932</ele>
        <time>2019-09-30T11:44:40Z</time>
      </trkpt>
      <trkpt lat="47.32749" lon="6.28928">
        <ele>262.588</ele>
        <time>2019-09-30T11:44:43Z</time>
      </trkpt>
      <trkpt lat="47.32738" lon="6.2891">
        <ele>262.632</ele>
        <time>2019-09-30T11:44:46Z</time>
      </trkpt>
      <trkpt lat="47.32726" lon="6.28894">
        <ele>262.776</ele>
        <time>2019-09-30T11:44:49Z</time>
      </trkpt>
      <trkpt lat="47.32715" lon="6.28879">
        <ele>262.789</ele>
        <time>2019-09-30T11:44:52Z</time>
      </trkpt>
      <trkpt lat="47.32705" lon="6.28862">
        <ele>262.786</ele>
        <time>2019-09-30T11:44:55Z</time>
      </trkpt>
      <trkpt lat="47.32694" lon="6.28846">
        <ele>262.391</ele>
        <time>2019-09-30T11:44:58Z</time>
      </trkpt>
      <trkpt lat="47.32684" lon="6.2883">
        <ele>262.073</ele>
        <time>2019-09-30T11:45:01Z</time>
      </trkpt>
      <trkpt lat="47.32673" lon="6.28815">
        <ele>262.154</ele>
        <time>2019-09-30T11:45:04Z</time>
      </trkpt>
      <trkpt lat="47.32661" lon="6.28799">
        <ele>262.459</ele>
        <time>2019-09-30T11:45:07Z</time>
      </trkpt>
      <trkpt lat="47.32649" lon="6.28786">
        <ele>262.642</ele>
        <time>2019-09-30T11:45:10Z</time>
      </trkpt>
      <trkpt lat="47.32636" lon="6.28773">
        <ele>262.526</ele>
        <time>2019-09-30T11:45:13Z</time>
      </trkpt>
      <trkpt lat="47.32625" lon="6.2876">
        <ele>262.597</ele>
        <time>2019-09-30T11:45:16Z</time>
      </trkpt>
      <trkpt lat="47.32614" lon="6.28748">
        <ele>262.437</ele>
        <time>2019-09-30T11:45:19Z</time>
      </trkpt>
      <trkpt lat="47.32602" lon="6.28737">
        <ele>262.197</ele>
        <time>2019-09-30T11:45:22Z</time>
      </trkpt>
      <trkpt lat="47.32591" lon="6.28723">
        <ele>261.877</ele>
        <time>2019-09-30T11:45:25Z</time>
      </trkpt>
      <trkpt lat="47.32581" lon="6.2871">
        <ele>262.084</ele>
        <time>2019-09-30T11:45:28Z</time>
      </trkpt>
      <trkpt lat="47.3257" lon="6.28698">
        <ele>261.692</ele>
        <time>2019-09-30T11:45:31Z</time>
      </trkpt>
      <trkpt lat="47.32559" lon="6.28686">
        <ele>261.46</ele>
        <time>2019-09-30T11:45:34Z</time>
      </trkpt>
      <trkpt lat="47.32546" lon="6.28674">
        <ele>261.425</ele>
        <time>2019-09-30T11:45:37Z</time>
      </trkpt>
      <trkpt lat="47.32535" lon="6.28662">
        <ele>260.713</ele>
        <time>2019-09-30T11:45:40Z</time>
      </trkpt>
      <trkpt lat="47.32524" lon="6.28651">
        <ele>260.296</ele>
        <time>2019-09-30T11:45:43Z</time>
      </trkpt>
      <trkpt lat="47.32513" lon="6.2864">
        <ele>259.866</ele>
        <time>2019-09-30T11:45:46Z</time>
      </trkpt>
      <trkpt lat="47.32501" lon="6.28628">
        <ele>259.659</ele>
        <time>2019-09-30T11:45:49Z</time>
      </trkpt>
      <trkpt lat="47.32489" lon="6.28616">
        <ele>259.577</ele>
        <time>2019-09-30T11:45:52Z</time>
      </trkpt>
      <trkpt lat="47.32476" lon="6.28604">
        <ele>258.936</ele>
        <time>2019-09-30T11:45:55Z</time>
      </trkpt>
      <trkpt lat="47.32463" lon="6.28593">
        <ele>258.569</ele>
        <time>2019-09-30T11:45:58Z</time>
      </trkpt>
      <trkpt lat="47.3245" lon="6.28582">
        <ele>258.46</ele>
        <time>2019-09-30T11:46:01Z</time>
      </trkpt>
      <trkpt lat="47.32437" lon="6.28569">
        <ele>258.315</ele>
        <time>2019-09-30T11:46:04Z</time>
      </trkpt>
      <trkpt lat="47.32424" lon="6.28555">
        <ele>257.784</ele>
        <time>2019-09-30T11:46:07Z</time>
      </trkpt>
      <trkpt lat="47.32412" lon="6.28544">
        <ele>257.698</ele>
        <time>2019-09-30T11:46:10Z</time>
      </trkpt>
      <trkpt lat="47.324" lon="6.28533">
        <ele>257.797</ele>
        <time>2019-09-30T11:46:13Z</time>
      </trkpt>
      <trkpt lat="47.32387" lon="6.28523">
        <ele>257.577</ele>
        <time>2019-09-30T11:46:16Z</time>
      </trkpt>
      <trkpt lat="47.32375" lon="6.28512">
        <ele>257.55</ele>
        <time>2019-09-30T11:46:19Z</time>
      </trkpt>
      <trkpt lat="47.32363" lon="6.28499">
        <ele>258.379</ele>
        <time>2019-09-30T11:46:22Z</time>
      </trkpt>
      <trkpt lat="47.3235" lon="6.28486">
        <ele>258.841</ele>
        <time>2019-09-30T11:46:25Z</time>
      </trkpt>
      <trkpt lat="47.32336" lon="6.28471">
        <ele>258.765</ele>
        <time>2019-09-30T11:46:28Z</time>
      </trkpt>
      <trkpt lat="47.32321" lon="6.28454">
        <ele>259.015</ele>
        <time>2019-09-30T11:46:31Z</time>
      </trkpt>
      <trkpt lat="47.32308" lon="6.28437">
        <ele>259.509</ele>
        <time>2019-09-30T11:46:34Z</time>
      </trkpt>
      <trkpt lat="47.32298" lon="6.2842">
        <ele>259.773</ele>
        <time>2019-09-30T11:46:37Z</time>
      </trkpt>
      <trkpt lat="47.32287" lon="6.28404">
        <ele>260.162</ele>
        <time>2019-09-30T11:46:40Z</time>
      </trkpt>
      <trkpt lat="47.32276" lon="6.2839">
        <ele>260.597</ele>
        <time>2019-09-30T11:46:43Z</time>
      </trkpt>
      <trkpt lat="47.32265" lon="6.28376">
        <ele>260.923</ele>
        <time>2019-09-30T11:46:46Z</time>
      </trkpt>
      <trkpt lat="47.32253" lon="6.28361">
        <ele>261.373</ele>
        <time>2019-09-30T11:46:49Z</time>
      </trkpt>
      <trkpt lat="47.32241" lon="6.28344">
        <ele>261.249</ele>
        <time>2019-09-30T11:46:52Z</time>
      </trkpt>
      <trkpt lat="47.32229" lon="6.28325">
        <ele>260.993</ele>
        <time>2019-09-30T11:46:55Z</time>
      </trkpt>
      <trkpt lat="47.32218" lon="6.28306">
        <ele>260.643</ele>
        <time>2019-09-30T11:46:58Z</time>
      </trkpt>
      <trkpt lat="47.32207" lon="6.28288">
        <ele>260.247</ele>
        <time>2019-09-30T11:47:01Z</time>
      </trkpt>
      <trkpt lat="47.32195" lon="6.2827">
        <ele>260.619</ele>
        <time>2019-09-30T11:47:04Z</time>
      </trkpt>
      <trkpt lat="47.32185" lon="6.28252">
        <ele>260.888</ele>
        <time>2019-09-30T11:47:07Z</time>
      </trkpt>
      <trkpt lat="47.32175" lon="6.28234">
        <ele>260.932</ele>
        <time>2019-09-30T11:47:10Z</time>
      </trkpt>
      <trkpt lat="47.32167" lon="6.28213">
        <ele>260.439</ele>
        <time>2019-09-30T11:47:13Z</time>
      </trkpt>
      <trkpt lat="47.32164" lon="6.28192">
        <ele>259.748</ele>
        <time>2019-09-30T11:47:16Z</time>
      </trkpt>
      <trkpt lat="47.32162" lon="6.28171">
        <ele>259.119</ele>
        <time>2019-09-30T11:47:19Z</time>
      </trkpt>
      <trkpt lat="47.3216" lon="6.2815">
        <ele>258.951</ele>
        <time>2019-09-30T11:47:22Z</time>
      </trkpt>
      <trkpt lat="47.32157" lon="6.28129">
        <ele>258.264</ele>
        <time>2019-09-30T11:47:25Z</time>
      </trkpt>
      <trkpt lat="47.32153" lon="6.28106">
        <ele>257.436</ele>
        <time>2019-09-30T11:47:28Z</time>
      </trkpt>
      <trkpt lat="47.3215" lon="6.28085">
        <ele>257.111</ele>
        <time>2019-09-30T11:47:31Z</time>
      </trkpt>
      <trkpt lat="47.32147" lon="6.28064">
        <ele>257.021</ele>
        <time>2019-09-30T11:47:34Z</time>
      </trkpt>
      <trkpt lat="47.32145" lon="6.28044">
        <ele>257.067</ele>
        <time>2019-09-30T11:47:37Z</time>
      </trkpt>
      <trkpt lat="47.32143" lon="6.28029">
        <ele>257.17</ele>
        <time>2019-09-30T11:47:40Z</time>
      </trkpt>
      <trkpt lat="47.32141" lon="6.28018">
        <ele>257.559</ele>
        <time>2019-09-30T11:47:43Z</time>
      </trkpt>
      <trkpt lat="47.32138" lon="6.28005">
        <ele>257.685</ele>
        <time>2019-09-30T11:47:46Z</time>
      </trkpt>
      <trkpt lat="47.32135" lon="6.27982">
        <ele>257.935</ele>
        <time>2019-09-30T11:47:49Z</time>
      </trkpt>
      <trkpt lat="47.32133" lon="6.2795">
        <ele>258.54</ele>
        <time>2019-09-30T11:47:52Z</time>
      </trkpt>
      <trkpt lat="47.32133" lon="6.27922">
        <ele>258.718</ele>
        <time>2019-09-30T11:47:55Z</time>
      </trkpt>
      <trkpt lat="47.32135" lon="6.27899">
        <ele>258.433</ele>
        <time>2019-09-30T11:47:58Z</time>
      </trkpt>
      <trkpt lat="47.32137" lon="6.27877">
        <ele>258.238</ele>
        <time>2019-09-30T11:48:01Z</time>
      </trkpt>
      <trkpt lat="47.32139" lon="6.27853">
        <ele>258.441</ele>
        <time>2019-09-30T11:48:04Z</time>
      </trkpt>
      <trkpt lat="47.32141" lon="6.27829">
        <ele>258.385</ele>
        <time>2019-09-30T11:48:07Z</time>
      </trkpt>
      <trkpt lat="47.32143" lon="6.27806">
        <ele>258.234</ele>
        <time>2019-09-30T11:48:10Z</time>
      </trkpt>
      <trkpt lat="47.32144" lon="6.27783">
        <ele>258.227</ele>
        <time>2019-09-30T11:48:13Z</time>
      </trkpt>
      <trkpt lat="47.32145" lon="6.27759">
        <ele>258.257</ele>
        <time>2019-09-30T11:48:16Z</time>
      </trkpt>
      <trkpt lat="47.32147" lon="6.27735">
        <ele>258.346</ele>
        <time>2019-09-30T11:48:19Z</time>
      </trkpt>
      <trkpt lat="47.32148" lon="6.27712">
        <ele>258.465</ele>
        <time>2019-09-30T11:48:22Z</time>
      </trkpt>
      <trkpt lat="47.32149" lon="6.2769">
        <ele>258.208</ele>
        <time>2019-09-30T11:48:25Z</time>
      </trkpt>
      <trkpt lat="47.32149" lon="6.27668">
        <ele>258.289</ele>
        <time>2019-09-30T11:48:28Z</time>
      </trkpt>
      <trkpt lat="47.32149" lon="6.27647">
        <ele>258.03</ele>
        <time>2019-09-30T11:48:31Z</time>
      </trkpt>
      <trkpt lat="47.32148" lon="6.27627">
        <ele>257.927</ele>
        <time>2019-09-30T11:48:34Z</time>
      </trkpt>
      <trkpt lat="47.32146" lon="6.27605">
        <ele>257.906</ele>
        <time>2019-09-30T11:48:37Z</time>
      </trkpt>
      <trkpt lat="47.32142" lon="6.27584">
        <ele>257.552</ele>
        <time>2019-09-30T11:48:40Z</time>
      </trkpt>
      <trkpt lat="47.32137" lon="6.27561">
        <ele>257.176</ele>
        <time>2019-09-30T11:48:43Z</time>
      </trkpt>
      <trkpt lat="47.32131" lon="6.27538">
        <ele>256.884</ele>
        <time>2019-09-30T11:48:46Z</time>
      </trkpt>
      <trkpt lat="47.32127" lon="6.27515">
        <ele>256.794</ele>
        <time>2019-09-30T11:48:49Z</time>
      </trkpt>
      <trkpt lat="47.32124" lon="6.27493">
        <ele>256.552</ele>
        <time>2019-09-30T11:48:52Z</time>
      </trkpt>
      <trkpt lat="47.32124" lon="6.27471">
        <ele>256.716</ele>
        <time>2019-09-30T11:48:55Z</time>
      </trkpt>
      <trkpt lat="47.32121" lon="6.27449">
        <ele>256.215</ele>
        <time>2019-09-30T11:48:58Z</time>
      </trkpt>
      <trkpt lat="47.32117" lon="6.27426">
        <ele>255.588</ele>
        <time>2019-09-30T11:49:01Z</time>
      </trkpt>
      <trkpt lat="47.32115" lon="6.27403">
        <ele>255.269</ele>
        <time>2019-09-30T11:49:04Z</time>
      </trkpt>
      <trkpt lat="47.32111" lon="6.27381">
        <ele>254.86</ele>
        <time>2019-09-30T11:49:07Z</time>
      </trkpt>
      <trkpt lat="47.32108" lon="6.27359">
        <ele>254.364</ele>
        <time>2019-09-30T11:49:10Z</time>
      </trkpt>
      <trkpt lat="47.32104" lon="6.27336">
        <ele>254.089</ele>
        <time>2019-09-30T11:49:13Z</time>
      </trkpt>
      <trkpt lat="47.321" lon="6.27313">
        <ele>253.953</ele>
        <time>2019-09-30T11:49:16Z</time>
      </trkpt>
      <trkpt lat="47.32096" lon="6.2729">
        <ele>254.02</ele>
        <time>2019-09-30T11:49:19Z</time>
      </trkpt>
      <trkpt lat="47.32094" lon="6.27267">
        <ele>254.038</ele>
        <time>2019-09-30T11:49:22Z</time>
      </trkpt>
      <trkpt lat="47.32092" lon="6.27242">
        <ele>254.308</ele>
        <time>2019-09-30T11:49:25Z</time>
      </trkpt>
      <trkpt lat="47.32089" lon="6.27218">
        <ele>254.65</ele>
        <time>2019-09-30T11:49:28Z</time>
      </trkpt>
      <trkpt lat="47.32086" lon="6.27193">
        <ele>254.946</ele>
        <time>2019-09-30T11:49:31Z</time>
      </trkpt>
      <trkpt lat="47.32084" lon="6.2717">
        <ele>254.898</ele>
        <time>2019-09-30T11:49:34Z</time>
      </trkpt>
      <trkpt lat="47.32084" lon="6.27148">
        <ele>255.233</ele>
        <time>2019-09-30T11:49:37Z</time>
      </trkpt>
      <trkpt lat="47.32083" lon="6.27125">
        <ele>255.157</ele>
        <time>2019-09-30T11:49:40Z</time>
      </trkpt>
      <trkpt lat="47.32084" lon="6.27101">
        <ele>254.943</ele>
        <time>2019-09-30T11:49:43Z</time>
      </trkpt>
      <trkpt lat="47.32083" lon="6.27077">
        <ele>254.556</ele>
        <time>2019-09-30T11:49:46Z</time>
      </trkpt>
      <trkpt lat="47.32082" lon="6.27053">
        <ele>254.099</ele>
        <time>2019-09-30T11:49:49Z</time>
      </trkpt>
      <trkpt lat="47.32082" lon="6.27028">
        <ele>254.155</ele>
        <time>2019-09-30T11:49:52Z</time>
      </trkpt>
      <trkpt lat="47.32083" lon="6.27005">
        <ele>254.254</ele>
        <time>2019-09-30T11:49:55Z</time>
      </trkpt>
      <trkpt lat="47.32083" lon="6.26981">
        <ele>255.081</ele>
        <time>2019-09-30T11:49:58Z</time>
      </trkpt>
      <trkpt lat="47.32084" lon="6.26956">
        <ele>255.491</ele>
        <time>2019-09-30T11:50:01Z</time>
      </trkpt>
      <trkpt lat="47.32085" lon="6.26932">
        <ele>255.278</ele>
        <time>2019-09-30T11:50:04Z</time>
      </trkpt>
      <trkpt lat="47.32086" lon="6.26908">
        <ele>255.155</ele>
        <time>2019-09-30T11:50:07Z</time>
      </trkpt>
      <trkpt lat="47.32086" lon="6.26884">
        <ele>255.109</ele>
        <time>2019-09-30T11:50:10Z</time>
      </trkpt>
      <trkpt lat="47.32087" lon="6.26861">
        <ele>255.194</ele>
        <time>2019-09-30T11:50:13Z</time>
      </trkpt>
      <trkpt lat="47.32087" lon="6.26836">
        <ele>255.239</ele>
        <time>2019-09-30T11:50:16Z</time>
      </trkpt>
      <trkpt lat="47.32087" lon="6.26811">
        <ele>255.219</ele>
        <time>2019-09-30T11:50:19Z</time>
      </trkpt>
      <trkpt lat="47.32087" lon="6.26786">
        <ele>255.376</ele>
        <time>2019-09-30T11:50:22Z</time>
      </trkpt>
      <trkpt lat="47.32085" lon="6.26763">
        <ele>256.001</ele>
        <time>2019-09-30T11:50:25Z</time>
      </trkpt>
      <trkpt lat="47.32083" lon="6.26739">
        <ele>256.976</ele>
        <time>2019-09-30T11:50:28Z</time>
      </trkpt>
      <trkpt lat="47.32081" lon="6.26714">
        <ele>257.776</ele>
        <time>2019-09-30T11:50:31Z</time>
      </trkpt>
      <trkpt lat="47.32077" lon="6.26691">
        <ele>258.209</ele>
        <time>2019-09-30T11:50:34Z</time>
      </trkpt>
      <trkpt lat="47.32073" lon="6.26667">
        <ele>258.533</ele>
        <time>2019-09-30T11:50:37Z</time>
      </trkpt>
      <trkpt lat="47.32068" lon="6.26643">
        <ele>258.591</ele>
        <time>2019-09-30T11:50:40Z</time>
      </trkpt>
      <trkpt lat="47.32059" lon="6.2662">
        <ele>259.597</ele>
        <time>2019-09-30T11:50:43Z</time>
      </trkpt>
      <trkpt lat="47.32049" lon="6.266">
        <ele>260.093</ele>
        <time>2019-09-30T11:50:46Z</time>
      </trkpt>
      <trkpt lat="47.32038" lon="6.26582">
        <ele>260.156</ele>
        <time>2019-09-30T11:50:49Z</time>
      </trkpt>
      <trkpt lat="47.32025" lon="6.26566">
        <ele>259.872</ele>
        <time>2019-09-30T11:50:52Z</time>
      </trkpt>
      <trkpt lat="47.32012" lon="6.26551">
        <ele>259.612</ele>
        <time>2019-09-30T11:50:55Z</time>
      </trkpt>
      <trkpt lat="47.31999" lon="6.26538">
        <ele>258.928</ele>
        <time>2019-09-30T11:50:58Z</time>
      </trkpt>
      <trkpt lat="47.31985" lon="6.26525">
        <ele>258.561</ele>
        <time>2019-09-30T11:51:01Z</time>
      </trkpt>
      <trkpt lat="47.3197" lon="6.26514">
        <ele>258.753</ele>
        <time>2019-09-30T11:51:04Z</time>
      </trkpt>
      <trkpt lat="47.31956" lon="6.26503">
        <ele>258.964</ele>
        <time>2019-09-30T11:51:07Z</time>
      </trkpt>
      <trkpt lat="47.31941" lon="6.26491">
        <ele>258.728</ele>
        <time>2019-09-30T11:51:10Z</time>
      </trkpt>
      <trkpt lat="47.31926" lon="6.26481">
        <ele>258.562</ele>
        <time>2019-09-30T11:51:13Z</time>
      </trkpt>
      <trkpt lat="47.31912" lon="6.26471">
        <ele>258.011</ele>
        <time>2019-09-30T11:51:16Z</time>
      </trkpt>
      <trkpt lat="47.31896" lon="6.26463">
        <ele>257.382</ele>
        <time>2019-09-30T11:51:19Z</time>
      </trkpt>
      <trkpt lat="47.31881" lon="6.26455">
        <ele>257.003</ele>
        <time>2019-09-30T11:51:22Z</time>
      </trkpt>
      <trkpt lat="47.31864" lon="6.26446">
        <ele>257.212</ele>
        <time>2019-09-30T11:51:25Z</time>
      </trkpt>
      <trkpt lat="47.31847" lon="6.26437">
        <ele>257.962</ele>
        <time>2019-09-30T11:51:28Z</time>
      </trkpt>
      <trkpt lat="47.31831" lon="6.26428">
        <ele>257.636</ele>
        <time>2019-09-30T11:51:31Z</time>
      </trkpt>
      <trkpt lat="47.31816" lon="6.26417">
        <ele>257.127</ele>
        <time>2019-09-30T11:51:34Z</time>
      </trkpt>
      <trkpt lat="47.318" lon="6.26408">
        <ele>256.56</ele>
        <time>2019-09-30T11:51:37Z</time>
      </trkpt>
      <trkpt lat="47.31784" lon="6.26399">
        <ele>256.327</ele>
        <time>2019-09-30T11:51:40Z</time>
      </trkpt>
      <trkpt lat="47.31768" lon="6.26392">
        <ele>256.299</ele>
        <time>2019-09-30T11:51:43Z</time>
      </trkpt>
      <trkpt lat="47.31753" lon="6.26382">
        <ele>255.704</ele>
        <time>2019-09-30T11:51:46Z</time>
      </trkpt>
      <trkpt lat="47.31739" lon="6.26374">
        <ele>255.719</ele>
        <time>2019-09-30T11:51:49Z</time>
      </trkpt>
      <trkpt lat="47.31725" lon="6.26363">
        <ele>255.031</ele>
        <time>2019-09-30T11:51:52Z</time>
      </trkpt>
      <trkpt lat="47.3171" lon="6.26353">
        <ele>255.164</ele>
        <time>2019-09-30T11:51:55Z</time>
      </trkpt>
      <trkpt lat="47.31695" lon="6.26343">
        <ele>255.394</ele>
        <time>2019-09-30T11:51:58Z</time>
      </trkpt>
      <trkpt lat="47.31679" lon="6.26332">
        <ele>254.816</ele>
        <time>2019-09-30T11:52:01Z</time>
      </trkpt>
      <trkpt lat="47.31663" lon="6.26323">
        <ele>254.379</ele>
        <time>2019-09-30T11:52:04Z</time>
      </trkpt>
      <trkpt lat="47.31647" lon="6.26312">
        <ele>253.781</ele>
        <time>2019-09-30T11:52:07Z</time>
      </trkpt>
      <trkpt lat="47.31632" lon="6.26302">
        <ele>252.758</ele>
        <time>2019-09-30T11:52:10Z</time>
      </trkpt>
      <trkpt lat="47.31616" lon="6.26292">
        <ele>252.812</ele>
        <time>2019-09-30T11:52:13Z</time>
      </trkpt>
      <trkpt lat="47.316" lon="6.26282">
        <ele>253.073</ele>
        <time>2019-09-30T11:52:16Z</time>
      </trkpt>
      <trkpt lat="47.31585" lon="6.26271">
        <ele>253.15</ele>
        <time>2019-09-30T11:52:19Z</time>
      </trkpt>
      <trkpt lat="47.3157" lon="6.26261">
        <ele>253.599</ele>
        <time>2019-09-30T11:52:22Z</time>
      </trkpt>
      <trkpt lat="47.31556" lon="6.26251">
        <ele>252.883</ele>
        <time>2019-09-30T11:52:25Z</time>
      </trkpt>
      <trkpt lat="47.31541" lon="6.26243">
        <ele>252.636</ele>
        <time>2019-09-30T11:52:28Z</time>
      </trkpt>
      <trkpt lat="47.31526" lon="6.26234">
        <ele>252.24</ele>
        <time>2019-09-30T11:52:31Z</time>
      </trkpt>
      <trkpt lat="47.31511" lon="6.26225">
        <ele>251.813</ele>
        <time>2019-09-30T11:52:34Z</time>
      </trkpt>
      <trkpt lat="47.31497" lon="6.26214">
        <ele>251.471</ele>
        <time>2019-09-30T11:52:37Z</time>
      </trkpt>
      <trkpt lat="47.31482" lon="6.26201">
        <ele>251.576</ele>
        <time>2019-09-30T11:52:40Z</time>
      </trkpt>
      <trkpt lat="47.31468" lon="6.26189">
        <ele>251.609</ele>
        <time>2019-09-30T11:52:43Z</time>
      </trkpt>
      <trkpt lat="47.31455" lon="6.26177">
        <ele>251.794</ele>
        <time>2019-09-30T11:52:46Z</time>
      </trkpt>
      <trkpt lat="47.31442" lon="6.26166">
        <ele>252.164</ele>
        <time>2019-09-30T11:52:49Z</time>
      </trkpt>
      <trkpt lat="47.31431" lon="6.26153">
        <ele>252.242</ele>
        <time>2019-09-30T11:52:52Z</time>
      </trkpt>
      <trkpt lat="47.31419" lon="6.26141">
        <ele>252.662</ele>
        <time>2019-09-30T11:52:55Z</time>
      </trkpt>
      <trkpt lat="47.31406" lon="6.26129">
        <ele>252.878</ele>
        <time>2019-09-30T11:52:58Z</time>
      </trkpt>
      <trkpt lat="47.31394" lon="6.26119">
        <ele>252.75</ele>
        <time>2019-09-30T11:53:01Z</time>
      </trkpt>
      <trkpt lat="47.31381" lon="6.2611">
        <ele>252.553</ele>
        <time>2019-09-30T11:53:04Z</time>
      </trkpt>
      <trkpt lat="47.31368" lon="6.26101">
        <ele>251.898</ele>
        <time>2019-09-30T11:53:07Z</time>
      </trkpt>
      <trkpt lat="47.31354" lon="6.26093">
        <ele>251.503</ele>
        <time>2019-09-30T11:53:10Z</time>
      </trkpt>
      <trkpt lat="47.31339" lon="6.26085">
        <ele>250.814</ele>
        <time>2019-09-30T11:53:13Z</time>
      </trkpt>
      <trkpt lat="47.31324" lon="6.26078">
        <ele>250.57</ele>
        <time>2019-09-30T11:53:16Z</time>
      </trkpt>
      <trkpt lat="47.3131" lon="6.26071">
        <ele>250.718</ele>
        <time>2019-09-30T11:53:19Z</time>
      </trkpt>
      <trkpt lat="47.31296" lon="6.26064">
        <ele>250.926</ele>
        <time>2019-09-30T11:53:22Z</time>
      </trkpt>
      <trkpt lat="47.31282" lon="6.26052">
        <ele>250.767</ele>
        <time>2019-09-30T11:53:25Z</time>
      </trkpt>
      <trkpt lat="47.31269" lon="6.26042">
        <ele>250.706</ele>
        <time>2019-09-30T11:53:28Z</time>
      </trkpt>
      <trkpt lat="47.31254" lon="6.26036">
        <ele>250.197</ele>
        <time>2019-09-30T11:53:31Z</time>
      </trkpt>
      <trkpt lat="47.31239" lon="6.26032">
        <ele>250.096</ele>
        <time>2019-09-30T11:53:34Z</time>
      </trkpt>
      <trkpt lat="47.31225" lon="6.26023">
        <ele>250.579</ele>
        <time>2019-09-30T11:53:37Z</time>
      </trkpt>
      <trkpt lat="47.31212" lon="6.26014">
        <ele>250.574</ele>
        <time>2019-09-30T11:53:40Z</time>
      </trkpt>
      <trkpt lat="47.31198" lon="6.26003">
        <ele>250.763</ele>
        <time>2019-09-30T11:53:43.001Z</time>
      </trkpt>
      <trkpt lat="47.31184" lon="6.25992">
        <ele>251.126</ele>
        <time>2019-09-30T11:53:46Z</time>
      </trkpt>
      <trkpt lat="47.31171" lon="6.25979">
        <ele>251.335</ele>
        <time>2019-09-30T11:53:49Z</time>
      </trkpt>
      <trkpt lat="47.31161" lon="6.25963">
        <ele>251.841</ele>
        <time>2019-09-30T11:53:52Z</time>
      </trkpt>
      <trkpt lat="47.31152" lon="6.25947">
        <ele>252.579</ele>
        <time>2019-09-30T11:53:55Z</time>
      </trkpt>
      <trkpt lat="47.31143" lon="6.2593">
        <ele>253.055</ele>
        <time>2019-09-30T11:53:58Z</time>
      </trkpt>
      <trkpt lat="47.31135" lon="6.25913">
        <ele>253.407</ele>
        <time>2019-09-30T11:54:01Z</time>
      </trkpt>
      <trkpt lat="47.31127" lon="6.25896">
        <ele>253.974</ele>
        <time>2019-09-30T11:54:04Z</time>
      </trkpt>
      <trkpt lat="47.31119" lon="6.25879">
        <ele>254.925</ele>
        <time>2019-09-30T11:54:07Z</time>
      </trkpt>
      <trkpt lat="47.31111" lon="6.25864">
        <ele>256.401</ele>
        <time>2019-09-30T11:54:10Z</time>
      </trkpt>
      <trkpt lat="47.31101" lon="6.25849">
        <ele>257.325</ele>
        <time>2019-09-30T11:54:13Z</time>
      </trkpt>
      <trkpt lat="47.31092" lon="6.25834">
        <ele>257.564</ele>
        <time>2019-09-30T11:54:16Z</time>
      </trkpt>
      <trkpt lat="47.31083" lon="6.25818">
        <ele>257.012</ele>
        <time>2019-09-30T11:54:19Z</time>
      </trkpt>
      <trkpt lat="47.31074" lon="6.25803">
        <ele>257.235</ele>
        <time>2019-09-30T11:54:22Z</time>
      </trkpt>
      <trkpt lat="47.31066" lon="6.25789">
        <ele>257.141</ele>
        <time>2019-09-30T11:54:25Z</time>
      </trkpt>
      <trkpt lat="47.31057" lon="6.25775">
        <ele>256.846</ele>
        <time>2019-09-30T11:54:28Z</time>
      </trkpt>
      <trkpt lat="47.31047" lon="6.25761">
        <ele>257.053</ele>
        <time>2019-09-30T11:54:31Z</time>
      </trkpt>
      <trkpt lat="47.31038" lon="6.25746">
        <ele>255.936</ele>
        <time>2019-09-30T11:54:34Z</time>
      </trkpt>
      <trkpt lat="47.31027" lon="6.25731">
        <ele>255.267</ele>
        <time>2019-09-30T11:54:37Z</time>
      </trkpt>
      <trkpt lat="47.31015" lon="6.25709">
        <ele>255.775</ele>
        <time>2019-09-30T11:54:40Z</time>
      </trkpt>
      <trkpt lat="47.3101" lon="6.25678">
        <ele>255.708</ele>
        <time>2019-09-30T11:54:43Z</time>
      </trkpt>
      <trkpt lat="47.31006" lon="6.25647">
        <ele>254.994</ele>
        <time>2019-09-30T11:54:46Z</time>
      </trkpt>
      <trkpt lat="47.31002" lon="6.2562">
        <ele>254.562</ele>
        <time>2019-09-30T11:54:49Z</time>
      </trkpt>
      <trkpt lat="47.30998" lon="6.25597">
        <ele>254.698</ele>
        <time>2019-09-30T11:54:52Z</time>
      </trkpt>
      <trkpt lat="47.30996" lon="6.25576">
        <ele>255.029</ele>
        <time>2019-09-30T11:54:55Z</time>
      </trkpt>
      <trkpt lat="47.30994" lon="6.25557">
        <ele>255.284</ele>
        <time>2019-09-30T11:54:58Z</time>
      </trkpt>
      <trkpt lat="47.30992" lon="6.25535">
        <ele>255.569</ele>
        <time>2019-09-30T11:55:01Z</time>
      </trkpt>
      <trkpt lat="47.3099" lon="6.25513">
        <ele>255.826</ele>
        <time>2019-09-30T11:55:04Z</time>
      </trkpt>
      <trkpt lat="47.30987" lon="6.25494">
        <ele>256.389</ele>
        <time>2019-09-30T11:55:07Z</time>
      </trkpt>
      <trkpt lat="47.30982" lon="6.25474">
        <ele>256.851</ele>
        <time>2019-09-30T11:55:10Z</time>
      </trkpt>
      <trkpt lat="47.30978" lon="6.25454">
        <ele>257.39</ele>
        <time>2019-09-30T11:55:13Z</time>
      </trkpt>
      <trkpt lat="47.30973" lon="6.25433">
        <ele>257.79</ele>
        <time>2019-09-30T11:55:16Z</time>
      </trkpt>
      <trkpt lat="47.30969" lon="6.25411">
        <ele>257.826</ele>
        <time>2019-09-30T11:55:19Z</time>
      </trkpt>
      <trkpt lat="47.30964" lon="6.25389">
        <ele>257.115</ele>
        <time>2019-09-30T11:55:22Z</time>
      </trkpt>
      <trkpt lat="47.30961" lon="6.25368">
        <ele>256.204</ele>
        <time>2019-09-30T11:55:25Z</time>
      </trkpt>
      <trkpt lat="47.30958" lon="6.25346">
        <ele>255.196</ele>
        <time>2019-09-30T11:55:28Z</time>
      </trkpt>
      <trkpt lat="47.30955" lon="6.25324">
        <ele>254.667</ele>
        <time>2019-09-30T11:55:31Z</time>
      </trkpt>
      <trkpt lat="47.30952" lon="6.25302">
        <ele>254.458</ele>
        <time>2019-09-30T11:55:34Z</time>
      </trkpt>
      <trkpt lat="47.30949" lon="6.25278">
        <ele>254.058</ele>
        <time>2019-09-30T11:55:37Z</time>
      </trkpt>
      <trkpt lat="47.30946" lon="6.25255">
        <ele>253.755</ele>
        <time>2019-09-30T11:55:40Z</time>
      </trkpt>
      <trkpt lat="47.30944" lon="6.25231">
        <ele>253.372</ele>
        <time>2019-09-30T11:55:43Z</time>
      </trkpt>
      <trkpt lat="47.30941" lon="6.25208">
        <ele>252.842</ele>
        <time>2019-09-30T11:55:46Z</time>
      </trkpt>
      <trkpt lat="47.30937" lon="6.25184">
        <ele>252.686</ele>
        <time>2019-09-30T11:55:49Z</time>
      </trkpt>
      <trkpt lat="47.30933" lon="6.25162">
        <ele>252.421</ele>
        <time>2019-09-30T11:55:52Z</time>
      </trkpt>
      <trkpt lat="47.3093" lon="6.25141">
        <ele>252.321</ele>
        <time>2019-09-30T11:55:55Z</time>
      </trkpt>
      <trkpt lat="47.30927" lon="6.25119">
        <ele>252.296</ele>
        <time>2019-09-30T11:55:58Z</time>
      </trkpt>
      <trkpt lat="47.30923" lon="6.25099">
        <ele>252.344</ele>
        <time>2019-09-30T11:56:01Z</time>
      </trkpt>
      <trkpt lat="47.3092" lon="6.25078">
        <ele>252.578</ele>
        <time>2019-09-30T11:56:04Z</time>
      </trkpt>
      <trkpt lat="47.30917" lon="6.25058">
        <ele>252.528</ele>
        <time>2019-09-30T11:56:07Z</time>
      </trkpt>
      <trkpt lat="47.30914" lon="6.25037">
        <ele>252.433</ele>
        <time>2019-09-30T11:56:10Z</time>
      </trkpt>
      <trkpt lat="47.30911" lon="6.25018">
        <ele>252.43</ele>
        <time>2019-09-30T11:56:13Z</time>
      </trkpt>
      <trkpt lat="47.30909" lon="6.25">
        <ele>252.424</ele>
        <time>2019-09-30T11:56:16Z</time>
      </trkpt>
      <trkpt lat="47.30906" lon="6.24983">
        <ele>252.379</ele>
        <time>2019-09-30T11:56:19Z</time>
      </trkpt>
      <trkpt lat="47.30903" lon="6.24966">
        <ele>252.676</ele>
        <time>2019-09-30T11:56:22Z</time>
      </trkpt>
      <trkpt lat="47.309" lon="6.24946">
        <ele>252.902</ele>
        <time>2019-09-30T11:56:25Z</time>
      </trkpt>
      <trkpt lat="47.30896" lon="6.24924">
        <ele>252.659</ele>
        <time>2019-09-30T11:56:28Z</time>
      </trkpt>
      <trkpt lat="47.30893" lon="6.24901">
        <ele>252.384</ele>
        <time>2019-09-30T11:56:31Z</time>
      </trkpt>
      <trkpt lat="47.3089" lon="6.24877">
        <ele>252.331</ele>
        <time>2019-09-30T11:56:34Z</time>
      </trkpt>
      <trkpt lat="47.30887" lon="6.24855">
        <ele>251.833</ele>
        <time>2019-09-30T11:56:37Z</time>
      </trkpt>
      <trkpt lat="47.30883" lon="6.24832">
        <ele>250.805</ele>
        <time>2019-09-30T11:56:40Z</time>
      </trkpt>
      <trkpt lat="47.30879" lon="6.2481">
        <ele>249.867</ele>
        <time>2019-09-30T11:56:43Z</time>
      </trkpt>
      <trkpt lat="47.30876" lon="6.24787">
        <ele>249.226</ele>
        <time>2019-09-30T11:56:46Z</time>
      </trkpt>
      <trkpt lat="47.30872" lon="6.24766">
        <ele>248.572</ele>
        <time>2019-09-30T11:56:49Z</time>
      </trkpt>
      <trkpt lat="47.30868" lon="6.24744">
        <ele>248.462</ele>
        <time>2019-09-30T11:56:52Z</time>
      </trkpt>
      <trkpt lat="47.30865" lon="6.24721">
        <ele>248.318</ele>
        <time>2019-09-30T11:56:55Z</time>
      </trkpt>
      <trkpt lat="47.30861" lon="6.24699">
        <ele>248.061</ele>
        <time>2019-09-30T11:56:58Z</time>
      </trkpt>
      <trkpt lat="47.30858" lon="6.24677">
        <ele>247.522</ele>
        <time>2019-09-30T11:57:01Z</time>
      </trkpt>
      <trkpt lat="47.30856" lon="6.24657">
        <ele>247.196</ele>
        <time>2019-09-30T11:57:04Z</time>
      </trkpt>
      <trkpt lat="47.30853" lon="6.24637">
        <ele>247.237</ele>
        <time>2019-09-30T11:57:07Z</time>
      </trkpt>
      <trkpt lat="47.3085" lon="6.24617">
        <ele>247.524</ele>
        <time>2019-09-30T11:57:10Z</time>
      </trkpt>
      <trkpt lat="47.30847" lon="6.24597">
        <ele>247.702</ele>
        <time>2019-09-30T11:57:13Z</time>
      </trkpt>
      <trkpt lat="47.30845" lon="6.24578">
        <ele>248.168</ele>
        <time>2019-09-30T11:57:16Z</time>
      </trkpt>
      <trkpt lat="47.30842" lon="6.24558">
        <ele>248.943</ele>
        <time>2019-09-30T11:57:19Z</time>
      </trkpt>
      <trkpt lat="47.30839" lon="6.24539">
        <ele>249.519</ele>
        <time>2019-09-30T11:57:22Z</time>
      </trkpt>
      <trkpt lat="47.30835" lon="6.24519">
        <ele>249.974</ele>
        <time>2019-09-30T11:57:25Z</time>
      </trkpt>
      <trkpt lat="47.30832" lon="6.24499">
        <ele>250.295</ele>
        <time>2019-09-30T11:57:28Z</time>
      </trkpt>
      <trkpt lat="47.30828" lon="6.24478">
        <ele>250.816</ele>
        <time>2019-09-30T11:57:31Z</time>
      </trkpt>
      <trkpt lat="47.30824" lon="6.24457">
        <ele>250.825</ele>
        <time>2019-09-30T11:57:34Z</time>
      </trkpt>
      <trkpt lat="47.3082" lon="6.24436">
        <ele>250.829</ele>
        <time>2019-09-30T11:57:37Z</time>
      </trkpt>
      <trkpt lat="47.30814" lon="6.24416">
        <ele>250.529</ele>
        <time>2019-09-30T11:57:40Z</time>
      </trkpt>
      <trkpt lat="47.3081" lon="6.24396">
        <ele>249.76</ele>
        <time>2019-09-30T11:57:43Z</time>
      </trkpt>
      <trkpt lat="47.30804" lon="6.24376">
        <ele>249.437</ele>
        <time>2019-09-30T11:57:46Z</time>
      </trkpt>
      <trkpt lat="47.30798" lon="6.24356">
        <ele>249.041</ele>
        <time>2019-09-30T11:57:49Z</time>
      </trkpt>
      <trkpt lat="47.30792" lon="6.24336">
        <ele>248.838</ele>
        <time>2019-09-30T11:57:52Z</time>
      </trkpt>
      <trkpt lat="47.30786" lon="6.24317">
        <ele>248.891</ele>
        <time>2019-09-30T11:57:55Z</time>
      </trkpt>
      <trkpt lat="47.3078" lon="6.24296">
        <ele>249.2</ele>
        <time>2019-09-30T11:57:58Z</time>
      </trkpt>
      <trkpt lat="47.30774" lon="6.24275">
        <ele>249.865</ele>
        <time>2019-09-30T11:58:01Z</time>
      </trkpt>
      <trkpt lat="47.30768" lon="6.24255">
        <ele>249.462</ele>
        <time>2019-09-30T11:58:04Z</time>
      </trkpt>
      <trkpt lat="47.30763" lon="6.24235">
        <ele>249.342</ele>
        <time>2019-09-30T11:58:07Z</time>
      </trkpt>
      <trkpt lat="47.30758" lon="6.24216">
        <ele>249.496</ele>
        <time>2019-09-30T11:58:10Z</time>
      </trkpt>
      <trkpt lat="47.30753" lon="6.24198">
        <ele>249.972</ele>
        <time>2019-09-30T11:58:13Z</time>
      </trkpt>
      <trkpt lat="47.30748" lon="6.24181">
        <ele>250.232</ele>
        <time>2019-09-30T11:58:16Z</time>
      </trkpt>
      <trkpt lat="47.30744" lon="6.24163">
        <ele>249.851</ele>
        <time>2019-09-30T11:58:19Z</time>
      </trkpt>
      <trkpt lat="47.30741" lon="6.24145">
        <ele>249.773</ele>
        <time>2019-09-30T11:58:22Z</time>
      </trkpt>
      <trkpt lat="47.30736" lon="6.24125">
        <ele>249.129</ele>
        <time>2019-09-30T11:58:25Z</time>
      </trkpt>
      <trkpt lat="47.30732" lon="6.24105">
        <ele>249.033</ele>
        <time>2019-09-30T11:58:28Z</time>
      </trkpt>
      <trkpt lat="47.30728" lon="6.24085">
        <ele>249.611</ele>
        <time>2019-09-30T11:58:31Z</time>
      </trkpt>
      <trkpt lat="47.30725" lon="6.24065">
        <ele>249.938</ele>
        <time>2019-09-30T11:58:34Z</time>
      </trkpt>
      <trkpt lat="47.3072" lon="6.24045">
        <ele>250.081</ele>
        <time>2019-09-30T11:58:37Z</time>
      </trkpt>
      <trkpt lat="47.30716" lon="6.24025">
        <ele>250.091</ele>
        <time>2019-09-30T11:58:40Z</time>
      </trkpt>
      <trkpt lat="47.30711" lon="6.24003">
        <ele>250.079</ele>
        <time>2019-09-30T11:58:43Z</time>
      </trkpt>
      <trkpt lat="47.30705" lon="6.23982">
        <ele>249.836</ele>
        <time>2019-09-30T11:58:46Z</time>
      </trkpt>
      <trkpt lat="47.307" lon="6.23961">
        <ele>249.525</ele>
        <time>2019-09-30T11:58:49Z</time>
      </trkpt>
      <trkpt lat="47.30696" lon="6.23941">
        <ele>249.546</ele>
        <time>2019-09-30T11:58:52Z</time>
      </trkpt>
      <trkpt lat="47.30691" lon="6.23921">
        <ele>249.538</ele>
        <time>2019-09-30T11:58:55Z</time>
      </trkpt>
      <trkpt lat="47.30686" lon="6.23902">
        <ele>249.303</ele>
        <time>2019-09-30T11:58:58Z</time>
      </trkpt>
      <trkpt lat="47.3068" lon="6.23882">
        <ele>249.284</ele>
        <time>2019-09-30T11:59:01Z</time>
      </trkpt>
      <trkpt lat="47.30673" lon="6.23863">
        <ele>249.521</ele>
        <time>2019-09-30T11:59:04Z</time>
      </trkpt>
      <trkpt lat="47.30666" lon="6.23844">
        <ele>249.905</ele>
        <time>2019-09-30T11:59:07Z</time>
      </trkpt>
      <trkpt lat="47.30659" lon="6.23825">
        <ele>249.638</ele>
        <time>2019-09-30T11:59:10Z</time>
      </trkpt>
      <trkpt lat="47.30651" lon="6.23807">
        <ele>249.762</ele>
        <time>2019-09-30T11:59:13Z</time>
      </trkpt>
      <trkpt lat="47.30641" lon="6.23786">
        <ele>249.912</ele>
        <time>2019-09-30T11:59:16Z</time>
      </trkpt>
      <trkpt lat="47.30631" lon="6.23767">
        <ele>250.047</ele>
        <time>2019-09-30T11:59:19Z</time>
      </trkpt>
      <trkpt lat="47.30622" lon="6.23748">
        <ele>250.104</ele>
        <time>2019-09-30T11:59:22Z</time>
      </trkpt>
      <trkpt lat="47.30613" lon="6.23729">
        <ele>249.396</ele>
        <time>2019-09-30T11:59:25Z</time>
      </trkpt>
      <trkpt lat="47.30603" lon="6.23711">
        <ele>249.084</ele>
        <time>2019-09-30T11:59:28Z</time>
      </trkpt>
      <trkpt lat="47.30593" lon="6.23691">
        <ele>248.933</ele>
        <time>2019-09-30T11:59:31Z</time>
      </trkpt>
      <trkpt lat="47.30583" lon="6.23674">
        <ele>249.735</ele>
        <time>2019-09-30T11:59:34Z</time>
      </trkpt>
      <trkpt lat="47.30571" lon="6.23659">
        <ele>250.441</ele>
        <time>2019-09-30T11:59:37Z</time>
      </trkpt>
      <trkpt lat="47.30559" lon="6.23648">
        <ele>250.811</ele>
        <time>2019-09-30T11:59:40Z</time>
      </trkpt>
      <trkpt lat="47.30546" lon="6.2364">
        <ele>250.86</ele>
        <time>2019-09-30T11:59:43Z</time>
      </trkpt>
      <trkpt lat="47.30531" lon="6.23634">
        <ele>250.906</ele>
        <time>2019-09-30T11:59:46Z</time>
      </trkpt>
      <trkpt lat="47.30515" lon="6.23632">
        <ele>250.738</ele>
        <time>2019-09-30T11:59:49Z</time>
      </trkpt>
      <trkpt lat="47.30499" lon="6.23629">
        <ele>251.446</ele>
        <time>2019-09-30T11:59:52Z</time>
      </trkpt>
      <trkpt lat="47.30485" lon="6.23625">
        <ele>252.29</ele>
        <time>2019-09-30T11:59:55Z</time>
      </trkpt>
      <trkpt lat="47.30471" lon="6.2362">
        <ele>252.877</ele>
        <time>2019-09-30T11:59:58Z</time>
      </trkpt>
      <trkpt lat="47.30459" lon="6.23613">
        <ele>253.533</ele>
        <time>2019-09-30T12:00:01Z</time>
      </trkpt>
      <trkpt lat="47.30446" lon="6.23606">
        <ele>253.921</ele>
        <time>2019-09-30T12:00:04Z</time>
      </trkpt>
      <trkpt lat="47.30432" lon="6.236">
        <ele>253.211</ele>
        <time>2019-09-30T12:00:07Z</time>
      </trkpt>
      <trkpt lat="47.30418" lon="6.23593">
        <ele>253.493</ele>
        <time>2019-09-30T12:00:10Z</time>
      </trkpt>
      <trkpt lat="47.30405" lon="6.23585">
        <ele>254.111</ele>
        <time>2019-09-30T12:00:13Z</time>
      </trkpt>
      <trkpt lat="47.30391" lon="6.23578">
        <ele>254.047</ele>
        <time>2019-09-30T12:00:16Z</time>
      </trkpt>
      <trkpt lat="47.30377" lon="6.2357">
        <ele>253.501</ele>
        <time>2019-09-30T12:00:19Z</time>
      </trkpt>
      <trkpt lat="47.30365" lon="6.23559">
        <ele>252.486</ele>
        <time>2019-09-30T12:00:22Z</time>
      </trkpt>
      <trkpt lat="47.30352" lon="6.23547">
        <ele>252.021</ele>
        <time>2019-09-30T12:00:25Z</time>
      </trkpt>
      <trkpt lat="47.30339" lon="6.23537">
        <ele>251.983</ele>
        <time>2019-09-30T12:00:28Z</time>
      </trkpt>
      <trkpt lat="47.30325" lon="6.2353">
        <ele>251.832</ele>
        <time>2019-09-30T12:00:31Z</time>
      </trkpt>
      <trkpt lat="47.30311" lon="6.23526">
        <ele>252.246</ele>
        <time>2019-09-30T12:00:34Z</time>
      </trkpt>
      <trkpt lat="47.30296" lon="6.23523">
        <ele>252.042</ele>
        <time>2019-09-30T12:00:37Z</time>
      </trkpt>
      <trkpt lat="47.30281" lon="6.23521">
        <ele>251.803</ele>
        <time>2019-09-30T12:00:40Z</time>
      </trkpt>
      <trkpt lat="47.30267" lon="6.23521">
        <ele>251.873</ele>
        <time>2019-09-30T12:00:43Z</time>
      </trkpt>
      <trkpt lat="47.30252" lon="6.23521">
        <ele>251.734</ele>
        <time>2019-09-30T12:00:46Z</time>
      </trkpt>
      <trkpt lat="47.30237" lon="6.2352">
        <ele>251.054</ele>
        <time>2019-09-30T12:00:49Z</time>
      </trkpt>
      <trkpt lat="47.30223" lon="6.23521">
        <ele>250.716</ele>
        <time>2019-09-30T12:00:52Z</time>
      </trkpt>
      <trkpt lat="47.30209" lon="6.23521">
        <ele>250.109</ele>
        <time>2019-09-30T12:00:55Z</time>
      </trkpt>
      <trkpt lat="47.30195" lon="6.23521">
        <ele>249.46</ele>
        <time>2019-09-30T12:00:58Z</time>
      </trkpt>
      <trkpt lat="47.30181" lon="6.23521">
        <ele>248.571</ele>
        <time>2019-09-30T12:01:01Z</time>
      </trkpt>
      <trkpt lat="47.30167" lon="6.23525">
        <ele>248.224</ele>
        <time>2019-09-30T12:01:04Z</time>
      </trkpt>
      <trkpt lat="47.30152" lon="6.2353">
        <ele>247.71</ele>
        <time>2019-09-30T12:01:07Z</time>
      </trkpt>
      <trkpt lat="47.30137" lon="6.23532">
        <ele>247.528</ele>
        <time>2019-09-30T12:01:10Z</time>
      </trkpt>
      <trkpt lat="47.30124" lon="6.23535">
        <ele>247.376</ele>
        <time>2019-09-30T12:01:13Z</time>
      </trkpt>
      <trkpt lat="47.30111" lon="6.23536">
        <ele>247.126</ele>
        <time>2019-09-30T12:01:16Z</time>
      </trkpt>
      <trkpt lat="47.301" lon="6.23535">
        <ele>247.521</ele>
        <time>2019-09-30T12:01:19Z</time>
      </trkpt>
      <trkpt lat="47.30092" lon="6.2353">
        <ele>247.737</ele>
        <time>2019-09-30T12:01:22Z</time>
      </trkpt>
      <trkpt lat="47.30082" lon="6.23529">
        <ele>248.281</ele>
        <time>2019-09-30T12:01:25Z</time>
      </trkpt>
      <trkpt lat="47.30072" lon="6.23527">
        <ele>248.723</ele>
        <time>2019-09-30T12:01:28Z</time>
      </trkpt>
      <trkpt lat="47.30063" lon="6.23524">
        <ele>249.426</ele>
        <time>2019-09-30T12:01:31Z</time>
      </trkpt>
      <trkpt lat="47.30055" lon="6.23523">
        <ele>250.232</ele>
        <time>2019-09-30T12:01:34Z</time>
      </trkpt>
      <trkpt lat="47.30046" lon="6.23522">
        <ele>250.929</ele>
        <time>2019-09-30T12:01:37Z</time>
      </trkpt>
      <trkpt lat="47.30037" lon="6.23521">
        <ele>252.169</ele>
        <time>2019-09-30T12:01:40Z</time>
      </trkpt>
      <trkpt lat="47.30027" lon="6.2352">
        <ele>252.832</ele>
        <time>2019-09-30T12:01:43Z</time>
      </trkpt>
      <trkpt lat="47.30019" lon="6.23518">
        <ele>253.649</ele>
        <time>2019-09-30T12:01:46Z</time>
      </trkpt>
      <trkpt lat="47.30011" lon="6.23511">
        <ele>253.668</ele>
        <time>2019-09-30T12:01:49Z</time>
      </trkpt>
      <trkpt lat="47.30005" lon="6.23505">
        <ele>254.9</ele>
        <time>2019-09-30T12:01:52Z</time>
      </trkpt>
      <trkpt lat="47.29998" lon="6.23498">
        <ele>256.015</ele>
        <time>2019-09-30T12:01:55Z</time>
      </trkpt>
      <trkpt lat="47.29992" lon="6.23491">
        <ele>256.94</ele>
        <time>2019-09-30T12:01:58Z</time>
      </trkpt>
      <trkpt lat="47.29986" lon="6.23483">
        <ele>257.579</ele>
        <time>2019-09-30T12:02:01Z</time>
      </trkpt>
      <trkpt lat="47.29979" lon="6.23475">
        <ele>258.136</ele>
        <time>2019-09-30T12:02:04Z</time>
      </trkpt>
      <trkpt lat="47.29973" lon="6.23468">
        <ele>258.337</ele>
        <time>2019-09-30T12:02:07Z</time>
      </trkpt>
      <trkpt lat="47.29966" lon="6.23461">
        <ele>258.606</ele>
        <time>2019-09-30T12:02:10Z</time>
      </trkpt>
      <trkpt lat="47.29961" lon="6.23454">
        <ele>258.742</ele>
        <time>2019-09-30T12:02:13Z</time>
      </trkpt>
      <trkpt lat="47.29955" lon="6.23446">
        <ele>259.079</ele>
        <time>2019-09-30T12:02:16Z</time>
      </trkpt>
      <trkpt lat="47.29948" lon="6.2344">
        <ele>259.492</ele>
        <time>2019-09-30T12:02:19Z</time>
      </trkpt>
      <trkpt lat="47.29942" lon="6.23433">
        <ele>260.029</ele>
        <time>2019-09-30T12:02:22Z</time>
      </trkpt>
      <trkpt lat="47.29935" lon="6.23426">
        <ele>260.918</ele>
        <time>2019-09-30T12:02:25Z</time>
      </trkpt>
      <trkpt lat="47.29928" lon="6.23421">
        <ele>261.061</ele>
        <time>2019-09-30T12:02:28Z</time>
      </trkpt>
      <trkpt lat="47.29918" lon="6.23416">
        <ele>260.643</ele>
        <time>2019-09-30T12:02:31Z</time>
      </trkpt>
      <trkpt lat="47.29909" lon="6.23413">
        <ele>261.243</ele>
        <time>2019-09-30T12:02:34Z</time>
      </trkpt>
      <trkpt lat="47.29899" lon="6.23411">
        <ele>261.986</ele>
        <time>2019-09-30T12:02:37Z</time>
      </trkpt>
      <trkpt lat="47.29889" lon="6.23407">
        <ele>263.44</ele>
        <time>2019-09-30T12:02:40Z</time>
      </trkpt>
      <trkpt lat="47.29881" lon="6.23402">
        <ele>263.785</ele>
        <time>2019-09-30T12:02:43Z</time>
      </trkpt>
      <trkpt lat="47.29872" lon="6.23401">
        <ele>263.196</ele>
        <time>2019-09-30T12:02:46Z</time>
      </trkpt>
      <trkpt lat="47.29863" lon="6.23407">
        <ele>262.222</ele>
        <time>2019-09-30T12:02:49Z</time>
      </trkpt>
      <trkpt lat="47.29848" lon="6.23413">
        <ele>260.514</ele>
        <time>2019-09-30T12:02:52Z</time>
      </trkpt>
      <trkpt lat="47.29829" lon="6.23419">
        <ele>258.632</ele>
        <time>2019-09-30T12:02:55Z</time>
      </trkpt>
      <trkpt lat="47.29808" lon="6.23422">
        <ele>256.931</ele>
        <time>2019-09-30T12:02:58Z</time>
      </trkpt>
      <trkpt lat="47.29786" lon="6.23408">
        <ele>255.288</ele>
        <time>2019-09-30T12:03:01Z</time>
      </trkpt>
      <trkpt lat="47.29772" lon="6.23385">
        <ele>254.942</ele>
        <time>2019-09-30T12:03:04Z</time>
      </trkpt>
      <trkpt lat="47.2976" lon="6.23368">
        <ele>255.478</ele>
        <time>2019-09-30T12:03:07Z</time>
      </trkpt>
      <trkpt lat="47.29751" lon="6.23351">
        <ele>255.641</ele>
        <time>2019-09-30T12:03:10Z</time>
      </trkpt>
      <trkpt lat="47.2974" lon="6.23336">
        <ele>255.28</ele>
        <time>2019-09-30T12:03:13Z</time>
      </trkpt>
      <trkpt lat="47.29732" lon="6.2332">
        <ele>254.792</ele>
        <time>2019-09-30T12:03:16Z</time>
      </trkpt>
      <trkpt lat="47.29727" lon="6.23305">
        <ele>254.321</ele>
        <time>2019-09-30T12:03:19Z</time>
      </trkpt>
      <trkpt lat="47.29717" lon="6.23304">
        <ele>253.587</ele>
        <time>2019-09-30T12:03:22Z</time>
      </trkpt>
      <trkpt lat="47.29702" lon="6.23312">
        <ele>252.246</ele>
        <time>2019-09-30T12:03:25Z</time>
      </trkpt>
      <trkpt lat="47.29684" lon="6.2332">
        <ele>251.807</ele>
        <time>2019-09-30T12:03:28Z</time>
      </trkpt>
      <trkpt lat="47.29665" lon="6.23331">
        <ele>251.382</ele>
        <time>2019-09-30T12:03:31Z</time>
      </trkpt>
      <trkpt lat="47.29645" lon="6.23343">
        <ele>250.287</ele>
        <time>2019-09-30T12:03:34Z</time>
      </trkpt>
      <trkpt lat="47.29628" lon="6.23336">
        <ele>250.246</ele>
        <time>2019-09-30T12:03:37Z</time>
      </trkpt>
      <trkpt lat="47.29619" lon="6.23313">
        <ele>250.701</ele>
        <time>2019-09-30T12:03:40Z</time>
      </trkpt>
      <trkpt lat="47.29611" lon="6.23289">
        <ele>250.315</ele>
        <time>2019-09-30T12:03:43Z</time>
      </trkpt>
      <trkpt lat="47.29604" lon="6.23265">
        <ele>249.457</ele>
        <time>2019-09-30T12:03:46Z</time>
      </trkpt>
      <trkpt lat="47.29599" lon="6.2324">
        <ele>248.897</ele>
        <time>2019-09-30T12:03:49Z</time>
      </trkpt>
      <trkpt lat="47.29595" lon="6.23216">
        <ele>248.194</ele>
        <time>2019-09-30T12:03:52Z</time>
      </trkpt>
      <trkpt lat="47.29592" lon="6.2319">
        <ele>247.694</ele>
        <time>2019-09-30T12:03:55Z</time>
      </trkpt>
      <trkpt lat="47.29591" lon="6.23165">
        <ele>247.418</ele>
        <time>2019-09-30T12:03:58Z</time>
      </trkpt>
      <trkpt lat="47.29594" lon="6.23143">
        <ele>247.715</ele>
        <time>2019-09-30T12:04:01Z</time>
      </trkpt>
      <trkpt lat="47.29598" lon="6.23118">
        <ele>247.441</ele>
        <time>2019-09-30T12:04:04Z</time>
      </trkpt>
      <trkpt lat="47.296" lon="6.23093">
        <ele>247.597</ele>
        <time>2019-09-30T12:04:07Z</time>
      </trkpt>
      <trkpt lat="47.29601" lon="6.23068">
        <ele>247.485</ele>
        <time>2019-09-30T12:04:10Z</time>
      </trkpt>
      <trkpt lat="47.29602" lon="6.23043">
        <ele>247.822</ele>
        <time>2019-09-30T12:04:13Z</time>
      </trkpt>
      <trkpt lat="47.29604" lon="6.23019">
        <ele>248.127</ele>
        <time>2019-09-30T12:04:16Z</time>
      </trkpt>
      <trkpt lat="47.29607" lon="6.22995">
        <ele>248.544</ele>
        <time>2019-09-30T12:04:19Z</time>
      </trkpt>
      <trkpt lat="47.2961" lon="6.22971">
        <ele>249.099</ele>
        <time>2019-09-30T12:04:22Z</time>
      </trkpt>
      <trkpt lat="47.29614" lon="6.22952">
        <ele>250.133</ele>
        <time>2019-09-30T12:04:25Z</time>
      </trkpt>
      <trkpt lat="47.29619" lon="6.22934">
        <ele>250.944</ele>
        <time>2019-09-30T12:04:28Z</time>
      </trkpt>
      <trkpt lat="47.29626" lon="6.22913">
        <ele>251.853</ele>
        <time>2019-09-30T12:04:31Z</time>
      </trkpt>
      <trkpt lat="47.29632" lon="6.22893">
        <ele>252.601</ele>
        <time>2019-09-30T12:04:34Z</time>
      </trkpt>
      <trkpt lat="47.29641" lon="6.22875">
        <ele>252.366</ele>
        <time>2019-09-30T12:04:37Z</time>
      </trkpt>
      <trkpt lat="47.29649" lon="6.22858">
        <ele>251.374</ele>
        <time>2019-09-30T12:04:40Z</time>
      </trkpt>
      <trkpt lat="47.29657" lon="6.2284">
        <ele>250.83</ele>
        <time>2019-09-30T12:04:43Z</time>
      </trkpt>
      <trkpt lat="47.29664" lon="6.22825">
        <ele>251.587</ele>
        <time>2019-09-30T12:04:46Z</time>
      </trkpt>
      <trkpt lat="47.29673" lon="6.2281">
        <ele>252.894</ele>
        <time>2019-09-30T12:04:49Z</time>
      </trkpt>
      <trkpt lat="47.29681" lon="6.22792">
        <ele>253.522</ele>
        <time>2019-09-30T12:04:52Z</time>
      </trkpt>
      <trkpt lat="47.29689" lon="6.22774">
        <ele>253.86</ele>
        <time>2019-09-30T12:04:55Z</time>
      </trkpt>
      <trkpt lat="47.29698" lon="6.22755">
        <ele>253.96</ele>
        <time>2019-09-30T12:04:58Z</time>
      </trkpt>
      <trkpt lat="47.29707" lon="6.22736">
        <ele>253.924</ele>
        <time>2019-09-30T12:05:01Z</time>
      </trkpt>
      <trkpt lat="47.29716" lon="6.22716">
        <ele>253.096</ele>
        <time>2019-09-30T12:05:04Z</time>
      </trkpt>
      <trkpt lat="47.29724" lon="6.22696">
        <ele>252.898</ele>
        <time>2019-09-30T12:05:07Z</time>
      </trkpt>
      <trkpt lat="47.29732" lon="6.22676">
        <ele>252.895</ele>
        <time>2019-09-30T12:05:10Z</time>
      </trkpt>
      <trkpt lat="47.29739" lon="6.22659">
        <ele>254.008</ele>
        <time>2019-09-30T12:05:13Z</time>
      </trkpt>
      <trkpt lat="47.29747" lon="6.22641">
        <ele>254.896</ele>
        <time>2019-09-30T12:05:16Z</time>
      </trkpt>
      <trkpt lat="47.29754" lon="6.22621">
        <ele>255.832</ele>
        <time>2019-09-30T12:05:19Z</time>
      </trkpt>
      <trkpt lat="47.29762" lon="6.226">
        <ele>256.773</ele>
        <time>2019-09-30T12:05:22Z</time>
      </trkpt>
      <trkpt lat="47.29769" lon="6.2258">
        <ele>258.005</ele>
        <time>2019-09-30T12:05:25Z</time>
      </trkpt>
      <trkpt lat="47.29776" lon="6.22558">
        <ele>258.776</ele>
        <time>2019-09-30T12:05:28Z</time>
      </trkpt>
      <trkpt lat="47.29782" lon="6.22537">
        <ele>260.348</ele>
        <time>2019-09-30T12:05:31Z</time>
      </trkpt>
      <trkpt lat="47.29789" lon="6.22516">
        <ele>262.021</ele>
        <time>2019-09-30T12:05:34Z</time>
      </trkpt>
      <trkpt lat="47.29795" lon="6.22495">
        <ele>262.752</ele>
        <time>2019-09-30T12:05:37Z</time>
      </trkpt>
      <trkpt lat="47.29801" lon="6.22473">
        <ele>262.776</ele>
        <time>2019-09-30T12:05:40Z</time>
      </trkpt>
      <trkpt lat="47.29806" lon="6.22451">
        <ele>262.762</ele>
        <time>2019-09-30T12:05:43Z</time>
      </trkpt>
      <trkpt lat="47.29812" lon="6.22427">
        <ele>260.579</ele>
        <time>2019-09-30T12:05:46Z</time>
      </trkpt>
      <trkpt lat="47.29818" lon="6.22405">
        <ele>260.125</ele>
        <time>2019-09-30T12:05:49Z</time>
      </trkpt>
      <trkpt lat="47.29824" lon="6.22383">
        <ele>258.876</ele>
        <time>2019-09-30T12:05:52Z</time>
      </trkpt>
      <trkpt lat="47.2983" lon="6.22364">
        <ele>257.294</ele>
        <time>2019-09-30T12:05:55Z</time>
      </trkpt>
      <trkpt lat="47.29835" lon="6.22344">
        <ele>255.853</ele>
        <time>2019-09-30T12:05:58Z</time>
      </trkpt>
      <trkpt lat="47.2984" lon="6.22324">
        <ele>254.813</ele>
        <time>2019-09-30T12:06:01Z</time>
      </trkpt>
      <trkpt lat="47.29845" lon="6.22305">
        <ele>253.797</ele>
        <time>2019-09-30T12:06:04Z</time>
      </trkpt>
      <trkpt lat="47.2985" lon="6.22282">
        <ele>252.969</ele>
        <time>2019-09-30T12:06:07Z</time>
      </trkpt>
      <trkpt lat="47.29854" lon="6.22259">
        <ele>252.22</ele>
        <time>2019-09-30T12:06:10Z</time>
      </trkpt>
      <trkpt lat="47.29859" lon="6.22235">
        <ele>252.067</ele>
        <time>2019-09-30T12:06:13Z</time>
      </trkpt>
      <trkpt lat="47.29864" lon="6.22212">
        <ele>251.924</ele>
        <time>2019-09-30T12:06:16Z</time>
      </trkpt>
      <trkpt lat="47.29869" lon="6.2219">
        <ele>251.812</ele>
        <time>2019-09-30T12:06:19Z</time>
      </trkpt>
      <trkpt lat="47.29874" lon="6.22169">
        <ele>251.559</ele>
        <time>2019-09-30T12:06:22Z</time>
      </trkpt>
      <trkpt lat="47.29882" lon="6.22152">
        <ele>251.148</ele>
        <time>2019-09-30T12:06:25Z</time>
      </trkpt>
      <trkpt lat="47.29892" lon="6.22144">
        <ele>251.99</ele>
        <time>2019-09-30T12:06:28Z</time>
      </trkpt>
      <trkpt lat="47.29899" lon="6.22131">
        <ele>251.685</ele>
        <time>2019-09-30T12:06:31Z</time>
      </trkpt>
      <trkpt lat="47.29907" lon="6.22115">
        <ele>252.263</ele>
        <time>2019-09-30T12:06:34Z</time>
      </trkpt>
      <trkpt lat="47.29914" lon="6.22099">
        <ele>252.774</ele>
        <time>2019-09-30T12:06:37Z</time>
      </trkpt>
      <trkpt lat="47.29924" lon="6.22081">
        <ele>253.102</ele>
        <time>2019-09-30T12:06:40Z</time>
      </trkpt>
      <trkpt lat="47.29934" lon="6.22064">
        <ele>253.022</ele>
        <time>2019-09-30T12:06:43Z</time>
      </trkpt>
      <trkpt lat="47.29944" lon="6.22047">
        <ele>252.555</ele>
        <time>2019-09-30T12:06:46Z</time>
      </trkpt>
      <trkpt lat="47.29954" lon="6.22031">
        <ele>252.545</ele>
        <time>2019-09-30T12:06:49Z</time>
      </trkpt>
      <trkpt lat="47.29965" lon="6.22014">
        <ele>252.412</ele>
        <time>2019-09-30T12:06:52Z</time>
      </trkpt>
      <trkpt lat="47.29976" lon="6.21998">
        <ele>251.863</ele>
        <time>2019-09-30T12:06:55Z</time>
      </trkpt>
      <trkpt lat="47.2999" lon="6.21987">
        <ele>251.144</ele>
        <time>2019-09-30T12:06:58Z</time>
      </trkpt>
      <trkpt lat="47.30002" lon="6.21971">
        <ele>251.947</ele>
        <time>2019-09-30T12:07:01Z</time>
      </trkpt>
      <trkpt lat="47.30012" lon="6.21953">
        <ele>252.853</ele>
        <time>2019-09-30T12:07:04Z</time>
      </trkpt>
      <trkpt lat="47.30021" lon="6.21935">
        <ele>252.654</ele>
        <time>2019-09-30T12:07:07Z</time>
      </trkpt>
      <trkpt lat="47.30032" lon="6.21918">
        <ele>252.439</ele>
        <time>2019-09-30T12:07:10Z</time>
      </trkpt>
      <trkpt lat="47.30043" lon="6.21901">
        <ele>252.981</ele>
        <time>2019-09-30T12:07:13Z</time>
      </trkpt>
      <trkpt lat="47.30053" lon="6.21884">
        <ele>254.281</ele>
        <time>2019-09-30T12:07:16Z</time>
      </trkpt>
      <trkpt lat="47.30063" lon="6.21865">
        <ele>254.881</ele>
        <time>2019-09-30T12:07:19Z</time>
      </trkpt>
      <trkpt lat="47.30074" lon="6.21846">
        <ele>255.608</ele>
        <time>2019-09-30T12:07:22Z</time>
      </trkpt>
      <trkpt lat="47.30084" lon="6.21828">
        <ele>256.235</ele>
        <time>2019-09-30T12:07:25Z</time>
      </trkpt>
      <trkpt lat="47.30094" lon="6.21811">
        <ele>256.972</ele>
        <time>2019-09-30T12:07:28Z</time>
      </trkpt>
      <trkpt lat="47.30105" lon="6.21795">
        <ele>258.192</ele>
        <time>2019-09-30T12:07:31Z</time>
      </trkpt>
      <trkpt lat="47.30116" lon="6.21778">
        <ele>258.856</ele>
        <time>2019-09-30T12:07:34Z</time>
      </trkpt>
      <trkpt lat="47.30126" lon="6.2176">
        <ele>259.333</ele>
        <time>2019-09-30T12:07:37Z</time>
      </trkpt>
      <trkpt lat="47.30136" lon="6.21745">
        <ele>260.18</ele>
        <time>2019-09-30T12:07:40Z</time>
      </trkpt>
      <trkpt lat="47.30146" lon="6.21728">
        <ele>261.093</ele>
        <time>2019-09-30T12:07:43Z</time>
      </trkpt>
      <trkpt lat="47.30154" lon="6.21709">
        <ele>261.778</ele>
        <time>2019-09-30T12:07:46Z</time>
      </trkpt>
      <trkpt lat="47.30164" lon="6.21693">
        <ele>261.44</ele>
        <time>2019-09-30T12:07:49Z</time>
      </trkpt>
      <trkpt lat="47.30174" lon="6.21677">
        <ele>261.71</ele>
        <time>2019-09-30T12:07:52Z</time>
      </trkpt>
      <trkpt lat="47.30185" lon="6.2166">
        <ele>262.303</ele>
        <time>2019-09-30T12:07:55Z</time>
      </trkpt>
      <trkpt lat="47.30196" lon="6.21642">
        <ele>261.857</ele>
        <time>2019-09-30T12:07:58Z</time>
      </trkpt>
      <trkpt lat="47.30209" lon="6.21625">
        <ele>261.043</ele>
        <time>2019-09-30T12:08:01Z</time>
      </trkpt>
      <trkpt lat="47.30222" lon="6.21607">
        <ele>260.97</ele>
        <time>2019-09-30T12:08:04Z</time>
      </trkpt>
      <trkpt lat="47.30236" lon="6.21591">
        <ele>260.892</ele>
        <time>2019-09-30T12:08:07Z</time>
      </trkpt>
      <trkpt lat="47.30248" lon="6.21575">
        <ele>261.164</ele>
        <time>2019-09-30T12:08:10Z</time>
      </trkpt>
      <trkpt lat="47.30257" lon="6.21556">
        <ele>261.664</ele>
        <time>2019-09-30T12:08:13Z</time>
      </trkpt>
      <trkpt lat="47.30266" lon="6.21537">
        <ele>261.991</ele>
        <time>2019-09-30T12:08:16Z</time>
      </trkpt>
      <trkpt lat="47.30275" lon="6.21517">
        <ele>262.169</ele>
        <time>2019-09-30T12:08:19Z</time>
      </trkpt>
      <trkpt lat="47.30284" lon="6.21498">
        <ele>261.35</ele>
        <time>2019-09-30T12:08:22Z</time>
      </trkpt>
      <trkpt lat="47.30294" lon="6.2148">
        <ele>260.983</ele>
        <time>2019-09-30T12:08:25Z</time>
      </trkpt>
      <trkpt lat="47.30305" lon="6.21462">
        <ele>261.549</ele>
        <time>2019-09-30T12:08:28Z</time>
      </trkpt>
      <trkpt lat="47.30316" lon="6.21447">
        <ele>262.517</ele>
        <time>2019-09-30T12:08:31Z</time>
      </trkpt>
      <trkpt lat="47.30326" lon="6.21432">
        <ele>264.156</ele>
        <time>2019-09-30T12:08:34Z</time>
      </trkpt>
      <trkpt lat="47.3033" lon="6.21414">
        <ele>264.478</ele>
        <time>2019-09-30T12:08:37Z</time>
      </trkpt>
      <trkpt lat="47.30333" lon="6.21393">
        <ele>264.993</ele>
        <time>2019-09-30T12:08:40Z</time>
      </trkpt>
      <trkpt lat="47.30336" lon="6.21372">
        <ele>265.267</ele>
        <time>2019-09-30T12:08:43Z</time>
      </trkpt>
      <trkpt lat="47.3034" lon="6.2135">
        <ele>264.182</ele>
        <time>2019-09-30T12:08:46Z</time>
      </trkpt>
      <trkpt lat="47.30343" lon="6.21329">
        <ele>263.93</ele>
        <time>2019-09-30T12:08:49Z</time>
      </trkpt>
      <trkpt lat="47.30346" lon="6.21307">
        <ele>264.26</ele>
        <time>2019-09-30T12:08:52Z</time>
      </trkpt>
      <trkpt lat="47.30349" lon="6.21285">
        <ele>264.5</ele>
        <time>2019-09-30T12:08:55Z</time>
      </trkpt>
      <trkpt lat="47.30354" lon="6.21265">
        <ele>264.843</ele>
        <time>2019-09-30T12:08:58Z</time>
      </trkpt>
      <trkpt lat="47.30356" lon="6.21246">
        <ele>264.636</ele>
        <time>2019-09-30T12:09:01Z</time>
      </trkpt>
      <trkpt lat="47.30361" lon="6.21226">
        <ele>265.041</ele>
        <time>2019-09-30T12:09:04Z</time>
      </trkpt>
      <trkpt lat="47.30366" lon="6.21205">
        <ele>265.344</ele>
        <time>2019-09-30T12:09:07Z</time>
      </trkpt>
      <trkpt lat="47.30372" lon="6.21183">
        <ele>264.371</ele>
        <time>2019-09-30T12:09:10Z</time>
      </trkpt>
      <trkpt lat="47.30377" lon="6.21161">
        <ele>264.687</ele>
        <time>2019-09-30T12:09:13Z</time>
      </trkpt>
      <trkpt lat="47.3038" lon="6.21139">
        <ele>266.363</ele>
        <time>2019-09-30T12:09:16Z</time>
      </trkpt>
      <trkpt lat="47.30385" lon="6.21116">
        <ele>266.775</ele>
        <time>2019-09-30T12:09:19Z</time>
      </trkpt>
      <trkpt lat="47.30388" lon="6.21094">
        <ele>266.116</ele>
        <time>2019-09-30T12:09:22Z</time>
      </trkpt>
      <trkpt lat="47.30391" lon="6.21076">
        <ele>265.575</ele>
        <time>2019-09-30T12:09:25Z</time>
      </trkpt>
      <trkpt lat="47.30393" lon="6.21065">
        <ele>264.953</ele>
        <time>2019-09-30T12:09:28Z</time>
      </trkpt>
      <trkpt lat="47.30393" lon="6.21064">
        <ele>264.543</ele>
        <time>2019-09-30T12:09:31Z</time>
      </trkpt>
      <trkpt lat="47.30393" lon="6.21064">
        <ele>264.543</ele>
        <time>2019-09-30T12:11:52Z</time>
      </trkpt>
      <trkpt lat="47.30392" lon="6.21057">
        <ele>264.324</ele>
        <time>2019-09-30T12:11:55Z</time>
      </trkpt>
      <trkpt lat="47.30391" lon="6.21049">
        <ele>264.703</ele>
        <time>2019-09-30T12:11:58Z</time>
      </trkpt>
      <trkpt lat="47.30391" lon="6.21039">
        <ele>264.403</ele>
        <time>2019-09-30T12:12:01Z</time>
      </trkpt>
      <trkpt lat="47.30391" lon="6.21026">
        <ele>263.779</ele>
        <time>2019-09-30T12:12:04Z</time>
      </trkpt>
      <trkpt lat="47.3039" lon="6.21011">
        <ele>263.091</ele>
        <time>2019-09-30T12:12:07Z</time>
      </trkpt>
      <trkpt lat="47.30389" lon="6.20996">
        <ele>262.515</ele>
        <time>2019-09-30T12:12:10Z</time>
      </trkpt>
      <trkpt lat="47.30388" lon="6.20979">
        <ele>261.47</ele>
        <time>2019-09-30T12:12:13Z</time>
      </trkpt>
      <trkpt lat="47.30387" lon="6.20962">
        <ele>261.391</ele>
        <time>2019-09-30T12:12:16Z</time>
      </trkpt>
      <trkpt lat="47.30386" lon="6.20946">
        <ele>261.222</ele>
        <time>2019-09-30T12:12:19Z</time>
      </trkpt>
      <trkpt lat="47.30383" lon="6.20928">
        <ele>260.403</ele>
        <time>2019-09-30T12:12:22Z</time>
      </trkpt>
      <trkpt lat="47.30379" lon="6.2091">
        <ele>259.798</ele>
        <time>2019-09-30T12:12:25Z</time>
      </trkpt>
      <trkpt lat="47.30376" lon="6.20893">
        <ele>258.634</ele>
        <time>2019-09-30T12:12:28Z</time>
      </trkpt>
      <trkpt lat="47.30372" lon="6.20874">
        <ele>256.822</ele>
        <time>2019-09-30T12:12:31Z</time>
      </trkpt>
      <trkpt lat="47.30366" lon="6.20857">
        <ele>255.434</ele>
        <time>2019-09-30T12:12:34Z</time>
      </trkpt>
      <trkpt lat="47.3036" lon="6.20841">
        <ele>254.893</ele>
        <time>2019-09-30T12:12:37Z</time>
      </trkpt>
      <trkpt lat="47.30353" lon="6.20825">
        <ele>254.06</ele>
        <time>2019-09-30T12:12:40Z</time>
      </trkpt>
      <trkpt lat="47.30347" lon="6.20808">
        <ele>254.002</ele>
        <time>2019-09-30T12:12:43Z</time>
      </trkpt>
      <trkpt lat="47.30339" lon="6.20791">
        <ele>253.933</ele>
        <time>2019-09-30T12:12:46Z</time>
      </trkpt>
      <trkpt lat="47.30332" lon="6.20779">
        <ele>254.287</ele>
        <time>2019-09-30T12:12:49Z</time>
      </trkpt>
      <trkpt lat="47.30327" lon="6.2077">
        <ele>254.306</ele>
        <time>2019-09-30T12:12:52Z</time>
      </trkpt>
      <trkpt lat="47.3032" lon="6.20762">
        <ele>253.756</ele>
        <time>2019-09-30T12:12:55Z</time>
      </trkpt>
      <trkpt lat="47.30314" lon="6.20754">
        <ele>254.236</ele>
        <time>2019-09-30T12:12:58Z</time>
      </trkpt>
      <trkpt lat="47.30305" lon="6.20747">
        <ele>255.02</ele>
        <time>2019-09-30T12:13:01Z</time>
      </trkpt>
      <trkpt lat="47.30297" lon="6.20739">
        <ele>255.163</ele>
        <time>2019-09-30T12:13:04Z</time>
      </trkpt>
      <trkpt lat="47.30289" lon="6.20732">
        <ele>255.432</ele>
        <time>2019-09-30T12:13:07Z</time>
      </trkpt>
      <trkpt lat="47.30281" lon="6.20724">
        <ele>256.382</ele>
        <time>2019-09-30T12:13:10Z</time>
      </trkpt>
      <trkpt lat="47.30274" lon="6.20717">
        <ele>257.382</ele>
        <time>2019-09-30T12:13:13Z</time>
      </trkpt>
      <trkpt lat="47.30265" lon="6.2071">
        <ele>257.799</ele>
        <time>2019-09-30T12:13:16Z</time>
      </trkpt>
      <trkpt lat="47.30257" lon="6.20704">
        <ele>259.076</ele>
        <time>2019-09-30T12:13:19Z</time>
      </trkpt>
      <trkpt lat="47.30251" lon="6.20698">
        <ele>259.933</ele>
        <time>2019-09-30T12:13:22Z</time>
      </trkpt>
      <trkpt lat="47.30243" lon="6.20691">
        <ele>260.413</ele>
        <time>2019-09-30T12:13:25Z</time>
      </trkpt>
      <trkpt lat="47.30236" lon="6.20683">
        <ele>260.222</ele>
        <time>2019-09-30T12:13:28Z</time>
      </trkpt>
      <trkpt lat="47.30228" lon="6.20676">
        <ele>260.358</ele>
        <time>2019-09-30T12:13:31Z</time>
      </trkpt>
      <trkpt lat="47.30219" lon="6.20668">
        <ele>260.666</ele>
        <time>2019-09-30T12:13:34Z</time>
      </trkpt>
      <trkpt lat="47.3021" lon="6.20661">
        <ele>259.678</ele>
        <time>2019-09-30T12:13:37Z</time>
      </trkpt>
      <trkpt lat="47.30199" lon="6.20653">
        <ele>259.36</ele>
        <time>2019-09-30T12:13:40Z</time>
      </trkpt>
      <trkpt lat="47.30184" lon="6.20644">
        <ele>258.583</ele>
        <time>2019-09-30T12:13:43Z</time>
      </trkpt>
      <trkpt lat="47.30163" lon="6.20637">
        <ele>257.716</ele>
        <time>2019-09-30T12:13:46Z</time>
      </trkpt>
      <trkpt lat="47.3014" lon="6.20629">
        <ele>256.529</ele>
        <time>2019-09-30T12:13:49Z</time>
      </trkpt>
      <trkpt lat="47.30115" lon="6.20619">
        <ele>255.089</ele>
        <time>2019-09-30T12:13:52Z</time>
      </trkpt>
      <trkpt lat="47.30091" lon="6.20607">
        <ele>253.52</ele>
        <time>2019-09-30T12:13:55Z</time>
      </trkpt>
      <trkpt lat="47.30069" lon="6.20595">
        <ele>252.642</ele>
        <time>2019-09-30T12:13:58Z</time>
      </trkpt>
      <trkpt lat="47.30049" lon="6.20585">
        <ele>251.846</ele>
        <time>2019-09-30T12:14:01Z</time>
      </trkpt>
      <trkpt lat="47.30031" lon="6.20577">
        <ele>251.072</ele>
        <time>2019-09-30T12:14:04Z</time>
      </trkpt>
      <trkpt lat="47.30013" lon="6.20572">
        <ele>250.417</ele>
        <time>2019-09-30T12:14:07Z</time>
      </trkpt>
      <trkpt lat="47.29996" lon="6.20567">
        <ele>249.658</ele>
        <time>2019-09-30T12:14:10Z</time>
      </trkpt>
      <trkpt lat="47.29979" lon="6.20562">
        <ele>248.968</ele>
        <time>2019-09-30T12:14:13Z</time>
      </trkpt>
      <trkpt lat="47.29962" lon="6.20557">
        <ele>248.344</ele>
        <time>2019-09-30T12:14:16Z</time>
      </trkpt>
      <trkpt lat="47.29945" lon="6.2055">
        <ele>247.785</ele>
        <time>2019-09-30T12:14:19Z</time>
      </trkpt>
      <trkpt lat="47.29929" lon="6.20543">
        <ele>247.603</ele>
        <time>2019-09-30T12:14:22Z</time>
      </trkpt>
      <trkpt lat="47.29913" lon="6.20537">
        <ele>247.038</ele>
        <time>2019-09-30T12:14:25Z</time>
      </trkpt>
      <trkpt lat="47.29897" lon="6.20529">
        <ele>246.917</ele>
        <time>2019-09-30T12:14:28Z</time>
      </trkpt>
      <trkpt lat="47.29881" lon="6.20523">
        <ele>247.202</ele>
        <time>2019-09-30T12:14:31Z</time>
      </trkpt>
      <trkpt lat="47.29867" lon="6.20517">
        <ele>247.772</ele>
        <time>2019-09-30T12:14:34Z</time>
      </trkpt>
      <trkpt lat="47.29855" lon="6.20511">
        <ele>247.721</ele>
        <time>2019-09-30T12:14:37Z</time>
      </trkpt>
      <trkpt lat="47.29842" lon="6.20506">
        <ele>247.825</ele>
        <time>2019-09-30T12:14:40Z</time>
      </trkpt>
      <trkpt lat="47.29828" lon="6.20499">
        <ele>248.522</ele>
        <time>2019-09-30T12:14:43Z</time>
      </trkpt>
      <trkpt lat="47.29813" lon="6.20494">
        <ele>249.096</ele>
        <time>2019-09-30T12:14:46Z</time>
      </trkpt>
      <trkpt lat="47.29798" lon="6.20488">
        <ele>249.035</ele>
        <time>2019-09-30T12:14:49Z</time>
      </trkpt>
      <trkpt lat="47.29783" lon="6.20481">
        <ele>248.486</ele>
        <time>2019-09-30T12:14:52Z</time>
      </trkpt>
      <trkpt lat="47.29768" lon="6.20477">
        <ele>248.377</ele>
        <time>2019-09-30T12:14:55Z</time>
      </trkpt>
      <trkpt lat="47.29754" lon="6.20472">
        <ele>248.693</ele>
        <time>2019-09-30T12:14:58Z</time>
      </trkpt>
      <trkpt lat="47.29739" lon="6.20467">
        <ele>248.096</ele>
        <time>2019-09-30T12:15:01Z</time>
      </trkpt>
      <trkpt lat="47.29724" lon="6.20463">
        <ele>247.795</ele>
        <time>2019-09-30T12:15:04Z</time>
      </trkpt>
      <trkpt lat="47.29709" lon="6.20459">
        <ele>247.667</ele>
        <time>2019-09-30T12:15:07Z</time>
      </trkpt>
      <trkpt lat="47.29694" lon="6.20456">
        <ele>248.031</ele>
        <time>2019-09-30T12:15:10Z</time>
      </trkpt>
      <trkpt lat="47.2968" lon="6.20453">
        <ele>248.72</ele>
        <time>2019-09-30T12:15:13Z</time>
      </trkpt>
      <trkpt lat="47.29665" lon="6.20451">
        <ele>249.329</ele>
        <time>2019-09-30T12:15:16Z</time>
      </trkpt>
      <trkpt lat="47.29651" lon="6.20448">
        <ele>249.915</ele>
        <time>2019-09-30T12:15:19Z</time>
      </trkpt>
      <trkpt lat="47.29637" lon="6.20444">
        <ele>250.695</ele>
        <time>2019-09-30T12:15:22Z</time>
      </trkpt>
      <trkpt lat="47.29625" lon="6.20441">
        <ele>251.081</ele>
        <time>2019-09-30T12:15:25Z</time>
      </trkpt>
      <trkpt lat="47.29613" lon="6.2044">
        <ele>251.47</ele>
        <time>2019-09-30T12:15:28Z</time>
      </trkpt>
      <trkpt lat="47.29598" lon="6.20437">
        <ele>252.523</ele>
        <time>2019-09-30T12:15:31Z</time>
      </trkpt>
      <trkpt lat="47.29583" lon="6.20432">
        <ele>252.722</ele>
        <time>2019-09-30T12:15:34Z</time>
      </trkpt>
      <trkpt lat="47.29568" lon="6.20428">
        <ele>253.553</ele>
        <time>2019-09-30T12:15:37Z</time>
      </trkpt>
      <trkpt lat="47.29551" lon="6.20426">
        <ele>253.536</ele>
        <time>2019-09-30T12:15:40Z</time>
      </trkpt>
      <trkpt lat="47.29535" lon="6.20424">
        <ele>254.23</ele>
        <time>2019-09-30T12:15:43Z</time>
      </trkpt>
      <trkpt lat="47.29519" lon="6.20422">
        <ele>254.53</ele>
        <time>2019-09-30T12:15:46Z</time>
      </trkpt>
      <trkpt lat="47.29504" lon="6.20416">
        <ele>253.463</ele>
        <time>2019-09-30T12:15:49Z</time>
      </trkpt>
      <trkpt lat="47.2949" lon="6.2041">
        <ele>253.096</ele>
        <time>2019-09-30T12:15:52Z</time>
      </trkpt>
      <trkpt lat="47.29476" lon="6.20404">
        <ele>252.796</ele>
        <time>2019-09-30T12:15:55Z</time>
      </trkpt>
      <trkpt lat="47.29462" lon="6.20398">
        <ele>252.284</ele>
        <time>2019-09-30T12:15:58Z</time>
      </trkpt>
      <trkpt lat="47.29448" lon="6.20392">
        <ele>252.213</ele>
        <time>2019-09-30T12:16:01Z</time>
      </trkpt>
      <trkpt lat="47.29433" lon="6.20387">
        <ele>252.523</ele>
        <time>2019-09-30T12:16:04Z</time>
      </trkpt>
      <trkpt lat="47.29419" lon="6.20382">
        <ele>253.168</ele>
        <time>2019-09-30T12:16:07Z</time>
      </trkpt>
      <trkpt lat="47.29404" lon="6.20375">
        <ele>253.4</ele>
        <time>2019-09-30T12:16:10Z</time>
      </trkpt>
      <trkpt lat="47.29389" lon="6.20368">
        <ele>253.985</ele>
        <time>2019-09-30T12:16:13Z</time>
      </trkpt>
      <trkpt lat="47.29374" lon="6.20361">
        <ele>254.216</ele>
        <time>2019-09-30T12:16:16Z</time>
      </trkpt>
      <trkpt lat="47.29359" lon="6.20354">
        <ele>254.546</ele>
        <time>2019-09-30T12:16:19Z</time>
      </trkpt>
      <trkpt lat="47.29344" lon="6.20346">
        <ele>254.775</ele>
        <time>2019-09-30T12:16:22Z</time>
      </trkpt>
      <trkpt lat="47.29329" lon="6.20339">
        <ele>255.304</ele>
        <time>2019-09-30T12:16:25Z</time>
      </trkpt>
      <trkpt lat="47.29315" lon="6.20331">
        <ele>255.355</ele>
        <time>2019-09-30T12:16:28Z</time>
      </trkpt>
      <trkpt lat="47.293" lon="6.20322">
        <ele>255.154</ele>
        <time>2019-09-30T12:16:31Z</time>
      </trkpt>
      <trkpt lat="47.29285" lon="6.20313">
        <ele>254.979</ele>
        <time>2019-09-30T12:16:34Z</time>
      </trkpt>
      <trkpt lat="47.29272" lon="6.20305">
        <ele>254.604</ele>
        <time>2019-09-30T12:16:37Z</time>
      </trkpt>
      <trkpt lat="47.29261" lon="6.20298">
        <ele>254.1</ele>
        <time>2019-09-30T12:16:40Z</time>
      </trkpt>
      <trkpt lat="47.29254" lon="6.20295">
        <ele>253.433</ele>
        <time>2019-09-30T12:16:43Z</time>
      </trkpt>
      <trkpt lat="47.29248" lon="6.20299">
        <ele>252.596</ele>
        <time>2019-09-30T12:16:46Z</time>
      </trkpt>
      <trkpt lat="47.29245" lon="6.20307">
        <ele>252.561</ele>
        <time>2019-09-30T12:16:49Z</time>
      </trkpt>
      <trkpt lat="47.29242" lon="6.20314">
        <ele>252.096</ele>
        <time>2019-09-30T12:16:52Z</time>
      </trkpt>
      <trkpt lat="47.29233" lon="6.20318">
        <ele>252.345</ele>
        <time>2019-09-30T12:16:55Z</time>
      </trkpt>
      <trkpt lat="47.29218" lon="6.2031">
        <ele>252.406</ele>
        <time>2019-09-30T12:16:58Z</time>
      </trkpt>
      <trkpt lat="47.29202" lon="6.20298">
        <ele>252.801</ele>
        <time>2019-09-30T12:17:01Z</time>
      </trkpt>
      <trkpt lat="47.29186" lon="6.20287">
        <ele>253.398</ele>
        <time>2019-09-30T12:17:04Z</time>
      </trkpt>
      <trkpt lat="47.29172" lon="6.20275">
        <ele>253.538</ele>
        <time>2019-09-30T12:17:07Z</time>
      </trkpt>
      <trkpt lat="47.29159" lon="6.20265">
        <ele>253.341</ele>
        <time>2019-09-30T12:17:10Z</time>
      </trkpt>
      <trkpt lat="47.29144" lon="6.20259">
        <ele>252.957</ele>
        <time>2019-09-30T12:17:13Z</time>
      </trkpt>
      <trkpt lat="47.29128" lon="6.20258">
        <ele>253.033</ele>
        <time>2019-09-30T12:17:16Z</time>
      </trkpt>
      <trkpt lat="47.29112" lon="6.2025">
        <ele>253.658</ele>
        <time>2019-09-30T12:17:19Z</time>
      </trkpt>
      <trkpt lat="47.29099" lon="6.2024">
        <ele>253.548</ele>
        <time>2019-09-30T12:17:22Z</time>
      </trkpt>
      <trkpt lat="47.2909" lon="6.20232">
        <ele>254.038</ele>
        <time>2019-09-30T12:17:25Z</time>
      </trkpt>
      <trkpt lat="47.29078" lon="6.20227">
        <ele>254.733</ele>
        <time>2019-09-30T12:17:28Z</time>
      </trkpt>
      <trkpt lat="47.29068" lon="6.20222">
        <ele>256.295</ele>
        <time>2019-09-30T12:17:31Z</time>
      </trkpt>
      <trkpt lat="47.29061" lon="6.20221">
        <ele>257.024</ele>
        <time>2019-09-30T12:17:34Z</time>
      </trkpt>
      <trkpt lat="47.29056" lon="6.20217">
        <ele>256.202</ele>
        <time>2019-09-30T12:17:37Z</time>
      </trkpt>
      <trkpt lat="47.29052" lon="6.20206">
        <ele>254.856</ele>
        <time>2019-09-30T12:17:40Z</time>
      </trkpt>
      <trkpt lat="47.29048" lon="6.20189">
        <ele>254.747</ele>
        <time>2019-09-30T12:17:43Z</time>
      </trkpt>
      <trkpt lat="47.29042" lon="6.20175">
        <ele>253.937</ele>
        <time>2019-09-30T12:17:46Z</time>
      </trkpt>
      <trkpt lat="47.29036" lon="6.20162">
        <ele>254.146</ele>
        <time>2019-09-30T12:17:49Z</time>
      </trkpt>
      <trkpt lat="47.2903" lon="6.20147">
        <ele>254.177</ele>
        <time>2019-09-30T12:17:52Z</time>
      </trkpt>
      <trkpt lat="47.29024" lon="6.20133">
        <ele>253.761</ele>
        <time>2019-09-30T12:17:55Z</time>
      </trkpt>
      <trkpt lat="47.29018" lon="6.20121">
        <ele>253.429</ele>
        <time>2019-09-30T12:17:58Z</time>
      </trkpt>
      <trkpt lat="47.29013" lon="6.20111">
        <ele>254.078</ele>
        <time>2019-09-30T12:18:01Z</time>
      </trkpt>
      <trkpt lat="47.29008" lon="6.20097">
        <ele>255.395</ele>
        <time>2019-09-30T12:18:04Z</time>
      </trkpt>
      <trkpt lat="47.29007" lon="6.20081">
        <ele>256.44</ele>
        <time>2019-09-30T12:18:07Z</time>
      </trkpt>
      <trkpt lat="47.29008" lon="6.20065">
        <ele>256.329</ele>
        <time>2019-09-30T12:18:10Z</time>
      </trkpt>
      <trkpt lat="47.29003" lon="6.20049">
        <ele>255.977</ele>
        <time>2019-09-30T12:18:13Z</time>
      </trkpt>
      <trkpt lat="47.28996" lon="6.20034">
        <ele>255.28</ele>
        <time>2019-09-30T12:18:16Z</time>
      </trkpt>
      <trkpt lat="47.28991" lon="6.20018">
        <ele>254.414</ele>
        <time>2019-09-30T12:18:19Z</time>
      </trkpt>
      <trkpt lat="47.28985" lon="6.2">
        <ele>253.732</ele>
        <time>2019-09-30T12:18:22Z</time>
      </trkpt>
      <trkpt lat="47.28979" lon="6.19983">
        <ele>253.627</ele>
        <time>2019-09-30T12:18:25Z</time>
      </trkpt>
      <trkpt lat="47.28973" lon="6.19963">
        <ele>252.971</ele>
        <time>2019-09-30T12:18:28Z</time>
      </trkpt>
      <trkpt lat="47.28966" lon="6.19942">
        <ele>252.584</ele>
        <time>2019-09-30T12:18:31Z</time>
      </trkpt>
      <trkpt lat="47.28959" lon="6.1992">
        <ele>251.794</ele>
        <time>2019-09-30T12:18:34Z</time>
      </trkpt>
      <trkpt lat="47.28954" lon="6.19899">
        <ele>251.019</ele>
        <time>2019-09-30T12:18:37Z</time>
      </trkpt>
      <trkpt lat="47.28948" lon="6.19878">
        <ele>250.538</ele>
        <time>2019-09-30T12:18:40Z</time>
      </trkpt>
      <trkpt lat="47.28943" lon="6.19857">
        <ele>249.516</ele>
        <time>2019-09-30T12:18:43Z</time>
      </trkpt>
      <trkpt lat="47.28938" lon="6.19836">
        <ele>248.545</ele>
        <time>2019-09-30T12:18:46Z</time>
      </trkpt>
      <trkpt lat="47.28935" lon="6.19814">
        <ele>247.972</ele>
        <time>2019-09-30T12:18:49Z</time>
      </trkpt>
      <trkpt lat="47.28932" lon="6.19792">
        <ele>247.664</ele>
        <time>2019-09-30T12:18:52Z</time>
      </trkpt>
      <trkpt lat="47.2893" lon="6.19769">
        <ele>247.28</ele>
        <time>2019-09-30T12:18:55Z</time>
      </trkpt>
      <trkpt lat="47.28926" lon="6.19748">
        <ele>246.964</ele>
        <time>2019-09-30T12:18:58Z</time>
      </trkpt>
      <trkpt lat="47.28923" lon="6.19727">
        <ele>246.58</ele>
        <time>2019-09-30T12:19:01Z</time>
      </trkpt>
      <trkpt lat="47.2892" lon="6.19704">
        <ele>246.354</ele>
        <time>2019-09-30T12:19:04Z</time>
      </trkpt>
      <trkpt lat="47.28916" lon="6.19682">
        <ele>245.42</ele>
        <time>2019-09-30T12:19:07Z</time>
      </trkpt>
      <trkpt lat="47.28913" lon="6.19661">
        <ele>244.937</ele>
        <time>2019-09-30T12:19:10Z</time>
      </trkpt>
      <trkpt lat="47.2891" lon="6.1964">
        <ele>244.91</ele>
        <time>2019-09-30T12:19:13Z</time>
      </trkpt>
      <trkpt lat="47.28907" lon="6.19617">
        <ele>244.417</ele>
        <time>2019-09-30T12:19:16Z</time>
      </trkpt>
      <trkpt lat="47.28904" lon="6.19594">
        <ele>244.083</ele>
        <time>2019-09-30T12:19:19Z</time>
      </trkpt>
      <trkpt lat="47.28902" lon="6.19572">
        <ele>243.354</ele>
        <time>2019-09-30T12:19:22Z</time>
      </trkpt>
      <trkpt lat="47.289" lon="6.19548">
        <ele>242.651</ele>
        <time>2019-09-30T12:19:25Z</time>
      </trkpt>
      <trkpt lat="47.28898" lon="6.19525">
        <ele>241.728</ele>
        <time>2019-09-30T12:19:28Z</time>
      </trkpt>
      <trkpt lat="47.28896" lon="6.19502">
        <ele>241.056</ele>
        <time>2019-09-30T12:19:31Z</time>
      </trkpt>
      <trkpt lat="47.28894" lon="6.1948">
        <ele>240.608</ele>
        <time>2019-09-30T12:19:34Z</time>
      </trkpt>
      <trkpt lat="47.28893" lon="6.19459">
        <ele>240.285</ele>
        <time>2019-09-30T12:19:37Z</time>
      </trkpt>
      <trkpt lat="47.28892" lon="6.19438">
        <ele>240.052</ele>
        <time>2019-09-30T12:19:40Z</time>
      </trkpt>
      <trkpt lat="47.2889" lon="6.19415">
        <ele>239.925</ele>
        <time>2019-09-30T12:19:43Z</time>
      </trkpt>
      <trkpt lat="47.28888" lon="6.19393">
        <ele>240.937</ele>
        <time>2019-09-30T12:19:46Z</time>
      </trkpt>
      <trkpt lat="47.28887" lon="6.1937">
        <ele>241.164</ele>
        <time>2019-09-30T12:19:49Z</time>
      </trkpt>
      <trkpt lat="47.28885" lon="6.19346">
        <ele>241.664</ele>
        <time>2019-09-30T12:19:52Z</time>
      </trkpt>
      <trkpt lat="47.28883" lon="6.19324">
        <ele>242</ele>
        <time>2019-09-30T12:19:55Z</time>
      </trkpt>
      <trkpt lat="47.28882" lon="6.19302">
        <ele>242.35</ele>
        <time>2019-09-30T12:19:58Z</time>
      </trkpt>
      <trkpt lat="47.28881" lon="6.19282">
        <ele>242.6</ele>
        <time>2019-09-30T12:20:01Z</time>
      </trkpt>
      <trkpt lat="47.2888" lon="6.19261">
        <ele>242.768</ele>
        <time>2019-09-30T12:20:04Z</time>
      </trkpt>
      <trkpt lat="47.2888" lon="6.1924">
        <ele>243.084</ele>
        <time>2019-09-30T12:20:07Z</time>
      </trkpt>
      <trkpt lat="47.28879" lon="6.19218">
        <ele>243.401</ele>
        <time>2019-09-30T12:20:10Z</time>
      </trkpt>
      <trkpt lat="47.28879" lon="6.19195">
        <ele>242.692</ele>
        <time>2019-09-30T12:20:13Z</time>
      </trkpt>
      <trkpt lat="47.28879" lon="6.19173">
        <ele>242.214</ele>
        <time>2019-09-30T12:20:16Z</time>
      </trkpt>
      <trkpt lat="47.28878" lon="6.19151">
        <ele>241.791</ele>
        <time>2019-09-30T12:20:19Z</time>
      </trkpt>
      <trkpt lat="47.28878" lon="6.19128">
        <ele>241.56</ele>
        <time>2019-09-30T12:20:22Z</time>
      </trkpt>
      <trkpt lat="47.28878" lon="6.19105">
        <ele>241.036</ele>
        <time>2019-09-30T12:20:25Z</time>
      </trkpt>
      <trkpt lat="47.28878" lon="6.19083">
        <ele>240.359</ele>
        <time>2019-09-30T12:20:28Z</time>
      </trkpt>
      <trkpt lat="47.28877" lon="6.1906">
        <ele>240.011</ele>
        <time>2019-09-30T12:20:31Z</time>
      </trkpt>
      <trkpt lat="47.28877" lon="6.19038">
        <ele>239.372</ele>
        <time>2019-09-30T12:20:34Z</time>
      </trkpt>
      <trkpt lat="47.28878" lon="6.19017">
        <ele>239.722</ele>
        <time>2019-09-30T12:20:37Z</time>
      </trkpt>
      <trkpt lat="47.2888" lon="6.18996">
        <ele>240.445</ele>
        <time>2019-09-30T12:20:40Z</time>
      </trkpt>
      <trkpt lat="47.28882" lon="6.18975">
        <ele>241.39</ele>
        <time>2019-09-30T12:20:43Z</time>
      </trkpt>
      <trkpt lat="47.28884" lon="6.18954">
        <ele>241.607</ele>
        <time>2019-09-30T12:20:46Z</time>
      </trkpt>
      <trkpt lat="47.28887" lon="6.18933">
        <ele>242.052</ele>
        <time>2019-09-30T12:20:49Z</time>
      </trkpt>
      <trkpt lat="47.2889" lon="6.18912">
        <ele>242.664</ele>
        <time>2019-09-30T12:20:52Z</time>
      </trkpt>
      <trkpt lat="47.28892" lon="6.1889">
        <ele>242.549</ele>
        <time>2019-09-30T12:20:55Z</time>
      </trkpt>
      <trkpt lat="47.28895" lon="6.18871">
        <ele>242.626</ele>
        <time>2019-09-30T12:20:58Z</time>
      </trkpt>
      <trkpt lat="47.289" lon="6.18851">
        <ele>243.011</ele>
        <time>2019-09-30T12:21:01Z</time>
      </trkpt>
      <trkpt lat="47.28904" lon="6.18831">
        <ele>242.807</ele>
        <time>2019-09-30T12:21:04Z</time>
      </trkpt>
      <trkpt lat="47.28909" lon="6.1881">
        <ele>243.118</ele>
        <time>2019-09-30T12:21:07Z</time>
      </trkpt>
      <trkpt lat="47.28913" lon="6.1879">
        <ele>243.206</ele>
        <time>2019-09-30T12:21:10Z</time>
      </trkpt>
      <trkpt lat="47.28917" lon="6.1877">
        <ele>243.366</ele>
        <time>2019-09-30T12:21:13Z</time>
      </trkpt>
      <trkpt lat="47.2892" lon="6.18751">
        <ele>243.735</ele>
        <time>2019-09-30T12:21:16Z</time>
      </trkpt>
      <trkpt lat="47.28924" lon="6.18733">
        <ele>244.253</ele>
        <time>2019-09-30T12:21:19Z</time>
      </trkpt>
      <trkpt lat="47.28929" lon="6.18713">
        <ele>245.042</ele>
        <time>2019-09-30T12:21:22Z</time>
      </trkpt>
      <trkpt lat="47.28933" lon="6.18692">
        <ele>245.538</ele>
        <time>2019-09-30T12:21:25Z</time>
      </trkpt>
      <trkpt lat="47.28938" lon="6.18671">
        <ele>246.187</ele>
        <time>2019-09-30T12:21:28Z</time>
      </trkpt>
      <trkpt lat="47.28943" lon="6.18654">
        <ele>246.822</ele>
        <time>2019-09-30T12:21:31Z</time>
      </trkpt>
      <trkpt lat="47.28948" lon="6.18634">
        <ele>247.643</ele>
        <time>2019-09-30T12:21:34Z</time>
      </trkpt>
      <trkpt lat="47.28953" lon="6.18616">
        <ele>249.426</ele>
        <time>2019-09-30T12:21:37Z</time>
      </trkpt>
      <trkpt lat="47.28958" lon="6.18598">
        <ele>250.468</ele>
        <time>2019-09-30T12:21:40Z</time>
      </trkpt>
      <trkpt lat="47.28965" lon="6.18578">
        <ele>251.013</ele>
        <time>2019-09-30T12:21:43Z</time>
      </trkpt>
      <trkpt lat="47.2897" lon="6.18558">
        <ele>250.607</ele>
        <time>2019-09-30T12:21:46Z</time>
      </trkpt>
      <trkpt lat="47.28974" lon="6.18538">
        <ele>250.826</ele>
        <time>2019-09-30T12:21:49Z</time>
      </trkpt>
      <trkpt lat="47.2898" lon="6.18517">
        <ele>250.754</ele>
        <time>2019-09-30T12:21:52Z</time>
      </trkpt>
      <trkpt lat="47.28986" lon="6.18495">
        <ele>250.655</ele>
        <time>2019-09-30T12:21:55Z</time>
      </trkpt>
      <trkpt lat="47.28991" lon="6.18475">
        <ele>250.482</ele>
        <time>2019-09-30T12:21:58Z</time>
      </trkpt>
      <trkpt lat="47.28996" lon="6.18454">
        <ele>250.755</ele>
        <time>2019-09-30T12:22:01Z</time>
      </trkpt>
      <trkpt lat="47.29002" lon="6.18434">
        <ele>250.797</ele>
        <time>2019-09-30T12:22:04Z</time>
      </trkpt>
      <trkpt lat="47.29007" lon="6.18414">
        <ele>252.18</ele>
        <time>2019-09-30T12:22:07Z</time>
      </trkpt>
      <trkpt lat="47.29012" lon="6.18394">
        <ele>252.794</ele>
        <time>2019-09-30T12:22:10Z</time>
      </trkpt>
      <trkpt lat="47.29018" lon="6.18374">
        <ele>253.076</ele>
        <time>2019-09-30T12:22:13Z</time>
      </trkpt>
      <trkpt lat="47.29024" lon="6.18352">
        <ele>252.876</ele>
        <time>2019-09-30T12:22:16Z</time>
      </trkpt>
      <trkpt lat="47.2903" lon="6.18331">
        <ele>252.485</ele>
        <time>2019-09-30T12:22:19Z</time>
      </trkpt>
      <trkpt lat="47.29036" lon="6.18311">
        <ele>252.645</ele>
        <time>2019-09-30T12:22:22Z</time>
      </trkpt>
      <trkpt lat="47.29042" lon="6.18291">
        <ele>252.418</ele>
        <time>2019-09-30T12:22:25Z</time>
      </trkpt>
      <trkpt lat="47.29048" lon="6.18271">
        <ele>252.142</ele>
        <time>2019-09-30T12:22:28Z</time>
      </trkpt>
      <trkpt lat="47.29053" lon="6.1825">
        <ele>251.92</ele>
        <time>2019-09-30T12:22:31Z</time>
      </trkpt>
      <trkpt lat="47.29057" lon="6.1823">
        <ele>251.658</ele>
        <time>2019-09-30T12:22:34Z</time>
      </trkpt>
      <trkpt lat="47.29062" lon="6.18209">
        <ele>252.083</ele>
        <time>2019-09-30T12:22:37Z</time>
      </trkpt>
      <trkpt lat="47.29066" lon="6.18189">
        <ele>252.139</ele>
        <time>2019-09-30T12:22:40Z</time>
      </trkpt>
      <trkpt lat="47.29071" lon="6.18166">
        <ele>251.438</ele>
        <time>2019-09-30T12:22:43Z</time>
      </trkpt>
      <trkpt lat="47.29075" lon="6.18141">
        <ele>251.399</ele>
        <time>2019-09-30T12:22:46Z</time>
      </trkpt>
      <trkpt lat="47.29077" lon="6.18117">
        <ele>251.587</ele>
        <time>2019-09-30T12:22:49.001Z</time>
      </trkpt>
      <trkpt lat="47.2908" lon="6.18094">
        <ele>250.847</ele>
        <time>2019-09-30T12:22:52Z</time>
      </trkpt>
      <trkpt lat="47.29081" lon="6.18071">
        <ele>250.397</ele>
        <time>2019-09-30T12:22:55Z</time>
      </trkpt>
      <trkpt lat="47.29083" lon="6.18049">
        <ele>250.394</ele>
        <time>2019-09-30T12:22:58Z</time>
      </trkpt>
      <trkpt lat="47.29084" lon="6.18028">
        <ele>250.095</ele>
        <time>2019-09-30T12:23:01Z</time>
      </trkpt>
      <trkpt lat="47.29082" lon="6.18007">
        <ele>250.176</ele>
        <time>2019-09-30T12:23:04Z</time>
      </trkpt>
      <trkpt lat="47.29079" lon="6.17986">
        <ele>250.756</ele>
        <time>2019-09-30T12:23:07Z</time>
      </trkpt>
      <trkpt lat="47.29077" lon="6.17966">
        <ele>250.982</ele>
        <time>2019-09-30T12:23:10Z</time>
      </trkpt>
      <trkpt lat="47.29074" lon="6.17945">
        <ele>250.773</ele>
        <time>2019-09-30T12:23:13Z</time>
      </trkpt>
      <trkpt lat="47.29071" lon="6.17923">
        <ele>250.825</ele>
        <time>2019-09-30T12:23:16Z</time>
      </trkpt>
      <trkpt lat="47.29068" lon="6.17903">
        <ele>251.37</ele>
        <time>2019-09-30T12:23:19Z</time>
      </trkpt>
      <trkpt lat="47.29065" lon="6.17883">
        <ele>251.304</ele>
        <time>2019-09-30T12:23:22Z</time>
      </trkpt>
      <trkpt lat="47.29063" lon="6.17864">
        <ele>251.359</ele>
        <time>2019-09-30T12:23:25Z</time>
      </trkpt>
      <trkpt lat="47.2906" lon="6.17843">
        <ele>251.283</ele>
        <time>2019-09-30T12:23:28Z</time>
      </trkpt>
      <trkpt lat="47.29057" lon="6.17822">
        <ele>251.571</ele>
        <time>2019-09-30T12:23:31Z</time>
      </trkpt>
      <trkpt lat="47.29054" lon="6.178">
        <ele>251.606</ele>
        <time>2019-09-30T12:23:34Z</time>
      </trkpt>
      <trkpt lat="47.29051" lon="6.17778">
        <ele>251.753</ele>
        <time>2019-09-30T12:23:37Z</time>
      </trkpt>
      <trkpt lat="47.29048" lon="6.17756">
        <ele>251.635</ele>
        <time>2019-09-30T12:23:40Z</time>
      </trkpt>
      <trkpt lat="47.29044" lon="6.17735">
        <ele>251.671</ele>
        <time>2019-09-30T12:23:43Z</time>
      </trkpt>
      <trkpt lat="47.29041" lon="6.17715">
        <ele>252.017</ele>
        <time>2019-09-30T12:23:46Z</time>
      </trkpt>
      <trkpt lat="47.29037" lon="6.17696">
        <ele>252.247</ele>
        <time>2019-09-30T12:23:49Z</time>
      </trkpt>
      <trkpt lat="47.29034" lon="6.17677">
        <ele>252.266</ele>
        <time>2019-09-30T12:23:52Z</time>
      </trkpt>
      <trkpt lat="47.29029" lon="6.17658">
        <ele>251.937</ele>
        <time>2019-09-30T12:23:55Z</time>
      </trkpt>
      <trkpt lat="47.29023" lon="6.1764">
        <ele>251.76</ele>
        <time>2019-09-30T12:23:58Z</time>
      </trkpt>
      <trkpt lat="47.29016" lon="6.17621">
        <ele>251.73</ele>
        <time>2019-09-30T12:24:01Z</time>
      </trkpt>
      <trkpt lat="47.29008" lon="6.17602">
        <ele>250.983</ele>
        <time>2019-09-30T12:24:04Z</time>
      </trkpt>
      <trkpt lat="47.29002" lon="6.17585">
        <ele>251.546</ele>
        <time>2019-09-30T12:24:07Z</time>
      </trkpt>
      <trkpt lat="47.29004" lon="6.17571">
        <ele>251.943</ele>
        <time>2019-09-30T12:24:10Z</time>
      </trkpt>
      <trkpt lat="47.29012" lon="6.17564">
        <ele>251.2</ele>
        <time>2019-09-30T12:24:13Z</time>
      </trkpt>
      <trkpt lat="47.29012" lon="6.17546">
        <ele>249.61</ele>
        <time>2019-09-30T12:24:16Z</time>
      </trkpt>
      <trkpt lat="47.28999" lon="6.17523">
        <ele>248.447</ele>
        <time>2019-09-30T12:24:19Z</time>
      </trkpt>
      <trkpt lat="47.28985" lon="6.17503">
        <ele>247.364</ele>
        <time>2019-09-30T12:24:22Z</time>
      </trkpt>
      <trkpt lat="47.28976" lon="6.17484">
        <ele>246.517</ele>
        <time>2019-09-30T12:24:25Z</time>
      </trkpt>
      <trkpt lat="47.2897" lon="6.17464">
        <ele>245.74</ele>
        <time>2019-09-30T12:24:28Z</time>
      </trkpt>
      <trkpt lat="47.28968" lon="6.17443">
        <ele>245.256</ele>
        <time>2019-09-30T12:24:31Z</time>
      </trkpt>
      <trkpt lat="47.28967" lon="6.17419">
        <ele>245.366</ele>
        <time>2019-09-30T12:24:34Z</time>
      </trkpt>
      <trkpt lat="47.28965" lon="6.17396">
        <ele>245.697</ele>
        <time>2019-09-30T12:24:37Z</time>
      </trkpt>
      <trkpt lat="47.28963" lon="6.17373">
        <ele>245.778</ele>
        <time>2019-09-30T12:24:40Z</time>
      </trkpt>
      <trkpt lat="47.28962" lon="6.17352">
        <ele>246.169</ele>
        <time>2019-09-30T12:24:43Z</time>
      </trkpt>
      <trkpt lat="47.28961" lon="6.17331">
        <ele>246.249</ele>
        <time>2019-09-30T12:24:46Z</time>
      </trkpt>
      <trkpt lat="47.28959" lon="6.1731">
        <ele>246.238</ele>
        <time>2019-09-30T12:24:49Z</time>
      </trkpt>
      <trkpt lat="47.28958" lon="6.17288">
        <ele>246.193</ele>
        <time>2019-09-30T12:24:52Z</time>
      </trkpt>
      <trkpt lat="47.28956" lon="6.17265">
        <ele>245.894</ele>
        <time>2019-09-30T12:24:55Z</time>
      </trkpt>
      <trkpt lat="47.28955" lon="6.17243">
        <ele>245.574</ele>
        <time>2019-09-30T12:24:58Z</time>
      </trkpt>
      <trkpt lat="47.28953" lon="6.1722">
        <ele>245.477</ele>
        <time>2019-09-30T12:25:01Z</time>
      </trkpt>
      <trkpt lat="47.28952" lon="6.17199">
        <ele>245.003</ele>
        <time>2019-09-30T12:25:04Z</time>
      </trkpt>
      <trkpt lat="47.28951" lon="6.17178">
        <ele>244.683</ele>
        <time>2019-09-30T12:25:07Z</time>
      </trkpt>
      <trkpt lat="47.28949" lon="6.17157">
        <ele>244.24</ele>
        <time>2019-09-30T12:25:10Z</time>
      </trkpt>
      <trkpt lat="47.28948" lon="6.17136">
        <ele>244.573</ele>
        <time>2019-09-30T12:25:13Z</time>
      </trkpt>
      <trkpt lat="47.28946" lon="6.17115">
        <ele>244.595</ele>
        <time>2019-09-30T12:25:16Z</time>
      </trkpt>
      <trkpt lat="47.28945" lon="6.17093">
        <ele>244.737</ele>
        <time>2019-09-30T12:25:19Z</time>
      </trkpt>
      <trkpt lat="47.28943" lon="6.1707">
        <ele>244.798</ele>
        <time>2019-09-30T12:25:22Z</time>
      </trkpt>
      <trkpt lat="47.28941" lon="6.17049">
        <ele>244.826</ele>
        <time>2019-09-30T12:25:25Z</time>
      </trkpt>
      <trkpt lat="47.28938" lon="6.17029">
        <ele>244.95</ele>
        <time>2019-09-30T12:25:28Z</time>
      </trkpt>
      <trkpt lat="47.28937" lon="6.17009">
        <ele>245.298</ele>
        <time>2019-09-30T12:25:31Z</time>
      </trkpt>
      <trkpt lat="47.28935" lon="6.16989">
        <ele>245.303</ele>
        <time>2019-09-30T12:25:34Z</time>
      </trkpt>
      <trkpt lat="47.28933" lon="6.16968">
        <ele>245.682</ele>
        <time>2019-09-30T12:25:37Z</time>
      </trkpt>
      <trkpt lat="47.28932" lon="6.16949">
        <ele>245.956</ele>
        <time>2019-09-30T12:25:40Z</time>
      </trkpt>
      <trkpt lat="47.2893" lon="6.16928">
        <ele>245.944</ele>
        <time>2019-09-30T12:25:43Z</time>
      </trkpt>
      <trkpt lat="47.28929" lon="6.16906">
        <ele>246.201</ele>
        <time>2019-09-30T12:25:46Z</time>
      </trkpt>
      <trkpt lat="47.28927" lon="6.16885">
        <ele>246.19</ele>
        <time>2019-09-30T12:25:49Z</time>
      </trkpt>
      <trkpt lat="47.28926" lon="6.16863">
        <ele>246.354</ele>
        <time>2019-09-30T12:25:52Z</time>
      </trkpt>
      <trkpt lat="47.28925" lon="6.16842">
        <ele>246.619</ele>
        <time>2019-09-30T12:25:55Z</time>
      </trkpt>
      <trkpt lat="47.28923" lon="6.16821">
        <ele>246.526</ele>
        <time>2019-09-30T12:25:58Z</time>
      </trkpt>
      <trkpt lat="47.28921" lon="6.16801">
        <ele>246.433</ele>
        <time>2019-09-30T12:26:01Z</time>
      </trkpt>
      <trkpt lat="47.2892" lon="6.16781">
        <ele>246.467</ele>
        <time>2019-09-30T12:26:04Z</time>
      </trkpt>
      <trkpt lat="47.28918" lon="6.16762">
        <ele>246.692</ele>
        <time>2019-09-30T12:26:07Z</time>
      </trkpt>
      <trkpt lat="47.28918" lon="6.16741">
        <ele>246.851</ele>
        <time>2019-09-30T12:26:10Z</time>
      </trkpt>
      <trkpt lat="47.28918" lon="6.16721">
        <ele>247.004</ele>
        <time>2019-09-30T12:26:13Z</time>
      </trkpt>
      <trkpt lat="47.28918" lon="6.167">
        <ele>247.496</ele>
        <time>2019-09-30T12:26:16Z</time>
      </trkpt>
      <trkpt lat="47.28918" lon="6.1668">
        <ele>247.873</ele>
        <time>2019-09-30T12:26:19Z</time>
      </trkpt>
      <trkpt lat="47.28917" lon="6.16659">
        <ele>248.053</ele>
        <time>2019-09-30T12:26:22Z</time>
      </trkpt>
      <trkpt lat="47.28916" lon="6.1664">
        <ele>248.509</ele>
        <time>2019-09-30T12:26:25Z</time>
      </trkpt>
      <trkpt lat="47.28914" lon="6.1662">
        <ele>248.285</ele>
        <time>2019-09-30T12:26:28Z</time>
      </trkpt>
      <trkpt lat="47.28913" lon="6.16599">
        <ele>247.822</ele>
        <time>2019-09-30T12:26:31Z</time>
      </trkpt>
      <trkpt lat="47.28912" lon="6.16578">
        <ele>247.71</ele>
        <time>2019-09-30T12:26:34Z</time>
      </trkpt>
      <trkpt lat="47.28911" lon="6.16555">
        <ele>247.704</ele>
        <time>2019-09-30T12:26:37Z</time>
      </trkpt>
      <trkpt lat="47.28909" lon="6.16534">
        <ele>247.568</ele>
        <time>2019-09-30T12:26:40Z</time>
      </trkpt>
      <trkpt lat="47.28908" lon="6.16511">
        <ele>247.61</ele>
        <time>2019-09-30T12:26:43Z</time>
      </trkpt>
      <trkpt lat="47.28906" lon="6.16488">
        <ele>247.383</ele>
        <time>2019-09-30T12:26:46Z</time>
      </trkpt>
      <trkpt lat="47.28904" lon="6.16465">
        <ele>247.77</ele>
        <time>2019-09-30T12:26:49Z</time>
      </trkpt>
      <trkpt lat="47.28903" lon="6.16442">
        <ele>248.401</ele>
        <time>2019-09-30T12:26:52Z</time>
      </trkpt>
      <trkpt lat="47.289" lon="6.16419">
        <ele>248.889</ele>
        <time>2019-09-30T12:26:55Z</time>
      </trkpt>
      <trkpt lat="47.28898" lon="6.16397">
        <ele>249.214</ele>
        <time>2019-09-30T12:26:58Z</time>
      </trkpt>
      <trkpt lat="47.28896" lon="6.16376">
        <ele>249.144</ele>
        <time>2019-09-30T12:27:01Z</time>
      </trkpt>
      <trkpt lat="47.28893" lon="6.16354">
        <ele>248.982</ele>
        <time>2019-09-30T12:27:04Z</time>
      </trkpt>
      <trkpt lat="47.28891" lon="6.16332">
        <ele>248.339</ele>
        <time>2019-09-30T12:27:07Z</time>
      </trkpt>
      <trkpt lat="47.28888" lon="6.16309">
        <ele>247.502</ele>
        <time>2019-09-30T12:27:10Z</time>
      </trkpt>
      <trkpt lat="47.28886" lon="6.16287">
        <ele>246.823</ele>
        <time>2019-09-30T12:27:13Z</time>
      </trkpt>
      <trkpt lat="47.28884" lon="6.16265">
        <ele>246.511</ele>
        <time>2019-09-30T12:27:16Z</time>
      </trkpt>
      <trkpt lat="47.28881" lon="6.16243">
        <ele>246.491</ele>
        <time>2019-09-30T12:27:19Z</time>
      </trkpt>
      <trkpt lat="47.28877" lon="6.16221">
        <ele>246.423</ele>
        <time>2019-09-30T12:27:22Z</time>
      </trkpt>
      <trkpt lat="47.28875" lon="6.162">
        <ele>246.091</ele>
        <time>2019-09-30T12:27:25Z</time>
      </trkpt>
      <trkpt lat="47.28871" lon="6.1618">
        <ele>245.769</ele>
        <time>2019-09-30T12:27:28Z</time>
      </trkpt>
      <trkpt lat="47.28869" lon="6.16161">
        <ele>245.47</ele>
        <time>2019-09-30T12:27:31Z</time>
      </trkpt>
      <trkpt lat="47.28866" lon="6.1614">
        <ele>245.336</ele>
        <time>2019-09-30T12:27:34Z</time>
      </trkpt>
      <trkpt lat="47.28863" lon="6.1612">
        <ele>245.265</ele>
        <time>2019-09-30T12:27:37Z</time>
      </trkpt>
      <trkpt lat="47.28861" lon="6.16099">
        <ele>244.933</ele>
        <time>2019-09-30T12:27:40Z</time>
      </trkpt>
      <trkpt lat="47.2886" lon="6.16078">
        <ele>244.904</ele>
        <time>2019-09-30T12:27:43Z</time>
      </trkpt>
      <trkpt lat="47.28858" lon="6.16057">
        <ele>245.055</ele>
        <time>2019-09-30T12:27:46Z</time>
      </trkpt>
      <trkpt lat="47.28856" lon="6.16036">
        <ele>245.362</ele>
        <time>2019-09-30T12:27:49Z</time>
      </trkpt>
      <trkpt lat="47.28853" lon="6.16015">
        <ele>245.687</ele>
        <time>2019-09-30T12:27:52Z</time>
      </trkpt>
      <trkpt lat="47.2885" lon="6.15994">
        <ele>246.074</ele>
        <time>2019-09-30T12:27:55Z</time>
      </trkpt>
      <trkpt lat="47.28848" lon="6.15973">
        <ele>246.063</ele>
        <time>2019-09-30T12:27:58Z</time>
      </trkpt>
      <trkpt lat="47.28845" lon="6.15952">
        <ele>245.923</ele>
        <time>2019-09-30T12:28:01Z</time>
      </trkpt>
      <trkpt lat="47.28843" lon="6.15931">
        <ele>246.444</ele>
        <time>2019-09-30T12:28:04Z</time>
      </trkpt>
      <trkpt lat="47.28841" lon="6.1591">
        <ele>247.105</ele>
        <time>2019-09-30T12:28:07Z</time>
      </trkpt>
      <trkpt lat="47.28839" lon="6.15889">
        <ele>247.628</ele>
        <time>2019-09-30T12:28:10Z</time>
      </trkpt>
      <trkpt lat="47.28836" lon="6.15869">
        <ele>247.822</ele>
        <time>2019-09-30T12:28:13Z</time>
      </trkpt>
      <trkpt lat="47.28833" lon="6.15849">
        <ele>247.721</ele>
        <time>2019-09-30T12:28:16Z</time>
      </trkpt>
      <trkpt lat="47.28831" lon="6.15828">
        <ele>247.907</ele>
        <time>2019-09-30T12:28:19Z</time>
      </trkpt>
      <trkpt lat="47.28827" lon="6.15806">
        <ele>248.124</ele>
        <time>2019-09-30T12:28:22Z</time>
      </trkpt>
      <trkpt lat="47.28824" lon="6.15786">
        <ele>248.149</ele>
        <time>2019-09-30T12:28:25Z</time>
      </trkpt>
      <trkpt lat="47.28822" lon="6.15765">
        <ele>248.065</ele>
        <time>2019-09-30T12:28:28Z</time>
      </trkpt>
      <trkpt lat="47.28818" lon="6.15745">
        <ele>248.601</ele>
        <time>2019-09-30T12:28:31Z</time>
      </trkpt>
      <trkpt lat="47.28815" lon="6.15724">
        <ele>248.647</ele>
        <time>2019-09-30T12:28:34Z</time>
      </trkpt>
      <trkpt lat="47.28812" lon="6.15703">
        <ele>248.358</ele>
        <time>2019-09-30T12:28:37Z</time>
      </trkpt>
      <trkpt lat="47.28808" lon="6.15682">
        <ele>248.429</ele>
        <time>2019-09-30T12:28:40Z</time>
      </trkpt>
      <trkpt lat="47.28804" lon="6.15661">
        <ele>248.483</ele>
        <time>2019-09-30T12:28:43Z</time>
      </trkpt>
      <trkpt lat="47.288" lon="6.1564">
        <ele>248.653</ele>
        <time>2019-09-30T12:28:46Z</time>
      </trkpt>
      <trkpt lat="47.28795" lon="6.15619">
        <ele>248.624</ele>
        <time>2019-09-30T12:28:49Z</time>
      </trkpt>
      <trkpt lat="47.2879" lon="6.15597">
        <ele>248.599</ele>
        <time>2019-09-30T12:28:52Z</time>
      </trkpt>
      <trkpt lat="47.28785" lon="6.15575">
        <ele>248.347</ele>
        <time>2019-09-30T12:28:55Z</time>
      </trkpt>
      <trkpt lat="47.2878" lon="6.15553">
        <ele>248.001</ele>
        <time>2019-09-30T12:28:58Z</time>
      </trkpt>
      <trkpt lat="47.28775" lon="6.15532">
        <ele>247.968</ele>
        <time>2019-09-30T12:29:01Z</time>
      </trkpt>
      <trkpt lat="47.28771" lon="6.15511">
        <ele>248.044</ele>
        <time>2019-09-30T12:29:04Z</time>
      </trkpt>
      <trkpt lat="47.28767" lon="6.1549">
        <ele>248.092</ele>
        <time>2019-09-30T12:29:07Z</time>
      </trkpt>
      <trkpt lat="47.28763" lon="6.15469">
        <ele>248.077</ele>
        <time>2019-09-30T12:29:10Z</time>
      </trkpt>
      <trkpt lat="47.28759" lon="6.15448">
        <ele>248.211</ele>
        <time>2019-09-30T12:29:13Z</time>
      </trkpt>
      <trkpt lat="47.28756" lon="6.15426">
        <ele>248.251</ele>
        <time>2019-09-30T12:29:16Z</time>
      </trkpt>
      <trkpt lat="47.28751" lon="6.15405">
        <ele>248.296</ele>
        <time>2019-09-30T12:29:19Z</time>
      </trkpt>
      <trkpt lat="47.28747" lon="6.15383">
        <ele>248.657</ele>
        <time>2019-09-30T12:29:22Z</time>
      </trkpt>
      <trkpt lat="47.28743" lon="6.15361">
        <ele>248.874</ele>
        <time>2019-09-30T12:29:25Z</time>
      </trkpt>
      <trkpt lat="47.28738" lon="6.1534">
        <ele>249.086</ele>
        <time>2019-09-30T12:29:28Z</time>
      </trkpt>
      <trkpt lat="47.28734" lon="6.15319">
        <ele>249.29</ele>
        <time>2019-09-30T12:29:31Z</time>
      </trkpt>
      <trkpt lat="47.2873" lon="6.15298">
        <ele>249.138</ele>
        <time>2019-09-30T12:29:34Z</time>
      </trkpt>
      <trkpt lat="47.28725" lon="6.15277">
        <ele>248.842</ele>
        <time>2019-09-30T12:29:37Z</time>
      </trkpt>
      <trkpt lat="47.28721" lon="6.15257">
        <ele>248.92</ele>
        <time>2019-09-30T12:29:40Z</time>
      </trkpt>
      <trkpt lat="47.28717" lon="6.15236">
        <ele>248.445</ele>
        <time>2019-09-30T12:29:43Z</time>
      </trkpt>
      <trkpt lat="47.28712" lon="6.15215">
        <ele>248.225</ele>
        <time>2019-09-30T12:29:46Z</time>
      </trkpt>
      <trkpt lat="47.28706" lon="6.15195">
        <ele>248.134</ele>
        <time>2019-09-30T12:29:49Z</time>
      </trkpt>
      <trkpt lat="47.28699" lon="6.15175">
        <ele>248.341</ele>
        <time>2019-09-30T12:29:52Z</time>
      </trkpt>
      <trkpt lat="47.28692" lon="6.15156">
        <ele>248.398</ele>
        <time>2019-09-30T12:29:55Z</time>
      </trkpt>
      <trkpt lat="47.28686" lon="6.15137">
        <ele>248.731</ele>
        <time>2019-09-30T12:29:58Z</time>
      </trkpt>
      <trkpt lat="47.28681" lon="6.15118">
        <ele>248.737</ele>
        <time>2019-09-30T12:30:01Z</time>
      </trkpt>
      <trkpt lat="47.28675" lon="6.15099">
        <ele>248.589</ele>
        <time>2019-09-30T12:30:04Z</time>
      </trkpt>
      <trkpt lat="47.28669" lon="6.15081">
        <ele>248.089</ele>
        <time>2019-09-30T12:30:07Z</time>
      </trkpt>
      <trkpt lat="47.28664" lon="6.15062">
        <ele>248.57</ele>
        <time>2019-09-30T12:30:10Z</time>
      </trkpt>
      <trkpt lat="47.2866" lon="6.15046">
        <ele>248.694</ele>
        <time>2019-09-30T12:30:13Z</time>
      </trkpt>
      <trkpt lat="47.28654" lon="6.15029">
        <ele>248.406</ele>
        <time>2019-09-30T12:30:16Z</time>
      </trkpt>
      <trkpt lat="47.28647" lon="6.15011">
        <ele>248.432</ele>
        <time>2019-09-30T12:30:19Z</time>
      </trkpt>
      <trkpt lat="47.2864" lon="6.14992">
        <ele>248.553</ele>
        <time>2019-09-30T12:30:22Z</time>
      </trkpt>
      <trkpt lat="47.28633" lon="6.14973">
        <ele>248.454</ele>
        <time>2019-09-30T12:30:25Z</time>
      </trkpt>
      <trkpt lat="47.28625" lon="6.14954">
        <ele>248.408</ele>
        <time>2019-09-30T12:30:28Z</time>
      </trkpt>
      <trkpt lat="47.28618" lon="6.14936">
        <ele>248.683</ele>
        <time>2019-09-30T12:30:31Z</time>
      </trkpt>
      <trkpt lat="47.28609" lon="6.14918">
        <ele>248.624</ele>
        <time>2019-09-30T12:30:34Z</time>
      </trkpt>
      <trkpt lat="47.28601" lon="6.14899">
        <ele>248.334</ele>
        <time>2019-09-30T12:30:37Z</time>
      </trkpt>
      <trkpt lat="47.28592" lon="6.1488">
        <ele>247.998</ele>
        <time>2019-09-30T12:30:40Z</time>
      </trkpt>
      <trkpt lat="47.28582" lon="6.1486">
        <ele>247.776</ele>
        <time>2019-09-30T12:30:43Z</time>
      </trkpt>
      <trkpt lat="47.28574" lon="6.14839">
        <ele>247.237</ele>
        <time>2019-09-30T12:30:46Z</time>
      </trkpt>
      <trkpt lat="47.28568" lon="6.14818">
        <ele>247.287</ele>
        <time>2019-09-30T12:30:49Z</time>
      </trkpt>
      <trkpt lat="47.28561" lon="6.14797">
        <ele>246.886</ele>
        <time>2019-09-30T12:30:52Z</time>
      </trkpt>
      <trkpt lat="47.28554" lon="6.14776">
        <ele>246.796</ele>
        <time>2019-09-30T12:30:55Z</time>
      </trkpt>
      <trkpt lat="47.28546" lon="6.14756">
        <ele>246.623</ele>
        <time>2019-09-30T12:30:58Z</time>
      </trkpt>
      <trkpt lat="47.2854" lon="6.14736">
        <ele>247.092</ele>
        <time>2019-09-30T12:31:01Z</time>
      </trkpt>
      <trkpt lat="47.28533" lon="6.14715">
        <ele>248.622</ele>
        <time>2019-09-30T12:31:04Z</time>
      </trkpt>
      <trkpt lat="47.28528" lon="6.14695">
        <ele>249.681</ele>
        <time>2019-09-30T12:31:07Z</time>
      </trkpt>
      <trkpt lat="47.28526" lon="6.14675">
        <ele>250.004</ele>
        <time>2019-09-30T12:31:10Z</time>
      </trkpt>
      <trkpt lat="47.28522" lon="6.14654">
        <ele>250.256</ele>
        <time>2019-09-30T12:31:13Z</time>
      </trkpt>
      <trkpt lat="47.28518" lon="6.14633">
        <ele>250.768</ele>
        <time>2019-09-30T12:31:16Z</time>
      </trkpt>
      <trkpt lat="47.28513" lon="6.14612">
        <ele>250.677</ele>
        <time>2019-09-30T12:31:19Z</time>
      </trkpt>
      <trkpt lat="47.28509" lon="6.14591">
        <ele>250.089</ele>
        <time>2019-09-30T12:31:22Z</time>
      </trkpt>
      <trkpt lat="47.28507" lon="6.1457">
        <ele>249.63</ele>
        <time>2019-09-30T12:31:25Z</time>
      </trkpt>
      <trkpt lat="47.28502" lon="6.14544">
        <ele>249.103</ele>
        <time>2019-09-30T12:31:28Z</time>
      </trkpt>
      <trkpt lat="47.28497" lon="6.14519">
        <ele>248.704</ele>
        <time>2019-09-30T12:31:31Z</time>
      </trkpt>
      <trkpt lat="47.28492" lon="6.14495">
        <ele>249.136</ele>
        <time>2019-09-30T12:31:34Z</time>
      </trkpt>
      <trkpt lat="47.28488" lon="6.14472">
        <ele>249.279</ele>
        <time>2019-09-30T12:31:37Z</time>
      </trkpt>
      <trkpt lat="47.28487" lon="6.14448">
        <ele>249.384</ele>
        <time>2019-09-30T12:31:40Z</time>
      </trkpt>
      <trkpt lat="47.28487" lon="6.14426">
        <ele>249.208</ele>
        <time>2019-09-30T12:31:43Z</time>
      </trkpt>
      <trkpt lat="47.28485" lon="6.14403">
        <ele>249.157</ele>
        <time>2019-09-30T12:31:46Z</time>
      </trkpt>
      <trkpt lat="47.28484" lon="6.14381">
        <ele>249.149</ele>
        <time>2019-09-30T12:31:49Z</time>
      </trkpt>
      <trkpt lat="47.28483" lon="6.1436">
        <ele>249.333</ele>
        <time>2019-09-30T12:31:52Z</time>
      </trkpt>
      <trkpt lat="47.28482" lon="6.14338">
        <ele>249.373</ele>
        <time>2019-09-30T12:31:55Z</time>
      </trkpt>
      <trkpt lat="47.28481" lon="6.14316">
        <ele>249.45</ele>
        <time>2019-09-30T12:31:58Z</time>
      </trkpt>
      <trkpt lat="47.2848" lon="6.14293">
        <ele>249.819</ele>
        <time>2019-09-30T12:32:01Z</time>
      </trkpt>
      <trkpt lat="47.28478" lon="6.1427">
        <ele>250.056</ele>
        <time>2019-09-30T12:32:04Z</time>
      </trkpt>
      <trkpt lat="47.28476" lon="6.14248">
        <ele>250.068</ele>
        <time>2019-09-30T12:32:07Z</time>
      </trkpt>
      <trkpt lat="47.28475" lon="6.14228">
        <ele>249.663</ele>
        <time>2019-09-30T12:32:10Z</time>
      </trkpt>
      <trkpt lat="47.28473" lon="6.14208">
        <ele>249.863</ele>
        <time>2019-09-30T12:32:13Z</time>
      </trkpt>
      <trkpt lat="47.2847" lon="6.14187">
        <ele>250.362</ele>
        <time>2019-09-30T12:32:16Z</time>
      </trkpt>
      <trkpt lat="47.28467" lon="6.14169">
        <ele>249.977</ele>
        <time>2019-09-30T12:32:19Z</time>
      </trkpt>
      <trkpt lat="47.28464" lon="6.1415">
        <ele>249.029</ele>
        <time>2019-09-30T12:32:22Z</time>
      </trkpt>
      <trkpt lat="47.28461" lon="6.14129">
        <ele>248.933</ele>
        <time>2019-09-30T12:32:25Z</time>
      </trkpt>
      <trkpt lat="47.28459" lon="6.14106">
        <ele>248.579</ele>
        <time>2019-09-30T12:32:28Z</time>
      </trkpt>
      <trkpt lat="47.28459" lon="6.14082">
        <ele>248.213</ele>
        <time>2019-09-30T12:32:31Z</time>
      </trkpt>
      <trkpt lat="47.28459" lon="6.14059">
        <ele>248.096</ele>
        <time>2019-09-30T12:32:34Z</time>
      </trkpt>
      <trkpt lat="47.28457" lon="6.14037">
        <ele>248.12</ele>
        <time>2019-09-30T12:32:37Z</time>
      </trkpt>
      <trkpt lat="47.28455" lon="6.14015">
        <ele>247.761</ele>
        <time>2019-09-30T12:32:40Z</time>
      </trkpt>
      <trkpt lat="47.28452" lon="6.13993">
        <ele>247.542</ele>
        <time>2019-09-30T12:32:43Z</time>
      </trkpt>
      <trkpt lat="47.28448" lon="6.13971">
        <ele>248.179</ele>
        <time>2019-09-30T12:32:46Z</time>
      </trkpt>
      <trkpt lat="47.28444" lon="6.13952">
        <ele>248.752</ele>
        <time>2019-09-30T12:32:49Z</time>
      </trkpt>
      <trkpt lat="47.2844" lon="6.13934">
        <ele>249.211</ele>
        <time>2019-09-30T12:32:52Z</time>
      </trkpt>
      <trkpt lat="47.28434" lon="6.13917">
        <ele>249.287</ele>
        <time>2019-09-30T12:32:55Z</time>
      </trkpt>
      <trkpt lat="47.28425" lon="6.139">
        <ele>249.31</ele>
        <time>2019-09-30T12:32:58Z</time>
      </trkpt>
      <trkpt lat="47.28415" lon="6.13884">
        <ele>249.512</ele>
        <time>2019-09-30T12:33:01Z</time>
      </trkpt>
      <trkpt lat="47.28405" lon="6.13867">
        <ele>249.633</ele>
        <time>2019-09-30T12:33:04Z</time>
      </trkpt>
      <trkpt lat="47.28394" lon="6.13851">
        <ele>250.416</ele>
        <time>2019-09-30T12:33:07Z</time>
      </trkpt>
      <trkpt lat="47.28384" lon="6.13834">
        <ele>250.692</ele>
        <time>2019-09-30T12:33:10Z</time>
      </trkpt>
      <trkpt lat="47.28373" lon="6.13818">
        <ele>250.907</ele>
        <time>2019-09-30T12:33:13Z</time>
      </trkpt>
      <trkpt lat="47.28362" lon="6.13801">
        <ele>251.083</ele>
        <time>2019-09-30T12:33:16Z</time>
      </trkpt>
      <trkpt lat="47.28352" lon="6.13785">
        <ele>251.018</ele>
        <time>2019-09-30T12:33:19Z</time>
      </trkpt>
      <trkpt lat="47.28342" lon="6.13769">
        <ele>251.412</ele>
        <time>2019-09-30T12:33:22Z</time>
      </trkpt>
      <trkpt lat="47.28331" lon="6.13753">
        <ele>252.103</ele>
        <time>2019-09-30T12:33:25Z</time>
      </trkpt>
      <trkpt lat="47.28318" lon="6.13736">
        <ele>252.082</ele>
        <time>2019-09-30T12:33:28Z</time>
      </trkpt>
      <trkpt lat="47.28307" lon="6.13718">
        <ele>252.306</ele>
        <time>2019-09-30T12:33:31Z</time>
      </trkpt>
      <trkpt lat="47.28295" lon="6.13702">
        <ele>252.421</ele>
        <time>2019-09-30T12:33:34Z</time>
      </trkpt>
      <trkpt lat="47.28284" lon="6.13687">
        <ele>252.268</ele>
        <time>2019-09-30T12:33:37Z</time>
      </trkpt>
      <trkpt lat="47.28274" lon="6.13672">
        <ele>252.569</ele>
        <time>2019-09-30T12:33:40Z</time>
      </trkpt>
      <trkpt lat="47.28263" lon="6.13657">
        <ele>252.904</ele>
        <time>2019-09-30T12:33:43Z</time>
      </trkpt>
      <trkpt lat="47.28251" lon="6.13641">
        <ele>253.528</ele>
        <time>2019-09-30T12:33:46Z</time>
      </trkpt>
      <trkpt lat="47.28241" lon="6.13624">
        <ele>253.808</ele>
        <time>2019-09-30T12:33:49Z</time>
      </trkpt>
      <trkpt lat="47.28231" lon="6.13606">
        <ele>253.539</ele>
        <time>2019-09-30T12:33:52Z</time>
      </trkpt>
      <trkpt lat="47.28221" lon="6.13587">
        <ele>253.125</ele>
        <time>2019-09-30T12:33:55Z</time>
      </trkpt>
      <trkpt lat="47.28213" lon="6.13568">
        <ele>252.97</ele>
        <time>2019-09-30T12:33:58Z</time>
      </trkpt>
      <trkpt lat="47.28205" lon="6.13549">
        <ele>252.798</ele>
        <time>2019-09-30T12:34:01Z</time>
      </trkpt>
      <trkpt lat="47.28199" lon="6.1353">
        <ele>252.793</ele>
        <time>2019-09-30T12:34:04Z</time>
      </trkpt>
      <trkpt lat="47.28193" lon="6.13509">
        <ele>251.869</ele>
        <time>2019-09-30T12:34:07Z</time>
      </trkpt>
      <trkpt lat="47.28187" lon="6.13488">
        <ele>250.773</ele>
        <time>2019-09-30T12:34:10Z</time>
      </trkpt>
      <trkpt lat="47.28183" lon="6.13468">
        <ele>250.15</ele>
        <time>2019-09-30T12:34:13Z</time>
      </trkpt>
      <trkpt lat="47.2818" lon="6.13451">
        <ele>249.342</ele>
        <time>2019-09-30T12:34:16Z</time>
      </trkpt>
      <trkpt lat="47.28177" lon="6.13435">
        <ele>249.677</ele>
        <time>2019-09-30T12:34:19Z</time>
      </trkpt>
      <trkpt lat="47.28174" lon="6.13414">
        <ele>249.761</ele>
        <time>2019-09-30T12:34:22Z</time>
      </trkpt>
      <trkpt lat="47.2817" lon="6.13388">
        <ele>250.091</ele>
        <time>2019-09-30T12:34:25Z</time>
      </trkpt>
      <trkpt lat="47.28166" lon="6.13361">
        <ele>250.092</ele>
        <time>2019-09-30T12:34:28Z</time>
      </trkpt>
      <trkpt lat="47.28162" lon="6.13336">
        <ele>249.889</ele>
        <time>2019-09-30T12:34:31Z</time>
      </trkpt>
      <trkpt lat="47.28158" lon="6.13312">
        <ele>249.514</ele>
        <time>2019-09-30T12:34:34Z</time>
      </trkpt>
      <trkpt lat="47.28154" lon="6.13291">
        <ele>249.373</ele>
        <time>2019-09-30T12:34:37Z</time>
      </trkpt>
      <trkpt lat="47.2815" lon="6.13271">
        <ele>249.377</ele>
        <time>2019-09-30T12:34:40Z</time>
      </trkpt>
      <trkpt lat="47.28146" lon="6.1325">
        <ele>249.474</ele>
        <time>2019-09-30T12:34:43Z</time>
      </trkpt>
      <trkpt lat="47.28143" lon="6.13233">
        <ele>249.979</ele>
        <time>2019-09-30T12:34:46Z</time>
      </trkpt>
      <trkpt lat="47.2814" lon="6.13214">
        <ele>250.315</ele>
        <time>2019-09-30T12:34:49Z</time>
      </trkpt>
      <trkpt lat="47.28135" lon="6.13189">
        <ele>250.335</ele>
        <time>2019-09-30T12:34:52Z</time>
      </trkpt>
      <trkpt lat="47.2813" lon="6.13163">
        <ele>250.272</ele>
        <time>2019-09-30T12:34:55Z</time>
      </trkpt>
      <trkpt lat="47.28126" lon="6.13134">
        <ele>250.068</ele>
        <time>2019-09-30T12:34:58Z</time>
      </trkpt>
      <trkpt lat="47.28122" lon="6.13109">
        <ele>250.125</ele>
        <time>2019-09-30T12:35:01Z</time>
      </trkpt>
      <trkpt lat="47.28118" lon="6.13083">
        <ele>250.32</ele>
        <time>2019-09-30T12:35:04Z</time>
      </trkpt>
      <trkpt lat="47.28115" lon="6.13058">
        <ele>250.223</ele>
        <time>2019-09-30T12:35:07Z</time>
      </trkpt>
      <trkpt lat="47.28113" lon="6.13034">
        <ele>250.711</ele>
        <time>2019-09-30T12:35:10Z</time>
      </trkpt>
      <trkpt lat="47.28111" lon="6.13011">
        <ele>250.764</ele>
        <time>2019-09-30T12:35:13Z</time>
      </trkpt>
      <trkpt lat="47.28108" lon="6.12987">
        <ele>251.022</ele>
        <time>2019-09-30T12:35:16Z</time>
      </trkpt>
      <trkpt lat="47.28106" lon="6.12964">
        <ele>251.706</ele>
        <time>2019-09-30T12:35:19Z</time>
      </trkpt>
      <trkpt lat="47.28105" lon="6.12943">
        <ele>251.158</ele>
        <time>2019-09-30T12:35:22Z</time>
      </trkpt>
      <trkpt lat="47.28102" lon="6.12924">
        <ele>250.83</ele>
        <time>2019-09-30T12:35:25Z</time>
      </trkpt>
      <trkpt lat="47.28101" lon="6.12905">
        <ele>250.909</ele>
        <time>2019-09-30T12:35:28Z</time>
      </trkpt>
      <trkpt lat="47.28099" lon="6.12884">
        <ele>250.324</ele>
        <time>2019-09-30T12:35:31Z</time>
      </trkpt>
      <trkpt lat="47.28097" lon="6.12857">
        <ele>249.746</ele>
        <time>2019-09-30T12:35:34Z</time>
      </trkpt>
      <trkpt lat="47.28095" lon="6.12832">
        <ele>249.612</ele>
        <time>2019-09-30T12:35:37Z</time>
      </trkpt>
      <trkpt lat="47.28094" lon="6.12809">
        <ele>249.231</ele>
        <time>2019-09-30T12:35:40Z</time>
      </trkpt>
      <trkpt lat="47.28093" lon="6.12788">
        <ele>248.371</ele>
        <time>2019-09-30T12:35:43Z</time>
      </trkpt>
      <trkpt lat="47.28091" lon="6.12766">
        <ele>248.314</ele>
        <time>2019-09-30T12:35:46Z</time>
      </trkpt>
      <trkpt lat="47.28088" lon="6.12746">
        <ele>249.155</ele>
        <time>2019-09-30T12:35:49Z</time>
      </trkpt>
      <trkpt lat="47.28085" lon="6.12726">
        <ele>249.822</ele>
        <time>2019-09-30T12:35:52Z</time>
      </trkpt>
      <trkpt lat="47.28081" lon="6.12706">
        <ele>249.882</ele>
        <time>2019-09-30T12:35:55Z</time>
      </trkpt>
      <trkpt lat="47.28077" lon="6.12686">
        <ele>249.922</ele>
        <time>2019-09-30T12:35:58Z</time>
      </trkpt>
      <trkpt lat="47.28074" lon="6.12667">
        <ele>250.095</ele>
        <time>2019-09-30T12:36:01Z</time>
      </trkpt>
      <trkpt lat="47.28072" lon="6.12648">
        <ele>250.071</ele>
        <time>2019-09-30T12:36:04Z</time>
      </trkpt>
      <trkpt lat="47.28069" lon="6.12627">
        <ele>250.053</ele>
        <time>2019-09-30T12:36:07Z</time>
      </trkpt>
      <trkpt lat="47.28064" lon="6.12605">
        <ele>249.529</ele>
        <time>2019-09-30T12:36:10Z</time>
      </trkpt>
      <trkpt lat="47.28058" lon="6.12583">
        <ele>249.135</ele>
        <time>2019-09-30T12:36:13Z</time>
      </trkpt>
      <trkpt lat="47.28051" lon="6.12562">
        <ele>248.723</ele>
        <time>2019-09-30T12:36:16Z</time>
      </trkpt>
      <trkpt lat="47.28043" lon="6.12542">
        <ele>248.529</ele>
        <time>2019-09-30T12:36:19Z</time>
      </trkpt>
      <trkpt lat="47.28035" lon="6.12523">
        <ele>248.323</ele>
        <time>2019-09-30T12:36:22Z</time>
      </trkpt>
      <trkpt lat="47.28026" lon="6.12504">
        <ele>248.313</ele>
        <time>2019-09-30T12:36:25Z</time>
      </trkpt>
      <trkpt lat="47.28017" lon="6.12486">
        <ele>248.303</ele>
        <time>2019-09-30T12:36:28Z</time>
      </trkpt>
      <trkpt lat="47.28008" lon="6.1247">
        <ele>248.405</ele>
        <time>2019-09-30T12:36:31Z</time>
      </trkpt>
      <trkpt lat="47.27996" lon="6.12453">
        <ele>248.736</ele>
        <time>2019-09-30T12:36:34Z</time>
      </trkpt>
      <trkpt lat="47.27985" lon="6.12433">
        <ele>249.37</ele>
        <time>2019-09-30T12:36:37Z</time>
      </trkpt>
      <trkpt lat="47.27973" lon="6.12415">
        <ele>250.29</ele>
        <time>2019-09-30T12:36:40Z</time>
      </trkpt>
      <trkpt lat="47.27962" lon="6.12397">
        <ele>250.449</ele>
        <time>2019-09-30T12:36:43Z</time>
      </trkpt>
      <trkpt lat="47.27951" lon="6.12377">
        <ele>250.437</ele>
        <time>2019-09-30T12:36:46Z</time>
      </trkpt>
      <trkpt lat="47.2794" lon="6.12358">
        <ele>250.426</ele>
        <time>2019-09-30T12:36:49Z</time>
      </trkpt>
      <trkpt lat="47.2793" lon="6.12341">
        <ele>250.447</ele>
        <time>2019-09-30T12:36:52Z</time>
      </trkpt>
      <trkpt lat="47.2792" lon="6.12323">
        <ele>250.235</ele>
        <time>2019-09-30T12:36:55Z</time>
      </trkpt>
      <trkpt lat="47.2791" lon="6.12305">
        <ele>249.875</ele>
        <time>2019-09-30T12:36:58Z</time>
      </trkpt>
      <trkpt lat="47.279" lon="6.12288">
        <ele>250.242</ele>
        <time>2019-09-30T12:37:01Z</time>
      </trkpt>
      <trkpt lat="47.27888" lon="6.1227">
        <ele>250.888</ele>
        <time>2019-09-30T12:37:04Z</time>
      </trkpt>
      <trkpt lat="47.27875" lon="6.12251">
        <ele>251.127</ele>
        <time>2019-09-30T12:37:07Z</time>
      </trkpt>
      <trkpt lat="47.27862" lon="6.12232">
        <ele>250.851</ele>
        <time>2019-09-30T12:37:10Z</time>
      </trkpt>
      <trkpt lat="47.27851" lon="6.12213">
        <ele>250.446</ele>
        <time>2019-09-30T12:37:13Z</time>
      </trkpt>
      <trkpt lat="47.2784" lon="6.12196">
        <ele>249.858</ele>
        <time>2019-09-30T12:37:16Z</time>
      </trkpt>
      <trkpt lat="47.2783" lon="6.12179">
        <ele>250.089</ele>
        <time>2019-09-30T12:37:19Z</time>
      </trkpt>
      <trkpt lat="47.2782" lon="6.12166">
        <ele>250.312</ele>
        <time>2019-09-30T12:37:22Z</time>
      </trkpt>
      <trkpt lat="47.27808" lon="6.12153">
        <ele>250.435</ele>
        <time>2019-09-30T12:37:25Z</time>
      </trkpt>
      <trkpt lat="47.27794" lon="6.12142">
        <ele>251.049</ele>
        <time>2019-09-30T12:37:28Z</time>
      </trkpt>
      <trkpt lat="47.2778" lon="6.12131">
        <ele>251.511</ele>
        <time>2019-09-30T12:37:31Z</time>
      </trkpt>
      <trkpt lat="47.27766" lon="6.12119">
        <ele>251.567</ele>
        <time>2019-09-30T12:37:34Z</time>
      </trkpt>
      <trkpt lat="47.27751" lon="6.12106">
        <ele>251.742</ele>
        <time>2019-09-30T12:37:37Z</time>
      </trkpt>
      <trkpt lat="47.27738" lon="6.12093">
        <ele>252.271</ele>
        <time>2019-09-30T12:37:40Z</time>
      </trkpt>
      <trkpt lat="47.27726" lon="6.1208">
        <ele>252.746</ele>
        <time>2019-09-30T12:37:43Z</time>
      </trkpt>
      <trkpt lat="47.27713" lon="6.12066">
        <ele>252.621</ele>
        <time>2019-09-30T12:37:46Z</time>
      </trkpt>
      <trkpt lat="47.27699" lon="6.12051">
        <ele>252.377</ele>
        <time>2019-09-30T12:37:49Z</time>
      </trkpt>
      <trkpt lat="47.27685" lon="6.12037">
        <ele>252.646</ele>
        <time>2019-09-30T12:37:52Z</time>
      </trkpt>
      <trkpt lat="47.27672" lon="6.12021">
        <ele>252.366</ele>
        <time>2019-09-30T12:37:55Z</time>
      </trkpt>
      <trkpt lat="47.27659" lon="6.12008">
        <ele>252.14</ele>
        <time>2019-09-30T12:37:58Z</time>
      </trkpt>
      <trkpt lat="47.27647" lon="6.11994">
        <ele>251.567</ele>
        <time>2019-09-30T12:38:01Z</time>
      </trkpt>
      <trkpt lat="47.27635" lon="6.11979">
        <ele>251.069</ele>
        <time>2019-09-30T12:38:04Z</time>
      </trkpt>
      <trkpt lat="47.27623" lon="6.11964">
        <ele>250.729</ele>
        <time>2019-09-30T12:38:07Z</time>
      </trkpt>
      <trkpt lat="47.27612" lon="6.11947">
        <ele>250.627</ele>
        <time>2019-09-30T12:38:10Z</time>
      </trkpt>
      <trkpt lat="47.276" lon="6.11932">
        <ele>250.912</ele>
        <time>2019-09-30T12:38:13Z</time>
      </trkpt>
      <trkpt lat="47.27589" lon="6.11917">
        <ele>250.872</ele>
        <time>2019-09-30T12:38:16Z</time>
      </trkpt>
      <trkpt lat="47.27577" lon="6.11903">
        <ele>250.779</ele>
        <time>2019-09-30T12:38:19Z</time>
      </trkpt>
      <trkpt lat="47.27565" lon="6.11887">
        <ele>250.662</ele>
        <time>2019-09-30T12:38:22Z</time>
      </trkpt>
      <trkpt lat="47.27553" lon="6.11873">
        <ele>250.588</ele>
        <time>2019-09-30T12:38:25Z</time>
      </trkpt>
      <trkpt lat="47.27543" lon="6.1186">
        <ele>250.942</ele>
        <time>2019-09-30T12:38:28Z</time>
      </trkpt>
      <trkpt lat="47.27531" lon="6.11847">
        <ele>250.202</ele>
        <time>2019-09-30T12:38:31Z</time>
      </trkpt>
      <trkpt lat="47.27518" lon="6.11832">
        <ele>249.598</ele>
        <time>2019-09-30T12:38:34Z</time>
      </trkpt>
      <trkpt lat="47.27504" lon="6.11817">
        <ele>249.669</ele>
        <time>2019-09-30T12:38:37Z</time>
      </trkpt>
      <trkpt lat="47.2749" lon="6.11802">
        <ele>249.583</ele>
        <time>2019-09-30T12:38:40Z</time>
      </trkpt>
      <trkpt lat="47.27477" lon="6.11789">
        <ele>249.593</ele>
        <time>2019-09-30T12:38:43Z</time>
      </trkpt>
      <trkpt lat="47.27465" lon="6.11776">
        <ele>249.275</ele>
        <time>2019-09-30T12:38:46Z</time>
      </trkpt>
      <trkpt lat="47.27452" lon="6.11763">
        <ele>248.864</ele>
        <time>2019-09-30T12:38:49Z</time>
      </trkpt>
      <trkpt lat="47.27438" lon="6.11753">
        <ele>248.745</ele>
        <time>2019-09-30T12:38:52Z</time>
      </trkpt>
      <trkpt lat="47.27423" lon="6.11751">
        <ele>248.666</ele>
        <time>2019-09-30T12:38:55Z</time>
      </trkpt>
      <trkpt lat="47.27409" lon="6.11748">
        <ele>248.011</ele>
        <time>2019-09-30T12:38:58Z</time>
      </trkpt>
      <trkpt lat="47.27398" lon="6.11741">
        <ele>248.216</ele>
        <time>2019-09-30T12:39:01Z</time>
      </trkpt>
      <trkpt lat="47.27389" lon="6.11733">
        <ele>248.269</ele>
        <time>2019-09-30T12:39:04Z</time>
      </trkpt>
      <trkpt lat="47.27379" lon="6.11725">
        <ele>248.914</ele>
        <time>2019-09-30T12:39:07Z</time>
      </trkpt>
      <trkpt lat="47.27369" lon="6.11712">
        <ele>249.042</ele>
        <time>2019-09-30T12:39:10Z</time>
      </trkpt>
      <trkpt lat="47.27358" lon="6.11699">
        <ele>249.551</ele>
        <time>2019-09-30T12:39:13Z</time>
      </trkpt>
      <trkpt lat="47.27348" lon="6.11685">
        <ele>250.238</ele>
        <time>2019-09-30T12:39:16Z</time>
      </trkpt>
      <trkpt lat="47.27337" lon="6.11671">
        <ele>251.024</ele>
        <time>2019-09-30T12:39:19Z</time>
      </trkpt>
      <trkpt lat="47.27327" lon="6.11659">
        <ele>251.157</ele>
        <time>2019-09-30T12:39:22Z</time>
      </trkpt>
      <trkpt lat="47.27318" lon="6.11647">
        <ele>251.124</ele>
        <time>2019-09-30T12:39:25Z</time>
      </trkpt>
      <trkpt lat="47.27308" lon="6.11637">
        <ele>251.108</ele>
        <time>2019-09-30T12:39:28Z</time>
      </trkpt>
      <trkpt lat="47.27297" lon="6.11626">
        <ele>251.351</ele>
        <time>2019-09-30T12:39:31Z</time>
      </trkpt>
      <trkpt lat="47.27287" lon="6.11616">
        <ele>251.311</ele>
        <time>2019-09-30T12:39:34Z</time>
      </trkpt>
      <trkpt lat="47.27277" lon="6.11608">
        <ele>250.844</ele>
        <time>2019-09-30T12:39:37Z</time>
      </trkpt>
      <trkpt lat="47.27269" lon="6.116">
        <ele>250.665</ele>
        <time>2019-09-30T12:39:40Z</time>
      </trkpt>
      <trkpt lat="47.27256" lon="6.11586">
        <ele>250.597</ele>
        <time>2019-09-30T12:39:43Z</time>
      </trkpt>
      <trkpt lat="47.2724" lon="6.11569">
        <ele>250.327</ele>
        <time>2019-09-30T12:39:46Z</time>
      </trkpt>
      <trkpt lat="47.27225" lon="6.11555">
        <ele>250.972</ele>
        <time>2019-09-30T12:39:49Z</time>
      </trkpt>
      <trkpt lat="47.27211" lon="6.11544">
        <ele>250.906</ele>
        <time>2019-09-30T12:39:52Z</time>
      </trkpt>
      <trkpt lat="47.27198" lon="6.11531">
        <ele>250.731</ele>
        <time>2019-09-30T12:39:55Z</time>
      </trkpt>
      <trkpt lat="47.27184" lon="6.1152">
        <ele>250.834</ele>
        <time>2019-09-30T12:39:58Z</time>
      </trkpt>
      <trkpt lat="47.27172" lon="6.11508">
        <ele>251.208</ele>
        <time>2019-09-30T12:40:01Z</time>
      </trkpt>
      <trkpt lat="47.27159" lon="6.11495">
        <ele>251.241</ele>
        <time>2019-09-30T12:40:04Z</time>
      </trkpt>
      <trkpt lat="47.27147" lon="6.11481">
        <ele>250.749</ele>
        <time>2019-09-30T12:40:07Z</time>
      </trkpt>
      <trkpt lat="47.27134" lon="6.11467">
        <ele>250.709</ele>
        <time>2019-09-30T12:40:10Z</time>
      </trkpt>
      <trkpt lat="47.27121" lon="6.11454">
        <ele>250.75</ele>
        <time>2019-09-30T12:40:13Z</time>
      </trkpt>
      <trkpt lat="47.27109" lon="6.1144">
        <ele>250.582</ele>
        <time>2019-09-30T12:40:16Z</time>
      </trkpt>
      <trkpt lat="47.27097" lon="6.11424">
        <ele>250.281</ele>
        <time>2019-09-30T12:40:19Z</time>
      </trkpt>
      <trkpt lat="47.27086" lon="6.11407">
        <ele>249.85</ele>
        <time>2019-09-30T12:40:22Z</time>
      </trkpt>
      <trkpt lat="47.27076" lon="6.11389">
        <ele>249.355</ele>
        <time>2019-09-30T12:40:25Z</time>
      </trkpt>
      <trkpt lat="47.27065" lon="6.11372">
        <ele>249.114</ele>
        <time>2019-09-30T12:40:28Z</time>
      </trkpt>
      <trkpt lat="47.27055" lon="6.11355">
        <ele>248.625</ele>
        <time>2019-09-30T12:40:31Z</time>
      </trkpt>
      <trkpt lat="47.27045" lon="6.11337">
        <ele>248.375</ele>
        <time>2019-09-30T12:40:34Z</time>
      </trkpt>
      <trkpt lat="47.27035" lon="6.11319">
        <ele>247.862</ele>
        <time>2019-09-30T12:40:37Z</time>
      </trkpt>
      <trkpt lat="47.27025" lon="6.11301">
        <ele>247.389</ele>
        <time>2019-09-30T12:40:40Z</time>
      </trkpt>
      <trkpt lat="47.27016" lon="6.11283">
        <ele>246.833</ele>
        <time>2019-09-30T12:40:43Z</time>
      </trkpt>
      <trkpt lat="47.27007" lon="6.11263">
        <ele>246.285</ele>
        <time>2019-09-30T12:40:46Z</time>
      </trkpt>
      <trkpt lat="47.26999" lon="6.11243">
        <ele>246.152</ele>
        <time>2019-09-30T12:40:49Z</time>
      </trkpt>
      <trkpt lat="47.26992" lon="6.11223">
        <ele>245.827</ele>
        <time>2019-09-30T12:40:52Z</time>
      </trkpt>
      <trkpt lat="47.26984" lon="6.11202">
        <ele>245.847</ele>
        <time>2019-09-30T12:40:55Z</time>
      </trkpt>
      <trkpt lat="47.26977" lon="6.11182">
        <ele>245.882</ele>
        <time>2019-09-30T12:40:58Z</time>
      </trkpt>
      <trkpt lat="47.2697" lon="6.11162">
        <ele>246.121</ele>
        <time>2019-09-30T12:41:01Z</time>
      </trkpt>
      <trkpt lat="47.26964" lon="6.11142">
        <ele>245.972</ele>
        <time>2019-09-30T12:41:04Z</time>
      </trkpt>
      <trkpt lat="47.26958" lon="6.1112">
        <ele>246.248</ele>
        <time>2019-09-30T12:41:07Z</time>
      </trkpt>
      <trkpt lat="47.26952" lon="6.11098">
        <ele>246.61</ele>
        <time>2019-09-30T12:41:10Z</time>
      </trkpt>
      <trkpt lat="47.26947" lon="6.11077">
        <ele>246.682</ele>
        <time>2019-09-30T12:41:13Z</time>
      </trkpt>
      <trkpt lat="47.26941" lon="6.11054">
        <ele>246.93</ele>
        <time>2019-09-30T12:41:16Z</time>
      </trkpt>
      <trkpt lat="47.26936" lon="6.11031">
        <ele>246.739</ele>
        <time>2019-09-30T12:41:19Z</time>
      </trkpt>
      <trkpt lat="47.26932" lon="6.11008">
        <ele>246.711</ele>
        <time>2019-09-30T12:41:22Z</time>
      </trkpt>
      <trkpt lat="47.26929" lon="6.10985">
        <ele>246.88</ele>
        <time>2019-09-30T12:41:25Z</time>
      </trkpt>
      <trkpt lat="47.26926" lon="6.10964">
        <ele>246.684</ele>
        <time>2019-09-30T12:41:28Z</time>
      </trkpt>
      <trkpt lat="47.26923" lon="6.10942">
        <ele>246.766</ele>
        <time>2019-09-30T12:41:31Z</time>
      </trkpt>
      <trkpt lat="47.2692" lon="6.1092">
        <ele>246.873</ele>
        <time>2019-09-30T12:41:34Z</time>
      </trkpt>
      <trkpt lat="47.26917" lon="6.10897">
        <ele>246.995</ele>
        <time>2019-09-30T12:41:37Z</time>
      </trkpt>
      <trkpt lat="47.26915" lon="6.10875">
        <ele>247.046</ele>
        <time>2019-09-30T12:41:40Z</time>
      </trkpt>
      <trkpt lat="47.26912" lon="6.10855">
        <ele>247.223</ele>
        <time>2019-09-30T12:41:43Z</time>
      </trkpt>
      <trkpt lat="47.2691" lon="6.10834">
        <ele>247.328</ele>
        <time>2019-09-30T12:41:46Z</time>
      </trkpt>
      <trkpt lat="47.26907" lon="6.10812">
        <ele>247.366</ele>
        <time>2019-09-30T12:41:49Z</time>
      </trkpt>
      <trkpt lat="47.26906" lon="6.10791">
        <ele>246.759</ele>
        <time>2019-09-30T12:41:52Z</time>
      </trkpt>
      <trkpt lat="47.26905" lon="6.10768">
        <ele>246.524</ele>
        <time>2019-09-30T12:41:55Z</time>
      </trkpt>
      <trkpt lat="47.26905" lon="6.10745">
        <ele>245.927</ele>
        <time>2019-09-30T12:41:58Z</time>
      </trkpt>
      <trkpt lat="47.26903" lon="6.10722">
        <ele>245.104</ele>
        <time>2019-09-30T12:42:01Z</time>
      </trkpt>
      <trkpt lat="47.26903" lon="6.10699">
        <ele>245.045</ele>
        <time>2019-09-30T12:42:04Z</time>
      </trkpt>
      <trkpt lat="47.26903" lon="6.10675">
        <ele>245.042</ele>
        <time>2019-09-30T12:42:07Z</time>
      </trkpt>
      <trkpt lat="47.26903" lon="6.10653">
        <ele>245.066</ele>
        <time>2019-09-30T12:42:10Z</time>
      </trkpt>
      <trkpt lat="47.26903" lon="6.10631">
        <ele>245.073</ele>
        <time>2019-09-30T12:42:13Z</time>
      </trkpt>
      <trkpt lat="47.26903" lon="6.10608">
        <ele>245.411</ele>
        <time>2019-09-30T12:42:16Z</time>
      </trkpt>
      <trkpt lat="47.26904" lon="6.10588">
        <ele>245.316</ele>
        <time>2019-09-30T12:42:19Z</time>
      </trkpt>
      <trkpt lat="47.26904" lon="6.10563">
        <ele>245.15</ele>
        <time>2019-09-30T12:42:22Z</time>
      </trkpt>
      <trkpt lat="47.26905" lon="6.1054">
        <ele>244.477</ele>
        <time>2019-09-30T12:42:25Z</time>
      </trkpt>
      <trkpt lat="47.26906" lon="6.10519">
        <ele>243.674</ele>
        <time>2019-09-30T12:42:28Z</time>
      </trkpt>
      <trkpt lat="47.26908" lon="6.10496">
        <ele>243.96</ele>
        <time>2019-09-30T12:42:31Z</time>
      </trkpt>
      <trkpt lat="47.26909" lon="6.10472">
        <ele>244.678</ele>
        <time>2019-09-30T12:42:34Z</time>
      </trkpt>
      <trkpt lat="47.26912" lon="6.10449">
        <ele>245.305</ele>
        <time>2019-09-30T12:42:37Z</time>
      </trkpt>
      <trkpt lat="47.26915" lon="6.10426">
        <ele>245.144</ele>
        <time>2019-09-30T12:42:40Z</time>
      </trkpt>
      <trkpt lat="47.26919" lon="6.10403">
        <ele>244.053</ele>
        <time>2019-09-30T12:42:43Z</time>
      </trkpt>
      <trkpt lat="47.26922" lon="6.10379">
        <ele>243.373</ele>
        <time>2019-09-30T12:42:46Z</time>
      </trkpt>
      <trkpt lat="47.26925" lon="6.10355">
        <ele>241.996</ele>
        <time>2019-09-30T12:42:49Z</time>
      </trkpt>
      <trkpt lat="47.2693" lon="6.10332">
        <ele>241.357</ele>
        <time>2019-09-30T12:42:52Z</time>
      </trkpt>
      <trkpt lat="47.26933" lon="6.1031">
        <ele>240.618</ele>
        <time>2019-09-30T12:42:55Z</time>
      </trkpt>
      <trkpt lat="47.26937" lon="6.10288">
        <ele>240.25</ele>
        <time>2019-09-30T12:42:58Z</time>
      </trkpt>
      <trkpt lat="47.26942" lon="6.10265">
        <ele>240.345</ele>
        <time>2019-09-30T12:43:01Z</time>
      </trkpt>
      <trkpt lat="47.26946" lon="6.10241">
        <ele>240.932</ele>
        <time>2019-09-30T12:43:04Z</time>
      </trkpt>
      <trkpt lat="47.26951" lon="6.10218">
        <ele>241.834</ele>
        <time>2019-09-30T12:43:07Z</time>
      </trkpt>
      <trkpt lat="47.26955" lon="6.10196">
        <ele>242.085</ele>
        <time>2019-09-30T12:43:10Z</time>
      </trkpt>
      <trkpt lat="47.26959" lon="6.10175">
        <ele>242.258</ele>
        <time>2019-09-30T12:43:13Z</time>
      </trkpt>
      <trkpt lat="47.26963" lon="6.10151">
        <ele>242.343</ele>
        <time>2019-09-30T12:43:16Z</time>
      </trkpt>
      <trkpt lat="47.26967" lon="6.1013">
        <ele>242.547</ele>
        <time>2019-09-30T12:43:19Z</time>
      </trkpt>
      <trkpt lat="47.2697" lon="6.10109">
        <ele>243.448</ele>
        <time>2019-09-30T12:43:22Z</time>
      </trkpt>
      <trkpt lat="47.26974" lon="6.10087">
        <ele>243.929</ele>
        <time>2019-09-30T12:43:25Z</time>
      </trkpt>
      <trkpt lat="47.26977" lon="6.10063">
        <ele>244.109</ele>
        <time>2019-09-30T12:43:28Z</time>
      </trkpt>
      <trkpt lat="47.26981" lon="6.10039">
        <ele>244.513</ele>
        <time>2019-09-30T12:43:31Z</time>
      </trkpt>
      <trkpt lat="47.26985" lon="6.10014">
        <ele>245.085</ele>
        <time>2019-09-30T12:43:34Z</time>
      </trkpt>
      <trkpt lat="47.26988" lon="6.09989">
        <ele>245.124</ele>
        <time>2019-09-30T12:43:37Z</time>
      </trkpt>
      <trkpt lat="47.2699" lon="6.09965">
        <ele>245.15</ele>
        <time>2019-09-30T12:43:40Z</time>
      </trkpt>
      <trkpt lat="47.26991" lon="6.0994">
        <ele>244.874</ele>
        <time>2019-09-30T12:43:43Z</time>
      </trkpt>
      <trkpt lat="47.26993" lon="6.09916">
        <ele>244.864</ele>
        <time>2019-09-30T12:43:46Z</time>
      </trkpt>
      <trkpt lat="47.26994" lon="6.09891">
        <ele>245.785</ele>
        <time>2019-09-30T12:43:49Z</time>
      </trkpt>
      <trkpt lat="47.26994" lon="6.09868">
        <ele>246.258</ele>
        <time>2019-09-30T12:43:52Z</time>
      </trkpt>
      <trkpt lat="47.26992" lon="6.09845">
        <ele>246.743</ele>
        <time>2019-09-30T12:43:55Z</time>
      </trkpt>
      <trkpt lat="47.26991" lon="6.09821">
        <ele>247.347</ele>
        <time>2019-09-30T12:43:58Z</time>
      </trkpt>
      <trkpt lat="47.2699" lon="6.09797">
        <ele>248.073</ele>
        <time>2019-09-30T12:44:01Z</time>
      </trkpt>
      <trkpt lat="47.26988" lon="6.09774">
        <ele>248.199</ele>
        <time>2019-09-30T12:44:04Z</time>
      </trkpt>
      <trkpt lat="47.26987" lon="6.09748">
        <ele>247.616</ele>
        <time>2019-09-30T12:44:07Z</time>
      </trkpt>
      <trkpt lat="47.26986" lon="6.09724">
        <ele>247.581</ele>
        <time>2019-09-30T12:44:10Z</time>
      </trkpt>
      <trkpt lat="47.26984" lon="6.09701">
        <ele>247.397</ele>
        <time>2019-09-30T12:44:13Z</time>
      </trkpt>
      <trkpt lat="47.26982" lon="6.09678">
        <ele>247.305</ele>
        <time>2019-09-30T12:44:16Z</time>
      </trkpt>
      <trkpt lat="47.26982" lon="6.09653">
        <ele>247.206</ele>
        <time>2019-09-30T12:44:19Z</time>
      </trkpt>
      <trkpt lat="47.26981" lon="6.09628">
        <ele>246.938</ele>
        <time>2019-09-30T12:44:22Z</time>
      </trkpt>
      <trkpt lat="47.2698" lon="6.09604">
        <ele>246.567</ele>
        <time>2019-09-30T12:44:25Z</time>
      </trkpt>
      <trkpt lat="47.26981" lon="6.0958">
        <ele>246.331</ele>
        <time>2019-09-30T12:44:28Z</time>
      </trkpt>
      <trkpt lat="47.26981" lon="6.09555">
        <ele>246.353</ele>
        <time>2019-09-30T12:44:31Z</time>
      </trkpt>
      <trkpt lat="47.26982" lon="6.09531">
        <ele>246.111</ele>
        <time>2019-09-30T12:44:34Z</time>
      </trkpt>
      <trkpt lat="47.26983" lon="6.09507">
        <ele>246.21</ele>
        <time>2019-09-30T12:44:37Z</time>
      </trkpt>
      <trkpt lat="47.26984" lon="6.09485">
        <ele>246.514</ele>
        <time>2019-09-30T12:44:40Z</time>
      </trkpt>
      <trkpt lat="47.26985" lon="6.09463">
        <ele>246.947</ele>
        <time>2019-09-30T12:44:43Z</time>
      </trkpt>
      <trkpt lat="47.26987" lon="6.09439">
        <ele>247.736</ele>
        <time>2019-09-30T12:44:46Z</time>
      </trkpt>
      <trkpt lat="47.2699" lon="6.09416">
        <ele>247.695</ele>
        <time>2019-09-30T12:44:49Z</time>
      </trkpt>
      <trkpt lat="47.26993" lon="6.0939">
        <ele>247.943</ele>
        <time>2019-09-30T12:44:52Z</time>
      </trkpt>
      <trkpt lat="47.26996" lon="6.09366">
        <ele>247.774</ele>
        <time>2019-09-30T12:44:55Z</time>
      </trkpt>
      <trkpt lat="47.26999" lon="6.09343">
        <ele>247.49</ele>
        <time>2019-09-30T12:44:58Z</time>
      </trkpt>
      <trkpt lat="47.27001" lon="6.0932">
        <ele>247.958</ele>
        <time>2019-09-30T12:45:01Z</time>
      </trkpt>
      <trkpt lat="47.27004" lon="6.09295">
        <ele>248.082</ele>
        <time>2019-09-30T12:45:04Z</time>
      </trkpt>
      <trkpt lat="47.27007" lon="6.09271">
        <ele>248.679</ele>
        <time>2019-09-30T12:45:07Z</time>
      </trkpt>
      <trkpt lat="47.27011" lon="6.09246">
        <ele>249.593</ele>
        <time>2019-09-30T12:45:10Z</time>
      </trkpt>
      <trkpt lat="47.27015" lon="6.09221">
        <ele>248.738</ele>
        <time>2019-09-30T12:45:13Z</time>
      </trkpt>
      <trkpt lat="47.27019" lon="6.09197">
        <ele>249.273</ele>
        <time>2019-09-30T12:45:16Z</time>
      </trkpt>
      <trkpt lat="47.27022" lon="6.09176">
        <ele>248.694</ele>
        <time>2019-09-30T12:45:19Z</time>
      </trkpt>
      <trkpt lat="47.27026" lon="6.09155">
        <ele>248.762</ele>
        <time>2019-09-30T12:45:22Z</time>
      </trkpt>
      <trkpt lat="47.27029" lon="6.09134">
        <ele>249.169</ele>
        <time>2019-09-30T12:45:25Z</time>
      </trkpt>
      <trkpt lat="47.27033" lon="6.09113">
        <ele>249.873</ele>
        <time>2019-09-30T12:45:28Z</time>
      </trkpt>
      <trkpt lat="47.27036" lon="6.09091">
        <ele>250.755</ele>
        <time>2019-09-30T12:45:31Z</time>
      </trkpt>
      <trkpt lat="47.27038" lon="6.09067">
        <ele>250.448</ele>
        <time>2019-09-30T12:45:34Z</time>
      </trkpt>
      <trkpt lat="47.27041" lon="6.09042">
        <ele>250.09</ele>
        <time>2019-09-30T12:45:37Z</time>
      </trkpt>
      <trkpt lat="47.27045" lon="6.09018">
        <ele>249.365</ele>
        <time>2019-09-30T12:45:40Z</time>
      </trkpt>
      <trkpt lat="47.27049" lon="6.08996">
        <ele>248.974</ele>
        <time>2019-09-30T12:45:43Z</time>
      </trkpt>
      <trkpt lat="47.27053" lon="6.08973">
        <ele>247.899</ele>
        <time>2019-09-30T12:45:46Z</time>
      </trkpt>
      <trkpt lat="47.27057" lon="6.0895">
        <ele>246.794</ele>
        <time>2019-09-30T12:45:49Z</time>
      </trkpt>
      <trkpt lat="47.2706" lon="6.08928">
        <ele>245.827</ele>
        <time>2019-09-30T12:45:52Z</time>
      </trkpt>
      <trkpt lat="47.27064" lon="6.08907">
        <ele>245.419</ele>
        <time>2019-09-30T12:45:55Z</time>
      </trkpt>
      <trkpt lat="47.27067" lon="6.08886">
        <ele>245.242</ele>
        <time>2019-09-30T12:45:58Z</time>
      </trkpt>
      <trkpt lat="47.2707" lon="6.08863">
        <ele>245.324</ele>
        <time>2019-09-30T12:46:01Z</time>
      </trkpt>
      <trkpt lat="47.27073" lon="6.08841">
        <ele>245.273</ele>
        <time>2019-09-30T12:46:04Z</time>
      </trkpt>
      <trkpt lat="47.27076" lon="6.0882">
        <ele>245.081</ele>
        <time>2019-09-30T12:46:07Z</time>
      </trkpt>
      <trkpt lat="47.2708" lon="6.08798">
        <ele>244.858</ele>
        <time>2019-09-30T12:46:10Z</time>
      </trkpt>
      <trkpt lat="47.27084" lon="6.08775">
        <ele>244.046</ele>
        <time>2019-09-30T12:46:13Z</time>
      </trkpt>
      <trkpt lat="47.27087" lon="6.08751">
        <ele>243.898</ele>
        <time>2019-09-30T12:46:16Z</time>
      </trkpt>
      <trkpt lat="47.27089" lon="6.08728">
        <ele>243.211</ele>
        <time>2019-09-30T12:46:19Z</time>
      </trkpt>
      <trkpt lat="47.27091" lon="6.08706">
        <ele>243.209</ele>
        <time>2019-09-30T12:46:22Z</time>
      </trkpt>
      <trkpt lat="47.27093" lon="6.08682">
        <ele>243.864</ele>
        <time>2019-09-30T12:46:25Z</time>
      </trkpt>
      <trkpt lat="47.27093" lon="6.0866">
        <ele>243.537</ele>
        <time>2019-09-30T12:46:28Z</time>
      </trkpt>
      <trkpt lat="47.27093" lon="6.08638">
        <ele>243.605</ele>
        <time>2019-09-30T12:46:31Z</time>
      </trkpt>
      <trkpt lat="47.27092" lon="6.08615">
        <ele>243.868</ele>
        <time>2019-09-30T12:46:34Z</time>
      </trkpt>
      <trkpt lat="47.27092" lon="6.08593">
        <ele>244.262</ele>
        <time>2019-09-30T12:46:37Z</time>
      </trkpt>
      <trkpt lat="47.27091" lon="6.08572">
        <ele>244.595</ele>
        <time>2019-09-30T12:46:40Z</time>
      </trkpt>
      <trkpt lat="47.27089" lon="6.08552">
        <ele>245.149</ele>
        <time>2019-09-30T12:46:43Z</time>
      </trkpt>
      <trkpt lat="47.27087" lon="6.08534">
        <ele>246.157</ele>
        <time>2019-09-30T12:46:46Z</time>
      </trkpt>
      <trkpt lat="47.27085" lon="6.08517">
        <ele>246.918</ele>
        <time>2019-09-30T12:46:49Z</time>
      </trkpt>
      <trkpt lat="47.27083" lon="6.085">
        <ele>247.621</ele>
        <time>2019-09-30T12:46:52Z</time>
      </trkpt>
      <trkpt lat="47.27084" lon="6.08488">
        <ele>247.689</ele>
        <time>2019-09-30T12:46:55Z</time>
      </trkpt>
      <trkpt lat="47.27084" lon="6.08485">
        <ele>247.86</ele>
        <time>2019-09-30T12:46:58Z</time>
      </trkpt>
      <trkpt lat="47.27084" lon="6.08485">
        <ele>247.86</ele>
        <time>2019-09-30T12:47:07Z</time>
      </trkpt>
      <trkpt lat="47.27084" lon="6.08484">
        <ele>247.834</ele>
        <time>2019-09-30T12:47:10Z</time>
      </trkpt>
      <trkpt lat="47.27079" lon="6.08477">
        <ele>247.604</ele>
        <time>2019-09-30T12:47:16Z</time>
      </trkpt>
      <trkpt lat="47.27072" lon="6.08478">
        <ele>246.842</ele>
        <time>2019-09-30T12:47:22Z</time>
      </trkpt>
      <trkpt lat="47.27065" lon="6.08479">
        <ele>247.651</ele>
        <time>2019-09-30T12:47:25Z</time>
      </trkpt>
      <trkpt lat="47.27058" lon="6.0848">
        <ele>248.634</ele>
        <time>2019-09-30T12:47:28Z</time>
      </trkpt>
      <trkpt lat="47.27049" lon="6.08481">
        <ele>249.507</ele>
        <time>2019-09-30T12:47:31Z</time>
      </trkpt>
      <trkpt lat="47.2704" lon="6.08482">
        <ele>250.282</ele>
        <time>2019-09-30T12:47:34Z</time>
      </trkpt>
      <trkpt lat="47.27031" lon="6.08485">
        <ele>250.918</ele>
        <time>2019-09-30T12:47:37Z</time>
      </trkpt>
      <trkpt lat="47.27022" lon="6.08487">
        <ele>251.978</ele>
        <time>2019-09-30T12:47:40Z</time>
      </trkpt>
      <trkpt lat="47.27013" lon="6.08491">
        <ele>252.503</ele>
        <time>2019-09-30T12:47:43Z</time>
      </trkpt>
      <trkpt lat="47.27004" lon="6.08494">
        <ele>252.512</ele>
        <time>2019-09-30T12:47:46Z</time>
      </trkpt>
      <trkpt lat="47.26994" lon="6.08496">
        <ele>252.148</ele>
        <time>2019-09-30T12:47:49Z</time>
      </trkpt>
      <trkpt lat="47.26984" lon="6.08498">
        <ele>251.836</ele>
        <time>2019-09-30T12:47:52Z</time>
      </trkpt>
      <trkpt lat="47.26973" lon="6.08501">
        <ele>251.028</ele>
        <time>2019-09-30T12:47:55Z</time>
      </trkpt>
      <trkpt lat="47.26962" lon="6.08504">
        <ele>250.693</ele>
        <time>2019-09-30T12:47:58Z</time>
      </trkpt>
      <trkpt lat="47.2695" lon="6.08507">
        <ele>250.386</ele>
        <time>2019-09-30T12:48:01Z</time>
      </trkpt>
      <trkpt lat="47.26939" lon="6.0851">
        <ele>249.569</ele>
        <time>2019-09-30T12:48:04Z</time>
      </trkpt>
      <trkpt lat="47.26925" lon="6.08512">
        <ele>249.044</ele>
        <time>2019-09-30T12:48:07Z</time>
      </trkpt>
      <trkpt lat="47.26911" lon="6.08516">
        <ele>248.235</ele>
        <time>2019-09-30T12:48:10Z</time>
      </trkpt>
      <trkpt lat="47.26896" lon="6.08523">
        <ele>247.964</ele>
        <time>2019-09-30T12:48:13Z</time>
      </trkpt>
      <trkpt lat="47.26881" lon="6.08531">
        <ele>247.946</ele>
        <time>2019-09-30T12:48:16Z</time>
      </trkpt>
      <trkpt lat="47.26866" lon="6.08544">
        <ele>247.808</ele>
        <time>2019-09-30T12:48:19Z</time>
      </trkpt>
      <trkpt lat="47.26852" lon="6.08564">
        <ele>246.771</ele>
        <time>2019-09-30T12:48:22Z</time>
      </trkpt>
      <trkpt lat="47.26842" lon="6.08588">
        <ele>245.894</ele>
        <time>2019-09-30T12:48:25Z</time>
      </trkpt>
      <trkpt lat="47.26834" lon="6.08617">
        <ele>245.24</ele>
        <time>2019-09-30T12:48:28Z</time>
      </trkpt>
      <trkpt lat="47.2683" lon="6.08646">
        <ele>245.032</ele>
        <time>2019-09-30T12:48:31Z</time>
      </trkpt>
      <trkpt lat="47.26832" lon="6.08677">
        <ele>244.227</ele>
        <time>2019-09-30T12:48:34Z</time>
      </trkpt>
      <trkpt lat="47.26835" lon="6.08706">
        <ele>244.019</ele>
        <time>2019-09-30T12:48:37Z</time>
      </trkpt>
      <trkpt lat="47.26839" lon="6.08732">
        <ele>243.971</ele>
        <time>2019-09-30T12:48:40Z</time>
      </trkpt>
      <trkpt lat="47.26842" lon="6.08758">
        <ele>244.245</ele>
        <time>2019-09-30T12:48:43Z</time>
      </trkpt>
      <trkpt lat="47.26841" lon="6.08782">
        <ele>245.112</ele>
        <time>2019-09-30T12:48:46Z</time>
      </trkpt>
      <trkpt lat="47.26827" lon="6.08796">
        <ele>245.746</ele>
        <time>2019-09-30T12:48:49Z</time>
      </trkpt>
      <trkpt lat="47.26811" lon="6.08804">
        <ele>245.756</ele>
        <time>2019-09-30T12:48:52Z</time>
      </trkpt>
      <trkpt lat="47.26796" lon="6.08818">
        <ele>245.817</ele>
        <time>2019-09-30T12:48:55Z</time>
      </trkpt>
      <trkpt lat="47.26783" lon="6.08834">
        <ele>246.135</ele>
        <time>2019-09-30T12:48:58Z</time>
      </trkpt>
      <trkpt lat="47.26771" lon="6.08849">
        <ele>246.499</ele>
        <time>2019-09-30T12:49:01Z</time>
      </trkpt>
      <trkpt lat="47.26759" lon="6.08863">
        <ele>247.85</ele>
        <time>2019-09-30T12:49:04Z</time>
      </trkpt>
      <trkpt lat="47.26745" lon="6.08873">
        <ele>249.824</ele>
        <time>2019-09-30T12:49:07Z</time>
      </trkpt>
      <trkpt lat="47.26733" lon="6.08881">
        <ele>250.952</ele>
        <time>2019-09-30T12:49:10Z</time>
      </trkpt>
      <trkpt lat="47.26724" lon="6.08881">
        <ele>251.844</ele>
        <time>2019-09-30T12:49:13Z</time>
      </trkpt>
      <trkpt lat="47.26716" lon="6.08876">
        <ele>252.84</ele>
        <time>2019-09-30T12:49:16Z</time>
      </trkpt>
      <trkpt lat="47.26703" lon="6.08874">
        <ele>252.774</ele>
        <time>2019-09-30T12:49:19Z</time>
      </trkpt>
      <trkpt lat="47.26688" lon="6.08871">
        <ele>252.812</ele>
        <time>2019-09-30T12:49:22Z</time>
      </trkpt>
      <trkpt lat="47.26674" lon="6.08865">
        <ele>253.162</ele>
        <time>2019-09-30T12:49:25Z</time>
      </trkpt>
      <trkpt lat="47.26659" lon="6.08857">
        <ele>253.532</ele>
        <time>2019-09-30T12:49:28Z</time>
      </trkpt>
      <trkpt lat="47.26643" lon="6.08854">
        <ele>253.422</ele>
        <time>2019-09-30T12:49:31Z</time>
      </trkpt>
      <trkpt lat="47.26627" lon="6.08852">
        <ele>252.754</ele>
        <time>2019-09-30T12:49:34Z</time>
      </trkpt>
      <trkpt lat="47.26611" lon="6.08849">
        <ele>252.123</ele>
        <time>2019-09-30T12:49:37Z</time>
      </trkpt>
      <trkpt lat="47.26593" lon="6.08842">
        <ele>251.973</ele>
        <time>2019-09-30T12:49:40Z</time>
      </trkpt>
      <trkpt lat="47.26577" lon="6.08833">
        <ele>251.896</ele>
        <time>2019-09-30T12:49:43Z</time>
      </trkpt>
      <trkpt lat="47.26561" lon="6.08824">
        <ele>251.363</ele>
        <time>2019-09-30T12:49:46Z</time>
      </trkpt>
      <trkpt lat="47.26543" lon="6.08815">
        <ele>250.36</ele>
        <time>2019-09-30T12:49:49Z</time>
      </trkpt>
      <trkpt lat="47.26526" lon="6.08806">
        <ele>249.229</ele>
        <time>2019-09-30T12:49:52Z</time>
      </trkpt>
      <trkpt lat="47.26509" lon="6.08795">
        <ele>251.078</ele>
        <time>2019-09-30T12:49:55Z</time>
      </trkpt>
      <trkpt lat="47.26494" lon="6.08785">
        <ele>251.969</ele>
        <time>2019-09-30T12:49:58Z</time>
      </trkpt>
      <trkpt lat="47.26482" lon="6.08776">
        <ele>251.713</ele>
        <time>2019-09-30T12:50:01Z</time>
      </trkpt>
      <trkpt lat="47.26468" lon="6.08766">
        <ele>250.681</ele>
        <time>2019-09-30T12:50:04Z</time>
      </trkpt>
      <trkpt lat="47.26453" lon="6.08758">
        <ele>250.064</ele>
        <time>2019-09-30T12:50:07Z</time>
      </trkpt>
      <trkpt lat="47.26438" lon="6.0875">
        <ele>249.938</ele>
        <time>2019-09-30T12:50:10Z</time>
      </trkpt>
      <trkpt lat="47.26424" lon="6.08745">
        <ele>249.703</ele>
        <time>2019-09-30T12:50:13Z</time>
      </trkpt>
      <trkpt lat="47.26409" lon="6.08739">
        <ele>249.011</ele>
        <time>2019-09-30T12:50:16Z</time>
      </trkpt>
      <trkpt lat="47.26394" lon="6.08733">
        <ele>248.805</ele>
        <time>2019-09-30T12:50:19Z</time>
      </trkpt>
      <trkpt lat="47.26379" lon="6.08728">
        <ele>248.803</ele>
        <time>2019-09-30T12:50:22Z</time>
      </trkpt>
      <trkpt lat="47.26364" lon="6.08722">
        <ele>248.328</ele>
        <time>2019-09-30T12:50:25Z</time>
      </trkpt>
      <trkpt lat="47.26349" lon="6.08716">
        <ele>247.778</ele>
        <time>2019-09-30T12:50:28Z</time>
      </trkpt>
      <trkpt lat="47.26334" lon="6.08709">
        <ele>246.967</ele>
        <time>2019-09-30T12:50:31Z</time>
      </trkpt>
      <trkpt lat="47.26319" lon="6.08703">
        <ele>246.092</ele>
        <time>2019-09-30T12:50:34Z</time>
      </trkpt>
      <trkpt lat="47.26305" lon="6.08696">
        <ele>245.749</ele>
        <time>2019-09-30T12:50:37Z</time>
      </trkpt>
      <trkpt lat="47.26291" lon="6.08689">
        <ele>246.198</ele>
        <time>2019-09-30T12:50:40Z</time>
      </trkpt>
      <trkpt lat="47.26278" lon="6.08682">
        <ele>246.752</ele>
        <time>2019-09-30T12:50:43Z</time>
      </trkpt>
      <trkpt lat="47.26264" lon="6.08676">
        <ele>246.886</ele>
        <time>2019-09-30T12:50:46Z</time>
      </trkpt>
      <trkpt lat="47.2625" lon="6.08668">
        <ele>247.144</ele>
        <time>2019-09-30T12:50:49Z</time>
      </trkpt>
      <trkpt lat="47.26236" lon="6.08659">
        <ele>247.659</ele>
        <time>2019-09-30T12:50:52Z</time>
      </trkpt>
      <trkpt lat="47.26222" lon="6.08649">
        <ele>247.803</ele>
        <time>2019-09-30T12:50:55Z</time>
      </trkpt>
      <trkpt lat="47.26209" lon="6.08639">
        <ele>248.17</ele>
        <time>2019-09-30T12:50:58Z</time>
      </trkpt>
      <trkpt lat="47.26197" lon="6.08628">
        <ele>248.193</ele>
        <time>2019-09-30T12:51:01Z</time>
      </trkpt>
      <trkpt lat="47.26186" lon="6.08618">
        <ele>247.998</ele>
        <time>2019-09-30T12:51:04Z</time>
      </trkpt>
      <trkpt lat="47.26172" lon="6.08609">
        <ele>247.927</ele>
        <time>2019-09-30T12:51:07Z</time>
      </trkpt>
      <trkpt lat="47.26159" lon="6.08599">
        <ele>248.318</ele>
        <time>2019-09-30T12:51:10Z</time>
      </trkpt>
      <trkpt lat="47.26145" lon="6.08588">
        <ele>248.716</ele>
        <time>2019-09-30T12:51:13Z</time>
      </trkpt>
      <trkpt lat="47.26132" lon="6.08577">
        <ele>249.272</ele>
        <time>2019-09-30T12:51:16Z</time>
      </trkpt>
      <trkpt lat="47.2612" lon="6.08568">
        <ele>249.566</ele>
        <time>2019-09-30T12:51:19Z</time>
      </trkpt>
      <trkpt lat="47.26106" lon="6.08559">
        <ele>249.176</ele>
        <time>2019-09-30T12:51:22.001Z</time>
      </trkpt>
      <trkpt lat="47.26093" lon="6.08552">
        <ele>248.436</ele>
        <time>2019-09-30T12:51:25.001Z</time>
      </trkpt>
      <trkpt lat="47.26082" lon="6.08544">
        <ele>248.102</ele>
        <time>2019-09-30T12:51:28.001Z</time>
      </trkpt>
      <trkpt lat="47.26068" lon="6.08534">
        <ele>247.919</ele>
        <time>2019-09-30T12:51:31.001Z</time>
      </trkpt>
      <trkpt lat="47.26055" lon="6.08524">
        <ele>247.458</ele>
        <time>2019-09-30T12:51:34.001Z</time>
      </trkpt>
      <trkpt lat="47.26041" lon="6.08516">
        <ele>246.869</ele>
        <time>2019-09-30T12:51:37.001Z</time>
      </trkpt>
      <trkpt lat="47.26027" lon="6.08508">
        <ele>246.127</ele>
        <time>2019-09-30T12:51:40.001Z</time>
      </trkpt>
      <trkpt lat="47.26013" lon="6.08499">
        <ele>246.356</ele>
        <time>2019-09-30T12:51:43.001Z</time>
      </trkpt>
      <trkpt lat="47.25999" lon="6.08488">
        <ele>246.483</ele>
        <time>2019-09-30T12:51:46.001Z</time>
      </trkpt>
      <trkpt lat="47.25987" lon="6.08478">
        <ele>246.978</ele>
        <time>2019-09-30T12:51:49.001Z</time>
      </trkpt>
      <trkpt lat="47.25976" lon="6.08469">
        <ele>247.155</ele>
        <time>2019-09-30T12:51:52.001Z</time>
      </trkpt>
      <trkpt lat="47.25961" lon="6.0846">
        <ele>247.316</ele>
        <time>2019-09-30T12:51:55.001Z</time>
      </trkpt>
      <trkpt lat="47.25944" lon="6.08453">
        <ele>246.941</ele>
        <time>2019-09-30T12:51:58.001Z</time>
      </trkpt>
      <trkpt lat="47.25928" lon="6.08446">
        <ele>246.902</ele>
        <time>2019-09-30T12:52:01.001Z</time>
      </trkpt>
      <trkpt lat="47.25914" lon="6.08441">
        <ele>246.723</ele>
        <time>2019-09-30T12:52:04.001Z</time>
      </trkpt>
      <trkpt lat="47.25898" lon="6.08435">
        <ele>246.441</ele>
        <time>2019-09-30T12:52:07.001Z</time>
      </trkpt>
      <trkpt lat="47.25883" lon="6.08428">
        <ele>246.324</ele>
        <time>2019-09-30T12:52:10.001Z</time>
      </trkpt>
      <trkpt lat="47.2587" lon="6.08421">
        <ele>245.903</ele>
        <time>2019-09-30T12:52:13.001Z</time>
      </trkpt>
      <trkpt lat="47.25857" lon="6.08412">
        <ele>245.583</ele>
        <time>2019-09-30T12:52:16Z</time>
      </trkpt>
      <trkpt lat="47.25845" lon="6.08402">
        <ele>245.527</ele>
        <time>2019-09-30T12:52:19.001Z</time>
      </trkpt>
      <trkpt lat="47.25834" lon="6.08393">
        <ele>245.939</ele>
        <time>2019-09-30T12:52:22.001Z</time>
      </trkpt>
      <trkpt lat="47.25821" lon="6.08384">
        <ele>246.808</ele>
        <time>2019-09-30T12:52:25.001Z</time>
      </trkpt>
      <trkpt lat="47.25809" lon="6.08375">
        <ele>247.232</ele>
        <time>2019-09-30T12:52:28.001Z</time>
      </trkpt>
      <trkpt lat="47.25797" lon="6.08367">
        <ele>248.233</ele>
        <time>2019-09-30T12:52:31.001Z</time>
      </trkpt>
      <trkpt lat="47.25786" lon="6.08361">
        <ele>248.639</ele>
        <time>2019-09-30T12:52:34.001Z</time>
      </trkpt>
      <trkpt lat="47.25775" lon="6.08355">
        <ele>249.205</ele>
        <time>2019-09-30T12:52:37.001Z</time>
      </trkpt>
      <trkpt lat="47.25763" lon="6.08345">
        <ele>250.199</ele>
        <time>2019-09-30T12:52:40.001Z</time>
      </trkpt>
      <trkpt lat="47.2575" lon="6.08337">
        <ele>250.523</ele>
        <time>2019-09-30T12:52:43.001Z</time>
      </trkpt>
      <trkpt lat="47.25736" lon="6.08329">
        <ele>250.319</ele>
        <time>2019-09-30T12:52:46.001Z</time>
      </trkpt>
      <trkpt lat="47.25721" lon="6.0832">
        <ele>249.865</ele>
        <time>2019-09-30T12:52:49.001Z</time>
      </trkpt>
      <trkpt lat="47.25707" lon="6.08312">
        <ele>249.432</ele>
        <time>2019-09-30T12:52:52.001Z</time>
      </trkpt>
      <trkpt lat="47.25692" lon="6.08303">
        <ele>249.215</ele>
        <time>2019-09-30T12:52:55.001Z</time>
      </trkpt>
      <trkpt lat="47.25676" lon="6.08295">
        <ele>249.72</ele>
        <time>2019-09-30T12:52:58.001Z</time>
      </trkpt>
      <trkpt lat="47.2566" lon="6.08286">
        <ele>249.169</ele>
        <time>2019-09-30T12:53:01.001Z</time>
      </trkpt>
      <trkpt lat="47.25644" lon="6.08277">
        <ele>248.531</ele>
        <time>2019-09-30T12:53:04.001Z</time>
      </trkpt>
      <trkpt lat="47.25628" lon="6.08268">
        <ele>247.657</ele>
        <time>2019-09-30T12:53:07.001Z</time>
      </trkpt>
      <trkpt lat="47.25613" lon="6.08259">
        <ele>246.827</ele>
        <time>2019-09-30T12:53:10.001Z</time>
      </trkpt>
      <trkpt lat="47.25598" lon="6.08249">
        <ele>246.172</ele>
        <time>2019-09-30T12:53:13.001Z</time>
      </trkpt>
      <trkpt lat="47.25582" lon="6.08242">
        <ele>245.258</ele>
        <time>2019-09-30T12:53:16Z</time>
      </trkpt>
      <trkpt lat="47.25567" lon="6.08233">
        <ele>244.34</ele>
        <time>2019-09-30T12:53:19.001Z</time>
      </trkpt>
      <trkpt lat="47.25552" lon="6.08225">
        <ele>243.387</ele>
        <time>2019-09-30T12:53:22.001Z</time>
      </trkpt>
      <trkpt lat="47.25538" lon="6.08217">
        <ele>242.743</ele>
        <time>2019-09-30T12:53:25.001Z</time>
      </trkpt>
      <trkpt lat="47.25523" lon="6.08209">
        <ele>242.038</ele>
        <time>2019-09-30T12:53:28.001Z</time>
      </trkpt>
      <trkpt lat="47.25509" lon="6.08201">
        <ele>241.276</ele>
        <time>2019-09-30T12:53:31.001Z</time>
      </trkpt>
      <trkpt lat="47.25494" lon="6.08192">
        <ele>241.054</ele>
        <time>2019-09-30T12:53:34.001Z</time>
      </trkpt>
      <trkpt lat="47.25479" lon="6.08181">
        <ele>241.564</ele>
        <time>2019-09-30T12:53:37.001Z</time>
      </trkpt>
      <trkpt lat="47.25465" lon="6.08168">
        <ele>242.329</ele>
        <time>2019-09-30T12:53:40.001Z</time>
      </trkpt>
      <trkpt lat="47.25452" lon="6.08156">
        <ele>243.098</ele>
        <time>2019-09-30T12:53:43.001Z</time>
      </trkpt>
      <trkpt lat="47.25439" lon="6.08146">
        <ele>243.576</ele>
        <time>2019-09-30T12:53:46.001Z</time>
      </trkpt>
      <trkpt lat="47.25425" lon="6.08137">
        <ele>244.444</ele>
        <time>2019-09-30T12:53:49.001Z</time>
      </trkpt>
      <trkpt lat="47.2541" lon="6.08128">
        <ele>245.133</ele>
        <time>2019-09-30T12:53:52.001Z</time>
      </trkpt>
      <trkpt lat="47.25397" lon="6.08117">
        <ele>245.338</ele>
        <time>2019-09-30T12:53:55.001Z</time>
      </trkpt>
      <trkpt lat="47.25384" lon="6.08105">
        <ele>245.563</ele>
        <time>2019-09-30T12:53:58.001Z</time>
      </trkpt>
      <trkpt lat="47.25372" lon="6.08091">
        <ele>245.173</ele>
        <time>2019-09-30T12:54:01.001Z</time>
      </trkpt>
      <trkpt lat="47.25359" lon="6.08078">
        <ele>244.86</ele>
        <time>2019-09-30T12:54:04.001Z</time>
      </trkpt>
      <trkpt lat="47.25347" lon="6.08062">
        <ele>245.42</ele>
        <time>2019-09-30T12:54:07.001Z</time>
      </trkpt>
      <trkpt lat="47.25339" lon="6.08043">
        <ele>245.463</ele>
        <time>2019-09-30T12:54:10.001Z</time>
      </trkpt>
      <trkpt lat="47.25329" lon="6.08027">
        <ele>245.264</ele>
        <time>2019-09-30T12:54:13.001Z</time>
      </trkpt>
      <trkpt lat="47.25318" lon="6.08016">
        <ele>245.202</ele>
        <time>2019-09-30T12:54:16Z</time>
      </trkpt>
      <trkpt lat="47.25309" lon="6.08007">
        <ele>246.172</ele>
        <time>2019-09-30T12:54:19.001Z</time>
      </trkpt>
      <trkpt lat="47.253" lon="6.07996">
        <ele>247.457</ele>
        <time>2019-09-30T12:54:22.001Z</time>
      </trkpt>
      <trkpt lat="47.25291" lon="6.07979">
        <ele>248.374</ele>
        <time>2019-09-30T12:54:25.001Z</time>
      </trkpt>
      <trkpt lat="47.25284" lon="6.0796">
        <ele>248.822</ele>
        <time>2019-09-30T12:54:28.001Z</time>
      </trkpt>
      <trkpt lat="47.25276" lon="6.07941">
        <ele>248.822</ele>
        <time>2019-09-30T12:54:31.001Z</time>
      </trkpt>
      <trkpt lat="47.2527" lon="6.07922">
        <ele>248.616</ele>
        <time>2019-09-30T12:54:34.001Z</time>
      </trkpt>
      <trkpt lat="47.25265" lon="6.07903">
        <ele>248.348</ele>
        <time>2019-09-30T12:54:37.001Z</time>
      </trkpt>
      <trkpt lat="47.25261" lon="6.07883">
        <ele>247.721</ele>
        <time>2019-09-30T12:54:40.001Z</time>
      </trkpt>
      <trkpt lat="47.25258" lon="6.07863">
        <ele>247.691</ele>
        <time>2019-09-30T12:54:43.001Z</time>
      </trkpt>
      <trkpt lat="47.25255" lon="6.0784">
        <ele>247.173</ele>
        <time>2019-09-30T12:54:46.001Z</time>
      </trkpt>
      <trkpt lat="47.25251" lon="6.07817">
        <ele>246.992</ele>
        <time>2019-09-30T12:54:49.001Z</time>
      </trkpt>
      <trkpt lat="47.25246" lon="6.07793">
        <ele>247.162</ele>
        <time>2019-09-30T12:54:52.001Z</time>
      </trkpt>
      <trkpt lat="47.2524" lon="6.0777">
        <ele>246.902</ele>
        <time>2019-09-30T12:54:55.001Z</time>
      </trkpt>
      <trkpt lat="47.25233" lon="6.07747">
        <ele>246.232</ele>
        <time>2019-09-30T12:54:58.001Z</time>
      </trkpt>
      <trkpt lat="47.25226" lon="6.07724">
        <ele>245.832</ele>
        <time>2019-09-30T12:55:01.001Z</time>
      </trkpt>
      <trkpt lat="47.25218" lon="6.07703">
        <ele>245.657</ele>
        <time>2019-09-30T12:55:04.001Z</time>
      </trkpt>
      <trkpt lat="47.25211" lon="6.07684">
        <ele>246.12</ele>
        <time>2019-09-30T12:55:07.001Z</time>
      </trkpt>
      <trkpt lat="47.25203" lon="6.07665">
        <ele>246.518</ele>
        <time>2019-09-30T12:55:10.001Z</time>
      </trkpt>
      <trkpt lat="47.25195" lon="6.07648">
        <ele>246.653</ele>
        <time>2019-09-30T12:55:13.001Z</time>
      </trkpt>
      <trkpt lat="47.25186" lon="6.07631">
        <ele>246.508</ele>
        <time>2019-09-30T12:55:16Z</time>
      </trkpt>
      <trkpt lat="47.25176" lon="6.07615">
        <ele>246.38</ele>
        <time>2019-09-30T12:55:19.001Z</time>
      </trkpt>
      <trkpt lat="47.25165" lon="6.07597">
        <ele>246.302</ele>
        <time>2019-09-30T12:55:22.001Z</time>
      </trkpt>
      <trkpt lat="47.25154" lon="6.07579">
        <ele>245.958</ele>
        <time>2019-09-30T12:55:25.001Z</time>
      </trkpt>
      <trkpt lat="47.25142" lon="6.07562">
        <ele>245.209</ele>
        <time>2019-09-30T12:55:28.001Z</time>
      </trkpt>
      <trkpt lat="47.25129" lon="6.07546">
        <ele>244.428</ele>
        <time>2019-09-30T12:55:31.001Z</time>
      </trkpt>
      <trkpt lat="47.25116" lon="6.07529">
        <ele>244.26</ele>
        <time>2019-09-30T12:55:34.001Z</time>
      </trkpt>
      <trkpt lat="47.25103" lon="6.07515">
        <ele>244.076</ele>
        <time>2019-09-30T12:55:37.001Z</time>
      </trkpt>
      <trkpt lat="47.25089" lon="6.07502">
        <ele>243.695</ele>
        <time>2019-09-30T12:55:40.001Z</time>
      </trkpt>
      <trkpt lat="47.25075" lon="6.07488">
        <ele>243.126</ele>
        <time>2019-09-30T12:55:43.001Z</time>
      </trkpt>
      <trkpt lat="47.25062" lon="6.07474">
        <ele>242.515</ele>
        <time>2019-09-30T12:55:46.001Z</time>
      </trkpt>
      <trkpt lat="47.25049" lon="6.07461">
        <ele>242.041</ele>
        <time>2019-09-30T12:55:49.001Z</time>
      </trkpt>
      <trkpt lat="47.25036" lon="6.0745">
        <ele>241.566</ele>
        <time>2019-09-30T12:55:52.001Z</time>
      </trkpt>
      <trkpt lat="47.25025" lon="6.07439">
        <ele>241.175</ele>
        <time>2019-09-30T12:55:55.001Z</time>
      </trkpt>
      <trkpt lat="47.25011" lon="6.07428">
        <ele>241.318</ele>
        <time>2019-09-30T12:55:58.001Z</time>
      </trkpt>
      <trkpt lat="47.24997" lon="6.07417">
        <ele>241.669</ele>
        <time>2019-09-30T12:56:01.001Z</time>
      </trkpt>
      <trkpt lat="47.24984" lon="6.07406">
        <ele>242.05</ele>
        <time>2019-09-30T12:56:04.001Z</time>
      </trkpt>
      <trkpt lat="47.24972" lon="6.07396">
        <ele>242.01</ele>
        <time>2019-09-30T12:56:07.001Z</time>
      </trkpt>
      <trkpt lat="47.24958" lon="6.07385">
        <ele>241.67</ele>
        <time>2019-09-30T12:56:10.001Z</time>
      </trkpt>
      <trkpt lat="47.24945" lon="6.07375">
        <ele>241.1</ele>
        <time>2019-09-30T12:56:13.001Z</time>
      </trkpt>
      <trkpt lat="47.24932" lon="6.07364">
        <ele>240.616</ele>
        <time>2019-09-30T12:56:16Z</time>
      </trkpt>
      <trkpt lat="47.24919" lon="6.07353">
        <ele>240.35</ele>
        <time>2019-09-30T12:56:19.001Z</time>
      </trkpt>
      <trkpt lat="47.24906" lon="6.07341">
        <ele>240.337</ele>
        <time>2019-09-30T12:56:22.001Z</time>
      </trkpt>
      <trkpt lat="47.24893" lon="6.0733">
        <ele>240.767</ele>
        <time>2019-09-30T12:56:25.001Z</time>
      </trkpt>
      <trkpt lat="47.24882" lon="6.0732">
        <ele>241.227</ele>
        <time>2019-09-30T12:56:28.001Z</time>
      </trkpt>
      <trkpt lat="47.24871" lon="6.07309">
        <ele>241.692</ele>
        <time>2019-09-30T12:56:31.001Z</time>
      </trkpt>
      <trkpt lat="47.2486" lon="6.07297">
        <ele>241.793</ele>
        <time>2019-09-30T12:56:34.001Z</time>
      </trkpt>
      <trkpt lat="47.24849" lon="6.07284">
        <ele>241.748</ele>
        <time>2019-09-30T12:56:37.001Z</time>
      </trkpt>
      <trkpt lat="47.24838" lon="6.07271">
        <ele>241.21</ele>
        <time>2019-09-30T12:56:40.001Z</time>
      </trkpt>
      <trkpt lat="47.24827" lon="6.07256">
        <ele>240.78</ele>
        <time>2019-09-30T12:56:43.001Z</time>
      </trkpt>
      <trkpt lat="47.24818" lon="6.07243">
        <ele>240.747</ele>
        <time>2019-09-30T12:56:46.001Z</time>
      </trkpt>
      <trkpt lat="47.24808" lon="6.07228">
        <ele>240.494</ele>
        <time>2019-09-30T12:56:49.001Z</time>
      </trkpt>
      <trkpt lat="47.24798" lon="6.07213">
        <ele>240.701</ele>
        <time>2019-09-30T12:56:52.001Z</time>
      </trkpt>
      <trkpt lat="47.2479" lon="6.07199">
        <ele>241.522</ele>
        <time>2019-09-30T12:56:55.001Z</time>
      </trkpt>
      <trkpt lat="47.24781" lon="6.07184">
        <ele>242.623</ele>
        <time>2019-09-30T12:56:58.001Z</time>
      </trkpt>
      <trkpt lat="47.24773" lon="6.07169">
        <ele>243.039</ele>
        <time>2019-09-30T12:57:01.001Z</time>
      </trkpt>
      <trkpt lat="47.24764" lon="6.07153">
        <ele>243.23</ele>
        <time>2019-09-30T12:57:04.001Z</time>
      </trkpt>
      <trkpt lat="47.24756" lon="6.07139">
        <ele>243.521</ele>
        <time>2019-09-30T12:57:07.001Z</time>
      </trkpt>
      <trkpt lat="47.24748" lon="6.07125">
        <ele>243.949</ele>
        <time>2019-09-30T12:57:10.001Z</time>
      </trkpt>
      <trkpt lat="47.24739" lon="6.07109">
        <ele>244.237</ele>
        <time>2019-09-30T12:57:13.001Z</time>
      </trkpt>
      <trkpt lat="47.24728" lon="6.07094">
        <ele>244.738</ele>
        <time>2019-09-30T12:57:16Z</time>
      </trkpt>
      <trkpt lat="47.24719" lon="6.07079">
        <ele>244.872</ele>
        <time>2019-09-30T12:57:19.001Z</time>
      </trkpt>
      <trkpt lat="47.24709" lon="6.07064">
        <ele>245</ele>
        <time>2019-09-30T12:57:22.001Z</time>
      </trkpt>
      <trkpt lat="47.24699" lon="6.07049">
        <ele>244.927</ele>
        <time>2019-09-30T12:57:25.001Z</time>
      </trkpt>
      <trkpt lat="47.24688" lon="6.07035">
        <ele>245.052</ele>
        <time>2019-09-30T12:57:28.001Z</time>
      </trkpt>
      <trkpt lat="47.24678" lon="6.07022">
        <ele>244.473</ele>
        <time>2019-09-30T12:57:31.001Z</time>
      </trkpt>
      <trkpt lat="47.24666" lon="6.07009">
        <ele>244.11</ele>
        <time>2019-09-30T12:57:34.001Z</time>
      </trkpt>
      <trkpt lat="47.24656" lon="6.06996">
        <ele>243.795</ele>
        <time>2019-09-30T12:57:37.001Z</time>
      </trkpt>
      <trkpt lat="47.24646" lon="6.06982">
        <ele>243.381</ele>
        <time>2019-09-30T12:57:40.001Z</time>
      </trkpt>
      <trkpt lat="47.24637" lon="6.06968">
        <ele>242.862</ele>
        <time>2019-09-30T12:57:43.001Z</time>
      </trkpt>
      <trkpt lat="47.24627" lon="6.06955">
        <ele>242.663</ele>
        <time>2019-09-30T12:57:46.001Z</time>
      </trkpt>
      <trkpt lat="47.24617" lon="6.06941">
        <ele>242.792</ele>
        <time>2019-09-30T12:57:49.001Z</time>
      </trkpt>
      <trkpt lat="47.24608" lon="6.06926">
        <ele>243.234</ele>
        <time>2019-09-30T12:57:52.001Z</time>
      </trkpt>
      <trkpt lat="47.24599" lon="6.06913">
        <ele>244.636</ele>
        <time>2019-09-30T12:57:55.001Z</time>
      </trkpt>
      <trkpt lat="47.2459" lon="6.06901">
        <ele>245.961</ele>
        <time>2019-09-30T12:57:58.001Z</time>
      </trkpt>
      <trkpt lat="47.24578" lon="6.0689">
        <ele>246.452</ele>
        <time>2019-09-30T12:58:01.001Z</time>
      </trkpt>
      <trkpt lat="47.24567" lon="6.06879">
        <ele>247.081</ele>
        <time>2019-09-30T12:58:04.001Z</time>
      </trkpt>
      <trkpt lat="47.24556" lon="6.06869">
        <ele>246.734</ele>
        <time>2019-09-30T12:58:07.001Z</time>
      </trkpt>
      <trkpt lat="47.24543" lon="6.0686">
        <ele>245.845</ele>
        <time>2019-09-30T12:58:10.001Z</time>
      </trkpt>
      <trkpt lat="47.24529" lon="6.0685">
        <ele>245.418</ele>
        <time>2019-09-30T12:58:13.001Z</time>
      </trkpt>
      <trkpt lat="47.24515" lon="6.06843">
        <ele>245.339</ele>
        <time>2019-09-30T12:58:16Z</time>
      </trkpt>
      <trkpt lat="47.24502" lon="6.06835">
        <ele>245.583</ele>
        <time>2019-09-30T12:58:19.001Z</time>
      </trkpt>
      <trkpt lat="47.2449" lon="6.06827">
        <ele>245.509</ele>
        <time>2019-09-30T12:58:22.001Z</time>
      </trkpt>
      <trkpt lat="47.24477" lon="6.06821">
        <ele>245.244</ele>
        <time>2019-09-30T12:58:25.001Z</time>
      </trkpt>
      <trkpt lat="47.24462" lon="6.06815">
        <ele>244.904</ele>
        <time>2019-09-30T12:58:28.001Z</time>
      </trkpt>
      <trkpt lat="47.24449" lon="6.06809">
        <ele>244.971</ele>
        <time>2019-09-30T12:58:31.001Z</time>
      </trkpt>
      <trkpt lat="47.24435" lon="6.06803">
        <ele>244.421</ele>
        <time>2019-09-30T12:58:34.001Z</time>
      </trkpt>
      <trkpt lat="47.2442" lon="6.06798">
        <ele>243.974</ele>
        <time>2019-09-30T12:58:37.001Z</time>
      </trkpt>
      <trkpt lat="47.24405" lon="6.06792">
        <ele>243.502</ele>
        <time>2019-09-30T12:58:40.001Z</time>
      </trkpt>
      <trkpt lat="47.24391" lon="6.06786">
        <ele>243.423</ele>
        <time>2019-09-30T12:58:43.001Z</time>
      </trkpt>
      <trkpt lat="47.24376" lon="6.06781">
        <ele>243.357</ele>
        <time>2019-09-30T12:58:46.001Z</time>
      </trkpt>
      <trkpt lat="47.24362" lon="6.06775">
        <ele>242.997</ele>
        <time>2019-09-30T12:58:49.001Z</time>
      </trkpt>
      <trkpt lat="47.24347" lon="6.0677">
        <ele>242.532</ele>
        <time>2019-09-30T12:58:52.001Z</time>
      </trkpt>
      <trkpt lat="47.24333" lon="6.06764">
        <ele>242.227</ele>
        <time>2019-09-30T12:58:55.001Z</time>
      </trkpt>
      <trkpt lat="47.24318" lon="6.06758">
        <ele>242.049</ele>
        <time>2019-09-30T12:58:58.001Z</time>
      </trkpt>
      <trkpt lat="47.24302" lon="6.06752">
        <ele>241.971</ele>
        <time>2019-09-30T12:59:01.001Z</time>
      </trkpt>
      <trkpt lat="47.24287" lon="6.06746">
        <ele>241.477</ele>
        <time>2019-09-30T12:59:04.001Z</time>
      </trkpt>
      <trkpt lat="47.24272" lon="6.06741">
        <ele>241.211</ele>
        <time>2019-09-30T12:59:07.001Z</time>
      </trkpt>
      <trkpt lat="47.24257" lon="6.06736">
        <ele>241.139</ele>
        <time>2019-09-30T12:59:10.001Z</time>
      </trkpt>
      <trkpt lat="47.24243" lon="6.0673">
        <ele>241.346</ele>
        <time>2019-09-30T12:59:13.001Z</time>
      </trkpt>
      <trkpt lat="47.24229" lon="6.06723">
        <ele>241.83</ele>
        <time>2019-09-30T12:59:16Z</time>
      </trkpt>
      <trkpt lat="47.24215" lon="6.06715">
        <ele>242.07</ele>
        <time>2019-09-30T12:59:19.001Z</time>
      </trkpt>
      <trkpt lat="47.24201" lon="6.06707">
        <ele>242.221</ele>
        <time>2019-09-30T12:59:22.001Z</time>
      </trkpt>
      <trkpt lat="47.24189" lon="6.067">
        <ele>242.287</ele>
        <time>2019-09-30T12:59:25.001Z</time>
      </trkpt>
      <trkpt lat="47.24177" lon="6.06692">
        <ele>242.815</ele>
        <time>2019-09-30T12:59:28.001Z</time>
      </trkpt>
      <trkpt lat="47.24165" lon="6.06681">
        <ele>243.014</ele>
        <time>2019-09-30T12:59:31.001Z</time>
      </trkpt>
      <trkpt lat="47.24153" lon="6.06666">
        <ele>242.655</ele>
        <time>2019-09-30T12:59:34.001Z</time>
      </trkpt>
      <trkpt lat="47.2414" lon="6.06651">
        <ele>242.177</ele>
        <time>2019-09-30T12:59:37.001Z</time>
      </trkpt>
      <trkpt lat="47.24127" lon="6.06637">
        <ele>241.961</ele>
        <time>2019-09-30T12:59:40.001Z</time>
      </trkpt>
      <trkpt lat="47.24114" lon="6.06623">
        <ele>242.262</ele>
        <time>2019-09-30T12:59:43.001Z</time>
      </trkpt>
      <trkpt lat="47.24101" lon="6.06608">
        <ele>243.526</ele>
        <time>2019-09-30T12:59:46.001Z</time>
      </trkpt>
      <trkpt lat="47.24089" lon="6.06592">
        <ele>243.61</ele>
        <time>2019-09-30T12:59:49.001Z</time>
      </trkpt>
      <trkpt lat="47.24077" lon="6.06577">
        <ele>243.915</ele>
        <time>2019-09-30T12:59:52.001Z</time>
      </trkpt>
      <trkpt lat="47.24064" lon="6.06561">
        <ele>243.89</ele>
        <time>2019-09-30T12:59:55.001Z</time>
      </trkpt>
      <trkpt lat="47.24052" lon="6.06546">
        <ele>244.101</ele>
        <time>2019-09-30T12:59:58.001Z</time>
      </trkpt>
      <trkpt lat="47.2404" lon="6.06533">
        <ele>244.073</ele>
        <time>2019-09-30T13:00:01.001Z</time>
      </trkpt>
      <trkpt lat="47.24028" lon="6.06521">
        <ele>244.453</ele>
        <time>2019-09-30T13:00:04.001Z</time>
      </trkpt>
      <trkpt lat="47.24015" lon="6.0651">
        <ele>244.956</ele>
        <time>2019-09-30T13:00:07.001Z</time>
      </trkpt>
      <trkpt lat="47.24002" lon="6.06497">
        <ele>245.694</ele>
        <time>2019-09-30T13:00:10.001Z</time>
      </trkpt>
      <trkpt lat="47.23991" lon="6.06484">
        <ele>246.371</ele>
        <time>2019-09-30T13:00:13.001Z</time>
      </trkpt>
      <trkpt lat="47.2398" lon="6.06471">
        <ele>246.749</ele>
        <time>2019-09-30T13:00:16Z</time>
      </trkpt>
      <trkpt lat="47.23969" lon="6.06457">
        <ele>246.637</ele>
        <time>2019-09-30T13:00:19.001Z</time>
      </trkpt>
      <trkpt lat="47.23957" lon="6.0644">
        <ele>246.754</ele>
        <time>2019-09-30T13:00:22.001Z</time>
      </trkpt>
      <trkpt lat="47.23946" lon="6.06423">
        <ele>247.569</ele>
        <time>2019-09-30T13:00:25.001Z</time>
      </trkpt>
      <trkpt lat="47.23934" lon="6.06407">
        <ele>248.005</ele>
        <time>2019-09-30T13:00:28.001Z</time>
      </trkpt>
      <trkpt lat="47.23923" lon="6.06391">
        <ele>248.19</ele>
        <time>2019-09-30T13:00:31.001Z</time>
      </trkpt>
      <trkpt lat="47.23912" lon="6.06375">
        <ele>248.478</ele>
        <time>2019-09-30T13:00:34.001Z</time>
      </trkpt>
      <trkpt lat="47.23901" lon="6.0636">
        <ele>248.562</ele>
        <time>2019-09-30T13:00:37.001Z</time>
      </trkpt>
      <trkpt lat="47.2389" lon="6.06346">
        <ele>248.547</ele>
        <time>2019-09-30T13:00:40.001Z</time>
      </trkpt>
      <trkpt lat="47.23879" lon="6.06332">
        <ele>248.294</ele>
        <time>2019-09-30T13:00:43.001Z</time>
      </trkpt>
      <trkpt lat="47.23869" lon="6.06319">
        <ele>248.186</ele>
        <time>2019-09-30T13:00:46.001Z</time>
      </trkpt>
      <trkpt lat="47.23858" lon="6.06305">
        <ele>247.72</ele>
        <time>2019-09-30T13:00:49.001Z</time>
      </trkpt>
      <trkpt lat="47.23847" lon="6.06291">
        <ele>247.526</ele>
        <time>2019-09-30T13:00:52.001Z</time>
      </trkpt>
      <trkpt lat="47.23834" lon="6.06278">
        <ele>247.101</ele>
        <time>2019-09-30T13:00:55.001Z</time>
      </trkpt>
      <trkpt lat="47.23821" lon="6.06264">
        <ele>246.343</ele>
        <time>2019-09-30T13:00:58.001Z</time>
      </trkpt>
      <trkpt lat="47.23807" lon="6.0625">
        <ele>245.11</ele>
        <time>2019-09-30T13:01:01.001Z</time>
      </trkpt>
      <trkpt lat="47.23791" lon="6.06237">
        <ele>244.398</ele>
        <time>2019-09-30T13:01:04.001Z</time>
      </trkpt>
      <trkpt lat="47.23776" lon="6.06226">
        <ele>243.837</ele>
        <time>2019-09-30T13:01:07.001Z</time>
      </trkpt>
      <trkpt lat="47.23761" lon="6.06215">
        <ele>243.377</ele>
        <time>2019-09-30T13:01:10.001Z</time>
      </trkpt>
      <trkpt lat="47.23745" lon="6.06206">
        <ele>243.322</ele>
        <time>2019-09-30T13:01:13.001Z</time>
      </trkpt>
      <trkpt lat="47.23729" lon="6.06197">
        <ele>243.013</ele>
        <time>2019-09-30T13:01:16Z</time>
      </trkpt>
      <trkpt lat="47.23714" lon="6.06188">
        <ele>242.872</ele>
        <time>2019-09-30T13:01:19.001Z</time>
      </trkpt>
      <trkpt lat="47.23699" lon="6.0618">
        <ele>242.75</ele>
        <time>2019-09-30T13:01:22.001Z</time>
      </trkpt>
      <trkpt lat="47.23683" lon="6.06172">
        <ele>243.011</ele>
        <time>2019-09-30T13:01:25.001Z</time>
      </trkpt>
      <trkpt lat="47.23668" lon="6.06165">
        <ele>243.22</ele>
        <time>2019-09-30T13:01:28.001Z</time>
      </trkpt>
      <trkpt lat="47.23653" lon="6.06159">
        <ele>243.562</ele>
        <time>2019-09-30T13:01:31.001Z</time>
      </trkpt>
      <trkpt lat="47.23639" lon="6.06155">
        <ele>244.324</ele>
        <time>2019-09-30T13:01:34.001Z</time>
      </trkpt>
      <trkpt lat="47.23625" lon="6.06149">
        <ele>244.326</ele>
        <time>2019-09-30T13:01:37.001Z</time>
      </trkpt>
      <trkpt lat="47.2361" lon="6.06144">
        <ele>243.9</ele>
        <time>2019-09-30T13:01:40.001Z</time>
      </trkpt>
      <trkpt lat="47.23594" lon="6.06139">
        <ele>243.331</ele>
        <time>2019-09-30T13:01:43.001Z</time>
      </trkpt>
      <trkpt lat="47.23578" lon="6.06135">
        <ele>242.801</ele>
        <time>2019-09-30T13:01:46.001Z</time>
      </trkpt>
      <trkpt lat="47.23562" lon="6.06131">
        <ele>242.364</ele>
        <time>2019-09-30T13:01:49.001Z</time>
      </trkpt>
      <trkpt lat="47.23547" lon="6.06127">
        <ele>242.206</ele>
        <time>2019-09-30T13:01:52.001Z</time>
      </trkpt>
      <trkpt lat="47.23532" lon="6.06123">
        <ele>242.246</ele>
        <time>2019-09-30T13:01:55.001Z</time>
      </trkpt>
      <trkpt lat="47.23517" lon="6.0612">
        <ele>242.429</ele>
        <time>2019-09-30T13:01:58.001Z</time>
      </trkpt>
      <trkpt lat="47.23502" lon="6.06117">
        <ele>242.296</ele>
        <time>2019-09-30T13:02:01.001Z</time>
      </trkpt>
      <trkpt lat="47.23488" lon="6.06113">
        <ele>242.128</ele>
        <time>2019-09-30T13:02:04.001Z</time>
      </trkpt>
      <trkpt lat="47.23473" lon="6.06109">
        <ele>242.538</ele>
        <time>2019-09-30T13:02:07.001Z</time>
      </trkpt>
      <trkpt lat="47.23458" lon="6.06105">
        <ele>242.463</ele>
        <time>2019-09-30T13:02:10.001Z</time>
      </trkpt>
      <trkpt lat="47.23443" lon="6.06101">
        <ele>242.468</ele>
        <time>2019-09-30T13:02:13.001Z</time>
      </trkpt>
      <trkpt lat="47.23426" lon="6.06096">
        <ele>242.214</ele>
        <time>2019-09-30T13:02:16Z</time>
      </trkpt>
      <trkpt lat="47.23411" lon="6.06091">
        <ele>241.793</ele>
        <time>2019-09-30T13:02:19.001Z</time>
      </trkpt>
      <trkpt lat="47.23396" lon="6.06087">
        <ele>241.45</ele>
        <time>2019-09-30T13:02:22.001Z</time>
      </trkpt>
      <trkpt lat="47.2338" lon="6.06082">
        <ele>240.904</ele>
        <time>2019-09-30T13:02:25.001Z</time>
      </trkpt>
      <trkpt lat="47.23365" lon="6.06076">
        <ele>240.463</ele>
        <time>2019-09-30T13:02:28.001Z</time>
      </trkpt>
      <trkpt lat="47.2335" lon="6.06069">
        <ele>240.031</ele>
        <time>2019-09-30T13:02:31.001Z</time>
      </trkpt>
      <trkpt lat="47.23336" lon="6.06061">
        <ele>240.086</ele>
        <time>2019-09-30T13:02:34.001Z</time>
      </trkpt>
      <trkpt lat="47.23323" lon="6.06051">
        <ele>240.247</ele>
        <time>2019-09-30T13:02:37.001Z</time>
      </trkpt>
      <trkpt lat="47.23311" lon="6.0604">
        <ele>241.253</ele>
        <time>2019-09-30T13:02:40.001Z</time>
      </trkpt>
      <trkpt lat="47.23299" lon="6.06027">
        <ele>241.831</ele>
        <time>2019-09-30T13:02:43.001Z</time>
      </trkpt>
      <trkpt lat="47.23286" lon="6.06013">
        <ele>242.891</ele>
        <time>2019-09-30T13:02:46.001Z</time>
      </trkpt>
      <trkpt lat="47.23273" lon="6.05998">
        <ele>243.995</ele>
        <time>2019-09-30T13:02:49.001Z</time>
      </trkpt>
      <trkpt lat="47.2326" lon="6.05983">
        <ele>244.89</ele>
        <time>2019-09-30T13:02:52.001Z</time>
      </trkpt>
      <trkpt lat="47.23247" lon="6.05969">
        <ele>245.871</ele>
        <time>2019-09-30T13:02:55.001Z</time>
      </trkpt>
      <trkpt lat="47.23236" lon="6.05956">
        <ele>246.624</ele>
        <time>2019-09-30T13:02:58.001Z</time>
      </trkpt>
      <trkpt lat="47.23225" lon="6.05944">
        <ele>247.156</ele>
        <time>2019-09-30T13:03:01.001Z</time>
      </trkpt>
      <trkpt lat="47.23213" lon="6.05932">
        <ele>247.878</ele>
        <time>2019-09-30T13:03:04.001Z</time>
      </trkpt>
      <trkpt lat="47.23201" lon="6.05921">
        <ele>248.38</ele>
        <time>2019-09-30T13:03:07.001Z</time>
      </trkpt>
      <trkpt lat="47.23188" lon="6.05911">
        <ele>248.638</ele>
        <time>2019-09-30T13:03:10.001Z</time>
      </trkpt>
      <trkpt lat="47.23175" lon="6.059">
        <ele>248.91</ele>
        <time>2019-09-30T13:03:13.001Z</time>
      </trkpt>
      <trkpt lat="47.23161" lon="6.05888">
        <ele>249.404</ele>
        <time>2019-09-30T13:03:16Z</time>
      </trkpt>
      <trkpt lat="47.23147" lon="6.0588">
        <ele>249.398</ele>
        <time>2019-09-30T13:03:19.001Z</time>
      </trkpt>
      <trkpt lat="47.23132" lon="6.05869">
        <ele>249.344</ele>
        <time>2019-09-30T13:03:22.001Z</time>
      </trkpt>
      <trkpt lat="47.23117" lon="6.05858">
        <ele>248.889</ele>
        <time>2019-09-30T13:03:25.001Z</time>
      </trkpt>
      <trkpt lat="47.23104" lon="6.05848">
        <ele>248.49</ele>
        <time>2019-09-30T13:03:28.001Z</time>
      </trkpt>
      <trkpt lat="47.23095" lon="6.05839">
        <ele>247.398</ele>
        <time>2019-09-30T13:03:31.001Z</time>
      </trkpt>
      <trkpt lat="47.23086" lon="6.05832">
        <ele>246.933</ele>
        <time>2019-09-30T13:03:34.001Z</time>
      </trkpt>
      <trkpt lat="47.23075" lon="6.05822">
        <ele>246.546</ele>
        <time>2019-09-30T13:03:37.001Z</time>
      </trkpt>
      <trkpt lat="47.23062" lon="6.05813">
        <ele>246.019</ele>
        <time>2019-09-30T13:03:40.001Z</time>
      </trkpt>
      <trkpt lat="47.23047" lon="6.05801">
        <ele>245.152</ele>
        <time>2019-09-30T13:03:43.001Z</time>
      </trkpt>
      <trkpt lat="47.23031" lon="6.05787">
        <ele>244.373</ele>
        <time>2019-09-30T13:03:46.001Z</time>
      </trkpt>
      <trkpt lat="47.23018" lon="6.05774">
        <ele>243.762</ele>
        <time>2019-09-30T13:03:49.001Z</time>
      </trkpt>
      <trkpt lat="47.23006" lon="6.05761">
        <ele>242.853</ele>
        <time>2019-09-30T13:03:52.001Z</time>
      </trkpt>
      <trkpt lat="47.22995" lon="6.05748">
        <ele>242.033</ele>
        <time>2019-09-30T13:03:55.001Z</time>
      </trkpt>
      <trkpt lat="47.22983" lon="6.05734">
        <ele>241.74</ele>
        <time>2019-09-30T13:03:58.001Z</time>
      </trkpt>
      <trkpt lat="47.22972" lon="6.05719">
        <ele>241.976</ele>
        <time>2019-09-30T13:04:01.001Z</time>
      </trkpt>
      <trkpt lat="47.2296" lon="6.05701">
        <ele>242.261</ele>
        <time>2019-09-30T13:04:04.001Z</time>
      </trkpt>
      <trkpt lat="47.22948" lon="6.05685">
        <ele>242.359</ele>
        <time>2019-09-30T13:04:07.001Z</time>
      </trkpt>
      <trkpt lat="47.22936" lon="6.05668">
        <ele>243.179</ele>
        <time>2019-09-30T13:04:10.001Z</time>
      </trkpt>
      <trkpt lat="47.22925" lon="6.05653">
        <ele>244.807</ele>
        <time>2019-09-30T13:04:13.001Z</time>
      </trkpt>
      <trkpt lat="47.22914" lon="6.05637">
        <ele>245.585</ele>
        <time>2019-09-30T13:04:16Z</time>
      </trkpt>
      <trkpt lat="47.22904" lon="6.05621">
        <ele>246.257</ele>
        <time>2019-09-30T13:04:19.001Z</time>
      </trkpt>
      <trkpt lat="47.22894" lon="6.05604">
        <ele>247.029</ele>
        <time>2019-09-30T13:04:22.001Z</time>
      </trkpt>
      <trkpt lat="47.22882" lon="6.05587">
        <ele>246.796</ele>
        <time>2019-09-30T13:04:25.001Z</time>
      </trkpt>
      <trkpt lat="47.22871" lon="6.05571">
        <ele>246.185</ele>
        <time>2019-09-30T13:04:28.001Z</time>
      </trkpt>
      <trkpt lat="47.2286" lon="6.05554">
        <ele>246.033</ele>
        <time>2019-09-30T13:04:31.001Z</time>
      </trkpt>
      <trkpt lat="47.22849" lon="6.05537">
        <ele>245.458</ele>
        <time>2019-09-30T13:04:34.001Z</time>
      </trkpt>
      <trkpt lat="47.22838" lon="6.05519">
        <ele>245.371</ele>
        <time>2019-09-30T13:04:37.001Z</time>
      </trkpt>
      <trkpt lat="47.22829" lon="6.05501">
        <ele>245.071</ele>
        <time>2019-09-30T13:04:40.001Z</time>
      </trkpt>
      <trkpt lat="47.22819" lon="6.05484">
        <ele>245.293</ele>
        <time>2019-09-30T13:04:43.001Z</time>
      </trkpt>
      <trkpt lat="47.2281" lon="6.05467">
        <ele>245.297</ele>
        <time>2019-09-30T13:04:46.001Z</time>
      </trkpt>
      <trkpt lat="47.22801" lon="6.05449">
        <ele>244.714</ele>
        <time>2019-09-30T13:04:49.001Z</time>
      </trkpt>
      <trkpt lat="47.22792" lon="6.05431">
        <ele>243.999</ele>
        <time>2019-09-30T13:04:52.001Z</time>
      </trkpt>
      <trkpt lat="47.22784" lon="6.05413">
        <ele>243.67</ele>
        <time>2019-09-30T13:04:55.001Z</time>
      </trkpt>
      <trkpt lat="47.22776" lon="6.05395">
        <ele>243.19</ele>
        <time>2019-09-30T13:04:58.001Z</time>
      </trkpt>
      <trkpt lat="47.2277" lon="6.05377">
        <ele>243.455</ele>
        <time>2019-09-30T13:05:01.001Z</time>
      </trkpt>
      <trkpt lat="47.22762" lon="6.05359">
        <ele>243.925</ele>
        <time>2019-09-30T13:05:04.001Z</time>
      </trkpt>
      <trkpt lat="47.22755" lon="6.05339">
        <ele>244.503</ele>
        <time>2019-09-30T13:05:07.001Z</time>
      </trkpt>
      <trkpt lat="47.22747" lon="6.0532">
        <ele>244.695</ele>
        <time>2019-09-30T13:05:10.001Z</time>
      </trkpt>
      <trkpt lat="47.22739" lon="6.05301">
        <ele>244.36</ele>
        <time>2019-09-30T13:05:13.001Z</time>
      </trkpt>
      <trkpt lat="47.22733" lon="6.05281">
        <ele>243.956</ele>
        <time>2019-09-30T13:05:16Z</time>
      </trkpt>
      <trkpt lat="47.22726" lon="6.0526">
        <ele>243.983</ele>
        <time>2019-09-30T13:05:19.001Z</time>
      </trkpt>
      <trkpt lat="47.2272" lon="6.05239">
        <ele>244.043</ele>
        <time>2019-09-30T13:05:22.001Z</time>
      </trkpt>
      <trkpt lat="47.22714" lon="6.05218">
        <ele>244.373</ele>
        <time>2019-09-30T13:05:25.001Z</time>
      </trkpt>
      <trkpt lat="47.22708" lon="6.05197">
        <ele>244.873</ele>
        <time>2019-09-30T13:05:28.001Z</time>
      </trkpt>
      <trkpt lat="47.22703" lon="6.05176">
        <ele>245.722</ele>
        <time>2019-09-30T13:05:31.001Z</time>
      </trkpt>
      <trkpt lat="47.22697" lon="6.05153">
        <ele>246.411</ele>
        <time>2019-09-30T13:05:34.001Z</time>
      </trkpt>
      <trkpt lat="47.2269" lon="6.0513">
        <ele>247.024</ele>
        <time>2019-09-30T13:05:37.001Z</time>
      </trkpt>
      <trkpt lat="47.22683" lon="6.05109">
        <ele>247.227</ele>
        <time>2019-09-30T13:05:40.001Z</time>
      </trkpt>
      <trkpt lat="47.22676" lon="6.05088">
        <ele>247.221</ele>
        <time>2019-09-30T13:05:43.001Z</time>
      </trkpt>
      <trkpt lat="47.22671" lon="6.05067">
        <ele>246.697</ele>
        <time>2019-09-30T13:05:46.001Z</time>
      </trkpt>
      <trkpt lat="47.22665" lon="6.05046">
        <ele>246.35</ele>
        <time>2019-09-30T13:05:49.001Z</time>
      </trkpt>
      <trkpt lat="47.2266" lon="6.0503">
        <ele>246.097</ele>
        <time>2019-09-30T13:05:52.001Z</time>
      </trkpt>
      <trkpt lat="47.22657" lon="6.05018">
        <ele>245.97</ele>
        <time>2019-09-30T13:05:55.001Z</time>
      </trkpt>
      <trkpt lat="47.22656" lon="6.05014">
        <ele>245.456</ele>
        <time>2019-09-30T13:05:58.001Z</time>
      </trkpt>
      <trkpt lat="47.22656" lon="6.05014">
        <ele>245.456</ele>
        <time>2019-09-30T13:07:40.001Z</time>
      </trkpt>
      <trkpt lat="47.22656" lon="6.05012">
        <ele>245.764</ele>
        <time>2019-09-30T13:07:43.001Z</time>
      </trkpt>
      <trkpt lat="47.22653" lon="6.05005">
        <ele>245.668</ele>
        <time>2019-09-30T13:07:46.001Z</time>
      </trkpt>
      <trkpt lat="47.2265" lon="6.04997">
        <ele>245.394</ele>
        <time>2019-09-30T13:07:49.001Z</time>
      </trkpt>
      <trkpt lat="47.22648" lon="6.04986">
        <ele>245.193</ele>
        <time>2019-09-30T13:07:52.001Z</time>
      </trkpt>
      <trkpt lat="47.22645" lon="6.04974">
        <ele>244.818</ele>
        <time>2019-09-30T13:07:55.001Z</time>
      </trkpt>
      <trkpt lat="47.22641" lon="6.0496">
        <ele>244.153</ele>
        <time>2019-09-30T13:07:58.001Z</time>
      </trkpt>
      <trkpt lat="47.22637" lon="6.04945">
        <ele>243.643</ele>
        <time>2019-09-30T13:08:01.001Z</time>
      </trkpt>
      <trkpt lat="47.22634" lon="6.04929">
        <ele>243.272</ele>
        <time>2019-09-30T13:08:04.001Z</time>
      </trkpt>
      <trkpt lat="47.22628" lon="6.04914">
        <ele>243.106</ele>
        <time>2019-09-30T13:08:07.001Z</time>
      </trkpt>
      <trkpt lat="47.22624" lon="6.04897">
        <ele>242.913</ele>
        <time>2019-09-30T13:08:10.001Z</time>
      </trkpt>
      <trkpt lat="47.2262" lon="6.04878">
        <ele>242.449</ele>
        <time>2019-09-30T13:08:13.001Z</time>
      </trkpt>
      <trkpt lat="47.22616" lon="6.04857">
        <ele>242.658</ele>
        <time>2019-09-30T13:08:16Z</time>
      </trkpt>
      <trkpt lat="47.22612" lon="6.04837">
        <ele>242.93</ele>
        <time>2019-09-30T13:08:19.001Z</time>
      </trkpt>
      <trkpt lat="47.22609" lon="6.04818">
        <ele>243.583</ele>
        <time>2019-09-30T13:08:22.001Z</time>
      </trkpt>
      <trkpt lat="47.22607" lon="6.04798">
        <ele>244.076</ele>
        <time>2019-09-30T13:08:25.001Z</time>
      </trkpt>
      <trkpt lat="47.22604" lon="6.04778">
        <ele>244.421</ele>
        <time>2019-09-30T13:08:28.001Z</time>
      </trkpt>
      <trkpt lat="47.22603" lon="6.04756">
        <ele>244.406</ele>
        <time>2019-09-30T13:08:31.001Z</time>
      </trkpt>
      <trkpt lat="47.22601" lon="6.04735">
        <ele>244.504</ele>
        <time>2019-09-30T13:08:34.001Z</time>
      </trkpt>
      <trkpt lat="47.22596" lon="6.04715">
        <ele>244.477</ele>
        <time>2019-09-30T13:08:37.001Z</time>
      </trkpt>
      <trkpt lat="47.22593" lon="6.04694">
        <ele>244.566</ele>
        <time>2019-09-30T13:08:40.001Z</time>
      </trkpt>
      <trkpt lat="47.22592" lon="6.04673">
        <ele>243.782</ele>
        <time>2019-09-30T13:08:43.001Z</time>
      </trkpt>
      <trkpt lat="47.2259" lon="6.04651">
        <ele>243.129</ele>
        <time>2019-09-30T13:08:46.001Z</time>
      </trkpt>
      <trkpt lat="47.22589" lon="6.04628">
        <ele>242.543</ele>
        <time>2019-09-30T13:08:49.001Z</time>
      </trkpt>
      <trkpt lat="47.22588" lon="6.04606">
        <ele>242.142</ele>
        <time>2019-09-30T13:08:52.001Z</time>
      </trkpt>
      <trkpt lat="47.22587" lon="6.04585">
        <ele>242.205</ele>
        <time>2019-09-30T13:08:55.001Z</time>
      </trkpt>
      <trkpt lat="47.22586" lon="6.04564">
        <ele>242.403</ele>
        <time>2019-09-30T13:08:58.001Z</time>
      </trkpt>
      <trkpt lat="47.22585" lon="6.04542">
        <ele>243.198</ele>
        <time>2019-09-30T13:09:01.001Z</time>
      </trkpt>
      <trkpt lat="47.22585" lon="6.04518">
        <ele>244.288</ele>
        <time>2019-09-30T13:09:04.001Z</time>
      </trkpt>
      <trkpt lat="47.22586" lon="6.04495">
        <ele>244.513</ele>
        <time>2019-09-30T13:09:07.001Z</time>
      </trkpt>
      <trkpt lat="47.22587" lon="6.04472">
        <ele>244.662</ele>
        <time>2019-09-30T13:09:10.001Z</time>
      </trkpt>
      <trkpt lat="47.2259" lon="6.04448">
        <ele>244.979</ele>
        <time>2019-09-30T13:09:13.001Z</time>
      </trkpt>
      <trkpt lat="47.22593" lon="6.04425">
        <ele>244.828</ele>
        <time>2019-09-30T13:09:16Z</time>
      </trkpt>
      <trkpt lat="47.22595" lon="6.04402">
        <ele>244.551</ele>
        <time>2019-09-30T13:09:19.001Z</time>
      </trkpt>
      <trkpt lat="47.22598" lon="6.04379">
        <ele>244.604</ele>
        <time>2019-09-30T13:09:22.001Z</time>
      </trkpt>
      <trkpt lat="47.226" lon="6.04355">
        <ele>244.668</ele>
        <time>2019-09-30T13:09:25.001Z</time>
      </trkpt>
      <trkpt lat="47.22603" lon="6.04333">
        <ele>245.567</ele>
        <time>2019-09-30T13:09:28.001Z</time>
      </trkpt>
      <trkpt lat="47.22608" lon="6.04311">
        <ele>246.275</ele>
        <time>2019-09-30T13:09:31.001Z</time>
      </trkpt>
      <trkpt lat="47.22612" lon="6.0429">
        <ele>246.755</ele>
        <time>2019-09-30T13:09:34.001Z</time>
      </trkpt>
      <trkpt lat="47.22616" lon="6.04272">
        <ele>246.185</ele>
        <time>2019-09-30T13:09:37.001Z</time>
      </trkpt>
      <trkpt lat="47.22622" lon="6.04253">
        <ele>246.02</ele>
        <time>2019-09-30T13:09:40.001Z</time>
      </trkpt>
      <trkpt lat="47.22628" lon="6.04232">
        <ele>246.079</ele>
        <time>2019-09-30T13:09:43.001Z</time>
      </trkpt>
      <trkpt lat="47.22634" lon="6.04213">
        <ele>246.54</ele>
        <time>2019-09-30T13:09:46.001Z</time>
      </trkpt>
      <trkpt lat="47.2264" lon="6.04191">
        <ele>246.04</ele>
        <time>2019-09-30T13:09:49.001Z</time>
      </trkpt>
      <trkpt lat="47.22647" lon="6.0417">
        <ele>245.614</ele>
        <time>2019-09-30T13:09:52.001Z</time>
      </trkpt>
      <trkpt lat="47.22651" lon="6.04151">
        <ele>245.265</ele>
        <time>2019-09-30T13:09:55.001Z</time>
      </trkpt>
      <trkpt lat="47.22658" lon="6.0413">
        <ele>245.501</ele>
        <time>2019-09-30T13:09:58.001Z</time>
      </trkpt>
      <trkpt lat="47.22665" lon="6.0411">
        <ele>245.6</ele>
        <time>2019-09-30T13:10:01.001Z</time>
      </trkpt>
      <trkpt lat="47.22673" lon="6.04089">
        <ele>245.506</ele>
        <time>2019-09-30T13:10:04.001Z</time>
      </trkpt>
      <trkpt lat="47.22682" lon="6.04069">
        <ele>246.17</ele>
        <time>2019-09-30T13:10:07.001Z</time>
      </trkpt>
      <trkpt lat="47.22692" lon="6.04051">
        <ele>246.312</ele>
        <time>2019-09-30T13:10:10.001Z</time>
      </trkpt>
      <trkpt lat="47.227" lon="6.04033">
        <ele>245.931</ele>
        <time>2019-09-30T13:10:13.001Z</time>
      </trkpt>
      <trkpt lat="47.22707" lon="6.04018">
        <ele>245.76</ele>
        <time>2019-09-30T13:10:16Z</time>
      </trkpt>
      <trkpt lat="47.22714" lon="6.04004">
        <ele>245.441</ele>
        <time>2019-09-30T13:10:19.001Z</time>
      </trkpt>
      <trkpt lat="47.22723" lon="6.03987">
        <ele>244.579</ele>
        <time>2019-09-30T13:10:22.001Z</time>
      </trkpt>
      <trkpt lat="47.22734" lon="6.03966">
        <ele>243.596</ele>
        <time>2019-09-30T13:10:25.001Z</time>
      </trkpt>
      <trkpt lat="47.22747" lon="6.03945">
        <ele>243.479</ele>
        <time>2019-09-30T13:10:28.001Z</time>
      </trkpt>
      <trkpt lat="47.22758" lon="6.03929">
        <ele>243.253</ele>
        <time>2019-09-30T13:10:31.001Z</time>
      </trkpt>
      <trkpt lat="47.2277" lon="6.03919">
        <ele>242.76</ele>
        <time>2019-09-30T13:10:34.001Z</time>
      </trkpt>
      <trkpt lat="47.22784" lon="6.03906">
        <ele>242.226</ele>
        <time>2019-09-30T13:10:37.001Z</time>
      </trkpt>
      <trkpt lat="47.22801" lon="6.03893">
        <ele>241.473</ele>
        <time>2019-09-30T13:10:40.001Z</time>
      </trkpt>
      <trkpt lat="47.22818" lon="6.03882">
        <ele>240.755</ele>
        <time>2019-09-30T13:10:43.001Z</time>
      </trkpt>
      <trkpt lat="47.22834" lon="6.03875">
        <ele>241.078</ele>
        <time>2019-09-30T13:10:46.001Z</time>
      </trkpt>
      <trkpt lat="47.22847" lon="6.03867">
        <ele>242.078</ele>
        <time>2019-09-30T13:10:49.001Z</time>
      </trkpt>
      <trkpt lat="47.22859" lon="6.03862">
        <ele>243.061</ele>
        <time>2019-09-30T13:10:52.001Z</time>
      </trkpt>
      <trkpt lat="47.22872" lon="6.03856">
        <ele>244.065</ele>
        <time>2019-09-30T13:10:55.001Z</time>
      </trkpt>
      <trkpt lat="47.22884" lon="6.03852">
        <ele>245.606</ele>
        <time>2019-09-30T13:10:58.001Z</time>
      </trkpt>
      <trkpt lat="47.22896" lon="6.03843">
        <ele>246.221</ele>
        <time>2019-09-30T13:11:01.001Z</time>
      </trkpt>
      <trkpt lat="47.22909" lon="6.03833">
        <ele>246.916</ele>
        <time>2019-09-30T13:11:04.001Z</time>
      </trkpt>
      <trkpt lat="47.22923" lon="6.03821">
        <ele>247.252</ele>
        <time>2019-09-30T13:11:07.001Z</time>
      </trkpt>
      <trkpt lat="47.22938" lon="6.03808">
        <ele>246.727</ele>
        <time>2019-09-30T13:11:10.001Z</time>
      </trkpt>
      <trkpt lat="47.22952" lon="6.03794">
        <ele>246.276</ele>
        <time>2019-09-30T13:11:13.001Z</time>
      </trkpt>
      <trkpt lat="47.22964" lon="6.03781">
        <ele>245.476</ele>
        <time>2019-09-30T13:11:16Z</time>
      </trkpt>
      <trkpt lat="47.22979" lon="6.03764">
        <ele>243.86</ele>
        <time>2019-09-30T13:11:19.001Z</time>
      </trkpt>
      <trkpt lat="47.22993" lon="6.03751">
        <ele>243</ele>
        <time>2019-09-30T13:11:22.001Z</time>
      </trkpt>
      <trkpt lat="47.23008" lon="6.0374">
        <ele>243.188</ele>
        <time>2019-09-30T13:11:25.001Z</time>
      </trkpt>
      <trkpt lat="47.23021" lon="6.03729">
        <ele>242.658</ele>
        <time>2019-09-30T13:11:28.001Z</time>
      </trkpt>
      <trkpt lat="47.23033" lon="6.0372">
        <ele>242.699</ele>
        <time>2019-09-30T13:11:31.001Z</time>
      </trkpt>
      <trkpt lat="47.23047" lon="6.0371">
        <ele>242.865</ele>
        <time>2019-09-30T13:11:34.001Z</time>
      </trkpt>
      <trkpt lat="47.23059" lon="6.037">
        <ele>242.657</ele>
        <time>2019-09-30T13:11:37.001Z</time>
      </trkpt>
      <trkpt lat="47.23072" lon="6.0369">
        <ele>242.316</ele>
        <time>2019-09-30T13:11:40.001Z</time>
      </trkpt>
      <trkpt lat="47.23085" lon="6.03679">
        <ele>242.455</ele>
        <time>2019-09-30T13:11:43.001Z</time>
      </trkpt>
      <trkpt lat="47.23098" lon="6.03669">
        <ele>242.784</ele>
        <time>2019-09-30T13:11:46.001Z</time>
      </trkpt>
      <trkpt lat="47.23108" lon="6.03657">
        <ele>242.923</ele>
        <time>2019-09-30T13:11:49.001Z</time>
      </trkpt>
      <trkpt lat="47.23119" lon="6.03646">
        <ele>242.012</ele>
        <time>2019-09-30T13:11:52.001Z</time>
      </trkpt>
      <trkpt lat="47.23128" lon="6.03636">
        <ele>241.592</ele>
        <time>2019-09-30T13:11:55.001Z</time>
      </trkpt>
      <trkpt lat="47.23136" lon="6.03623">
        <ele>241.843</ele>
        <time>2019-09-30T13:11:58.001Z</time>
      </trkpt>
      <trkpt lat="47.23142" lon="6.03607">
        <ele>242.049</ele>
        <time>2019-09-30T13:12:01.001Z</time>
      </trkpt>
      <trkpt lat="47.23146" lon="6.03594">
        <ele>242.224</ele>
        <time>2019-09-30T13:12:04.001Z</time>
      </trkpt>
      <trkpt lat="47.23143" lon="6.03582">
        <ele>242.964</ele>
        <time>2019-09-30T13:12:10.001Z</time>
      </trkpt>
      <trkpt lat="47.23143" lon="6.03564">
        <ele>242.75</ele>
        <time>2019-09-30T13:12:13.001Z</time>
      </trkpt>
      <trkpt lat="47.23136" lon="6.03548">
        <ele>242.803</ele>
        <time>2019-09-30T13:12:16Z</time>
      </trkpt>
      <trkpt lat="47.2313" lon="6.03534">
        <ele>242.754</ele>
        <time>2019-09-30T13:12:19.001Z</time>
      </trkpt>
      <trkpt lat="47.23123" lon="6.0352">
        <ele>242.846</ele>
        <time>2019-09-30T13:12:22.001Z</time>
      </trkpt>
      <trkpt lat="47.22976" lon="6.03054">
        <ele>225.41</ele>
        <time>2019-09-30T13:13:44.001Z</time>
      </trkpt>
      <trkpt lat="47.22969" lon="6.03054">
        <ele>223.231</ele>
        <time>2019-09-30T13:13:47.001Z</time>
      </trkpt>
      <trkpt lat="47.22961" lon="6.03049">
        <ele>224.24</ele>
        <time>2019-09-30T13:13:50.001Z</time>
      </trkpt>
      <trkpt lat="47.2295" lon="6.03044">
        <ele>228.366</ele>
        <time>2019-09-30T13:13:53.001Z</time>
      </trkpt>
      <trkpt lat="47.22941" lon="6.0304">
        <ele>232.484</ele>
        <time>2019-09-30T13:13:56.001Z</time>
      </trkpt>
      <trkpt lat="47.22931" lon="6.03038">
        <ele>236.047</ele>
        <time>2019-09-30T13:13:59.001Z</time>
      </trkpt>
      <trkpt lat="47.22919" lon="6.03041">
        <ele>240.259</ele>
        <time>2019-09-30T13:14:02Z</time>
      </trkpt>
      <trkpt lat="47.22906" lon="6.03049">
        <ele>242.776</ele>
        <time>2019-09-30T13:14:05.001Z</time>
      </trkpt>
      <trkpt lat="47.22893" lon="6.03054">
        <ele>243.295</ele>
        <time>2019-09-30T13:14:08.001Z</time>
      </trkpt>
      <trkpt lat="47.22883" lon="6.03067">
        <ele>240.889</ele>
        <time>2019-09-30T13:14:11.001Z</time>
      </trkpt>
      <trkpt lat="47.22874" lon="6.03076">
        <ele>241.682</ele>
        <time>2019-09-30T13:14:14.001Z</time>
      </trkpt>
      <trkpt lat="47.22864" lon="6.03089">
        <ele>240.716</ele>
        <time>2019-09-30T13:14:17.001Z</time>
      </trkpt>
      <trkpt lat="47.22854" lon="6.03101">
        <ele>239.579</ele>
        <time>2019-09-30T13:14:20.001Z</time>
      </trkpt>
      <trkpt lat="47.22846" lon="6.03117">
        <ele>238.725</ele>
        <time>2019-09-30T13:14:23.001Z</time>
      </trkpt>
      <trkpt lat="47.22838" lon="6.03135">
        <ele>238.835</ele>
        <time>2019-09-30T13:14:26.001Z</time>
      </trkpt>
      <trkpt lat="47.22831" lon="6.0315">
        <ele>239.719</ele>
        <time>2019-09-30T13:14:29.001Z</time>
      </trkpt>
      <trkpt lat="47.22822" lon="6.03164">
        <ele>239.852</ele>
        <time>2019-09-30T13:14:32.001Z</time>
      </trkpt>
      <trkpt lat="47.22812" lon="6.03176">
        <ele>240.515</ele>
        <time>2019-09-30T13:14:35.001Z</time>
      </trkpt>
      <trkpt lat="47.22802" lon="6.03187">
        <ele>241.985</ele>
        <time>2019-09-30T13:14:38.001Z</time>
      </trkpt>
      <trkpt lat="47.22797" lon="6.03194">
        <ele>242.326</ele>
        <time>2019-09-30T13:14:41.001Z</time>
      </trkpt>
      <trkpt lat="47.22797" lon="6.03195">
        <ele>241.86</ele>
        <time>2019-09-30T13:14:44.001Z</time>
      </trkpt>
      <trkpt lat="47.22797" lon="6.03195">
        <ele>241.86</ele>
        <time>2019-09-30T13:15:29.001Z</time>
      </trkpt>
      <trkpt lat="47.22796" lon="6.03195">
        <ele>241.104</ele>
        <time>2019-09-30T13:15:32.001Z</time>
      </trkpt>
      <trkpt lat="47.22796" lon="6.03194">
        <ele>240.873</ele>
        <time>2019-09-30T13:15:35.001Z</time>
      </trkpt>
      <trkpt lat="47.22796" lon="6.03195">
        <ele>241.045</ele>
        <time>2019-09-30T13:19:23.001Z</time>
      </trkpt>
      <trkpt lat="47.22797" lon="6.03194">
        <ele>241.01</ele>
        <time>2019-09-30T13:19:26.001Z</time>
      </trkpt>
      <trkpt lat="47.22798" lon="6.03194">
        <ele>241.368</ele>
        <time>2019-09-30T13:19:29.001Z</time>
      </trkpt>
      <trkpt lat="47.22798" lon="6.03194">
        <ele>241.368</ele>
        <time>2019-09-30T13:19:38.001Z</time>
      </trkpt>
      <trkpt lat="47.22798" lon="6.03193">
        <ele>241.215</ele>
        <time>2019-09-30T13:19:41.001Z</time>
      </trkpt>
      <trkpt lat="47.22802" lon="6.03189">
        <ele>240.712</ele>
        <time>2019-09-30T13:19:44.001Z</time>
      </trkpt>
      <trkpt lat="47.22808" lon="6.03186">
        <ele>240.201</ele>
        <time>2019-09-30T13:19:47.001Z</time>
      </trkpt>
      <trkpt lat="47.22815" lon="6.0318">
        <ele>240.208</ele>
        <time>2019-09-30T13:19:50.001Z</time>
      </trkpt>
      <trkpt lat="47.22822" lon="6.03169">
        <ele>240.138</ele>
        <time>2019-09-30T13:19:53.001Z</time>
      </trkpt>
      <trkpt lat="47.22829" lon="6.03156">
        <ele>239.902</ele>
        <time>2019-09-30T13:19:56.001Z</time>
      </trkpt>
      <trkpt lat="47.22835" lon="6.03142">
        <ele>239.179</ele>
        <time>2019-09-30T13:19:59.001Z</time>
      </trkpt>
      <trkpt lat="47.22842" lon="6.03129">
        <ele>238.71</ele>
        <time>2019-09-30T13:20:02Z</time>
      </trkpt>
      <trkpt lat="47.2285" lon="6.03116">
        <ele>238.623</ele>
        <time>2019-09-30T13:20:05.001Z</time>
      </trkpt>
      <trkpt lat="47.22859" lon="6.03102">
        <ele>238.807</ele>
        <time>2019-09-30T13:20:08.001Z</time>
      </trkpt>
      <trkpt lat="47.22868" lon="6.03086">
        <ele>239.531</ele>
        <time>2019-09-30T13:20:11.001Z</time>
      </trkpt>
      <trkpt lat="47.22876" lon="6.03071">
        <ele>239.385</ele>
        <time>2019-09-30T13:20:14.001Z</time>
      </trkpt>
      <trkpt lat="47.22886" lon="6.03059">
        <ele>239.488</ele>
        <time>2019-09-30T13:20:17.001Z</time>
      </trkpt>
      <trkpt lat="47.22898" lon="6.03051">
        <ele>239.363</ele>
        <time>2019-09-30T13:20:20.001Z</time>
      </trkpt>
      <trkpt lat="47.2291" lon="6.03044">
        <ele>238.573</ele>
        <time>2019-09-30T13:20:23.001Z</time>
      </trkpt>
      <trkpt lat="47.22921" lon="6.03039">
        <ele>238.055</ele>
        <time>2019-09-30T13:20:26.001Z</time>
      </trkpt>
      <trkpt lat="47.22931" lon="6.03036">
        <ele>238.104</ele>
        <time>2019-09-30T13:20:29.001Z</time>
      </trkpt>
      <trkpt lat="47.2294" lon="6.03037">
        <ele>238.135</ele>
        <time>2019-09-30T13:20:32.001Z</time>
      </trkpt>
      <trkpt lat="47.2295" lon="6.03038">
        <ele>238.75</ele>
        <time>2019-09-30T13:20:35.001Z</time>
      </trkpt>
      <trkpt lat="47.22961" lon="6.03039">
        <ele>238.558</ele>
        <time>2019-09-30T13:20:38.001Z</time>
      </trkpt>
      <trkpt lat="47.22969" lon="6.0304">
        <ele>237.983</ele>
        <time>2019-09-30T13:20:41.001Z</time>
      </trkpt>
      <trkpt lat="47.22975" lon="6.03042">
        <ele>237.043</ele>
        <time>2019-09-30T13:20:44.001Z</time>
      </trkpt>
      <trkpt lat="47.22978" lon="6.03043">
        <ele>236.467</ele>
        <time>2019-09-30T13:20:47.001Z</time>
      </trkpt>
      <trkpt lat="47.22978" lon="6.03043">
        <ele>236.467</ele>
        <time>2019-09-30T13:20:50.002Z</time>
      </trkpt>
      <trkpt lat="47.22978" lon="6.03043">
        <ele>236.467</ele>
        <time>2019-09-30T13:20:53.001Z</time>
      </trkpt>
      <trkpt lat="47.22979" lon="6.0305">
        <ele>236.505</ele>
        <time>2019-09-30T13:20:56.001Z</time>
      </trkpt>
      <trkpt lat="47.22985" lon="6.03064">
        <ele>237.259</ele>
        <time>2019-09-30T13:20:59.001Z</time>
      </trkpt>
      <trkpt lat="47.22992" lon="6.03072">
        <ele>237.859</ele>
        <time>2019-09-30T13:21:02Z</time>
      </trkpt>
      <trkpt lat="47.22999" lon="6.03071">
        <ele>238.42</ele>
        <time>2019-09-30T13:21:08.001Z</time>
      </trkpt>
      <trkpt lat="47.23001" lon="6.03066">
        <ele>238.591</ele>
        <time>2019-09-30T13:21:11.001Z</time>
      </trkpt>
      <trkpt lat="47.23129" lon="6.03578">
        <ele>255.477</ele>
        <time>2019-09-30T13:22:31.001Z</time>
      </trkpt>
      <trkpt lat="47.23137" lon="6.03582">
        <ele>264.815</ele>
        <time>2019-09-30T13:22:34.001Z</time>
      </trkpt>
      <trkpt lat="47.2314" lon="6.03591">
        <ele>261.525</ele>
        <time>2019-09-30T13:22:37.001Z</time>
      </trkpt>
      <trkpt lat="47.23136" lon="6.03609">
        <ele>256.399</ele>
        <time>2019-09-30T13:22:40.001Z</time>
      </trkpt>
      <trkpt lat="47.23133" lon="6.03625">
        <ele>250.48</ele>
        <time>2019-09-30T13:22:43.001Z</time>
      </trkpt>
      <trkpt lat="47.23126" lon="6.03638">
        <ele>248.036</ele>
        <time>2019-09-30T13:22:46.001Z</time>
      </trkpt>
      <trkpt lat="47.2312" lon="6.0364">
        <ele>245.661</ele>
        <time>2019-09-30T13:22:49.001Z</time>
      </trkpt>
      <trkpt lat="47.23122" lon="6.03631">
        <ele>245.241</ele>
        <time>2019-09-30T13:22:52.001Z</time>
      </trkpt>
      <trkpt lat="47.2313" lon="6.03623">
        <ele>244.262</ele>
        <time>2019-09-30T13:22:55.001Z</time>
      </trkpt>
      <trkpt lat="47.23134" lon="6.03615">
        <ele>243.703</ele>
        <time>2019-09-30T13:22:58.001Z</time>
      </trkpt>
      <trkpt lat="47.23135" lon="6.03607">
        <ele>243.696</ele>
        <time>2019-09-30T13:23:01.001Z</time>
      </trkpt>
      <trkpt lat="47.23135" lon="6.03599">
        <ele>242.595</ele>
        <time>2019-09-30T13:23:04.001Z</time>
      </trkpt>
      <trkpt lat="47.23137" lon="6.03591">
        <ele>242.672</ele>
        <time>2019-09-30T13:23:07.001Z</time>
      </trkpt>
      <trkpt lat="47.23145" lon="6.03584">
        <ele>243.12</ele>
        <time>2019-09-30T13:23:10.001Z</time>
      </trkpt>
      <trkpt lat="47.23154" lon="6.03576">
        <ele>243.674</ele>
        <time>2019-09-30T13:23:13.001Z</time>
      </trkpt>
      <trkpt lat="47.23164" lon="6.03572">
        <ele>243.899</ele>
        <time>2019-09-30T13:23:16Z</time>
      </trkpt>
      <trkpt lat="47.23174" lon="6.03581">
        <ele>244.113</ele>
        <time>2019-09-30T13:23:19.001Z</time>
      </trkpt>
      <trkpt lat="47.23188" lon="6.03588">
        <ele>244.189</ele>
        <time>2019-09-30T13:23:22.001Z</time>
      </trkpt>
      <trkpt lat="47.23207" lon="6.03591">
        <ele>244.685</ele>
        <time>2019-09-30T13:23:25.001Z</time>
      </trkpt>
      <trkpt lat="47.23225" lon="6.03594">
        <ele>244.499</ele>
        <time>2019-09-30T13:23:28.001Z</time>
      </trkpt>
      <trkpt lat="47.23242" lon="6.03592">
        <ele>244.586</ele>
        <time>2019-09-30T13:23:31.001Z</time>
      </trkpt>
      <trkpt lat="47.23257" lon="6.03587">
        <ele>244.75</ele>
        <time>2019-09-30T13:23:34.001Z</time>
      </trkpt>
      <trkpt lat="47.2327" lon="6.0358">
        <ele>245.118</ele>
        <time>2019-09-30T13:23:37.001Z</time>
      </trkpt>
      <trkpt lat="47.23284" lon="6.03573">
        <ele>245.675</ele>
        <time>2019-09-30T13:23:40.001Z</time>
      </trkpt>
      <trkpt lat="47.23299" lon="6.03566">
        <ele>245.834</ele>
        <time>2019-09-30T13:23:43.001Z</time>
      </trkpt>
      <trkpt lat="47.23314" lon="6.03558">
        <ele>245.266</ele>
        <time>2019-09-30T13:23:46.001Z</time>
      </trkpt>
      <trkpt lat="47.23328" lon="6.03551">
        <ele>244.39</ele>
        <time>2019-09-30T13:23:49.001Z</time>
      </trkpt>
      <trkpt lat="47.23343" lon="6.03544">
        <ele>244.043</ele>
        <time>2019-09-30T13:23:52.001Z</time>
      </trkpt>
      <trkpt lat="47.23357" lon="6.03537">
        <ele>243.576</ele>
        <time>2019-09-30T13:23:55.001Z</time>
      </trkpt>
      <trkpt lat="47.2337" lon="6.0353">
        <ele>242.798</ele>
        <time>2019-09-30T13:23:58.001Z</time>
      </trkpt>
      <trkpt lat="47.23383" lon="6.03522">
        <ele>242.668</ele>
        <time>2019-09-30T13:24:01.001Z</time>
      </trkpt>
      <trkpt lat="47.23395" lon="6.03515">
        <ele>242.468</ele>
        <time>2019-09-30T13:24:04.001Z</time>
      </trkpt>
      <trkpt lat="47.23408" lon="6.03508">
        <ele>242.293</ele>
        <time>2019-09-30T13:24:07.001Z</time>
      </trkpt>
      <trkpt lat="47.2342" lon="6.03502">
        <ele>242.05</ele>
        <time>2019-09-30T13:24:10.001Z</time>
      </trkpt>
      <trkpt lat="47.23431" lon="6.03495">
        <ele>242.636</ele>
        <time>2019-09-30T13:24:13.001Z</time>
      </trkpt>
      <trkpt lat="47.2344" lon="6.03491">
        <ele>243.752</ele>
        <time>2019-09-30T13:24:16Z</time>
      </trkpt>
      <trkpt lat="47.23447" lon="6.03488">
        <ele>245.004</ele>
        <time>2019-09-30T13:24:19.001Z</time>
      </trkpt>
      <trkpt lat="47.23455" lon="6.03483">
        <ele>245.528</ele>
        <time>2019-09-30T13:24:22.001Z</time>
      </trkpt>
      <trkpt lat="47.23467" lon="6.0347">
        <ele>245.438</ele>
        <time>2019-09-30T13:24:25.001Z</time>
      </trkpt>
      <trkpt lat="47.23477" lon="6.03459">
        <ele>246.259</ele>
        <time>2019-09-30T13:24:28.001Z</time>
      </trkpt>
      <trkpt lat="47.2349" lon="6.03447">
        <ele>246.978</ele>
        <time>2019-09-30T13:24:31.001Z</time>
      </trkpt>
      <trkpt lat="47.23502" lon="6.0344">
        <ele>247.632</ele>
        <time>2019-09-30T13:24:34.001Z</time>
      </trkpt>
      <trkpt lat="47.23513" lon="6.03431">
        <ele>247.221</ele>
        <time>2019-09-30T13:24:37.001Z</time>
      </trkpt>
      <trkpt lat="47.23527" lon="6.03427">
        <ele>248.182</ele>
        <time>2019-09-30T13:24:40.001Z</time>
      </trkpt>
      <trkpt lat="47.23541" lon="6.03431">
        <ele>248.93</ele>
        <time>2019-09-30T13:24:43.001Z</time>
      </trkpt>
      <trkpt lat="47.23556" lon="6.03435">
        <ele>249.747</ele>
        <time>2019-09-30T13:24:46.001Z</time>
      </trkpt>
      <trkpt lat="47.23572" lon="6.03434">
        <ele>249.124</ele>
        <time>2019-09-30T13:24:49.001Z</time>
      </trkpt>
      <trkpt lat="47.23585" lon="6.03428">
        <ele>249.603</ele>
        <time>2019-09-30T13:24:52.001Z</time>
      </trkpt>
      <trkpt lat="47.23599" lon="6.03419">
        <ele>249.235</ele>
        <time>2019-09-30T13:24:55.001Z</time>
      </trkpt>
      <trkpt lat="47.23611" lon="6.03411">
        <ele>248.059</ele>
        <time>2019-09-30T13:24:58.001Z</time>
      </trkpt>
      <trkpt lat="47.23622" lon="6.03403">
        <ele>247.433</ele>
        <time>2019-09-30T13:25:01.001Z</time>
      </trkpt>
      <trkpt lat="47.23635" lon="6.03392">
        <ele>247.241</ele>
        <time>2019-09-30T13:25:04.001Z</time>
      </trkpt>
      <trkpt lat="47.23648" lon="6.03382">
        <ele>245.723</ele>
        <time>2019-09-30T13:25:07.001Z</time>
      </trkpt>
      <trkpt lat="47.2366" lon="6.03373">
        <ele>245.427</ele>
        <time>2019-09-30T13:25:10.001Z</time>
      </trkpt>
      <trkpt lat="47.23673" lon="6.03366">
        <ele>244.796</ele>
        <time>2019-09-30T13:25:13.001Z</time>
      </trkpt>
      <trkpt lat="47.23687" lon="6.03358">
        <ele>243.657</ele>
        <time>2019-09-30T13:25:16Z</time>
      </trkpt>
      <trkpt lat="47.23699" lon="6.03346">
        <ele>243.989</ele>
        <time>2019-09-30T13:25:19.001Z</time>
      </trkpt>
      <trkpt lat="47.23711" lon="6.03339">
        <ele>245.139</ele>
        <time>2019-09-30T13:25:22.001Z</time>
      </trkpt>
      <trkpt lat="47.23723" lon="6.03337">
        <ele>246.749</ele>
        <time>2019-09-30T13:25:25.001Z</time>
      </trkpt>
      <trkpt lat="47.23735" lon="6.03326">
        <ele>245.299</ele>
        <time>2019-09-30T13:25:28.001Z</time>
      </trkpt>
      <trkpt lat="47.23745" lon="6.03318">
        <ele>245.289</ele>
        <time>2019-09-30T13:25:31.001Z</time>
      </trkpt>
      <trkpt lat="47.23755" lon="6.03307">
        <ele>244.932</ele>
        <time>2019-09-30T13:25:34.001Z</time>
      </trkpt>
      <trkpt lat="47.23761" lon="6.03293">
        <ele>244.656</ele>
        <time>2019-09-30T13:25:37.001Z</time>
      </trkpt>
      <trkpt lat="47.23768" lon="6.03278">
        <ele>244.665</ele>
        <time>2019-09-30T13:25:40.001Z</time>
      </trkpt>
      <trkpt lat="47.23773" lon="6.03267">
        <ele>245.243</ele>
        <time>2019-09-30T13:25:43.001Z</time>
      </trkpt>
      <trkpt lat="47.23782" lon="6.0326">
        <ele>245.377</ele>
        <time>2019-09-30T13:25:49.001Z</time>
      </trkpt>
      <trkpt lat="47.23791" lon="6.03254">
        <ele>244.129</ele>
        <time>2019-09-30T13:25:52.001Z</time>
      </trkpt>
      <trkpt lat="47.23801" lon="6.03251">
        <ele>244.124</ele>
        <time>2019-09-30T13:25:55.001Z</time>
      </trkpt>
      <trkpt lat="47.23808" lon="6.03247">
        <ele>242.44</ele>
        <time>2019-09-30T13:25:58.001Z</time>
      </trkpt>
      <trkpt lat="47.23808" lon="6.03247">
        <ele>242.44</ele>
        <time>2019-09-30T13:26:49.001Z</time>
      </trkpt>
      <trkpt lat="47.23808" lon="6.03248">
        <ele>242.56</ele>
        <time>2019-09-30T13:26:52.001Z</time>
      </trkpt>
      <trkpt lat="47.23799" lon="6.03253">
        <ele>242.306</ele>
        <time>2019-09-30T13:26:58.001Z</time>
      </trkpt>
      <trkpt lat="47.23794" lon="6.03253">
        <ele>241.901</ele>
        <time>2019-09-30T13:27:01.001Z</time>
      </trkpt>
      <trkpt lat="47.23788" lon="6.03254">
        <ele>242.054</ele>
        <time>2019-09-30T13:27:04.001Z</time>
      </trkpt>
      <trkpt lat="47.23783" lon="6.03258">
        <ele>242.603</ele>
        <time>2019-09-30T13:27:07.001Z</time>
      </trkpt>
      <trkpt lat="47.23778" lon="6.03269">
        <ele>242.819</ele>
        <time>2019-09-30T13:27:10.001Z</time>
      </trkpt>
      <trkpt lat="47.23772" lon="6.03282">
        <ele>243.079</ele>
        <time>2019-09-30T13:27:13.001Z</time>
      </trkpt>
      <trkpt lat="47.23765" lon="6.03294">
        <ele>243.808</ele>
        <time>2019-09-30T13:27:16Z</time>
      </trkpt>
      <trkpt lat="47.23762" lon="6.03304">
        <ele>244.568</ele>
        <time>2019-09-30T13:27:19.001Z</time>
      </trkpt>
      <trkpt lat="47.23768" lon="6.03305">
        <ele>244.331</ele>
        <time>2019-09-30T13:27:22.001Z</time>
      </trkpt>
      <trkpt lat="47.23779" lon="6.03299">
        <ele>244.16</ele>
        <time>2019-09-30T13:27:25.001Z</time>
      </trkpt>
      <trkpt lat="47.23786" lon="6.03292">
        <ele>244.07</ele>
        <time>2019-09-30T13:27:28.001Z</time>
      </trkpt>
      <trkpt lat="47.2379" lon="6.03287">
        <ele>243.975</ele>
        <time>2019-09-30T13:27:31.001Z</time>
      </trkpt>
      <trkpt lat="47.23794" lon="6.03282">
        <ele>243.877</ele>
        <time>2019-09-30T13:27:34.001Z</time>
      </trkpt>
      <trkpt lat="47.23799" lon="6.03276">
        <ele>243.735</ele>
        <time>2019-09-30T13:27:37.001Z</time>
      </trkpt>
      <trkpt lat="47.23808" lon="6.03271">
        <ele>240.731</ele>
        <time>2019-09-30T13:27:43.001Z</time>
      </trkpt>
      <trkpt lat="47.23815" lon="6.03262">
        <ele>238.752</ele>
        <time>2019-09-30T13:27:46.001Z</time>
      </trkpt>
      <trkpt lat="47.23822" lon="6.03251">
        <ele>235.911</ele>
        <time>2019-09-30T13:27:49.001Z</time>
      </trkpt>
      <trkpt lat="47.23831" lon="6.03239">
        <ele>234.719</ele>
        <time>2019-09-30T13:27:52.001Z</time>
      </trkpt>
      <trkpt lat="47.23841" lon="6.03229">
        <ele>234.537</ele>
        <time>2019-09-30T13:27:55.001Z</time>
      </trkpt>
      <trkpt lat="47.23852" lon="6.03221">
        <ele>234.731</ele>
        <time>2019-09-30T13:27:58.001Z</time>
      </trkpt>
      <trkpt lat="47.23863" lon="6.03212">
        <ele>234.968</ele>
        <time>2019-09-30T13:28:01.001Z</time>
      </trkpt>
      <trkpt lat="47.23874" lon="6.03204">
        <ele>234.679</ele>
        <time>2019-09-30T13:28:04.001Z</time>
      </trkpt>
      <trkpt lat="47.23885" lon="6.03193">
        <ele>234.274</ele>
        <time>2019-09-30T13:28:07.001Z</time>
      </trkpt>
      <trkpt lat="47.23898" lon="6.03181">
        <ele>233.907</ele>
        <time>2019-09-30T13:28:10.001Z</time>
      </trkpt>
      <trkpt lat="47.2391" lon="6.03169">
        <ele>233.465</ele>
        <time>2019-09-30T13:28:13.001Z</time>
      </trkpt>
      <trkpt lat="47.23921" lon="6.03158">
        <ele>233.035</ele>
        <time>2019-09-30T13:28:16Z</time>
      </trkpt>
      <trkpt lat="47.2393" lon="6.03147">
        <ele>233.213</ele>
        <time>2019-09-30T13:28:19.001Z</time>
      </trkpt>
      <trkpt lat="47.23939" lon="6.03137">
        <ele>234.213</ele>
        <time>2019-09-30T13:28:22.001Z</time>
      </trkpt>
      <trkpt lat="47.23948" lon="6.03122">
        <ele>234.379</ele>
        <time>2019-09-30T13:28:25.001Z</time>
      </trkpt>
      <trkpt lat="47.23958" lon="6.03104">
        <ele>235.095</ele>
        <time>2019-09-30T13:28:28.001Z</time>
      </trkpt>
      <trkpt lat="47.23967" lon="6.03088">
        <ele>236.199</ele>
        <time>2019-09-30T13:28:31.001Z</time>
      </trkpt>
      <trkpt lat="47.23975" lon="6.03071">
        <ele>235.912</ele>
        <time>2019-09-30T13:28:34.001Z</time>
      </trkpt>
      <trkpt lat="47.23984" lon="6.03055">
        <ele>237.448</ele>
        <time>2019-09-30T13:28:37.001Z</time>
      </trkpt>
      <trkpt lat="47.23991" lon="6.0304">
        <ele>237.734</ele>
        <time>2019-09-30T13:28:40.001Z</time>
      </trkpt>
      <trkpt lat="47.23997" lon="6.03027">
        <ele>238.776</ele>
        <time>2019-09-30T13:28:43.001Z</time>
      </trkpt>
      <trkpt lat="47.24002" lon="6.03018">
        <ele>240.021</ele>
        <time>2019-09-30T13:28:46.001Z</time>
      </trkpt>
      <trkpt lat="47.24007" lon="6.03011">
        <ele>241.421</ele>
        <time>2019-09-30T13:28:49.001Z</time>
      </trkpt>
      <trkpt lat="47.24011" lon="6.03004">
        <ele>242.646</ele>
        <time>2019-09-30T13:28:52.001Z</time>
      </trkpt>
      <trkpt lat="47.24017" lon="6.02997">
        <ele>243.531</ele>
        <time>2019-09-30T13:28:55.001Z</time>
      </trkpt>
      <trkpt lat="47.24021" lon="6.02988">
        <ele>244.674</ele>
        <time>2019-09-30T13:28:58.001Z</time>
      </trkpt>
      <trkpt lat="47.24023" lon="6.02981">
        <ele>245.619</ele>
        <time>2019-09-30T13:29:01.001Z</time>
      </trkpt>
      <trkpt lat="47.24025" lon="6.02974">
        <ele>246.823</ele>
        <time>2019-09-30T13:29:04.001Z</time>
      </trkpt>
      <trkpt lat="47.24028" lon="6.02966">
        <ele>247.412</ele>
        <time>2019-09-30T13:29:07.001Z</time>
      </trkpt>
      <trkpt lat="47.24034" lon="6.02953">
        <ele>247.599</ele>
        <time>2019-09-30T13:29:10.001Z</time>
      </trkpt>
      <trkpt lat="47.24044" lon="6.02936">
        <ele>247.62</ele>
        <time>2019-09-30T13:29:13.001Z</time>
      </trkpt>
      <trkpt lat="47.24053" lon="6.02918">
        <ele>248.262</ele>
        <time>2019-09-30T13:29:16Z</time>
      </trkpt>
      <trkpt lat="47.24061" lon="6.02901">
        <ele>247.794</ele>
        <time>2019-09-30T13:29:19.001Z</time>
      </trkpt>
      <trkpt lat="47.24068" lon="6.02883">
        <ele>245.755</ele>
        <time>2019-09-30T13:29:22.001Z</time>
      </trkpt>
      <trkpt lat="47.24074" lon="6.02868">
        <ele>244.206</ele>
        <time>2019-09-30T13:29:25.001Z</time>
      </trkpt>
      <trkpt lat="47.24081" lon="6.02853">
        <ele>243.792</ele>
        <time>2019-09-30T13:29:28.001Z</time>
      </trkpt>
      <trkpt lat="47.24089" lon="6.02839">
        <ele>243.582</ele>
        <time>2019-09-30T13:29:31.001Z</time>
      </trkpt>
      <trkpt lat="47.24099" lon="6.02831">
        <ele>244.469</ele>
        <time>2019-09-30T13:29:34.001Z</time>
      </trkpt>
      <trkpt lat="47.24107" lon="6.02824">
        <ele>245.353</ele>
        <time>2019-09-30T13:29:37.001Z</time>
      </trkpt>
      <trkpt lat="47.24111" lon="6.02809">
        <ele>245.18</ele>
        <time>2019-09-30T13:29:40.001Z</time>
      </trkpt>
      <trkpt lat="47.24116" lon="6.02793">
        <ele>244.431</ele>
        <time>2019-09-30T13:29:43.001Z</time>
      </trkpt>
      <trkpt lat="47.24125" lon="6.02782">
        <ele>244.05</ele>
        <time>2019-09-30T13:29:46.001Z</time>
      </trkpt>
      <trkpt lat="47.24132" lon="6.02768">
        <ele>244.026</ele>
        <time>2019-09-30T13:29:49.001Z</time>
      </trkpt>
      <trkpt lat="47.24137" lon="6.02751">
        <ele>244.785</ele>
        <time>2019-09-30T13:29:52.001Z</time>
      </trkpt>
      <trkpt lat="47.24143" lon="6.02736">
        <ele>244.984</ele>
        <time>2019-09-30T13:29:55.001Z</time>
      </trkpt>
      <trkpt lat="47.24149" lon="6.02717">
        <ele>245.139</ele>
        <time>2019-09-30T13:29:58.001Z</time>
      </trkpt>
      <trkpt lat="47.24154" lon="6.02699">
        <ele>246.07</ele>
        <time>2019-09-30T13:30:01.001Z</time>
      </trkpt>
      <trkpt lat="47.2416" lon="6.02681">
        <ele>246.997</ele>
        <time>2019-09-30T13:30:04.001Z</time>
      </trkpt>
      <trkpt lat="47.24166" lon="6.02662">
        <ele>248.118</ele>
        <time>2019-09-30T13:30:07.001Z</time>
      </trkpt>
      <trkpt lat="47.2417" lon="6.02644">
        <ele>248.97</ele>
        <time>2019-09-30T13:30:10.001Z</time>
      </trkpt>
      <trkpt lat="47.24175" lon="6.02627">
        <ele>249.95</ele>
        <time>2019-09-30T13:30:13.001Z</time>
      </trkpt>
      <trkpt lat="47.24178" lon="6.0261">
        <ele>250.844</ele>
        <time>2019-09-30T13:30:16Z</time>
      </trkpt>
      <trkpt lat="47.24179" lon="6.02589">
        <ele>250.389</ele>
        <time>2019-09-30T13:30:19.001Z</time>
      </trkpt>
      <trkpt lat="47.24181" lon="6.02575">
        <ele>250.723</ele>
        <time>2019-09-30T13:30:22.001Z</time>
      </trkpt>
      <trkpt lat="47.24182" lon="6.0256">
        <ele>251.687</ele>
        <time>2019-09-30T13:30:25.001Z</time>
      </trkpt>
      <trkpt lat="47.24181" lon="6.02544">
        <ele>254.099</ele>
        <time>2019-09-30T13:30:28.001Z</time>
      </trkpt>
      <trkpt lat="47.24181" lon="6.02527">
        <ele>255.018</ele>
        <time>2019-09-30T13:30:31.001Z</time>
      </trkpt>
      <trkpt lat="47.24185" lon="6.02506">
        <ele>254.484</ele>
        <time>2019-09-30T13:30:34.001Z</time>
      </trkpt>
      <trkpt lat="47.24189" lon="6.02487">
        <ele>253.824</ele>
        <time>2019-09-30T13:30:37.001Z</time>
      </trkpt>
      <trkpt lat="47.24192" lon="6.02468">
        <ele>251.734</ele>
        <time>2019-09-30T13:30:40.001Z</time>
      </trkpt>
      <trkpt lat="47.24193" lon="6.0245">
        <ele>249.689</ele>
        <time>2019-09-30T13:30:43.001Z</time>
      </trkpt>
      <trkpt lat="47.2419" lon="6.02433">
        <ele>247.914</ele>
        <time>2019-09-30T13:30:46.001Z</time>
      </trkpt>
      <trkpt lat="47.24189" lon="6.02419">
        <ele>246.167</ele>
        <time>2019-09-30T13:30:49.001Z</time>
      </trkpt>
      <trkpt lat="47.24186" lon="6.02407">
        <ele>243.916</ele>
        <time>2019-09-30T13:30:52.001Z</time>
      </trkpt>
      <trkpt lat="47.24183" lon="6.02395">
        <ele>242.414</ele>
        <time>2019-09-30T13:30:55.001Z</time>
      </trkpt>
      <trkpt lat="47.24179" lon="6.02382">
        <ele>241.215</ele>
        <time>2019-09-30T13:30:58.001Z</time>
      </trkpt>
      <trkpt lat="47.24175" lon="6.0237">
        <ele>239.779</ele>
        <time>2019-09-30T13:31:01.001Z</time>
      </trkpt>
      <trkpt lat="47.2417" lon="6.02357">
        <ele>238.982</ele>
        <time>2019-09-30T13:31:04.001Z</time>
      </trkpt>
      <trkpt lat="47.24165" lon="6.02344">
        <ele>236.878</ele>
        <time>2019-09-30T13:31:07.001Z</time>
      </trkpt>
      <trkpt lat="47.2416" lon="6.02332">
        <ele>235.34</ele>
        <time>2019-09-30T13:31:10.001Z</time>
      </trkpt>
      <trkpt lat="47.24156" lon="6.0232">
        <ele>235.08</ele>
        <time>2019-09-30T13:31:13.001Z</time>
      </trkpt>
      <trkpt lat="47.24151" lon="6.0231">
        <ele>234.965</ele>
        <time>2019-09-30T13:31:16Z</time>
      </trkpt>
      <trkpt lat="47.24146" lon="6.02302">
        <ele>234.655</ele>
        <time>2019-09-30T13:31:19.001Z</time>
      </trkpt>
      <trkpt lat="47.2414" lon="6.02295">
        <ele>234.221</ele>
        <time>2019-09-30T13:31:22.001Z</time>
      </trkpt>
      <trkpt lat="47.24133" lon="6.02287">
        <ele>233.339</ele>
        <time>2019-09-30T13:31:25.001Z</time>
      </trkpt>
      <trkpt lat="47.24126" lon="6.02281">
        <ele>233.895</ele>
        <time>2019-09-30T13:31:28.001Z</time>
      </trkpt>
      <trkpt lat="47.2412" lon="6.02274">
        <ele>235.492</ele>
        <time>2019-09-30T13:31:31.001Z</time>
      </trkpt>
      <trkpt lat="47.24114" lon="6.02263">
        <ele>236.763</ele>
        <time>2019-09-30T13:31:34.001Z</time>
      </trkpt>
      <trkpt lat="47.24107" lon="6.02258">
        <ele>237.499</ele>
        <time>2019-09-30T13:31:37.001Z</time>
      </trkpt>
      <trkpt lat="47.24099" lon="6.02253">
        <ele>237.913</ele>
        <time>2019-09-30T13:31:40.001Z</time>
      </trkpt>
      <trkpt lat="47.24093" lon="6.02246">
        <ele>238.382</ele>
        <time>2019-09-30T13:31:43.001Z</time>
      </trkpt>
      <trkpt lat="47.24087" lon="6.02239">
        <ele>238.572</ele>
        <time>2019-09-30T13:31:46.001Z</time>
      </trkpt>
      <trkpt lat="47.24083" lon="6.02233">
        <ele>238.896</ele>
        <time>2019-09-30T13:31:49.001Z</time>
      </trkpt>
      <trkpt lat="47.24079" lon="6.02226">
        <ele>238.852</ele>
        <time>2019-09-30T13:31:52.001Z</time>
      </trkpt>
      <trkpt lat="47.24075" lon="6.02219">
        <ele>239.402</ele>
        <time>2019-09-30T13:31:55.001Z</time>
      </trkpt>
      <trkpt lat="47.24069" lon="6.02213">
        <ele>239.944</ele>
        <time>2019-09-30T13:31:58.001Z</time>
      </trkpt>
      <trkpt lat="47.24063" lon="6.02207">
        <ele>240.364</ele>
        <time>2019-09-30T13:32:01.001Z</time>
      </trkpt>
      <trkpt lat="47.24057" lon="6.02201">
        <ele>240.869</ele>
        <time>2019-09-30T13:32:04.001Z</time>
      </trkpt>
      <trkpt lat="47.24052" lon="6.02195">
        <ele>241.557</ele>
        <time>2019-09-30T13:32:07.001Z</time>
      </trkpt>
      <trkpt lat="47.24047" lon="6.02187">
        <ele>242.765</ele>
        <time>2019-09-30T13:32:10.001Z</time>
      </trkpt>
      <trkpt lat="47.24042" lon="6.02181">
        <ele>243.58</ele>
        <time>2019-09-30T13:32:13.001Z</time>
      </trkpt>
      <trkpt lat="47.24037" lon="6.02176">
        <ele>243.629</ele>
        <time>2019-09-30T13:32:16Z</time>
      </trkpt>
      <trkpt lat="47.24035" lon="6.02174">
        <ele>243.788</ele>
        <time>2019-09-30T13:32:19.001Z</time>
      </trkpt>
      <trkpt lat="47.24035" lon="6.02174">
        <ele>243.788</ele>
        <time>2019-09-30T13:32:28.001Z</time>
      </trkpt>
      <trkpt lat="47.24034" lon="6.02174">
        <ele>243.525</ele>
        <time>2019-09-30T13:32:31.001Z</time>
      </trkpt>
      <trkpt lat="47.24034" lon="6.02174">
        <ele>243.583</ele>
        <time>2019-09-30T13:32:34.001Z</time>
      </trkpt>
      <trkpt lat="47.24034" lon="6.02174">
        <ele>243.583</ele>
        <time>2019-09-30T13:32:40.001Z</time>
      </trkpt>
      <trkpt lat="47.24035" lon="6.02173">
        <ele>243.549</ele>
        <time>2019-09-30T13:32:43.001Z</time>
      </trkpt>
      <trkpt lat="47.24035" lon="6.02172">
        <ele>243.487</ele>
        <time>2019-09-30T13:32:46.001Z</time>
      </trkpt>
      <trkpt lat="47.24031" lon="6.02177">
        <ele>243.364</ele>
        <time>2019-09-30T13:32:49.001Z</time>
      </trkpt>
      <trkpt lat="47.24021" lon="6.02186">
        <ele>243.179</ele>
        <time>2019-09-30T13:32:52.001Z</time>
      </trkpt>
      <trkpt lat="47.24013" lon="6.02183">
        <ele>243.06</ele>
        <time>2019-09-30T13:32:55.001Z</time>
      </trkpt>
      <trkpt lat="47.24001" lon="6.02174">
        <ele>243.013</ele>
        <time>2019-09-30T13:32:58.001Z</time>
      </trkpt>
      <trkpt lat="47.24003" lon="6.02185">
        <ele>241.024</ele>
        <time>2019-09-30T13:33:01.001Z</time>
      </trkpt>
      <trkpt lat="47.24006" lon="6.02187">
        <ele>239.053</ele>
        <time>2019-09-30T13:33:04.001Z</time>
      </trkpt>
      <trkpt lat="47.24006" lon="6.02196">
        <ele>238.084</ele>
        <time>2019-09-30T13:33:07.001Z</time>
      </trkpt>
      <trkpt lat="47.24004" lon="6.0221">
        <ele>237.422</ele>
        <time>2019-09-30T13:33:10.001Z</time>
      </trkpt>
      <trkpt lat="47.24004" lon="6.02213">
        <ele>237.906</ele>
        <time>2019-09-30T13:33:13.001Z</time>
      </trkpt>
      <trkpt lat="47.24003" lon="6.02213">
        <ele>239.369</ele>
        <time>2019-09-30T13:33:16Z</time>
      </trkpt>
      <trkpt lat="47.24003" lon="6.02213">
        <ele>239.369</ele>
        <time>2019-09-30T13:34:34.001Z</time>
      </trkpt>
      <trkpt lat="47.24002" lon="6.02213">
        <ele>240.042</ele>
        <time>2019-09-30T13:34:37.001Z</time>
      </trkpt>
      <trkpt lat="47.23999" lon="6.02215">
        <ele>240.889</ele>
        <time>2019-09-30T13:34:40.001Z</time>
      </trkpt>
      <trkpt lat="47.23999" lon="6.02214">
        <ele>241.093</ele>
        <time>2019-09-30T13:34:43.001Z</time>
      </trkpt>
      <trkpt lat="47.24" lon="6.02211">
        <ele>240.734</ele>
        <time>2019-09-30T13:34:46.001Z</time>
      </trkpt>
      <trkpt lat="47.23997" lon="6.02202">
        <ele>240.237</ele>
        <time>2019-09-30T13:34:49.001Z</time>
      </trkpt>
      <trkpt lat="47.23994" lon="6.0219">
        <ele>240.348</ele>
        <time>2019-09-30T13:34:52.001Z</time>
      </trkpt>
      <trkpt lat="47.2399" lon="6.02178">
        <ele>240.037</ele>
        <time>2019-09-30T13:34:55.001Z</time>
      </trkpt>
      <trkpt lat="47.23985" lon="6.02166">
        <ele>239.833</ele>
        <time>2019-09-30T13:34:58.001Z</time>
      </trkpt>
      <trkpt lat="47.2398" lon="6.02155">
        <ele>239.782</ele>
        <time>2019-09-30T13:35:01.001Z</time>
      </trkpt>
      <trkpt lat="47.23974" lon="6.02146">
        <ele>240.109</ele>
        <time>2019-09-30T13:35:04.001Z</time>
      </trkpt>
      <trkpt lat="47.23969" lon="6.02139">
        <ele>240.552</ele>
        <time>2019-09-30T13:35:07.001Z</time>
      </trkpt>
      <trkpt lat="47.23963" lon="6.02135">
        <ele>241.012</ele>
        <time>2019-09-30T13:35:10.001Z</time>
      </trkpt>
      <trkpt lat="47.23957" lon="6.02126">
        <ele>240.455</ele>
        <time>2019-09-30T13:35:13.001Z</time>
      </trkpt>
      <trkpt lat="47.23957" lon="6.02114">
        <ele>240.217</ele>
        <time>2019-09-30T13:35:16Z</time>
      </trkpt>
      <trkpt lat="47.2396" lon="6.02102">
        <ele>239.734</ele>
        <time>2019-09-30T13:35:19.001Z</time>
      </trkpt>
      <trkpt lat="47.23964" lon="6.02094">
        <ele>239.611</ele>
        <time>2019-09-30T13:35:22.001Z</time>
      </trkpt>
      <trkpt lat="47.23964" lon="6.02094">
        <ele>239.611</ele>
        <time>2019-09-30T13:37:22.001Z</time>
      </trkpt>
      <trkpt lat="47.23961" lon="6.021">
        <ele>240.906</ele>
        <time>2019-09-30T13:37:25.001Z</time>
      </trkpt>
      <trkpt lat="47.23955" lon="6.02107">
        <ele>240.965</ele>
        <time>2019-09-30T13:37:28.001Z</time>
      </trkpt>
      <trkpt lat="47.23952" lon="6.02113">
        <ele>242.131</ele>
        <time>2019-09-30T13:37:31.001Z</time>
      </trkpt>
      <trkpt lat="47.23953" lon="6.02123">
        <ele>242.775</ele>
        <time>2019-09-30T13:37:34.001Z</time>
      </trkpt>
      <trkpt lat="47.23963" lon="6.02136">
        <ele>244.881</ele>
        <time>2019-09-30T13:37:37.001Z</time>
      </trkpt>
      <trkpt lat="47.23971" lon="6.02146">
        <ele>246.938</ele>
        <time>2019-09-30T13:37:40.001Z</time>
      </trkpt>
      <trkpt lat="47.23979" lon="6.02158">
        <ele>248.459</ele>
        <time>2019-09-30T13:37:43.001Z</time>
      </trkpt>
      <trkpt lat="47.23988" lon="6.0217">
        <ele>249.535</ele>
        <time>2019-09-30T13:37:46.001Z</time>
      </trkpt>
      <trkpt lat="47.23995" lon="6.02179">
        <ele>250.264</ele>
        <time>2019-09-30T13:37:49.001Z</time>
      </trkpt>
      <trkpt lat="47.23999" lon="6.02188">
        <ele>252.486</ele>
        <time>2019-09-30T13:37:52.001Z</time>
      </trkpt>
      <trkpt lat="47.24004" lon="6.02192">
        <ele>253.338</ele>
        <time>2019-09-30T13:37:55.001Z</time>
      </trkpt>
      <trkpt lat="47.24008" lon="6.02196">
        <ele>253.877</ele>
        <time>2019-09-30T13:37:58.001Z</time>
      </trkpt>
      <trkpt lat="47.24008" lon="6.02197">
        <ele>254.242</ele>
        <time>2019-09-30T13:38:01.001Z</time>
      </trkpt>
      <trkpt lat="47.24018" lon="6.02187">
        <ele>210.442</ele>
        <time>2019-09-30T15:07:16.501Z</time>
      </trkpt>
      <trkpt lat="47.24024" lon="6.02181">
        <ele>234.106</ele>
        <time>2019-09-30T15:07:20Z</time>
      </trkpt>
      <trkpt lat="47.24024" lon="6.02181">
        <ele>235.586</ele>
        <time>2019-09-30T15:11:41Z</time>
      </trkpt>
      <trkpt lat="47.24024" lon="6.02192">
        <ele>235.795</ele>
        <time>2019-09-30T15:11:44Z</time>
      </trkpt>
      <trkpt lat="47.24022" lon="6.02198">
        <ele>235.973</ele>
        <time>2019-09-30T15:11:47Z</time>
      </trkpt>
      <trkpt lat="47.24019" lon="6.02203">
        <ele>236.722</ele>
        <time>2019-09-30T15:11:50Z</time>
      </trkpt>
      <trkpt lat="47.24016" lon="6.02207">
        <ele>237.01</ele>
        <time>2019-09-30T15:11:53Z</time>
      </trkpt>
      <trkpt lat="47.24013" lon="6.02208">
        <ele>237.499</ele>
        <time>2019-09-30T15:11:56Z</time>
      </trkpt>
      <trkpt lat="47.24012" lon="6.02207">
        <ele>237.714</ele>
        <time>2019-09-30T15:11:59Z</time>
      </trkpt>
      <trkpt lat="47.2401" lon="6.02207">
        <ele>238.76</ele>
        <time>2019-09-30T15:12:02Z</time>
      </trkpt>
      <trkpt lat="47.24005" lon="6.02209">
        <ele>242.693</ele>
        <time>2019-09-30T15:12:05Z</time>
      </trkpt>
      <trkpt lat="47.24002" lon="6.0221">
        <ele>243.544</ele>
        <time>2019-09-30T15:12:29Z</time>
      </trkpt>
      <trkpt lat="47.24" lon="6.02209">
        <ele>243.848</ele>
        <time>2019-09-30T15:12:32Z</time>
      </trkpt>
      <trkpt lat="47.23994" lon="6.02201">
        <ele>245.7</ele>
        <time>2019-09-30T15:12:38Z</time>
      </trkpt>
      <trkpt lat="47.2399" lon="6.02191">
        <ele>246.267</ele>
        <time>2019-09-30T15:12:41Z</time>
      </trkpt>
      <trkpt lat="47.23985" lon="6.02179">
        <ele>246.94</ele>
        <time>2019-09-30T15:12:44Z</time>
      </trkpt>
      <trkpt lat="47.23981" lon="6.02166">
        <ele>247.551</ele>
        <time>2019-09-30T15:12:47Z</time>
      </trkpt>
      <trkpt lat="47.23977" lon="6.02155">
        <ele>247.94</ele>
        <time>2019-09-30T15:12:50Z</time>
      </trkpt>
      <trkpt lat="47.23971" lon="6.02144">
        <ele>248.685</ele>
        <time>2019-09-30T15:12:53Z</time>
      </trkpt>
      <trkpt lat="47.23964" lon="6.02135">
        <ele>249.43</ele>
        <time>2019-09-30T15:12:56Z</time>
      </trkpt>
      <trkpt lat="47.23961" lon="6.02128">
        <ele>250.222</ele>
        <time>2019-09-30T15:12:59Z</time>
      </trkpt>
      <trkpt lat="47.23964" lon="6.02116">
        <ele>249.089</ele>
        <time>2019-09-30T15:13:02Z</time>
      </trkpt>
      <trkpt lat="47.23966" lon="6.02106">
        <ele>248.544</ele>
        <time>2019-09-30T15:13:05Z</time>
      </trkpt>
      <trkpt lat="47.23966" lon="6.02094">
        <ele>248.317</ele>
        <time>2019-09-30T15:13:08Z</time>
      </trkpt>
      <trkpt lat="47.23969" lon="6.02084">
        <ele>249.331</ele>
        <time>2019-09-30T15:13:11Z</time>
      </trkpt>
      <trkpt lat="47.23974" lon="6.02076">
        <ele>249.133</ele>
        <time>2019-09-30T15:13:14Z</time>
      </trkpt>
      <trkpt lat="47.23979" lon="6.02065">
        <ele>247.778</ele>
        <time>2019-09-30T15:13:17Z</time>
      </trkpt>
      <trkpt lat="47.23985" lon="6.02053">
        <ele>246.601</ele>
        <time>2019-09-30T15:13:20Z</time>
      </trkpt>
      <trkpt lat="47.23991" lon="6.0204">
        <ele>245.846</ele>
        <time>2019-09-30T15:13:23Z</time>
      </trkpt>
      <trkpt lat="47.23994" lon="6.02025">
        <ele>242.817</ele>
        <time>2019-09-30T15:13:26Z</time>
      </trkpt>
      <trkpt lat="47.23999" lon="6.0201">
        <ele>240.662</ele>
        <time>2019-09-30T15:13:29Z</time>
      </trkpt>
      <trkpt lat="47.24006" lon="6.01997">
        <ele>239.939</ele>
        <time>2019-09-30T15:13:32Z</time>
      </trkpt>
      <trkpt lat="47.24009" lon="6.01988">
        <ele>240.966</ele>
        <time>2019-09-30T15:13:35Z</time>
      </trkpt>
      <trkpt lat="47.24014" lon="6.01985">
        <ele>242.094</ele>
        <time>2019-09-30T15:13:38Z</time>
      </trkpt>
      <trkpt lat="47.24026" lon="6.01995">
        <ele>243.341</ele>
        <time>2019-09-30T15:13:41Z</time>
      </trkpt>
      <trkpt lat="47.24037" lon="6.02004">
        <ele>244.671</ele>
        <time>2019-09-30T15:13:44Z</time>
      </trkpt>
      <trkpt lat="47.24048" lon="6.02013">
        <ele>245.88</ele>
        <time>2019-09-30T15:13:47Z</time>
      </trkpt>
      <trkpt lat="47.24055" lon="6.02022">
        <ele>247.329</ele>
        <time>2019-09-30T15:13:50Z</time>
      </trkpt>
      <trkpt lat="47.24062" lon="6.02033">
        <ele>249.516</ele>
        <time>2019-09-30T15:13:53Z</time>
      </trkpt>
      <trkpt lat="47.2407" lon="6.02038">
        <ele>251.431</ele>
        <time>2019-09-30T15:13:56Z</time>
      </trkpt>
      <trkpt lat="47.24081" lon="6.0204">
        <ele>253.12</ele>
        <time>2019-09-30T15:13:59Z</time>
      </trkpt>
      <trkpt lat="47.24095" lon="6.02045">
        <ele>255.179</ele>
        <time>2019-09-30T15:14:02Z</time>
      </trkpt>
      <trkpt lat="47.24108" lon="6.02052">
        <ele>257.607</ele>
        <time>2019-09-30T15:14:05Z</time>
      </trkpt>
      <trkpt lat="47.24124" lon="6.02059">
        <ele>260.44</ele>
        <time>2019-09-30T15:14:08Z</time>
      </trkpt>
      <trkpt lat="47.24133" lon="6.02062">
        <ele>262.948</ele>
        <time>2019-09-30T15:14:11Z</time>
      </trkpt>
      <trkpt lat="47.2414" lon="6.02064">
        <ele>264.726</ele>
        <time>2019-09-30T15:14:14Z</time>
      </trkpt>
      <trkpt lat="47.24148" lon="6.02065">
        <ele>266.652</ele>
        <time>2019-09-30T15:14:17Z</time>
      </trkpt>
      <trkpt lat="47.24156" lon="6.02069">
        <ele>268.489</ele>
        <time>2019-09-30T15:14:20Z</time>
      </trkpt>
      <trkpt lat="47.24165" lon="6.02072">
        <ele>269.95</ele>
        <time>2019-09-30T15:14:23Z</time>
      </trkpt>
      <trkpt lat="47.24173" lon="6.02077">
        <ele>271.024</ele>
        <time>2019-09-30T15:14:26Z</time>
      </trkpt>
      <trkpt lat="47.24184" lon="6.02077">
        <ele>271.891</ele>
        <time>2019-09-30T15:14:29Z</time>
      </trkpt>
      <trkpt lat="47.24195" lon="6.02077">
        <ele>272.804</ele>
        <time>2019-09-30T15:14:32Z</time>
      </trkpt>
      <trkpt lat="47.24206" lon="6.02079">
        <ele>272.7</ele>
        <time>2019-09-30T15:14:35Z</time>
      </trkpt>
      <trkpt lat="47.24215" lon="6.0208">
        <ele>271.753</ele>
        <time>2019-09-30T15:14:38Z</time>
      </trkpt>
      <trkpt lat="47.24226" lon="6.02087">
        <ele>271.361</ele>
        <time>2019-09-30T15:14:41Z</time>
      </trkpt>
      <trkpt lat="47.24236" lon="6.02097">
        <ele>271.32</ele>
        <time>2019-09-30T15:14:44Z</time>
      </trkpt>
      <trkpt lat="47.24245" lon="6.02105">
        <ele>273.595</ele>
        <time>2019-09-30T15:14:47Z</time>
      </trkpt>
      <trkpt lat="47.24256" lon="6.02108">
        <ele>276.051</ele>
        <time>2019-09-30T15:14:50Z</time>
      </trkpt>
      <trkpt lat="47.24264" lon="6.02113">
        <ele>277.657</ele>
        <time>2019-09-30T15:14:53Z</time>
      </trkpt>
      <trkpt lat="47.24272" lon="6.02118">
        <ele>279.839</ele>
        <time>2019-09-30T15:14:56Z</time>
      </trkpt>
      <trkpt lat="47.24281" lon="6.02129">
        <ele>281.168</ele>
        <time>2019-09-30T15:14:59Z</time>
      </trkpt>
      <trkpt lat="47.24288" lon="6.02138">
        <ele>282.895</ele>
        <time>2019-09-30T15:15:02Z</time>
      </trkpt>
      <trkpt lat="47.24296" lon="6.02148">
        <ele>283.717</ele>
        <time>2019-09-30T15:15:05Z</time>
      </trkpt>
      <trkpt lat="47.24303" lon="6.02158">
        <ele>283.948</ele>
        <time>2019-09-30T15:15:08Z</time>
      </trkpt>
      <trkpt lat="47.24311" lon="6.02166">
        <ele>285.105</ele>
        <time>2019-09-30T15:15:11Z</time>
      </trkpt>
      <trkpt lat="47.24317" lon="6.02173">
        <ele>286.019</ele>
        <time>2019-09-30T15:15:14Z</time>
      </trkpt>
      <trkpt lat="47.24323" lon="6.02179">
        <ele>286.811</ele>
        <time>2019-09-30T15:15:17Z</time>
      </trkpt>
      <trkpt lat="47.2433" lon="6.02189">
        <ele>286.362</ele>
        <time>2019-09-30T15:15:20Z</time>
      </trkpt>
      <trkpt lat="47.24336" lon="6.02192">
        <ele>288.562</ele>
        <time>2019-09-30T15:15:23Z</time>
      </trkpt>
      <trkpt lat="47.24343" lon="6.02193">
        <ele>289.225</ele>
        <time>2019-09-30T15:15:26Z</time>
      </trkpt>
      <trkpt lat="47.24356" lon="6.02188">
        <ele>289.211</ele>
        <time>2019-09-30T15:15:29Z</time>
      </trkpt>
      <trkpt lat="47.24366" lon="6.02187">
        <ele>288.786</ele>
        <time>2019-09-30T15:15:32Z</time>
      </trkpt>
      <trkpt lat="47.24376" lon="6.02186">
        <ele>288.214</ele>
        <time>2019-09-30T15:15:35Z</time>
      </trkpt>
      <trkpt lat="47.24385" lon="6.02184">
        <ele>286.222</ele>
        <time>2019-09-30T15:15:38Z</time>
      </trkpt>
      <trkpt lat="47.24395" lon="6.02181">
        <ele>283.071</ele>
        <time>2019-09-30T15:15:41Z</time>
      </trkpt>
      <trkpt lat="47.24405" lon="6.02179">
        <ele>280.796</ele>
        <time>2019-09-30T15:15:44Z</time>
      </trkpt>
      <trkpt lat="47.24415" lon="6.02178">
        <ele>278.402</ele>
        <time>2019-09-30T15:15:47Z</time>
      </trkpt>
      <trkpt lat="47.24422" lon="6.0218">
        <ele>276.551</ele>
        <time>2019-09-30T15:15:50Z</time>
      </trkpt>
      <trkpt lat="47.24428" lon="6.02181">
        <ele>274.248</ele>
        <time>2019-09-30T15:15:53Z</time>
      </trkpt>
      <trkpt lat="47.24433" lon="6.02184">
        <ele>273.374</ele>
        <time>2019-09-30T15:15:56Z</time>
      </trkpt>
      <trkpt lat="47.24442" lon="6.02184">
        <ele>272.22</ele>
        <time>2019-09-30T15:16:02Z</time>
      </trkpt>
      <trkpt lat="47.24449" lon="6.02183">
        <ele>270.815</ele>
        <time>2019-09-30T15:16:05Z</time>
      </trkpt>
      <trkpt lat="47.24457" lon="6.02182">
        <ele>269.991</ele>
        <time>2019-09-30T15:16:08Z</time>
      </trkpt>
      <trkpt lat="47.24466" lon="6.02178">
        <ele>269.639</ele>
        <time>2019-09-30T15:16:11Z</time>
      </trkpt>
      <trkpt lat="47.24473" lon="6.02171">
        <ele>270.069</ele>
        <time>2019-09-30T15:16:14Z</time>
      </trkpt>
      <trkpt lat="47.24478" lon="6.02161">
        <ele>269.782</ele>
        <time>2019-09-30T15:16:17Z</time>
      </trkpt>
      <trkpt lat="47.24482" lon="6.02152">
        <ele>269.775</ele>
        <time>2019-09-30T15:16:20Z</time>
      </trkpt>
      <trkpt lat="47.24484" lon="6.02143">
        <ele>269.966</ele>
        <time>2019-09-30T15:16:23Z</time>
      </trkpt>
      <trkpt lat="47.24486" lon="6.02131">
        <ele>270.543</ele>
        <time>2019-09-30T15:16:26Z</time>
      </trkpt>
      <trkpt lat="47.24489" lon="6.02122">
        <ele>271.266</ele>
        <time>2019-09-30T15:16:29Z</time>
      </trkpt>
      <trkpt lat="47.24492" lon="6.02113">
        <ele>272.548</ele>
        <time>2019-09-30T15:16:32Z</time>
      </trkpt>
      <trkpt lat="47.24496" lon="6.02108">
        <ele>274.134</ele>
        <time>2019-09-30T15:16:35Z</time>
      </trkpt>
      <trkpt lat="47.24499" lon="6.02103">
        <ele>275.372</ele>
        <time>2019-09-30T15:16:38Z</time>
      </trkpt>
      <trkpt lat="47.24503" lon="6.02097">
        <ele>276.819</ele>
        <time>2019-09-30T15:16:41Z</time>
      </trkpt>
      <trkpt lat="47.24506" lon="6.02091">
        <ele>277.743</ele>
        <time>2019-09-30T15:16:44Z</time>
      </trkpt>
      <trkpt lat="47.24508" lon="6.02084">
        <ele>277.98</ele>
        <time>2019-09-30T15:16:47Z</time>
      </trkpt>
      <trkpt lat="47.24511" lon="6.02077">
        <ele>278.076</ele>
        <time>2019-09-30T15:16:50Z</time>
      </trkpt>
      <trkpt lat="47.24513" lon="6.02069">
        <ele>278.937</ele>
        <time>2019-09-30T15:16:53Z</time>
      </trkpt>
      <trkpt lat="47.24518" lon="6.02061">
        <ele>279.918</ele>
        <time>2019-09-30T15:16:56Z</time>
      </trkpt>
      <trkpt lat="47.24522" lon="6.02054">
        <ele>280.977</ele>
        <time>2019-09-30T15:16:59Z</time>
      </trkpt>
      <trkpt lat="47.24526" lon="6.02047">
        <ele>281.956</ele>
        <time>2019-09-30T15:17:02Z</time>
      </trkpt>
      <trkpt lat="47.2453" lon="6.02041">
        <ele>282.316</ele>
        <time>2019-09-30T15:17:05Z</time>
      </trkpt>
      <trkpt lat="47.24534" lon="6.02035">
        <ele>282.301</ele>
        <time>2019-09-30T15:17:08Z</time>
      </trkpt>
      <trkpt lat="47.24541" lon="6.02027">
        <ele>284.502</ele>
        <time>2019-09-30T15:17:14Z</time>
      </trkpt>
      <trkpt lat="47.24546" lon="6.02021">
        <ele>285.617</ele>
        <time>2019-09-30T15:17:17Z</time>
      </trkpt>
      <trkpt lat="47.24552" lon="6.02011">
        <ele>286.416</ele>
        <time>2019-09-30T15:17:23Z</time>
      </trkpt>
      <trkpt lat="47.24553" lon="6.01998">
        <ele>286.541</ele>
        <time>2019-09-30T15:17:26Z</time>
      </trkpt>
      <trkpt lat="47.24552" lon="6.01986">
        <ele>286.266</ele>
        <time>2019-09-30T15:17:29Z</time>
      </trkpt>
      <trkpt lat="47.24551" lon="6.01974">
        <ele>286.644</ele>
        <time>2019-09-30T15:17:32Z</time>
      </trkpt>
      <trkpt lat="47.24552" lon="6.01961">
        <ele>287.2</ele>
        <time>2019-09-30T15:17:35Z</time>
      </trkpt>
      <trkpt lat="47.24555" lon="6.01948">
        <ele>287.442</ele>
        <time>2019-09-30T15:17:38Z</time>
      </trkpt>
      <trkpt lat="47.24561" lon="6.01935">
        <ele>287.454</ele>
        <time>2019-09-30T15:17:41Z</time>
      </trkpt>
      <trkpt lat="47.24567" lon="6.01922">
        <ele>288.318</ele>
        <time>2019-09-30T15:17:44Z</time>
      </trkpt>
      <trkpt lat="47.24576" lon="6.01914">
        <ele>288.979</ele>
        <time>2019-09-30T15:17:47Z</time>
      </trkpt>
      <trkpt lat="47.24585" lon="6.01905">
        <ele>288.115</ele>
        <time>2019-09-30T15:17:50Z</time>
      </trkpt>
      <trkpt lat="47.24594" lon="6.01898">
        <ele>289.222</ele>
        <time>2019-09-30T15:17:53Z</time>
      </trkpt>
      <trkpt lat="47.24601" lon="6.01896">
        <ele>290.914</ele>
        <time>2019-09-30T15:17:56Z</time>
      </trkpt>
      <trkpt lat="47.24608" lon="6.019">
        <ele>293.259</ele>
        <time>2019-09-30T15:17:59Z</time>
      </trkpt>
      <trkpt lat="47.24615" lon="6.01907">
        <ele>294.756</ele>
        <time>2019-09-30T15:18:02Z</time>
      </trkpt>
      <trkpt lat="47.24623" lon="6.01913">
        <ele>295.858</ele>
        <time>2019-09-30T15:18:05Z</time>
      </trkpt>
      <trkpt lat="47.24631" lon="6.01919">
        <ele>295.13</ele>
        <time>2019-09-30T15:18:08Z</time>
      </trkpt>
      <trkpt lat="47.24638" lon="6.01924">
        <ele>292.673</ele>
        <time>2019-09-30T15:18:11Z</time>
      </trkpt>
      <trkpt lat="47.24646" lon="6.0193">
        <ele>290.684</ele>
        <time>2019-09-30T15:18:14Z</time>
      </trkpt>
      <trkpt lat="47.24652" lon="6.01935">
        <ele>290.152</ele>
        <time>2019-09-30T15:18:17Z</time>
      </trkpt>
      <trkpt lat="47.24661" lon="6.01935">
        <ele>288.145</ele>
        <time>2019-09-30T15:18:20Z</time>
      </trkpt>
      <trkpt lat="47.24664" lon="6.01928">
        <ele>285.95</ele>
        <time>2019-09-30T15:18:23Z</time>
      </trkpt>
      <trkpt lat="47.24662" lon="6.01918">
        <ele>285.667</ele>
        <time>2019-09-30T15:18:26Z</time>
      </trkpt>
      <trkpt lat="47.24657" lon="6.0191">
        <ele>285.351</ele>
        <time>2019-09-30T15:18:29Z</time>
      </trkpt>
      <trkpt lat="47.2465" lon="6.01905">
        <ele>284.988</ele>
        <time>2019-09-30T15:18:32Z</time>
      </trkpt>
      <trkpt lat="47.24644" lon="6.019">
        <ele>284.765</ele>
        <time>2019-09-30T15:18:35Z</time>
      </trkpt>
      <trkpt lat="47.24638" lon="6.01892">
        <ele>284.366</ele>
        <time>2019-09-30T15:18:38Z</time>
      </trkpt>
      <trkpt lat="47.24631" lon="6.01887">
        <ele>285.321</ele>
        <time>2019-09-30T15:18:41Z</time>
      </trkpt>
      <trkpt lat="47.24622" lon="6.01879">
        <ele>285.828</ele>
        <time>2019-09-30T15:18:44Z</time>
      </trkpt>
      <trkpt lat="47.24614" lon="6.0187">
        <ele>286.317</ele>
        <time>2019-09-30T15:18:47Z</time>
      </trkpt>
      <trkpt lat="47.24606" lon="6.01858">
        <ele>286.794</ele>
        <time>2019-09-30T15:18:50Z</time>
      </trkpt>
      <trkpt lat="47.24598" lon="6.01847">
        <ele>287.066</ele>
        <time>2019-09-30T15:18:53Z</time>
      </trkpt>
      <trkpt lat="47.2459" lon="6.01837">
        <ele>287.335</ele>
        <time>2019-09-30T15:18:56Z</time>
      </trkpt>
      <trkpt lat="47.24582" lon="6.01825">
        <ele>287.977</ele>
        <time>2019-09-30T15:18:59Z</time>
      </trkpt>
      <trkpt lat="47.24575" lon="6.01814">
        <ele>289.396</ele>
        <time>2019-09-30T15:19:02Z</time>
      </trkpt>
      <trkpt lat="47.24567" lon="6.01803">
        <ele>290.437</ele>
        <time>2019-09-30T15:19:05Z</time>
      </trkpt>
      <trkpt lat="47.24561" lon="6.01792">
        <ele>291.875</ele>
        <time>2019-09-30T15:19:08Z</time>
      </trkpt>
      <trkpt lat="47.24556" lon="6.01777">
        <ele>292.911</ele>
        <time>2019-09-30T15:19:11Z</time>
      </trkpt>
      <trkpt lat="47.24556" lon="6.01758">
        <ele>293.369</ele>
        <time>2019-09-30T15:19:14Z</time>
      </trkpt>
      <trkpt lat="47.24562" lon="6.01744">
        <ele>291.655</ele>
        <time>2019-09-30T15:19:17Z</time>
      </trkpt>
      <trkpt lat="47.2457" lon="6.01738">
        <ele>291.064</ele>
        <time>2019-09-30T15:19:20Z</time>
      </trkpt>
      <trkpt lat="47.24578" lon="6.01734">
        <ele>290.554</ele>
        <time>2019-09-30T15:19:23Z</time>
      </trkpt>
      <trkpt lat="47.24585" lon="6.0173">
        <ele>291.071</ele>
        <time>2019-09-30T15:19:26Z</time>
      </trkpt>
      <trkpt lat="47.24593" lon="6.01729">
        <ele>292.127</ele>
        <time>2019-09-30T15:19:29Z</time>
      </trkpt>
      <trkpt lat="47.246" lon="6.01726">
        <ele>293.669</ele>
        <time>2019-09-30T15:19:32Z</time>
      </trkpt>
      <trkpt lat="47.24608" lon="6.0172">
        <ele>294.337</ele>
        <time>2019-09-30T15:19:35Z</time>
      </trkpt>
      <trkpt lat="47.24616" lon="6.01715">
        <ele>295.757</ele>
        <time>2019-09-30T15:19:38Z</time>
      </trkpt>
      <trkpt lat="47.24624" lon="6.01711">
        <ele>296.961</ele>
        <time>2019-09-30T15:19:41Z</time>
      </trkpt>
      <trkpt lat="47.24632" lon="6.01712">
        <ele>298.559</ele>
        <time>2019-09-30T15:19:44Z</time>
      </trkpt>
      <trkpt lat="47.24641" lon="6.01714">
        <ele>300.036</ele>
        <time>2019-09-30T15:19:47Z</time>
      </trkpt>
      <trkpt lat="47.2465" lon="6.01714">
        <ele>300.997</ele>
        <time>2019-09-30T15:19:50Z</time>
      </trkpt>
      <trkpt lat="47.2466" lon="6.01716">
        <ele>300.714</ele>
        <time>2019-09-30T15:19:53Z</time>
      </trkpt>
      <trkpt lat="47.24669" lon="6.01714">
        <ele>300.473</ele>
        <time>2019-09-30T15:19:56Z</time>
      </trkpt>
      <trkpt lat="47.24677" lon="6.01711">
        <ele>300.426</ele>
        <time>2019-09-30T15:19:59Z</time>
      </trkpt>
      <trkpt lat="47.24685" lon="6.01709">
        <ele>300.046</ele>
        <time>2019-09-30T15:20:02Z</time>
      </trkpt>
      <trkpt lat="47.24691" lon="6.01706">
        <ele>299.897</ele>
        <time>2019-09-30T15:20:05Z</time>
      </trkpt>
      <trkpt lat="47.24697" lon="6.01703">
        <ele>298.83</ele>
        <time>2019-09-30T15:20:08Z</time>
      </trkpt>
      <trkpt lat="47.24703" lon="6.017">
        <ele>299.127</ele>
        <time>2019-09-30T15:20:11Z</time>
      </trkpt>
      <trkpt lat="47.24709" lon="6.01696">
        <ele>299.511</ele>
        <time>2019-09-30T15:20:14Z</time>
      </trkpt>
      <trkpt lat="47.24714" lon="6.01689">
        <ele>301.941</ele>
        <time>2019-09-30T15:20:17Z</time>
      </trkpt>
      <trkpt lat="47.24719" lon="6.01687">
        <ele>302.857</ele>
        <time>2019-09-30T15:20:20Z</time>
      </trkpt>
      <trkpt lat="47.24726" lon="6.01687">
        <ele>302.42</ele>
        <time>2019-09-30T15:20:23Z</time>
      </trkpt>
      <trkpt lat="47.24732" lon="6.01688">
        <ele>302.131</ele>
        <time>2019-09-30T15:20:26Z</time>
      </trkpt>
      <trkpt lat="47.24739" lon="6.01687">
        <ele>301.914</ele>
        <time>2019-09-30T15:20:29Z</time>
      </trkpt>
      <trkpt lat="47.24745" lon="6.01685">
        <ele>302.229</ele>
        <time>2019-09-30T15:20:32Z</time>
      </trkpt>
      <trkpt lat="47.24752" lon="6.01684">
        <ele>302.565</ele>
        <time>2019-09-30T15:20:35Z</time>
      </trkpt>
      <trkpt lat="47.24757" lon="6.01681">
        <ele>302.681</ele>
        <time>2019-09-30T15:20:38Z</time>
      </trkpt>
      <trkpt lat="47.24762" lon="6.01678">
        <ele>302.445</ele>
        <time>2019-09-30T15:20:41Z</time>
      </trkpt>
      <trkpt lat="47.24769" lon="6.01676">
        <ele>302.44</ele>
        <time>2019-09-30T15:20:44Z</time>
      </trkpt>
      <trkpt lat="47.24776" lon="6.01673">
        <ele>302.962</ele>
        <time>2019-09-30T15:20:47Z</time>
      </trkpt>
      <trkpt lat="47.24782" lon="6.01671">
        <ele>304.292</ele>
        <time>2019-09-30T15:20:50Z</time>
      </trkpt>
      <trkpt lat="47.24788" lon="6.01669">
        <ele>304.223</ele>
        <time>2019-09-30T15:20:53Z</time>
      </trkpt>
      <trkpt lat="47.24793" lon="6.01665">
        <ele>303.966</ele>
        <time>2019-09-30T15:20:56Z</time>
      </trkpt>
      <trkpt lat="47.24799" lon="6.01664">
        <ele>304.495</ele>
        <time>2019-09-30T15:20:59Z</time>
      </trkpt>
      <trkpt lat="47.24806" lon="6.01662">
        <ele>305.002</ele>
        <time>2019-09-30T15:21:02Z</time>
      </trkpt>
      <trkpt lat="47.24812" lon="6.0166">
        <ele>304.981</ele>
        <time>2019-09-30T15:21:05Z</time>
      </trkpt>
      <trkpt lat="47.24819" lon="6.01657">
        <ele>305.974</ele>
        <time>2019-09-30T15:21:08Z</time>
      </trkpt>
      <trkpt lat="47.24825" lon="6.01653">
        <ele>307.25</ele>
        <time>2019-09-30T15:21:11Z</time>
      </trkpt>
      <trkpt lat="47.2483" lon="6.01648">
        <ele>308.934</ele>
        <time>2019-09-30T15:21:14Z</time>
      </trkpt>
      <trkpt lat="47.24836" lon="6.01645">
        <ele>310.159</ele>
        <time>2019-09-30T15:21:17Z</time>
      </trkpt>
      <trkpt lat="47.24842" lon="6.01642">
        <ele>310.726</ele>
        <time>2019-09-30T15:21:20Z</time>
      </trkpt>
      <trkpt lat="47.24847" lon="6.01641">
        <ele>311.601</ele>
        <time>2019-09-30T15:21:23Z</time>
      </trkpt>
      <trkpt lat="47.24852" lon="6.01639">
        <ele>312.916</ele>
        <time>2019-09-30T15:21:26Z</time>
      </trkpt>
      <trkpt lat="47.24858" lon="6.01637">
        <ele>314.939</ele>
        <time>2019-09-30T15:21:29Z</time>
      </trkpt>
      <trkpt lat="47.24863" lon="6.01635">
        <ele>316.437</ele>
        <time>2019-09-30T15:21:32Z</time>
      </trkpt>
      <trkpt lat="47.24871" lon="6.0163">
        <ele>319.327</ele>
        <time>2019-09-30T15:21:38Z</time>
      </trkpt>
      <trkpt lat="47.24876" lon="6.01627">
        <ele>321.647</ele>
        <time>2019-09-30T15:21:41Z</time>
      </trkpt>
      <trkpt lat="47.24883" lon="6.01623">
        <ele>324.08</ele>
        <time>2019-09-30T15:21:44Z</time>
      </trkpt>
      <trkpt lat="47.24889" lon="6.0162">
        <ele>324.971</ele>
        <time>2019-09-30T15:21:47Z</time>
      </trkpt>
      <trkpt lat="47.24895" lon="6.01619">
        <ele>326.444</ele>
        <time>2019-09-30T15:21:50Z</time>
      </trkpt>
      <trkpt lat="47.249" lon="6.01622">
        <ele>327.439</ele>
        <time>2019-09-30T15:21:53Z</time>
      </trkpt>
      <trkpt lat="47.24904" lon="6.01636">
        <ele>326.579</ele>
        <time>2019-09-30T15:21:59Z</time>
      </trkpt>
      <trkpt lat="47.24907" lon="6.01646">
        <ele>322.884</ele>
        <time>2019-09-30T15:22:02Z</time>
      </trkpt>
      <trkpt lat="47.24913" lon="6.01653">
        <ele>319.814</ele>
        <time>2019-09-30T15:22:05Z</time>
      </trkpt>
      <trkpt lat="47.24918" lon="6.01664">
        <ele>318.423</ele>
        <time>2019-09-30T15:22:08Z</time>
      </trkpt>
      <trkpt lat="47.24924" lon="6.01676">
        <ele>316.982</ele>
        <time>2019-09-30T15:22:11Z</time>
      </trkpt>
      <trkpt lat="47.24929" lon="6.01684">
        <ele>317.108</ele>
        <time>2019-09-30T15:22:14Z</time>
      </trkpt>
      <trkpt lat="47.24932" lon="6.01691">
        <ele>317.046</ele>
        <time>2019-09-30T15:22:17Z</time>
      </trkpt>
      <trkpt lat="47.24933" lon="6.01691">
        <ele>316.403</ele>
        <time>2019-09-30T15:29:11Z</time>
      </trkpt>
      <trkpt lat="47.24932" lon="6.01689">
        <ele>316.659</ele>
        <time>2019-09-30T15:29:14Z</time>
      </trkpt>
      <trkpt lat="47.2493" lon="6.01688">
        <ele>315.952</ele>
        <time>2019-09-30T15:29:17Z</time>
      </trkpt>
      <trkpt lat="47.2493" lon="6.01688">
        <ele>315.952</ele>
        <time>2019-09-30T15:29:20Z</time>
      </trkpt>
      <trkpt lat="47.24928" lon="6.01686">
        <ele>316.602</ele>
        <time>2019-09-30T15:29:23Z</time>
      </trkpt>
      <trkpt lat="47.24923" lon="6.01682">
        <ele>318.416</ele>
        <time>2019-09-30T15:29:29Z</time>
      </trkpt>
      <trkpt lat="47.24918" lon="6.0168">
        <ele>320.681</ele>
        <time>2019-09-30T15:29:35Z</time>
      </trkpt>
      <trkpt lat="47.24912" lon="6.01678">
        <ele>324.356</ele>
        <time>2019-09-30T15:29:44Z</time>
      </trkpt>
      <trkpt lat="47.24906" lon="6.0168">
        <ele>317.908</ele>
        <time>2019-09-30T15:29:56Z</time>
      </trkpt>
      <trkpt lat="47.24901" lon="6.01686">
        <ele>317.376</ele>
        <time>2019-09-30T15:30:02Z</time>
      </trkpt>
      <trkpt lat="47.24898" lon="6.01692">
        <ele>315.672</ele>
        <time>2019-09-30T15:30:08Z</time>
      </trkpt>
      <trkpt lat="47.24897" lon="6.01694">
        <ele>315.294</ele>
        <time>2019-09-30T15:30:11Z</time>
      </trkpt>
      <trkpt lat="47.24896" lon="6.01694">
        <ele>314.526</ele>
        <time>2019-09-30T15:30:14Z</time>
      </trkpt>
      <trkpt lat="47.24896" lon="6.01694">
        <ele>314.526</ele>
        <time>2019-09-30T15:30:26Z</time>
      </trkpt>
      <trkpt lat="47.24897" lon="6.01692">
        <ele>314.522</ele>
        <time>2019-09-30T15:30:29Z</time>
      </trkpt>
      <trkpt lat="47.24897" lon="6.01685">
        <ele>314.462</ele>
        <time>2019-09-30T15:30:32Z</time>
      </trkpt>
      <trkpt lat="47.24899" lon="6.01679">
        <ele>314.459</ele>
        <time>2019-09-30T15:30:35Z</time>
      </trkpt>
      <trkpt lat="47.24905" lon="6.0167">
        <ele>314.462</ele>
        <time>2019-09-30T15:30:41Z</time>
      </trkpt>
      <trkpt lat="47.24909" lon="6.01666">
        <ele>314.461</ele>
        <time>2019-09-30T15:30:44Z</time>
      </trkpt>
      <trkpt lat="47.24895" lon="6.01746">
        <ele>302.417</ele>
        <time>2019-09-30T15:33:17Z</time>
      </trkpt>
      <trkpt lat="47.24888" lon="6.01748">
        <ele>303.076</ele>
        <time>2019-09-30T15:34:13Z</time>
      </trkpt>
      <trkpt lat="47.24873" lon="6.0177">
        <ele>318.244</ele>
        <time>2019-09-30T15:34:16Z</time>
      </trkpt>
      <trkpt lat="47.24861" lon="6.01782">
        <ele>325.718</ele>
        <time>2019-09-30T15:34:19Z</time>
      </trkpt>
      <trkpt lat="47.24851" lon="6.01791">
        <ele>333.688</ele>
        <time>2019-09-30T15:34:22Z</time>
      </trkpt>
      <trkpt lat="47.24847" lon="6.01797">
        <ele>332.235</ele>
        <time>2019-09-30T15:34:25Z</time>
      </trkpt>
      <trkpt lat="47.24855" lon="6.0179">
        <ele>311.663</ele>
        <time>2019-09-30T15:34:28Z</time>
      </trkpt>
      <trkpt lat="47.2486" lon="6.01784">
        <ele>293.044</ele>
        <time>2019-09-30T15:34:31Z</time>
      </trkpt>
      <trkpt lat="47.24855" lon="6.01787">
        <ele>281.952</ele>
        <time>2019-09-30T15:34:40Z</time>
      </trkpt>
      <trkpt lat="47.24847" lon="6.0179">
        <ele>290.711</ele>
        <time>2019-09-30T15:34:43Z</time>
      </trkpt>
      <trkpt lat="47.24837" lon="6.01806">
        <ele>305.834</ele>
        <time>2019-09-30T15:34:46Z</time>
      </trkpt>
      <trkpt lat="47.2483" lon="6.01821">
        <ele>321.429</ele>
        <time>2019-09-30T15:34:49Z</time>
      </trkpt>
      <trkpt lat="47.24807" lon="6.01831">
        <ele>344.674</ele>
        <time>2019-09-30T15:34:52Z</time>
      </trkpt>
      <trkpt lat="47.24798" lon="6.01836">
        <ele>352.068</ele>
        <time>2019-09-30T15:34:55Z</time>
      </trkpt>
      <trkpt lat="47.24898" lon="6.01684">
        <ele>321.615</ele>
        <time>2019-09-30T15:38:19.001Z</time>
      </trkpt>
      <trkpt lat="47.24902" lon="6.01677">
        <ele>321.746</ele>
        <time>2019-09-30T15:38:34.001Z</time>
      </trkpt>
      <trkpt lat="47.24906" lon="6.01668">
        <ele>319.265</ele>
        <time>2019-09-30T15:38:43.001Z</time>
      </trkpt>
      <trkpt lat="47.24911" lon="6.01664">
        <ele>318.076</ele>
        <time>2019-09-30T15:38:46.001Z</time>
      </trkpt>
      <trkpt lat="47.24916" lon="6.01665">
        <ele>320.601</ele>
        <time>2019-09-30T15:38:52.001Z</time>
      </trkpt>
      <trkpt lat="47.2492" lon="6.01669">
        <ele>320.809</ele>
        <time>2019-09-30T15:38:58.001Z</time>
      </trkpt>
      <trkpt lat="47.24924" lon="6.01676">
        <ele>320.56</ele>
        <time>2019-09-30T15:39:04.001Z</time>
      </trkpt>
      <trkpt lat="47.2493" lon="6.01678">
        <ele>320.754</ele>
        <time>2019-09-30T15:39:10.001Z</time>
      </trkpt>
      <trkpt lat="47.24936" lon="6.01675">
        <ele>321.442</ele>
        <time>2019-09-30T15:39:16Z</time>
      </trkpt>
      <trkpt lat="47.2494" lon="6.01668">
        <ele>321.853</ele>
        <time>2019-09-30T15:39:22.001Z</time>
      </trkpt>
      <trkpt lat="47.24947" lon="6.0167">
        <ele>323.577</ele>
        <time>2019-09-30T15:39:31.001Z</time>
      </trkpt>
      <trkpt lat="47.24952" lon="6.01668">
        <ele>325.458</ele>
        <time>2019-09-30T15:39:40.001Z</time>
      </trkpt>
      <trkpt lat="47.24958" lon="6.01664">
        <ele>325.834</ele>
        <time>2019-09-30T15:39:46.001Z</time>
      </trkpt>
      <trkpt lat="47.24964" lon="6.01663">
        <ele>326.669</ele>
        <time>2019-09-30T15:39:52.001Z</time>
      </trkpt>
      <trkpt lat="47.2497" lon="6.01663">
        <ele>327.438</ele>
        <time>2019-09-30T15:39:58.001Z</time>
      </trkpt>
      <trkpt lat="47.24976" lon="6.01666">
        <ele>328.155</ele>
        <time>2019-09-30T15:40:04.001Z</time>
      </trkpt>
      <trkpt lat="47.24981" lon="6.01666">
        <ele>327.952</ele>
        <time>2019-09-30T15:40:13.001Z</time>
      </trkpt>
      <trkpt lat="47.24984" lon="6.01672">
        <ele>328.815</ele>
        <time>2019-09-30T15:40:22.001Z</time>
      </trkpt>
      <trkpt lat="47.24989" lon="6.01672">
        <ele>329.742</ele>
        <time>2019-09-30T15:40:40.001Z</time>
      </trkpt>
      <trkpt lat="47.24991" lon="6.01678">
        <ele>330.534</ele>
        <time>2019-09-30T15:40:43.001Z</time>
      </trkpt>
      <trkpt lat="47.24995" lon="6.01685">
        <ele>331.983</ele>
        <time>2019-09-30T15:40:49.001Z</time>
      </trkpt>
      <trkpt lat="47.24993" lon="6.01689">
        <ele>332.556</ele>
        <time>2019-09-30T15:41:07.001Z</time>
      </trkpt>
      <trkpt lat="47.24993" lon="6.01688">
        <ele>332.556</ele>
        <time>2019-09-30T15:41:10.001Z</time>
      </trkpt>
      <trkpt lat="47.24993" lon="6.01688">
        <ele>332.556</ele>
        <time>2019-09-30T15:41:19.001Z</time>
      </trkpt>
      <trkpt lat="47.24992" lon="6.01685">
        <ele>332.545</ele>
        <time>2019-09-30T15:41:22.001Z</time>
      </trkpt>
      <trkpt lat="47.2499" lon="6.01678">
        <ele>308.9</ele>
        <time>2019-09-30T15:41:40.001Z</time>
      </trkpt>
      <trkpt lat="47.24985" lon="6.01676">
        <ele>308.6</ele>
        <time>2019-09-30T15:41:46.001Z</time>
      </trkpt>
      <trkpt lat="47.24979" lon="6.01674">
        <ele>308.2</ele>
        <time>2019-09-30T15:41:55.001Z</time>
      </trkpt>
      <trkpt lat="47.25013" lon="6.01717">
        <ele>323.683</ele>
        <time>2019-09-30T15:42:01Z</time>
      </trkpt>
      <trkpt lat="47.25013" lon="6.01717">
        <ele>325.874</ele>
        <time>2019-09-30T15:42:04.001Z</time>
      </trkpt>
      <trkpt lat="47.25004" lon="6.01693">
        <ele>315.437</ele>
        <time>2019-09-30T15:42:16Z</time>
      </trkpt>
      <trkpt lat="47.24985" lon="6.01685">
        <ele>327.326</ele>
        <time>2019-09-30T15:42:28.001Z</time>
      </trkpt>
      <trkpt lat="47.24981" lon="6.01683">
        <ele>330.654</ele>
        <time>2019-09-30T15:42:31.001Z</time>
      </trkpt>
      <trkpt lat="47.24978" lon="6.01681">
        <ele>333.415</ele>
        <time>2019-09-30T15:42:34.001Z</time>
      </trkpt>
      <trkpt lat="47.24978" lon="6.01654">
        <ele>332.015</ele>
        <time>2019-09-30T15:45:25.001Z</time>
      </trkpt>
      <trkpt lat="47.24978" lon="6.01653">
        <ele>331.681</ele>
        <time>2019-09-30T15:45:28.001Z</time>
      </trkpt>
      <trkpt lat="47.24978" lon="6.01653">
        <ele>331.615</ele>
        <time>2019-09-30T15:45:31.001Z</time>
      </trkpt>
      <trkpt lat="47.24978" lon="6.01653">
        <ele>331.38</ele>
        <time>2019-09-30T15:45:34.001Z</time>
      </trkpt>
      <trkpt lat="47.24977" lon="6.01653">
        <ele>330.858</ele>
        <time>2019-09-30T15:45:37.001Z</time>
      </trkpt>
      <trkpt lat="47.24978" lon="6.01655">
        <ele>330.951</ele>
        <time>2019-09-30T15:45:40.001Z</time>
      </trkpt>
      <trkpt lat="47.24978" lon="6.01656">
        <ele>309.1</ele>
        <time>2019-09-30T15:45:43.001Z</time>
      </trkpt>
    </trkseg>
  </trk>
</gpx>